<?xml version="1.0" encoding="UTF-8" standalone="no" ?>
<gpx xmlns="http://www.topografix.com/GPX/1/1" xmlns:xsi="http://www.w3.org/2001/XMLSchema-instance" xsi:schemaLocation="http://www.topografix.com/GPX/1/1 http://www.topografix.com/GPX/1/1/gpx.xsd" version="1.1" creator="VisuGPX - https://www.visugpx.com">
  <metadata>
    <name>Parcours 54 + accès</name>
  </metadata>
  <trk>
    <name><![CDATA[2023 07 04 parcours 54 + accès]]></name>
    <trkseg>
      <trkpt lat="45.83335" lon="4.7089">
        <ele>359.46851</ele>
        <time>2023-07-04T13:25:07.000Z</time>
      </trkpt>
      <trkpt lat="45.83335" lon="4.70885">
        <ele>359.39801</ele>
        <time>2023-07-04T13:25:22.000Z</time>
      </trkpt>
      <trkpt lat="45.83335" lon="4.70881">
        <ele>359.56357</ele>
        <time>2023-07-04T13:25:24.000Z</time>
      </trkpt>
      <trkpt lat="45.83335" lon="4.70878">
        <ele>359.51251</ele>
        <time>2023-07-04T13:25:25.000Z</time>
      </trkpt>
      <trkpt lat="45.83335" lon="4.70875">
        <ele>359.51016</ele>
        <time>2023-07-04T13:25:26.000Z</time>
      </trkpt>
      <trkpt lat="45.83335" lon="4.70872">
        <ele>359.60611</ele>
        <time>2023-07-04T13:25:27.000Z</time>
      </trkpt>
      <trkpt lat="45.83335" lon="4.70869">
        <ele>359.72726</ele>
        <time>2023-07-04T13:25:28.000Z</time>
      </trkpt>
      <trkpt lat="45.83335" lon="4.70866">
        <ele>359.75586</ele>
        <time>2023-07-04T13:25:29.000Z</time>
      </trkpt>
      <trkpt lat="45.83335" lon="4.70862">
        <ele>359.80267</ele>
        <time>2023-07-04T13:25:30.000Z</time>
      </trkpt>
      <trkpt lat="45.83336" lon="4.70859">
        <ele>359.85458</ele>
        <time>2023-07-04T13:25:31.000Z</time>
      </trkpt>
      <trkpt lat="45.83336" lon="4.70855">
        <ele>359.87918</ele>
        <time>2023-07-04T13:25:32.000Z</time>
      </trkpt>
      <trkpt lat="45.83337" lon="4.7085">
        <ele>359.89236</ele>
        <time>2023-07-04T13:25:33.000Z</time>
      </trkpt>
      <trkpt lat="45.83337" lon="4.70846">
        <ele>359.91293</ele>
        <time>2023-07-04T13:25:34.000Z</time>
      </trkpt>
      <trkpt lat="45.83337" lon="4.70842">
        <ele>359.90701</ele>
        <time>2023-07-04T13:25:35.000Z</time>
      </trkpt>
      <trkpt lat="45.83338" lon="4.70837">
        <ele>359.91458</ele>
        <time>2023-07-04T13:25:36.000Z</time>
      </trkpt>
      <trkpt lat="45.83338" lon="4.70833">
        <ele>359.94067</ele>
        <time>2023-07-04T13:25:37.000Z</time>
      </trkpt>
      <trkpt lat="45.83339" lon="4.70829">
        <ele>359.93875</ele>
        <time>2023-07-04T13:25:38.000Z</time>
      </trkpt>
      <trkpt lat="45.83339" lon="4.70825">
        <ele>359.95929</ele>
        <time>2023-07-04T13:25:39.000Z</time>
      </trkpt>
      <trkpt lat="45.8334" lon="4.70821">
        <ele>359.94138</ele>
        <time>2023-07-04T13:25:40.000Z</time>
      </trkpt>
      <trkpt lat="45.8334" lon="4.70816">
        <ele>359.90552</ele>
        <time>2023-07-04T13:25:41.000Z</time>
      </trkpt>
      <trkpt lat="45.83341" lon="4.70812">
        <ele>359.8956</ele>
        <time>2023-07-04T13:25:42.000Z</time>
      </trkpt>
      <trkpt lat="45.83341" lon="4.70807">
        <ele>359.91254</ele>
        <time>2023-07-04T13:25:43.000Z</time>
      </trkpt>
      <trkpt lat="45.83342" lon="4.70803">
        <ele>359.89954</ele>
        <time>2023-07-04T13:25:44.000Z</time>
      </trkpt>
      <trkpt lat="45.83342" lon="4.70799">
        <ele>359.87323</ele>
        <time>2023-07-04T13:25:45.000Z</time>
      </trkpt>
      <trkpt lat="45.83343" lon="4.70795">
        <ele>359.853</ele>
        <time>2023-07-04T13:25:46.000Z</time>
      </trkpt>
      <trkpt lat="45.83343" lon="4.7079">
        <ele>359.82077</ele>
        <time>2023-07-04T13:25:47.000Z</time>
      </trkpt>
      <trkpt lat="45.83344" lon="4.70785">
        <ele>359.79623</ele>
        <time>2023-07-04T13:25:48.000Z</time>
      </trkpt>
      <trkpt lat="45.83344" lon="4.70781">
        <ele>359.79395</ele>
        <time>2023-07-04T13:25:49.000Z</time>
      </trkpt>
      <trkpt lat="45.83345" lon="4.70777">
        <ele>359.71561</ele>
        <time>2023-07-04T13:25:50.000Z</time>
      </trkpt>
      <trkpt lat="45.83345" lon="4.70772">
        <ele>359.65198</ele>
        <time>2023-07-04T13:25:51.000Z</time>
      </trkpt>
      <trkpt lat="45.83346" lon="4.70768">
        <ele>359.60138</ele>
        <time>2023-07-04T13:25:52.000Z</time>
      </trkpt>
      <trkpt lat="45.83346" lon="4.70763">
        <ele>359.55206</ele>
        <time>2023-07-04T13:25:53.000Z</time>
      </trkpt>
      <trkpt lat="45.83347" lon="4.70759">
        <ele>359.47681</ele>
        <time>2023-07-04T13:25:54.000Z</time>
      </trkpt>
      <trkpt lat="45.83347" lon="4.70756">
        <ele>359.42606</ele>
        <time>2023-07-04T13:25:55.000Z</time>
      </trkpt>
      <trkpt lat="45.83346" lon="4.70754">
        <ele>359.47437</ele>
        <time>2023-07-04T13:26:04.000Z</time>
      </trkpt>
      <trkpt lat="45.83346" lon="4.70751">
        <ele>359.53464</ele>
        <time>2023-07-04T13:26:05.000Z</time>
      </trkpt>
      <trkpt lat="45.83347" lon="4.70747">
        <ele>359.6011</ele>
        <time>2023-07-04T13:26:06.000Z</time>
      </trkpt>
      <trkpt lat="45.83346" lon="4.70743">
        <ele>359.6514</ele>
        <time>2023-07-04T13:26:07.000Z</time>
      </trkpt>
      <trkpt lat="45.83346" lon="4.7074">
        <ele>359.71542</ele>
        <time>2023-07-04T13:26:08.000Z</time>
      </trkpt>
      <trkpt lat="45.83346" lon="4.70735">
        <ele>359.77118</ele>
        <time>2023-07-04T13:26:09.000Z</time>
      </trkpt>
      <trkpt lat="45.83345" lon="4.7073">
        <ele>359.83679</ele>
        <time>2023-07-04T13:26:10.000Z</time>
      </trkpt>
      <trkpt lat="45.83346" lon="4.70725">
        <ele>359.87686</ele>
        <time>2023-07-04T13:26:11.000Z</time>
      </trkpt>
      <trkpt lat="45.83346" lon="4.7072">
        <ele>359.93005</ele>
        <time>2023-07-04T13:26:12.000Z</time>
      </trkpt>
      <trkpt lat="45.83346" lon="4.70715">
        <ele>360.02231</ele>
        <time>2023-07-04T13:26:13.000Z</time>
      </trkpt>
      <trkpt lat="45.83347" lon="4.70711">
        <ele>360.08749</ele>
        <time>2023-07-04T13:26:14.000Z</time>
      </trkpt>
      <trkpt lat="45.83348" lon="4.70706">
        <ele>360.15173</ele>
        <time>2023-07-04T13:26:15.000Z</time>
      </trkpt>
      <trkpt lat="45.83348" lon="4.70701">
        <ele>360.20367</ele>
        <time>2023-07-04T13:26:16.000Z</time>
      </trkpt>
      <trkpt lat="45.83349" lon="4.70696">
        <ele>360.24448</ele>
        <time>2023-07-04T13:26:17.000Z</time>
      </trkpt>
      <trkpt lat="45.83349" lon="4.70691">
        <ele>360.35742</ele>
        <time>2023-07-04T13:26:18.000Z</time>
      </trkpt>
      <trkpt lat="45.83349" lon="4.70685">
        <ele>360.4313</ele>
        <time>2023-07-04T13:26:19.000Z</time>
      </trkpt>
      <trkpt lat="45.8335" lon="4.70678">
        <ele>360.48273</ele>
        <time>2023-07-04T13:26:20.000Z</time>
      </trkpt>
      <trkpt lat="45.8335" lon="4.7067">
        <ele>360.52612</ele>
        <time>2023-07-04T13:26:21.000Z</time>
      </trkpt>
      <trkpt lat="45.8335" lon="4.70663">
        <ele>360.57587</ele>
        <time>2023-07-04T13:26:22.000Z</time>
      </trkpt>
      <trkpt lat="45.83351" lon="4.70655">
        <ele>360.58755</ele>
        <time>2023-07-04T13:26:23.000Z</time>
      </trkpt>
      <trkpt lat="45.83351" lon="4.70648">
        <ele>360.67096</ele>
        <time>2023-07-04T13:26:24.000Z</time>
      </trkpt>
      <trkpt lat="45.83352" lon="4.7064">
        <ele>360.91324</ele>
        <time>2023-07-04T13:26:25.000Z</time>
      </trkpt>
      <trkpt lat="45.83353" lon="4.70632">
        <ele>361.01724</ele>
        <time>2023-07-04T13:26:26.000Z</time>
      </trkpt>
      <trkpt lat="45.83353" lon="4.70624">
        <ele>361.11191</ele>
        <time>2023-07-04T13:26:27.000Z</time>
      </trkpt>
      <trkpt lat="45.83353" lon="4.70616">
        <ele>361.22437</ele>
        <time>2023-07-04T13:26:28.000Z</time>
      </trkpt>
      <trkpt lat="45.83353" lon="4.70608">
        <ele>361.3685</ele>
        <time>2023-07-04T13:26:29.000Z</time>
      </trkpt>
      <trkpt lat="45.83353" lon="4.706">
        <ele>361.51343</ele>
        <time>2023-07-04T13:26:30.000Z</time>
      </trkpt>
      <trkpt lat="45.83352" lon="4.70592">
        <ele>361.66071</ele>
        <time>2023-07-04T13:26:31.000Z</time>
      </trkpt>
      <trkpt lat="45.83352" lon="4.70584">
        <ele>361.78928</ele>
        <time>2023-07-04T13:26:32.000Z</time>
      </trkpt>
      <trkpt lat="45.83351" lon="4.70576">
        <ele>361.91034</ele>
        <time>2023-07-04T13:26:33.000Z</time>
      </trkpt>
      <trkpt lat="45.83351" lon="4.70568">
        <ele>362.05502</ele>
        <time>2023-07-04T13:26:34.000Z</time>
      </trkpt>
      <trkpt lat="45.83349" lon="4.70561">
        <ele>362.19342</ele>
        <time>2023-07-04T13:26:35.000Z</time>
      </trkpt>
      <trkpt lat="45.83348" lon="4.70553">
        <ele>362.31219</ele>
        <time>2023-07-04T13:26:36.000Z</time>
      </trkpt>
      <trkpt lat="45.83346" lon="4.70544">
        <ele>362.52728</ele>
        <time>2023-07-04T13:26:37.000Z</time>
      </trkpt>
      <trkpt lat="45.83346" lon="4.70536">
        <ele>362.77811</ele>
        <time>2023-07-04T13:26:38.000Z</time>
      </trkpt>
      <trkpt lat="45.83344" lon="4.70528">
        <ele>362.89282</ele>
        <time>2023-07-04T13:26:39.000Z</time>
      </trkpt>
      <trkpt lat="45.83343" lon="4.70521">
        <ele>363.02679</ele>
        <time>2023-07-04T13:26:40.000Z</time>
      </trkpt>
      <trkpt lat="45.83342" lon="4.70512">
        <ele>363.15234</ele>
        <time>2023-07-04T13:26:41.000Z</time>
      </trkpt>
      <trkpt lat="45.83342" lon="4.70504">
        <ele>363.30704</ele>
        <time>2023-07-04T13:26:42.000Z</time>
      </trkpt>
      <trkpt lat="45.83342" lon="4.70496">
        <ele>363.44043</ele>
        <time>2023-07-04T13:26:43.000Z</time>
      </trkpt>
      <trkpt lat="45.83342" lon="4.70487">
        <ele>363.40289</ele>
        <time>2023-07-04T13:26:44.000Z</time>
      </trkpt>
      <trkpt lat="45.83342" lon="4.70478">
        <ele>363.17383</ele>
        <time>2023-07-04T13:26:45.000Z</time>
      </trkpt>
      <trkpt lat="45.83341" lon="4.7047">
        <ele>363.11011</ele>
        <time>2023-07-04T13:26:46.000Z</time>
      </trkpt>
      <trkpt lat="45.8334" lon="4.70461">
        <ele>363.06088</ele>
        <time>2023-07-04T13:26:47.000Z</time>
      </trkpt>
      <trkpt lat="45.83338" lon="4.70453">
        <ele>362.98163</ele>
        <time>2023-07-04T13:26:48.000Z</time>
      </trkpt>
      <trkpt lat="45.83337" lon="4.70445">
        <ele>362.91254</ele>
        <time>2023-07-04T13:26:49.000Z</time>
      </trkpt>
      <trkpt lat="45.83336" lon="4.70437">
        <ele>362.81931</ele>
        <time>2023-07-04T13:26:50.000Z</time>
      </trkpt>
      <trkpt lat="45.83335" lon="4.70428">
        <ele>362.76349</ele>
        <time>2023-07-04T13:26:51.000Z</time>
      </trkpt>
      <trkpt lat="45.83335" lon="4.7042">
        <ele>362.67902</ele>
        <time>2023-07-04T13:26:52.000Z</time>
      </trkpt>
      <trkpt lat="45.83333" lon="4.70411">
        <ele>362.61771</ele>
        <time>2023-07-04T13:26:53.000Z</time>
      </trkpt>
      <trkpt lat="45.83332" lon="4.70403">
        <ele>362.54279</ele>
        <time>2023-07-04T13:26:54.000Z</time>
      </trkpt>
      <trkpt lat="45.83331" lon="4.70394">
        <ele>362.4538</ele>
        <time>2023-07-04T13:26:55.000Z</time>
      </trkpt>
      <trkpt lat="45.8333" lon="4.70385">
        <ele>362.39252</ele>
        <time>2023-07-04T13:26:56.000Z</time>
      </trkpt>
      <trkpt lat="45.83329" lon="4.70378">
        <ele>362.22385</ele>
        <time>2023-07-04T13:26:57.000Z</time>
      </trkpt>
      <trkpt lat="45.83327" lon="4.7037">
        <ele>361.97784</ele>
        <time>2023-07-04T13:26:58.000Z</time>
      </trkpt>
      <trkpt lat="45.83327" lon="4.70362">
        <ele>361.91473</ele>
        <time>2023-07-04T13:26:59.000Z</time>
      </trkpt>
      <trkpt lat="45.83326" lon="4.70354">
        <ele>361.85428</ele>
        <time>2023-07-04T13:27:00.000Z</time>
      </trkpt>
      <trkpt lat="45.83324" lon="4.70347">
        <ele>361.79736</ele>
        <time>2023-07-04T13:27:01.000Z</time>
      </trkpt>
      <trkpt lat="45.83322" lon="4.7034">
        <ele>361.74103</ele>
        <time>2023-07-04T13:27:02.000Z</time>
      </trkpt>
      <trkpt lat="45.83321" lon="4.70334">
        <ele>361.72354</ele>
        <time>2023-07-04T13:27:03.000Z</time>
      </trkpt>
      <trkpt lat="45.83321" lon="4.70327">
        <ele>361.68692</ele>
        <time>2023-07-04T13:27:04.000Z</time>
      </trkpt>
      <trkpt lat="45.83322" lon="4.70319">
        <ele>361.67426</ele>
        <time>2023-07-04T13:27:05.000Z</time>
      </trkpt>
      <trkpt lat="45.83324" lon="4.70313">
        <ele>361.63452</ele>
        <time>2023-07-04T13:27:06.000Z</time>
      </trkpt>
      <trkpt lat="45.83326" lon="4.70306">
        <ele>361.59033</ele>
        <time>2023-07-04T13:27:07.000Z</time>
      </trkpt>
      <trkpt lat="45.83328" lon="4.70299">
        <ele>361.56851</ele>
        <time>2023-07-04T13:27:08.000Z</time>
      </trkpt>
      <trkpt lat="45.83331" lon="4.70292">
        <ele>361.50964</ele>
        <time>2023-07-04T13:27:09.000Z</time>
      </trkpt>
      <trkpt lat="45.83334" lon="4.70285">
        <ele>361.47308</ele>
        <time>2023-07-04T13:27:10.000Z</time>
      </trkpt>
      <trkpt lat="45.83336" lon="4.70278">
        <ele>361.3974</ele>
        <time>2023-07-04T13:27:11.000Z</time>
      </trkpt>
      <trkpt lat="45.83339" lon="4.70271">
        <ele>361.35025</ele>
        <time>2023-07-04T13:27:12.000Z</time>
      </trkpt>
      <trkpt lat="45.83341" lon="4.70264">
        <ele>361.28741</ele>
        <time>2023-07-04T13:27:13.000Z</time>
      </trkpt>
      <trkpt lat="45.83344" lon="4.70256">
        <ele>361.21365</ele>
        <time>2023-07-04T13:27:14.000Z</time>
      </trkpt>
      <trkpt lat="45.83347" lon="4.70249">
        <ele>361.15247</ele>
        <time>2023-07-04T13:27:15.000Z</time>
      </trkpt>
      <trkpt lat="45.8335" lon="4.70242">
        <ele>361.07147</ele>
        <time>2023-07-04T13:27:16.000Z</time>
      </trkpt>
      <trkpt lat="45.83353" lon="4.70235">
        <ele>361.01367</ele>
        <time>2023-07-04T13:27:17.000Z</time>
      </trkpt>
      <trkpt lat="45.83355" lon="4.70228">
        <ele>360.96442</ele>
        <time>2023-07-04T13:27:18.000Z</time>
      </trkpt>
      <trkpt lat="45.83358" lon="4.70221">
        <ele>360.8775</ele>
        <time>2023-07-04T13:27:19.000Z</time>
      </trkpt>
      <trkpt lat="45.8336" lon="4.70213">
        <ele>360.79041</ele>
        <time>2023-07-04T13:27:20.000Z</time>
      </trkpt>
      <trkpt lat="45.83362" lon="4.70205">
        <ele>360.71359</ele>
        <time>2023-07-04T13:27:21.000Z</time>
      </trkpt>
      <trkpt lat="45.83365" lon="4.70198">
        <ele>360.62851</ele>
        <time>2023-07-04T13:27:22.000Z</time>
      </trkpt>
      <trkpt lat="45.83367" lon="4.7019">
        <ele>360.5499</ele>
        <time>2023-07-04T13:27:23.000Z</time>
      </trkpt>
      <trkpt lat="45.8337" lon="4.70182">
        <ele>360.47784</ele>
        <time>2023-07-04T13:27:24.000Z</time>
      </trkpt>
      <trkpt lat="45.83372" lon="4.70174">
        <ele>360.3891</ele>
        <time>2023-07-04T13:27:25.000Z</time>
      </trkpt>
      <trkpt lat="45.83374" lon="4.70166">
        <ele>360.30933</ele>
        <time>2023-07-04T13:27:26.000Z</time>
      </trkpt>
      <trkpt lat="45.83376" lon="4.70159">
        <ele>360.21661</ele>
        <time>2023-07-04T13:27:27.000Z</time>
      </trkpt>
      <trkpt lat="45.83379" lon="4.70151">
        <ele>360.13104</ele>
        <time>2023-07-04T13:27:28.000Z</time>
      </trkpt>
      <trkpt lat="45.83382" lon="4.70144">
        <ele>360.08041</ele>
        <time>2023-07-04T13:27:29.000Z</time>
      </trkpt>
      <trkpt lat="45.83384" lon="4.70135">
        <ele>360.06891</ele>
        <time>2023-07-04T13:27:30.000Z</time>
      </trkpt>
      <trkpt lat="45.83386" lon="4.70127">
        <ele>360.05734</ele>
        <time>2023-07-04T13:27:31.000Z</time>
      </trkpt>
      <trkpt lat="45.83387" lon="4.70118">
        <ele>360.04547</ele>
        <time>2023-07-04T13:27:32.000Z</time>
      </trkpt>
      <trkpt lat="45.83388" lon="4.70109">
        <ele>360.03497</ele>
        <time>2023-07-04T13:27:33.000Z</time>
      </trkpt>
      <trkpt lat="45.83389" lon="4.701">
        <ele>360.01089</ele>
        <time>2023-07-04T13:27:34.000Z</time>
      </trkpt>
      <trkpt lat="45.8339" lon="4.70091">
        <ele>359.97858</ele>
        <time>2023-07-04T13:27:35.000Z</time>
      </trkpt>
      <trkpt lat="45.83392" lon="4.7008">
        <ele>359.94049</ele>
        <time>2023-07-04T13:27:36.000Z</time>
      </trkpt>
      <trkpt lat="45.83392" lon="4.70071">
        <ele>359.88788</ele>
        <time>2023-07-04T13:27:37.000Z</time>
      </trkpt>
      <trkpt lat="45.83393" lon="4.70061">
        <ele>359.85803</ele>
        <time>2023-07-04T13:27:38.000Z</time>
      </trkpt>
      <trkpt lat="45.83394" lon="4.70051">
        <ele>359.8028</ele>
        <time>2023-07-04T13:27:39.000Z</time>
      </trkpt>
      <trkpt lat="45.83395" lon="4.70041">
        <ele>359.73599</ele>
        <time>2023-07-04T13:27:40.000Z</time>
      </trkpt>
      <trkpt lat="45.83395" lon="4.70031">
        <ele>359.68161</ele>
        <time>2023-07-04T13:27:41.000Z</time>
      </trkpt>
      <trkpt lat="45.83396" lon="4.70021">
        <ele>359.6138</ele>
        <time>2023-07-04T13:27:42.000Z</time>
      </trkpt>
      <trkpt lat="45.83397" lon="4.70011">
        <ele>359.55035</ele>
        <time>2023-07-04T13:27:43.000Z</time>
      </trkpt>
      <trkpt lat="45.83398" lon="4.7">
        <ele>359.49298</ele>
        <time>2023-07-04T13:27:44.000Z</time>
      </trkpt>
      <trkpt lat="45.83399" lon="4.69989">
        <ele>359.4104</ele>
        <time>2023-07-04T13:27:45.000Z</time>
      </trkpt>
      <trkpt lat="45.834" lon="4.69977">
        <ele>359.32343</ele>
        <time>2023-07-04T13:27:46.000Z</time>
      </trkpt>
      <trkpt lat="45.83402" lon="4.69966">
        <ele>359.23895</ele>
        <time>2023-07-04T13:27:47.000Z</time>
      </trkpt>
      <trkpt lat="45.83404" lon="4.69954">
        <ele>359.14554</ele>
        <time>2023-07-04T13:27:48.000Z</time>
      </trkpt>
      <trkpt lat="45.83405" lon="4.69942">
        <ele>359.02173</ele>
        <time>2023-07-04T13:27:49.000Z</time>
      </trkpt>
      <trkpt lat="45.83404" lon="4.6993">
        <ele>358.84128</ele>
        <time>2023-07-04T13:27:50.000Z</time>
      </trkpt>
      <trkpt lat="45.83401" lon="4.6992">
        <ele>358.63736</ele>
        <time>2023-07-04T13:27:51.000Z</time>
      </trkpt>
      <trkpt lat="45.83398" lon="4.69911">
        <ele>358.46042</ele>
        <time>2023-07-04T13:27:52.000Z</time>
      </trkpt>
      <trkpt lat="45.83394" lon="4.69903">
        <ele>358.29974</ele>
        <time>2023-07-04T13:27:53.000Z</time>
      </trkpt>
      <trkpt lat="45.83391" lon="4.69895">
        <ele>358.26215</ele>
        <time>2023-07-04T13:27:54.000Z</time>
      </trkpt>
      <trkpt lat="45.8339" lon="4.69887">
        <ele>358.27512</ele>
        <time>2023-07-04T13:27:55.000Z</time>
      </trkpt>
      <trkpt lat="45.8339" lon="4.6988">
        <ele>358.09766</ele>
        <time>2023-07-04T13:27:56.000Z</time>
      </trkpt>
      <trkpt lat="45.83392" lon="4.69874">
        <ele>357.96616</ele>
        <time>2023-07-04T13:27:57.000Z</time>
      </trkpt>
      <trkpt lat="45.83392" lon="4.6987">
        <ele>357.8222</ele>
        <time>2023-07-04T13:27:58.000Z</time>
      </trkpt>
      <trkpt lat="45.83393" lon="4.69866">
        <ele>357.69189</ele>
        <time>2023-07-04T13:27:59.000Z</time>
      </trkpt>
      <trkpt lat="45.83394" lon="4.69864">
        <ele>357.6796</ele>
        <time>2023-07-04T13:28:12.000Z</time>
      </trkpt>
      <trkpt lat="45.83395" lon="4.6986">
        <ele>357.70496</ele>
        <time>2023-07-04T13:28:13.000Z</time>
      </trkpt>
      <trkpt lat="45.83395" lon="4.69856">
        <ele>357.74649</ele>
        <time>2023-07-04T13:28:14.000Z</time>
      </trkpt>
      <trkpt lat="45.83395" lon="4.69852">
        <ele>357.8111</ele>
        <time>2023-07-04T13:28:15.000Z</time>
      </trkpt>
      <trkpt lat="45.83395" lon="4.69847">
        <ele>357.66202</ele>
        <time>2023-07-04T13:28:16.000Z</time>
      </trkpt>
      <trkpt lat="45.83393" lon="4.69842">
        <ele>357.55466</ele>
        <time>2023-07-04T13:28:17.000Z</time>
      </trkpt>
      <trkpt lat="45.83392" lon="4.69837">
        <ele>357.44489</ele>
        <time>2023-07-04T13:28:18.000Z</time>
      </trkpt>
      <trkpt lat="45.8339" lon="4.69832">
        <ele>357.34915</ele>
        <time>2023-07-04T13:28:19.000Z</time>
      </trkpt>
      <trkpt lat="45.83389" lon="4.69827">
        <ele>357.28943</ele>
        <time>2023-07-04T13:28:20.000Z</time>
      </trkpt>
      <trkpt lat="45.83387" lon="4.69821">
        <ele>357.24344</ele>
        <time>2023-07-04T13:28:21.000Z</time>
      </trkpt>
      <trkpt lat="45.83386" lon="4.69815">
        <ele>357.23514</ele>
        <time>2023-07-04T13:28:22.000Z</time>
      </trkpt>
      <trkpt lat="45.83386" lon="4.69809">
        <ele>357.24777</ele>
        <time>2023-07-04T13:28:23.000Z</time>
      </trkpt>
      <trkpt lat="45.83385" lon="4.69802">
        <ele>357.23438</ele>
        <time>2023-07-04T13:28:24.000Z</time>
      </trkpt>
      <trkpt lat="45.83383" lon="4.69795">
        <ele>357.21051</ele>
        <time>2023-07-04T13:28:25.000Z</time>
      </trkpt>
      <trkpt lat="45.83382" lon="4.69788">
        <ele>357.20078</ele>
        <time>2023-07-04T13:28:26.000Z</time>
      </trkpt>
      <trkpt lat="45.83381" lon="4.69782">
        <ele>357.19702</ele>
        <time>2023-07-04T13:28:27.000Z</time>
      </trkpt>
      <trkpt lat="45.83379" lon="4.69776">
        <ele>357.38147</ele>
        <time>2023-07-04T13:28:28.000Z</time>
      </trkpt>
      <trkpt lat="45.83379" lon="4.69769">
        <ele>357.3064</ele>
        <time>2023-07-04T13:28:29.000Z</time>
      </trkpt>
      <trkpt lat="45.83378" lon="4.69763">
        <ele>357.26694</ele>
        <time>2023-07-04T13:28:30.000Z</time>
      </trkpt>
      <trkpt lat="45.83376" lon="4.69757">
        <ele>357.242</ele>
        <time>2023-07-04T13:28:31.000Z</time>
      </trkpt>
      <trkpt lat="45.83375" lon="4.6975">
        <ele>357.0975</ele>
        <time>2023-07-04T13:28:32.000Z</time>
      </trkpt>
      <trkpt lat="45.83374" lon="4.69743">
        <ele>356.89655</ele>
        <time>2023-07-04T13:28:33.000Z</time>
      </trkpt>
      <trkpt lat="45.83372" lon="4.69735">
        <ele>356.67303</ele>
        <time>2023-07-04T13:28:34.000Z</time>
      </trkpt>
      <trkpt lat="45.83371" lon="4.69728">
        <ele>356.43695</ele>
        <time>2023-07-04T13:28:35.000Z</time>
      </trkpt>
      <trkpt lat="45.83369" lon="4.6972">
        <ele>356.40469</ele>
        <time>2023-07-04T13:28:36.000Z</time>
      </trkpt>
      <trkpt lat="45.83367" lon="4.69713">
        <ele>356.36053</ele>
        <time>2023-07-04T13:28:37.000Z</time>
      </trkpt>
      <trkpt lat="45.83365" lon="4.69706">
        <ele>356.31772</ele>
        <time>2023-07-04T13:28:38.000Z</time>
      </trkpt>
      <trkpt lat="45.83364" lon="4.69698">
        <ele>356.26654</ele>
        <time>2023-07-04T13:28:39.000Z</time>
      </trkpt>
      <trkpt lat="45.83362" lon="4.6969">
        <ele>356.19751</ele>
        <time>2023-07-04T13:28:40.000Z</time>
      </trkpt>
      <trkpt lat="45.83362" lon="4.6968">
        <ele>356.11887</ele>
        <time>2023-07-04T13:28:41.000Z</time>
      </trkpt>
      <trkpt lat="45.8336" lon="4.69672">
        <ele>356.01636</ele>
        <time>2023-07-04T13:28:42.000Z</time>
      </trkpt>
      <trkpt lat="45.83359" lon="4.69664">
        <ele>355.9556</ele>
        <time>2023-07-04T13:28:43.000Z</time>
      </trkpt>
      <trkpt lat="45.83358" lon="4.69656">
        <ele>355.90228</ele>
        <time>2023-07-04T13:28:44.000Z</time>
      </trkpt>
      <trkpt lat="45.83356" lon="4.69648">
        <ele>355.95303</ele>
        <time>2023-07-04T13:28:45.000Z</time>
      </trkpt>
      <trkpt lat="45.83355" lon="4.69641">
        <ele>355.91269</ele>
        <time>2023-07-04T13:28:46.000Z</time>
      </trkpt>
      <trkpt lat="45.83354" lon="4.69632">
        <ele>355.80951</ele>
        <time>2023-07-04T13:28:47.000Z</time>
      </trkpt>
      <trkpt lat="45.83352" lon="4.69624">
        <ele>355.51318</ele>
        <time>2023-07-04T13:28:48.000Z</time>
      </trkpt>
      <trkpt lat="45.83351" lon="4.69616">
        <ele>355.49438</ele>
        <time>2023-07-04T13:28:49.000Z</time>
      </trkpt>
      <trkpt lat="45.8335" lon="4.69608">
        <ele>355.44415</ele>
        <time>2023-07-04T13:28:50.000Z</time>
      </trkpt>
      <trkpt lat="45.83349" lon="4.69601">
        <ele>355.40009</ele>
        <time>2023-07-04T13:28:51.000Z</time>
      </trkpt>
      <trkpt lat="45.83348" lon="4.69594">
        <ele>355.3414</ele>
        <time>2023-07-04T13:28:52.000Z</time>
      </trkpt>
      <trkpt lat="45.83346" lon="4.69587">
        <ele>355.31244</ele>
        <time>2023-07-04T13:28:53.000Z</time>
      </trkpt>
      <trkpt lat="45.83345" lon="4.6958">
        <ele>355.28516</ele>
        <time>2023-07-04T13:28:54.000Z</time>
      </trkpt>
      <trkpt lat="45.83344" lon="4.69572">
        <ele>355.26321</ele>
        <time>2023-07-04T13:28:55.000Z</time>
      </trkpt>
      <trkpt lat="45.83343" lon="4.69565">
        <ele>355.25073</ele>
        <time>2023-07-04T13:28:56.000Z</time>
      </trkpt>
      <trkpt lat="45.83341" lon="4.69557">
        <ele>355.21851</ele>
        <time>2023-07-04T13:28:57.000Z</time>
      </trkpt>
      <trkpt lat="45.83341" lon="4.69549">
        <ele>355.20087</ele>
        <time>2023-07-04T13:28:58.000Z</time>
      </trkpt>
      <trkpt lat="45.8334" lon="4.69541">
        <ele>355.18719</ele>
        <time>2023-07-04T13:28:59.000Z</time>
      </trkpt>
      <trkpt lat="45.83339" lon="4.69534">
        <ele>355.1488</ele>
        <time>2023-07-04T13:29:00.000Z</time>
      </trkpt>
      <trkpt lat="45.83339" lon="4.69526">
        <ele>355.11493</ele>
        <time>2023-07-04T13:29:01.000Z</time>
      </trkpt>
      <trkpt lat="45.83338" lon="4.69519">
        <ele>355.08322</ele>
        <time>2023-07-04T13:29:02.000Z</time>
      </trkpt>
      <trkpt lat="45.83338" lon="4.69512">
        <ele>355.02277</ele>
        <time>2023-07-04T13:29:03.000Z</time>
      </trkpt>
      <trkpt lat="45.83337" lon="4.69504">
        <ele>354.96552</ele>
        <time>2023-07-04T13:29:04.000Z</time>
      </trkpt>
      <trkpt lat="45.83337" lon="4.69497">
        <ele>354.8136</ele>
        <time>2023-07-04T13:29:05.000Z</time>
      </trkpt>
      <trkpt lat="45.83336" lon="4.6949">
        <ele>354.68881</ele>
        <time>2023-07-04T13:29:06.000Z</time>
      </trkpt>
      <trkpt lat="45.83336" lon="4.69482">
        <ele>354.599</ele>
        <time>2023-07-04T13:29:07.000Z</time>
      </trkpt>
      <trkpt lat="45.83335" lon="4.69475">
        <ele>354.7009</ele>
        <time>2023-07-04T13:29:08.000Z</time>
      </trkpt>
      <trkpt lat="45.83336" lon="4.69467">
        <ele>354.76563</ele>
        <time>2023-07-04T13:29:09.000Z</time>
      </trkpt>
      <trkpt lat="45.83336" lon="4.6946">
        <ele>354.83807</ele>
        <time>2023-07-04T13:29:10.000Z</time>
      </trkpt>
      <trkpt lat="45.83336" lon="4.69453">
        <ele>354.9277</ele>
        <time>2023-07-04T13:29:11.000Z</time>
      </trkpt>
      <trkpt lat="45.83337" lon="4.69446">
        <ele>355.05209</ele>
        <time>2023-07-04T13:29:12.000Z</time>
      </trkpt>
      <trkpt lat="45.83338" lon="4.69439">
        <ele>355.19681</ele>
        <time>2023-07-04T13:29:13.000Z</time>
      </trkpt>
      <trkpt lat="45.83339" lon="4.69431">
        <ele>355.34186</ele>
        <time>2023-07-04T13:29:14.000Z</time>
      </trkpt>
      <trkpt lat="45.8334" lon="4.69424">
        <ele>355.46518</ele>
        <time>2023-07-04T13:29:15.000Z</time>
      </trkpt>
      <trkpt lat="45.83341" lon="4.69417">
        <ele>355.58926</ele>
        <time>2023-07-04T13:29:16.000Z</time>
      </trkpt>
      <trkpt lat="45.83343" lon="4.6941">
        <ele>355.69977</ele>
        <time>2023-07-04T13:29:17.000Z</time>
      </trkpt>
      <trkpt lat="45.83344" lon="4.69404">
        <ele>355.80551</ele>
        <time>2023-07-04T13:29:18.000Z</time>
      </trkpt>
      <trkpt lat="45.83345" lon="4.69396">
        <ele>355.9093</ele>
        <time>2023-07-04T13:29:19.000Z</time>
      </trkpt>
      <trkpt lat="45.83345" lon="4.69389">
        <ele>356.03693</ele>
        <time>2023-07-04T13:29:20.000Z</time>
      </trkpt>
      <trkpt lat="45.83346" lon="4.69382">
        <ele>356.16522</ele>
        <time>2023-07-04T13:29:21.000Z</time>
      </trkpt>
      <trkpt lat="45.83347" lon="4.69375">
        <ele>356.31134</ele>
        <time>2023-07-04T13:29:22.000Z</time>
      </trkpt>
      <trkpt lat="45.83348" lon="4.69367">
        <ele>356.45004</ele>
        <time>2023-07-04T13:29:23.000Z</time>
      </trkpt>
      <trkpt lat="45.83349" lon="4.6936">
        <ele>356.57736</ele>
        <time>2023-07-04T13:29:24.000Z</time>
      </trkpt>
      <trkpt lat="45.83349" lon="4.69353">
        <ele>356.69238</ele>
        <time>2023-07-04T13:29:25.000Z</time>
      </trkpt>
      <trkpt lat="45.8335" lon="4.69346">
        <ele>356.7562</ele>
        <time>2023-07-04T13:29:26.000Z</time>
      </trkpt>
      <trkpt lat="45.83351" lon="4.69338">
        <ele>356.81534</ele>
        <time>2023-07-04T13:29:27.000Z</time>
      </trkpt>
      <trkpt lat="45.83352" lon="4.69331">
        <ele>356.88235</ele>
        <time>2023-07-04T13:29:28.000Z</time>
      </trkpt>
      <trkpt lat="45.83352" lon="4.69325">
        <ele>356.95288</ele>
        <time>2023-07-04T13:29:29.000Z</time>
      </trkpt>
      <trkpt lat="45.83352" lon="4.69318">
        <ele>357.02927</ele>
        <time>2023-07-04T13:29:30.000Z</time>
      </trkpt>
      <trkpt lat="45.83352" lon="4.69311">
        <ele>357.09933</ele>
        <time>2023-07-04T13:29:31.000Z</time>
      </trkpt>
      <trkpt lat="45.83352" lon="4.69305">
        <ele>357.18439</ele>
        <time>2023-07-04T13:29:32.000Z</time>
      </trkpt>
      <trkpt lat="45.83352" lon="4.69299">
        <ele>357.46829</ele>
        <time>2023-07-04T13:29:33.000Z</time>
      </trkpt>
      <trkpt lat="45.83353" lon="4.69294">
        <ele>357.54791</ele>
        <time>2023-07-04T13:29:34.000Z</time>
      </trkpt>
      <trkpt lat="45.83354" lon="4.69288">
        <ele>357.59146</ele>
        <time>2023-07-04T13:29:35.000Z</time>
      </trkpt>
      <trkpt lat="45.83355" lon="4.69281">
        <ele>357.62476</ele>
        <time>2023-07-04T13:29:36.000Z</time>
      </trkpt>
      <trkpt lat="45.83356" lon="4.69275">
        <ele>357.72772</ele>
        <time>2023-07-04T13:29:37.000Z</time>
      </trkpt>
      <trkpt lat="45.83357" lon="4.6927">
        <ele>357.81464</ele>
        <time>2023-07-04T13:29:38.000Z</time>
      </trkpt>
      <trkpt lat="45.83357" lon="4.69264">
        <ele>357.92822</ele>
        <time>2023-07-04T13:29:39.000Z</time>
      </trkpt>
      <trkpt lat="45.83358" lon="4.69258">
        <ele>358.03729</ele>
        <time>2023-07-04T13:29:40.000Z</time>
      </trkpt>
      <trkpt lat="45.83357" lon="4.69251">
        <ele>358.1394</ele>
        <time>2023-07-04T13:29:41.000Z</time>
      </trkpt>
      <trkpt lat="45.83359" lon="4.69245">
        <ele>358.1377</ele>
        <time>2023-07-04T13:29:42.000Z</time>
      </trkpt>
      <trkpt lat="45.83359" lon="4.69238">
        <ele>358.23431</ele>
        <time>2023-07-04T13:29:43.000Z</time>
      </trkpt>
      <trkpt lat="45.83359" lon="4.69231">
        <ele>358.33417</ele>
        <time>2023-07-04T13:29:44.000Z</time>
      </trkpt>
      <trkpt lat="45.8336" lon="4.69223">
        <ele>358.44952</ele>
        <time>2023-07-04T13:29:45.000Z</time>
      </trkpt>
      <trkpt lat="45.83361" lon="4.69216">
        <ele>358.55991</ele>
        <time>2023-07-04T13:29:46.000Z</time>
      </trkpt>
      <trkpt lat="45.83362" lon="4.69208">
        <ele>358.67737</ele>
        <time>2023-07-04T13:29:47.000Z</time>
      </trkpt>
      <trkpt lat="45.83362" lon="4.692">
        <ele>358.80655</ele>
        <time>2023-07-04T13:29:48.000Z</time>
      </trkpt>
      <trkpt lat="45.83363" lon="4.69194">
        <ele>358.91818</ele>
        <time>2023-07-04T13:29:49.000Z</time>
      </trkpt>
      <trkpt lat="45.83364" lon="4.69186">
        <ele>359.02435</ele>
        <time>2023-07-04T13:29:50.000Z</time>
      </trkpt>
      <trkpt lat="45.83365" lon="4.6918">
        <ele>359.0979</ele>
        <time>2023-07-04T13:29:51.000Z</time>
      </trkpt>
      <trkpt lat="45.83365" lon="4.69172">
        <ele>359.14542</ele>
        <time>2023-07-04T13:29:52.000Z</time>
      </trkpt>
      <trkpt lat="45.83365" lon="4.69164">
        <ele>358.96127</ele>
        <time>2023-07-04T13:29:53.000Z</time>
      </trkpt>
      <trkpt lat="45.83365" lon="4.69155">
        <ele>359.08282</ele>
        <time>2023-07-04T13:29:54.000Z</time>
      </trkpt>
      <trkpt lat="45.83366" lon="4.69147">
        <ele>359.26166</ele>
        <time>2023-07-04T13:29:55.000Z</time>
      </trkpt>
      <trkpt lat="45.83366" lon="4.69138">
        <ele>359.20224</ele>
        <time>2023-07-04T13:29:56.000Z</time>
      </trkpt>
      <trkpt lat="45.83367" lon="4.69129">
        <ele>359.09943</ele>
        <time>2023-07-04T13:29:57.000Z</time>
      </trkpt>
      <trkpt lat="45.83368" lon="4.6912">
        <ele>358.9791</ele>
        <time>2023-07-04T13:29:58.000Z</time>
      </trkpt>
      <trkpt lat="45.8337" lon="4.69112">
        <ele>358.76505</ele>
        <time>2023-07-04T13:29:59.000Z</time>
      </trkpt>
      <trkpt lat="45.83371" lon="4.69102">
        <ele>358.52203</ele>
        <time>2023-07-04T13:30:00.000Z</time>
      </trkpt>
      <trkpt lat="45.83372" lon="4.69093">
        <ele>358.26593</ele>
        <time>2023-07-04T13:30:01.000Z</time>
      </trkpt>
      <trkpt lat="45.83373" lon="4.69083">
        <ele>358.08286</ele>
        <time>2023-07-04T13:30:02.000Z</time>
      </trkpt>
      <trkpt lat="45.83374" lon="4.69073">
        <ele>357.90631</ele>
        <time>2023-07-04T13:30:03.000Z</time>
      </trkpt>
      <trkpt lat="45.83377" lon="4.69064">
        <ele>357.69946</ele>
        <time>2023-07-04T13:30:04.000Z</time>
      </trkpt>
      <trkpt lat="45.83382" lon="4.69054">
        <ele>357.50824</ele>
        <time>2023-07-04T13:30:05.000Z</time>
      </trkpt>
      <trkpt lat="45.83387" lon="4.69045">
        <ele>357.37875</ele>
        <time>2023-07-04T13:30:06.000Z</time>
      </trkpt>
      <trkpt lat="45.83392" lon="4.69036">
        <ele>357.18076</ele>
        <time>2023-07-04T13:30:07.000Z</time>
      </trkpt>
      <trkpt lat="45.83397" lon="4.69026">
        <ele>356.85883</ele>
        <time>2023-07-04T13:30:08.000Z</time>
      </trkpt>
      <trkpt lat="45.83401" lon="4.69014">
        <ele>356.47644</ele>
        <time>2023-07-04T13:30:09.000Z</time>
      </trkpt>
      <trkpt lat="45.83404" lon="4.69001">
        <ele>356.19321</ele>
        <time>2023-07-04T13:30:10.000Z</time>
      </trkpt>
      <trkpt lat="45.83407" lon="4.68988">
        <ele>355.56232</ele>
        <time>2023-07-04T13:30:11.000Z</time>
      </trkpt>
      <trkpt lat="45.83411" lon="4.68975">
        <ele>354.93393</ele>
        <time>2023-07-04T13:30:12.000Z</time>
      </trkpt>
      <trkpt lat="45.83415" lon="4.68961">
        <ele>354.20941</ele>
        <time>2023-07-04T13:30:13.000Z</time>
      </trkpt>
      <trkpt lat="45.83418" lon="4.68948">
        <ele>353.44888</ele>
        <time>2023-07-04T13:30:14.000Z</time>
      </trkpt>
      <trkpt lat="45.83422" lon="4.68937">
        <ele>352.58322</ele>
        <time>2023-07-04T13:30:15.000Z</time>
      </trkpt>
      <trkpt lat="45.83425" lon="4.68929">
        <ele>351.94617</ele>
        <time>2023-07-04T13:30:16.000Z</time>
      </trkpt>
      <trkpt lat="45.83425" lon="4.68919">
        <ele>351.26871</ele>
        <time>2023-07-04T13:30:17.000Z</time>
      </trkpt>
      <trkpt lat="45.83423" lon="4.68909">
        <ele>350.75433</ele>
        <time>2023-07-04T13:30:18.000Z</time>
      </trkpt>
      <trkpt lat="45.8342" lon="4.68899">
        <ele>350.28943</ele>
        <time>2023-07-04T13:30:19.000Z</time>
      </trkpt>
      <trkpt lat="45.83418" lon="4.68888">
        <ele>349.83243</ele>
        <time>2023-07-04T13:30:20.000Z</time>
      </trkpt>
      <trkpt lat="45.83416" lon="4.68876">
        <ele>349.4129</ele>
        <time>2023-07-04T13:30:21.000Z</time>
      </trkpt>
      <trkpt lat="45.83413" lon="4.68865">
        <ele>349.13181</ele>
        <time>2023-07-04T13:30:22.000Z</time>
      </trkpt>
      <trkpt lat="45.83411" lon="4.68853">
        <ele>348.31412</ele>
        <time>2023-07-04T13:30:23.000Z</time>
      </trkpt>
      <trkpt lat="45.83407" lon="4.68843">
        <ele>347.58539</ele>
        <time>2023-07-04T13:30:24.000Z</time>
      </trkpt>
      <trkpt lat="45.83404" lon="4.68833">
        <ele>346.82538</ele>
        <time>2023-07-04T13:30:25.000Z</time>
      </trkpt>
      <trkpt lat="45.83403" lon="4.68825">
        <ele>345.98618</ele>
        <time>2023-07-04T13:30:26.000Z</time>
      </trkpt>
      <trkpt lat="45.83402" lon="4.68818">
        <ele>345.16959</ele>
        <time>2023-07-04T13:30:27.000Z</time>
      </trkpt>
      <trkpt lat="45.834" lon="4.6881">
        <ele>344.46585</ele>
        <time>2023-07-04T13:30:28.000Z</time>
      </trkpt>
      <trkpt lat="45.83398" lon="4.68803">
        <ele>343.83124</ele>
        <time>2023-07-04T13:30:29.000Z</time>
      </trkpt>
      <trkpt lat="45.83396" lon="4.68795">
        <ele>343.46237</ele>
        <time>2023-07-04T13:30:30.000Z</time>
      </trkpt>
      <trkpt lat="45.83395" lon="4.68788">
        <ele>343.08682</ele>
        <time>2023-07-04T13:30:31.000Z</time>
      </trkpt>
      <trkpt lat="45.83392" lon="4.68781">
        <ele>342.88474</ele>
        <time>2023-07-04T13:30:32.000Z</time>
      </trkpt>
      <trkpt lat="45.8339" lon="4.68774">
        <ele>342.77744</ele>
        <time>2023-07-04T13:30:33.000Z</time>
      </trkpt>
      <trkpt lat="45.83386" lon="4.68767">
        <ele>342.62085</ele>
        <time>2023-07-04T13:30:34.000Z</time>
      </trkpt>
      <trkpt lat="45.83384" lon="4.68762">
        <ele>342.5235</ele>
        <time>2023-07-04T13:30:35.000Z</time>
      </trkpt>
      <trkpt lat="45.83381" lon="4.68756">
        <ele>342.43005</ele>
        <time>2023-07-04T13:30:36.000Z</time>
      </trkpt>
      <trkpt lat="45.83378" lon="4.6875">
        <ele>342.38763</ele>
        <time>2023-07-04T13:30:37.000Z</time>
      </trkpt>
      <trkpt lat="45.83375" lon="4.68744">
        <ele>342.22983</ele>
        <time>2023-07-04T13:30:38.000Z</time>
      </trkpt>
      <trkpt lat="45.83372" lon="4.68737">
        <ele>342.12302</ele>
        <time>2023-07-04T13:30:39.000Z</time>
      </trkpt>
      <trkpt lat="45.83369" lon="4.6873">
        <ele>342.04245</ele>
        <time>2023-07-04T13:30:40.000Z</time>
      </trkpt>
      <trkpt lat="45.83365" lon="4.68725">
        <ele>341.96991</ele>
        <time>2023-07-04T13:30:41.000Z</time>
      </trkpt>
      <trkpt lat="45.83362" lon="4.68719">
        <ele>341.73117</ele>
        <time>2023-07-04T13:30:42.000Z</time>
      </trkpt>
      <trkpt lat="45.83359" lon="4.68712">
        <ele>341.93246</ele>
        <time>2023-07-04T13:30:43.000Z</time>
      </trkpt>
      <trkpt lat="45.83356" lon="4.68706">
        <ele>342.24527</ele>
        <time>2023-07-04T13:30:44.000Z</time>
      </trkpt>
      <trkpt lat="45.83353" lon="4.68699">
        <ele>342.55389</ele>
        <time>2023-07-04T13:30:45.000Z</time>
      </trkpt>
      <trkpt lat="45.83349" lon="4.68693">
        <ele>342.95258</ele>
        <time>2023-07-04T13:30:46.000Z</time>
      </trkpt>
      <trkpt lat="45.83346" lon="4.68686">
        <ele>342.97903</ele>
        <time>2023-07-04T13:30:47.000Z</time>
      </trkpt>
      <trkpt lat="45.83345" lon="4.68679">
        <ele>343.02939</ele>
        <time>2023-07-04T13:30:48.000Z</time>
      </trkpt>
      <trkpt lat="45.83342" lon="4.68672">
        <ele>343.07053</ele>
        <time>2023-07-04T13:30:49.000Z</time>
      </trkpt>
      <trkpt lat="45.83339" lon="4.68666">
        <ele>342.77011</ele>
        <time>2023-07-04T13:30:50.000Z</time>
      </trkpt>
      <trkpt lat="45.83335" lon="4.68659">
        <ele>342.86633</ele>
        <time>2023-07-04T13:30:51.000Z</time>
      </trkpt>
      <trkpt lat="45.83333" lon="4.68653">
        <ele>342.79462</ele>
        <time>2023-07-04T13:30:52.000Z</time>
      </trkpt>
      <trkpt lat="45.83331" lon="4.68647">
        <ele>342.69577</ele>
        <time>2023-07-04T13:30:53.000Z</time>
      </trkpt>
      <trkpt lat="45.83329" lon="4.68639">
        <ele>342.7558</ele>
        <time>2023-07-04T13:30:54.000Z</time>
      </trkpt>
      <trkpt lat="45.83329" lon="4.68632">
        <ele>342.97379</ele>
        <time>2023-07-04T13:30:55.000Z</time>
      </trkpt>
      <trkpt lat="45.83328" lon="4.68625">
        <ele>343.31708</ele>
        <time>2023-07-04T13:30:56.000Z</time>
      </trkpt>
      <trkpt lat="45.83326" lon="4.68617">
        <ele>343.31805</ele>
        <time>2023-07-04T13:30:57.000Z</time>
      </trkpt>
      <trkpt lat="45.83325" lon="4.6861">
        <ele>343.43365</ele>
        <time>2023-07-04T13:30:58.000Z</time>
      </trkpt>
      <trkpt lat="45.83324" lon="4.68602">
        <ele>343.52838</ele>
        <time>2023-07-04T13:30:59.000Z</time>
      </trkpt>
      <trkpt lat="45.83322" lon="4.68595">
        <ele>343.7272</ele>
        <time>2023-07-04T13:31:00.000Z</time>
      </trkpt>
      <trkpt lat="45.83321" lon="4.68586">
        <ele>343.92542</ele>
        <time>2023-07-04T13:31:01.000Z</time>
      </trkpt>
      <trkpt lat="45.83316" lon="4.6858">
        <ele>344.11212</ele>
        <time>2023-07-04T13:31:02.000Z</time>
      </trkpt>
      <trkpt lat="45.83315" lon="4.68572">
        <ele>344.20819</ele>
        <time>2023-07-04T13:31:03.000Z</time>
      </trkpt>
      <trkpt lat="45.83316" lon="4.68565">
        <ele>343.89536</ele>
        <time>2023-07-04T13:31:04.000Z</time>
      </trkpt>
      <trkpt lat="45.83313" lon="4.68558">
        <ele>343.51923</ele>
        <time>2023-07-04T13:31:05.000Z</time>
      </trkpt>
      <trkpt lat="45.83311" lon="4.68552">
        <ele>343.09192</ele>
        <time>2023-07-04T13:31:06.000Z</time>
      </trkpt>
      <trkpt lat="45.83309" lon="4.68547">
        <ele>343.0751</ele>
        <time>2023-07-04T13:31:07.000Z</time>
      </trkpt>
      <trkpt lat="45.83305" lon="4.68542">
        <ele>343.06311</ele>
        <time>2023-07-04T13:31:08.000Z</time>
      </trkpt>
      <trkpt lat="45.83302" lon="4.68538">
        <ele>343.0708</ele>
        <time>2023-07-04T13:31:09.000Z</time>
      </trkpt>
      <trkpt lat="45.83299" lon="4.68534">
        <ele>343.05634</ele>
        <time>2023-07-04T13:31:10.000Z</time>
      </trkpt>
      <trkpt lat="45.83296" lon="4.6853">
        <ele>343.01053</ele>
        <time>2023-07-04T13:31:11.000Z</time>
      </trkpt>
      <trkpt lat="45.83294" lon="4.68527">
        <ele>342.97</ele>
        <time>2023-07-04T13:31:12.000Z</time>
      </trkpt>
      <trkpt lat="45.83291" lon="4.68524">
        <ele>343.05246</ele>
        <time>2023-07-04T13:31:13.000Z</time>
      </trkpt>
      <trkpt lat="45.83288" lon="4.68521">
        <ele>342.98465</ele>
        <time>2023-07-04T13:31:14.000Z</time>
      </trkpt>
      <trkpt lat="45.83285" lon="4.68518">
        <ele>342.8187</ele>
        <time>2023-07-04T13:31:15.000Z</time>
      </trkpt>
      <trkpt lat="45.83282" lon="4.68515">
        <ele>342.57144</ele>
        <time>2023-07-04T13:31:16.000Z</time>
      </trkpt>
      <trkpt lat="45.83278" lon="4.68512">
        <ele>342.65695</ele>
        <time>2023-07-04T13:31:17.000Z</time>
      </trkpt>
      <trkpt lat="45.83275" lon="4.68509">
        <ele>342.62207</ele>
        <time>2023-07-04T13:31:18.000Z</time>
      </trkpt>
      <trkpt lat="45.83272" lon="4.68506">
        <ele>342.58563</ele>
        <time>2023-07-04T13:31:19.000Z</time>
      </trkpt>
      <trkpt lat="45.83269" lon="4.68503">
        <ele>342.43881</ele>
        <time>2023-07-04T13:31:20.000Z</time>
      </trkpt>
      <trkpt lat="45.83266" lon="4.685">
        <ele>342.27725</ele>
        <time>2023-07-04T13:31:21.000Z</time>
      </trkpt>
      <trkpt lat="45.83263" lon="4.68497">
        <ele>342.34628</ele>
        <time>2023-07-04T13:31:22.000Z</time>
      </trkpt>
      <trkpt lat="45.8326" lon="4.68493">
        <ele>342.51553</ele>
        <time>2023-07-04T13:31:23.000Z</time>
      </trkpt>
      <trkpt lat="45.83256" lon="4.6849">
        <ele>342.92444</ele>
        <time>2023-07-04T13:31:24.000Z</time>
      </trkpt>
      <trkpt lat="45.83253" lon="4.68487">
        <ele>343.39618</ele>
        <time>2023-07-04T13:31:25.000Z</time>
      </trkpt>
      <trkpt lat="45.8325" lon="4.68484">
        <ele>343.97882</ele>
        <time>2023-07-04T13:31:26.000Z</time>
      </trkpt>
      <trkpt lat="45.83247" lon="4.68481">
        <ele>344.24799</ele>
        <time>2023-07-04T13:31:27.000Z</time>
      </trkpt>
      <trkpt lat="45.83244" lon="4.68478">
        <ele>344.56656</ele>
        <time>2023-07-04T13:31:28.000Z</time>
      </trkpt>
      <trkpt lat="45.83241" lon="4.68476">
        <ele>344.90512</ele>
        <time>2023-07-04T13:31:29.000Z</time>
      </trkpt>
      <trkpt lat="45.83238" lon="4.68473">
        <ele>345.27744</ele>
        <time>2023-07-04T13:31:30.000Z</time>
      </trkpt>
      <trkpt lat="45.83235" lon="4.68471">
        <ele>345.66324</ele>
        <time>2023-07-04T13:31:31.000Z</time>
      </trkpt>
      <trkpt lat="45.83232" lon="4.68468">
        <ele>346.0304</ele>
        <time>2023-07-04T13:31:32.000Z</time>
      </trkpt>
      <trkpt lat="45.83229" lon="4.68464">
        <ele>346.28702</ele>
        <time>2023-07-04T13:31:33.000Z</time>
      </trkpt>
      <trkpt lat="45.83226" lon="4.68461">
        <ele>346.67316</ele>
        <time>2023-07-04T13:31:34.000Z</time>
      </trkpt>
      <trkpt lat="45.83223" lon="4.68458">
        <ele>347.19437</ele>
        <time>2023-07-04T13:31:35.000Z</time>
      </trkpt>
      <trkpt lat="45.8322" lon="4.68455">
        <ele>347.70026</ele>
        <time>2023-07-04T13:31:36.000Z</time>
      </trkpt>
      <trkpt lat="45.83217" lon="4.68452">
        <ele>347.9111</ele>
        <time>2023-07-04T13:31:37.000Z</time>
      </trkpt>
      <trkpt lat="45.83214" lon="4.68449">
        <ele>348.18448</ele>
        <time>2023-07-04T13:31:38.000Z</time>
      </trkpt>
      <trkpt lat="45.83212" lon="4.68445">
        <ele>348.47772</ele>
        <time>2023-07-04T13:31:39.000Z</time>
      </trkpt>
      <trkpt lat="45.8321" lon="4.68442">
        <ele>348.75113</ele>
        <time>2023-07-04T13:31:40.000Z</time>
      </trkpt>
      <trkpt lat="45.83208" lon="4.68438">
        <ele>349.03842</ele>
        <time>2023-07-04T13:31:41.000Z</time>
      </trkpt>
      <trkpt lat="45.83206" lon="4.68434">
        <ele>349.1366</ele>
        <time>2023-07-04T13:31:42.000Z</time>
      </trkpt>
      <trkpt lat="45.83204" lon="4.6843">
        <ele>349.23648</ele>
        <time>2023-07-04T13:31:43.000Z</time>
      </trkpt>
      <trkpt lat="45.83202" lon="4.68427">
        <ele>349.34918</ele>
        <time>2023-07-04T13:31:44.000Z</time>
      </trkpt>
      <trkpt lat="45.832" lon="4.68423">
        <ele>349.47708</ele>
        <time>2023-07-04T13:31:45.000Z</time>
      </trkpt>
      <trkpt lat="45.83199" lon="4.6842">
        <ele>349.64029</ele>
        <time>2023-07-04T13:31:46.000Z</time>
      </trkpt>
      <trkpt lat="45.83197" lon="4.68416">
        <ele>350.11066</ele>
        <time>2023-07-04T13:31:47.000Z</time>
      </trkpt>
      <trkpt lat="45.83196" lon="4.68412">
        <ele>350.50742</ele>
        <time>2023-07-04T13:31:48.000Z</time>
      </trkpt>
      <trkpt lat="45.83194" lon="4.68409">
        <ele>350.89618</ele>
        <time>2023-07-04T13:31:49.000Z</time>
      </trkpt>
      <trkpt lat="45.83192" lon="4.68405">
        <ele>351.24945</ele>
        <time>2023-07-04T13:31:50.000Z</time>
      </trkpt>
      <trkpt lat="45.83191" lon="4.68402">
        <ele>351.59039</ele>
        <time>2023-07-04T13:31:51.000Z</time>
      </trkpt>
      <trkpt lat="45.83189" lon="4.68398">
        <ele>351.95007</ele>
        <time>2023-07-04T13:31:52.000Z</time>
      </trkpt>
      <trkpt lat="45.83188" lon="4.68395">
        <ele>352.31305</ele>
        <time>2023-07-04T13:31:53.000Z</time>
      </trkpt>
      <trkpt lat="45.83186" lon="4.68391">
        <ele>352.54892</ele>
        <time>2023-07-04T13:31:54.000Z</time>
      </trkpt>
      <trkpt lat="45.83184" lon="4.68388">
        <ele>352.61868</ele>
        <time>2023-07-04T13:31:55.000Z</time>
      </trkpt>
      <trkpt lat="45.83182" lon="4.68384">
        <ele>352.69153</ele>
        <time>2023-07-04T13:31:56.000Z</time>
      </trkpt>
      <trkpt lat="45.8318" lon="4.6838">
        <ele>353.07053</ele>
        <time>2023-07-04T13:31:57.000Z</time>
      </trkpt>
      <trkpt lat="45.83179" lon="4.68377">
        <ele>353.40015</ele>
        <time>2023-07-04T13:31:58.000Z</time>
      </trkpt>
      <trkpt lat="45.83177" lon="4.68373">
        <ele>353.6926</ele>
        <time>2023-07-04T13:31:59.000Z</time>
      </trkpt>
      <trkpt lat="45.83174" lon="4.68369">
        <ele>354.00647</ele>
        <time>2023-07-04T13:32:00.000Z</time>
      </trkpt>
      <trkpt lat="45.83172" lon="4.68366">
        <ele>354.31641</ele>
        <time>2023-07-04T13:32:01.000Z</time>
      </trkpt>
      <trkpt lat="45.83171" lon="4.68362">
        <ele>354.63229</ele>
        <time>2023-07-04T13:32:02.000Z</time>
      </trkpt>
      <trkpt lat="45.83169" lon="4.68358">
        <ele>355.0242</ele>
        <time>2023-07-04T13:32:03.000Z</time>
      </trkpt>
      <trkpt lat="45.83167" lon="4.68354">
        <ele>355.40372</ele>
        <time>2023-07-04T13:32:04.000Z</time>
      </trkpt>
      <trkpt lat="45.83164" lon="4.6835">
        <ele>355.51385</ele>
        <time>2023-07-04T13:32:05.000Z</time>
      </trkpt>
      <trkpt lat="45.83162" lon="4.68345">
        <ele>355.50897</ele>
        <time>2023-07-04T13:32:06.000Z</time>
      </trkpt>
      <trkpt lat="45.8316" lon="4.68341">
        <ele>355.47794</ele>
        <time>2023-07-04T13:32:07.000Z</time>
      </trkpt>
      <trkpt lat="45.83158" lon="4.68338">
        <ele>355.44037</ele>
        <time>2023-07-04T13:32:08.000Z</time>
      </trkpt>
      <trkpt lat="45.83156" lon="4.68334">
        <ele>355.38541</ele>
        <time>2023-07-04T13:32:09.000Z</time>
      </trkpt>
      <trkpt lat="45.83154" lon="4.68329">
        <ele>355.33795</ele>
        <time>2023-07-04T13:32:10.000Z</time>
      </trkpt>
      <trkpt lat="45.83151" lon="4.68326">
        <ele>355.41827</ele>
        <time>2023-07-04T13:32:11.000Z</time>
      </trkpt>
      <trkpt lat="45.83149" lon="4.68322">
        <ele>355.50031</ele>
        <time>2023-07-04T13:32:12.000Z</time>
      </trkpt>
      <trkpt lat="45.83147" lon="4.68318">
        <ele>355.67102</ele>
        <time>2023-07-04T13:32:13.000Z</time>
      </trkpt>
      <trkpt lat="45.83145" lon="4.68314">
        <ele>355.84592</ele>
        <time>2023-07-04T13:32:14.000Z</time>
      </trkpt>
      <trkpt lat="45.83142" lon="4.6831">
        <ele>355.78552</ele>
        <time>2023-07-04T13:32:15.000Z</time>
      </trkpt>
      <trkpt lat="45.8314" lon="4.68306">
        <ele>355.7514</ele>
        <time>2023-07-04T13:32:16.000Z</time>
      </trkpt>
      <trkpt lat="45.83138" lon="4.68302">
        <ele>355.72311</ele>
        <time>2023-07-04T13:32:17.000Z</time>
      </trkpt>
      <trkpt lat="45.83137" lon="4.68298">
        <ele>355.66681</ele>
        <time>2023-07-04T13:32:18.000Z</time>
      </trkpt>
      <trkpt lat="45.83135" lon="4.68294">
        <ele>355.61682</ele>
        <time>2023-07-04T13:32:19.000Z</time>
      </trkpt>
      <trkpt lat="45.83133" lon="4.6829">
        <ele>355.5799</ele>
        <time>2023-07-04T13:32:20.000Z</time>
      </trkpt>
      <trkpt lat="45.83131" lon="4.68285">
        <ele>355.55511</ele>
        <time>2023-07-04T13:32:21.000Z</time>
      </trkpt>
      <trkpt lat="45.83128" lon="4.68281">
        <ele>355.53467</ele>
        <time>2023-07-04T13:32:22.000Z</time>
      </trkpt>
      <trkpt lat="45.83126" lon="4.68277">
        <ele>355.42261</ele>
        <time>2023-07-04T13:32:23.000Z</time>
      </trkpt>
      <trkpt lat="45.83124" lon="4.68273">
        <ele>355.32355</ele>
        <time>2023-07-04T13:32:24.000Z</time>
      </trkpt>
      <trkpt lat="45.83122" lon="4.68269">
        <ele>355.48831</ele>
        <time>2023-07-04T13:32:25.000Z</time>
      </trkpt>
      <trkpt lat="45.83121" lon="4.68264">
        <ele>355.71887</ele>
        <time>2023-07-04T13:32:26.000Z</time>
      </trkpt>
      <trkpt lat="45.83119" lon="4.68259">
        <ele>356.0437</ele>
        <time>2023-07-04T13:32:27.000Z</time>
      </trkpt>
      <trkpt lat="45.83117" lon="4.68255">
        <ele>356.14117</ele>
        <time>2023-07-04T13:32:28.000Z</time>
      </trkpt>
      <trkpt lat="45.83115" lon="4.6825">
        <ele>356.27142</ele>
        <time>2023-07-04T13:32:29.000Z</time>
      </trkpt>
      <trkpt lat="45.83114" lon="4.68245">
        <ele>356.40021</ele>
        <time>2023-07-04T13:32:30.000Z</time>
      </trkpt>
      <trkpt lat="45.83112" lon="4.6824">
        <ele>356.40714</ele>
        <time>2023-07-04T13:32:31.000Z</time>
      </trkpt>
      <trkpt lat="45.83111" lon="4.68235">
        <ele>356.40561</ele>
        <time>2023-07-04T13:32:32.000Z</time>
      </trkpt>
      <trkpt lat="45.8311" lon="4.6823">
        <ele>356.32849</ele>
        <time>2023-07-04T13:32:33.000Z</time>
      </trkpt>
      <trkpt lat="45.83109" lon="4.68225">
        <ele>356.2316</ele>
        <time>2023-07-04T13:32:34.000Z</time>
      </trkpt>
      <trkpt lat="45.83107" lon="4.6822">
        <ele>356.36508</ele>
        <time>2023-07-04T13:32:35.000Z</time>
      </trkpt>
      <trkpt lat="45.83106" lon="4.68215">
        <ele>356.45087</ele>
        <time>2023-07-04T13:32:36.000Z</time>
      </trkpt>
      <trkpt lat="45.83105" lon="4.6821">
        <ele>356.51038</ele>
        <time>2023-07-04T13:32:37.000Z</time>
      </trkpt>
      <trkpt lat="45.83104" lon="4.68204">
        <ele>356.5835</ele>
        <time>2023-07-04T13:32:38.000Z</time>
      </trkpt>
      <trkpt lat="45.83102" lon="4.68199">
        <ele>356.65335</ele>
        <time>2023-07-04T13:32:39.000Z</time>
      </trkpt>
      <trkpt lat="45.83101" lon="4.68194">
        <ele>356.72064</ele>
        <time>2023-07-04T13:32:40.000Z</time>
      </trkpt>
      <trkpt lat="45.831" lon="4.68188">
        <ele>356.75266</ele>
        <time>2023-07-04T13:32:41.000Z</time>
      </trkpt>
      <trkpt lat="45.83099" lon="4.68183">
        <ele>356.88834</ele>
        <time>2023-07-04T13:32:42.000Z</time>
      </trkpt>
      <trkpt lat="45.83097" lon="4.68178">
        <ele>357.02701</ele>
        <time>2023-07-04T13:32:43.000Z</time>
      </trkpt>
      <trkpt lat="45.83096" lon="4.68173">
        <ele>357.1546</ele>
        <time>2023-07-04T13:32:44.000Z</time>
      </trkpt>
      <trkpt lat="45.83096" lon="4.68168">
        <ele>357.30243</ele>
        <time>2023-07-04T13:32:45.000Z</time>
      </trkpt>
      <trkpt lat="45.83095" lon="4.68163">
        <ele>357.34506</ele>
        <time>2023-07-04T13:32:46.000Z</time>
      </trkpt>
      <trkpt lat="45.83094" lon="4.68157">
        <ele>357.3074</ele>
        <time>2023-07-04T13:32:47.000Z</time>
      </trkpt>
      <trkpt lat="45.83093" lon="4.68152">
        <ele>357.50458</ele>
        <time>2023-07-04T13:32:48.000Z</time>
      </trkpt>
      <trkpt lat="45.83092" lon="4.68146">
        <ele>357.66711</ele>
        <time>2023-07-04T13:32:49.000Z</time>
      </trkpt>
      <trkpt lat="45.83091" lon="4.6814">
        <ele>357.83319</ele>
        <time>2023-07-04T13:32:50.000Z</time>
      </trkpt>
      <trkpt lat="45.83091" lon="4.68135">
        <ele>358.00562</ele>
        <time>2023-07-04T13:32:51.000Z</time>
      </trkpt>
      <trkpt lat="45.8309" lon="4.68129">
        <ele>358.16757</ele>
        <time>2023-07-04T13:32:52.000Z</time>
      </trkpt>
      <trkpt lat="45.83089" lon="4.68123">
        <ele>358.31409</ele>
        <time>2023-07-04T13:32:53.000Z</time>
      </trkpt>
      <trkpt lat="45.83089" lon="4.68116">
        <ele>358.45963</ele>
        <time>2023-07-04T13:32:54.000Z</time>
      </trkpt>
      <trkpt lat="45.83088" lon="4.68109">
        <ele>358.61499</ele>
        <time>2023-07-04T13:32:55.000Z</time>
      </trkpt>
      <trkpt lat="45.83087" lon="4.68103">
        <ele>358.78009</ele>
        <time>2023-07-04T13:32:56.000Z</time>
      </trkpt>
      <trkpt lat="45.83087" lon="4.68096">
        <ele>359.01962</ele>
        <time>2023-07-04T13:32:57.000Z</time>
      </trkpt>
      <trkpt lat="45.83087" lon="4.6809">
        <ele>359.23492</ele>
        <time>2023-07-04T13:32:58.000Z</time>
      </trkpt>
      <trkpt lat="45.83087" lon="4.68083">
        <ele>359.40244</ele>
        <time>2023-07-04T13:32:59.000Z</time>
      </trkpt>
      <trkpt lat="45.83086" lon="4.68076">
        <ele>359.36481</ele>
        <time>2023-07-04T13:33:00.000Z</time>
      </trkpt>
      <trkpt lat="45.83085" lon="4.68069">
        <ele>359.40131</ele>
        <time>2023-07-04T13:33:01.000Z</time>
      </trkpt>
      <trkpt lat="45.83085" lon="4.68061">
        <ele>359.31</ele>
        <time>2023-07-04T13:33:02.000Z</time>
      </trkpt>
      <trkpt lat="45.83084" lon="4.68054">
        <ele>359.19601</ele>
        <time>2023-07-04T13:33:03.000Z</time>
      </trkpt>
      <trkpt lat="45.83083" lon="4.68045">
        <ele>359.07266</ele>
        <time>2023-07-04T13:33:04.000Z</time>
      </trkpt>
      <trkpt lat="45.83082" lon="4.68038">
        <ele>358.92361</ele>
        <time>2023-07-04T13:33:05.000Z</time>
      </trkpt>
      <trkpt lat="45.83082" lon="4.68031">
        <ele>358.76871</ele>
        <time>2023-07-04T13:33:06.000Z</time>
      </trkpt>
      <trkpt lat="45.83081" lon="4.68023">
        <ele>358.60428</ele>
        <time>2023-07-04T13:33:07.000Z</time>
      </trkpt>
      <trkpt lat="45.8308" lon="4.68016">
        <ele>358.53275</ele>
        <time>2023-07-04T13:33:08.000Z</time>
      </trkpt>
      <trkpt lat="45.83079" lon="4.68008">
        <ele>358.44904</ele>
        <time>2023-07-04T13:33:09.000Z</time>
      </trkpt>
      <trkpt lat="45.83078" lon="4.68002">
        <ele>358.32843</ele>
        <time>2023-07-04T13:33:10.000Z</time>
      </trkpt>
      <trkpt lat="45.83077" lon="4.67994">
        <ele>358.1998</ele>
        <time>2023-07-04T13:33:11.000Z</time>
      </trkpt>
      <trkpt lat="45.83076" lon="4.67986">
        <ele>358.06659</ele>
        <time>2023-07-04T13:33:12.000Z</time>
      </trkpt>
      <trkpt lat="45.83074" lon="4.67979">
        <ele>357.9415</ele>
        <time>2023-07-04T13:33:13.000Z</time>
      </trkpt>
      <trkpt lat="45.83073" lon="4.67971">
        <ele>357.79645</ele>
        <time>2023-07-04T13:33:14.000Z</time>
      </trkpt>
      <trkpt lat="45.83071" lon="4.67962">
        <ele>357.62729</ele>
        <time>2023-07-04T13:33:15.000Z</time>
      </trkpt>
      <trkpt lat="45.83069" lon="4.67954">
        <ele>357.4447</ele>
        <time>2023-07-04T13:33:16.000Z</time>
      </trkpt>
      <trkpt lat="45.83068" lon="4.67945">
        <ele>357.19995</ele>
        <time>2023-07-04T13:33:17.000Z</time>
      </trkpt>
      <trkpt lat="45.83066" lon="4.67936">
        <ele>356.97171</ele>
        <time>2023-07-04T13:33:18.000Z</time>
      </trkpt>
      <trkpt lat="45.83064" lon="4.67927">
        <ele>356.78842</ele>
        <time>2023-07-04T13:33:19.000Z</time>
      </trkpt>
      <trkpt lat="45.83062" lon="4.67918">
        <ele>356.79626</ele>
        <time>2023-07-04T13:33:20.000Z</time>
      </trkpt>
      <trkpt lat="45.8306" lon="4.67909">
        <ele>356.72778</ele>
        <time>2023-07-04T13:33:21.000Z</time>
      </trkpt>
      <trkpt lat="45.83058" lon="4.67901">
        <ele>356.68588</ele>
        <time>2023-07-04T13:33:22.000Z</time>
      </trkpt>
      <trkpt lat="45.83056" lon="4.67891">
        <ele>356.65546</ele>
        <time>2023-07-04T13:33:23.000Z</time>
      </trkpt>
      <trkpt lat="45.83054" lon="4.67882">
        <ele>356.62628</ele>
        <time>2023-07-04T13:33:24.000Z</time>
      </trkpt>
      <trkpt lat="45.83052" lon="4.67874">
        <ele>356.58853</ele>
        <time>2023-07-04T13:33:25.000Z</time>
      </trkpt>
      <trkpt lat="45.8305" lon="4.67865">
        <ele>356.62897</ele>
        <time>2023-07-04T13:33:26.000Z</time>
      </trkpt>
      <trkpt lat="45.83049" lon="4.67856">
        <ele>356.4025</ele>
        <time>2023-07-04T13:33:27.000Z</time>
      </trkpt>
      <trkpt lat="45.83047" lon="4.67848">
        <ele>356.10107</ele>
        <time>2023-07-04T13:33:28.000Z</time>
      </trkpt>
      <trkpt lat="45.83045" lon="4.6784">
        <ele>355.78726</ele>
        <time>2023-07-04T13:33:29.000Z</time>
      </trkpt>
      <trkpt lat="45.83043" lon="4.67831">
        <ele>355.51138</ele>
        <time>2023-07-04T13:33:30.000Z</time>
      </trkpt>
      <trkpt lat="45.83041" lon="4.67821">
        <ele>355.25079</ele>
        <time>2023-07-04T13:33:31.000Z</time>
      </trkpt>
      <trkpt lat="45.83039" lon="4.67809">
        <ele>355.11908</ele>
        <time>2023-07-04T13:33:32.000Z</time>
      </trkpt>
      <trkpt lat="45.83036" lon="4.67799">
        <ele>354.97052</ele>
        <time>2023-07-04T13:33:33.000Z</time>
      </trkpt>
      <trkpt lat="45.83033" lon="4.67789">
        <ele>354.90628</ele>
        <time>2023-07-04T13:33:34.000Z</time>
      </trkpt>
      <trkpt lat="45.83032" lon="4.67779">
        <ele>354.82681</ele>
        <time>2023-07-04T13:33:35.000Z</time>
      </trkpt>
      <trkpt lat="45.83029" lon="4.67768">
        <ele>354.73779</ele>
        <time>2023-07-04T13:33:36.000Z</time>
      </trkpt>
      <trkpt lat="45.83027" lon="4.67756">
        <ele>354.32892</ele>
        <time>2023-07-04T13:33:37.000Z</time>
      </trkpt>
      <trkpt lat="45.83025" lon="4.67745">
        <ele>353.96204</ele>
        <time>2023-07-04T13:33:38.000Z</time>
      </trkpt>
      <trkpt lat="45.83023" lon="4.67734">
        <ele>353.57538</ele>
        <time>2023-07-04T13:33:39.000Z</time>
      </trkpt>
      <trkpt lat="45.83021" lon="4.67724">
        <ele>353.19138</ele>
        <time>2023-07-04T13:33:40.000Z</time>
      </trkpt>
      <trkpt lat="45.83019" lon="4.67715">
        <ele>352.81186</ele>
        <time>2023-07-04T13:33:41.000Z</time>
      </trkpt>
      <trkpt lat="45.83017" lon="4.67706">
        <ele>352.39828</ele>
        <time>2023-07-04T13:33:42.000Z</time>
      </trkpt>
      <trkpt lat="45.83017" lon="4.67698">
        <ele>351.97885</ele>
        <time>2023-07-04T13:33:43.000Z</time>
      </trkpt>
      <trkpt lat="45.83017" lon="4.6769">
        <ele>351.56525</ele>
        <time>2023-07-04T13:33:44.000Z</time>
      </trkpt>
      <trkpt lat="45.83017" lon="4.67681">
        <ele>351.15881</ele>
        <time>2023-07-04T13:33:45.000Z</time>
      </trkpt>
      <trkpt lat="45.83017" lon="4.67672">
        <ele>350.70111</ele>
        <time>2023-07-04T13:33:46.000Z</time>
      </trkpt>
      <trkpt lat="45.83016" lon="4.67663">
        <ele>350.51022</ele>
        <time>2023-07-04T13:33:47.000Z</time>
      </trkpt>
      <trkpt lat="45.83017" lon="4.67654">
        <ele>350.29514</ele>
        <time>2023-07-04T13:33:48.000Z</time>
      </trkpt>
      <trkpt lat="45.83016" lon="4.67646">
        <ele>350.08917</ele>
        <time>2023-07-04T13:33:49.000Z</time>
      </trkpt>
      <trkpt lat="45.83016" lon="4.67636">
        <ele>349.87384</ele>
        <time>2023-07-04T13:33:50.000Z</time>
      </trkpt>
      <trkpt lat="45.83016" lon="4.67628">
        <ele>349.66989</ele>
        <time>2023-07-04T13:33:51.000Z</time>
      </trkpt>
      <trkpt lat="45.83015" lon="4.67618">
        <ele>349.44037</ele>
        <time>2023-07-04T13:33:52.000Z</time>
      </trkpt>
      <trkpt lat="45.83015" lon="4.6761">
        <ele>349.23822</ele>
        <time>2023-07-04T13:33:53.000Z</time>
      </trkpt>
      <trkpt lat="45.83014" lon="4.67601">
        <ele>349.08005</ele>
        <time>2023-07-04T13:33:54.000Z</time>
      </trkpt>
      <trkpt lat="45.83013" lon="4.67593">
        <ele>348.98141</ele>
        <time>2023-07-04T13:33:55.000Z</time>
      </trkpt>
      <trkpt lat="45.8301" lon="4.67585">
        <ele>348.90399</ele>
        <time>2023-07-04T13:33:56.000Z</time>
      </trkpt>
      <trkpt lat="45.83005" lon="4.67579">
        <ele>348.81137</ele>
        <time>2023-07-04T13:33:57.000Z</time>
      </trkpt>
      <trkpt lat="45.83" lon="4.67575">
        <ele>348.76038</ele>
        <time>2023-07-04T13:33:58.000Z</time>
      </trkpt>
      <trkpt lat="45.82994" lon="4.67573">
        <ele>348.7395</ele>
        <time>2023-07-04T13:33:59.000Z</time>
      </trkpt>
      <trkpt lat="45.82989" lon="4.67572">
        <ele>348.72507</ele>
        <time>2023-07-04T13:34:00.000Z</time>
      </trkpt>
      <trkpt lat="45.82984" lon="4.6757">
        <ele>348.73972</ele>
        <time>2023-07-04T13:34:01.000Z</time>
      </trkpt>
      <trkpt lat="45.82979" lon="4.67568">
        <ele>348.7934</ele>
        <time>2023-07-04T13:34:02.000Z</time>
      </trkpt>
      <trkpt lat="45.82974" lon="4.67566">
        <ele>348.87357</ele>
        <time>2023-07-04T13:34:03.000Z</time>
      </trkpt>
      <trkpt lat="45.82969" lon="4.67565">
        <ele>348.9548</ele>
        <time>2023-07-04T13:34:04.000Z</time>
      </trkpt>
      <trkpt lat="45.82965" lon="4.67564">
        <ele>349.20639</ele>
        <time>2023-07-04T13:34:05.000Z</time>
      </trkpt>
      <trkpt lat="45.8296" lon="4.67564">
        <ele>349.4433</ele>
        <time>2023-07-04T13:34:06.000Z</time>
      </trkpt>
      <trkpt lat="45.82956" lon="4.67562">
        <ele>349.71136</ele>
        <time>2023-07-04T13:34:07.000Z</time>
      </trkpt>
      <trkpt lat="45.82952" lon="4.67562">
        <ele>350.06717</ele>
        <time>2023-07-04T13:34:08.000Z</time>
      </trkpt>
      <trkpt lat="45.82948" lon="4.67561">
        <ele>350.44519</ele>
        <time>2023-07-04T13:34:09.000Z</time>
      </trkpt>
      <trkpt lat="45.82944" lon="4.67559">
        <ele>350.54224</ele>
        <time>2023-07-04T13:34:10.000Z</time>
      </trkpt>
      <trkpt lat="45.8294" lon="4.67558">
        <ele>350.69012</ele>
        <time>2023-07-04T13:34:11.000Z</time>
      </trkpt>
      <trkpt lat="45.82936" lon="4.67556">
        <ele>350.74493</ele>
        <time>2023-07-04T13:34:12.000Z</time>
      </trkpt>
      <trkpt lat="45.82933" lon="4.67555">
        <ele>350.78232</ele>
        <time>2023-07-04T13:34:13.000Z</time>
      </trkpt>
      <trkpt lat="45.8293" lon="4.67554">
        <ele>350.72443</ele>
        <time>2023-07-04T13:34:14.000Z</time>
      </trkpt>
      <trkpt lat="45.82927" lon="4.67552">
        <ele>350.655</ele>
        <time>2023-07-04T13:34:15.000Z</time>
      </trkpt>
      <trkpt lat="45.82923" lon="4.6755">
        <ele>350.63898</ele>
        <time>2023-07-04T13:34:16.000Z</time>
      </trkpt>
      <trkpt lat="45.8292" lon="4.67548">
        <ele>350.94522</ele>
        <time>2023-07-04T13:34:17.000Z</time>
      </trkpt>
      <trkpt lat="45.82917" lon="4.67545">
        <ele>351.16449</ele>
        <time>2023-07-04T13:34:18.000Z</time>
      </trkpt>
      <trkpt lat="45.82913" lon="4.67541">
        <ele>351.38953</ele>
        <time>2023-07-04T13:34:19.000Z</time>
      </trkpt>
      <trkpt lat="45.8291" lon="4.67538">
        <ele>351.62137</ele>
        <time>2023-07-04T13:34:20.000Z</time>
      </trkpt>
      <trkpt lat="45.82906" lon="4.67535">
        <ele>351.82132</ele>
        <time>2023-07-04T13:34:21.000Z</time>
      </trkpt>
      <trkpt lat="45.82903" lon="4.67532">
        <ele>352.02893</ele>
        <time>2023-07-04T13:34:22.000Z</time>
      </trkpt>
      <trkpt lat="45.829" lon="4.67528">
        <ele>352.26895</ele>
        <time>2023-07-04T13:34:23.000Z</time>
      </trkpt>
      <trkpt lat="45.82897" lon="4.67524">
        <ele>352.47778</ele>
        <time>2023-07-04T13:34:24.000Z</time>
      </trkpt>
      <trkpt lat="45.82899" lon="4.67516">
        <ele>352.63141</ele>
        <time>2023-07-04T13:34:25.000Z</time>
      </trkpt>
      <trkpt lat="45.829" lon="4.6751">
        <ele>352.85556</ele>
        <time>2023-07-04T13:34:26.000Z</time>
      </trkpt>
      <trkpt lat="45.82902" lon="4.67504">
        <ele>352.75797</ele>
        <time>2023-07-04T13:34:27.000Z</time>
      </trkpt>
      <trkpt lat="45.82906" lon="4.67498">
        <ele>352.61133</ele>
        <time>2023-07-04T13:34:28.000Z</time>
      </trkpt>
      <trkpt lat="45.8291" lon="4.67491">
        <ele>352.43796</ele>
        <time>2023-07-04T13:34:29.000Z</time>
      </trkpt>
      <trkpt lat="45.82913" lon="4.67484">
        <ele>352.54611</ele>
        <time>2023-07-04T13:34:30.000Z</time>
      </trkpt>
      <trkpt lat="45.82917" lon="4.67477">
        <ele>352.57404</ele>
        <time>2023-07-04T13:34:31.000Z</time>
      </trkpt>
      <trkpt lat="45.82921" lon="4.67469">
        <ele>352.62012</ele>
        <time>2023-07-04T13:34:32.000Z</time>
      </trkpt>
      <trkpt lat="45.82925" lon="4.67461">
        <ele>352.64468</ele>
        <time>2023-07-04T13:34:33.000Z</time>
      </trkpt>
      <trkpt lat="45.82928" lon="4.67452">
        <ele>352.67285</ele>
        <time>2023-07-04T13:34:34.000Z</time>
      </trkpt>
      <trkpt lat="45.82933" lon="4.67446">
        <ele>352.66241</ele>
        <time>2023-07-04T13:34:35.000Z</time>
      </trkpt>
      <trkpt lat="45.82937" lon="4.67438">
        <ele>352.5892</ele>
        <time>2023-07-04T13:34:36.000Z</time>
      </trkpt>
      <trkpt lat="45.82941" lon="4.6743">
        <ele>352.49222</ele>
        <time>2023-07-04T13:34:37.000Z</time>
      </trkpt>
      <trkpt lat="45.82944" lon="4.67422">
        <ele>352.41422</ele>
        <time>2023-07-04T13:34:38.000Z</time>
      </trkpt>
      <trkpt lat="45.82948" lon="4.67414">
        <ele>352.45306</ele>
        <time>2023-07-04T13:34:39.000Z</time>
      </trkpt>
      <trkpt lat="45.82952" lon="4.67407">
        <ele>352.56088</ele>
        <time>2023-07-04T13:34:40.000Z</time>
      </trkpt>
      <trkpt lat="45.82956" lon="4.67399">
        <ele>352.67865</ele>
        <time>2023-07-04T13:34:41.000Z</time>
      </trkpt>
      <trkpt lat="45.82961" lon="4.67391">
        <ele>352.43808</ele>
        <time>2023-07-04T13:34:42.000Z</time>
      </trkpt>
      <trkpt lat="45.82965" lon="4.67382">
        <ele>352.18707</ele>
        <time>2023-07-04T13:34:43.000Z</time>
      </trkpt>
      <trkpt lat="45.82968" lon="4.67373">
        <ele>351.97369</ele>
        <time>2023-07-04T13:34:44.000Z</time>
      </trkpt>
      <trkpt lat="45.82973" lon="4.67365">
        <ele>351.6315</ele>
        <time>2023-07-04T13:34:45.000Z</time>
      </trkpt>
      <trkpt lat="45.82977" lon="4.67357">
        <ele>351.18832</ele>
        <time>2023-07-04T13:34:46.000Z</time>
      </trkpt>
      <trkpt lat="45.8298" lon="4.67349">
        <ele>351.03256</ele>
        <time>2023-07-04T13:34:47.000Z</time>
      </trkpt>
      <trkpt lat="45.82984" lon="4.67341">
        <ele>350.8465</ele>
        <time>2023-07-04T13:34:48.000Z</time>
      </trkpt>
      <trkpt lat="45.82988" lon="4.67332">
        <ele>350.65045</ele>
        <time>2023-07-04T13:34:49.000Z</time>
      </trkpt>
      <trkpt lat="45.82991" lon="4.67324">
        <ele>350.44922</ele>
        <time>2023-07-04T13:34:50.000Z</time>
      </trkpt>
      <trkpt lat="45.82995" lon="4.67316">
        <ele>350.26367</ele>
        <time>2023-07-04T13:34:51.000Z</time>
      </trkpt>
      <trkpt lat="45.82998" lon="4.67308">
        <ele>350.07785</ele>
        <time>2023-07-04T13:34:52.000Z</time>
      </trkpt>
      <trkpt lat="45.83001" lon="4.67299">
        <ele>349.92828</ele>
        <time>2023-07-04T13:34:53.000Z</time>
      </trkpt>
      <trkpt lat="45.83003" lon="4.67291">
        <ele>349.76227</ele>
        <time>2023-07-04T13:34:54.000Z</time>
      </trkpt>
      <trkpt lat="45.83006" lon="4.67282">
        <ele>349.64038</ele>
        <time>2023-07-04T13:34:55.000Z</time>
      </trkpt>
      <trkpt lat="45.83008" lon="4.67274">
        <ele>349.53265</ele>
        <time>2023-07-04T13:34:56.000Z</time>
      </trkpt>
      <trkpt lat="45.83011" lon="4.67266">
        <ele>349.4451</ele>
        <time>2023-07-04T13:34:57.000Z</time>
      </trkpt>
      <trkpt lat="45.83013" lon="4.67259">
        <ele>349.36261</ele>
        <time>2023-07-04T13:34:58.000Z</time>
      </trkpt>
      <trkpt lat="45.83015" lon="4.67251">
        <ele>349.1412</ele>
        <time>2023-07-04T13:34:59.000Z</time>
      </trkpt>
      <trkpt lat="45.83018" lon="4.67244">
        <ele>348.84216</ele>
        <time>2023-07-04T13:35:00.000Z</time>
      </trkpt>
      <trkpt lat="45.8302" lon="4.67237">
        <ele>348.55737</ele>
        <time>2023-07-04T13:35:01.000Z</time>
      </trkpt>
      <trkpt lat="45.83022" lon="4.6723">
        <ele>348.6283</ele>
        <time>2023-07-04T13:35:02.000Z</time>
      </trkpt>
      <trkpt lat="45.83023" lon="4.67223">
        <ele>348.66437</ele>
        <time>2023-07-04T13:35:03.000Z</time>
      </trkpt>
      <trkpt lat="45.83025" lon="4.67218">
        <ele>348.70178</ele>
        <time>2023-07-04T13:35:04.000Z</time>
      </trkpt>
      <trkpt lat="45.83028" lon="4.67213">
        <ele>348.73953</ele>
        <time>2023-07-04T13:35:05.000Z</time>
      </trkpt>
      <trkpt lat="45.83031" lon="4.67208">
        <ele>348.80716</ele>
        <time>2023-07-04T13:35:06.000Z</time>
      </trkpt>
      <trkpt lat="45.83032" lon="4.67203">
        <ele>348.88434</ele>
        <time>2023-07-04T13:35:07.000Z</time>
      </trkpt>
      <trkpt lat="45.83033" lon="4.67197">
        <ele>348.98395</ele>
        <time>2023-07-04T13:35:08.000Z</time>
      </trkpt>
      <trkpt lat="45.83033" lon="4.67191">
        <ele>349.11807</ele>
        <time>2023-07-04T13:35:09.000Z</time>
      </trkpt>
      <trkpt lat="45.83032" lon="4.67185">
        <ele>349.27502</ele>
        <time>2023-07-04T13:35:10.000Z</time>
      </trkpt>
      <trkpt lat="45.83031" lon="4.6718">
        <ele>349.42883</ele>
        <time>2023-07-04T13:35:11.000Z</time>
      </trkpt>
      <trkpt lat="45.83029" lon="4.67175">
        <ele>349.56329</ele>
        <time>2023-07-04T13:35:12.000Z</time>
      </trkpt>
      <trkpt lat="45.83027" lon="4.67171">
        <ele>349.69513</ele>
        <time>2023-07-04T13:35:13.000Z</time>
      </trkpt>
      <trkpt lat="45.83024" lon="4.67166">
        <ele>349.96735</ele>
        <time>2023-07-04T13:35:14.000Z</time>
      </trkpt>
      <trkpt lat="45.83022" lon="4.67161">
        <ele>350.21796</ele>
        <time>2023-07-04T13:35:15.000Z</time>
      </trkpt>
      <trkpt lat="45.83019" lon="4.67156">
        <ele>350.56009</ele>
        <time>2023-07-04T13:35:16.000Z</time>
      </trkpt>
      <trkpt lat="45.83017" lon="4.67152">
        <ele>350.64276</ele>
        <time>2023-07-04T13:35:17.000Z</time>
      </trkpt>
      <trkpt lat="45.83015" lon="4.67147">
        <ele>350.7583</ele>
        <time>2023-07-04T13:35:18.000Z</time>
      </trkpt>
      <trkpt lat="45.83012" lon="4.67142">
        <ele>350.91623</ele>
        <time>2023-07-04T13:35:19.000Z</time>
      </trkpt>
      <trkpt lat="45.8301" lon="4.67137">
        <ele>351.09506</ele>
        <time>2023-07-04T13:35:20.000Z</time>
      </trkpt>
      <trkpt lat="45.83008" lon="4.67132">
        <ele>351.27194</ele>
        <time>2023-07-04T13:35:21.000Z</time>
      </trkpt>
      <trkpt lat="45.83006" lon="4.67128">
        <ele>351.46432</ele>
        <time>2023-07-04T13:35:22.000Z</time>
      </trkpt>
      <trkpt lat="45.83004" lon="4.67123">
        <ele>351.66916</ele>
        <time>2023-07-04T13:35:23.000Z</time>
      </trkpt>
      <trkpt lat="45.83002" lon="4.67118">
        <ele>351.85138</ele>
        <time>2023-07-04T13:35:24.000Z</time>
      </trkpt>
      <trkpt lat="45.83001" lon="4.67114">
        <ele>352.06659</ele>
        <time>2023-07-04T13:35:25.000Z</time>
      </trkpt>
      <trkpt lat="45.83001" lon="4.67109">
        <ele>352.2807</ele>
        <time>2023-07-04T13:35:26.000Z</time>
      </trkpt>
      <trkpt lat="45.83" lon="4.67105">
        <ele>352.53702</ele>
        <time>2023-07-04T13:35:27.000Z</time>
      </trkpt>
      <trkpt lat="45.82999" lon="4.67101">
        <ele>352.89862</ele>
        <time>2023-07-04T13:35:28.000Z</time>
      </trkpt>
      <trkpt lat="45.82999" lon="4.67097">
        <ele>353.26154</ele>
        <time>2023-07-04T13:35:29.000Z</time>
      </trkpt>
      <trkpt lat="45.82998" lon="4.67093">
        <ele>353.62537</ele>
        <time>2023-07-04T13:35:30.000Z</time>
      </trkpt>
      <trkpt lat="45.82998" lon="4.6709">
        <ele>353.98038</ele>
        <time>2023-07-04T13:35:31.000Z</time>
      </trkpt>
      <trkpt lat="45.82998" lon="4.67086">
        <ele>354.3421</ele>
        <time>2023-07-04T13:35:32.000Z</time>
      </trkpt>
      <trkpt lat="45.82998" lon="4.67083">
        <ele>354.70343</ele>
        <time>2023-07-04T13:35:33.000Z</time>
      </trkpt>
      <trkpt lat="45.82999" lon="4.6708">
        <ele>354.91364</ele>
        <time>2023-07-04T13:35:35.000Z</time>
      </trkpt>
      <trkpt lat="45.83" lon="4.67078">
        <ele>355.2724</ele>
        <time>2023-07-04T13:35:39.000Z</time>
      </trkpt>
      <trkpt lat="45.83" lon="4.67075">
        <ele>355.32681</ele>
        <time>2023-07-04T13:35:46.000Z</time>
      </trkpt>
      <trkpt lat="45.83" lon="4.67071">
        <ele>355.77884</ele>
        <time>2023-07-04T13:35:51.000Z</time>
      </trkpt>
      <trkpt lat="45.83" lon="4.67068">
        <ele>355.94244</ele>
        <time>2023-07-04T13:35:52.000Z</time>
      </trkpt>
      <trkpt lat="45.83001" lon="4.67064">
        <ele>356.13174</ele>
        <time>2023-07-04T13:35:53.000Z</time>
      </trkpt>
      <trkpt lat="45.83002" lon="4.6706">
        <ele>356.28003</ele>
        <time>2023-07-04T13:35:54.000Z</time>
      </trkpt>
      <trkpt lat="45.83002" lon="4.67056">
        <ele>356.39771</ele>
        <time>2023-07-04T13:35:55.000Z</time>
      </trkpt>
      <trkpt lat="45.83003" lon="4.67052">
        <ele>356.49582</ele>
        <time>2023-07-04T13:35:56.000Z</time>
      </trkpt>
      <trkpt lat="45.83003" lon="4.67048">
        <ele>356.61737</ele>
        <time>2023-07-04T13:35:57.000Z</time>
      </trkpt>
      <trkpt lat="45.83004" lon="4.67043">
        <ele>356.77866</ele>
        <time>2023-07-04T13:35:58.000Z</time>
      </trkpt>
      <trkpt lat="45.83005" lon="4.67038">
        <ele>356.96078</ele>
        <time>2023-07-04T13:35:59.000Z</time>
      </trkpt>
      <trkpt lat="45.83006" lon="4.67034">
        <ele>357.08527</ele>
        <time>2023-07-04T13:36:00.000Z</time>
      </trkpt>
      <trkpt lat="45.83006" lon="4.67029">
        <ele>357.33337</ele>
        <time>2023-07-04T13:36:01.000Z</time>
      </trkpt>
      <trkpt lat="45.83006" lon="4.67025">
        <ele>357.42023</ele>
        <time>2023-07-04T13:36:02.000Z</time>
      </trkpt>
      <trkpt lat="45.83007" lon="4.6702">
        <ele>357.50226</ele>
        <time>2023-07-04T13:36:03.000Z</time>
      </trkpt>
      <trkpt lat="45.83008" lon="4.67015">
        <ele>357.56558</ele>
        <time>2023-07-04T13:36:04.000Z</time>
      </trkpt>
      <trkpt lat="45.83008" lon="4.6701">
        <ele>357.64594</ele>
        <time>2023-07-04T13:36:05.000Z</time>
      </trkpt>
      <trkpt lat="45.83009" lon="4.67004">
        <ele>357.74402</ele>
        <time>2023-07-04T13:36:06.000Z</time>
      </trkpt>
      <trkpt lat="45.83009" lon="4.66999">
        <ele>357.85611</ele>
        <time>2023-07-04T13:36:07.000Z</time>
      </trkpt>
      <trkpt lat="45.83009" lon="4.66994">
        <ele>358.0007</ele>
        <time>2023-07-04T13:36:08.000Z</time>
      </trkpt>
      <trkpt lat="45.8301" lon="4.66989">
        <ele>358.00705</ele>
        <time>2023-07-04T13:36:09.000Z</time>
      </trkpt>
      <trkpt lat="45.8301" lon="4.66984">
        <ele>358.23111</ele>
        <time>2023-07-04T13:36:10.000Z</time>
      </trkpt>
      <trkpt lat="45.8301" lon="4.66978">
        <ele>358.34308</ele>
        <time>2023-07-04T13:36:11.000Z</time>
      </trkpt>
      <trkpt lat="45.8301" lon="4.66974">
        <ele>358.69992</ele>
        <time>2023-07-04T13:36:12.000Z</time>
      </trkpt>
      <trkpt lat="45.8301" lon="4.66969">
        <ele>359.0025</ele>
        <time>2023-07-04T13:36:13.000Z</time>
      </trkpt>
      <trkpt lat="45.83011" lon="4.66964">
        <ele>359.32861</ele>
        <time>2023-07-04T13:36:14.000Z</time>
      </trkpt>
      <trkpt lat="45.83011" lon="4.66958">
        <ele>359.67715</ele>
        <time>2023-07-04T13:36:15.000Z</time>
      </trkpt>
      <trkpt lat="45.83011" lon="4.66953">
        <ele>360.01398</ele>
        <time>2023-07-04T13:36:16.000Z</time>
      </trkpt>
      <trkpt lat="45.83011" lon="4.66948">
        <ele>360.31415</ele>
        <time>2023-07-04T13:36:17.000Z</time>
      </trkpt>
      <trkpt lat="45.8301" lon="4.66943">
        <ele>360.60248</ele>
        <time>2023-07-04T13:36:18.000Z</time>
      </trkpt>
      <trkpt lat="45.8301" lon="4.66938">
        <ele>360.70306</ele>
        <time>2023-07-04T13:36:19.000Z</time>
      </trkpt>
      <trkpt lat="45.8301" lon="4.66934">
        <ele>360.91141</ele>
        <time>2023-07-04T13:36:20.000Z</time>
      </trkpt>
      <trkpt lat="45.8301" lon="4.66929">
        <ele>361.00723</ele>
        <time>2023-07-04T13:36:21.000Z</time>
      </trkpt>
      <trkpt lat="45.83011" lon="4.66924">
        <ele>361.13751</ele>
        <time>2023-07-04T13:36:22.000Z</time>
      </trkpt>
      <trkpt lat="45.83011" lon="4.66919">
        <ele>361.26999</ele>
        <time>2023-07-04T13:36:23.000Z</time>
      </trkpt>
      <trkpt lat="45.83012" lon="4.66914">
        <ele>361.44272</ele>
        <time>2023-07-04T13:36:24.000Z</time>
      </trkpt>
      <trkpt lat="45.83012" lon="4.6691">
        <ele>361.62512</ele>
        <time>2023-07-04T13:36:25.000Z</time>
      </trkpt>
      <trkpt lat="45.83013" lon="4.66905">
        <ele>361.80994</ele>
        <time>2023-07-04T13:36:26.000Z</time>
      </trkpt>
      <trkpt lat="45.83013" lon="4.66901">
        <ele>361.99481</ele>
        <time>2023-07-04T13:36:27.000Z</time>
      </trkpt>
      <trkpt lat="45.83013" lon="4.66896">
        <ele>362.16473</ele>
        <time>2023-07-04T13:36:28.000Z</time>
      </trkpt>
      <trkpt lat="45.83014" lon="4.66892">
        <ele>362.32715</ele>
        <time>2023-07-04T13:36:29.000Z</time>
      </trkpt>
      <trkpt lat="45.83015" lon="4.66887">
        <ele>362.50626</ele>
        <time>2023-07-04T13:36:30.000Z</time>
      </trkpt>
      <trkpt lat="45.83015" lon="4.66883">
        <ele>362.68991</ele>
        <time>2023-07-04T13:36:31.000Z</time>
      </trkpt>
      <trkpt lat="45.83016" lon="4.66879">
        <ele>362.86285</ele>
        <time>2023-07-04T13:36:32.000Z</time>
      </trkpt>
      <trkpt lat="45.83016" lon="4.66874">
        <ele>363.03775</ele>
        <time>2023-07-04T13:36:33.000Z</time>
      </trkpt>
      <trkpt lat="45.83016" lon="4.6687">
        <ele>363.21381</ele>
        <time>2023-07-04T13:36:34.000Z</time>
      </trkpt>
      <trkpt lat="45.83016" lon="4.66866">
        <ele>363.38428</ele>
        <time>2023-07-04T13:36:35.000Z</time>
      </trkpt>
      <trkpt lat="45.83017" lon="4.66861">
        <ele>363.55551</ele>
        <time>2023-07-04T13:36:36.000Z</time>
      </trkpt>
      <trkpt lat="45.83017" lon="4.66857">
        <ele>363.72916</ele>
        <time>2023-07-04T13:36:37.000Z</time>
      </trkpt>
      <trkpt lat="45.83018" lon="4.66852">
        <ele>363.77676</ele>
        <time>2023-07-04T13:36:38.000Z</time>
      </trkpt>
      <trkpt lat="45.83019" lon="4.66848">
        <ele>363.95822</ele>
        <time>2023-07-04T13:36:39.000Z</time>
      </trkpt>
      <trkpt lat="45.8302" lon="4.66845">
        <ele>364.06964</ele>
        <time>2023-07-04T13:36:40.000Z</time>
      </trkpt>
      <trkpt lat="45.83022" lon="4.66843">
        <ele>364.12711</ele>
        <time>2023-07-04T13:36:41.000Z</time>
      </trkpt>
      <trkpt lat="45.83025" lon="4.66842">
        <ele>364.19312</ele>
        <time>2023-07-04T13:36:42.000Z</time>
      </trkpt>
      <trkpt lat="45.83029" lon="4.66842">
        <ele>364.24017</ele>
        <time>2023-07-04T13:36:43.000Z</time>
      </trkpt>
      <trkpt lat="45.83032" lon="4.66842">
        <ele>364.25397</ele>
        <time>2023-07-04T13:36:44.000Z</time>
      </trkpt>
      <trkpt lat="45.83036" lon="4.66843">
        <ele>364.2392</ele>
        <time>2023-07-04T13:36:45.000Z</time>
      </trkpt>
      <trkpt lat="45.8304" lon="4.66844">
        <ele>364.1777</ele>
        <time>2023-07-04T13:36:46.000Z</time>
      </trkpt>
      <trkpt lat="45.83044" lon="4.66845">
        <ele>364.10278</ele>
        <time>2023-07-04T13:36:47.000Z</time>
      </trkpt>
      <trkpt lat="45.83048" lon="4.66846">
        <ele>364.0307</ele>
        <time>2023-07-04T13:36:48.000Z</time>
      </trkpt>
      <trkpt lat="45.83053" lon="4.66847">
        <ele>363.95557</ele>
        <time>2023-07-04T13:36:49.000Z</time>
      </trkpt>
      <trkpt lat="45.83057" lon="4.66848">
        <ele>363.82944</ele>
        <time>2023-07-04T13:36:50.000Z</time>
      </trkpt>
      <trkpt lat="45.83062" lon="4.6685">
        <ele>363.66315</ele>
        <time>2023-07-04T13:36:51.000Z</time>
      </trkpt>
      <trkpt lat="45.83066" lon="4.66851">
        <ele>363.48871</ele>
        <time>2023-07-04T13:36:52.000Z</time>
      </trkpt>
      <trkpt lat="45.83071" lon="4.66852">
        <ele>363.30109</ele>
        <time>2023-07-04T13:36:53.000Z</time>
      </trkpt>
      <trkpt lat="45.83076" lon="4.66854">
        <ele>363.08502</ele>
        <time>2023-07-04T13:36:54.000Z</time>
      </trkpt>
      <trkpt lat="45.83081" lon="4.66857">
        <ele>362.86017</ele>
        <time>2023-07-04T13:36:55.000Z</time>
      </trkpt>
      <trkpt lat="45.83086" lon="4.66861">
        <ele>362.63474</ele>
        <time>2023-07-04T13:36:56.000Z</time>
      </trkpt>
      <trkpt lat="45.83091" lon="4.66864">
        <ele>362.39828</ele>
        <time>2023-07-04T13:36:57.000Z</time>
      </trkpt>
      <trkpt lat="45.83097" lon="4.66867">
        <ele>362.26422</ele>
        <time>2023-07-04T13:36:58.000Z</time>
      </trkpt>
      <trkpt lat="45.83102" lon="4.6687">
        <ele>362.14804</ele>
        <time>2023-07-04T13:36:59.000Z</time>
      </trkpt>
      <trkpt lat="45.83108" lon="4.66873">
        <ele>362.0585</ele>
        <time>2023-07-04T13:37:00.000Z</time>
      </trkpt>
      <trkpt lat="45.83113" lon="4.66877">
        <ele>361.9621</ele>
        <time>2023-07-04T13:37:01.000Z</time>
      </trkpt>
      <trkpt lat="45.83118" lon="4.66881">
        <ele>361.83578</ele>
        <time>2023-07-04T13:37:02.000Z</time>
      </trkpt>
      <trkpt lat="45.83124" lon="4.66885">
        <ele>361.70309</ele>
        <time>2023-07-04T13:37:03.000Z</time>
      </trkpt>
      <trkpt lat="45.83129" lon="4.66889">
        <ele>361.56281</ele>
        <time>2023-07-04T13:37:04.000Z</time>
      </trkpt>
      <trkpt lat="45.83135" lon="4.66893">
        <ele>361.4191</ele>
        <time>2023-07-04T13:37:05.000Z</time>
      </trkpt>
      <trkpt lat="45.83141" lon="4.66897">
        <ele>361.28888</ele>
        <time>2023-07-04T13:37:06.000Z</time>
      </trkpt>
      <trkpt lat="45.83147" lon="4.66901">
        <ele>361.15344</ele>
        <time>2023-07-04T13:37:07.000Z</time>
      </trkpt>
      <trkpt lat="45.83153" lon="4.66905">
        <ele>360.995</ele>
        <time>2023-07-04T13:37:08.000Z</time>
      </trkpt>
      <trkpt lat="45.83159" lon="4.66909">
        <ele>360.82504</ele>
        <time>2023-07-04T13:37:09.000Z</time>
      </trkpt>
      <trkpt lat="45.83166" lon="4.66912">
        <ele>360.66681</ele>
        <time>2023-07-04T13:37:10.000Z</time>
      </trkpt>
      <trkpt lat="45.83173" lon="4.66916">
        <ele>360.50043</ele>
        <time>2023-07-04T13:37:11.000Z</time>
      </trkpt>
      <trkpt lat="45.8318" lon="4.66919">
        <ele>360.35806</ele>
        <time>2023-07-04T13:37:12.000Z</time>
      </trkpt>
      <trkpt lat="45.83187" lon="4.66922">
        <ele>360.22247</ele>
        <time>2023-07-04T13:37:13.000Z</time>
      </trkpt>
      <trkpt lat="45.83194" lon="4.66927">
        <ele>360.07501</ele>
        <time>2023-07-04T13:37:14.000Z</time>
      </trkpt>
      <trkpt lat="45.83201" lon="4.6693">
        <ele>359.91965</ele>
        <time>2023-07-04T13:37:15.000Z</time>
      </trkpt>
      <trkpt lat="45.83208" lon="4.66934">
        <ele>359.76324</ele>
        <time>2023-07-04T13:37:16.000Z</time>
      </trkpt>
      <trkpt lat="45.83216" lon="4.66937">
        <ele>359.61395</ele>
        <time>2023-07-04T13:37:17.000Z</time>
      </trkpt>
      <trkpt lat="45.83223" lon="4.6694">
        <ele>359.45804</ele>
        <time>2023-07-04T13:37:18.000Z</time>
      </trkpt>
      <trkpt lat="45.83231" lon="4.66944">
        <ele>359.29761</ele>
        <time>2023-07-04T13:37:19.000Z</time>
      </trkpt>
      <trkpt lat="45.83237" lon="4.66947">
        <ele>359.12518</ele>
        <time>2023-07-04T13:37:20.000Z</time>
      </trkpt>
      <trkpt lat="45.83244" lon="4.66951">
        <ele>358.9939</ele>
        <time>2023-07-04T13:37:21.000Z</time>
      </trkpt>
      <trkpt lat="45.83251" lon="4.66954">
        <ele>358.8688</ele>
        <time>2023-07-04T13:37:22.000Z</time>
      </trkpt>
      <trkpt lat="45.83258" lon="4.66957">
        <ele>358.76712</ele>
        <time>2023-07-04T13:37:23.000Z</time>
      </trkpt>
      <trkpt lat="45.83266" lon="4.66961">
        <ele>358.6861</ele>
        <time>2023-07-04T13:37:24.000Z</time>
      </trkpt>
      <trkpt lat="45.83273" lon="4.66963">
        <ele>358.6217</ele>
        <time>2023-07-04T13:37:25.000Z</time>
      </trkpt>
      <trkpt lat="45.8328" lon="4.66965">
        <ele>358.56476</ele>
        <time>2023-07-04T13:37:26.000Z</time>
      </trkpt>
      <trkpt lat="45.83288" lon="4.66968">
        <ele>358.52603</ele>
        <time>2023-07-04T13:37:27.000Z</time>
      </trkpt>
      <trkpt lat="45.83295" lon="4.66969">
        <ele>358.49686</ele>
        <time>2023-07-04T13:37:28.000Z</time>
      </trkpt>
      <trkpt lat="45.83302" lon="4.6697">
        <ele>358.50473</ele>
        <time>2023-07-04T13:37:29.000Z</time>
      </trkpt>
      <trkpt lat="45.83309" lon="4.66971">
        <ele>358.50635</ele>
        <time>2023-07-04T13:37:30.000Z</time>
      </trkpt>
      <trkpt lat="45.83316" lon="4.66971">
        <ele>358.55234</ele>
        <time>2023-07-04T13:37:31.000Z</time>
      </trkpt>
      <trkpt lat="45.83323" lon="4.66972">
        <ele>358.59805</ele>
        <time>2023-07-04T13:37:32.000Z</time>
      </trkpt>
      <trkpt lat="45.83329" lon="4.66971">
        <ele>358.66183</ele>
        <time>2023-07-04T13:37:33.000Z</time>
      </trkpt>
      <trkpt lat="45.83335" lon="4.66971">
        <ele>358.76581</ele>
        <time>2023-07-04T13:37:34.000Z</time>
      </trkpt>
      <trkpt lat="45.83342" lon="4.66971">
        <ele>358.89487</ele>
        <time>2023-07-04T13:37:35.000Z</time>
      </trkpt>
      <trkpt lat="45.83348" lon="4.6697">
        <ele>359.01035</ele>
        <time>2023-07-04T13:37:36.000Z</time>
      </trkpt>
      <trkpt lat="45.83354" lon="4.6697">
        <ele>359.13086</ele>
        <time>2023-07-04T13:37:37.000Z</time>
      </trkpt>
      <trkpt lat="45.83359" lon="4.66969">
        <ele>359.24796</ele>
        <time>2023-07-04T13:37:38.000Z</time>
      </trkpt>
      <trkpt lat="45.83366" lon="4.6697">
        <ele>359.36963</ele>
        <time>2023-07-04T13:37:39.000Z</time>
      </trkpt>
      <trkpt lat="45.83373" lon="4.6697">
        <ele>359.4917</ele>
        <time>2023-07-04T13:37:40.000Z</time>
      </trkpt>
      <trkpt lat="45.83379" lon="4.66969">
        <ele>359.58749</ele>
        <time>2023-07-04T13:37:41.000Z</time>
      </trkpt>
      <trkpt lat="45.83385" lon="4.66968">
        <ele>359.68915</ele>
        <time>2023-07-04T13:37:42.000Z</time>
      </trkpt>
      <trkpt lat="45.83392" lon="4.66966">
        <ele>359.77118</ele>
        <time>2023-07-04T13:37:43.000Z</time>
      </trkpt>
      <trkpt lat="45.83398" lon="4.66964">
        <ele>359.83588</ele>
        <time>2023-07-04T13:37:44.000Z</time>
      </trkpt>
      <trkpt lat="45.83404" lon="4.66963">
        <ele>359.88727</ele>
        <time>2023-07-04T13:37:45.000Z</time>
      </trkpt>
      <trkpt lat="45.83411" lon="4.66962">
        <ele>359.91959</ele>
        <time>2023-07-04T13:37:46.000Z</time>
      </trkpt>
      <trkpt lat="45.83418" lon="4.66961">
        <ele>359.91061</ele>
        <time>2023-07-04T13:37:47.000Z</time>
      </trkpt>
      <trkpt lat="45.83425" lon="4.6696">
        <ele>359.90277</ele>
        <time>2023-07-04T13:37:48.000Z</time>
      </trkpt>
      <trkpt lat="45.83433" lon="4.66957">
        <ele>359.88135</ele>
        <time>2023-07-04T13:37:49.000Z</time>
      </trkpt>
      <trkpt lat="45.83441" lon="4.66956">
        <ele>359.82574</ele>
        <time>2023-07-04T13:37:50.000Z</time>
      </trkpt>
      <trkpt lat="45.83448" lon="4.66954">
        <ele>359.7504</ele>
        <time>2023-07-04T13:37:51.000Z</time>
      </trkpt>
      <trkpt lat="45.83456" lon="4.66954">
        <ele>359.63986</ele>
        <time>2023-07-04T13:37:52.000Z</time>
      </trkpt>
      <trkpt lat="45.83463" lon="4.66952">
        <ele>359.48459</ele>
        <time>2023-07-04T13:37:53.000Z</time>
      </trkpt>
      <trkpt lat="45.83471" lon="4.66951">
        <ele>359.27359</ele>
        <time>2023-07-04T13:37:54.000Z</time>
      </trkpt>
      <trkpt lat="45.83478" lon="4.6695">
        <ele>359.05359</ele>
        <time>2023-07-04T13:37:55.000Z</time>
      </trkpt>
      <trkpt lat="45.83486" lon="4.66949">
        <ele>358.85403</ele>
        <time>2023-07-04T13:37:56.000Z</time>
      </trkpt>
      <trkpt lat="45.83494" lon="4.66949">
        <ele>358.63812</ele>
        <time>2023-07-04T13:37:57.000Z</time>
      </trkpt>
      <trkpt lat="45.83502" lon="4.66949">
        <ele>358.43872</ele>
        <time>2023-07-04T13:37:58.000Z</time>
      </trkpt>
      <trkpt lat="45.8351" lon="4.66949">
        <ele>358.26837</ele>
        <time>2023-07-04T13:37:59.000Z</time>
      </trkpt>
      <trkpt lat="45.83518" lon="4.6695">
        <ele>358.09509</ele>
        <time>2023-07-04T13:38:00.000Z</time>
      </trkpt>
      <trkpt lat="45.83526" lon="4.6695">
        <ele>357.8797</ele>
        <time>2023-07-04T13:38:01.000Z</time>
      </trkpt>
      <trkpt lat="45.83534" lon="4.66951">
        <ele>357.64752</ele>
        <time>2023-07-04T13:38:02.000Z</time>
      </trkpt>
      <trkpt lat="45.83543" lon="4.66952">
        <ele>357.42279</ele>
        <time>2023-07-04T13:38:03.000Z</time>
      </trkpt>
      <trkpt lat="45.83551" lon="4.66953">
        <ele>357.19135</ele>
        <time>2023-07-04T13:38:04.000Z</time>
      </trkpt>
      <trkpt lat="45.83559" lon="4.66953">
        <ele>356.94547</ele>
        <time>2023-07-04T13:38:05.000Z</time>
      </trkpt>
      <trkpt lat="45.83568" lon="4.66955">
        <ele>356.68723</ele>
        <time>2023-07-04T13:38:06.000Z</time>
      </trkpt>
      <trkpt lat="45.83576" lon="4.66956">
        <ele>356.40411</ele>
        <time>2023-07-04T13:38:07.000Z</time>
      </trkpt>
      <trkpt lat="45.83584" lon="4.66957">
        <ele>356.09546</ele>
        <time>2023-07-04T13:38:08.000Z</time>
      </trkpt>
      <trkpt lat="45.83593" lon="4.66957">
        <ele>355.76968</ele>
        <time>2023-07-04T13:38:09.000Z</time>
      </trkpt>
      <trkpt lat="45.83602" lon="4.66959">
        <ele>355.45563</ele>
        <time>2023-07-04T13:38:10.000Z</time>
      </trkpt>
      <trkpt lat="45.83611" lon="4.66959">
        <ele>355.13129</ele>
        <time>2023-07-04T13:38:11.000Z</time>
      </trkpt>
      <trkpt lat="45.8362" lon="4.6696">
        <ele>354.80841</ele>
        <time>2023-07-04T13:38:12.000Z</time>
      </trkpt>
      <trkpt lat="45.83628" lon="4.66962">
        <ele>354.4801</ele>
        <time>2023-07-04T13:38:13.000Z</time>
      </trkpt>
      <trkpt lat="45.83637" lon="4.66964">
        <ele>354.18387</ele>
        <time>2023-07-04T13:38:14.000Z</time>
      </trkpt>
      <trkpt lat="45.83646" lon="4.66966">
        <ele>354.20358</ele>
        <time>2023-07-04T13:38:15.000Z</time>
      </trkpt>
      <trkpt lat="45.83655" lon="4.66967">
        <ele>354.26297</ele>
        <time>2023-07-04T13:38:16.000Z</time>
      </trkpt>
      <trkpt lat="45.83664" lon="4.6697">
        <ele>354.05963</ele>
        <time>2023-07-04T13:38:17.000Z</time>
      </trkpt>
      <trkpt lat="45.83673" lon="4.66972">
        <ele>353.87201</ele>
        <time>2023-07-04T13:38:18.000Z</time>
      </trkpt>
      <trkpt lat="45.83682" lon="4.66974">
        <ele>353.63287</ele>
        <time>2023-07-04T13:38:19.000Z</time>
      </trkpt>
      <trkpt lat="45.83691" lon="4.66976">
        <ele>353.39957</ele>
        <time>2023-07-04T13:38:20.000Z</time>
      </trkpt>
      <trkpt lat="45.83701" lon="4.66977">
        <ele>353.1535</ele>
        <time>2023-07-04T13:38:21.000Z</time>
      </trkpt>
      <trkpt lat="45.8371" lon="4.66978">
        <ele>352.90649</ele>
        <time>2023-07-04T13:38:22.000Z</time>
      </trkpt>
      <trkpt lat="45.83719" lon="4.66979">
        <ele>352.64136</ele>
        <time>2023-07-04T13:38:23.000Z</time>
      </trkpt>
      <trkpt lat="45.83729" lon="4.66981">
        <ele>352.38232</ele>
        <time>2023-07-04T13:38:24.000Z</time>
      </trkpt>
      <trkpt lat="45.83738" lon="4.66982">
        <ele>352.11115</ele>
        <time>2023-07-04T13:38:25.000Z</time>
      </trkpt>
      <trkpt lat="45.83748" lon="4.66982">
        <ele>351.84354</ele>
        <time>2023-07-04T13:38:26.000Z</time>
      </trkpt>
      <trkpt lat="45.83758" lon="4.66982">
        <ele>351.59854</ele>
        <time>2023-07-04T13:38:27.000Z</time>
      </trkpt>
      <trkpt lat="45.83768" lon="4.66984">
        <ele>351.39362</ele>
        <time>2023-07-04T13:38:28.000Z</time>
      </trkpt>
      <trkpt lat="45.83779" lon="4.66984">
        <ele>351.1972</ele>
        <time>2023-07-04T13:38:29.000Z</time>
      </trkpt>
      <trkpt lat="45.83788" lon="4.66984">
        <ele>351.0058</ele>
        <time>2023-07-04T13:38:30.000Z</time>
      </trkpt>
      <trkpt lat="45.83799" lon="4.66985">
        <ele>350.97617</ele>
        <time>2023-07-04T13:38:31.000Z</time>
      </trkpt>
      <trkpt lat="45.83809" lon="4.66985">
        <ele>351.01099</ele>
        <time>2023-07-04T13:38:32.000Z</time>
      </trkpt>
      <trkpt lat="45.83818" lon="4.66986">
        <ele>351.06354</ele>
        <time>2023-07-04T13:38:33.000Z</time>
      </trkpt>
      <trkpt lat="45.83828" lon="4.66986">
        <ele>351.20483</ele>
        <time>2023-07-04T13:38:34.000Z</time>
      </trkpt>
      <trkpt lat="45.83838" lon="4.66988">
        <ele>350.67975</ele>
        <time>2023-07-04T13:38:35.000Z</time>
      </trkpt>
      <trkpt lat="45.83848" lon="4.6699">
        <ele>350.17053</ele>
        <time>2023-07-04T13:38:36.000Z</time>
      </trkpt>
      <trkpt lat="45.83857" lon="4.66993">
        <ele>349.92169</ele>
        <time>2023-07-04T13:38:37.000Z</time>
      </trkpt>
      <trkpt lat="45.83867" lon="4.66995">
        <ele>349.61121</ele>
        <time>2023-07-04T13:38:38.000Z</time>
      </trkpt>
      <trkpt lat="45.83876" lon="4.66997">
        <ele>349.29968</ele>
        <time>2023-07-04T13:38:39.000Z</time>
      </trkpt>
      <trkpt lat="45.83885" lon="4.67">
        <ele>348.96732</ele>
        <time>2023-07-04T13:38:40.000Z</time>
      </trkpt>
      <trkpt lat="45.83895" lon="4.67004">
        <ele>348.67624</ele>
        <time>2023-07-04T13:38:41.000Z</time>
      </trkpt>
      <trkpt lat="45.83903" lon="4.67007">
        <ele>348.38043</ele>
        <time>2023-07-04T13:38:42.000Z</time>
      </trkpt>
      <trkpt lat="45.83911" lon="4.6701">
        <ele>348.08945</ele>
        <time>2023-07-04T13:38:43.000Z</time>
      </trkpt>
      <trkpt lat="45.83919" lon="4.67012">
        <ele>347.77887</ele>
        <time>2023-07-04T13:38:44.000Z</time>
      </trkpt>
      <trkpt lat="45.83924" lon="4.67009">
        <ele>347.66534</ele>
        <time>2023-07-04T13:38:45.000Z</time>
      </trkpt>
      <trkpt lat="45.83927" lon="4.67004">
        <ele>347.56586</ele>
        <time>2023-07-04T13:38:46.000Z</time>
      </trkpt>
      <trkpt lat="45.8393" lon="4.66999">
        <ele>347.48367</ele>
        <time>2023-07-04T13:38:47.000Z</time>
      </trkpt>
      <trkpt lat="45.83931" lon="4.66993">
        <ele>347.38458</ele>
        <time>2023-07-04T13:38:48.000Z</time>
      </trkpt>
      <trkpt lat="45.83931" lon="4.66988">
        <ele>347.15967</ele>
        <time>2023-07-04T13:38:49.000Z</time>
      </trkpt>
      <trkpt lat="45.83931" lon="4.66983">
        <ele>347.04004</ele>
        <time>2023-07-04T13:38:50.000Z</time>
      </trkpt>
      <trkpt lat="45.83931" lon="4.66979">
        <ele>346.51395</ele>
        <time>2023-07-04T13:38:51.000Z</time>
      </trkpt>
      <trkpt lat="45.8393" lon="4.66977">
        <ele>346.14105</ele>
        <time>2023-07-04T13:38:56.000Z</time>
      </trkpt>
      <trkpt lat="45.83932" lon="4.66976">
        <ele>345.74927</ele>
        <time>2023-07-04T13:39:13.000Z</time>
      </trkpt>
      <trkpt lat="45.8393" lon="4.66974">
        <ele>345.29153</ele>
        <time>2023-07-04T13:39:58.000Z</time>
      </trkpt>
      <trkpt lat="45.83929" lon="4.6697">
        <ele>345.1796</ele>
        <time>2023-07-04T13:40:00.000Z</time>
      </trkpt>
      <trkpt lat="45.83928" lon="4.66966">
        <ele>344.99664</ele>
        <time>2023-07-04T13:40:01.000Z</time>
      </trkpt>
      <trkpt lat="45.83929" lon="4.66962">
        <ele>344.84186</ele>
        <time>2023-07-04T13:40:02.000Z</time>
      </trkpt>
      <trkpt lat="45.83929" lon="4.66958">
        <ele>344.75668</ele>
        <time>2023-07-04T13:40:03.000Z</time>
      </trkpt>
      <trkpt lat="45.83929" lon="4.66954">
        <ele>344.67972</ele>
        <time>2023-07-04T13:40:04.000Z</time>
      </trkpt>
      <trkpt lat="45.83929" lon="4.6695">
        <ele>344.63916</ele>
        <time>2023-07-04T13:40:05.000Z</time>
      </trkpt>
      <trkpt lat="45.83928" lon="4.66946">
        <ele>344.57153</ele>
        <time>2023-07-04T13:40:06.000Z</time>
      </trkpt>
      <trkpt lat="45.83927" lon="4.66942">
        <ele>344.48334</ele>
        <time>2023-07-04T13:40:07.000Z</time>
      </trkpt>
      <trkpt lat="45.83926" lon="4.66937">
        <ele>344.42651</ele>
        <time>2023-07-04T13:40:08.000Z</time>
      </trkpt>
      <trkpt lat="45.83925" lon="4.66932">
        <ele>344.38715</ele>
        <time>2023-07-04T13:40:09.000Z</time>
      </trkpt>
      <trkpt lat="45.83925" lon="4.66928">
        <ele>344.19107</ele>
        <time>2023-07-04T13:40:10.000Z</time>
      </trkpt>
      <trkpt lat="45.83924" lon="4.66922">
        <ele>344.03543</ele>
        <time>2023-07-04T13:40:11.000Z</time>
      </trkpt>
      <trkpt lat="45.83924" lon="4.66917">
        <ele>343.9035</ele>
        <time>2023-07-04T13:40:12.000Z</time>
      </trkpt>
      <trkpt lat="45.83923" lon="4.66911">
        <ele>343.77252</ele>
        <time>2023-07-04T13:40:13.000Z</time>
      </trkpt>
      <trkpt lat="45.83923" lon="4.66906">
        <ele>343.73734</ele>
        <time>2023-07-04T13:40:14.000Z</time>
      </trkpt>
      <trkpt lat="45.83922" lon="4.669">
        <ele>343.59576</ele>
        <time>2023-07-04T13:40:15.000Z</time>
      </trkpt>
      <trkpt lat="45.83921" lon="4.66893">
        <ele>343.71942</ele>
        <time>2023-07-04T13:40:16.000Z</time>
      </trkpt>
      <trkpt lat="45.8392" lon="4.66887">
        <ele>343.47296</ele>
        <time>2023-07-04T13:40:17.000Z</time>
      </trkpt>
      <trkpt lat="45.83919" lon="4.6688">
        <ele>343.25751</ele>
        <time>2023-07-04T13:40:18.000Z</time>
      </trkpt>
      <trkpt lat="45.83918" lon="4.66873">
        <ele>343.0365</ele>
        <time>2023-07-04T13:40:19.000Z</time>
      </trkpt>
      <trkpt lat="45.83918" lon="4.66866">
        <ele>342.80933</ele>
        <time>2023-07-04T13:40:20.000Z</time>
      </trkpt>
      <trkpt lat="45.83917" lon="4.66858">
        <ele>342.58124</ele>
        <time>2023-07-04T13:40:21.000Z</time>
      </trkpt>
      <trkpt lat="45.83916" lon="4.66851">
        <ele>342.32288</ele>
        <time>2023-07-04T13:40:22.000Z</time>
      </trkpt>
      <trkpt lat="45.83915" lon="4.66842">
        <ele>342.03647</ele>
        <time>2023-07-04T13:40:23.000Z</time>
      </trkpt>
      <trkpt lat="45.83914" lon="4.66833">
        <ele>341.76709</ele>
        <time>2023-07-04T13:40:24.000Z</time>
      </trkpt>
      <trkpt lat="45.83912" lon="4.66824">
        <ele>341.58209</ele>
        <time>2023-07-04T13:40:25.000Z</time>
      </trkpt>
      <trkpt lat="45.83912" lon="4.66814">
        <ele>341.4704</ele>
        <time>2023-07-04T13:40:26.000Z</time>
      </trkpt>
      <trkpt lat="45.83911" lon="4.66804">
        <ele>341.41223</ele>
        <time>2023-07-04T13:40:27.000Z</time>
      </trkpt>
      <trkpt lat="45.83909" lon="4.66792">
        <ele>341.02747</ele>
        <time>2023-07-04T13:40:28.000Z</time>
      </trkpt>
      <trkpt lat="45.83907" lon="4.6678">
        <ele>340.65143</ele>
        <time>2023-07-04T13:40:29.000Z</time>
      </trkpt>
      <trkpt lat="45.83904" lon="4.66767">
        <ele>340.21548</ele>
        <time>2023-07-04T13:40:30.000Z</time>
      </trkpt>
      <trkpt lat="45.83901" lon="4.66752">
        <ele>339.69843</ele>
        <time>2023-07-04T13:40:31.000Z</time>
      </trkpt>
      <trkpt lat="45.83897" lon="4.6674">
        <ele>339.11127</ele>
        <time>2023-07-04T13:40:32.000Z</time>
      </trkpt>
      <trkpt lat="45.83891" lon="4.66727">
        <ele>338.47079</ele>
        <time>2023-07-04T13:40:33.000Z</time>
      </trkpt>
      <trkpt lat="45.83883" lon="4.66714">
        <ele>337.81802</ele>
        <time>2023-07-04T13:40:34.000Z</time>
      </trkpt>
      <trkpt lat="45.83875" lon="4.66704">
        <ele>337.15665</ele>
        <time>2023-07-04T13:40:35.000Z</time>
      </trkpt>
      <trkpt lat="45.83865" lon="4.66695">
        <ele>336.43335</ele>
        <time>2023-07-04T13:40:36.000Z</time>
      </trkpt>
      <trkpt lat="45.83854" lon="4.66686">
        <ele>335.83417</ele>
        <time>2023-07-04T13:40:37.000Z</time>
      </trkpt>
      <trkpt lat="45.83843" lon="4.66676">
        <ele>335.18665</ele>
        <time>2023-07-04T13:40:38.000Z</time>
      </trkpt>
      <trkpt lat="45.83832" lon="4.66667">
        <ele>334.45648</ele>
        <time>2023-07-04T13:40:39.000Z</time>
      </trkpt>
      <trkpt lat="45.83821" lon="4.66657">
        <ele>333.68765</ele>
        <time>2023-07-04T13:40:40.000Z</time>
      </trkpt>
      <trkpt lat="45.83811" lon="4.66649">
        <ele>332.85211</ele>
        <time>2023-07-04T13:40:41.000Z</time>
      </trkpt>
      <trkpt lat="45.83801" lon="4.6664">
        <ele>331.9841</ele>
        <time>2023-07-04T13:40:42.000Z</time>
      </trkpt>
      <trkpt lat="45.83792" lon="4.66633">
        <ele>331.07684</ele>
        <time>2023-07-04T13:40:43.000Z</time>
      </trkpt>
      <trkpt lat="45.83785" lon="4.66627">
        <ele>330.10898</ele>
        <time>2023-07-04T13:40:44.000Z</time>
      </trkpt>
      <trkpt lat="45.83779" lon="4.66623">
        <ele>329.58234</ele>
        <time>2023-07-04T13:40:45.000Z</time>
      </trkpt>
      <trkpt lat="45.83774" lon="4.66619">
        <ele>328.57919</ele>
        <time>2023-07-04T13:40:46.000Z</time>
      </trkpt>
      <trkpt lat="45.83773" lon="4.66616">
        <ele>327.5787</ele>
        <time>2023-07-04T13:40:47.000Z</time>
      </trkpt>
      <trkpt lat="45.83772" lon="4.66614">
        <ele>327.07343</ele>
        <time>2023-07-04T13:40:48.000Z</time>
      </trkpt>
      <trkpt lat="45.83773" lon="4.66611">
        <ele>326.70212</ele>
        <time>2023-07-04T13:40:50.000Z</time>
      </trkpt>
      <trkpt lat="45.83775" lon="4.66609">
        <ele>326.50897</ele>
        <time>2023-07-04T13:40:55.000Z</time>
      </trkpt>
      <trkpt lat="45.83776" lon="4.66606">
        <ele>326.34216</ele>
        <time>2023-07-04T13:40:56.000Z</time>
      </trkpt>
      <trkpt lat="45.83777" lon="4.66602">
        <ele>326.25961</ele>
        <time>2023-07-04T13:40:57.000Z</time>
      </trkpt>
      <trkpt lat="45.83779" lon="4.66597">
        <ele>326.12616</ele>
        <time>2023-07-04T13:40:58.000Z</time>
      </trkpt>
      <trkpt lat="45.83782" lon="4.66593">
        <ele>326.00568</ele>
        <time>2023-07-04T13:40:59.000Z</time>
      </trkpt>
      <trkpt lat="45.83787" lon="4.66589">
        <ele>325.78864</ele>
        <time>2023-07-04T13:41:00.000Z</time>
      </trkpt>
      <trkpt lat="45.83794" lon="4.66585">
        <ele>325.51752</ele>
        <time>2023-07-04T13:41:01.000Z</time>
      </trkpt>
      <trkpt lat="45.83801" lon="4.66581">
        <ele>325.29599</ele>
        <time>2023-07-04T13:41:02.000Z</time>
      </trkpt>
      <trkpt lat="45.83809" lon="4.66578">
        <ele>325.40698</ele>
        <time>2023-07-04T13:41:03.000Z</time>
      </trkpt>
      <trkpt lat="45.83817" lon="4.66575">
        <ele>325.62177</ele>
        <time>2023-07-04T13:41:04.000Z</time>
      </trkpt>
      <trkpt lat="45.83826" lon="4.66572">
        <ele>325.9245</ele>
        <time>2023-07-04T13:41:05.000Z</time>
      </trkpt>
      <trkpt lat="45.83835" lon="4.66571">
        <ele>326.27509</ele>
        <time>2023-07-04T13:41:06.000Z</time>
      </trkpt>
      <trkpt lat="45.83842" lon="4.66568">
        <ele>326.94336</ele>
        <time>2023-07-04T13:41:07.000Z</time>
      </trkpt>
      <trkpt lat="45.83849" lon="4.66566">
        <ele>328.16251</ele>
        <time>2023-07-04T13:41:08.000Z</time>
      </trkpt>
      <trkpt lat="45.83854" lon="4.66563">
        <ele>329.41568</ele>
        <time>2023-07-04T13:41:09.000Z</time>
      </trkpt>
      <trkpt lat="45.8386" lon="4.66559">
        <ele>330.54681</ele>
        <time>2023-07-04T13:41:10.000Z</time>
      </trkpt>
      <trkpt lat="45.83862" lon="4.66552">
        <ele>331.17422</ele>
        <time>2023-07-04T13:41:11.000Z</time>
      </trkpt>
      <trkpt lat="45.83865" lon="4.66547">
        <ele>331.86475</ele>
        <time>2023-07-04T13:41:12.000Z</time>
      </trkpt>
      <trkpt lat="45.83868" lon="4.66543">
        <ele>332.24432</ele>
        <time>2023-07-04T13:41:13.000Z</time>
      </trkpt>
      <trkpt lat="45.8387" lon="4.66539">
        <ele>332.21075</ele>
        <time>2023-07-04T13:41:14.000Z</time>
      </trkpt>
      <trkpt lat="45.83871" lon="4.66536">
        <ele>331.84088</ele>
        <time>2023-07-04T13:41:15.000Z</time>
      </trkpt>
      <trkpt lat="45.83873" lon="4.66532">
        <ele>331.47202</ele>
        <time>2023-07-04T13:41:16.000Z</time>
      </trkpt>
      <trkpt lat="45.83875" lon="4.66529">
        <ele>330.93719</ele>
        <time>2023-07-04T13:41:17.000Z</time>
      </trkpt>
      <trkpt lat="45.83876" lon="4.66526">
        <ele>330.58051</ele>
        <time>2023-07-04T13:41:18.000Z</time>
      </trkpt>
      <trkpt lat="45.83878" lon="4.66523">
        <ele>330.15189</ele>
        <time>2023-07-04T13:41:19.000Z</time>
      </trkpt>
      <trkpt lat="45.83879" lon="4.6652">
        <ele>329.85583</ele>
        <time>2023-07-04T13:41:20.000Z</time>
      </trkpt>
      <trkpt lat="45.83881" lon="4.66517">
        <ele>329.66119</ele>
        <time>2023-07-04T13:41:21.000Z</time>
      </trkpt>
      <trkpt lat="45.83884" lon="4.66514">
        <ele>329.52774</ele>
        <time>2023-07-04T13:41:22.000Z</time>
      </trkpt>
      <trkpt lat="45.83886" lon="4.66512">
        <ele>329.22821</ele>
        <time>2023-07-04T13:41:23.000Z</time>
      </trkpt>
      <trkpt lat="45.83889" lon="4.6651">
        <ele>328.82639</ele>
        <time>2023-07-04T13:41:24.000Z</time>
      </trkpt>
      <trkpt lat="45.83892" lon="4.66508">
        <ele>328.45236</ele>
        <time>2023-07-04T13:41:25.000Z</time>
      </trkpt>
      <trkpt lat="45.83895" lon="4.66507">
        <ele>328.17499</ele>
        <time>2023-07-04T13:41:26.000Z</time>
      </trkpt>
      <trkpt lat="45.83899" lon="4.66506">
        <ele>327.58224</ele>
        <time>2023-07-04T13:41:27.000Z</time>
      </trkpt>
      <trkpt lat="45.83903" lon="4.66507">
        <ele>326.61688</ele>
        <time>2023-07-04T13:41:28.000Z</time>
      </trkpt>
      <trkpt lat="45.83906" lon="4.66506">
        <ele>325.67987</ele>
        <time>2023-07-04T13:41:29.000Z</time>
      </trkpt>
      <trkpt lat="45.8391" lon="4.66505">
        <ele>324.41083</ele>
        <time>2023-07-04T13:41:30.000Z</time>
      </trkpt>
      <trkpt lat="45.83913" lon="4.66505">
        <ele>324.16058</ele>
        <time>2023-07-04T13:41:31.000Z</time>
      </trkpt>
      <trkpt lat="45.83917" lon="4.66504">
        <ele>323.76859</ele>
        <time>2023-07-04T13:41:32.000Z</time>
      </trkpt>
      <trkpt lat="45.83921" lon="4.66504">
        <ele>323.50861</ele>
        <time>2023-07-04T13:41:33.000Z</time>
      </trkpt>
      <trkpt lat="45.83925" lon="4.66504">
        <ele>323.68512</ele>
        <time>2023-07-04T13:41:34.000Z</time>
      </trkpt>
      <trkpt lat="45.83927" lon="4.66504">
        <ele>324.23468</ele>
        <time>2023-07-04T13:41:35.000Z</time>
      </trkpt>
      <trkpt lat="45.83931" lon="4.66504">
        <ele>324.83551</ele>
        <time>2023-07-04T13:41:36.000Z</time>
      </trkpt>
      <trkpt lat="45.83935" lon="4.66504">
        <ele>325.70801</ele>
        <time>2023-07-04T13:41:37.000Z</time>
      </trkpt>
      <trkpt lat="45.83939" lon="4.66502">
        <ele>326.7345</ele>
        <time>2023-07-04T13:41:38.000Z</time>
      </trkpt>
      <trkpt lat="45.83945" lon="4.66499">
        <ele>327.34109</ele>
        <time>2023-07-04T13:41:39.000Z</time>
      </trkpt>
      <trkpt lat="45.83949" lon="4.66497">
        <ele>328.2168</ele>
        <time>2023-07-04T13:41:40.000Z</time>
      </trkpt>
      <trkpt lat="45.83953" lon="4.66496">
        <ele>328.99631</ele>
        <time>2023-07-04T13:41:41.000Z</time>
      </trkpt>
      <trkpt lat="45.83956" lon="4.66496">
        <ele>329.77997</ele>
        <time>2023-07-04T13:41:42.000Z</time>
      </trkpt>
      <trkpt lat="45.83959" lon="4.66493">
        <ele>330.30988</ele>
        <time>2023-07-04T13:41:43.000Z</time>
      </trkpt>
      <trkpt lat="45.83963" lon="4.66491">
        <ele>330.92889</ele>
        <time>2023-07-04T13:41:44.000Z</time>
      </trkpt>
      <trkpt lat="45.83967" lon="4.66488">
        <ele>331.58405</ele>
        <time>2023-07-04T13:41:45.000Z</time>
      </trkpt>
      <trkpt lat="45.8397" lon="4.66486">
        <ele>332.01627</ele>
        <time>2023-07-04T13:41:46.000Z</time>
      </trkpt>
      <trkpt lat="45.83974" lon="4.66484">
        <ele>332.40872</ele>
        <time>2023-07-04T13:41:47.000Z</time>
      </trkpt>
      <trkpt lat="45.83977" lon="4.66481">
        <ele>332.62701</ele>
        <time>2023-07-04T13:41:48.000Z</time>
      </trkpt>
      <trkpt lat="45.8398" lon="4.66478">
        <ele>332.77295</ele>
        <time>2023-07-04T13:41:49.000Z</time>
      </trkpt>
      <trkpt lat="45.83984" lon="4.66475">
        <ele>332.74646</ele>
        <time>2023-07-04T13:41:50.000Z</time>
      </trkpt>
      <trkpt lat="45.83988" lon="4.66472">
        <ele>332.65903</ele>
        <time>2023-07-04T13:41:51.000Z</time>
      </trkpt>
      <trkpt lat="45.83991" lon="4.66469">
        <ele>332.5296</ele>
        <time>2023-07-04T13:41:52.000Z</time>
      </trkpt>
      <trkpt lat="45.83995" lon="4.66466">
        <ele>332.45135</ele>
        <time>2023-07-04T13:41:53.000Z</time>
      </trkpt>
      <trkpt lat="45.83998" lon="4.66463">
        <ele>332.2728</ele>
        <time>2023-07-04T13:41:54.000Z</time>
      </trkpt>
      <trkpt lat="45.84001" lon="4.66458">
        <ele>331.9505</ele>
        <time>2023-07-04T13:41:55.000Z</time>
      </trkpt>
      <trkpt lat="45.84003" lon="4.66454">
        <ele>331.56622</ele>
        <time>2023-07-04T13:41:56.000Z</time>
      </trkpt>
      <trkpt lat="45.84004" lon="4.66448">
        <ele>331.04025</ele>
        <time>2023-07-04T13:41:57.000Z</time>
      </trkpt>
      <trkpt lat="45.84004" lon="4.66443">
        <ele>330.22275</ele>
        <time>2023-07-04T13:41:58.000Z</time>
      </trkpt>
      <trkpt lat="45.84003" lon="4.66438">
        <ele>329.93124</ele>
        <time>2023-07-04T13:41:59.000Z</time>
      </trkpt>
      <trkpt lat="45.84002" lon="4.66433">
        <ele>329.55396</ele>
        <time>2023-07-04T13:42:00.000Z</time>
      </trkpt>
      <trkpt lat="45.84" lon="4.66429">
        <ele>329.27399</ele>
        <time>2023-07-04T13:42:01.000Z</time>
      </trkpt>
      <trkpt lat="45.83999" lon="4.66424">
        <ele>328.99139</ele>
        <time>2023-07-04T13:42:02.000Z</time>
      </trkpt>
      <trkpt lat="45.83997" lon="4.6642">
        <ele>328.80579</ele>
        <time>2023-07-04T13:42:03.000Z</time>
      </trkpt>
      <trkpt lat="45.83996" lon="4.66414">
        <ele>328.51947</ele>
        <time>2023-07-04T13:42:04.000Z</time>
      </trkpt>
      <trkpt lat="45.83995" lon="4.66409">
        <ele>328.21588</ele>
        <time>2023-07-04T13:42:05.000Z</time>
      </trkpt>
      <trkpt lat="45.83994" lon="4.66404">
        <ele>328.09668</ele>
        <time>2023-07-04T13:42:06.000Z</time>
      </trkpt>
      <trkpt lat="45.83994" lon="4.66399">
        <ele>328.60541</ele>
        <time>2023-07-04T13:42:07.000Z</time>
      </trkpt>
      <trkpt lat="45.83994" lon="4.66393">
        <ele>329.23151</ele>
        <time>2023-07-04T13:42:08.000Z</time>
      </trkpt>
      <trkpt lat="45.83994" lon="4.66387">
        <ele>329.40747</ele>
        <time>2023-07-04T13:42:09.000Z</time>
      </trkpt>
      <trkpt lat="45.83994" lon="4.66381">
        <ele>329.80289</ele>
        <time>2023-07-04T13:42:10.000Z</time>
      </trkpt>
      <trkpt lat="45.83994" lon="4.66376">
        <ele>330.23804</ele>
        <time>2023-07-04T13:42:11.000Z</time>
      </trkpt>
      <trkpt lat="45.83995" lon="4.6637">
        <ele>330.79663</ele>
        <time>2023-07-04T13:42:12.000Z</time>
      </trkpt>
      <trkpt lat="45.83995" lon="4.66364">
        <ele>331.43402</ele>
        <time>2023-07-04T13:42:13.000Z</time>
      </trkpt>
      <trkpt lat="45.83996" lon="4.66358">
        <ele>332.03885</ele>
        <time>2023-07-04T13:42:14.000Z</time>
      </trkpt>
      <trkpt lat="45.83997" lon="4.66353">
        <ele>332.35675</ele>
        <time>2023-07-04T13:42:15.000Z</time>
      </trkpt>
      <trkpt lat="45.83998" lon="4.66348">
        <ele>332.66339</ele>
        <time>2023-07-04T13:42:16.000Z</time>
      </trkpt>
      <trkpt lat="45.83999" lon="4.66342">
        <ele>332.94025</ele>
        <time>2023-07-04T13:42:17.000Z</time>
      </trkpt>
      <trkpt lat="45.84" lon="4.66337">
        <ele>333.29742</ele>
        <time>2023-07-04T13:42:18.000Z</time>
      </trkpt>
      <trkpt lat="45.84001" lon="4.66331">
        <ele>333.62372</ele>
        <time>2023-07-04T13:42:19.000Z</time>
      </trkpt>
      <trkpt lat="45.84001" lon="4.66325">
        <ele>333.77441</ele>
        <time>2023-07-04T13:42:20.000Z</time>
      </trkpt>
      <trkpt lat="45.84002" lon="4.6632">
        <ele>333.98544</ele>
        <time>2023-07-04T13:42:21.000Z</time>
      </trkpt>
      <trkpt lat="45.84003" lon="4.66314">
        <ele>334.09015</ele>
        <time>2023-07-04T13:42:22.000Z</time>
      </trkpt>
      <trkpt lat="45.84003" lon="4.66309">
        <ele>334.17328</ele>
        <time>2023-07-04T13:42:23.000Z</time>
      </trkpt>
      <trkpt lat="45.84004" lon="4.66304">
        <ele>334.33551</ele>
        <time>2023-07-04T13:42:24.000Z</time>
      </trkpt>
      <trkpt lat="45.84004" lon="4.66298">
        <ele>333.72858</ele>
        <time>2023-07-04T13:42:25.000Z</time>
      </trkpt>
      <trkpt lat="45.84005" lon="4.66293">
        <ele>333.10504</ele>
        <time>2023-07-04T13:42:26.000Z</time>
      </trkpt>
      <trkpt lat="45.84005" lon="4.66287">
        <ele>332.61557</ele>
        <time>2023-07-04T13:42:27.000Z</time>
      </trkpt>
      <trkpt lat="45.84005" lon="4.66281">
        <ele>332.17508</ele>
        <time>2023-07-04T13:42:28.000Z</time>
      </trkpt>
      <trkpt lat="45.84004" lon="4.66274">
        <ele>332.26373</ele>
        <time>2023-07-04T13:42:29.000Z</time>
      </trkpt>
      <trkpt lat="45.84002" lon="4.6627">
        <ele>332.09238</ele>
        <time>2023-07-04T13:42:30.000Z</time>
      </trkpt>
      <trkpt lat="45.84" lon="4.66265">
        <ele>331.96246</ele>
        <time>2023-07-04T13:42:31.000Z</time>
      </trkpt>
      <trkpt lat="45.83998" lon="4.66264">
        <ele>331.84872</ele>
        <time>2023-07-04T13:42:32.000Z</time>
      </trkpt>
      <trkpt lat="45.83996" lon="4.66262">
        <ele>331.61041</ele>
        <time>2023-07-04T13:42:33.000Z</time>
      </trkpt>
      <trkpt lat="45.83994" lon="4.66259">
        <ele>331.32666</ele>
        <time>2023-07-04T13:42:34.000Z</time>
      </trkpt>
      <trkpt lat="45.83992" lon="4.66256">
        <ele>331.30414</ele>
        <time>2023-07-04T13:42:35.000Z</time>
      </trkpt>
      <trkpt lat="45.8399" lon="4.66253">
        <ele>331.34097</ele>
        <time>2023-07-04T13:42:36.000Z</time>
      </trkpt>
      <trkpt lat="45.83989" lon="4.6625">
        <ele>331.42804</ele>
        <time>2023-07-04T13:42:37.000Z</time>
      </trkpt>
      <trkpt lat="45.83987" lon="4.66247">
        <ele>331.52707</ele>
        <time>2023-07-04T13:42:38.000Z</time>
      </trkpt>
      <trkpt lat="45.83986" lon="4.66245">
        <ele>331.67206</ele>
        <time>2023-07-04T13:42:39.000Z</time>
      </trkpt>
      <trkpt lat="45.83986" lon="4.66242">
        <ele>331.52338</ele>
        <time>2023-07-04T13:42:46.000Z</time>
      </trkpt>
      <trkpt lat="45.83984" lon="4.66239">
        <ele>331.29803</ele>
        <time>2023-07-04T13:43:17.000Z</time>
      </trkpt>
      <trkpt lat="45.83982" lon="4.66238">
        <ele>331.13852</ele>
        <time>2023-07-04T13:43:18.000Z</time>
      </trkpt>
      <trkpt lat="45.83979" lon="4.66237">
        <ele>331.0578</ele>
        <time>2023-07-04T13:43:19.000Z</time>
      </trkpt>
      <trkpt lat="45.83976" lon="4.66238">
        <ele>330.99857</ele>
        <time>2023-07-04T13:43:20.000Z</time>
      </trkpt>
      <trkpt lat="45.83973" lon="4.66239">
        <ele>331.63806</ele>
        <time>2023-07-04T13:43:21.000Z</time>
      </trkpt>
      <trkpt lat="45.8397" lon="4.6624">
        <ele>332.27731</ele>
        <time>2023-07-04T13:43:22.000Z</time>
      </trkpt>
      <trkpt lat="45.83967" lon="4.6624">
        <ele>332.24255</ele>
        <time>2023-07-04T13:43:23.000Z</time>
      </trkpt>
      <trkpt lat="45.83963" lon="4.66239">
        <ele>332.10587</ele>
        <time>2023-07-04T13:43:24.000Z</time>
      </trkpt>
      <trkpt lat="45.8396" lon="4.66239">
        <ele>331.95844</ele>
        <time>2023-07-04T13:43:25.000Z</time>
      </trkpt>
      <trkpt lat="45.83957" lon="4.66239">
        <ele>332.27133</ele>
        <time>2023-07-04T13:43:26.000Z</time>
      </trkpt>
      <trkpt lat="45.83954" lon="4.66238">
        <ele>332.49869</ele>
        <time>2023-07-04T13:43:27.000Z</time>
      </trkpt>
      <trkpt lat="45.83951" lon="4.66237">
        <ele>332.73578</ele>
        <time>2023-07-04T13:43:28.000Z</time>
      </trkpt>
      <trkpt lat="45.83948" lon="4.66237">
        <ele>332.96179</ele>
        <time>2023-07-04T13:43:29.000Z</time>
      </trkpt>
      <trkpt lat="45.83945" lon="4.66236">
        <ele>333.20203</ele>
        <time>2023-07-04T13:43:30.000Z</time>
      </trkpt>
      <trkpt lat="45.83943" lon="4.66234">
        <ele>333.45145</ele>
        <time>2023-07-04T13:43:31.000Z</time>
      </trkpt>
      <trkpt lat="45.83941" lon="4.66232">
        <ele>333.73431</ele>
        <time>2023-07-04T13:43:32.000Z</time>
      </trkpt>
      <trkpt lat="45.83938" lon="4.66229">
        <ele>334.03873</ele>
        <time>2023-07-04T13:43:33.000Z</time>
      </trkpt>
      <trkpt lat="45.83936" lon="4.66227">
        <ele>334.32715</ele>
        <time>2023-07-04T13:43:34.000Z</time>
      </trkpt>
      <trkpt lat="45.83934" lon="4.66224">
        <ele>334.71127</ele>
        <time>2023-07-04T13:43:35.000Z</time>
      </trkpt>
      <trkpt lat="45.83931" lon="4.66222">
        <ele>335.3808</ele>
        <time>2023-07-04T13:43:36.000Z</time>
      </trkpt>
      <trkpt lat="45.83928" lon="4.66219">
        <ele>336.09406</ele>
        <time>2023-07-04T13:43:37.000Z</time>
      </trkpt>
      <trkpt lat="45.83926" lon="4.66216">
        <ele>336.78394</ele>
        <time>2023-07-04T13:43:38.000Z</time>
      </trkpt>
      <trkpt lat="45.83924" lon="4.66213">
        <ele>337.47079</ele>
        <time>2023-07-04T13:43:39.000Z</time>
      </trkpt>
      <trkpt lat="45.83921" lon="4.6621">
        <ele>338.17065</ele>
        <time>2023-07-04T13:43:40.000Z</time>
      </trkpt>
      <trkpt lat="45.83919" lon="4.66207">
        <ele>338.87347</ele>
        <time>2023-07-04T13:43:41.000Z</time>
      </trkpt>
      <trkpt lat="45.83916" lon="4.66204">
        <ele>339.57538</ele>
        <time>2023-07-04T13:43:42.000Z</time>
      </trkpt>
      <trkpt lat="45.83914" lon="4.66201">
        <ele>340.28534</ele>
        <time>2023-07-04T13:43:43.000Z</time>
      </trkpt>
      <trkpt lat="45.83911" lon="4.66197">
        <ele>340.97708</ele>
        <time>2023-07-04T13:43:44.000Z</time>
      </trkpt>
      <trkpt lat="45.83909" lon="4.66194">
        <ele>341.67853</ele>
        <time>2023-07-04T13:43:45.000Z</time>
      </trkpt>
      <trkpt lat="45.83907" lon="4.66191">
        <ele>342.04764</ele>
        <time>2023-07-04T13:43:46.000Z</time>
      </trkpt>
      <trkpt lat="45.83904" lon="4.66187">
        <ele>342.41345</ele>
        <time>2023-07-04T13:43:47.000Z</time>
      </trkpt>
      <trkpt lat="45.83901" lon="4.66184">
        <ele>342.73602</ele>
        <time>2023-07-04T13:43:48.000Z</time>
      </trkpt>
      <trkpt lat="45.83898" lon="4.66181">
        <ele>343.08002</ele>
        <time>2023-07-04T13:43:49.000Z</time>
      </trkpt>
      <trkpt lat="45.83896" lon="4.66177">
        <ele>343.51212</ele>
        <time>2023-07-04T13:43:50.000Z</time>
      </trkpt>
      <trkpt lat="45.83893" lon="4.66175">
        <ele>343.95148</ele>
        <time>2023-07-04T13:43:51.000Z</time>
      </trkpt>
      <trkpt lat="45.8389" lon="4.66172">
        <ele>344.37012</ele>
        <time>2023-07-04T13:43:52.000Z</time>
      </trkpt>
      <trkpt lat="45.83887" lon="4.66171">
        <ele>344.57462</ele>
        <time>2023-07-04T13:43:53.000Z</time>
      </trkpt>
      <trkpt lat="45.83884" lon="4.66172">
        <ele>344.80267</ele>
        <time>2023-07-04T13:43:54.000Z</time>
      </trkpt>
      <trkpt lat="45.83881" lon="4.66174">
        <ele>344.92471</ele>
        <time>2023-07-04T13:43:55.000Z</time>
      </trkpt>
      <trkpt lat="45.83879" lon="4.66177">
        <ele>345.07648</ele>
        <time>2023-07-04T13:43:56.000Z</time>
      </trkpt>
      <trkpt lat="45.83876" lon="4.66179">
        <ele>345.194</ele>
        <time>2023-07-04T13:43:57.000Z</time>
      </trkpt>
      <trkpt lat="45.83873" lon="4.6618">
        <ele>345.31934</ele>
        <time>2023-07-04T13:43:58.000Z</time>
      </trkpt>
      <trkpt lat="45.8387" lon="4.66181">
        <ele>345.44476</ele>
        <time>2023-07-04T13:43:59.000Z</time>
      </trkpt>
      <trkpt lat="45.83867" lon="4.66183">
        <ele>345.53967</ele>
        <time>2023-07-04T13:44:00.000Z</time>
      </trkpt>
      <trkpt lat="45.83864" lon="4.66184">
        <ele>345.62213</ele>
        <time>2023-07-04T13:44:01.000Z</time>
      </trkpt>
      <trkpt lat="45.83861" lon="4.66186">
        <ele>345.66864</ele>
        <time>2023-07-04T13:44:02.000Z</time>
      </trkpt>
      <trkpt lat="45.83858" lon="4.66188">
        <ele>345.71246</ele>
        <time>2023-07-04T13:44:03.000Z</time>
      </trkpt>
      <trkpt lat="45.83855" lon="4.66189">
        <ele>345.74478</ele>
        <time>2023-07-04T13:44:04.000Z</time>
      </trkpt>
      <trkpt lat="45.83852" lon="4.6619">
        <ele>345.77069</ele>
        <time>2023-07-04T13:44:05.000Z</time>
      </trkpt>
      <trkpt lat="45.83849" lon="4.66192">
        <ele>345.7962</ele>
        <time>2023-07-04T13:44:06.000Z</time>
      </trkpt>
      <trkpt lat="45.83846" lon="4.66193">
        <ele>345.81451</ele>
        <time>2023-07-04T13:44:07.000Z</time>
      </trkpt>
      <trkpt lat="45.83844" lon="4.66195">
        <ele>345.82208</ele>
        <time>2023-07-04T13:44:08.000Z</time>
      </trkpt>
      <trkpt lat="45.83841" lon="4.66197">
        <ele>345.819</ele>
        <time>2023-07-04T13:44:09.000Z</time>
      </trkpt>
      <trkpt lat="45.83838" lon="4.66199">
        <ele>345.83038</ele>
        <time>2023-07-04T13:44:10.000Z</time>
      </trkpt>
      <trkpt lat="45.83834" lon="4.66201">
        <ele>345.89459</ele>
        <time>2023-07-04T13:44:11.000Z</time>
      </trkpt>
      <trkpt lat="45.83831" lon="4.66202">
        <ele>345.76563</ele>
        <time>2023-07-04T13:44:12.000Z</time>
      </trkpt>
      <trkpt lat="45.83828" lon="4.66204">
        <ele>345.84467</ele>
        <time>2023-07-04T13:44:13.000Z</time>
      </trkpt>
      <trkpt lat="45.83825" lon="4.66205">
        <ele>345.89185</ele>
        <time>2023-07-04T13:44:14.000Z</time>
      </trkpt>
      <trkpt lat="45.83822" lon="4.66207">
        <ele>345.92877</ele>
        <time>2023-07-04T13:44:15.000Z</time>
      </trkpt>
      <trkpt lat="45.83819" lon="4.66209">
        <ele>345.93176</ele>
        <time>2023-07-04T13:44:16.000Z</time>
      </trkpt>
      <trkpt lat="45.83816" lon="4.6621">
        <ele>345.97333</ele>
        <time>2023-07-04T13:44:17.000Z</time>
      </trkpt>
      <trkpt lat="45.83813" lon="4.66211">
        <ele>346.00629</ele>
        <time>2023-07-04T13:44:18.000Z</time>
      </trkpt>
      <trkpt lat="45.83809" lon="4.66212">
        <ele>346.10928</ele>
        <time>2023-07-04T13:44:19.000Z</time>
      </trkpt>
      <trkpt lat="45.83806" lon="4.66213">
        <ele>345.78394</ele>
        <time>2023-07-04T13:44:20.000Z</time>
      </trkpt>
      <trkpt lat="45.83803" lon="4.66214">
        <ele>345.45746</ele>
        <time>2023-07-04T13:44:21.000Z</time>
      </trkpt>
      <trkpt lat="45.838" lon="4.66215">
        <ele>345.15155</ele>
        <time>2023-07-04T13:44:22.000Z</time>
      </trkpt>
      <trkpt lat="45.83797" lon="4.66217">
        <ele>344.84454</ele>
        <time>2023-07-04T13:44:23.000Z</time>
      </trkpt>
      <trkpt lat="45.83794" lon="4.66218">
        <ele>344.61411</ele>
        <time>2023-07-04T13:44:24.000Z</time>
      </trkpt>
      <trkpt lat="45.83791" lon="4.6622">
        <ele>344.36591</ele>
        <time>2023-07-04T13:44:25.000Z</time>
      </trkpt>
      <trkpt lat="45.83787" lon="4.66221">
        <ele>344.13406</ele>
        <time>2023-07-04T13:44:26.000Z</time>
      </trkpt>
      <trkpt lat="45.83784" lon="4.66222">
        <ele>343.89752</ele>
        <time>2023-07-04T13:44:27.000Z</time>
      </trkpt>
      <trkpt lat="45.8378" lon="4.66223">
        <ele>343.68195</ele>
        <time>2023-07-04T13:44:28.000Z</time>
      </trkpt>
      <trkpt lat="45.83777" lon="4.66225">
        <ele>343.85696</ele>
        <time>2023-07-04T13:44:29.000Z</time>
      </trkpt>
      <trkpt lat="45.83773" lon="4.66226">
        <ele>343.87289</ele>
        <time>2023-07-04T13:44:30.000Z</time>
      </trkpt>
      <trkpt lat="45.8377" lon="4.66227">
        <ele>343.82913</ele>
        <time>2023-07-04T13:44:31.000Z</time>
      </trkpt>
      <trkpt lat="45.83766" lon="4.66228">
        <ele>343.9462</ele>
        <time>2023-07-04T13:44:32.000Z</time>
      </trkpt>
      <trkpt lat="45.83763" lon="4.66229">
        <ele>344.04846</ele>
        <time>2023-07-04T13:44:33.000Z</time>
      </trkpt>
      <trkpt lat="45.83759" lon="4.66229">
        <ele>344.23322</ele>
        <time>2023-07-04T13:44:34.000Z</time>
      </trkpt>
      <trkpt lat="45.83756" lon="4.66229">
        <ele>344.48383</ele>
        <time>2023-07-04T13:44:35.000Z</time>
      </trkpt>
      <trkpt lat="45.83752" lon="4.6623">
        <ele>344.74225</ele>
        <time>2023-07-04T13:44:36.000Z</time>
      </trkpt>
      <trkpt lat="45.83749" lon="4.6623">
        <ele>344.81342</ele>
        <time>2023-07-04T13:44:37.000Z</time>
      </trkpt>
      <trkpt lat="45.83746" lon="4.6623">
        <ele>344.91409</ele>
        <time>2023-07-04T13:44:38.000Z</time>
      </trkpt>
      <trkpt lat="45.83742" lon="4.66231">
        <ele>344.91754</ele>
        <time>2023-07-04T13:44:39.000Z</time>
      </trkpt>
      <trkpt lat="45.83739" lon="4.66233">
        <ele>345.36292</ele>
        <time>2023-07-04T13:44:40.000Z</time>
      </trkpt>
      <trkpt lat="45.83735" lon="4.66234">
        <ele>345.80771</ele>
        <time>2023-07-04T13:44:41.000Z</time>
      </trkpt>
      <trkpt lat="45.83731" lon="4.66236">
        <ele>346.25702</ele>
        <time>2023-07-04T13:44:42.000Z</time>
      </trkpt>
      <trkpt lat="45.83728" lon="4.66237">
        <ele>346.7215</ele>
        <time>2023-07-04T13:44:43.000Z</time>
      </trkpt>
      <trkpt lat="45.83725" lon="4.66237">
        <ele>347.11163</ele>
        <time>2023-07-04T13:44:44.000Z</time>
      </trkpt>
      <trkpt lat="45.83721" lon="4.66237">
        <ele>347.55621</ele>
        <time>2023-07-04T13:44:45.000Z</time>
      </trkpt>
      <trkpt lat="45.83718" lon="4.66237">
        <ele>347.9711</ele>
        <time>2023-07-04T13:44:46.000Z</time>
      </trkpt>
      <trkpt lat="45.83715" lon="4.66238">
        <ele>348.38651</ele>
        <time>2023-07-04T13:44:47.000Z</time>
      </trkpt>
      <trkpt lat="45.83712" lon="4.66238">
        <ele>348.78387</ele>
        <time>2023-07-04T13:44:48.000Z</time>
      </trkpt>
      <trkpt lat="45.83709" lon="4.66238">
        <ele>348.78119</ele>
        <time>2023-07-04T13:44:49.000Z</time>
      </trkpt>
      <trkpt lat="45.83706" lon="4.66239">
        <ele>348.84766</ele>
        <time>2023-07-04T13:44:50.000Z</time>
      </trkpt>
      <trkpt lat="45.83703" lon="4.66239">
        <ele>348.90991</ele>
        <time>2023-07-04T13:44:51.000Z</time>
      </trkpt>
      <trkpt lat="45.83699" lon="4.66239">
        <ele>348.97742</ele>
        <time>2023-07-04T13:44:52.000Z</time>
      </trkpt>
      <trkpt lat="45.83696" lon="4.66239">
        <ele>349.04218</ele>
        <time>2023-07-04T13:44:53.000Z</time>
      </trkpt>
      <trkpt lat="45.83693" lon="4.66239">
        <ele>349.03485</ele>
        <time>2023-07-04T13:44:54.000Z</time>
      </trkpt>
      <trkpt lat="45.8369" lon="4.66239">
        <ele>348.95438</ele>
        <time>2023-07-04T13:44:55.000Z</time>
      </trkpt>
      <trkpt lat="45.83687" lon="4.66239">
        <ele>348.85666</ele>
        <time>2023-07-04T13:44:56.000Z</time>
      </trkpt>
      <trkpt lat="45.83684" lon="4.66239">
        <ele>348.91733</ele>
        <time>2023-07-04T13:44:57.000Z</time>
      </trkpt>
      <trkpt lat="45.83682" lon="4.66239">
        <ele>348.93918</ele>
        <time>2023-07-04T13:44:58.000Z</time>
      </trkpt>
      <trkpt lat="45.83679" lon="4.66239">
        <ele>348.96579</ele>
        <time>2023-07-04T13:44:59.000Z</time>
      </trkpt>
      <trkpt lat="45.83677" lon="4.66239">
        <ele>349.05151</ele>
        <time>2023-07-04T13:45:00.000Z</time>
      </trkpt>
      <trkpt lat="45.83675" lon="4.66239">
        <ele>349.18359</ele>
        <time>2023-07-04T13:45:01.000Z</time>
      </trkpt>
      <trkpt lat="45.83673" lon="4.66237">
        <ele>349.16318</ele>
        <time>2023-07-04T13:45:02.000Z</time>
      </trkpt>
      <trkpt lat="45.83672" lon="4.66234">
        <ele>349.18497</ele>
        <time>2023-07-04T13:45:03.000Z</time>
      </trkpt>
      <trkpt lat="45.83671" lon="4.66229">
        <ele>349.23279</ele>
        <time>2023-07-04T13:45:04.000Z</time>
      </trkpt>
      <trkpt lat="45.83671" lon="4.66225">
        <ele>349.25397</ele>
        <time>2023-07-04T13:45:05.000Z</time>
      </trkpt>
      <trkpt lat="45.83672" lon="4.66221">
        <ele>349.3035</ele>
        <time>2023-07-04T13:45:06.000Z</time>
      </trkpt>
      <trkpt lat="45.83673" lon="4.66216">
        <ele>349.42404</ele>
        <time>2023-07-04T13:45:07.000Z</time>
      </trkpt>
      <trkpt lat="45.83673" lon="4.66211">
        <ele>349.5423</ele>
        <time>2023-07-04T13:45:08.000Z</time>
      </trkpt>
      <trkpt lat="45.83674" lon="4.66207">
        <ele>349.66339</ele>
        <time>2023-07-04T13:45:09.000Z</time>
      </trkpt>
      <trkpt lat="45.83675" lon="4.66203">
        <ele>349.80817</ele>
        <time>2023-07-04T13:45:10.000Z</time>
      </trkpt>
      <trkpt lat="45.83675" lon="4.66199">
        <ele>349.85867</ele>
        <time>2023-07-04T13:45:11.000Z</time>
      </trkpt>
      <trkpt lat="45.83676" lon="4.66196">
        <ele>349.96066</ele>
        <time>2023-07-04T13:45:12.000Z</time>
      </trkpt>
      <trkpt lat="45.83676" lon="4.66193">
        <ele>350.06183</ele>
        <time>2023-07-04T13:45:13.000Z</time>
      </trkpt>
      <trkpt lat="45.83677" lon="4.66189">
        <ele>350.1666</ele>
        <time>2023-07-04T13:45:14.000Z</time>
      </trkpt>
      <trkpt lat="45.83677" lon="4.66186">
        <ele>350.28217</ele>
        <time>2023-07-04T13:45:15.000Z</time>
      </trkpt>
      <trkpt lat="45.83678" lon="4.66183">
        <ele>350.41812</ele>
        <time>2023-07-04T13:45:16.000Z</time>
      </trkpt>
      <trkpt lat="45.83679" lon="4.6618">
        <ele>350.53629</ele>
        <time>2023-07-04T13:45:17.000Z</time>
      </trkpt>
      <trkpt lat="45.83681" lon="4.66177">
        <ele>350.64938</ele>
        <time>2023-07-04T13:45:18.000Z</time>
      </trkpt>
      <trkpt lat="45.83682" lon="4.66175">
        <ele>350.78952</ele>
        <time>2023-07-04T13:45:19.000Z</time>
      </trkpt>
      <trkpt lat="45.83684" lon="4.66173">
        <ele>350.87433</ele>
        <time>2023-07-04T13:45:20.000Z</time>
      </trkpt>
      <trkpt lat="45.83685" lon="4.66172">
        <ele>350.93451</ele>
        <time>2023-07-04T13:45:21.000Z</time>
      </trkpt>
      <trkpt lat="45.83687" lon="4.66169">
        <ele>351.15912</ele>
        <time>2023-07-04T13:45:22.000Z</time>
      </trkpt>
      <trkpt lat="45.83688" lon="4.66165">
        <ele>351.33759</ele>
        <time>2023-07-04T13:45:23.000Z</time>
      </trkpt>
      <trkpt lat="45.83687" lon="4.66161">
        <ele>351.49905</ele>
        <time>2023-07-04T13:45:24.000Z</time>
      </trkpt>
      <trkpt lat="45.83684" lon="4.66158">
        <ele>351.68903</ele>
        <time>2023-07-04T13:45:25.000Z</time>
      </trkpt>
      <trkpt lat="45.83682" lon="4.66155">
        <ele>351.90311</ele>
        <time>2023-07-04T13:45:26.000Z</time>
      </trkpt>
      <trkpt lat="45.8368" lon="4.66152">
        <ele>351.95441</ele>
        <time>2023-07-04T13:45:27.000Z</time>
      </trkpt>
      <trkpt lat="45.83679" lon="4.66148">
        <ele>352.052</ele>
        <time>2023-07-04T13:45:28.000Z</time>
      </trkpt>
      <trkpt lat="45.8368" lon="4.66144">
        <ele>352.16681</ele>
        <time>2023-07-04T13:45:29.000Z</time>
      </trkpt>
      <trkpt lat="45.8368" lon="4.6614">
        <ele>352.26959</ele>
        <time>2023-07-04T13:45:30.000Z</time>
      </trkpt>
      <trkpt lat="45.8368" lon="4.66135">
        <ele>352.48102</ele>
        <time>2023-07-04T13:45:31.000Z</time>
      </trkpt>
      <trkpt lat="45.8368" lon="4.6613">
        <ele>352.65546</ele>
        <time>2023-07-04T13:45:32.000Z</time>
      </trkpt>
      <trkpt lat="45.8368" lon="4.66126">
        <ele>352.82739</ele>
        <time>2023-07-04T13:45:33.000Z</time>
      </trkpt>
      <trkpt lat="45.83681" lon="4.66122">
        <ele>352.99323</ele>
        <time>2023-07-04T13:45:34.000Z</time>
      </trkpt>
      <trkpt lat="45.83681" lon="4.66118">
        <ele>353.19818</ele>
        <time>2023-07-04T13:45:35.000Z</time>
      </trkpt>
      <trkpt lat="45.83682" lon="4.66113">
        <ele>353.43726</ele>
        <time>2023-07-04T13:45:36.000Z</time>
      </trkpt>
      <trkpt lat="45.83682" lon="4.66109">
        <ele>353.64825</ele>
        <time>2023-07-04T13:45:37.000Z</time>
      </trkpt>
      <trkpt lat="45.83682" lon="4.66104">
        <ele>353.89609</ele>
        <time>2023-07-04T13:45:38.000Z</time>
      </trkpt>
      <trkpt lat="45.83682" lon="4.66099">
        <ele>354.14594</ele>
        <time>2023-07-04T13:45:39.000Z</time>
      </trkpt>
      <trkpt lat="45.83682" lon="4.66095">
        <ele>354.39111</ele>
        <time>2023-07-04T13:45:40.000Z</time>
      </trkpt>
      <trkpt lat="45.83682" lon="4.66091">
        <ele>354.63071</ele>
        <time>2023-07-04T13:45:41.000Z</time>
      </trkpt>
      <trkpt lat="45.83683" lon="4.66086">
        <ele>354.8894</ele>
        <time>2023-07-04T13:45:42.000Z</time>
      </trkpt>
      <trkpt lat="45.83683" lon="4.66082">
        <ele>355.16586</ele>
        <time>2023-07-04T13:45:43.000Z</time>
      </trkpt>
      <trkpt lat="45.83683" lon="4.66077">
        <ele>355.43967</ele>
        <time>2023-07-04T13:45:44.000Z</time>
      </trkpt>
      <trkpt lat="45.83683" lon="4.66072">
        <ele>355.68225</ele>
        <time>2023-07-04T13:45:45.000Z</time>
      </trkpt>
      <trkpt lat="45.83683" lon="4.66068">
        <ele>355.88745</ele>
        <time>2023-07-04T13:45:46.000Z</time>
      </trkpt>
      <trkpt lat="45.83683" lon="4.66063">
        <ele>356.1983</ele>
        <time>2023-07-04T13:45:47.000Z</time>
      </trkpt>
      <trkpt lat="45.83684" lon="4.66058">
        <ele>356.48178</ele>
        <time>2023-07-04T13:45:48.000Z</time>
      </trkpt>
      <trkpt lat="45.83684" lon="4.66054">
        <ele>356.76337</ele>
        <time>2023-07-04T13:45:49.000Z</time>
      </trkpt>
      <trkpt lat="45.83684" lon="4.6605">
        <ele>356.98804</ele>
        <time>2023-07-04T13:45:50.000Z</time>
      </trkpt>
      <trkpt lat="45.83684" lon="4.66046">
        <ele>357.21997</ele>
        <time>2023-07-04T13:45:51.000Z</time>
      </trkpt>
      <trkpt lat="45.83684" lon="4.66041">
        <ele>357.46515</ele>
        <time>2023-07-04T13:45:52.000Z</time>
      </trkpt>
      <trkpt lat="45.83685" lon="4.66036">
        <ele>357.71796</ele>
        <time>2023-07-04T13:45:53.000Z</time>
      </trkpt>
      <trkpt lat="45.83685" lon="4.66032">
        <ele>357.98099</ele>
        <time>2023-07-04T13:45:54.000Z</time>
      </trkpt>
      <trkpt lat="45.83685" lon="4.66027">
        <ele>358.23343</ele>
        <time>2023-07-04T13:45:55.000Z</time>
      </trkpt>
      <trkpt lat="45.83685" lon="4.66023">
        <ele>358.47421</ele>
        <time>2023-07-04T13:45:56.000Z</time>
      </trkpt>
      <trkpt lat="45.83686" lon="4.66018">
        <ele>358.77698</ele>
        <time>2023-07-04T13:45:57.000Z</time>
      </trkpt>
      <trkpt lat="45.83686" lon="4.66013">
        <ele>359.05508</ele>
        <time>2023-07-04T13:45:58.000Z</time>
      </trkpt>
      <trkpt lat="45.83686" lon="4.66009">
        <ele>359.32504</ele>
        <time>2023-07-04T13:45:59.000Z</time>
      </trkpt>
      <trkpt lat="45.83686" lon="4.66004">
        <ele>359.59674</ele>
        <time>2023-07-04T13:46:00.000Z</time>
      </trkpt>
      <trkpt lat="45.83686" lon="4.65999">
        <ele>359.90613</ele>
        <time>2023-07-04T13:46:01.000Z</time>
      </trkpt>
      <trkpt lat="45.83686" lon="4.65994">
        <ele>360.20322</ele>
        <time>2023-07-04T13:46:02.000Z</time>
      </trkpt>
      <trkpt lat="45.83686" lon="4.65989">
        <ele>360.49234</ele>
        <time>2023-07-04T13:46:03.000Z</time>
      </trkpt>
      <trkpt lat="45.83686" lon="4.65984">
        <ele>360.81842</ele>
        <time>2023-07-04T13:46:04.000Z</time>
      </trkpt>
      <trkpt lat="45.83687" lon="4.65979">
        <ele>361.15836</ele>
        <time>2023-07-04T13:46:05.000Z</time>
      </trkpt>
      <trkpt lat="45.83687" lon="4.65974">
        <ele>361.49924</ele>
        <time>2023-07-04T13:46:06.000Z</time>
      </trkpt>
      <trkpt lat="45.83688" lon="4.6597">
        <ele>361.8425</ele>
        <time>2023-07-04T13:46:07.000Z</time>
      </trkpt>
      <trkpt lat="45.83688" lon="4.65965">
        <ele>362.1481</ele>
        <time>2023-07-04T13:46:08.000Z</time>
      </trkpt>
      <trkpt lat="45.83689" lon="4.6596">
        <ele>362.01785</ele>
        <time>2023-07-04T13:46:09.000Z</time>
      </trkpt>
      <trkpt lat="45.83689" lon="4.65956">
        <ele>361.83945</ele>
        <time>2023-07-04T13:46:10.000Z</time>
      </trkpt>
      <trkpt lat="45.83689" lon="4.65952">
        <ele>361.63705</ele>
        <time>2023-07-04T13:46:11.000Z</time>
      </trkpt>
      <trkpt lat="45.83689" lon="4.65947">
        <ele>361.99225</ele>
        <time>2023-07-04T13:46:12.000Z</time>
      </trkpt>
      <trkpt lat="45.83689" lon="4.65943">
        <ele>362.34906</ele>
        <time>2023-07-04T13:46:13.000Z</time>
      </trkpt>
      <trkpt lat="45.8369" lon="4.65938">
        <ele>362.71722</ele>
        <time>2023-07-04T13:46:14.000Z</time>
      </trkpt>
      <trkpt lat="45.8369" lon="4.65934">
        <ele>363.06302</ele>
        <time>2023-07-04T13:46:15.000Z</time>
      </trkpt>
      <trkpt lat="45.8369" lon="4.65929">
        <ele>363.41144</ele>
        <time>2023-07-04T13:46:16.000Z</time>
      </trkpt>
      <trkpt lat="45.83689" lon="4.65925">
        <ele>363.76703</ele>
        <time>2023-07-04T13:46:17.000Z</time>
      </trkpt>
      <trkpt lat="45.83689" lon="4.65921">
        <ele>364.14838</ele>
        <time>2023-07-04T13:46:18.000Z</time>
      </trkpt>
      <trkpt lat="45.83688" lon="4.65916">
        <ele>364.52304</ele>
        <time>2023-07-04T13:46:19.000Z</time>
      </trkpt>
      <trkpt lat="45.83688" lon="4.65912">
        <ele>364.43835</ele>
        <time>2023-07-04T13:46:20.000Z</time>
      </trkpt>
      <trkpt lat="45.83688" lon="4.65908">
        <ele>364.73737</ele>
        <time>2023-07-04T13:46:21.000Z</time>
      </trkpt>
      <trkpt lat="45.83688" lon="4.65903">
        <ele>365.03641</ele>
        <time>2023-07-04T13:46:22.000Z</time>
      </trkpt>
      <trkpt lat="45.83688" lon="4.65899">
        <ele>365.31958</ele>
        <time>2023-07-04T13:46:23.000Z</time>
      </trkpt>
      <trkpt lat="45.83688" lon="4.65895">
        <ele>365.58224</ele>
        <time>2023-07-04T13:46:24.000Z</time>
      </trkpt>
      <trkpt lat="45.83688" lon="4.65891">
        <ele>365.81659</ele>
        <time>2023-07-04T13:46:25.000Z</time>
      </trkpt>
      <trkpt lat="45.83688" lon="4.65887">
        <ele>366.05103</ele>
        <time>2023-07-04T13:46:26.000Z</time>
      </trkpt>
      <trkpt lat="45.83688" lon="4.65883">
        <ele>366.21573</ele>
        <time>2023-07-04T13:46:27.000Z</time>
      </trkpt>
      <trkpt lat="45.83688" lon="4.65879">
        <ele>366.4418</ele>
        <time>2023-07-04T13:46:28.000Z</time>
      </trkpt>
      <trkpt lat="45.83688" lon="4.65874">
        <ele>367.10718</ele>
        <time>2023-07-04T13:46:29.000Z</time>
      </trkpt>
      <trkpt lat="45.83688" lon="4.6587">
        <ele>367.84439</ele>
        <time>2023-07-04T13:46:30.000Z</time>
      </trkpt>
      <trkpt lat="45.83689" lon="4.65867">
        <ele>368.58286</ele>
        <time>2023-07-04T13:46:31.000Z</time>
      </trkpt>
      <trkpt lat="45.83689" lon="4.65862">
        <ele>368.88229</ele>
        <time>2023-07-04T13:46:32.000Z</time>
      </trkpt>
      <trkpt lat="45.83689" lon="4.65858">
        <ele>369.11862</ele>
        <time>2023-07-04T13:46:33.000Z</time>
      </trkpt>
      <trkpt lat="45.83689" lon="4.65853">
        <ele>369.34857</ele>
        <time>2023-07-04T13:46:34.000Z</time>
      </trkpt>
      <trkpt lat="45.83689" lon="4.65849">
        <ele>369.59906</ele>
        <time>2023-07-04T13:46:35.000Z</time>
      </trkpt>
      <trkpt lat="45.8369" lon="4.65845">
        <ele>369.84595</ele>
        <time>2023-07-04T13:46:36.000Z</time>
      </trkpt>
      <trkpt lat="45.8369" lon="4.6584">
        <ele>370.11282</ele>
        <time>2023-07-04T13:46:37.000Z</time>
      </trkpt>
      <trkpt lat="45.8369" lon="4.65836">
        <ele>370.36404</ele>
        <time>2023-07-04T13:46:38.000Z</time>
      </trkpt>
      <trkpt lat="45.8369" lon="4.65831">
        <ele>370.60922</ele>
        <time>2023-07-04T13:46:39.000Z</time>
      </trkpt>
      <trkpt lat="45.8369" lon="4.65827">
        <ele>371.32941</ele>
        <time>2023-07-04T13:46:40.000Z</time>
      </trkpt>
      <trkpt lat="45.83689" lon="4.65822">
        <ele>371.63379</ele>
        <time>2023-07-04T13:46:41.000Z</time>
      </trkpt>
      <trkpt lat="45.83688" lon="4.65817">
        <ele>371.91321</ele>
        <time>2023-07-04T13:46:42.000Z</time>
      </trkpt>
      <trkpt lat="45.83688" lon="4.65813">
        <ele>372.18103</ele>
        <time>2023-07-04T13:46:43.000Z</time>
      </trkpt>
      <trkpt lat="45.83687" lon="4.65808">
        <ele>372.43182</ele>
        <time>2023-07-04T13:46:44.000Z</time>
      </trkpt>
      <trkpt lat="45.83686" lon="4.65804">
        <ele>372.68631</ele>
        <time>2023-07-04T13:46:45.000Z</time>
      </trkpt>
      <trkpt lat="45.83686" lon="4.658">
        <ele>372.92389</ele>
        <time>2023-07-04T13:46:46.000Z</time>
      </trkpt>
      <trkpt lat="45.83685" lon="4.65796">
        <ele>373.20947</ele>
        <time>2023-07-04T13:46:47.000Z</time>
      </trkpt>
      <trkpt lat="45.83684" lon="4.65792">
        <ele>373.4733</ele>
        <time>2023-07-04T13:46:48.000Z</time>
      </trkpt>
      <trkpt lat="45.83684" lon="4.65789">
        <ele>373.7204</ele>
        <time>2023-07-04T13:46:49.000Z</time>
      </trkpt>
      <trkpt lat="45.83683" lon="4.65785">
        <ele>373.97867</ele>
        <time>2023-07-04T13:46:50.000Z</time>
      </trkpt>
      <trkpt lat="45.83683" lon="4.65781">
        <ele>374.25345</ele>
        <time>2023-07-04T13:46:51.000Z</time>
      </trkpt>
      <trkpt lat="45.83682" lon="4.65778">
        <ele>374.38708</ele>
        <time>2023-07-04T13:46:52.000Z</time>
      </trkpt>
      <trkpt lat="45.83682" lon="4.65775">
        <ele>374.59552</ele>
        <time>2023-07-04T13:46:53.000Z</time>
      </trkpt>
      <trkpt lat="45.83683" lon="4.65773">
        <ele>374.76572</ele>
        <time>2023-07-04T13:46:54.000Z</time>
      </trkpt>
      <trkpt lat="45.83684" lon="4.6577">
        <ele>374.91675</ele>
        <time>2023-07-04T13:46:55.000Z</time>
      </trkpt>
      <trkpt lat="45.83686" lon="4.65768">
        <ele>375.03192</ele>
        <time>2023-07-04T13:46:56.000Z</time>
      </trkpt>
      <trkpt lat="45.83687" lon="4.65766">
        <ele>375.11163</ele>
        <time>2023-07-04T13:46:57.000Z</time>
      </trkpt>
      <trkpt lat="45.83688" lon="4.65764">
        <ele>375.17157</ele>
        <time>2023-07-04T13:46:58.000Z</time>
      </trkpt>
      <trkpt lat="45.8369" lon="4.65761">
        <ele>375.20779</ele>
        <time>2023-07-04T13:46:59.000Z</time>
      </trkpt>
      <trkpt lat="45.83691" lon="4.6576">
        <ele>375.34869</ele>
        <time>2023-07-04T13:47:57.000Z</time>
      </trkpt>
      <trkpt lat="45.83694" lon="4.65759">
        <ele>375.46091</ele>
        <time>2023-07-04T13:47:59.000Z</time>
      </trkpt>
      <trkpt lat="45.83696" lon="4.65758">
        <ele>375.57855</ele>
        <time>2023-07-04T13:48:00.000Z</time>
      </trkpt>
      <trkpt lat="45.83698" lon="4.65757">
        <ele>375.70294</ele>
        <time>2023-07-04T13:48:01.000Z</time>
      </trkpt>
      <trkpt lat="45.837" lon="4.65756">
        <ele>375.82611</ele>
        <time>2023-07-04T13:48:02.000Z</time>
      </trkpt>
      <trkpt lat="45.83703" lon="4.65755">
        <ele>375.97012</ele>
        <time>2023-07-04T13:48:03.000Z</time>
      </trkpt>
      <trkpt lat="45.83705" lon="4.65753">
        <ele>376.11813</ele>
        <time>2023-07-04T13:48:04.000Z</time>
      </trkpt>
      <trkpt lat="45.83707" lon="4.6575">
        <ele>376.27563</ele>
        <time>2023-07-04T13:48:05.000Z</time>
      </trkpt>
      <trkpt lat="45.83709" lon="4.65747">
        <ele>376.46527</ele>
        <time>2023-07-04T13:48:06.000Z</time>
      </trkpt>
      <trkpt lat="45.83711" lon="4.65744">
        <ele>376.64606</ele>
        <time>2023-07-04T13:48:07.000Z</time>
      </trkpt>
      <trkpt lat="45.83713" lon="4.65741">
        <ele>376.84402</ele>
        <time>2023-07-04T13:48:08.000Z</time>
      </trkpt>
      <trkpt lat="45.83715" lon="4.65738">
        <ele>377.01712</ele>
        <time>2023-07-04T13:48:09.000Z</time>
      </trkpt>
      <trkpt lat="45.83717" lon="4.65734">
        <ele>377.2117</ele>
        <time>2023-07-04T13:48:10.000Z</time>
      </trkpt>
      <trkpt lat="45.83719" lon="4.65731">
        <ele>377.39047</ele>
        <time>2023-07-04T13:48:11.000Z</time>
      </trkpt>
      <trkpt lat="45.83721" lon="4.65727">
        <ele>377.56897</ele>
        <time>2023-07-04T13:48:12.000Z</time>
      </trkpt>
      <trkpt lat="45.83723" lon="4.65724">
        <ele>377.74139</ele>
        <time>2023-07-04T13:48:13.000Z</time>
      </trkpt>
      <trkpt lat="45.83725" lon="4.6572">
        <ele>377.92474</ele>
        <time>2023-07-04T13:48:14.000Z</time>
      </trkpt>
      <trkpt lat="45.83727" lon="4.65717">
        <ele>378.09036</ele>
        <time>2023-07-04T13:48:15.000Z</time>
      </trkpt>
      <trkpt lat="45.83729" lon="4.65713">
        <ele>378.26059</ele>
        <time>2023-07-04T13:48:16.000Z</time>
      </trkpt>
      <trkpt lat="45.83731" lon="4.65709">
        <ele>378.44989</ele>
        <time>2023-07-04T13:48:17.000Z</time>
      </trkpt>
      <trkpt lat="45.83734" lon="4.65706">
        <ele>378.51508</ele>
        <time>2023-07-04T13:48:18.000Z</time>
      </trkpt>
      <trkpt lat="45.83736" lon="4.65702">
        <ele>378.55981</ele>
        <time>2023-07-04T13:48:19.000Z</time>
      </trkpt>
      <trkpt lat="45.83739" lon="4.65698">
        <ele>378.58978</ele>
        <time>2023-07-04T13:48:20.000Z</time>
      </trkpt>
      <trkpt lat="45.83742" lon="4.65694">
        <ele>378.61053</ele>
        <time>2023-07-04T13:48:21.000Z</time>
      </trkpt>
      <trkpt lat="45.83744" lon="4.6569">
        <ele>378.65482</ele>
        <time>2023-07-04T13:48:22.000Z</time>
      </trkpt>
      <trkpt lat="45.83746" lon="4.65685">
        <ele>378.68723</ele>
        <time>2023-07-04T13:48:23.000Z</time>
      </trkpt>
      <trkpt lat="45.83748" lon="4.65679">
        <ele>378.72531</ele>
        <time>2023-07-04T13:48:24.000Z</time>
      </trkpt>
      <trkpt lat="45.83747" lon="4.65674">
        <ele>378.71063</ele>
        <time>2023-07-04T13:48:25.000Z</time>
      </trkpt>
      <trkpt lat="45.83748" lon="4.65667">
        <ele>378.63559</ele>
        <time>2023-07-04T13:48:26.000Z</time>
      </trkpt>
      <trkpt lat="45.83749" lon="4.65659">
        <ele>378.51581</ele>
        <time>2023-07-04T13:48:27.000Z</time>
      </trkpt>
      <trkpt lat="45.83749" lon="4.65651">
        <ele>378.4335</ele>
        <time>2023-07-04T13:48:28.000Z</time>
      </trkpt>
      <trkpt lat="45.8375" lon="4.65643">
        <ele>378.31064</ele>
        <time>2023-07-04T13:48:29.000Z</time>
      </trkpt>
      <trkpt lat="45.8375" lon="4.65635">
        <ele>378.1662</ele>
        <time>2023-07-04T13:48:30.000Z</time>
      </trkpt>
      <trkpt lat="45.83751" lon="4.65627">
        <ele>378.02286</ele>
        <time>2023-07-04T13:48:31.000Z</time>
      </trkpt>
      <trkpt lat="45.83753" lon="4.65619">
        <ele>377.43256</ele>
        <time>2023-07-04T13:48:32.000Z</time>
      </trkpt>
      <trkpt lat="45.83754" lon="4.6561">
        <ele>376.84802</ele>
        <time>2023-07-04T13:48:33.000Z</time>
      </trkpt>
      <trkpt lat="45.83756" lon="4.65602">
        <ele>376.26508</ele>
        <time>2023-07-04T13:48:34.000Z</time>
      </trkpt>
      <trkpt lat="45.83759" lon="4.65593">
        <ele>375.70093</ele>
        <time>2023-07-04T13:48:35.000Z</time>
      </trkpt>
      <trkpt lat="45.83763" lon="4.65586">
        <ele>375.1391</ele>
        <time>2023-07-04T13:48:36.000Z</time>
      </trkpt>
      <trkpt lat="45.83766" lon="4.65579">
        <ele>374.63174</ele>
        <time>2023-07-04T13:48:37.000Z</time>
      </trkpt>
      <trkpt lat="45.83773" lon="4.65577">
        <ele>374.07977</ele>
        <time>2023-07-04T13:48:38.000Z</time>
      </trkpt>
      <trkpt lat="45.83779" lon="4.65575">
        <ele>373.54877</ele>
        <time>2023-07-04T13:48:39.000Z</time>
      </trkpt>
      <trkpt lat="45.83786" lon="4.65573">
        <ele>372.99402</ele>
        <time>2023-07-04T13:48:40.000Z</time>
      </trkpt>
      <trkpt lat="45.83793" lon="4.65572">
        <ele>372.43399</ele>
        <time>2023-07-04T13:48:41.000Z</time>
      </trkpt>
      <trkpt lat="45.83799" lon="4.65569">
        <ele>371.86078</ele>
        <time>2023-07-04T13:48:42.000Z</time>
      </trkpt>
      <trkpt lat="45.83805" lon="4.65565">
        <ele>371.25214</ele>
        <time>2023-07-04T13:48:43.000Z</time>
      </trkpt>
      <trkpt lat="45.8381" lon="4.65559">
        <ele>370.62698</ele>
        <time>2023-07-04T13:48:44.000Z</time>
      </trkpt>
      <trkpt lat="45.83814" lon="4.65552">
        <ele>370.05496</ele>
        <time>2023-07-04T13:48:45.000Z</time>
      </trkpt>
      <trkpt lat="45.83818" lon="4.65545">
        <ele>369.49915</ele>
        <time>2023-07-04T13:48:46.000Z</time>
      </trkpt>
      <trkpt lat="45.83822" lon="4.65538">
        <ele>369.00635</ele>
        <time>2023-07-04T13:48:47.000Z</time>
      </trkpt>
      <trkpt lat="45.83825" lon="4.6553">
        <ele>368.44794</ele>
        <time>2023-07-04T13:48:48.000Z</time>
      </trkpt>
      <trkpt lat="45.83828" lon="4.65524">
        <ele>367.96545</ele>
        <time>2023-07-04T13:48:49.000Z</time>
      </trkpt>
      <trkpt lat="45.83831" lon="4.65516">
        <ele>367.37723</ele>
        <time>2023-07-04T13:48:50.000Z</time>
      </trkpt>
      <trkpt lat="45.83833" lon="4.6551">
        <ele>366.75546</ele>
        <time>2023-07-04T13:48:51.000Z</time>
      </trkpt>
      <trkpt lat="45.83836" lon="4.65503">
        <ele>366.59781</ele>
        <time>2023-07-04T13:48:52.000Z</time>
      </trkpt>
      <trkpt lat="45.83839" lon="4.65496">
        <ele>366.42709</ele>
        <time>2023-07-04T13:48:53.000Z</time>
      </trkpt>
      <trkpt lat="45.83841" lon="4.65489">
        <ele>366.26511</ele>
        <time>2023-07-04T13:48:54.000Z</time>
      </trkpt>
      <trkpt lat="45.83844" lon="4.65484">
        <ele>366.12524</ele>
        <time>2023-07-04T13:48:55.000Z</time>
      </trkpt>
      <trkpt lat="45.83847" lon="4.65477">
        <ele>366.27692</ele>
        <time>2023-07-04T13:48:56.000Z</time>
      </trkpt>
      <trkpt lat="45.83849" lon="4.65472">
        <ele>366.3869</ele>
        <time>2023-07-04T13:48:57.000Z</time>
      </trkpt>
      <trkpt lat="45.83851" lon="4.65466">
        <ele>366.53336</ele>
        <time>2023-07-04T13:48:58.000Z</time>
      </trkpt>
      <trkpt lat="45.83853" lon="4.65461">
        <ele>366.69415</ele>
        <time>2023-07-04T13:48:59.000Z</time>
      </trkpt>
      <trkpt lat="45.83856" lon="4.65457">
        <ele>366.75269</ele>
        <time>2023-07-04T13:49:00.000Z</time>
      </trkpt>
      <trkpt lat="45.83859" lon="4.65451">
        <ele>366.64917</ele>
        <time>2023-07-04T13:49:01.000Z</time>
      </trkpt>
      <trkpt lat="45.83862" lon="4.65445">
        <ele>366.53778</ele>
        <time>2023-07-04T13:49:02.000Z</time>
      </trkpt>
      <trkpt lat="45.83865" lon="4.6544">
        <ele>366.44559</ele>
        <time>2023-07-04T13:49:03.000Z</time>
      </trkpt>
      <trkpt lat="45.83868" lon="4.65435">
        <ele>366.37885</ele>
        <time>2023-07-04T13:49:04.000Z</time>
      </trkpt>
      <trkpt lat="45.8387" lon="4.6543">
        <ele>366.31049</ele>
        <time>2023-07-04T13:49:05.000Z</time>
      </trkpt>
      <trkpt lat="45.83873" lon="4.65424">
        <ele>366.25665</ele>
        <time>2023-07-04T13:49:06.000Z</time>
      </trkpt>
      <trkpt lat="45.83876" lon="4.65419">
        <ele>366.20807</ele>
        <time>2023-07-04T13:49:07.000Z</time>
      </trkpt>
      <trkpt lat="45.83878" lon="4.65414">
        <ele>366.16946</ele>
        <time>2023-07-04T13:49:08.000Z</time>
      </trkpt>
      <trkpt lat="45.8388" lon="4.65408">
        <ele>366.12064</ele>
        <time>2023-07-04T13:49:09.000Z</time>
      </trkpt>
      <trkpt lat="45.83882" lon="4.65402">
        <ele>366.15927</ele>
        <time>2023-07-04T13:49:10.000Z</time>
      </trkpt>
      <trkpt lat="45.83883" lon="4.65396">
        <ele>366.49573</ele>
        <time>2023-07-04T13:49:11.000Z</time>
      </trkpt>
      <trkpt lat="45.83885" lon="4.6539">
        <ele>366.8382</ele>
        <time>2023-07-04T13:49:12.000Z</time>
      </trkpt>
      <trkpt lat="45.83887" lon="4.65385">
        <ele>367.19189</ele>
        <time>2023-07-04T13:49:13.000Z</time>
      </trkpt>
      <trkpt lat="45.83889" lon="4.65379">
        <ele>367.53094</ele>
        <time>2023-07-04T13:49:14.000Z</time>
      </trkpt>
      <trkpt lat="45.83891" lon="4.65374">
        <ele>367.85825</ele>
        <time>2023-07-04T13:49:15.000Z</time>
      </trkpt>
      <trkpt lat="45.83896" lon="4.65373">
        <ele>367.87921</ele>
        <time>2023-07-04T13:49:16.000Z</time>
      </trkpt>
      <trkpt lat="45.83899" lon="4.6537">
        <ele>367.90918</ele>
        <time>2023-07-04T13:49:17.000Z</time>
      </trkpt>
      <trkpt lat="45.83903" lon="4.65369">
        <ele>367.93243</ele>
        <time>2023-07-04T13:49:18.000Z</time>
      </trkpt>
      <trkpt lat="45.83907" lon="4.65367">
        <ele>367.96329</ele>
        <time>2023-07-04T13:49:19.000Z</time>
      </trkpt>
      <trkpt lat="45.83911" lon="4.65366">
        <ele>368.14908</ele>
        <time>2023-07-04T13:49:20.000Z</time>
      </trkpt>
      <trkpt lat="45.83914" lon="4.65367">
        <ele>368.53094</ele>
        <time>2023-07-04T13:49:21.000Z</time>
      </trkpt>
      <trkpt lat="45.83918" lon="4.65366">
        <ele>368.94791</ele>
        <time>2023-07-04T13:49:22.000Z</time>
      </trkpt>
      <trkpt lat="45.83921" lon="4.65365">
        <ele>369.35532</ele>
        <time>2023-07-04T13:49:23.000Z</time>
      </trkpt>
      <trkpt lat="45.83923" lon="4.65364">
        <ele>369.76132</ele>
        <time>2023-07-04T13:49:24.000Z</time>
      </trkpt>
      <trkpt lat="45.83927" lon="4.65364">
        <ele>370.181</ele>
        <time>2023-07-04T13:49:25.000Z</time>
      </trkpt>
      <trkpt lat="45.83931" lon="4.65363">
        <ele>370.59766</ele>
        <time>2023-07-04T13:49:26.000Z</time>
      </trkpt>
      <trkpt lat="45.83934" lon="4.65364">
        <ele>371.00784</ele>
        <time>2023-07-04T13:49:27.000Z</time>
      </trkpt>
      <trkpt lat="45.83938" lon="4.65364">
        <ele>371.43213</ele>
        <time>2023-07-04T13:49:28.000Z</time>
      </trkpt>
      <trkpt lat="45.83941" lon="4.65363">
        <ele>371.83978</ele>
        <time>2023-07-04T13:49:29.000Z</time>
      </trkpt>
      <trkpt lat="45.83945" lon="4.65362">
        <ele>372.27603</ele>
        <time>2023-07-04T13:49:30.000Z</time>
      </trkpt>
      <trkpt lat="45.83948" lon="4.6536">
        <ele>372.46707</ele>
        <time>2023-07-04T13:49:31.000Z</time>
      </trkpt>
      <trkpt lat="45.83951" lon="4.65358">
        <ele>372.68945</ele>
        <time>2023-07-04T13:49:32.000Z</time>
      </trkpt>
      <trkpt lat="45.83954" lon="4.65355">
        <ele>372.90521</ele>
        <time>2023-07-04T13:49:33.000Z</time>
      </trkpt>
      <trkpt lat="45.83957" lon="4.65354">
        <ele>373.11407</ele>
        <time>2023-07-04T13:49:34.000Z</time>
      </trkpt>
      <trkpt lat="45.8396" lon="4.65352">
        <ele>372.83243</ele>
        <time>2023-07-04T13:49:35.000Z</time>
      </trkpt>
      <trkpt lat="45.83962" lon="4.65351">
        <ele>372.43164</ele>
        <time>2023-07-04T13:49:36.000Z</time>
      </trkpt>
      <trkpt lat="45.83964" lon="4.6535">
        <ele>372.03802</ele>
        <time>2023-07-04T13:49:37.000Z</time>
      </trkpt>
      <trkpt lat="45.83966" lon="4.65348">
        <ele>371.64438</ele>
        <time>2023-07-04T13:49:38.000Z</time>
      </trkpt>
      <trkpt lat="45.83967" lon="4.65346">
        <ele>371.64185</ele>
        <time>2023-07-04T13:49:39.000Z</time>
      </trkpt>
      <trkpt lat="45.8397" lon="4.65344">
        <ele>371.53635</ele>
        <time>2023-07-04T13:49:41.000Z</time>
      </trkpt>
      <trkpt lat="45.83972" lon="4.65344">
        <ele>371.53787</ele>
        <time>2023-07-04T13:49:52.000Z</time>
      </trkpt>
      <trkpt lat="45.83974" lon="4.65343">
        <ele>371.64508</ele>
        <time>2023-07-04T13:50:13.000Z</time>
      </trkpt>
      <trkpt lat="45.83975" lon="4.65341">
        <ele>371.66962</ele>
        <time>2023-07-04T13:50:14.000Z</time>
      </trkpt>
      <trkpt lat="45.83977" lon="4.65339">
        <ele>371.6145</ele>
        <time>2023-07-04T13:50:15.000Z</time>
      </trkpt>
      <trkpt lat="45.83977" lon="4.65335">
        <ele>371.09659</ele>
        <time>2023-07-04T13:50:16.000Z</time>
      </trkpt>
      <trkpt lat="45.83977" lon="4.6533">
        <ele>370.97485</ele>
        <time>2023-07-04T13:50:17.000Z</time>
      </trkpt>
      <trkpt lat="45.83976" lon="4.65326">
        <ele>370.77118</ele>
        <time>2023-07-04T13:50:18.000Z</time>
      </trkpt>
      <trkpt lat="45.83973" lon="4.65322">
        <ele>370.99246</ele>
        <time>2023-07-04T13:50:19.000Z</time>
      </trkpt>
      <trkpt lat="45.8397" lon="4.65319">
        <ele>371.24771</ele>
        <time>2023-07-04T13:50:20.000Z</time>
      </trkpt>
      <trkpt lat="45.83966" lon="4.65315">
        <ele>371.49548</ele>
        <time>2023-07-04T13:50:21.000Z</time>
      </trkpt>
      <trkpt lat="45.83963" lon="4.65311">
        <ele>371.73932</ele>
        <time>2023-07-04T13:50:22.000Z</time>
      </trkpt>
      <trkpt lat="45.8396" lon="4.65307">
        <ele>371.96823</ele>
        <time>2023-07-04T13:50:23.000Z</time>
      </trkpt>
      <trkpt lat="45.83958" lon="4.65303">
        <ele>372.22818</ele>
        <time>2023-07-04T13:50:24.000Z</time>
      </trkpt>
      <trkpt lat="45.83955" lon="4.653">
        <ele>372.51508</ele>
        <time>2023-07-04T13:50:25.000Z</time>
      </trkpt>
      <trkpt lat="45.83953" lon="4.65296">
        <ele>373.28958</ele>
        <time>2023-07-04T13:50:26.000Z</time>
      </trkpt>
      <trkpt lat="45.8395" lon="4.65292">
        <ele>373.57257</ele>
        <time>2023-07-04T13:50:27.000Z</time>
      </trkpt>
      <trkpt lat="45.83948" lon="4.65289">
        <ele>374.02573</ele>
        <time>2023-07-04T13:50:28.000Z</time>
      </trkpt>
      <trkpt lat="45.83946" lon="4.65286">
        <ele>374.51694</ele>
        <time>2023-07-04T13:50:29.000Z</time>
      </trkpt>
      <trkpt lat="45.83944" lon="4.65283">
        <ele>374.62784</ele>
        <time>2023-07-04T13:50:30.000Z</time>
      </trkpt>
      <trkpt lat="45.83943" lon="4.65281">
        <ele>374.81766</ele>
        <time>2023-07-04T13:50:31.000Z</time>
      </trkpt>
      <trkpt lat="45.83942" lon="4.65278">
        <ele>374.86563</ele>
        <time>2023-07-04T13:50:32.000Z</time>
      </trkpt>
      <trkpt lat="45.8394" lon="4.65275">
        <ele>374.76349</ele>
        <time>2023-07-04T13:50:33.000Z</time>
      </trkpt>
      <trkpt lat="45.83938" lon="4.65272">
        <ele>374.76312</ele>
        <time>2023-07-04T13:50:34.000Z</time>
      </trkpt>
      <trkpt lat="45.83937" lon="4.65269">
        <ele>375.23526</ele>
        <time>2023-07-04T13:50:35.000Z</time>
      </trkpt>
      <trkpt lat="45.83936" lon="4.65266">
        <ele>376.21393</ele>
        <time>2023-07-04T13:50:36.000Z</time>
      </trkpt>
      <trkpt lat="45.83935" lon="4.65262">
        <ele>376.80621</ele>
        <time>2023-07-04T13:50:37.000Z</time>
      </trkpt>
      <trkpt lat="45.83936" lon="4.65258">
        <ele>377.4758</ele>
        <time>2023-07-04T13:50:38.000Z</time>
      </trkpt>
      <trkpt lat="45.83936" lon="4.65254">
        <ele>377.72906</ele>
        <time>2023-07-04T13:50:39.000Z</time>
      </trkpt>
      <trkpt lat="45.83937" lon="4.6525">
        <ele>377.96243</ele>
        <time>2023-07-04T13:50:40.000Z</time>
      </trkpt>
      <trkpt lat="45.83938" lon="4.65246">
        <ele>378.19968</ele>
        <time>2023-07-04T13:50:41.000Z</time>
      </trkpt>
      <trkpt lat="45.83938" lon="4.65243">
        <ele>378.36432</ele>
        <time>2023-07-04T13:50:42.000Z</time>
      </trkpt>
      <trkpt lat="45.83939" lon="4.65239">
        <ele>378.49066</ele>
        <time>2023-07-04T13:50:43.000Z</time>
      </trkpt>
      <trkpt lat="45.8394" lon="4.65236">
        <ele>378.50986</ele>
        <time>2023-07-04T13:50:44.000Z</time>
      </trkpt>
      <trkpt lat="45.83941" lon="4.65232">
        <ele>378.63553</ele>
        <time>2023-07-04T13:50:45.000Z</time>
      </trkpt>
      <trkpt lat="45.83942" lon="4.65228">
        <ele>378.70566</ele>
        <time>2023-07-04T13:50:46.000Z</time>
      </trkpt>
      <trkpt lat="45.83943" lon="4.65224">
        <ele>379.37091</ele>
        <time>2023-07-04T13:50:47.000Z</time>
      </trkpt>
      <trkpt lat="45.83943" lon="4.6522">
        <ele>379.77286</ele>
        <time>2023-07-04T13:50:48.000Z</time>
      </trkpt>
      <trkpt lat="45.83944" lon="4.65216">
        <ele>380.21426</ele>
        <time>2023-07-04T13:50:49.000Z</time>
      </trkpt>
      <trkpt lat="45.83943" lon="4.6521">
        <ele>380.6557</ele>
        <time>2023-07-04T13:50:50.000Z</time>
      </trkpt>
      <trkpt lat="45.83943" lon="4.65205">
        <ele>381.09729</ele>
        <time>2023-07-04T13:50:51.000Z</time>
      </trkpt>
      <trkpt lat="45.83942" lon="4.652">
        <ele>381.56769</ele>
        <time>2023-07-04T13:50:52.000Z</time>
      </trkpt>
      <trkpt lat="45.83941" lon="4.65194">
        <ele>381.97281</ele>
        <time>2023-07-04T13:50:53.000Z</time>
      </trkpt>
      <trkpt lat="45.8394" lon="4.65189">
        <ele>382.50443</ele>
        <time>2023-07-04T13:50:54.000Z</time>
      </trkpt>
      <trkpt lat="45.8394" lon="4.65184">
        <ele>382.57895</ele>
        <time>2023-07-04T13:50:55.000Z</time>
      </trkpt>
      <trkpt lat="45.8394" lon="4.65179">
        <ele>382.51596</ele>
        <time>2023-07-04T13:50:56.000Z</time>
      </trkpt>
      <trkpt lat="45.83939" lon="4.65174">
        <ele>382.56104</ele>
        <time>2023-07-04T13:50:57.000Z</time>
      </trkpt>
      <trkpt lat="45.83939" lon="4.6517">
        <ele>382.54083</ele>
        <time>2023-07-04T13:50:58.000Z</time>
      </trkpt>
      <trkpt lat="45.83938" lon="4.65166">
        <ele>382.47098</ele>
        <time>2023-07-04T13:50:59.000Z</time>
      </trkpt>
      <trkpt lat="45.83938" lon="4.65161">
        <ele>382.43448</ele>
        <time>2023-07-04T13:51:00.000Z</time>
      </trkpt>
      <trkpt lat="45.83938" lon="4.65157">
        <ele>382.41974</ele>
        <time>2023-07-04T13:51:01.000Z</time>
      </trkpt>
      <trkpt lat="45.83937" lon="4.65153">
        <ele>382.45175</ele>
        <time>2023-07-04T13:51:02.000Z</time>
      </trkpt>
      <trkpt lat="45.83938" lon="4.65149">
        <ele>382.45673</ele>
        <time>2023-07-04T13:51:03.000Z</time>
      </trkpt>
      <trkpt lat="45.83938" lon="4.65145">
        <ele>382.4892</ele>
        <time>2023-07-04T13:51:04.000Z</time>
      </trkpt>
      <trkpt lat="45.83937" lon="4.65142">
        <ele>382.5256</ele>
        <time>2023-07-04T13:51:05.000Z</time>
      </trkpt>
      <trkpt lat="45.83936" lon="4.65139">
        <ele>382.62933</ele>
        <time>2023-07-04T13:51:06.000Z</time>
      </trkpt>
      <trkpt lat="45.83935" lon="4.65137">
        <ele>382.81772</ele>
        <time>2023-07-04T13:51:07.000Z</time>
      </trkpt>
      <trkpt lat="45.83933" lon="4.65135">
        <ele>383.08218</ele>
        <time>2023-07-04T13:51:08.000Z</time>
      </trkpt>
      <trkpt lat="45.83932" lon="4.65133">
        <ele>383.29501</ele>
        <time>2023-07-04T13:51:09.000Z</time>
      </trkpt>
      <trkpt lat="45.83931" lon="4.65131">
        <ele>383.50671</ele>
        <time>2023-07-04T13:51:10.000Z</time>
      </trkpt>
      <trkpt lat="45.83929" lon="4.6513">
        <ele>383.73639</ele>
        <time>2023-07-04T13:51:11.000Z</time>
      </trkpt>
      <trkpt lat="45.83926" lon="4.6513">
        <ele>383.86191</ele>
        <time>2023-07-04T13:51:12.000Z</time>
      </trkpt>
      <trkpt lat="45.83924" lon="4.65132">
        <ele>384.01086</ele>
        <time>2023-07-04T13:51:13.000Z</time>
      </trkpt>
      <trkpt lat="45.83921" lon="4.65135">
        <ele>384.2193</ele>
        <time>2023-07-04T13:51:14.000Z</time>
      </trkpt>
      <trkpt lat="45.83919" lon="4.65138">
        <ele>384.45081</ele>
        <time>2023-07-04T13:51:15.000Z</time>
      </trkpt>
      <trkpt lat="45.83916" lon="4.65141">
        <ele>384.76791</ele>
        <time>2023-07-04T13:51:16.000Z</time>
      </trkpt>
      <trkpt lat="45.83913" lon="4.65144">
        <ele>384.97272</ele>
        <time>2023-07-04T13:51:17.000Z</time>
      </trkpt>
      <trkpt lat="45.83909" lon="4.65145">
        <ele>385.21857</ele>
        <time>2023-07-04T13:51:18.000Z</time>
      </trkpt>
      <trkpt lat="45.83905" lon="4.65147">
        <ele>385.49677</ele>
        <time>2023-07-04T13:51:19.000Z</time>
      </trkpt>
      <trkpt lat="45.83901" lon="4.65148">
        <ele>385.74017</ele>
        <time>2023-07-04T13:51:20.000Z</time>
      </trkpt>
      <trkpt lat="45.83897" lon="4.65149">
        <ele>385.94699</ele>
        <time>2023-07-04T13:51:21.000Z</time>
      </trkpt>
      <trkpt lat="45.83893" lon="4.6515">
        <ele>386.1524</ele>
        <time>2023-07-04T13:51:22.000Z</time>
      </trkpt>
      <trkpt lat="45.83888" lon="4.65151">
        <ele>386.39679</ele>
        <time>2023-07-04T13:51:23.000Z</time>
      </trkpt>
      <trkpt lat="45.83884" lon="4.65151">
        <ele>386.59882</ele>
        <time>2023-07-04T13:51:24.000Z</time>
      </trkpt>
      <trkpt lat="45.8388" lon="4.65152">
        <ele>386.62808</ele>
        <time>2023-07-04T13:51:25.000Z</time>
      </trkpt>
      <trkpt lat="45.83876" lon="4.65153">
        <ele>386.63995</ele>
        <time>2023-07-04T13:51:26.000Z</time>
      </trkpt>
      <trkpt lat="45.83872" lon="4.65153">
        <ele>386.77411</ele>
        <time>2023-07-04T13:51:27.000Z</time>
      </trkpt>
      <trkpt lat="45.83867" lon="4.65153">
        <ele>386.89038</ele>
        <time>2023-07-04T13:51:28.000Z</time>
      </trkpt>
      <trkpt lat="45.83863" lon="4.65154">
        <ele>386.99228</ele>
        <time>2023-07-04T13:51:29.000Z</time>
      </trkpt>
      <trkpt lat="45.83859" lon="4.65155">
        <ele>387.05988</ele>
        <time>2023-07-04T13:51:30.000Z</time>
      </trkpt>
      <trkpt lat="45.83855" lon="4.65156">
        <ele>387.12921</ele>
        <time>2023-07-04T13:51:31.000Z</time>
      </trkpt>
      <trkpt lat="45.83851" lon="4.65156">
        <ele>387.20633</ele>
        <time>2023-07-04T13:51:32.000Z</time>
      </trkpt>
      <trkpt lat="45.83846" lon="4.65157">
        <ele>387.2706</ele>
        <time>2023-07-04T13:51:33.000Z</time>
      </trkpt>
      <trkpt lat="45.83842" lon="4.65158">
        <ele>387.32758</ele>
        <time>2023-07-04T13:51:34.000Z</time>
      </trkpt>
      <trkpt lat="45.83838" lon="4.65159">
        <ele>387.39276</ele>
        <time>2023-07-04T13:51:35.000Z</time>
      </trkpt>
      <trkpt lat="45.83834" lon="4.6516">
        <ele>387.45929</ele>
        <time>2023-07-04T13:51:36.000Z</time>
      </trkpt>
      <trkpt lat="45.8383" lon="4.65161">
        <ele>387.50156</ele>
        <time>2023-07-04T13:51:37.000Z</time>
      </trkpt>
      <trkpt lat="45.83826" lon="4.65161">
        <ele>387.55658</ele>
        <time>2023-07-04T13:51:38.000Z</time>
      </trkpt>
      <trkpt lat="45.83822" lon="4.65162">
        <ele>387.61038</ele>
        <time>2023-07-04T13:51:39.000Z</time>
      </trkpt>
      <trkpt lat="45.83818" lon="4.65163">
        <ele>387.67618</ele>
        <time>2023-07-04T13:51:40.000Z</time>
      </trkpt>
      <trkpt lat="45.83814" lon="4.65164">
        <ele>387.74667</ele>
        <time>2023-07-04T13:51:41.000Z</time>
      </trkpt>
      <trkpt lat="45.8381" lon="4.65165">
        <ele>387.82111</ele>
        <time>2023-07-04T13:51:42.000Z</time>
      </trkpt>
      <trkpt lat="45.83806" lon="4.65165">
        <ele>387.89191</ele>
        <time>2023-07-04T13:51:43.000Z</time>
      </trkpt>
      <trkpt lat="45.83802" lon="4.65166">
        <ele>388.0556</ele>
        <time>2023-07-04T13:51:44.000Z</time>
      </trkpt>
      <trkpt lat="45.83799" lon="4.65166">
        <ele>388.28769</ele>
        <time>2023-07-04T13:51:45.000Z</time>
      </trkpt>
      <trkpt lat="45.83796" lon="4.65167">
        <ele>388.53949</ele>
        <time>2023-07-04T13:51:46.000Z</time>
      </trkpt>
      <trkpt lat="45.83793" lon="4.65167">
        <ele>388.61407</ele>
        <time>2023-07-04T13:51:47.000Z</time>
      </trkpt>
      <trkpt lat="45.83789" lon="4.65168">
        <ele>388.70679</ele>
        <time>2023-07-04T13:51:48.000Z</time>
      </trkpt>
      <trkpt lat="45.83786" lon="4.65168">
        <ele>388.60675</ele>
        <time>2023-07-04T13:51:49.000Z</time>
      </trkpt>
      <trkpt lat="45.83782" lon="4.65168">
        <ele>388.73718</ele>
        <time>2023-07-04T13:51:50.000Z</time>
      </trkpt>
      <trkpt lat="45.83779" lon="4.65167">
        <ele>388.76907</ele>
        <time>2023-07-04T13:51:51.000Z</time>
      </trkpt>
      <trkpt lat="45.83776" lon="4.65165">
        <ele>389.52469</ele>
        <time>2023-07-04T13:51:52.000Z</time>
      </trkpt>
      <trkpt lat="45.83774" lon="4.6516">
        <ele>389.70953</ele>
        <time>2023-07-04T13:51:53.000Z</time>
      </trkpt>
      <trkpt lat="45.83772" lon="4.65155">
        <ele>390.37653</ele>
        <time>2023-07-04T13:51:54.000Z</time>
      </trkpt>
      <trkpt lat="45.83771" lon="4.6515">
        <ele>391.07138</ele>
        <time>2023-07-04T13:51:55.000Z</time>
      </trkpt>
      <trkpt lat="45.83771" lon="4.65144">
        <ele>391.77228</ele>
        <time>2023-07-04T13:51:56.000Z</time>
      </trkpt>
      <trkpt lat="45.83773" lon="4.65138">
        <ele>391.76563</ele>
        <time>2023-07-04T13:51:57.000Z</time>
      </trkpt>
      <trkpt lat="45.83774" lon="4.65132">
        <ele>391.80731</ele>
        <time>2023-07-04T13:51:58.000Z</time>
      </trkpt>
      <trkpt lat="45.83775" lon="4.65126">
        <ele>391.84531</ele>
        <time>2023-07-04T13:51:59.000Z</time>
      </trkpt>
      <trkpt lat="45.83775" lon="4.65121">
        <ele>391.83099</ele>
        <time>2023-07-04T13:52:00.000Z</time>
      </trkpt>
      <trkpt lat="45.83776" lon="4.65115">
        <ele>391.96686</ele>
        <time>2023-07-04T13:52:01.000Z</time>
      </trkpt>
      <trkpt lat="45.83776" lon="4.6511">
        <ele>392.10382</ele>
        <time>2023-07-04T13:52:02.000Z</time>
      </trkpt>
      <trkpt lat="45.83776" lon="4.65104">
        <ele>392.25266</ele>
        <time>2023-07-04T13:52:03.000Z</time>
      </trkpt>
      <trkpt lat="45.83776" lon="4.65099">
        <ele>392.40802</ele>
        <time>2023-07-04T13:52:04.000Z</time>
      </trkpt>
      <trkpt lat="45.83776" lon="4.65095">
        <ele>392.55151</ele>
        <time>2023-07-04T13:52:05.000Z</time>
      </trkpt>
      <trkpt lat="45.83776" lon="4.65091">
        <ele>393.16217</ele>
        <time>2023-07-04T13:52:06.000Z</time>
      </trkpt>
      <trkpt lat="45.83777" lon="4.65087">
        <ele>393.8754</ele>
        <time>2023-07-04T13:52:07.000Z</time>
      </trkpt>
      <trkpt lat="45.83778" lon="4.65083">
        <ele>394.0152</ele>
        <time>2023-07-04T13:52:08.000Z</time>
      </trkpt>
      <trkpt lat="45.83779" lon="4.65079">
        <ele>394.35947</ele>
        <time>2023-07-04T13:52:09.000Z</time>
      </trkpt>
      <trkpt lat="45.83778" lon="4.65076">
        <ele>394.55038</ele>
        <time>2023-07-04T13:52:10.000Z</time>
      </trkpt>
      <trkpt lat="45.83777" lon="4.65073">
        <ele>394.66043</ele>
        <time>2023-07-04T13:52:11.000Z</time>
      </trkpt>
      <trkpt lat="45.83775" lon="4.65071">
        <ele>394.43439</ele>
        <time>2023-07-04T13:52:12.000Z</time>
      </trkpt>
      <trkpt lat="45.83772" lon="4.65073">
        <ele>394.70419</ele>
        <time>2023-07-04T13:52:14.000Z</time>
      </trkpt>
      <trkpt lat="45.83771" lon="4.65077">
        <ele>394.26276</ele>
        <time>2023-07-04T13:52:15.000Z</time>
      </trkpt>
      <trkpt lat="45.83772" lon="4.65082">
        <ele>393.81586</ele>
        <time>2023-07-04T13:52:16.000Z</time>
      </trkpt>
      <trkpt lat="45.83773" lon="4.65088">
        <ele>393.34836</ele>
        <time>2023-07-04T13:52:17.000Z</time>
      </trkpt>
      <trkpt lat="45.83773" lon="4.65094">
        <ele>393.58975</ele>
        <time>2023-07-04T13:52:18.000Z</time>
      </trkpt>
      <trkpt lat="45.83775" lon="4.65102">
        <ele>393.76251</ele>
        <time>2023-07-04T13:52:19.000Z</time>
      </trkpt>
      <trkpt lat="45.83775" lon="4.65109">
        <ele>393.91412</ele>
        <time>2023-07-04T13:52:20.000Z</time>
      </trkpt>
      <trkpt lat="45.83775" lon="4.65115">
        <ele>394.16553</ele>
        <time>2023-07-04T13:52:21.000Z</time>
      </trkpt>
      <trkpt lat="45.83774" lon="4.65121">
        <ele>394.28226</ele>
        <time>2023-07-04T13:52:22.000Z</time>
      </trkpt>
      <trkpt lat="45.83774" lon="4.65127">
        <ele>394.39801</ele>
        <time>2023-07-04T13:52:23.000Z</time>
      </trkpt>
      <trkpt lat="45.83774" lon="4.65133">
        <ele>394.51273</ele>
        <time>2023-07-04T13:52:24.000Z</time>
      </trkpt>
      <trkpt lat="45.83773" lon="4.65139">
        <ele>394.62573</ele>
        <time>2023-07-04T13:52:25.000Z</time>
      </trkpt>
      <trkpt lat="45.83773" lon="4.65145">
        <ele>392.49164</ele>
        <time>2023-07-04T13:52:26.000Z</time>
      </trkpt>
      <trkpt lat="45.83772" lon="4.65152">
        <ele>392.00427</ele>
        <time>2023-07-04T13:52:27.000Z</time>
      </trkpt>
      <trkpt lat="45.83771" lon="4.65159">
        <ele>391.39752</ele>
        <time>2023-07-04T13:52:28.000Z</time>
      </trkpt>
      <trkpt lat="45.83771" lon="4.65166">
        <ele>391.32776</ele>
        <time>2023-07-04T13:52:29.000Z</time>
      </trkpt>
      <trkpt lat="45.83769" lon="4.65171">
        <ele>391.24283</ele>
        <time>2023-07-04T13:52:30.000Z</time>
      </trkpt>
      <trkpt lat="45.83767" lon="4.65176">
        <ele>391.52948</ele>
        <time>2023-07-04T13:52:31.000Z</time>
      </trkpt>
      <trkpt lat="45.83761" lon="4.65175">
        <ele>391.55234</ele>
        <time>2023-07-04T13:52:32.000Z</time>
      </trkpt>
      <trkpt lat="45.83757" lon="4.65174">
        <ele>391.26559</ele>
        <time>2023-07-04T13:52:33.000Z</time>
      </trkpt>
      <trkpt lat="45.83753" lon="4.65175">
        <ele>391.10516</ele>
        <time>2023-07-04T13:52:34.000Z</time>
      </trkpt>
      <trkpt lat="45.8375" lon="4.65175">
        <ele>390.97968</ele>
        <time>2023-07-04T13:52:35.000Z</time>
      </trkpt>
      <trkpt lat="45.83745" lon="4.65176">
        <ele>390.74112</ele>
        <time>2023-07-04T13:52:36.000Z</time>
      </trkpt>
      <trkpt lat="45.83742" lon="4.65176">
        <ele>390.51733</ele>
        <time>2023-07-04T13:52:37.000Z</time>
      </trkpt>
      <trkpt lat="45.83738" lon="4.65176">
        <ele>390.31232</ele>
        <time>2023-07-04T13:52:38.000Z</time>
      </trkpt>
      <trkpt lat="45.83734" lon="4.65176">
        <ele>390.18515</ele>
        <time>2023-07-04T13:52:39.000Z</time>
      </trkpt>
      <trkpt lat="45.83729" lon="4.65177">
        <ele>390.0874</ele>
        <time>2023-07-04T13:52:40.000Z</time>
      </trkpt>
      <trkpt lat="45.83725" lon="4.65178">
        <ele>389.85498</ele>
        <time>2023-07-04T13:52:41.000Z</time>
      </trkpt>
      <trkpt lat="45.83721" lon="4.6518">
        <ele>389.59628</ele>
        <time>2023-07-04T13:52:42.000Z</time>
      </trkpt>
      <trkpt lat="45.83718" lon="4.65179">
        <ele>389.36337</ele>
        <time>2023-07-04T13:52:43.000Z</time>
      </trkpt>
      <trkpt lat="45.83715" lon="4.65177">
        <ele>389.10925</ele>
        <time>2023-07-04T13:52:44.000Z</time>
      </trkpt>
      <trkpt lat="45.83713" lon="4.65175">
        <ele>388.7814</ele>
        <time>2023-07-04T13:52:45.000Z</time>
      </trkpt>
      <trkpt lat="45.83711" lon="4.65172">
        <ele>390.73749</ele>
        <time>2023-07-04T13:52:46.000Z</time>
      </trkpt>
      <trkpt lat="45.8371" lon="4.65168">
        <ele>390.59586</ele>
        <time>2023-07-04T13:52:47.000Z</time>
      </trkpt>
      <trkpt lat="45.83709" lon="4.65161">
        <ele>390.5162</ele>
        <time>2023-07-04T13:52:48.000Z</time>
      </trkpt>
      <trkpt lat="45.83711" lon="4.65155">
        <ele>390.50256</ele>
        <time>2023-07-04T13:52:49.000Z</time>
      </trkpt>
      <trkpt lat="45.83712" lon="4.65148">
        <ele>390.57153</ele>
        <time>2023-07-04T13:52:50.000Z</time>
      </trkpt>
      <trkpt lat="45.83713" lon="4.65142">
        <ele>390.28571</ele>
        <time>2023-07-04T13:52:51.000Z</time>
      </trkpt>
      <trkpt lat="45.83715" lon="4.65136">
        <ele>390.42319</ele>
        <time>2023-07-04T13:52:52.000Z</time>
      </trkpt>
      <trkpt lat="45.83716" lon="4.6513">
        <ele>390.55951</ele>
        <time>2023-07-04T13:52:53.000Z</time>
      </trkpt>
      <trkpt lat="45.83718" lon="4.65124">
        <ele>390.71573</ele>
        <time>2023-07-04T13:52:54.000Z</time>
      </trkpt>
      <trkpt lat="45.83719" lon="4.65118">
        <ele>390.75699</ele>
        <time>2023-07-04T13:52:55.000Z</time>
      </trkpt>
      <trkpt lat="45.83719" lon="4.65112">
        <ele>390.95148</ele>
        <time>2023-07-04T13:52:56.000Z</time>
      </trkpt>
      <trkpt lat="45.8372" lon="4.65106">
        <ele>391.14874</ele>
        <time>2023-07-04T13:52:57.000Z</time>
      </trkpt>
      <trkpt lat="45.83721" lon="4.651">
        <ele>391.38031</ele>
        <time>2023-07-04T13:52:58.000Z</time>
      </trkpt>
      <trkpt lat="45.83721" lon="4.65094">
        <ele>391.58084</ele>
        <time>2023-07-04T13:52:59.000Z</time>
      </trkpt>
      <trkpt lat="45.83721" lon="4.65088">
        <ele>391.79022</ele>
        <time>2023-07-04T13:53:00.000Z</time>
      </trkpt>
      <trkpt lat="45.83721" lon="4.65082">
        <ele>392.08002</ele>
        <time>2023-07-04T13:53:01.000Z</time>
      </trkpt>
      <trkpt lat="45.83721" lon="4.65076">
        <ele>392.40375</ele>
        <time>2023-07-04T13:53:02.000Z</time>
      </trkpt>
      <trkpt lat="45.83721" lon="4.6507">
        <ele>392.71484</ele>
        <time>2023-07-04T13:53:03.000Z</time>
      </trkpt>
      <trkpt lat="45.83721" lon="4.65062">
        <ele>393.03851</ele>
        <time>2023-07-04T13:53:04.000Z</time>
      </trkpt>
      <trkpt lat="45.83721" lon="4.65055">
        <ele>393.43594</ele>
        <time>2023-07-04T13:53:05.000Z</time>
      </trkpt>
      <trkpt lat="45.8372" lon="4.65049">
        <ele>393.76974</ele>
        <time>2023-07-04T13:53:06.000Z</time>
      </trkpt>
      <trkpt lat="45.8372" lon="4.65043">
        <ele>394.05707</ele>
        <time>2023-07-04T13:53:07.000Z</time>
      </trkpt>
      <trkpt lat="45.8372" lon="4.65038">
        <ele>394.29337</ele>
        <time>2023-07-04T13:53:08.000Z</time>
      </trkpt>
      <trkpt lat="45.8372" lon="4.65031">
        <ele>394.52005</ele>
        <time>2023-07-04T13:53:09.000Z</time>
      </trkpt>
      <trkpt lat="45.83721" lon="4.65025">
        <ele>394.66193</ele>
        <time>2023-07-04T13:53:10.000Z</time>
      </trkpt>
      <trkpt lat="45.83721" lon="4.6502">
        <ele>394.75</ele>
        <time>2023-07-04T13:53:11.000Z</time>
      </trkpt>
      <trkpt lat="45.83722" lon="4.65014">
        <ele>394.77356</ele>
        <time>2023-07-04T13:53:12.000Z</time>
      </trkpt>
      <trkpt lat="45.83722" lon="4.65008">
        <ele>394.79828</ele>
        <time>2023-07-04T13:53:13.000Z</time>
      </trkpt>
      <trkpt lat="45.83723" lon="4.65002">
        <ele>394.81873</ele>
        <time>2023-07-04T13:53:14.000Z</time>
      </trkpt>
      <trkpt lat="45.83723" lon="4.64997">
        <ele>394.96317</ele>
        <time>2023-07-04T13:53:15.000Z</time>
      </trkpt>
      <trkpt lat="45.83724" lon="4.64991">
        <ele>395.07587</ele>
        <time>2023-07-04T13:53:16.000Z</time>
      </trkpt>
      <trkpt lat="45.83724" lon="4.64991">
        <ele>395.07587</ele>
        <time>2023-07-04T13:53:16.000Z</time>
      </trkpt>
      <trkpt lat="45.83724" lon="4.64979">
        <ele>393.4646</ele>
        <time>2023-07-04T13:53:18.000Z</time>
      </trkpt>
      <trkpt lat="45.83724" lon="4.64979">
        <ele>393.4646</ele>
        <time>2023-07-04T13:53:18.000Z</time>
      </trkpt>
      <trkpt lat="45.83725" lon="4.64974">
        <ele>393.44424</ele>
        <time>2023-07-04T13:53:19.000Z</time>
      </trkpt>
      <trkpt lat="45.83725" lon="4.64969">
        <ele>393.39835</ele>
        <time>2023-07-04T13:53:20.000Z</time>
      </trkpt>
      <trkpt lat="45.83725" lon="4.64965">
        <ele>393.90787</ele>
        <time>2023-07-04T13:53:21.000Z</time>
      </trkpt>
      <trkpt lat="45.83726" lon="4.6496">
        <ele>394.45117</ele>
        <time>2023-07-04T13:53:22.000Z</time>
      </trkpt>
      <trkpt lat="45.83726" lon="4.64956">
        <ele>394.97491</ele>
        <time>2023-07-04T13:53:23.000Z</time>
      </trkpt>
      <trkpt lat="45.83727" lon="4.64952">
        <ele>395.48727</ele>
        <time>2023-07-04T13:53:24.000Z</time>
      </trkpt>
      <trkpt lat="45.83728" lon="4.64948">
        <ele>395.66742</ele>
        <time>2023-07-04T13:53:25.000Z</time>
      </trkpt>
      <trkpt lat="45.83729" lon="4.64943">
        <ele>395.86746</ele>
        <time>2023-07-04T13:53:26.000Z</time>
      </trkpt>
      <trkpt lat="45.83729" lon="4.64939">
        <ele>396.76089</ele>
        <time>2023-07-04T13:53:27.000Z</time>
      </trkpt>
      <trkpt lat="45.83729" lon="4.64935">
        <ele>397.66431</ele>
        <time>2023-07-04T13:53:28.000Z</time>
      </trkpt>
      <trkpt lat="45.8373" lon="4.64931">
        <ele>398.64005</ele>
        <time>2023-07-04T13:53:29.000Z</time>
      </trkpt>
      <trkpt lat="45.8373" lon="4.64927">
        <ele>399.56198</ele>
        <time>2023-07-04T13:53:30.000Z</time>
      </trkpt>
      <trkpt lat="45.8373" lon="4.64923">
        <ele>400.4928</ele>
        <time>2023-07-04T13:53:31.000Z</time>
      </trkpt>
      <trkpt lat="45.8373" lon="4.64919">
        <ele>401.42389</ele>
        <time>2023-07-04T13:53:32.000Z</time>
      </trkpt>
      <trkpt lat="45.83731" lon="4.64915">
        <ele>402.46039</ele>
        <time>2023-07-04T13:53:33.000Z</time>
      </trkpt>
      <trkpt lat="45.83732" lon="4.64912">
        <ele>403.47198</ele>
        <time>2023-07-04T13:53:34.000Z</time>
      </trkpt>
      <trkpt lat="45.83733" lon="4.64909">
        <ele>404.04898</ele>
        <time>2023-07-04T13:53:35.000Z</time>
      </trkpt>
      <trkpt lat="45.83734" lon="4.64907">
        <ele>404.63852</ele>
        <time>2023-07-04T13:53:36.000Z</time>
      </trkpt>
      <trkpt lat="45.83735" lon="4.64904">
        <ele>405.25644</ele>
        <time>2023-07-04T13:53:37.000Z</time>
      </trkpt>
      <trkpt lat="45.83737" lon="4.649">
        <ele>407.38361</ele>
        <time>2023-07-04T13:53:38.000Z</time>
      </trkpt>
      <trkpt lat="45.83738" lon="4.64897">
        <ele>407.92212</ele>
        <time>2023-07-04T13:53:39.000Z</time>
      </trkpt>
      <trkpt lat="45.83739" lon="4.64894">
        <ele>408.46744</ele>
        <time>2023-07-04T13:53:40.000Z</time>
      </trkpt>
      <trkpt lat="45.8374" lon="4.6489">
        <ele>408.45859</ele>
        <time>2023-07-04T13:53:41.000Z</time>
      </trkpt>
      <trkpt lat="45.83741" lon="4.64888">
        <ele>408.4296</ele>
        <time>2023-07-04T13:53:42.000Z</time>
      </trkpt>
      <trkpt lat="45.83743" lon="4.64885">
        <ele>408.41745</ele>
        <time>2023-07-04T13:53:43.000Z</time>
      </trkpt>
      <trkpt lat="45.83746" lon="4.64883">
        <ele>408.37784</ele>
        <time>2023-07-04T13:53:44.000Z</time>
      </trkpt>
      <trkpt lat="45.83748" lon="4.6488">
        <ele>409.06006</ele>
        <time>2023-07-04T13:53:45.000Z</time>
      </trkpt>
      <trkpt lat="45.8375" lon="4.64878">
        <ele>409.72119</ele>
        <time>2023-07-04T13:53:46.000Z</time>
      </trkpt>
      <trkpt lat="45.83752" lon="4.64875">
        <ele>409.70206</ele>
        <time>2023-07-04T13:53:47.000Z</time>
      </trkpt>
      <trkpt lat="45.83754" lon="4.64873">
        <ele>409.69531</ele>
        <time>2023-07-04T13:53:48.000Z</time>
      </trkpt>
      <trkpt lat="45.83756" lon="4.64871">
        <ele>409.63068</ele>
        <time>2023-07-04T13:53:49.000Z</time>
      </trkpt>
      <trkpt lat="45.83758" lon="4.64869">
        <ele>409.6076</ele>
        <time>2023-07-04T13:53:50.000Z</time>
      </trkpt>
      <trkpt lat="45.8376" lon="4.64867">
        <ele>409.60117</ele>
        <time>2023-07-04T13:53:51.000Z</time>
      </trkpt>
      <trkpt lat="45.83763" lon="4.64864">
        <ele>410.19415</ele>
        <time>2023-07-04T13:53:52.000Z</time>
      </trkpt>
      <trkpt lat="45.83765" lon="4.64863">
        <ele>410.74326</ele>
        <time>2023-07-04T13:53:53.000Z</time>
      </trkpt>
      <trkpt lat="45.83767" lon="4.64861">
        <ele>411.32538</ele>
        <time>2023-07-04T13:53:54.000Z</time>
      </trkpt>
      <trkpt lat="45.83769" lon="4.6486">
        <ele>412.33951</ele>
        <time>2023-07-04T13:53:55.000Z</time>
      </trkpt>
      <trkpt lat="45.83771" lon="4.64858">
        <ele>413.32993</ele>
        <time>2023-07-04T13:53:56.000Z</time>
      </trkpt>
      <trkpt lat="45.83773" lon="4.64856">
        <ele>414.30029</ele>
        <time>2023-07-04T13:53:57.000Z</time>
      </trkpt>
      <trkpt lat="45.83775" lon="4.64855">
        <ele>415.48975</ele>
        <time>2023-07-04T13:53:58.000Z</time>
      </trkpt>
      <trkpt lat="45.83777" lon="4.64853">
        <ele>416.65045</ele>
        <time>2023-07-04T13:53:59.000Z</time>
      </trkpt>
      <trkpt lat="45.83779" lon="4.64851">
        <ele>417.80524</ele>
        <time>2023-07-04T13:54:00.000Z</time>
      </trkpt>
      <trkpt lat="45.83781" lon="4.64849">
        <ele>418.96738</ele>
        <time>2023-07-04T13:54:01.000Z</time>
      </trkpt>
      <trkpt lat="45.83783" lon="4.64847">
        <ele>420.1124</ele>
        <time>2023-07-04T13:54:02.000Z</time>
      </trkpt>
      <trkpt lat="45.83785" lon="4.64845">
        <ele>421.22787</ele>
        <time>2023-07-04T13:54:03.000Z</time>
      </trkpt>
      <trkpt lat="45.83787" lon="4.64843">
        <ele>422.36661</ele>
        <time>2023-07-04T13:54:04.000Z</time>
      </trkpt>
      <trkpt lat="45.83789" lon="4.64841">
        <ele>422.19531</ele>
        <time>2023-07-04T13:54:05.000Z</time>
      </trkpt>
      <trkpt lat="45.83791" lon="4.64839">
        <ele>422.00186</ele>
        <time>2023-07-04T13:54:06.000Z</time>
      </trkpt>
      <trkpt lat="45.83792" lon="4.64837">
        <ele>421.67075</ele>
        <time>2023-07-04T13:54:07.000Z</time>
      </trkpt>
      <trkpt lat="45.83794" lon="4.64835">
        <ele>421.30453</ele>
        <time>2023-07-04T13:54:08.000Z</time>
      </trkpt>
      <trkpt lat="45.83796" lon="4.64833">
        <ele>421.43881</ele>
        <time>2023-07-04T13:54:09.000Z</time>
      </trkpt>
      <trkpt lat="45.83798" lon="4.64831">
        <ele>421.46597</ele>
        <time>2023-07-04T13:54:10.000Z</time>
      </trkpt>
      <trkpt lat="45.838" lon="4.64829">
        <ele>421.48096</ele>
        <time>2023-07-04T13:54:11.000Z</time>
      </trkpt>
      <trkpt lat="45.83802" lon="4.64827">
        <ele>420.86652</ele>
        <time>2023-07-04T13:54:12.000Z</time>
      </trkpt>
      <trkpt lat="45.83803" lon="4.64825">
        <ele>420.24927</ele>
        <time>2023-07-04T13:54:13.000Z</time>
      </trkpt>
      <trkpt lat="45.83805" lon="4.64823">
        <ele>419.57611</ele>
        <time>2023-07-04T13:54:14.000Z</time>
      </trkpt>
      <trkpt lat="45.83807" lon="4.64821">
        <ele>418.88593</ele>
        <time>2023-07-04T13:54:15.000Z</time>
      </trkpt>
      <trkpt lat="45.83808" lon="4.64819">
        <ele>418.19302</ele>
        <time>2023-07-04T13:54:16.000Z</time>
      </trkpt>
      <trkpt lat="45.83809" lon="4.64817">
        <ele>417.50635</ele>
        <time>2023-07-04T13:54:17.000Z</time>
      </trkpt>
      <trkpt lat="45.83812" lon="4.64814">
        <ele>416.56747</ele>
        <time>2023-07-04T13:54:19.000Z</time>
      </trkpt>
      <trkpt lat="45.83814" lon="4.6481">
        <ele>415.62393</ele>
        <time>2023-07-04T13:54:21.000Z</time>
      </trkpt>
      <trkpt lat="45.83815" lon="4.64808">
        <ele>414.53223</ele>
        <time>2023-07-04T13:54:22.000Z</time>
      </trkpt>
      <trkpt lat="45.83817" lon="4.64807">
        <ele>413.86456</ele>
        <time>2023-07-04T13:54:23.000Z</time>
      </trkpt>
      <trkpt lat="45.83819" lon="4.64805">
        <ele>413.20059</ele>
        <time>2023-07-04T13:54:24.000Z</time>
      </trkpt>
      <trkpt lat="45.83821" lon="4.64803">
        <ele>412.55939</ele>
        <time>2023-07-04T13:54:25.000Z</time>
      </trkpt>
      <trkpt lat="45.83824" lon="4.648">
        <ele>411.95126</ele>
        <time>2023-07-04T13:54:26.000Z</time>
      </trkpt>
      <trkpt lat="45.83825" lon="4.64798">
        <ele>412.28253</ele>
        <time>2023-07-04T13:54:27.000Z</time>
      </trkpt>
      <trkpt lat="45.83827" lon="4.64796">
        <ele>412.6333</ele>
        <time>2023-07-04T13:54:28.000Z</time>
      </trkpt>
      <trkpt lat="45.83829" lon="4.64794">
        <ele>413.13281</ele>
        <time>2023-07-04T13:54:29.000Z</time>
      </trkpt>
      <trkpt lat="45.83831" lon="4.64792">
        <ele>413.67538</ele>
        <time>2023-07-04T13:54:30.000Z</time>
      </trkpt>
      <trkpt lat="45.83833" lon="4.6479">
        <ele>413.36768</ele>
        <time>2023-07-04T13:54:31.000Z</time>
      </trkpt>
      <trkpt lat="45.83835" lon="4.64788">
        <ele>413.15796</ele>
        <time>2023-07-04T13:54:32.000Z</time>
      </trkpt>
      <trkpt lat="45.83838" lon="4.64786">
        <ele>412.81235</ele>
        <time>2023-07-04T13:54:34.000Z</time>
      </trkpt>
      <trkpt lat="45.83839" lon="4.64785">
        <ele>412.952</ele>
        <time>2023-07-04T13:54:36.000Z</time>
      </trkpt>
      <trkpt lat="45.83842" lon="4.64784">
        <ele>413.65643</ele>
        <time>2023-07-04T13:54:42.000Z</time>
      </trkpt>
      <trkpt lat="45.83844" lon="4.64782">
        <ele>414.41904</ele>
        <time>2023-07-04T13:54:44.000Z</time>
      </trkpt>
      <trkpt lat="45.83845" lon="4.6478">
        <ele>415.19385</ele>
        <time>2023-07-04T13:54:45.000Z</time>
      </trkpt>
      <trkpt lat="45.83847" lon="4.64778">
        <ele>416.02109</ele>
        <time>2023-07-04T13:54:46.000Z</time>
      </trkpt>
      <trkpt lat="45.83849" lon="4.64776">
        <ele>416.81641</ele>
        <time>2023-07-04T13:54:47.000Z</time>
      </trkpt>
      <trkpt lat="45.83851" lon="4.64773">
        <ele>416.90829</ele>
        <time>2023-07-04T13:54:49.000Z</time>
      </trkpt>
      <trkpt lat="45.83854" lon="4.64771">
        <ele>417.23398</ele>
        <time>2023-07-04T13:54:50.000Z</time>
      </trkpt>
      <trkpt lat="45.83856" lon="4.64769">
        <ele>417.68661</ele>
        <time>2023-07-04T13:54:51.000Z</time>
      </trkpt>
      <trkpt lat="45.83859" lon="4.64766">
        <ele>418.39737</ele>
        <time>2023-07-04T13:54:52.000Z</time>
      </trkpt>
      <trkpt lat="45.8386" lon="4.64764">
        <ele>419.08774</ele>
        <time>2023-07-04T13:54:53.000Z</time>
      </trkpt>
      <trkpt lat="45.83862" lon="4.64761">
        <ele>419.75821</ele>
        <time>2023-07-04T13:54:54.000Z</time>
      </trkpt>
      <trkpt lat="45.83864" lon="4.64759">
        <ele>420.37564</ele>
        <time>2023-07-04T13:54:55.000Z</time>
      </trkpt>
      <trkpt lat="45.83866" lon="4.64757">
        <ele>420.97665</ele>
        <time>2023-07-04T13:54:56.000Z</time>
      </trkpt>
      <trkpt lat="45.8387" lon="4.64756">
        <ele>421.58466</ele>
        <time>2023-07-04T13:54:57.000Z</time>
      </trkpt>
      <trkpt lat="45.83873" lon="4.64754">
        <ele>422.18732</ele>
        <time>2023-07-04T13:54:58.000Z</time>
      </trkpt>
      <trkpt lat="45.83876" lon="4.64751">
        <ele>422.74823</ele>
        <time>2023-07-04T13:54:59.000Z</time>
      </trkpt>
      <trkpt lat="45.83878" lon="4.64748">
        <ele>423.61588</ele>
        <time>2023-07-04T13:55:00.000Z</time>
      </trkpt>
      <trkpt lat="45.83881" lon="4.64746">
        <ele>423.85376</ele>
        <time>2023-07-04T13:55:01.000Z</time>
      </trkpt>
      <trkpt lat="45.83884" lon="4.64744">
        <ele>424.20697</ele>
        <time>2023-07-04T13:55:02.000Z</time>
      </trkpt>
      <trkpt lat="45.83887" lon="4.64741">
        <ele>424.06625</ele>
        <time>2023-07-04T13:55:03.000Z</time>
      </trkpt>
      <trkpt lat="45.83891" lon="4.64739">
        <ele>423.96954</ele>
        <time>2023-07-04T13:55:04.000Z</time>
      </trkpt>
      <trkpt lat="45.83894" lon="4.64736">
        <ele>423.85126</ele>
        <time>2023-07-04T13:55:05.000Z</time>
      </trkpt>
      <trkpt lat="45.83898" lon="4.64733">
        <ele>423.71255</ele>
        <time>2023-07-04T13:55:06.000Z</time>
      </trkpt>
      <trkpt lat="45.83901" lon="4.64731">
        <ele>423.53354</ele>
        <time>2023-07-04T13:55:07.000Z</time>
      </trkpt>
      <trkpt lat="45.83905" lon="4.64728">
        <ele>423.36041</ele>
        <time>2023-07-04T13:55:08.000Z</time>
      </trkpt>
      <trkpt lat="45.83908" lon="4.64725">
        <ele>424.11728</ele>
        <time>2023-07-04T13:55:09.000Z</time>
      </trkpt>
      <trkpt lat="45.83911" lon="4.64723">
        <ele>424.62909</ele>
        <time>2023-07-04T13:55:10.000Z</time>
      </trkpt>
      <trkpt lat="45.83915" lon="4.6472">
        <ele>425.15887</ele>
        <time>2023-07-04T13:55:11.000Z</time>
      </trkpt>
      <trkpt lat="45.83918" lon="4.64717">
        <ele>424.2124</ele>
        <time>2023-07-04T13:55:12.000Z</time>
      </trkpt>
      <trkpt lat="45.83922" lon="4.64715">
        <ele>423.29279</ele>
        <time>2023-07-04T13:55:13.000Z</time>
      </trkpt>
      <trkpt lat="45.83926" lon="4.64712">
        <ele>422.15802</ele>
        <time>2023-07-04T13:55:14.000Z</time>
      </trkpt>
      <trkpt lat="45.8393" lon="4.64709">
        <ele>421.61792</ele>
        <time>2023-07-04T13:55:15.000Z</time>
      </trkpt>
      <trkpt lat="45.83935" lon="4.64706">
        <ele>421.06723</ele>
        <time>2023-07-04T13:55:16.000Z</time>
      </trkpt>
      <trkpt lat="45.83939" lon="4.64703">
        <ele>420.60556</ele>
        <time>2023-07-04T13:55:17.000Z</time>
      </trkpt>
      <trkpt lat="45.83941" lon="4.647">
        <ele>420.11053</ele>
        <time>2023-07-04T13:55:18.000Z</time>
      </trkpt>
      <trkpt lat="45.83941" lon="4.64696">
        <ele>419.76074</ele>
        <time>2023-07-04T13:55:19.000Z</time>
      </trkpt>
      <trkpt lat="45.8394" lon="4.64694">
        <ele>419.46231</ele>
        <time>2023-07-04T13:55:20.000Z</time>
      </trkpt>
      <trkpt lat="45.83938" lon="4.64693">
        <ele>419.77969</ele>
        <time>2023-07-04T13:55:21.000Z</time>
      </trkpt>
      <trkpt lat="45.83935" lon="4.64691">
        <ele>420.10345</ele>
        <time>2023-07-04T13:55:22.000Z</time>
      </trkpt>
      <trkpt lat="45.83933" lon="4.64688">
        <ele>420.55157</ele>
        <time>2023-07-04T13:55:23.000Z</time>
      </trkpt>
      <trkpt lat="45.8393" lon="4.64686">
        <ele>420.41089</ele>
        <time>2023-07-04T13:55:24.000Z</time>
      </trkpt>
      <trkpt lat="45.83928" lon="4.64683">
        <ele>420.28949</ele>
        <time>2023-07-04T13:55:25.000Z</time>
      </trkpt>
      <trkpt lat="45.83925" lon="4.6468">
        <ele>420.19263</ele>
        <time>2023-07-04T13:55:26.000Z</time>
      </trkpt>
      <trkpt lat="45.83923" lon="4.64678">
        <ele>420.09894</ele>
        <time>2023-07-04T13:55:27.000Z</time>
      </trkpt>
      <trkpt lat="45.83921" lon="4.64674">
        <ele>419.91611</ele>
        <time>2023-07-04T13:55:43.000Z</time>
      </trkpt>
      <trkpt lat="45.83919" lon="4.64671">
        <ele>419.75064</ele>
        <time>2023-07-04T13:55:44.000Z</time>
      </trkpt>
      <trkpt lat="45.83916" lon="4.64668">
        <ele>419.59766</ele>
        <time>2023-07-04T13:55:45.000Z</time>
      </trkpt>
      <trkpt lat="45.83914" lon="4.64665">
        <ele>419.42719</ele>
        <time>2023-07-04T13:55:46.000Z</time>
      </trkpt>
      <trkpt lat="45.8391" lon="4.64662">
        <ele>420.01807</ele>
        <time>2023-07-04T13:55:47.000Z</time>
      </trkpt>
      <trkpt lat="45.83907" lon="4.64658">
        <ele>420.59418</ele>
        <time>2023-07-04T13:55:48.000Z</time>
      </trkpt>
      <trkpt lat="45.83904" lon="4.64655">
        <ele>421.39365</ele>
        <time>2023-07-04T13:55:49.000Z</time>
      </trkpt>
      <trkpt lat="45.83901" lon="4.64651">
        <ele>421.60443</ele>
        <time>2023-07-04T13:55:50.000Z</time>
      </trkpt>
      <trkpt lat="45.83898" lon="4.64646">
        <ele>421.87787</ele>
        <time>2023-07-04T13:55:51.000Z</time>
      </trkpt>
      <trkpt lat="45.83895" lon="4.64641">
        <ele>422.05072</ele>
        <time>2023-07-04T13:55:52.000Z</time>
      </trkpt>
      <trkpt lat="45.83892" lon="4.64637">
        <ele>422.26239</ele>
        <time>2023-07-04T13:55:53.000Z</time>
      </trkpt>
      <trkpt lat="45.83889" lon="4.64632">
        <ele>422.36905</ele>
        <time>2023-07-04T13:55:54.000Z</time>
      </trkpt>
      <trkpt lat="45.83887" lon="4.64627">
        <ele>422.47394</ele>
        <time>2023-07-04T13:55:55.000Z</time>
      </trkpt>
      <trkpt lat="45.83884" lon="4.64622">
        <ele>422.60025</ele>
        <time>2023-07-04T13:55:56.000Z</time>
      </trkpt>
      <trkpt lat="45.83882" lon="4.64618">
        <ele>422.74521</ele>
        <time>2023-07-04T13:55:57.000Z</time>
      </trkpt>
      <trkpt lat="45.83879" lon="4.64613">
        <ele>422.78378</ele>
        <time>2023-07-04T13:55:58.000Z</time>
      </trkpt>
      <trkpt lat="45.83877" lon="4.64609">
        <ele>422.83472</ele>
        <time>2023-07-04T13:55:59.000Z</time>
      </trkpt>
      <trkpt lat="45.83875" lon="4.64604">
        <ele>422.88129</ele>
        <time>2023-07-04T13:56:00.000Z</time>
      </trkpt>
      <trkpt lat="45.83873" lon="4.64599">
        <ele>422.92831</ele>
        <time>2023-07-04T13:56:01.000Z</time>
      </trkpt>
      <trkpt lat="45.8387" lon="4.64594">
        <ele>422.98007</ele>
        <time>2023-07-04T13:56:02.000Z</time>
      </trkpt>
      <trkpt lat="45.83868" lon="4.64589">
        <ele>423.12265</ele>
        <time>2023-07-04T13:56:03.000Z</time>
      </trkpt>
      <trkpt lat="45.83866" lon="4.64584">
        <ele>423.25717</ele>
        <time>2023-07-04T13:56:04.000Z</time>
      </trkpt>
      <trkpt lat="45.83864" lon="4.64579">
        <ele>423.39288</ele>
        <time>2023-07-04T13:56:05.000Z</time>
      </trkpt>
      <trkpt lat="45.83863" lon="4.64574">
        <ele>423.52621</ele>
        <time>2023-07-04T13:56:06.000Z</time>
      </trkpt>
      <trkpt lat="45.83861" lon="4.64568">
        <ele>423.64951</ele>
        <time>2023-07-04T13:56:07.000Z</time>
      </trkpt>
      <trkpt lat="45.8386" lon="4.64563">
        <ele>423.78458</ele>
        <time>2023-07-04T13:56:08.000Z</time>
      </trkpt>
      <trkpt lat="45.83859" lon="4.64557">
        <ele>423.91806</ele>
        <time>2023-07-04T13:56:09.000Z</time>
      </trkpt>
      <trkpt lat="45.83857" lon="4.64552">
        <ele>424.03827</ele>
        <time>2023-07-04T13:56:10.000Z</time>
      </trkpt>
      <trkpt lat="45.83856" lon="4.64547">
        <ele>424.10431</ele>
        <time>2023-07-04T13:56:11.000Z</time>
      </trkpt>
      <trkpt lat="45.83854" lon="4.64542">
        <ele>424.26968</ele>
        <time>2023-07-04T13:56:12.000Z</time>
      </trkpt>
      <trkpt lat="45.83853" lon="4.64536">
        <ele>424.42474</ele>
        <time>2023-07-04T13:56:13.000Z</time>
      </trkpt>
      <trkpt lat="45.83851" lon="4.64531">
        <ele>424.56461</ele>
        <time>2023-07-04T13:56:14.000Z</time>
      </trkpt>
      <trkpt lat="45.83849" lon="4.64526">
        <ele>424.70132</ele>
        <time>2023-07-04T13:56:15.000Z</time>
      </trkpt>
      <trkpt lat="45.83848" lon="4.64521">
        <ele>424.81732</ele>
        <time>2023-07-04T13:56:16.000Z</time>
      </trkpt>
      <trkpt lat="45.83846" lon="4.64517">
        <ele>424.94318</ele>
        <time>2023-07-04T13:56:17.000Z</time>
      </trkpt>
      <trkpt lat="45.83844" lon="4.64512">
        <ele>425.04794</ele>
        <time>2023-07-04T13:56:18.000Z</time>
      </trkpt>
      <trkpt lat="45.83842" lon="4.64507">
        <ele>425.13916</ele>
        <time>2023-07-04T13:56:19.000Z</time>
      </trkpt>
      <trkpt lat="45.83841" lon="4.64502">
        <ele>425.23041</ele>
        <time>2023-07-04T13:56:20.000Z</time>
      </trkpt>
      <trkpt lat="45.83839" lon="4.64496">
        <ele>425.32608</ele>
        <time>2023-07-04T13:56:21.000Z</time>
      </trkpt>
      <trkpt lat="45.83837" lon="4.6449">
        <ele>425.41928</ele>
        <time>2023-07-04T13:56:22.000Z</time>
      </trkpt>
      <trkpt lat="45.83835" lon="4.64485">
        <ele>425.46231</ele>
        <time>2023-07-04T13:56:23.000Z</time>
      </trkpt>
      <trkpt lat="45.83833" lon="4.64479">
        <ele>425.50577</ele>
        <time>2023-07-04T13:56:24.000Z</time>
      </trkpt>
      <trkpt lat="45.8383" lon="4.64474">
        <ele>425.52524</ele>
        <time>2023-07-04T13:56:25.000Z</time>
      </trkpt>
      <trkpt lat="45.83828" lon="4.64468">
        <ele>425.54599</ele>
        <time>2023-07-04T13:56:26.000Z</time>
      </trkpt>
      <trkpt lat="45.83825" lon="4.64463">
        <ele>425.586</ele>
        <time>2023-07-04T13:56:27.000Z</time>
      </trkpt>
      <trkpt lat="45.83823" lon="4.64457">
        <ele>425.56537</ele>
        <time>2023-07-04T13:56:28.000Z</time>
      </trkpt>
      <trkpt lat="45.8382" lon="4.64451">
        <ele>425.6192</ele>
        <time>2023-07-04T13:56:29.000Z</time>
      </trkpt>
      <trkpt lat="45.83818" lon="4.64444">
        <ele>425.6713</ele>
        <time>2023-07-04T13:56:30.000Z</time>
      </trkpt>
      <trkpt lat="45.83816" lon="4.64439">
        <ele>425.72519</ele>
        <time>2023-07-04T13:56:31.000Z</time>
      </trkpt>
      <trkpt lat="45.83814" lon="4.64432">
        <ele>425.68277</ele>
        <time>2023-07-04T13:56:32.000Z</time>
      </trkpt>
      <trkpt lat="45.83811" lon="4.64426">
        <ele>425.6618</ele>
        <time>2023-07-04T13:56:33.000Z</time>
      </trkpt>
      <trkpt lat="45.83809" lon="4.6442">
        <ele>425.61777</ele>
        <time>2023-07-04T13:56:34.000Z</time>
      </trkpt>
      <trkpt lat="45.83806" lon="4.64414">
        <ele>425.56281</ele>
        <time>2023-07-04T13:56:35.000Z</time>
      </trkpt>
      <trkpt lat="45.83804" lon="4.64407">
        <ele>425.50323</ele>
        <time>2023-07-04T13:56:36.000Z</time>
      </trkpt>
      <trkpt lat="45.83801" lon="4.644">
        <ele>425.40829</ele>
        <time>2023-07-04T13:56:37.000Z</time>
      </trkpt>
      <trkpt lat="45.83799" lon="4.64394">
        <ele>425.31021</ele>
        <time>2023-07-04T13:56:38.000Z</time>
      </trkpt>
      <trkpt lat="45.83796" lon="4.64387">
        <ele>425.20612</ele>
        <time>2023-07-04T13:56:39.000Z</time>
      </trkpt>
      <trkpt lat="45.83793" lon="4.64381">
        <ele>425.10287</ele>
        <time>2023-07-04T13:56:40.000Z</time>
      </trkpt>
      <trkpt lat="45.8379" lon="4.64373">
        <ele>424.97772</ele>
        <time>2023-07-04T13:56:41.000Z</time>
      </trkpt>
      <trkpt lat="45.83787" lon="4.64366">
        <ele>424.84674</ele>
        <time>2023-07-04T13:56:42.000Z</time>
      </trkpt>
      <trkpt lat="45.83784" lon="4.6436">
        <ele>424.87042</ele>
        <time>2023-07-04T13:56:43.000Z</time>
      </trkpt>
      <trkpt lat="45.8378" lon="4.64354">
        <ele>424.87997</ele>
        <time>2023-07-04T13:56:44.000Z</time>
      </trkpt>
      <trkpt lat="45.83776" lon="4.64347">
        <ele>424.90292</ele>
        <time>2023-07-04T13:56:45.000Z</time>
      </trkpt>
      <trkpt lat="45.83773" lon="4.64342">
        <ele>424.9104</ele>
        <time>2023-07-04T13:56:46.000Z</time>
      </trkpt>
      <trkpt lat="45.8377" lon="4.64336">
        <ele>424.82657</ele>
        <time>2023-07-04T13:56:47.000Z</time>
      </trkpt>
      <trkpt lat="45.83766" lon="4.64331">
        <ele>424.75616</ele>
        <time>2023-07-04T13:56:48.000Z</time>
      </trkpt>
      <trkpt lat="45.83762" lon="4.64325">
        <ele>424.6127</ele>
        <time>2023-07-04T13:56:49.000Z</time>
      </trkpt>
      <trkpt lat="45.83758" lon="4.6432">
        <ele>424.4913</ele>
        <time>2023-07-04T13:56:50.000Z</time>
      </trkpt>
      <trkpt lat="45.83753" lon="4.64314">
        <ele>424.37042</ele>
        <time>2023-07-04T13:56:51.000Z</time>
      </trkpt>
      <trkpt lat="45.83749" lon="4.64309">
        <ele>424.27377</ele>
        <time>2023-07-04T13:56:52.000Z</time>
      </trkpt>
      <trkpt lat="45.83745" lon="4.64304">
        <ele>424.10312</ele>
        <time>2023-07-04T13:56:53.000Z</time>
      </trkpt>
      <trkpt lat="45.83741" lon="4.64298">
        <ele>424.06216</ele>
        <time>2023-07-04T13:56:54.000Z</time>
      </trkpt>
      <trkpt lat="45.83738" lon="4.64293">
        <ele>424.01553</ele>
        <time>2023-07-04T13:56:55.000Z</time>
      </trkpt>
      <trkpt lat="45.83733" lon="4.64288">
        <ele>423.97061</ele>
        <time>2023-07-04T13:56:56.000Z</time>
      </trkpt>
      <trkpt lat="45.83729" lon="4.64282">
        <ele>423.92563</ele>
        <time>2023-07-04T13:56:57.000Z</time>
      </trkpt>
      <trkpt lat="45.83725" lon="4.64275">
        <ele>423.88086</ele>
        <time>2023-07-04T13:56:58.000Z</time>
      </trkpt>
      <trkpt lat="45.83721" lon="4.64269">
        <ele>423.83749</ele>
        <time>2023-07-04T13:56:59.000Z</time>
      </trkpt>
      <trkpt lat="45.83717" lon="4.64264">
        <ele>423.78922</ele>
        <time>2023-07-04T13:57:00.000Z</time>
      </trkpt>
      <trkpt lat="45.83714" lon="4.64257">
        <ele>423.7579</ele>
        <time>2023-07-04T13:57:01.000Z</time>
      </trkpt>
      <trkpt lat="45.8371" lon="4.64251">
        <ele>423.71347</ele>
        <time>2023-07-04T13:57:02.000Z</time>
      </trkpt>
      <trkpt lat="45.83706" lon="4.64245">
        <ele>423.55508</ele>
        <time>2023-07-04T13:57:03.000Z</time>
      </trkpt>
      <trkpt lat="45.83701" lon="4.6424">
        <ele>423.41718</ele>
        <time>2023-07-04T13:57:04.000Z</time>
      </trkpt>
      <trkpt lat="45.83697" lon="4.64234">
        <ele>423.26227</ele>
        <time>2023-07-04T13:57:05.000Z</time>
      </trkpt>
      <trkpt lat="45.83694" lon="4.64227">
        <ele>423.1019</ele>
        <time>2023-07-04T13:57:06.000Z</time>
      </trkpt>
      <trkpt lat="45.83689" lon="4.64221">
        <ele>423.03116</ele>
        <time>2023-07-04T13:57:07.000Z</time>
      </trkpt>
      <trkpt lat="45.83685" lon="4.64215">
        <ele>422.98355</ele>
        <time>2023-07-04T13:57:08.000Z</time>
      </trkpt>
      <trkpt lat="45.83681" lon="4.64208">
        <ele>422.92133</ele>
        <time>2023-07-04T13:57:09.000Z</time>
      </trkpt>
      <trkpt lat="45.83675" lon="4.64201">
        <ele>422.84775</ele>
        <time>2023-07-04T13:57:10.000Z</time>
      </trkpt>
      <trkpt lat="45.8367" lon="4.64193">
        <ele>422.74731</ele>
        <time>2023-07-04T13:57:11.000Z</time>
      </trkpt>
      <trkpt lat="45.83665" lon="4.64186">
        <ele>422.6272</ele>
        <time>2023-07-04T13:57:12.000Z</time>
      </trkpt>
      <trkpt lat="45.83659" lon="4.64178">
        <ele>422.54282</ele>
        <time>2023-07-04T13:57:13.000Z</time>
      </trkpt>
      <trkpt lat="45.83653" lon="4.6417">
        <ele>422.33237</ele>
        <time>2023-07-04T13:57:14.000Z</time>
      </trkpt>
      <trkpt lat="45.83648" lon="4.64163">
        <ele>422.12134</ele>
        <time>2023-07-04T13:57:15.000Z</time>
      </trkpt>
      <trkpt lat="45.83642" lon="4.64154">
        <ele>421.8913</ele>
        <time>2023-07-04T13:57:16.000Z</time>
      </trkpt>
      <trkpt lat="45.83636" lon="4.64146">
        <ele>421.65387</ele>
        <time>2023-07-04T13:57:17.000Z</time>
      </trkpt>
      <trkpt lat="45.8363" lon="4.64138">
        <ele>421.4483</ele>
        <time>2023-07-04T13:57:18.000Z</time>
      </trkpt>
      <trkpt lat="45.83623" lon="4.64131">
        <ele>421.10254</ele>
        <time>2023-07-04T13:57:19.000Z</time>
      </trkpt>
      <trkpt lat="45.83616" lon="4.64123">
        <ele>420.74869</ele>
        <time>2023-07-04T13:57:20.000Z</time>
      </trkpt>
      <trkpt lat="45.83609" lon="4.64115">
        <ele>420.39252</ele>
        <time>2023-07-04T13:57:21.000Z</time>
      </trkpt>
      <trkpt lat="45.83603" lon="4.64107">
        <ele>420.02377</ele>
        <time>2023-07-04T13:57:22.000Z</time>
      </trkpt>
      <trkpt lat="45.83597" lon="4.64099">
        <ele>419.65619</ele>
        <time>2023-07-04T13:57:23.000Z</time>
      </trkpt>
      <trkpt lat="45.83591" lon="4.64091">
        <ele>419.27484</ele>
        <time>2023-07-04T13:57:24.000Z</time>
      </trkpt>
      <trkpt lat="45.83585" lon="4.64083">
        <ele>418.90619</ele>
        <time>2023-07-04T13:57:25.000Z</time>
      </trkpt>
      <trkpt lat="45.83578" lon="4.64076">
        <ele>418.5744</ele>
        <time>2023-07-04T13:57:26.000Z</time>
      </trkpt>
      <trkpt lat="45.83571" lon="4.64069">
        <ele>418.22192</ele>
        <time>2023-07-04T13:57:27.000Z</time>
      </trkpt>
      <trkpt lat="45.83565" lon="4.64062">
        <ele>417.86383</ele>
        <time>2023-07-04T13:57:28.000Z</time>
      </trkpt>
      <trkpt lat="45.83558" lon="4.64056">
        <ele>417.52313</ele>
        <time>2023-07-04T13:57:29.000Z</time>
      </trkpt>
      <trkpt lat="45.83552" lon="4.6405">
        <ele>417.17645</ele>
        <time>2023-07-04T13:57:30.000Z</time>
      </trkpt>
      <trkpt lat="45.83546" lon="4.64043">
        <ele>416.83731</ele>
        <time>2023-07-04T13:57:31.000Z</time>
      </trkpt>
      <trkpt lat="45.8354" lon="4.64036">
        <ele>416.48917</ele>
        <time>2023-07-04T13:57:32.000Z</time>
      </trkpt>
      <trkpt lat="45.83534" lon="4.64029">
        <ele>416.14853</ele>
        <time>2023-07-04T13:57:33.000Z</time>
      </trkpt>
      <trkpt lat="45.83528" lon="4.64021">
        <ele>415.71573</ele>
        <time>2023-07-04T13:57:34.000Z</time>
      </trkpt>
      <trkpt lat="45.83522" lon="4.64014">
        <ele>415.31534</ele>
        <time>2023-07-04T13:57:35.000Z</time>
      </trkpt>
      <trkpt lat="45.83516" lon="4.64007">
        <ele>414.92871</ele>
        <time>2023-07-04T13:57:36.000Z</time>
      </trkpt>
      <trkpt lat="45.8351" lon="4.64">
        <ele>414.54474</ele>
        <time>2023-07-04T13:57:37.000Z</time>
      </trkpt>
      <trkpt lat="45.83505" lon="4.63992">
        <ele>414.12656</ele>
        <time>2023-07-04T13:57:38.000Z</time>
      </trkpt>
      <trkpt lat="45.83499" lon="4.63988">
        <ele>413.90277</ele>
        <time>2023-07-04T13:57:39.000Z</time>
      </trkpt>
      <trkpt lat="45.83493" lon="4.63982">
        <ele>413.62836</ele>
        <time>2023-07-04T13:57:40.000Z</time>
      </trkpt>
      <trkpt lat="45.8349" lon="4.63977">
        <ele>413.37369</ele>
        <time>2023-07-04T13:57:41.000Z</time>
      </trkpt>
      <trkpt lat="45.8349" lon="4.63972">
        <ele>413.14185</ele>
        <time>2023-07-04T13:57:42.000Z</time>
      </trkpt>
      <trkpt lat="45.83494" lon="4.63968">
        <ele>412.89008</ele>
        <time>2023-07-04T13:57:43.000Z</time>
      </trkpt>
      <trkpt lat="45.83499" lon="4.6397">
        <ele>412.638</ele>
        <time>2023-07-04T13:57:44.000Z</time>
      </trkpt>
      <trkpt lat="45.83504" lon="4.63973">
        <ele>412.36191</ele>
        <time>2023-07-04T13:57:45.000Z</time>
      </trkpt>
      <trkpt lat="45.83511" lon="4.63975">
        <ele>412.06284</ele>
        <time>2023-07-04T13:57:46.000Z</time>
      </trkpt>
      <trkpt lat="45.83518" lon="4.63976">
        <ele>411.76089</ele>
        <time>2023-07-04T13:57:47.000Z</time>
      </trkpt>
      <trkpt lat="45.83526" lon="4.63975">
        <ele>411.42725</ele>
        <time>2023-07-04T13:57:48.000Z</time>
      </trkpt>
      <trkpt lat="45.83535" lon="4.63976">
        <ele>411.07755</ele>
        <time>2023-07-04T13:57:49.000Z</time>
      </trkpt>
      <trkpt lat="45.83544" lon="4.63977">
        <ele>410.71231</ele>
        <time>2023-07-04T13:57:50.000Z</time>
      </trkpt>
      <trkpt lat="45.83554" lon="4.63978">
        <ele>410.30508</ele>
        <time>2023-07-04T13:57:51.000Z</time>
      </trkpt>
      <trkpt lat="45.83564" lon="4.63978">
        <ele>409.88681</ele>
        <time>2023-07-04T13:57:52.000Z</time>
      </trkpt>
      <trkpt lat="45.83575" lon="4.6398">
        <ele>409.45035</ele>
        <time>2023-07-04T13:57:53.000Z</time>
      </trkpt>
      <trkpt lat="45.83586" lon="4.63981">
        <ele>409.07877</ele>
        <time>2023-07-04T13:57:54.000Z</time>
      </trkpt>
      <trkpt lat="45.83597" lon="4.63982">
        <ele>408.64194</ele>
        <time>2023-07-04T13:57:55.000Z</time>
      </trkpt>
      <trkpt lat="45.83608" lon="4.63983">
        <ele>408.18301</ele>
        <time>2023-07-04T13:57:56.000Z</time>
      </trkpt>
      <trkpt lat="45.8362" lon="4.63984">
        <ele>407.71274</ele>
        <time>2023-07-04T13:57:57.000Z</time>
      </trkpt>
      <trkpt lat="45.83631" lon="4.63985">
        <ele>407.20587</ele>
        <time>2023-07-04T13:57:58.000Z</time>
      </trkpt>
      <trkpt lat="45.83643" lon="4.63988">
        <ele>406.62866</ele>
        <time>2023-07-04T13:57:59.000Z</time>
      </trkpt>
      <trkpt lat="45.83655" lon="4.63989">
        <ele>406.07251</ele>
        <time>2023-07-04T13:58:00.000Z</time>
      </trkpt>
      <trkpt lat="45.83667" lon="4.63992">
        <ele>405.44928</ele>
        <time>2023-07-04T13:58:01.000Z</time>
      </trkpt>
      <trkpt lat="45.8368" lon="4.63994">
        <ele>404.79474</ele>
        <time>2023-07-04T13:58:02.000Z</time>
      </trkpt>
      <trkpt lat="45.83692" lon="4.63996">
        <ele>404.12622</ele>
        <time>2023-07-04T13:58:03.000Z</time>
      </trkpt>
      <trkpt lat="45.83703" lon="4.63998">
        <ele>403.40839</ele>
        <time>2023-07-04T13:58:04.000Z</time>
      </trkpt>
      <trkpt lat="45.83716" lon="4.63999">
        <ele>402.67432</ele>
        <time>2023-07-04T13:58:05.000Z</time>
      </trkpt>
      <trkpt lat="45.83729" lon="4.64">
        <ele>401.91516</ele>
        <time>2023-07-04T13:58:06.000Z</time>
      </trkpt>
      <trkpt lat="45.83742" lon="4.64003">
        <ele>401.11945</ele>
        <time>2023-07-04T13:58:07.000Z</time>
      </trkpt>
      <trkpt lat="45.83754" lon="4.64005">
        <ele>400.33051</ele>
        <time>2023-07-04T13:58:08.000Z</time>
      </trkpt>
      <trkpt lat="45.83767" lon="4.64009">
        <ele>399.54077</ele>
        <time>2023-07-04T13:58:09.000Z</time>
      </trkpt>
      <trkpt lat="45.83779" lon="4.64013">
        <ele>398.74036</ele>
        <time>2023-07-04T13:58:10.000Z</time>
      </trkpt>
      <trkpt lat="45.83793" lon="4.64015">
        <ele>397.92886</ele>
        <time>2023-07-04T13:58:11.000Z</time>
      </trkpt>
      <trkpt lat="45.83806" lon="4.64019">
        <ele>397.09235</ele>
        <time>2023-07-04T13:58:12.000Z</time>
      </trkpt>
      <trkpt lat="45.8382" lon="4.64022">
        <ele>396.23901</ele>
        <time>2023-07-04T13:58:13.000Z</time>
      </trkpt>
      <trkpt lat="45.83834" lon="4.64025">
        <ele>395.3699</ele>
        <time>2023-07-04T13:58:14.000Z</time>
      </trkpt>
      <trkpt lat="45.83848" lon="4.64028">
        <ele>394.50439</ele>
        <time>2023-07-04T13:58:15.000Z</time>
      </trkpt>
      <trkpt lat="45.83862" lon="4.64031">
        <ele>393.6246</ele>
        <time>2023-07-04T13:58:16.000Z</time>
      </trkpt>
      <trkpt lat="45.83876" lon="4.64036">
        <ele>392.75122</ele>
        <time>2023-07-04T13:58:17.000Z</time>
      </trkpt>
      <trkpt lat="45.8389" lon="4.6404">
        <ele>391.87393</ele>
        <time>2023-07-04T13:58:18.000Z</time>
      </trkpt>
      <trkpt lat="45.83903" lon="4.64047">
        <ele>390.98151</ele>
        <time>2023-07-04T13:58:19.000Z</time>
      </trkpt>
      <trkpt lat="45.83916" lon="4.64054">
        <ele>390.08841</ele>
        <time>2023-07-04T13:58:20.000Z</time>
      </trkpt>
      <trkpt lat="45.83928" lon="4.64064">
        <ele>389.20386</ele>
        <time>2023-07-04T13:58:21.000Z</time>
      </trkpt>
      <trkpt lat="45.83939" lon="4.64074">
        <ele>388.30035</ele>
        <time>2023-07-04T13:58:22.000Z</time>
      </trkpt>
      <trkpt lat="45.83951" lon="4.64082">
        <ele>387.39423</ele>
        <time>2023-07-04T13:58:23.000Z</time>
      </trkpt>
      <trkpt lat="45.83961" lon="4.64091">
        <ele>386.51227</ele>
        <time>2023-07-04T13:58:24.000Z</time>
      </trkpt>
      <trkpt lat="45.83972" lon="4.64098">
        <ele>385.62241</ele>
        <time>2023-07-04T13:58:25.000Z</time>
      </trkpt>
      <trkpt lat="45.83984" lon="4.64101">
        <ele>384.74435</ele>
        <time>2023-07-04T13:58:26.000Z</time>
      </trkpt>
      <trkpt lat="45.83997" lon="4.64101">
        <ele>383.87009</ele>
        <time>2023-07-04T13:58:27.000Z</time>
      </trkpt>
      <trkpt lat="45.84009" lon="4.64101">
        <ele>382.98981</ele>
        <time>2023-07-04T13:58:28.000Z</time>
      </trkpt>
      <trkpt lat="45.84022" lon="4.64102">
        <ele>382.07944</ele>
        <time>2023-07-04T13:58:29.000Z</time>
      </trkpt>
      <trkpt lat="45.84034" lon="4.64105">
        <ele>381.17194</ele>
        <time>2023-07-04T13:58:30.000Z</time>
      </trkpt>
      <trkpt lat="45.84047" lon="4.64109">
        <ele>380.31015</ele>
        <time>2023-07-04T13:58:31.000Z</time>
      </trkpt>
      <trkpt lat="45.84059" lon="4.64116">
        <ele>379.47095</ele>
        <time>2023-07-04T13:58:32.000Z</time>
      </trkpt>
      <trkpt lat="45.84072" lon="4.64124">
        <ele>378.66074</ele>
        <time>2023-07-04T13:58:33.000Z</time>
      </trkpt>
      <trkpt lat="45.84081" lon="4.64132">
        <ele>378.02164</ele>
        <time>2023-07-04T13:58:34.000Z</time>
      </trkpt>
      <trkpt lat="45.8409" lon="4.64138">
        <ele>377.3631</ele>
        <time>2023-07-04T13:58:35.000Z</time>
      </trkpt>
      <trkpt lat="45.84097" lon="4.64143">
        <ele>376.65186</ele>
        <time>2023-07-04T13:58:36.000Z</time>
      </trkpt>
      <trkpt lat="45.84107" lon="4.64151">
        <ele>375.94208</ele>
        <time>2023-07-04T13:58:37.000Z</time>
      </trkpt>
      <trkpt lat="45.84113" lon="4.64159">
        <ele>375.31158</ele>
        <time>2023-07-04T13:58:38.000Z</time>
      </trkpt>
      <trkpt lat="45.8412" lon="4.64166">
        <ele>374.58597</ele>
        <time>2023-07-04T13:58:39.000Z</time>
      </trkpt>
      <trkpt lat="45.84128" lon="4.64176">
        <ele>373.87167</ele>
        <time>2023-07-04T13:58:40.000Z</time>
      </trkpt>
      <trkpt lat="45.84135" lon="4.64184">
        <ele>373.14774</ele>
        <time>2023-07-04T13:58:41.000Z</time>
      </trkpt>
      <trkpt lat="45.8414" lon="4.64192">
        <ele>372.4772</ele>
        <time>2023-07-04T13:58:42.000Z</time>
      </trkpt>
      <trkpt lat="45.84144" lon="4.64198">
        <ele>371.82324</ele>
        <time>2023-07-04T13:58:43.000Z</time>
      </trkpt>
      <trkpt lat="45.84148" lon="4.642">
        <ele>371.17358</ele>
        <time>2023-07-04T13:58:44.000Z</time>
      </trkpt>
      <trkpt lat="45.84152" lon="4.642">
        <ele>370.55545</ele>
        <time>2023-07-04T13:58:45.000Z</time>
      </trkpt>
      <trkpt lat="45.84154" lon="4.642">
        <ele>369.97348</ele>
        <time>2023-07-04T13:58:47.000Z</time>
      </trkpt>
      <trkpt lat="45.84155" lon="4.64197">
        <ele>369.36655</ele>
        <time>2023-07-04T14:00:22.000Z</time>
      </trkpt>
      <trkpt lat="45.84156" lon="4.64192">
        <ele>368.79803</ele>
        <time>2023-07-04T14:00:24.000Z</time>
      </trkpt>
      <trkpt lat="45.84158" lon="4.6419">
        <ele>368.25824</ele>
        <time>2023-07-04T14:00:25.000Z</time>
      </trkpt>
      <trkpt lat="45.84159" lon="4.64188">
        <ele>367.76987</ele>
        <time>2023-07-04T14:00:26.000Z</time>
      </trkpt>
      <trkpt lat="45.84161" lon="4.64185">
        <ele>367.30594</ele>
        <time>2023-07-04T14:00:27.000Z</time>
      </trkpt>
      <trkpt lat="45.84161" lon="4.64181">
        <ele>366.86072</ele>
        <time>2023-07-04T14:00:28.000Z</time>
      </trkpt>
      <trkpt lat="45.84161" lon="4.64176">
        <ele>366.43002</ele>
        <time>2023-07-04T14:00:29.000Z</time>
      </trkpt>
      <trkpt lat="45.84159" lon="4.64172">
        <ele>365.86719</ele>
        <time>2023-07-04T14:00:30.000Z</time>
      </trkpt>
      <trkpt lat="45.84157" lon="4.64167">
        <ele>365.35831</ele>
        <time>2023-07-04T14:00:31.000Z</time>
      </trkpt>
      <trkpt lat="45.84154" lon="4.64162">
        <ele>364.96469</ele>
        <time>2023-07-04T14:00:32.000Z</time>
      </trkpt>
      <trkpt lat="45.84151" lon="4.64157">
        <ele>364.56659</ele>
        <time>2023-07-04T14:00:33.000Z</time>
      </trkpt>
      <trkpt lat="45.84148" lon="4.64151">
        <ele>364.13864</ele>
        <time>2023-07-04T14:00:34.000Z</time>
      </trkpt>
      <trkpt lat="45.84145" lon="4.64145">
        <ele>363.83545</ele>
        <time>2023-07-04T14:00:35.000Z</time>
      </trkpt>
      <trkpt lat="45.84142" lon="4.64139">
        <ele>363.57062</ele>
        <time>2023-07-04T14:00:36.000Z</time>
      </trkpt>
      <trkpt lat="45.8414" lon="4.64132">
        <ele>363.36017</ele>
        <time>2023-07-04T14:00:37.000Z</time>
      </trkpt>
      <trkpt lat="45.84137" lon="4.64124">
        <ele>363.14813</ele>
        <time>2023-07-04T14:00:38.000Z</time>
      </trkpt>
      <trkpt lat="45.84133" lon="4.64116">
        <ele>362.96454</ele>
        <time>2023-07-04T14:00:39.000Z</time>
      </trkpt>
      <trkpt lat="45.84129" lon="4.64109">
        <ele>362.80753</ele>
        <time>2023-07-04T14:00:40.000Z</time>
      </trkpt>
      <trkpt lat="45.84125" lon="4.64101">
        <ele>362.65668</ele>
        <time>2023-07-04T14:00:41.000Z</time>
      </trkpt>
      <trkpt lat="45.84121" lon="4.64093">
        <ele>362.51099</ele>
        <time>2023-07-04T14:00:42.000Z</time>
      </trkpt>
      <trkpt lat="45.84117" lon="4.64085">
        <ele>362.42938</ele>
        <time>2023-07-04T14:00:43.000Z</time>
      </trkpt>
      <trkpt lat="45.84114" lon="4.64076">
        <ele>362.35806</ele>
        <time>2023-07-04T14:00:44.000Z</time>
      </trkpt>
      <trkpt lat="45.84111" lon="4.64068">
        <ele>362.28455</ele>
        <time>2023-07-04T14:00:45.000Z</time>
      </trkpt>
      <trkpt lat="45.84107" lon="4.6406">
        <ele>362.21143</ele>
        <time>2023-07-04T14:00:46.000Z</time>
      </trkpt>
      <trkpt lat="45.84103" lon="4.64051">
        <ele>362.12112</ele>
        <time>2023-07-04T14:00:47.000Z</time>
      </trkpt>
      <trkpt lat="45.84099" lon="4.64043">
        <ele>362.02484</ele>
        <time>2023-07-04T14:00:48.000Z</time>
      </trkpt>
      <trkpt lat="45.84096" lon="4.64035">
        <ele>361.92462</ele>
        <time>2023-07-04T14:00:49.000Z</time>
      </trkpt>
      <trkpt lat="45.84093" lon="4.64026">
        <ele>361.83633</ele>
        <time>2023-07-04T14:00:50.000Z</time>
      </trkpt>
      <trkpt lat="45.84089" lon="4.64017">
        <ele>361.76401</ele>
        <time>2023-07-04T14:00:51.000Z</time>
      </trkpt>
      <trkpt lat="45.84085" lon="4.64008">
        <ele>361.67474</ele>
        <time>2023-07-04T14:00:52.000Z</time>
      </trkpt>
      <trkpt lat="45.84082" lon="4.64">
        <ele>361.58685</ele>
        <time>2023-07-04T14:00:53.000Z</time>
      </trkpt>
      <trkpt lat="45.84077" lon="4.63992">
        <ele>361.48248</ele>
        <time>2023-07-04T14:00:54.000Z</time>
      </trkpt>
      <trkpt lat="45.84073" lon="4.63983">
        <ele>361.36908</ele>
        <time>2023-07-04T14:00:55.000Z</time>
      </trkpt>
      <trkpt lat="45.84069" lon="4.63974">
        <ele>361.25012</ele>
        <time>2023-07-04T14:00:56.000Z</time>
      </trkpt>
      <trkpt lat="45.84065" lon="4.63965">
        <ele>361.12369</ele>
        <time>2023-07-04T14:00:57.000Z</time>
      </trkpt>
      <trkpt lat="45.84062" lon="4.63955">
        <ele>360.99103</ele>
        <time>2023-07-04T14:00:58.000Z</time>
      </trkpt>
      <trkpt lat="45.84059" lon="4.63946">
        <ele>360.89093</ele>
        <time>2023-07-04T14:00:59.000Z</time>
      </trkpt>
      <trkpt lat="45.84057" lon="4.63936">
        <ele>360.79507</ele>
        <time>2023-07-04T14:01:00.000Z</time>
      </trkpt>
      <trkpt lat="45.84057" lon="4.63926">
        <ele>360.46527</ele>
        <time>2023-07-04T14:01:01.000Z</time>
      </trkpt>
      <trkpt lat="45.84059" lon="4.63916">
        <ele>360.13263</ele>
        <time>2023-07-04T14:01:02.000Z</time>
      </trkpt>
      <trkpt lat="45.84061" lon="4.63907">
        <ele>359.81061</ele>
        <time>2023-07-04T14:01:03.000Z</time>
      </trkpt>
      <trkpt lat="45.84061" lon="4.63896">
        <ele>359.46469</ele>
        <time>2023-07-04T14:01:04.000Z</time>
      </trkpt>
      <trkpt lat="45.8406" lon="4.63887">
        <ele>359.14685</ele>
        <time>2023-07-04T14:01:05.000Z</time>
      </trkpt>
      <trkpt lat="45.84056" lon="4.63878">
        <ele>358.81085</ele>
        <time>2023-07-04T14:01:06.000Z</time>
      </trkpt>
      <trkpt lat="45.8405" lon="4.63872">
        <ele>358.48145</ele>
        <time>2023-07-04T14:01:07.000Z</time>
      </trkpt>
      <trkpt lat="45.84043" lon="4.63868">
        <ele>358.14017</ele>
        <time>2023-07-04T14:01:08.000Z</time>
      </trkpt>
      <trkpt lat="45.84036" lon="4.63863">
        <ele>357.78717</ele>
        <time>2023-07-04T14:01:09.000Z</time>
      </trkpt>
      <trkpt lat="45.8403" lon="4.63857">
        <ele>357.42355</ele>
        <time>2023-07-04T14:01:10.000Z</time>
      </trkpt>
      <trkpt lat="45.84024" lon="4.6385">
        <ele>357.02759</ele>
        <time>2023-07-04T14:01:11.000Z</time>
      </trkpt>
      <trkpt lat="45.84018" lon="4.63842">
        <ele>356.62656</ele>
        <time>2023-07-04T14:01:12.000Z</time>
      </trkpt>
      <trkpt lat="45.84012" lon="4.63833">
        <ele>356.22113</ele>
        <time>2023-07-04T14:01:13.000Z</time>
      </trkpt>
      <trkpt lat="45.84006" lon="4.63824">
        <ele>355.81805</ele>
        <time>2023-07-04T14:01:14.000Z</time>
      </trkpt>
      <trkpt lat="45.84001" lon="4.63814">
        <ele>355.41217</ele>
        <time>2023-07-04T14:01:15.000Z</time>
      </trkpt>
      <trkpt lat="45.83995" lon="4.63804">
        <ele>354.96802</ele>
        <time>2023-07-04T14:01:16.000Z</time>
      </trkpt>
      <trkpt lat="45.8399" lon="4.63793">
        <ele>354.49875</ele>
        <time>2023-07-04T14:01:17.000Z</time>
      </trkpt>
      <trkpt lat="45.83984" lon="4.63782">
        <ele>354.02014</ele>
        <time>2023-07-04T14:01:18.000Z</time>
      </trkpt>
      <trkpt lat="45.83978" lon="4.6377">
        <ele>353.48724</ele>
        <time>2023-07-04T14:01:19.000Z</time>
      </trkpt>
      <trkpt lat="45.83974" lon="4.63757">
        <ele>352.93652</ele>
        <time>2023-07-04T14:01:20.000Z</time>
      </trkpt>
      <trkpt lat="45.83969" lon="4.63744">
        <ele>352.83414</ele>
        <time>2023-07-04T14:01:21.000Z</time>
      </trkpt>
      <trkpt lat="45.83964" lon="4.63729">
        <ele>352.68451</ele>
        <time>2023-07-04T14:01:22.000Z</time>
      </trkpt>
      <trkpt lat="45.8396" lon="4.63714">
        <ele>352.51672</ele>
        <time>2023-07-04T14:01:23.000Z</time>
      </trkpt>
      <trkpt lat="45.83957" lon="4.63699">
        <ele>352.33032</ele>
        <time>2023-07-04T14:01:24.000Z</time>
      </trkpt>
      <trkpt lat="45.83954" lon="4.63684">
        <ele>352.10013</ele>
        <time>2023-07-04T14:01:25.000Z</time>
      </trkpt>
      <trkpt lat="45.83951" lon="4.63668">
        <ele>351.85498</ele>
        <time>2023-07-04T14:01:26.000Z</time>
      </trkpt>
      <trkpt lat="45.83949" lon="4.63652">
        <ele>351.6131</ele>
        <time>2023-07-04T14:01:27.000Z</time>
      </trkpt>
      <trkpt lat="45.83947" lon="4.63635">
        <ele>351.36804</ele>
        <time>2023-07-04T14:01:28.000Z</time>
      </trkpt>
      <trkpt lat="45.83946" lon="4.63619">
        <ele>351.12128</ele>
        <time>2023-07-04T14:01:29.000Z</time>
      </trkpt>
      <trkpt lat="45.83945" lon="4.63601">
        <ele>350.8952</ele>
        <time>2023-07-04T14:01:30.000Z</time>
      </trkpt>
      <trkpt lat="45.83944" lon="4.63584">
        <ele>350.66138</ele>
        <time>2023-07-04T14:01:31.000Z</time>
      </trkpt>
      <trkpt lat="45.83944" lon="4.63566">
        <ele>350.42261</ele>
        <time>2023-07-04T14:01:32.000Z</time>
      </trkpt>
      <trkpt lat="45.83945" lon="4.63548">
        <ele>350.19391</ele>
        <time>2023-07-04T14:01:33.000Z</time>
      </trkpt>
      <trkpt lat="45.83947" lon="4.63531">
        <ele>349.95859</ele>
        <time>2023-07-04T14:01:34.000Z</time>
      </trkpt>
      <trkpt lat="45.83949" lon="4.63512">
        <ele>349.70255</ele>
        <time>2023-07-04T14:01:35.000Z</time>
      </trkpt>
      <trkpt lat="45.8395" lon="4.63494">
        <ele>349.45386</ele>
        <time>2023-07-04T14:01:36.000Z</time>
      </trkpt>
      <trkpt lat="45.83952" lon="4.63476">
        <ele>349.203</ele>
        <time>2023-07-04T14:01:37.000Z</time>
      </trkpt>
      <trkpt lat="45.83955" lon="4.63459">
        <ele>348.92566</ele>
        <time>2023-07-04T14:01:38.000Z</time>
      </trkpt>
      <trkpt lat="45.83956" lon="4.63441">
        <ele>348.64789</ele>
        <time>2023-07-04T14:01:39.000Z</time>
      </trkpt>
      <trkpt lat="45.83958" lon="4.63424">
        <ele>348.35339</ele>
        <time>2023-07-04T14:01:40.000Z</time>
      </trkpt>
      <trkpt lat="45.8396" lon="4.63406">
        <ele>347.815</ele>
        <time>2023-07-04T14:01:41.000Z</time>
      </trkpt>
      <trkpt lat="45.83962" lon="4.63388">
        <ele>347.30576</ele>
        <time>2023-07-04T14:01:42.000Z</time>
      </trkpt>
      <trkpt lat="45.83963" lon="4.63371">
        <ele>346.76678</ele>
        <time>2023-07-04T14:01:43.000Z</time>
      </trkpt>
      <trkpt lat="45.83964" lon="4.63354">
        <ele>346.24118</ele>
        <time>2023-07-04T14:01:44.000Z</time>
      </trkpt>
      <trkpt lat="45.83964" lon="4.63336">
        <ele>345.74814</ele>
        <time>2023-07-04T14:01:45.000Z</time>
      </trkpt>
      <trkpt lat="45.83963" lon="4.63319">
        <ele>345.6987</ele>
        <time>2023-07-04T14:01:46.000Z</time>
      </trkpt>
      <trkpt lat="45.83961" lon="4.63302">
        <ele>345.66245</ele>
        <time>2023-07-04T14:01:47.000Z</time>
      </trkpt>
      <trkpt lat="45.8396" lon="4.63285">
        <ele>345.62875</ele>
        <time>2023-07-04T14:01:48.000Z</time>
      </trkpt>
      <trkpt lat="45.83958" lon="4.63268">
        <ele>345.60599</ele>
        <time>2023-07-04T14:01:49.000Z</time>
      </trkpt>
      <trkpt lat="45.83955" lon="4.63252">
        <ele>345.54883</ele>
        <time>2023-07-04T14:01:50.000Z</time>
      </trkpt>
      <trkpt lat="45.83952" lon="4.63236">
        <ele>345.81628</ele>
        <time>2023-07-04T14:01:51.000Z</time>
      </trkpt>
      <trkpt lat="45.83948" lon="4.6322">
        <ele>346.10651</ele>
        <time>2023-07-04T14:01:52.000Z</time>
      </trkpt>
      <trkpt lat="45.83944" lon="4.63204">
        <ele>345.42264</ele>
        <time>2023-07-04T14:01:53.000Z</time>
      </trkpt>
      <trkpt lat="45.8394" lon="4.63188">
        <ele>344.94553</ele>
        <time>2023-07-04T14:01:54.000Z</time>
      </trkpt>
      <trkpt lat="45.83935" lon="4.63172">
        <ele>344.50165</ele>
        <time>2023-07-04T14:01:55.000Z</time>
      </trkpt>
      <trkpt lat="45.83929" lon="4.63156">
        <ele>344.05402</ele>
        <time>2023-07-04T14:01:56.000Z</time>
      </trkpt>
      <trkpt lat="45.83925" lon="4.63141">
        <ele>343.59909</ele>
        <time>2023-07-04T14:01:57.000Z</time>
      </trkpt>
      <trkpt lat="45.8392" lon="4.63125">
        <ele>343.16895</ele>
        <time>2023-07-04T14:01:58.000Z</time>
      </trkpt>
      <trkpt lat="45.83915" lon="4.63109">
        <ele>342.73264</ele>
        <time>2023-07-04T14:01:59.000Z</time>
      </trkpt>
      <trkpt lat="45.83911" lon="4.63094">
        <ele>342.30072</ele>
        <time>2023-07-04T14:02:00.000Z</time>
      </trkpt>
      <trkpt lat="45.83907" lon="4.63078">
        <ele>341.86533</ele>
        <time>2023-07-04T14:02:01.000Z</time>
      </trkpt>
      <trkpt lat="45.83902" lon="4.63063">
        <ele>341.42297</ele>
        <time>2023-07-04T14:02:02.000Z</time>
      </trkpt>
      <trkpt lat="45.83898" lon="4.63048">
        <ele>341.02228</ele>
        <time>2023-07-04T14:02:03.000Z</time>
      </trkpt>
      <trkpt lat="45.83894" lon="4.63032">
        <ele>340.62347</ele>
        <time>2023-07-04T14:02:04.000Z</time>
      </trkpt>
      <trkpt lat="45.83891" lon="4.63017">
        <ele>340.19647</ele>
        <time>2023-07-04T14:02:05.000Z</time>
      </trkpt>
      <trkpt lat="45.83887" lon="4.63001">
        <ele>339.30795</ele>
        <time>2023-07-04T14:02:06.000Z</time>
      </trkpt>
      <trkpt lat="45.83883" lon="4.62985">
        <ele>338.38498</ele>
        <time>2023-07-04T14:02:07.000Z</time>
      </trkpt>
      <trkpt lat="45.83881" lon="4.6297">
        <ele>337.45209</ele>
        <time>2023-07-04T14:02:08.000Z</time>
      </trkpt>
      <trkpt lat="45.83877" lon="4.62954">
        <ele>337</ele>
        <time>2023-07-04T14:02:09.000Z</time>
      </trkpt>
      <trkpt lat="45.83874" lon="4.62937">
        <ele>336.55606</ele>
        <time>2023-07-04T14:02:10.000Z</time>
      </trkpt>
      <trkpt lat="45.83872" lon="4.6292">
        <ele>335.80096</ele>
        <time>2023-07-04T14:02:11.000Z</time>
      </trkpt>
      <trkpt lat="45.83871" lon="4.62904">
        <ele>335.01727</ele>
        <time>2023-07-04T14:02:12.000Z</time>
      </trkpt>
      <trkpt lat="45.8387" lon="4.62885">
        <ele>335.1991</ele>
        <time>2023-07-04T14:02:13.000Z</time>
      </trkpt>
      <trkpt lat="45.83871" lon="4.62867">
        <ele>335.18085</ele>
        <time>2023-07-04T14:02:14.000Z</time>
      </trkpt>
      <trkpt lat="45.83872" lon="4.62849">
        <ele>335.14444</ele>
        <time>2023-07-04T14:02:15.000Z</time>
      </trkpt>
      <trkpt lat="45.83873" lon="4.62831">
        <ele>335.13855</ele>
        <time>2023-07-04T14:02:16.000Z</time>
      </trkpt>
      <trkpt lat="45.83876" lon="4.62815">
        <ele>335.15317</ele>
        <time>2023-07-04T14:02:17.000Z</time>
      </trkpt>
      <trkpt lat="45.8388" lon="4.62799">
        <ele>335.16714</ele>
        <time>2023-07-04T14:02:18.000Z</time>
      </trkpt>
      <trkpt lat="45.83884" lon="4.62784">
        <ele>335.19482</ele>
        <time>2023-07-04T14:02:19.000Z</time>
      </trkpt>
      <trkpt lat="45.83889" lon="4.62769">
        <ele>335.23236</ele>
        <time>2023-07-04T14:02:20.000Z</time>
      </trkpt>
      <trkpt lat="45.83894" lon="4.62754">
        <ele>333.83786</ele>
        <time>2023-07-04T14:02:21.000Z</time>
      </trkpt>
      <trkpt lat="45.839" lon="4.62743">
        <ele>332.46744</ele>
        <time>2023-07-04T14:02:22.000Z</time>
      </trkpt>
      <trkpt lat="45.83907" lon="4.62732">
        <ele>332.43768</ele>
        <time>2023-07-04T14:02:23.000Z</time>
      </trkpt>
      <trkpt lat="45.83912" lon="4.62721">
        <ele>332.42535</ele>
        <time>2023-07-04T14:02:24.000Z</time>
      </trkpt>
      <trkpt lat="45.83918" lon="4.62711">
        <ele>332.44244</ele>
        <time>2023-07-04T14:02:25.000Z</time>
      </trkpt>
      <trkpt lat="45.83924" lon="4.62703">
        <ele>332.50375</ele>
        <time>2023-07-04T14:02:26.000Z</time>
      </trkpt>
      <trkpt lat="45.83929" lon="4.62693">
        <ele>332.59924</ele>
        <time>2023-07-04T14:02:27.000Z</time>
      </trkpt>
      <trkpt lat="45.83933" lon="4.62684">
        <ele>330.61215</ele>
        <time>2023-07-04T14:02:28.000Z</time>
      </trkpt>
      <trkpt lat="45.83937" lon="4.62675">
        <ele>330.17169</ele>
        <time>2023-07-04T14:02:29.000Z</time>
      </trkpt>
      <trkpt lat="45.8394" lon="4.62667">
        <ele>329.7294</ele>
        <time>2023-07-04T14:02:30.000Z</time>
      </trkpt>
      <trkpt lat="45.83943" lon="4.62659">
        <ele>329.2832</ele>
        <time>2023-07-04T14:02:31.000Z</time>
      </trkpt>
      <trkpt lat="45.83946" lon="4.6265">
        <ele>328.83771</ele>
        <time>2023-07-04T14:02:32.000Z</time>
      </trkpt>
      <trkpt lat="45.83948" lon="4.62642">
        <ele>328.39777</ele>
        <time>2023-07-04T14:02:33.000Z</time>
      </trkpt>
      <trkpt lat="45.8395" lon="4.62635">
        <ele>326.0188</ele>
        <time>2023-07-04T14:02:34.000Z</time>
      </trkpt>
      <trkpt lat="45.83952" lon="4.62628">
        <ele>325.47574</ele>
        <time>2023-07-04T14:02:35.000Z</time>
      </trkpt>
      <trkpt lat="45.83953" lon="4.62622">
        <ele>324.90302</ele>
        <time>2023-07-04T14:02:36.000Z</time>
      </trkpt>
      <trkpt lat="45.83954" lon="4.62617">
        <ele>324.32175</ele>
        <time>2023-07-04T14:02:37.000Z</time>
      </trkpt>
      <trkpt lat="45.83955" lon="4.62614">
        <ele>323.73175</ele>
        <time>2023-07-04T14:02:38.000Z</time>
      </trkpt>
      <trkpt lat="45.83956" lon="4.62611">
        <ele>323.12915</ele>
        <time>2023-07-04T14:02:39.000Z</time>
      </trkpt>
      <trkpt lat="45.83957" lon="4.6261">
        <ele>320.8522</ele>
        <time>2023-07-04T14:02:55.000Z</time>
      </trkpt>
      <trkpt lat="45.83957" lon="4.62604">
        <ele>321.59619</ele>
        <time>2023-07-04T14:02:57.000Z</time>
      </trkpt>
      <trkpt lat="45.83957" lon="4.62599">
        <ele>322.38229</ele>
        <time>2023-07-04T14:02:58.000Z</time>
      </trkpt>
      <trkpt lat="45.83957" lon="4.62594">
        <ele>321.87805</ele>
        <time>2023-07-04T14:02:59.000Z</time>
      </trkpt>
      <trkpt lat="45.83958" lon="4.62589">
        <ele>321.35007</ele>
        <time>2023-07-04T14:03:00.000Z</time>
      </trkpt>
      <trkpt lat="45.83958" lon="4.62583">
        <ele>319.23874</ele>
        <time>2023-07-04T14:03:01.000Z</time>
      </trkpt>
      <trkpt lat="45.83958" lon="4.62578">
        <ele>317.11823</ele>
        <time>2023-07-04T14:03:02.000Z</time>
      </trkpt>
      <trkpt lat="45.83958" lon="4.62572">
        <ele>314.98587</ele>
        <time>2023-07-04T14:03:03.000Z</time>
      </trkpt>
      <trkpt lat="45.83958" lon="4.62566">
        <ele>314.952</ele>
        <time>2023-07-04T14:03:04.000Z</time>
      </trkpt>
      <trkpt lat="45.83959" lon="4.6256">
        <ele>312.89917</ele>
        <time>2023-07-04T14:03:05.000Z</time>
      </trkpt>
      <trkpt lat="45.83958" lon="4.62553">
        <ele>310.88254</ele>
        <time>2023-07-04T14:03:06.000Z</time>
      </trkpt>
      <trkpt lat="45.83957" lon="4.62546">
        <ele>308.87457</ele>
        <time>2023-07-04T14:03:07.000Z</time>
      </trkpt>
      <trkpt lat="45.83957" lon="4.62538">
        <ele>306.88824</ele>
        <time>2023-07-04T14:03:08.000Z</time>
      </trkpt>
      <trkpt lat="45.83956" lon="4.6253">
        <ele>304.92566</ele>
        <time>2023-07-04T14:03:09.000Z</time>
      </trkpt>
      <trkpt lat="45.83954" lon="4.62523">
        <ele>304.93491</ele>
        <time>2023-07-04T14:03:10.000Z</time>
      </trkpt>
      <trkpt lat="45.83954" lon="4.62514">
        <ele>303.1153</ele>
        <time>2023-07-04T14:03:11.000Z</time>
      </trkpt>
      <trkpt lat="45.83952" lon="4.62506">
        <ele>301.30472</ele>
        <time>2023-07-04T14:03:12.000Z</time>
      </trkpt>
      <trkpt lat="45.8395" lon="4.62497">
        <ele>299.52264</ele>
        <time>2023-07-04T14:03:13.000Z</time>
      </trkpt>
      <trkpt lat="45.83947" lon="4.62488">
        <ele>297.74728</ele>
        <time>2023-07-04T14:03:14.000Z</time>
      </trkpt>
      <trkpt lat="45.83944" lon="4.62479">
        <ele>296.00183</ele>
        <time>2023-07-04T14:03:15.000Z</time>
      </trkpt>
      <trkpt lat="45.83941" lon="4.62469">
        <ele>295.93219</ele>
        <time>2023-07-04T14:03:16.000Z</time>
      </trkpt>
      <trkpt lat="45.83938" lon="4.62459">
        <ele>294.30804</ele>
        <time>2023-07-04T14:03:17.000Z</time>
      </trkpt>
      <trkpt lat="45.83935" lon="4.62449">
        <ele>292.63062</ele>
        <time>2023-07-04T14:03:18.000Z</time>
      </trkpt>
      <trkpt lat="45.83932" lon="4.62439">
        <ele>290.90088</ele>
        <time>2023-07-04T14:03:19.000Z</time>
      </trkpt>
      <trkpt lat="45.83929" lon="4.62428">
        <ele>289.17725</ele>
        <time>2023-07-04T14:03:20.000Z</time>
      </trkpt>
      <trkpt lat="45.83926" lon="4.62417">
        <ele>289.02621</ele>
        <time>2023-07-04T14:03:21.000Z</time>
      </trkpt>
      <trkpt lat="45.83922" lon="4.62405">
        <ele>288.87567</ele>
        <time>2023-07-04T14:03:22.000Z</time>
      </trkpt>
      <trkpt lat="45.83919" lon="4.62395">
        <ele>288.67133</ele>
        <time>2023-07-04T14:03:23.000Z</time>
      </trkpt>
      <trkpt lat="45.83915" lon="4.62384">
        <ele>288.45688</ele>
        <time>2023-07-04T14:03:24.000Z</time>
      </trkpt>
      <trkpt lat="45.83911" lon="4.62373">
        <ele>288.23376</ele>
        <time>2023-07-04T14:03:25.000Z</time>
      </trkpt>
      <trkpt lat="45.83907" lon="4.62361">
        <ele>287.9765</ele>
        <time>2023-07-04T14:03:26.000Z</time>
      </trkpt>
      <trkpt lat="45.83903" lon="4.6235">
        <ele>287.71463</ele>
        <time>2023-07-04T14:03:27.000Z</time>
      </trkpt>
      <trkpt lat="45.83898" lon="4.62339">
        <ele>287.37112</ele>
        <time>2023-07-04T14:03:28.000Z</time>
      </trkpt>
      <trkpt lat="45.83892" lon="4.62329">
        <ele>287.01221</ele>
        <time>2023-07-04T14:03:29.000Z</time>
      </trkpt>
      <trkpt lat="45.83886" lon="4.62319">
        <ele>286.66168</ele>
        <time>2023-07-04T14:03:30.000Z</time>
      </trkpt>
      <trkpt lat="45.8388" lon="4.62309">
        <ele>286.29449</ele>
        <time>2023-07-04T14:03:31.000Z</time>
      </trkpt>
      <trkpt lat="45.83874" lon="4.62301">
        <ele>285.90533</ele>
        <time>2023-07-04T14:03:32.000Z</time>
      </trkpt>
      <trkpt lat="45.83867" lon="4.62292">
        <ele>285.52661</ele>
        <time>2023-07-04T14:03:33.000Z</time>
      </trkpt>
      <trkpt lat="45.83859" lon="4.62283">
        <ele>285.15756</ele>
        <time>2023-07-04T14:03:34.000Z</time>
      </trkpt>
      <trkpt lat="45.83852" lon="4.62275">
        <ele>284.79388</ele>
        <time>2023-07-04T14:03:35.000Z</time>
      </trkpt>
      <trkpt lat="45.83846" lon="4.62267">
        <ele>284.43793</ele>
        <time>2023-07-04T14:03:36.000Z</time>
      </trkpt>
      <trkpt lat="45.83838" lon="4.6226">
        <ele>284.08548</ele>
        <time>2023-07-04T14:03:37.000Z</time>
      </trkpt>
      <trkpt lat="45.83831" lon="4.62253">
        <ele>283.70966</ele>
        <time>2023-07-04T14:03:38.000Z</time>
      </trkpt>
      <trkpt lat="45.83825" lon="4.62246">
        <ele>283.3526</ele>
        <time>2023-07-04T14:03:39.000Z</time>
      </trkpt>
      <trkpt lat="45.8382" lon="4.62239">
        <ele>283.0181</ele>
        <time>2023-07-04T14:03:40.000Z</time>
      </trkpt>
      <trkpt lat="45.83816" lon="4.62234">
        <ele>282.69769</ele>
        <time>2023-07-04T14:03:41.000Z</time>
      </trkpt>
      <trkpt lat="45.83812" lon="4.62231">
        <ele>282.38129</ele>
        <time>2023-07-04T14:03:42.000Z</time>
      </trkpt>
      <trkpt lat="45.83811" lon="4.62227">
        <ele>282.1188</ele>
        <time>2023-07-04T14:03:43.000Z</time>
      </trkpt>
      <trkpt lat="45.83809" lon="4.62223">
        <ele>281.91449</ele>
        <time>2023-07-04T14:03:45.000Z</time>
      </trkpt>
      <trkpt lat="45.83808" lon="4.6222">
        <ele>281.7395</ele>
        <time>2023-07-04T14:03:46.000Z</time>
      </trkpt>
      <trkpt lat="45.83808" lon="4.62215">
        <ele>281.55963</ele>
        <time>2023-07-04T14:03:47.000Z</time>
      </trkpt>
      <trkpt lat="45.83808" lon="4.62211">
        <ele>281.41965</ele>
        <time>2023-07-04T14:03:48.000Z</time>
      </trkpt>
      <trkpt lat="45.83808" lon="4.62206">
        <ele>281.35486</ele>
        <time>2023-07-04T14:03:49.000Z</time>
      </trkpt>
      <trkpt lat="45.83809" lon="4.62201">
        <ele>281.34436</ele>
        <time>2023-07-04T14:03:50.000Z</time>
      </trkpt>
      <trkpt lat="45.8381" lon="4.62195">
        <ele>281.27484</ele>
        <time>2023-07-04T14:03:51.000Z</time>
      </trkpt>
      <trkpt lat="45.83812" lon="4.62189">
        <ele>281.23553</ele>
        <time>2023-07-04T14:03:52.000Z</time>
      </trkpt>
      <trkpt lat="45.83814" lon="4.62185">
        <ele>281.22763</ele>
        <time>2023-07-04T14:03:53.000Z</time>
      </trkpt>
      <trkpt lat="45.83817" lon="4.6218">
        <ele>281.16867</ele>
        <time>2023-07-04T14:03:54.000Z</time>
      </trkpt>
      <trkpt lat="45.83821" lon="4.62179">
        <ele>281.11563</ele>
        <time>2023-07-04T14:03:55.000Z</time>
      </trkpt>
      <trkpt lat="45.83825" lon="4.62176">
        <ele>280.97314</ele>
        <time>2023-07-04T14:03:56.000Z</time>
      </trkpt>
      <trkpt lat="45.8383" lon="4.62176">
        <ele>280.85953</ele>
        <time>2023-07-04T14:03:57.000Z</time>
      </trkpt>
      <trkpt lat="45.83834" lon="4.62176">
        <ele>280.77307</ele>
        <time>2023-07-04T14:03:58.000Z</time>
      </trkpt>
      <trkpt lat="45.83839" lon="4.62175">
        <ele>280.73761</ele>
        <time>2023-07-04T14:03:59.000Z</time>
      </trkpt>
      <trkpt lat="45.83844" lon="4.62175">
        <ele>280.70618</ele>
        <time>2023-07-04T14:04:00.000Z</time>
      </trkpt>
      <trkpt lat="45.83848" lon="4.62174">
        <ele>280.63364</ele>
        <time>2023-07-04T14:04:01.000Z</time>
      </trkpt>
      <trkpt lat="45.83854" lon="4.62174">
        <ele>280.57968</ele>
        <time>2023-07-04T14:04:02.000Z</time>
      </trkpt>
      <trkpt lat="45.83859" lon="4.62174">
        <ele>280.52332</ele>
        <time>2023-07-04T14:04:03.000Z</time>
      </trkpt>
      <trkpt lat="45.83864" lon="4.62174">
        <ele>280.49359</ele>
        <time>2023-07-04T14:04:04.000Z</time>
      </trkpt>
      <trkpt lat="45.8387" lon="4.62175">
        <ele>280.41309</ele>
        <time>2023-07-04T14:04:05.000Z</time>
      </trkpt>
      <trkpt lat="45.83875" lon="4.62175">
        <ele>280.32944</ele>
        <time>2023-07-04T14:04:06.000Z</time>
      </trkpt>
      <trkpt lat="45.83881" lon="4.62175">
        <ele>280.27957</ele>
        <time>2023-07-04T14:04:07.000Z</time>
      </trkpt>
      <trkpt lat="45.83887" lon="4.62175">
        <ele>280.20612</ele>
        <time>2023-07-04T14:04:08.000Z</time>
      </trkpt>
      <trkpt lat="45.83893" lon="4.62176">
        <ele>280.07928</ele>
        <time>2023-07-04T14:04:09.000Z</time>
      </trkpt>
      <trkpt lat="45.83899" lon="4.62176">
        <ele>279.90628</ele>
        <time>2023-07-04T14:04:10.000Z</time>
      </trkpt>
      <trkpt lat="45.83905" lon="4.62176">
        <ele>279.77216</ele>
        <time>2023-07-04T14:04:11.000Z</time>
      </trkpt>
      <trkpt lat="45.83911" lon="4.62177">
        <ele>279.60825</ele>
        <time>2023-07-04T14:04:12.000Z</time>
      </trkpt>
      <trkpt lat="45.83917" lon="4.62179">
        <ele>279.44794</ele>
        <time>2023-07-04T14:04:13.000Z</time>
      </trkpt>
      <trkpt lat="45.83923" lon="4.6218">
        <ele>279.32156</ele>
        <time>2023-07-04T14:04:14.000Z</time>
      </trkpt>
      <trkpt lat="45.8393" lon="4.62181">
        <ele>279.2171</ele>
        <time>2023-07-04T14:04:15.000Z</time>
      </trkpt>
      <trkpt lat="45.83936" lon="4.62183">
        <ele>279.1727</ele>
        <time>2023-07-04T14:04:16.000Z</time>
      </trkpt>
      <trkpt lat="45.83942" lon="4.62186">
        <ele>279.12354</ele>
        <time>2023-07-04T14:04:17.000Z</time>
      </trkpt>
      <trkpt lat="45.83947" lon="4.62189">
        <ele>279.02417</ele>
        <time>2023-07-04T14:04:18.000Z</time>
      </trkpt>
      <trkpt lat="45.83953" lon="4.62193">
        <ele>278.92734</ele>
        <time>2023-07-04T14:04:19.000Z</time>
      </trkpt>
      <trkpt lat="45.83959" lon="4.62197">
        <ele>278.83496</ele>
        <time>2023-07-04T14:04:20.000Z</time>
      </trkpt>
      <trkpt lat="45.83964" lon="4.62201">
        <ele>278.76773</ele>
        <time>2023-07-04T14:04:21.000Z</time>
      </trkpt>
      <trkpt lat="45.8397" lon="4.62204">
        <ele>278.68881</ele>
        <time>2023-07-04T14:04:22.000Z</time>
      </trkpt>
      <trkpt lat="45.83976" lon="4.62208">
        <ele>278.59924</ele>
        <time>2023-07-04T14:04:23.000Z</time>
      </trkpt>
      <trkpt lat="45.83982" lon="4.62211">
        <ele>278.47089</ele>
        <time>2023-07-04T14:04:24.000Z</time>
      </trkpt>
      <trkpt lat="45.83987" lon="4.62216">
        <ele>278.35678</ele>
        <time>2023-07-04T14:04:25.000Z</time>
      </trkpt>
      <trkpt lat="45.83992" lon="4.62221">
        <ele>278.23251</ele>
        <time>2023-07-04T14:04:26.000Z</time>
      </trkpt>
      <trkpt lat="45.83998" lon="4.62226">
        <ele>278.09698</ele>
        <time>2023-07-04T14:04:27.000Z</time>
      </trkpt>
      <trkpt lat="45.84003" lon="4.62232">
        <ele>277.9498</ele>
        <time>2023-07-04T14:04:28.000Z</time>
      </trkpt>
      <trkpt lat="45.84007" lon="4.62237">
        <ele>277.84903</ele>
        <time>2023-07-04T14:04:29.000Z</time>
      </trkpt>
      <trkpt lat="45.84012" lon="4.62244">
        <ele>277.81586</ele>
        <time>2023-07-04T14:04:30.000Z</time>
      </trkpt>
      <trkpt lat="45.84017" lon="4.6225">
        <ele>277.79797</ele>
        <time>2023-07-04T14:04:31.000Z</time>
      </trkpt>
      <trkpt lat="45.84021" lon="4.62257">
        <ele>277.81747</ele>
        <time>2023-07-04T14:04:32.000Z</time>
      </trkpt>
      <trkpt lat="45.84025" lon="4.62263">
        <ele>277.82159</ele>
        <time>2023-07-04T14:04:33.000Z</time>
      </trkpt>
      <trkpt lat="45.84028" lon="4.62269">
        <ele>277.8302</ele>
        <time>2023-07-04T14:04:34.000Z</time>
      </trkpt>
      <trkpt lat="45.84032" lon="4.62275">
        <ele>277.81992</ele>
        <time>2023-07-04T14:04:35.000Z</time>
      </trkpt>
      <trkpt lat="45.84035" lon="4.62282">
        <ele>277.82962</ele>
        <time>2023-07-04T14:04:36.000Z</time>
      </trkpt>
      <trkpt lat="45.84037" lon="4.6229">
        <ele>277.80933</ele>
        <time>2023-07-04T14:04:37.000Z</time>
      </trkpt>
      <trkpt lat="45.8404" lon="4.62298">
        <ele>277.84244</ele>
        <time>2023-07-04T14:04:38.000Z</time>
      </trkpt>
      <trkpt lat="45.84042" lon="4.62306">
        <ele>277.83209</ele>
        <time>2023-07-04T14:04:39.000Z</time>
      </trkpt>
      <trkpt lat="45.84044" lon="4.62313">
        <ele>277.79327</ele>
        <time>2023-07-04T14:04:40.000Z</time>
      </trkpt>
      <trkpt lat="45.84045" lon="4.62321">
        <ele>277.75586</ele>
        <time>2023-07-04T14:04:41.000Z</time>
      </trkpt>
      <trkpt lat="45.84046" lon="4.62328">
        <ele>277.70419</ele>
        <time>2023-07-04T14:04:42.000Z</time>
      </trkpt>
      <trkpt lat="45.84047" lon="4.62335">
        <ele>277.66605</ele>
        <time>2023-07-04T14:04:43.000Z</time>
      </trkpt>
      <trkpt lat="45.84048" lon="4.62342">
        <ele>277.6618</ele>
        <time>2023-07-04T14:04:44.000Z</time>
      </trkpt>
      <trkpt lat="45.84047" lon="4.62349">
        <ele>277.66162</ele>
        <time>2023-07-04T14:04:45.000Z</time>
      </trkpt>
      <trkpt lat="45.84048" lon="4.62356">
        <ele>277.65909</ele>
        <time>2023-07-04T14:04:46.000Z</time>
      </trkpt>
      <trkpt lat="45.84048" lon="4.62363">
        <ele>277.67645</ele>
        <time>2023-07-04T14:04:47.000Z</time>
      </trkpt>
      <trkpt lat="45.84047" lon="4.6237">
        <ele>277.70514</ele>
        <time>2023-07-04T14:04:48.000Z</time>
      </trkpt>
      <trkpt lat="45.84047" lon="4.62377">
        <ele>277.7384</ele>
        <time>2023-07-04T14:04:49.000Z</time>
      </trkpt>
      <trkpt lat="45.84045" lon="4.62383">
        <ele>277.69034</ele>
        <time>2023-07-04T14:04:50.000Z</time>
      </trkpt>
      <trkpt lat="45.84045" lon="4.6239">
        <ele>277.61533</ele>
        <time>2023-07-04T14:04:51.000Z</time>
      </trkpt>
      <trkpt lat="45.84044" lon="4.62397">
        <ele>277.51883</ele>
        <time>2023-07-04T14:04:52.000Z</time>
      </trkpt>
      <trkpt lat="45.84043" lon="4.62403">
        <ele>277.46902</ele>
        <time>2023-07-04T14:04:53.000Z</time>
      </trkpt>
      <trkpt lat="45.84043" lon="4.62408">
        <ele>277.42969</ele>
        <time>2023-07-04T14:04:54.000Z</time>
      </trkpt>
      <trkpt lat="45.84043" lon="4.62414">
        <ele>277.45624</ele>
        <time>2023-07-04T14:04:55.000Z</time>
      </trkpt>
      <trkpt lat="45.84043" lon="4.62421">
        <ele>277.50116</ele>
        <time>2023-07-04T14:04:56.000Z</time>
      </trkpt>
      <trkpt lat="45.84043" lon="4.62427">
        <ele>277.6076</ele>
        <time>2023-07-04T14:04:57.000Z</time>
      </trkpt>
      <trkpt lat="45.84043" lon="4.62432">
        <ele>277.57513</ele>
        <time>2023-07-04T14:04:58.000Z</time>
      </trkpt>
      <trkpt lat="45.84044" lon="4.62438">
        <ele>277.60062</ele>
        <time>2023-07-04T14:04:59.000Z</time>
      </trkpt>
      <trkpt lat="45.84044" lon="4.62444">
        <ele>277.63062</ele>
        <time>2023-07-04T14:05:00.000Z</time>
      </trkpt>
      <trkpt lat="45.84045" lon="4.6245">
        <ele>277.70984</ele>
        <time>2023-07-04T14:05:01.000Z</time>
      </trkpt>
      <trkpt lat="45.84046" lon="4.62456">
        <ele>277.78369</ele>
        <time>2023-07-04T14:05:02.000Z</time>
      </trkpt>
      <trkpt lat="45.84047" lon="4.62462">
        <ele>277.84647</ele>
        <time>2023-07-04T14:05:03.000Z</time>
      </trkpt>
      <trkpt lat="45.84048" lon="4.62468">
        <ele>277.88034</ele>
        <time>2023-07-04T14:05:04.000Z</time>
      </trkpt>
      <trkpt lat="45.8405" lon="4.62474">
        <ele>277.93701</ele>
        <time>2023-07-04T14:05:05.000Z</time>
      </trkpt>
      <trkpt lat="45.84051" lon="4.6248">
        <ele>277.99399</ele>
        <time>2023-07-04T14:05:06.000Z</time>
      </trkpt>
      <trkpt lat="45.84053" lon="4.62486">
        <ele>278.07562</ele>
        <time>2023-07-04T14:05:07.000Z</time>
      </trkpt>
      <trkpt lat="45.84055" lon="4.62491">
        <ele>278.02643</ele>
        <time>2023-07-04T14:05:08.000Z</time>
      </trkpt>
      <trkpt lat="45.84057" lon="4.62497">
        <ele>277.99551</ele>
        <time>2023-07-04T14:05:09.000Z</time>
      </trkpt>
      <trkpt lat="45.84059" lon="4.62502">
        <ele>277.98315</ele>
        <time>2023-07-04T14:05:10.000Z</time>
      </trkpt>
      <trkpt lat="45.84061" lon="4.62508">
        <ele>278.00357</ele>
        <time>2023-07-04T14:05:11.000Z</time>
      </trkpt>
      <trkpt lat="45.84062" lon="4.62513">
        <ele>278.03531</ele>
        <time>2023-07-04T14:05:12.000Z</time>
      </trkpt>
      <trkpt lat="45.84063" lon="4.62516">
        <ele>278.04361</ele>
        <time>2023-07-04T14:05:13.000Z</time>
      </trkpt>
      <trkpt lat="45.84065" lon="4.6252">
        <ele>278.02618</ele>
        <time>2023-07-04T14:05:48.000Z</time>
      </trkpt>
      <trkpt lat="45.84066" lon="4.62522">
        <ele>277.93427</ele>
        <time>2023-07-04T14:05:49.000Z</time>
      </trkpt>
      <trkpt lat="45.84067" lon="4.62525">
        <ele>277.88635</ele>
        <time>2023-07-04T14:05:50.000Z</time>
      </trkpt>
      <trkpt lat="45.84068" lon="4.62528">
        <ele>277.82266</ele>
        <time>2023-07-04T14:05:51.000Z</time>
      </trkpt>
      <trkpt lat="45.84069" lon="4.62531">
        <ele>277.86465</ele>
        <time>2023-07-04T14:05:52.000Z</time>
      </trkpt>
      <trkpt lat="45.84071" lon="4.62535">
        <ele>277.73944</ele>
        <time>2023-07-04T14:05:53.000Z</time>
      </trkpt>
      <trkpt lat="45.84073" lon="4.62538">
        <ele>277.65363</ele>
        <time>2023-07-04T14:05:54.000Z</time>
      </trkpt>
      <trkpt lat="45.84076" lon="4.62538">
        <ele>277.54584</ele>
        <time>2023-07-04T14:05:55.000Z</time>
      </trkpt>
      <trkpt lat="45.84078" lon="4.62535">
        <ele>277.45367</ele>
        <time>2023-07-04T14:05:56.000Z</time>
      </trkpt>
      <trkpt lat="45.84078" lon="4.62529">
        <ele>277.39996</ele>
        <time>2023-07-04T14:05:57.000Z</time>
      </trkpt>
      <trkpt lat="45.84074" lon="4.6252">
        <ele>277.3623</ele>
        <time>2023-07-04T14:05:58.000Z</time>
      </trkpt>
      <trkpt lat="45.84071" lon="4.62515">
        <ele>277.35443</ele>
        <time>2023-07-04T14:05:59.000Z</time>
      </trkpt>
      <trkpt lat="45.84069" lon="4.62508">
        <ele>277.36517</ele>
        <time>2023-07-04T14:06:00.000Z</time>
      </trkpt>
      <trkpt lat="45.84067" lon="4.62502">
        <ele>277.38116</ele>
        <time>2023-07-04T14:06:01.000Z</time>
      </trkpt>
      <trkpt lat="45.84065" lon="4.62496">
        <ele>277.52591</ele>
        <time>2023-07-04T14:06:02.000Z</time>
      </trkpt>
      <trkpt lat="45.84063" lon="4.62489">
        <ele>277.5387</ele>
        <time>2023-07-04T14:06:03.000Z</time>
      </trkpt>
      <trkpt lat="45.84061" lon="4.62482">
        <ele>277.57834</ele>
        <time>2023-07-04T14:06:04.000Z</time>
      </trkpt>
      <trkpt lat="45.84059" lon="4.62475">
        <ele>277.59515</ele>
        <time>2023-07-04T14:06:05.000Z</time>
      </trkpt>
      <trkpt lat="45.84057" lon="4.62467">
        <ele>277.58734</ele>
        <time>2023-07-04T14:06:06.000Z</time>
      </trkpt>
      <trkpt lat="45.84056" lon="4.6246">
        <ele>277.55072</ele>
        <time>2023-07-04T14:06:07.000Z</time>
      </trkpt>
      <trkpt lat="45.84054" lon="4.62453">
        <ele>277.5379</ele>
        <time>2023-07-04T14:06:08.000Z</time>
      </trkpt>
      <trkpt lat="45.84053" lon="4.62445">
        <ele>277.5517</ele>
        <time>2023-07-04T14:06:09.000Z</time>
      </trkpt>
      <trkpt lat="45.84052" lon="4.62438">
        <ele>277.48553</ele>
        <time>2023-07-04T14:06:10.000Z</time>
      </trkpt>
      <trkpt lat="45.84052" lon="4.62431">
        <ele>277.38095</ele>
        <time>2023-07-04T14:06:11.000Z</time>
      </trkpt>
      <trkpt lat="45.84051" lon="4.62423">
        <ele>277.27719</ele>
        <time>2023-07-04T14:06:12.000Z</time>
      </trkpt>
      <trkpt lat="45.84052" lon="4.62415">
        <ele>277.31305</ele>
        <time>2023-07-04T14:06:13.000Z</time>
      </trkpt>
      <trkpt lat="45.84052" lon="4.62407">
        <ele>277.31378</ele>
        <time>2023-07-04T14:06:14.000Z</time>
      </trkpt>
      <trkpt lat="45.84052" lon="4.624">
        <ele>277.28842</ele>
        <time>2023-07-04T14:06:15.000Z</time>
      </trkpt>
      <trkpt lat="45.84052" lon="4.62391">
        <ele>277.25287</ele>
        <time>2023-07-04T14:06:16.000Z</time>
      </trkpt>
      <trkpt lat="45.84052" lon="4.62384">
        <ele>277.19733</ele>
        <time>2023-07-04T14:06:17.000Z</time>
      </trkpt>
      <trkpt lat="45.84053" lon="4.62376">
        <ele>277.14694</ele>
        <time>2023-07-04T14:06:18.000Z</time>
      </trkpt>
      <trkpt lat="45.84053" lon="4.62369">
        <ele>277.0361</ele>
        <time>2023-07-04T14:06:19.000Z</time>
      </trkpt>
      <trkpt lat="45.84054" lon="4.62362">
        <ele>276.92603</ele>
        <time>2023-07-04T14:06:20.000Z</time>
      </trkpt>
      <trkpt lat="45.84055" lon="4.62355">
        <ele>276.76819</ele>
        <time>2023-07-04T14:06:21.000Z</time>
      </trkpt>
      <trkpt lat="45.84057" lon="4.62348">
        <ele>276.61981</ele>
        <time>2023-07-04T14:06:22.000Z</time>
      </trkpt>
      <trkpt lat="45.8406" lon="4.62343">
        <ele>276.62164</ele>
        <time>2023-07-04T14:06:23.000Z</time>
      </trkpt>
      <trkpt lat="45.84063" lon="4.62338">
        <ele>276.67462</ele>
        <time>2023-07-04T14:06:24.000Z</time>
      </trkpt>
      <trkpt lat="45.84066" lon="4.62335">
        <ele>276.81012</ele>
        <time>2023-07-04T14:06:25.000Z</time>
      </trkpt>
      <trkpt lat="45.84069" lon="4.62333">
        <ele>276.89383</ele>
        <time>2023-07-04T14:06:26.000Z</time>
      </trkpt>
      <trkpt lat="45.84073" lon="4.62331">
        <ele>277.03464</ele>
        <time>2023-07-04T14:06:27.000Z</time>
      </trkpt>
      <trkpt lat="45.84076" lon="4.6233">
        <ele>277.18539</ele>
        <time>2023-07-04T14:06:28.000Z</time>
      </trkpt>
      <trkpt lat="45.84079" lon="4.62327">
        <ele>277.32245</ele>
        <time>2023-07-04T14:06:29.000Z</time>
      </trkpt>
      <trkpt lat="45.84083" lon="4.62326">
        <ele>277.51431</ele>
        <time>2023-07-04T14:06:30.000Z</time>
      </trkpt>
      <trkpt lat="45.84087" lon="4.62324">
        <ele>277.73767</ele>
        <time>2023-07-04T14:06:31.000Z</time>
      </trkpt>
      <trkpt lat="45.84091" lon="4.62323">
        <ele>278.01355</ele>
        <time>2023-07-04T14:06:32.000Z</time>
      </trkpt>
      <trkpt lat="45.84095" lon="4.62322">
        <ele>278.31622</ele>
        <time>2023-07-04T14:06:33.000Z</time>
      </trkpt>
      <trkpt lat="45.84099" lon="4.62321">
        <ele>278.6405</ele>
        <time>2023-07-04T14:06:34.000Z</time>
      </trkpt>
      <trkpt lat="45.84103" lon="4.62322">
        <ele>278.99561</ele>
        <time>2023-07-04T14:06:35.000Z</time>
      </trkpt>
      <trkpt lat="45.84107" lon="4.62323">
        <ele>279.39005</ele>
        <time>2023-07-04T14:06:36.000Z</time>
      </trkpt>
      <trkpt lat="45.8411" lon="4.62323">
        <ele>279.82935</ele>
        <time>2023-07-04T14:06:37.000Z</time>
      </trkpt>
      <trkpt lat="45.84113" lon="4.62324">
        <ele>280.32782</ele>
        <time>2023-07-04T14:06:38.000Z</time>
      </trkpt>
      <trkpt lat="45.84117" lon="4.62325">
        <ele>280.7829</ele>
        <time>2023-07-04T14:06:39.000Z</time>
      </trkpt>
      <trkpt lat="45.8412" lon="4.62327">
        <ele>281.25827</ele>
        <time>2023-07-04T14:06:40.000Z</time>
      </trkpt>
      <trkpt lat="45.84123" lon="4.62328">
        <ele>281.75604</ele>
        <time>2023-07-04T14:06:41.000Z</time>
      </trkpt>
      <trkpt lat="45.84126" lon="4.6233">
        <ele>282.26086</ele>
        <time>2023-07-04T14:06:42.000Z</time>
      </trkpt>
      <trkpt lat="45.84129" lon="4.62331">
        <ele>282.7749</ele>
        <time>2023-07-04T14:06:43.000Z</time>
      </trkpt>
      <trkpt lat="45.84132" lon="4.62332">
        <ele>283.26013</ele>
        <time>2023-07-04T14:06:44.000Z</time>
      </trkpt>
      <trkpt lat="45.84134" lon="4.62333">
        <ele>283.6991</ele>
        <time>2023-07-04T14:06:45.000Z</time>
      </trkpt>
      <trkpt lat="45.84137" lon="4.62334">
        <ele>284.24493</ele>
        <time>2023-07-04T14:06:46.000Z</time>
      </trkpt>
      <trkpt lat="45.84139" lon="4.62337">
        <ele>284.78314</ele>
        <time>2023-07-04T14:06:47.000Z</time>
      </trkpt>
      <trkpt lat="45.8414" lon="4.6234">
        <ele>285.34882</ele>
        <time>2023-07-04T14:06:48.000Z</time>
      </trkpt>
      <trkpt lat="45.8414" lon="4.62343">
        <ele>285.95123</ele>
        <time>2023-07-04T14:06:49.000Z</time>
      </trkpt>
      <trkpt lat="45.8414" lon="4.62345">
        <ele>286.53769</ele>
        <time>2023-07-04T14:06:52.000Z</time>
      </trkpt>
      <trkpt lat="45.8414" lon="4.62348">
        <ele>287.06418</ele>
        <time>2023-07-04T14:06:54.000Z</time>
      </trkpt>
      <trkpt lat="45.84142" lon="4.6235">
        <ele>287.62939</ele>
        <time>2023-07-04T14:06:59.000Z</time>
      </trkpt>
      <trkpt lat="45.84145" lon="4.6235">
        <ele>288.12946</ele>
        <time>2023-07-04T14:07:02.000Z</time>
      </trkpt>
      <trkpt lat="45.84147" lon="4.62348">
        <ele>288.60541</ele>
        <time>2023-07-04T14:07:03.000Z</time>
      </trkpt>
      <trkpt lat="45.84149" lon="4.62345">
        <ele>289.05597</ele>
        <time>2023-07-04T14:07:04.000Z</time>
      </trkpt>
      <trkpt lat="45.8415" lon="4.62342">
        <ele>289.49829</ele>
        <time>2023-07-04T14:07:05.000Z</time>
      </trkpt>
      <trkpt lat="45.84151" lon="4.62337">
        <ele>289.93854</ele>
        <time>2023-07-04T14:07:06.000Z</time>
      </trkpt>
      <trkpt lat="45.84152" lon="4.62333">
        <ele>290.32556</ele>
        <time>2023-07-04T14:07:07.000Z</time>
      </trkpt>
      <trkpt lat="45.84153" lon="4.62331">
        <ele>290.78143</ele>
        <time>2023-07-04T14:07:08.000Z</time>
      </trkpt>
      <trkpt lat="45.84156" lon="4.6233">
        <ele>291.32184</ele>
        <time>2023-07-04T14:07:09.000Z</time>
      </trkpt>
      <trkpt lat="45.84157" lon="4.62328">
        <ele>291.84076</ele>
        <time>2023-07-04T14:07:10.000Z</time>
      </trkpt>
      <trkpt lat="45.8416" lon="4.62329">
        <ele>292.24554</ele>
        <time>2023-07-04T14:07:11.000Z</time>
      </trkpt>
      <trkpt lat="45.84162" lon="4.6233">
        <ele>292.60736</ele>
        <time>2023-07-04T14:07:12.000Z</time>
      </trkpt>
      <trkpt lat="45.84165" lon="4.62332">
        <ele>292.91736</ele>
        <time>2023-07-04T14:07:13.000Z</time>
      </trkpt>
      <trkpt lat="45.84167" lon="4.62332">
        <ele>293.16879</ele>
        <time>2023-07-04T14:07:14.000Z</time>
      </trkpt>
      <trkpt lat="45.84171" lon="4.62334">
        <ele>293.41986</ele>
        <time>2023-07-04T14:07:15.000Z</time>
      </trkpt>
      <trkpt lat="45.84174" lon="4.62335">
        <ele>293.7377</ele>
        <time>2023-07-04T14:07:16.000Z</time>
      </trkpt>
      <trkpt lat="45.84176" lon="4.62336">
        <ele>294.00409</ele>
        <time>2023-07-04T14:07:17.000Z</time>
      </trkpt>
      <trkpt lat="45.84179" lon="4.62337">
        <ele>294.25177</ele>
        <time>2023-07-04T14:07:18.000Z</time>
      </trkpt>
      <trkpt lat="45.84181" lon="4.62336">
        <ele>294.47845</ele>
        <time>2023-07-04T14:07:19.000Z</time>
      </trkpt>
      <trkpt lat="45.84184" lon="4.62337">
        <ele>294.75565</ele>
        <time>2023-07-04T14:07:20.000Z</time>
      </trkpt>
      <trkpt lat="45.84187" lon="4.62337">
        <ele>294.95261</ele>
        <time>2023-07-04T14:07:21.000Z</time>
      </trkpt>
      <trkpt lat="45.84189" lon="4.62338">
        <ele>295.19351</ele>
        <time>2023-07-04T14:07:22.000Z</time>
      </trkpt>
      <trkpt lat="45.84192" lon="4.62338">
        <ele>295.44305</ele>
        <time>2023-07-04T14:07:23.000Z</time>
      </trkpt>
      <trkpt lat="45.84195" lon="4.62338">
        <ele>295.67493</ele>
        <time>2023-07-04T14:07:24.000Z</time>
      </trkpt>
      <trkpt lat="45.84198" lon="4.62337">
        <ele>295.89996</ele>
        <time>2023-07-04T14:07:25.000Z</time>
      </trkpt>
      <trkpt lat="45.84201" lon="4.62336">
        <ele>296.10178</ele>
        <time>2023-07-04T14:07:26.000Z</time>
      </trkpt>
      <trkpt lat="45.84204" lon="4.62335">
        <ele>296.32562</ele>
        <time>2023-07-04T14:07:27.000Z</time>
      </trkpt>
      <trkpt lat="45.84208" lon="4.62334">
        <ele>296.54474</ele>
        <time>2023-07-04T14:07:28.000Z</time>
      </trkpt>
      <trkpt lat="45.84211" lon="4.62333">
        <ele>296.64331</ele>
        <time>2023-07-04T14:07:29.000Z</time>
      </trkpt>
      <trkpt lat="45.84214" lon="4.62331">
        <ele>296.65375</ele>
        <time>2023-07-04T14:07:30.000Z</time>
      </trkpt>
      <trkpt lat="45.84217" lon="4.62329">
        <ele>296.76297</ele>
        <time>2023-07-04T14:07:31.000Z</time>
      </trkpt>
      <trkpt lat="45.8422" lon="4.62326">
        <ele>296.88583</ele>
        <time>2023-07-04T14:07:32.000Z</time>
      </trkpt>
      <trkpt lat="45.84223" lon="4.62323">
        <ele>297.03754</ele>
        <time>2023-07-04T14:07:33.000Z</time>
      </trkpt>
      <trkpt lat="45.84226" lon="4.6232">
        <ele>297.19254</ele>
        <time>2023-07-04T14:07:34.000Z</time>
      </trkpt>
      <trkpt lat="45.84229" lon="4.62318">
        <ele>297.34305</ele>
        <time>2023-07-04T14:07:35.000Z</time>
      </trkpt>
      <trkpt lat="45.84232" lon="4.62315">
        <ele>297.43414</ele>
        <time>2023-07-04T14:07:36.000Z</time>
      </trkpt>
      <trkpt lat="45.84235" lon="4.62311">
        <ele>297.56927</ele>
        <time>2023-07-04T14:07:37.000Z</time>
      </trkpt>
      <trkpt lat="45.84237" lon="4.62308">
        <ele>297.70578</ele>
        <time>2023-07-04T14:07:38.000Z</time>
      </trkpt>
      <trkpt lat="45.84239" lon="4.62304">
        <ele>298.02386</ele>
        <time>2023-07-04T14:07:39.000Z</time>
      </trkpt>
      <trkpt lat="45.84241" lon="4.62299">
        <ele>298.30075</ele>
        <time>2023-07-04T14:07:40.000Z</time>
      </trkpt>
      <trkpt lat="45.84243" lon="4.62295">
        <ele>298.59308</ele>
        <time>2023-07-04T14:07:41.000Z</time>
      </trkpt>
      <trkpt lat="45.84245" lon="4.62291">
        <ele>298.87918</ele>
        <time>2023-07-04T14:07:42.000Z</time>
      </trkpt>
      <trkpt lat="45.84247" lon="4.62286">
        <ele>299.17566</ele>
        <time>2023-07-04T14:07:43.000Z</time>
      </trkpt>
      <trkpt lat="45.84248" lon="4.62282">
        <ele>299.50351</ele>
        <time>2023-07-04T14:07:44.000Z</time>
      </trkpt>
      <trkpt lat="45.84249" lon="4.62277">
        <ele>299.81418</ele>
        <time>2023-07-04T14:07:45.000Z</time>
      </trkpt>
      <trkpt lat="45.8425" lon="4.62272">
        <ele>300.12546</ele>
        <time>2023-07-04T14:07:46.000Z</time>
      </trkpt>
      <trkpt lat="45.84251" lon="4.62268">
        <ele>300.43076</ele>
        <time>2023-07-04T14:07:47.000Z</time>
      </trkpt>
      <trkpt lat="45.84252" lon="4.62263">
        <ele>300.74689</ele>
        <time>2023-07-04T14:07:48.000Z</time>
      </trkpt>
      <trkpt lat="45.84253" lon="4.62259">
        <ele>301.06876</ele>
        <time>2023-07-04T14:07:49.000Z</time>
      </trkpt>
      <trkpt lat="45.84254" lon="4.62254">
        <ele>301.51468</ele>
        <time>2023-07-04T14:07:50.000Z</time>
      </trkpt>
      <trkpt lat="45.84254" lon="4.62249">
        <ele>301.9762</ele>
        <time>2023-07-04T14:07:51.000Z</time>
      </trkpt>
      <trkpt lat="45.84254" lon="4.62243">
        <ele>302.44452</ele>
        <time>2023-07-04T14:07:52.000Z</time>
      </trkpt>
      <trkpt lat="45.84254" lon="4.62238">
        <ele>302.88647</ele>
        <time>2023-07-04T14:07:53.000Z</time>
      </trkpt>
      <trkpt lat="45.84254" lon="4.62233">
        <ele>303.35495</ele>
        <time>2023-07-04T14:07:54.000Z</time>
      </trkpt>
      <trkpt lat="45.84255" lon="4.62229">
        <ele>303.77481</ele>
        <time>2023-07-04T14:07:55.000Z</time>
      </trkpt>
      <trkpt lat="45.84256" lon="4.62226">
        <ele>304.17535</ele>
        <time>2023-07-04T14:07:56.000Z</time>
      </trkpt>
      <trkpt lat="45.84256" lon="4.62222">
        <ele>304.5274</ele>
        <time>2023-07-04T14:07:57.000Z</time>
      </trkpt>
      <trkpt lat="45.84256" lon="4.62219">
        <ele>304.74612</ele>
        <time>2023-07-04T14:07:58.000Z</time>
      </trkpt>
      <trkpt lat="45.84256" lon="4.62216">
        <ele>304.7489</ele>
        <time>2023-07-04T14:07:59.000Z</time>
      </trkpt>
      <trkpt lat="45.84255" lon="4.62213">
        <ele>305.09668</ele>
        <time>2023-07-04T14:08:01.000Z</time>
      </trkpt>
      <trkpt lat="45.84254" lon="4.62209">
        <ele>305.41644</ele>
        <time>2023-07-04T14:08:36.000Z</time>
      </trkpt>
      <trkpt lat="45.84254" lon="4.62205">
        <ele>305.72729</ele>
        <time>2023-07-04T14:08:37.000Z</time>
      </trkpt>
      <trkpt lat="45.84253" lon="4.62201">
        <ele>306.04034</ele>
        <time>2023-07-04T14:08:38.000Z</time>
      </trkpt>
      <trkpt lat="45.84252" lon="4.62198">
        <ele>306.3454</ele>
        <time>2023-07-04T14:08:39.000Z</time>
      </trkpt>
      <trkpt lat="45.8425" lon="4.62195">
        <ele>306.66605</ele>
        <time>2023-07-04T14:08:40.000Z</time>
      </trkpt>
      <trkpt lat="45.84248" lon="4.62192">
        <ele>306.93735</ele>
        <time>2023-07-04T14:08:41.000Z</time>
      </trkpt>
      <trkpt lat="45.84247" lon="4.62189">
        <ele>307.06799</ele>
        <time>2023-07-04T14:08:42.000Z</time>
      </trkpt>
      <trkpt lat="45.84245" lon="4.62185">
        <ele>307.16913</ele>
        <time>2023-07-04T14:08:43.000Z</time>
      </trkpt>
      <trkpt lat="45.84243" lon="4.62182">
        <ele>307.24713</ele>
        <time>2023-07-04T14:08:44.000Z</time>
      </trkpt>
      <trkpt lat="45.84241" lon="4.62178">
        <ele>307.29364</ele>
        <time>2023-07-04T14:08:45.000Z</time>
      </trkpt>
      <trkpt lat="45.84238" lon="4.62175">
        <ele>307.24319</ele>
        <time>2023-07-04T14:08:46.000Z</time>
      </trkpt>
      <trkpt lat="45.84237" lon="4.62171">
        <ele>307.17883</ele>
        <time>2023-07-04T14:08:47.000Z</time>
      </trkpt>
      <trkpt lat="45.84235" lon="4.62167">
        <ele>307.35614</ele>
        <time>2023-07-04T14:08:48.000Z</time>
      </trkpt>
      <trkpt lat="45.84233" lon="4.62162">
        <ele>307.50439</ele>
        <time>2023-07-04T14:08:49.000Z</time>
      </trkpt>
      <trkpt lat="45.84233" lon="4.62157">
        <ele>307.69135</ele>
        <time>2023-07-04T14:08:50.000Z</time>
      </trkpt>
      <trkpt lat="45.84233" lon="4.62153">
        <ele>307.88339</ele>
        <time>2023-07-04T14:08:51.000Z</time>
      </trkpt>
      <trkpt lat="45.84235" lon="4.62149">
        <ele>308.08453</ele>
        <time>2023-07-04T14:08:52.000Z</time>
      </trkpt>
      <trkpt lat="45.84238" lon="4.62146">
        <ele>308.44345</ele>
        <time>2023-07-04T14:08:53.000Z</time>
      </trkpt>
      <trkpt lat="45.84241" lon="4.62144">
        <ele>308.82126</ele>
        <time>2023-07-04T14:08:54.000Z</time>
      </trkpt>
      <trkpt lat="45.84245" lon="4.62142">
        <ele>308.91537</ele>
        <time>2023-07-04T14:08:55.000Z</time>
      </trkpt>
      <trkpt lat="45.84248" lon="4.6214">
        <ele>309.00409</ele>
        <time>2023-07-04T14:08:56.000Z</time>
      </trkpt>
      <trkpt lat="45.84252" lon="4.62138">
        <ele>309.1105</ele>
        <time>2023-07-04T14:08:57.000Z</time>
      </trkpt>
      <trkpt lat="45.84255" lon="4.62136">
        <ele>309.21475</ele>
        <time>2023-07-04T14:08:58.000Z</time>
      </trkpt>
      <trkpt lat="45.84259" lon="4.62134">
        <ele>309.3237</ele>
        <time>2023-07-04T14:08:59.000Z</time>
      </trkpt>
      <trkpt lat="45.84263" lon="4.62133">
        <ele>309.42548</ele>
        <time>2023-07-04T14:09:00.000Z</time>
      </trkpt>
      <trkpt lat="45.84266" lon="4.62132">
        <ele>309.42816</ele>
        <time>2023-07-04T14:09:01.000Z</time>
      </trkpt>
      <trkpt lat="45.8427" lon="4.62131">
        <ele>309.56076</ele>
        <time>2023-07-04T14:09:02.000Z</time>
      </trkpt>
      <trkpt lat="45.84274" lon="4.62129">
        <ele>309.6853</ele>
        <time>2023-07-04T14:09:03.000Z</time>
      </trkpt>
      <trkpt lat="45.84278" lon="4.62128">
        <ele>309.76059</ele>
        <time>2023-07-04T14:09:04.000Z</time>
      </trkpt>
      <trkpt lat="45.84281" lon="4.62126">
        <ele>309.84296</ele>
        <time>2023-07-04T14:09:05.000Z</time>
      </trkpt>
      <trkpt lat="45.84285" lon="4.62124">
        <ele>310.28131</ele>
        <time>2023-07-04T14:09:06.000Z</time>
      </trkpt>
      <trkpt lat="45.84289" lon="4.62122">
        <ele>310.68848</ele>
        <time>2023-07-04T14:09:07.000Z</time>
      </trkpt>
      <trkpt lat="45.84292" lon="4.62119">
        <ele>310.86823</ele>
        <time>2023-07-04T14:09:08.000Z</time>
      </trkpt>
      <trkpt lat="45.84295" lon="4.62117">
        <ele>311.09747</ele>
        <time>2023-07-04T14:09:09.000Z</time>
      </trkpt>
      <trkpt lat="45.84299" lon="4.62116">
        <ele>311.30576</ele>
        <time>2023-07-04T14:09:10.000Z</time>
      </trkpt>
      <trkpt lat="45.84302" lon="4.62114">
        <ele>311.50497</ele>
        <time>2023-07-04T14:09:11.000Z</time>
      </trkpt>
      <trkpt lat="45.84305" lon="4.62113">
        <ele>311.71136</ele>
        <time>2023-07-04T14:09:12.000Z</time>
      </trkpt>
      <trkpt lat="45.84308" lon="4.62112">
        <ele>311.86615</ele>
        <time>2023-07-04T14:09:13.000Z</time>
      </trkpt>
      <trkpt lat="45.84311" lon="4.62111">
        <ele>312.04193</ele>
        <time>2023-07-04T14:09:14.000Z</time>
      </trkpt>
      <trkpt lat="45.84313" lon="4.6211">
        <ele>312.14944</ele>
        <time>2023-07-04T14:09:15.000Z</time>
      </trkpt>
      <trkpt lat="45.84316" lon="4.62109">
        <ele>312.27246</ele>
        <time>2023-07-04T14:09:16.000Z</time>
      </trkpt>
      <trkpt lat="45.8432" lon="4.62108">
        <ele>312.38702</ele>
        <time>2023-07-04T14:09:17.000Z</time>
      </trkpt>
      <trkpt lat="45.84323" lon="4.62107">
        <ele>312.48618</ele>
        <time>2023-07-04T14:09:18.000Z</time>
      </trkpt>
      <trkpt lat="45.84326" lon="4.62106">
        <ele>312.59161</ele>
        <time>2023-07-04T14:09:19.000Z</time>
      </trkpt>
      <trkpt lat="45.84329" lon="4.62105">
        <ele>312.70374</ele>
        <time>2023-07-04T14:09:20.000Z</time>
      </trkpt>
      <trkpt lat="45.84332" lon="4.62104">
        <ele>312.93451</ele>
        <time>2023-07-04T14:09:21.000Z</time>
      </trkpt>
      <trkpt lat="45.84335" lon="4.62103">
        <ele>313.18195</ele>
        <time>2023-07-04T14:09:22.000Z</time>
      </trkpt>
      <trkpt lat="45.84338" lon="4.62101">
        <ele>313.30502</ele>
        <time>2023-07-04T14:09:23.000Z</time>
      </trkpt>
      <trkpt lat="45.84341" lon="4.62101">
        <ele>313.40347</ele>
        <time>2023-07-04T14:09:24.000Z</time>
      </trkpt>
      <trkpt lat="45.84344" lon="4.621">
        <ele>313.47171</ele>
        <time>2023-07-04T14:09:25.000Z</time>
      </trkpt>
      <trkpt lat="45.84347" lon="4.62099">
        <ele>313.57159</ele>
        <time>2023-07-04T14:09:26.000Z</time>
      </trkpt>
      <trkpt lat="45.8435" lon="4.62098">
        <ele>313.65106</ele>
        <time>2023-07-04T14:09:27.000Z</time>
      </trkpt>
      <trkpt lat="45.84353" lon="4.62097">
        <ele>313.73007</ele>
        <time>2023-07-04T14:09:28.000Z</time>
      </trkpt>
      <trkpt lat="45.84356" lon="4.62096">
        <ele>313.78583</ele>
        <time>2023-07-04T14:09:29.000Z</time>
      </trkpt>
      <trkpt lat="45.84359" lon="4.62095">
        <ele>313.85037</ele>
        <time>2023-07-04T14:09:30.000Z</time>
      </trkpt>
      <trkpt lat="45.84362" lon="4.62094">
        <ele>313.91876</ele>
        <time>2023-07-04T14:09:31.000Z</time>
      </trkpt>
      <trkpt lat="45.84365" lon="4.62093">
        <ele>313.99362</ele>
        <time>2023-07-04T14:09:32.000Z</time>
      </trkpt>
      <trkpt lat="45.84368" lon="4.62092">
        <ele>314.08203</ele>
        <time>2023-07-04T14:09:33.000Z</time>
      </trkpt>
      <trkpt lat="45.84371" lon="4.62091">
        <ele>314.16864</ele>
        <time>2023-07-04T14:09:34.000Z</time>
      </trkpt>
      <trkpt lat="45.84374" lon="4.62091">
        <ele>314.29779</ele>
        <time>2023-07-04T14:09:35.000Z</time>
      </trkpt>
      <trkpt lat="45.84378" lon="4.6209">
        <ele>314.43369</ele>
        <time>2023-07-04T14:09:36.000Z</time>
      </trkpt>
      <trkpt lat="45.84381" lon="4.6209">
        <ele>314.58267</ele>
        <time>2023-07-04T14:09:37.000Z</time>
      </trkpt>
      <trkpt lat="45.84384" lon="4.6209">
        <ele>314.75449</ele>
        <time>2023-07-04T14:09:38.000Z</time>
      </trkpt>
      <trkpt lat="45.84387" lon="4.62089">
        <ele>314.90744</ele>
        <time>2023-07-04T14:09:39.000Z</time>
      </trkpt>
      <trkpt lat="45.8439" lon="4.62089">
        <ele>315.06354</ele>
        <time>2023-07-04T14:09:40.000Z</time>
      </trkpt>
      <trkpt lat="45.84393" lon="4.62088">
        <ele>315.22369</ele>
        <time>2023-07-04T14:09:41.000Z</time>
      </trkpt>
      <trkpt lat="45.84396" lon="4.62088">
        <ele>315.35239</ele>
        <time>2023-07-04T14:09:42.000Z</time>
      </trkpt>
      <trkpt lat="45.844" lon="4.62088">
        <ele>315.61725</ele>
        <time>2023-07-04T14:09:43.000Z</time>
      </trkpt>
      <trkpt lat="45.84403" lon="4.62088">
        <ele>315.95844</ele>
        <time>2023-07-04T14:09:44.000Z</time>
      </trkpt>
      <trkpt lat="45.84406" lon="4.62087">
        <ele>316.31409</ele>
        <time>2023-07-04T14:09:45.000Z</time>
      </trkpt>
      <trkpt lat="45.84409" lon="4.62087">
        <ele>316.36826</ele>
        <time>2023-07-04T14:09:46.000Z</time>
      </trkpt>
      <trkpt lat="45.84412" lon="4.62087">
        <ele>316.47223</ele>
        <time>2023-07-04T14:09:47.000Z</time>
      </trkpt>
      <trkpt lat="45.84415" lon="4.62088">
        <ele>316.55893</ele>
        <time>2023-07-04T14:09:48.000Z</time>
      </trkpt>
      <trkpt lat="45.84419" lon="4.62089">
        <ele>316.60028</ele>
        <time>2023-07-04T14:09:49.000Z</time>
      </trkpt>
      <trkpt lat="45.84422" lon="4.6209">
        <ele>316.51703</ele>
        <time>2023-07-04T14:09:50.000Z</time>
      </trkpt>
      <trkpt lat="45.84425" lon="4.62091">
        <ele>316.44006</ele>
        <time>2023-07-04T14:09:51.000Z</time>
      </trkpt>
      <trkpt lat="45.84428" lon="4.62091">
        <ele>316.23755</ele>
        <time>2023-07-04T14:09:52.000Z</time>
      </trkpt>
      <trkpt lat="45.84431" lon="4.62091">
        <ele>316.34686</ele>
        <time>2023-07-04T14:09:53.000Z</time>
      </trkpt>
      <trkpt lat="45.84434" lon="4.62092">
        <ele>316.41122</ele>
        <time>2023-07-04T14:09:54.000Z</time>
      </trkpt>
      <trkpt lat="45.84437" lon="4.62094">
        <ele>316.48727</ele>
        <time>2023-07-04T14:09:55.000Z</time>
      </trkpt>
      <trkpt lat="45.8444" lon="4.62095">
        <ele>316.54669</ele>
        <time>2023-07-04T14:09:56.000Z</time>
      </trkpt>
      <trkpt lat="45.84443" lon="4.62097">
        <ele>316.59247</ele>
        <time>2023-07-04T14:09:57.000Z</time>
      </trkpt>
      <trkpt lat="45.84446" lon="4.62099">
        <ele>316.62555</ele>
        <time>2023-07-04T14:09:58.000Z</time>
      </trkpt>
      <trkpt lat="45.84448" lon="4.62101">
        <ele>316.67169</ele>
        <time>2023-07-04T14:09:59.000Z</time>
      </trkpt>
      <trkpt lat="45.84451" lon="4.62103">
        <ele>316.69128</ele>
        <time>2023-07-04T14:10:00.000Z</time>
      </trkpt>
      <trkpt lat="45.84454" lon="4.62105">
        <ele>316.7171</ele>
        <time>2023-07-04T14:10:01.000Z</time>
      </trkpt>
      <trkpt lat="45.84458" lon="4.62106">
        <ele>316.7518</ele>
        <time>2023-07-04T14:10:02.000Z</time>
      </trkpt>
      <trkpt lat="45.84461" lon="4.62108">
        <ele>316.79828</ele>
        <time>2023-07-04T14:10:03.000Z</time>
      </trkpt>
      <trkpt lat="45.84464" lon="4.62109">
        <ele>316.86624</ele>
        <time>2023-07-04T14:10:04.000Z</time>
      </trkpt>
      <trkpt lat="45.84467" lon="4.62111">
        <ele>316.78687</ele>
        <time>2023-07-04T14:10:05.000Z</time>
      </trkpt>
      <trkpt lat="45.8447" lon="4.62113">
        <ele>316.59311</ele>
        <time>2023-07-04T14:10:06.000Z</time>
      </trkpt>
      <trkpt lat="45.84473" lon="4.62115">
        <ele>316.40826</ele>
        <time>2023-07-04T14:10:07.000Z</time>
      </trkpt>
      <trkpt lat="45.84475" lon="4.62116">
        <ele>316.58185</ele>
        <time>2023-07-04T14:10:08.000Z</time>
      </trkpt>
      <trkpt lat="45.84478" lon="4.62118">
        <ele>316.75015</ele>
        <time>2023-07-04T14:10:09.000Z</time>
      </trkpt>
      <trkpt lat="45.84481" lon="4.62119">
        <ele>317.05072</ele>
        <time>2023-07-04T14:10:10.000Z</time>
      </trkpt>
      <trkpt lat="45.84484" lon="4.62121">
        <ele>317.33618</ele>
        <time>2023-07-04T14:10:11.000Z</time>
      </trkpt>
      <trkpt lat="45.84488" lon="4.62122">
        <ele>317.74509</ele>
        <time>2023-07-04T14:10:12.000Z</time>
      </trkpt>
      <trkpt lat="45.84491" lon="4.62123">
        <ele>317.68967</ele>
        <time>2023-07-04T14:10:13.000Z</time>
      </trkpt>
      <trkpt lat="45.84494" lon="4.62123">
        <ele>317.5676</ele>
        <time>2023-07-04T14:10:14.000Z</time>
      </trkpt>
      <trkpt lat="45.84497" lon="4.62125">
        <ele>317.41754</ele>
        <time>2023-07-04T14:10:15.000Z</time>
      </trkpt>
      <trkpt lat="45.84501" lon="4.62126">
        <ele>317.64465</ele>
        <time>2023-07-04T14:10:16.000Z</time>
      </trkpt>
      <trkpt lat="45.84504" lon="4.62127">
        <ele>317.81378</ele>
        <time>2023-07-04T14:10:17.000Z</time>
      </trkpt>
      <trkpt lat="45.84507" lon="4.62128">
        <ele>317.97568</ele>
        <time>2023-07-04T14:10:18.000Z</time>
      </trkpt>
      <trkpt lat="45.8451" lon="4.62129">
        <ele>318.00186</ele>
        <time>2023-07-04T14:10:19.000Z</time>
      </trkpt>
      <trkpt lat="45.84513" lon="4.6213">
        <ele>318.16165</ele>
        <time>2023-07-04T14:10:20.000Z</time>
      </trkpt>
      <trkpt lat="45.84516" lon="4.62131">
        <ele>318.75735</ele>
        <time>2023-07-04T14:10:21.000Z</time>
      </trkpt>
      <trkpt lat="45.84519" lon="4.62132">
        <ele>319.34201</ele>
        <time>2023-07-04T14:10:22.000Z</time>
      </trkpt>
      <trkpt lat="45.84522" lon="4.62134">
        <ele>319.91733</ele>
        <time>2023-07-04T14:10:23.000Z</time>
      </trkpt>
      <trkpt lat="45.84525" lon="4.62135">
        <ele>320.49295</ele>
        <time>2023-07-04T14:10:24.000Z</time>
      </trkpt>
      <trkpt lat="45.84527" lon="4.62135">
        <ele>320.80511</ele>
        <time>2023-07-04T14:10:25.000Z</time>
      </trkpt>
      <trkpt lat="45.8453" lon="4.62136">
        <ele>321.24918</ele>
        <time>2023-07-04T14:10:26.000Z</time>
      </trkpt>
      <trkpt lat="45.84533" lon="4.62136">
        <ele>321.68628</ele>
        <time>2023-07-04T14:10:27.000Z</time>
      </trkpt>
      <trkpt lat="45.84536" lon="4.62137">
        <ele>321.77942</ele>
        <time>2023-07-04T14:10:28.000Z</time>
      </trkpt>
      <trkpt lat="45.84539" lon="4.62138">
        <ele>321.92993</ele>
        <time>2023-07-04T14:10:29.000Z</time>
      </trkpt>
      <trkpt lat="45.84543" lon="4.62139">
        <ele>322.08014</ele>
        <time>2023-07-04T14:10:30.000Z</time>
      </trkpt>
      <trkpt lat="45.84546" lon="4.6214">
        <ele>322.2146</ele>
        <time>2023-07-04T14:10:31.000Z</time>
      </trkpt>
      <trkpt lat="45.84549" lon="4.62141">
        <ele>322.32422</ele>
        <time>2023-07-04T14:10:32.000Z</time>
      </trkpt>
      <trkpt lat="45.84551" lon="4.62141">
        <ele>322.58243</ele>
        <time>2023-07-04T14:10:33.000Z</time>
      </trkpt>
      <trkpt lat="45.84555" lon="4.62142">
        <ele>322.95859</ele>
        <time>2023-07-04T14:10:34.000Z</time>
      </trkpt>
      <trkpt lat="45.84558" lon="4.62143">
        <ele>323.3486</ele>
        <time>2023-07-04T14:10:35.000Z</time>
      </trkpt>
      <trkpt lat="45.84561" lon="4.62144">
        <ele>323.36981</ele>
        <time>2023-07-04T14:10:36.000Z</time>
      </trkpt>
      <trkpt lat="45.84563" lon="4.62145">
        <ele>323.43283</ele>
        <time>2023-07-04T14:10:37.000Z</time>
      </trkpt>
      <trkpt lat="45.84566" lon="4.62145">
        <ele>323.50208</ele>
        <time>2023-07-04T14:10:38.000Z</time>
      </trkpt>
      <trkpt lat="45.84569" lon="4.62146">
        <ele>323.70901</ele>
        <time>2023-07-04T14:10:39.000Z</time>
      </trkpt>
      <trkpt lat="45.84572" lon="4.62147">
        <ele>323.77304</ele>
        <time>2023-07-04T14:10:40.000Z</time>
      </trkpt>
      <trkpt lat="45.84576" lon="4.62147">
        <ele>323.39862</ele>
        <time>2023-07-04T14:10:41.000Z</time>
      </trkpt>
      <trkpt lat="45.84579" lon="4.62148">
        <ele>323.03217</ele>
        <time>2023-07-04T14:10:42.000Z</time>
      </trkpt>
      <trkpt lat="45.84582" lon="4.62149">
        <ele>322.67615</ele>
        <time>2023-07-04T14:10:43.000Z</time>
      </trkpt>
      <trkpt lat="45.84585" lon="4.62149">
        <ele>322.33173</ele>
        <time>2023-07-04T14:10:44.000Z</time>
      </trkpt>
      <trkpt lat="45.84589" lon="4.6215">
        <ele>322.40445</ele>
        <time>2023-07-04T14:10:45.000Z</time>
      </trkpt>
      <trkpt lat="45.84592" lon="4.6215">
        <ele>322.4541</ele>
        <time>2023-07-04T14:10:46.000Z</time>
      </trkpt>
      <trkpt lat="45.84596" lon="4.6215">
        <ele>322.50555</ele>
        <time>2023-07-04T14:10:47.000Z</time>
      </trkpt>
      <trkpt lat="45.846" lon="4.62151">
        <ele>322.53741</ele>
        <time>2023-07-04T14:10:48.000Z</time>
      </trkpt>
      <trkpt lat="45.84603" lon="4.62151">
        <ele>322.37744</ele>
        <time>2023-07-04T14:10:49.000Z</time>
      </trkpt>
      <trkpt lat="45.84607" lon="4.62152">
        <ele>322.71558</ele>
        <time>2023-07-04T14:10:50.000Z</time>
      </trkpt>
      <trkpt lat="45.84611" lon="4.62152">
        <ele>323.07147</ele>
        <time>2023-07-04T14:10:51.000Z</time>
      </trkpt>
      <trkpt lat="45.84615" lon="4.62153">
        <ele>323.44455</ele>
        <time>2023-07-04T14:10:52.000Z</time>
      </trkpt>
      <trkpt lat="45.84619" lon="4.62154">
        <ele>323.82178</ele>
        <time>2023-07-04T14:10:53.000Z</time>
      </trkpt>
      <trkpt lat="45.84623" lon="4.62156">
        <ele>324.31949</ele>
        <time>2023-07-04T14:10:54.000Z</time>
      </trkpt>
      <trkpt lat="45.84628" lon="4.62157">
        <ele>324.68188</ele>
        <time>2023-07-04T14:10:55.000Z</time>
      </trkpt>
      <trkpt lat="45.84633" lon="4.62159">
        <ele>324.71982</ele>
        <time>2023-07-04T14:10:56.000Z</time>
      </trkpt>
      <trkpt lat="45.84638" lon="4.62161">
        <ele>324.7468</ele>
        <time>2023-07-04T14:10:57.000Z</time>
      </trkpt>
      <trkpt lat="45.84643" lon="4.62162">
        <ele>324.77878</ele>
        <time>2023-07-04T14:10:58.000Z</time>
      </trkpt>
      <trkpt lat="45.84648" lon="4.62163">
        <ele>324.80389</ele>
        <time>2023-07-04T14:10:59.000Z</time>
      </trkpt>
      <trkpt lat="45.84654" lon="4.62164">
        <ele>324.50766</ele>
        <time>2023-07-04T14:11:00.000Z</time>
      </trkpt>
      <trkpt lat="45.84658" lon="4.62166">
        <ele>324.83749</ele>
        <time>2023-07-04T14:11:01.000Z</time>
      </trkpt>
      <trkpt lat="45.84664" lon="4.62167">
        <ele>325.14987</ele>
        <time>2023-07-04T14:11:02.000Z</time>
      </trkpt>
      <trkpt lat="45.8467" lon="4.62168">
        <ele>325.42911</ele>
        <time>2023-07-04T14:11:03.000Z</time>
      </trkpt>
      <trkpt lat="45.84675" lon="4.62169">
        <ele>325.56851</ele>
        <time>2023-07-04T14:11:04.000Z</time>
      </trkpt>
      <trkpt lat="45.84681" lon="4.62171">
        <ele>325.85925</ele>
        <time>2023-07-04T14:11:05.000Z</time>
      </trkpt>
      <trkpt lat="45.84686" lon="4.62171">
        <ele>326.12964</ele>
        <time>2023-07-04T14:11:06.000Z</time>
      </trkpt>
      <trkpt lat="45.84692" lon="4.62171">
        <ele>326.39191</ele>
        <time>2023-07-04T14:11:07.000Z</time>
      </trkpt>
      <trkpt lat="45.84698" lon="4.6217">
        <ele>326.64789</ele>
        <time>2023-07-04T14:11:08.000Z</time>
      </trkpt>
      <trkpt lat="45.84704" lon="4.62169">
        <ele>327.01141</ele>
        <time>2023-07-04T14:11:09.000Z</time>
      </trkpt>
      <trkpt lat="45.84711" lon="4.62168">
        <ele>327.01337</ele>
        <time>2023-07-04T14:11:10.000Z</time>
      </trkpt>
      <trkpt lat="45.84717" lon="4.62167">
        <ele>327.00653</ele>
        <time>2023-07-04T14:11:11.000Z</time>
      </trkpt>
      <trkpt lat="45.84724" lon="4.62166">
        <ele>326.93378</ele>
        <time>2023-07-04T14:11:12.000Z</time>
      </trkpt>
      <trkpt lat="45.8473" lon="4.62166">
        <ele>326.85779</ele>
        <time>2023-07-04T14:11:13.000Z</time>
      </trkpt>
      <trkpt lat="45.84737" lon="4.62166">
        <ele>326.6225</ele>
        <time>2023-07-04T14:11:14.000Z</time>
      </trkpt>
      <trkpt lat="45.84741" lon="4.62168">
        <ele>326.50821</ele>
        <time>2023-07-04T14:11:15.000Z</time>
      </trkpt>
      <trkpt lat="45.84744" lon="4.62169">
        <ele>326.65936</ele>
        <time>2023-07-04T14:11:16.000Z</time>
      </trkpt>
      <trkpt lat="45.84746" lon="4.62171">
        <ele>326.98328</ele>
        <time>2023-07-04T14:11:18.000Z</time>
      </trkpt>
      <trkpt lat="45.84748" lon="4.62171">
        <ele>327.36877</ele>
        <time>2023-07-04T14:13:05.000Z</time>
      </trkpt>
      <trkpt lat="45.84751" lon="4.62173">
        <ele>327.73578</ele>
        <time>2023-07-04T14:13:07.000Z</time>
      </trkpt>
      <trkpt lat="45.84753" lon="4.62171">
        <ele>328.50607</ele>
        <time>2023-07-04T14:13:08.000Z</time>
      </trkpt>
      <trkpt lat="45.84753" lon="4.62168">
        <ele>328.65573</ele>
        <time>2023-07-04T14:13:09.000Z</time>
      </trkpt>
      <trkpt lat="45.84751" lon="4.62165">
        <ele>328.77399</ele>
        <time>2023-07-04T14:13:10.000Z</time>
      </trkpt>
      <trkpt lat="45.84749" lon="4.62164">
        <ele>328.90509</ele>
        <time>2023-07-04T14:13:11.000Z</time>
      </trkpt>
      <trkpt lat="45.84746" lon="4.62162">
        <ele>329.15262</ele>
        <time>2023-07-04T14:13:12.000Z</time>
      </trkpt>
      <trkpt lat="45.84743" lon="4.62161">
        <ele>329.23557</ele>
        <time>2023-07-04T14:13:13.000Z</time>
      </trkpt>
      <trkpt lat="45.84741" lon="4.62161">
        <ele>329.31708</ele>
        <time>2023-07-04T14:13:14.000Z</time>
      </trkpt>
      <trkpt lat="45.84738" lon="4.62162">
        <ele>329.423</ele>
        <time>2023-07-04T14:13:15.000Z</time>
      </trkpt>
      <trkpt lat="45.84734" lon="4.62162">
        <ele>329.54843</ele>
        <time>2023-07-04T14:13:16.000Z</time>
      </trkpt>
      <trkpt lat="45.84732" lon="4.62162">
        <ele>329.77182</ele>
        <time>2023-07-04T14:13:17.000Z</time>
      </trkpt>
      <trkpt lat="45.84729" lon="4.62162">
        <ele>329.86938</ele>
        <time>2023-07-04T14:13:18.000Z</time>
      </trkpt>
      <trkpt lat="45.84726" lon="4.62163">
        <ele>330.06647</ele>
        <time>2023-07-04T14:13:19.000Z</time>
      </trkpt>
      <trkpt lat="45.84723" lon="4.62164">
        <ele>330.33618</ele>
        <time>2023-07-04T14:13:20.000Z</time>
      </trkpt>
      <trkpt lat="45.84721" lon="4.62165">
        <ele>330.62793</ele>
        <time>2023-07-04T14:13:21.000Z</time>
      </trkpt>
      <trkpt lat="45.84718" lon="4.62166">
        <ele>330.95798</ele>
        <time>2023-07-04T14:13:22.000Z</time>
      </trkpt>
      <trkpt lat="45.84715" lon="4.62166">
        <ele>331.28564</ele>
        <time>2023-07-04T14:13:23.000Z</time>
      </trkpt>
      <trkpt lat="45.84711" lon="4.62166">
        <ele>331.67279</ele>
        <time>2023-07-04T14:13:24.000Z</time>
      </trkpt>
      <trkpt lat="45.84708" lon="4.62166">
        <ele>331.92004</ele>
        <time>2023-07-04T14:13:25.000Z</time>
      </trkpt>
      <trkpt lat="45.84704" lon="4.62166">
        <ele>332.09662</ele>
        <time>2023-07-04T14:13:26.000Z</time>
      </trkpt>
      <trkpt lat="45.84701" lon="4.62166">
        <ele>332.29913</ele>
        <time>2023-07-04T14:13:27.000Z</time>
      </trkpt>
      <trkpt lat="45.84698" lon="4.62166">
        <ele>332.42889</ele>
        <time>2023-07-04T14:13:28.000Z</time>
      </trkpt>
      <trkpt lat="45.84694" lon="4.62165">
        <ele>332.57675</ele>
        <time>2023-07-04T14:13:29.000Z</time>
      </trkpt>
      <trkpt lat="45.84691" lon="4.62165">
        <ele>332.76883</ele>
        <time>2023-07-04T14:13:30.000Z</time>
      </trkpt>
      <trkpt lat="45.84688" lon="4.62165">
        <ele>332.96466</ele>
        <time>2023-07-04T14:13:31.000Z</time>
      </trkpt>
      <trkpt lat="45.84685" lon="4.62166">
        <ele>333.1723</ele>
        <time>2023-07-04T14:13:32.000Z</time>
      </trkpt>
      <trkpt lat="45.84682" lon="4.62167">
        <ele>333.39212</ele>
        <time>2023-07-04T14:13:33.000Z</time>
      </trkpt>
      <trkpt lat="45.8468" lon="4.62169">
        <ele>333.64307</ele>
        <time>2023-07-04T14:13:34.000Z</time>
      </trkpt>
      <trkpt lat="45.84678" lon="4.62172">
        <ele>333.87833</ele>
        <time>2023-07-04T14:13:35.000Z</time>
      </trkpt>
      <trkpt lat="45.84677" lon="4.62175">
        <ele>334.11179</ele>
        <time>2023-07-04T14:13:36.000Z</time>
      </trkpt>
      <trkpt lat="45.84677" lon="4.62179">
        <ele>334.31744</ele>
        <time>2023-07-04T14:13:37.000Z</time>
      </trkpt>
      <trkpt lat="45.84676" lon="4.62182">
        <ele>334.52084</ele>
        <time>2023-07-04T14:13:38.000Z</time>
      </trkpt>
      <trkpt lat="45.84676" lon="4.62185">
        <ele>334.63522</ele>
        <time>2023-07-04T14:13:39.000Z</time>
      </trkpt>
      <trkpt lat="45.84676" lon="4.62189">
        <ele>334.73438</ele>
        <time>2023-07-04T14:13:40.000Z</time>
      </trkpt>
      <trkpt lat="45.84677" lon="4.62192">
        <ele>334.81119</ele>
        <time>2023-07-04T14:13:41.000Z</time>
      </trkpt>
      <trkpt lat="45.84679" lon="4.62196">
        <ele>334.8707</ele>
        <time>2023-07-04T14:13:42.000Z</time>
      </trkpt>
      <trkpt lat="45.84682" lon="4.62199">
        <ele>334.92743</ele>
        <time>2023-07-04T14:13:43.000Z</time>
      </trkpt>
      <trkpt lat="45.84685" lon="4.62202">
        <ele>334.9798</ele>
        <time>2023-07-04T14:13:44.000Z</time>
      </trkpt>
      <trkpt lat="45.84687" lon="4.62205">
        <ele>335.03497</ele>
        <time>2023-07-04T14:13:45.000Z</time>
      </trkpt>
      <trkpt lat="45.8469" lon="4.62208">
        <ele>335.06192</ele>
        <time>2023-07-04T14:13:46.000Z</time>
      </trkpt>
      <trkpt lat="45.84692" lon="4.62212">
        <ele>335.07748</ele>
        <time>2023-07-04T14:13:47.000Z</time>
      </trkpt>
      <trkpt lat="45.84695" lon="4.62217">
        <ele>335.09363</ele>
        <time>2023-07-04T14:13:48.000Z</time>
      </trkpt>
      <trkpt lat="45.84697" lon="4.62221">
        <ele>335.10175</ele>
        <time>2023-07-04T14:13:49.000Z</time>
      </trkpt>
      <trkpt lat="45.847" lon="4.62226">
        <ele>335.09106</ele>
        <time>2023-07-04T14:13:50.000Z</time>
      </trkpt>
      <trkpt lat="45.84703" lon="4.62231">
        <ele>335.073</ele>
        <time>2023-07-04T14:13:51.000Z</time>
      </trkpt>
      <trkpt lat="45.84706" lon="4.62237">
        <ele>335.0332</ele>
        <time>2023-07-04T14:13:52.000Z</time>
      </trkpt>
      <trkpt lat="45.84709" lon="4.62242">
        <ele>334.97614</ele>
        <time>2023-07-04T14:13:53.000Z</time>
      </trkpt>
      <trkpt lat="45.84712" lon="4.62248">
        <ele>334.90137</ele>
        <time>2023-07-04T14:13:54.000Z</time>
      </trkpt>
      <trkpt lat="45.84716" lon="4.62254">
        <ele>334.80374</ele>
        <time>2023-07-04T14:13:55.000Z</time>
      </trkpt>
      <trkpt lat="45.84719" lon="4.62261">
        <ele>334.6893</ele>
        <time>2023-07-04T14:13:56.000Z</time>
      </trkpt>
      <trkpt lat="45.84722" lon="4.62267">
        <ele>334.5791</ele>
        <time>2023-07-04T14:13:57.000Z</time>
      </trkpt>
      <trkpt lat="45.84726" lon="4.62273">
        <ele>334.43243</ele>
        <time>2023-07-04T14:13:58.000Z</time>
      </trkpt>
      <trkpt lat="45.8473" lon="4.62279">
        <ele>334.29041</ele>
        <time>2023-07-04T14:13:59.000Z</time>
      </trkpt>
      <trkpt lat="45.84734" lon="4.62286">
        <ele>334.15143</ele>
        <time>2023-07-04T14:14:00.000Z</time>
      </trkpt>
      <trkpt lat="45.84737" lon="4.62292">
        <ele>333.99921</ele>
        <time>2023-07-04T14:14:01.000Z</time>
      </trkpt>
      <trkpt lat="45.84741" lon="4.62299">
        <ele>333.83221</ele>
        <time>2023-07-04T14:14:02.000Z</time>
      </trkpt>
      <trkpt lat="45.84745" lon="4.62306">
        <ele>333.66245</ele>
        <time>2023-07-04T14:14:03.000Z</time>
      </trkpt>
      <trkpt lat="45.84748" lon="4.62314">
        <ele>333.49774</ele>
        <time>2023-07-04T14:14:04.000Z</time>
      </trkpt>
      <trkpt lat="45.84752" lon="4.6232">
        <ele>333.306</ele>
        <time>2023-07-04T14:14:05.000Z</time>
      </trkpt>
      <trkpt lat="45.84755" lon="4.62327">
        <ele>333.15787</ele>
        <time>2023-07-04T14:14:06.000Z</time>
      </trkpt>
      <trkpt lat="45.84759" lon="4.62335">
        <ele>333.01059</ele>
        <time>2023-07-04T14:14:07.000Z</time>
      </trkpt>
      <trkpt lat="45.84762" lon="4.62343">
        <ele>332.85263</ele>
        <time>2023-07-04T14:14:08.000Z</time>
      </trkpt>
      <trkpt lat="45.84766" lon="4.6235">
        <ele>332.67105</ele>
        <time>2023-07-04T14:14:09.000Z</time>
      </trkpt>
      <trkpt lat="45.84769" lon="4.62358">
        <ele>332.47714</ele>
        <time>2023-07-04T14:14:10.000Z</time>
      </trkpt>
      <trkpt lat="45.84773" lon="4.62365">
        <ele>332.27454</ele>
        <time>2023-07-04T14:14:11.000Z</time>
      </trkpt>
      <trkpt lat="45.84776" lon="4.62374">
        <ele>332.10834</ele>
        <time>2023-07-04T14:14:12.000Z</time>
      </trkpt>
      <trkpt lat="45.84779" lon="4.62382">
        <ele>331.94415</ele>
        <time>2023-07-04T14:14:13.000Z</time>
      </trkpt>
      <trkpt lat="45.84783" lon="4.6239">
        <ele>331.81006</ele>
        <time>2023-07-04T14:14:14.000Z</time>
      </trkpt>
      <trkpt lat="45.84786" lon="4.624">
        <ele>331.66754</ele>
        <time>2023-07-04T14:14:15.000Z</time>
      </trkpt>
      <trkpt lat="45.84789" lon="4.62408">
        <ele>331.52133</ele>
        <time>2023-07-04T14:14:16.000Z</time>
      </trkpt>
      <trkpt lat="45.84793" lon="4.62417">
        <ele>331.30118</ele>
        <time>2023-07-04T14:14:17.000Z</time>
      </trkpt>
      <trkpt lat="45.84796" lon="4.62425">
        <ele>331.09186</ele>
        <time>2023-07-04T14:14:18.000Z</time>
      </trkpt>
      <trkpt lat="45.84799" lon="4.62434">
        <ele>330.88837</ele>
        <time>2023-07-04T14:14:19.000Z</time>
      </trkpt>
      <trkpt lat="45.84802" lon="4.62441">
        <ele>330.75876</ele>
        <time>2023-07-04T14:14:20.000Z</time>
      </trkpt>
      <trkpt lat="45.84805" lon="4.62447">
        <ele>330.59622</ele>
        <time>2023-07-04T14:14:21.000Z</time>
      </trkpt>
      <trkpt lat="45.84806" lon="4.62452">
        <ele>330.46536</ele>
        <time>2023-07-04T14:14:22.000Z</time>
      </trkpt>
      <trkpt lat="45.84807" lon="4.62456">
        <ele>330.25714</ele>
        <time>2023-07-04T14:14:23.000Z</time>
      </trkpt>
      <trkpt lat="45.84809" lon="4.6246">
        <ele>330.03851</ele>
        <time>2023-07-04T14:14:24.000Z</time>
      </trkpt>
      <trkpt lat="45.84811" lon="4.62464">
        <ele>329.83856</ele>
        <time>2023-07-04T14:14:25.000Z</time>
      </trkpt>
      <trkpt lat="45.84813" lon="4.62468">
        <ele>329.6109</ele>
        <time>2023-07-04T14:14:26.000Z</time>
      </trkpt>
      <trkpt lat="45.84815" lon="4.62472">
        <ele>329.39182</ele>
        <time>2023-07-04T14:14:27.000Z</time>
      </trkpt>
      <trkpt lat="45.84817" lon="4.62478">
        <ele>329.18686</ele>
        <time>2023-07-04T14:14:28.000Z</time>
      </trkpt>
      <trkpt lat="45.84819" lon="4.62483">
        <ele>328.99622</ele>
        <time>2023-07-04T14:14:29.000Z</time>
      </trkpt>
      <trkpt lat="45.8482" lon="4.62487">
        <ele>328.90167</ele>
        <time>2023-07-04T14:14:30.000Z</time>
      </trkpt>
      <trkpt lat="45.84821" lon="4.62491">
        <ele>328.80194</ele>
        <time>2023-07-04T14:14:31.000Z</time>
      </trkpt>
      <trkpt lat="45.84822" lon="4.62496">
        <ele>328.68814</ele>
        <time>2023-07-04T14:14:32.000Z</time>
      </trkpt>
      <trkpt lat="45.84821" lon="4.625">
        <ele>328.61652</ele>
        <time>2023-07-04T14:14:33.000Z</time>
      </trkpt>
      <trkpt lat="45.8482" lon="4.62504">
        <ele>328.56219</ele>
        <time>2023-07-04T14:14:34.000Z</time>
      </trkpt>
      <trkpt lat="45.84819" lon="4.62508">
        <ele>328.53848</ele>
        <time>2023-07-04T14:14:35.000Z</time>
      </trkpt>
      <trkpt lat="45.84817" lon="4.62511">
        <ele>328.43277</ele>
        <time>2023-07-04T14:14:36.000Z</time>
      </trkpt>
      <trkpt lat="45.84816" lon="4.62514">
        <ele>328.44955</ele>
        <time>2023-07-04T14:14:37.000Z</time>
      </trkpt>
      <trkpt lat="45.84816" lon="4.62517">
        <ele>328.48749</ele>
        <time>2023-07-04T14:14:38.000Z</time>
      </trkpt>
      <trkpt lat="45.84816" lon="4.62521">
        <ele>328.49896</ele>
        <time>2023-07-04T14:14:39.000Z</time>
      </trkpt>
      <trkpt lat="45.84816" lon="4.62524">
        <ele>328.4342</ele>
        <time>2023-07-04T14:14:40.000Z</time>
      </trkpt>
      <trkpt lat="45.84818" lon="4.62528">
        <ele>328.48016</ele>
        <time>2023-07-04T14:14:41.000Z</time>
      </trkpt>
      <trkpt lat="45.8482" lon="4.62533">
        <ele>328.34171</ele>
        <time>2023-07-04T14:14:42.000Z</time>
      </trkpt>
      <trkpt lat="45.84822" lon="4.62539">
        <ele>328.28143</ele>
        <time>2023-07-04T14:14:43.000Z</time>
      </trkpt>
      <trkpt lat="45.84824" lon="4.62546">
        <ele>328.24176</ele>
        <time>2023-07-04T14:14:44.000Z</time>
      </trkpt>
      <trkpt lat="45.84826" lon="4.62553">
        <ele>328.26834</ele>
        <time>2023-07-04T14:14:45.000Z</time>
      </trkpt>
      <trkpt lat="45.84827" lon="4.62563">
        <ele>328.30957</ele>
        <time>2023-07-04T14:14:46.000Z</time>
      </trkpt>
      <trkpt lat="45.84828" lon="4.62573">
        <ele>328.29288</ele>
        <time>2023-07-04T14:14:47.000Z</time>
      </trkpt>
      <trkpt lat="45.84829" lon="4.62586">
        <ele>328.27264</ele>
        <time>2023-07-04T14:14:48.000Z</time>
      </trkpt>
      <trkpt lat="45.84829" lon="4.62599">
        <ele>328.16779</ele>
        <time>2023-07-04T14:14:49.000Z</time>
      </trkpt>
      <trkpt lat="45.84827" lon="4.62613">
        <ele>327.92755</ele>
        <time>2023-07-04T14:14:50.000Z</time>
      </trkpt>
      <trkpt lat="45.84825" lon="4.62627">
        <ele>327.67459</ele>
        <time>2023-07-04T14:14:51.000Z</time>
      </trkpt>
      <trkpt lat="45.84821" lon="4.6264">
        <ele>327.34113</ele>
        <time>2023-07-04T14:14:52.000Z</time>
      </trkpt>
      <trkpt lat="45.84816" lon="4.62653">
        <ele>326.9278</ele>
        <time>2023-07-04T14:14:53.000Z</time>
      </trkpt>
      <trkpt lat="45.84812" lon="4.62665">
        <ele>326.43793</ele>
        <time>2023-07-04T14:14:54.000Z</time>
      </trkpt>
      <trkpt lat="45.84808" lon="4.62674">
        <ele>325.90381</ele>
        <time>2023-07-04T14:14:55.000Z</time>
      </trkpt>
      <trkpt lat="45.84805" lon="4.62684">
        <ele>325.44229</ele>
        <time>2023-07-04T14:14:56.000Z</time>
      </trkpt>
      <trkpt lat="45.84802" lon="4.62695">
        <ele>324.93726</ele>
        <time>2023-07-04T14:14:57.000Z</time>
      </trkpt>
      <trkpt lat="45.84799" lon="4.62706">
        <ele>324.37933</ele>
        <time>2023-07-04T14:14:58.000Z</time>
      </trkpt>
      <trkpt lat="45.84797" lon="4.62715">
        <ele>323.79379</ele>
        <time>2023-07-04T14:14:59.000Z</time>
      </trkpt>
      <trkpt lat="45.84795" lon="4.62725">
        <ele>323.14606</ele>
        <time>2023-07-04T14:15:00.000Z</time>
      </trkpt>
      <trkpt lat="45.84794" lon="4.62733">
        <ele>322.37494</ele>
        <time>2023-07-04T14:15:01.000Z</time>
      </trkpt>
      <trkpt lat="45.84794" lon="4.62739">
        <ele>321.7579</ele>
        <time>2023-07-04T14:15:02.000Z</time>
      </trkpt>
      <trkpt lat="45.84793" lon="4.62743">
        <ele>321.12146</ele>
        <time>2023-07-04T14:15:03.000Z</time>
      </trkpt>
      <trkpt lat="45.84793" lon="4.62746">
        <ele>320.45346</ele>
        <time>2023-07-04T14:15:04.000Z</time>
      </trkpt>
      <trkpt lat="45.84792" lon="4.62749">
        <ele>319.86041</ele>
        <time>2023-07-04T14:15:12.000Z</time>
      </trkpt>
      <trkpt lat="45.84795" lon="4.62754">
        <ele>319.0838</ele>
        <time>2023-07-04T14:15:14.000Z</time>
      </trkpt>
      <trkpt lat="45.84798" lon="4.62759">
        <ele>318.35056</ele>
        <time>2023-07-04T14:15:15.000Z</time>
      </trkpt>
      <trkpt lat="45.84799" lon="4.62764">
        <ele>317.61383</ele>
        <time>2023-07-04T14:15:16.000Z</time>
      </trkpt>
      <trkpt lat="45.84802" lon="4.62771">
        <ele>316.9671</ele>
        <time>2023-07-04T14:15:17.000Z</time>
      </trkpt>
      <trkpt lat="45.84804" lon="4.62777">
        <ele>316.41696</ele>
        <time>2023-07-04T14:15:18.000Z</time>
      </trkpt>
      <trkpt lat="45.84804" lon="4.62784">
        <ele>315.93121</ele>
        <time>2023-07-04T14:15:19.000Z</time>
      </trkpt>
      <trkpt lat="45.84804" lon="4.62792">
        <ele>315.51825</ele>
        <time>2023-07-04T14:15:20.000Z</time>
      </trkpt>
      <trkpt lat="45.84806" lon="4.62799">
        <ele>315.24078</ele>
        <time>2023-07-04T14:15:21.000Z</time>
      </trkpt>
      <trkpt lat="45.84806" lon="4.62805">
        <ele>314.92719</ele>
        <time>2023-07-04T14:15:22.000Z</time>
      </trkpt>
      <trkpt lat="45.84805" lon="4.6281">
        <ele>314.78043</ele>
        <time>2023-07-04T14:15:23.000Z</time>
      </trkpt>
      <trkpt lat="45.84805" lon="4.62816">
        <ele>314.60321</ele>
        <time>2023-07-04T14:15:24.000Z</time>
      </trkpt>
      <trkpt lat="45.84803" lon="4.62824">
        <ele>314.38608</ele>
        <time>2023-07-04T14:15:25.000Z</time>
      </trkpt>
      <trkpt lat="45.848" lon="4.62831">
        <ele>314.18372</ele>
        <time>2023-07-04T14:15:26.000Z</time>
      </trkpt>
      <trkpt lat="45.84796" lon="4.62837">
        <ele>314.17905</ele>
        <time>2023-07-04T14:15:27.000Z</time>
      </trkpt>
      <trkpt lat="45.84793" lon="4.62845">
        <ele>313.93732</ele>
        <time>2023-07-04T14:15:28.000Z</time>
      </trkpt>
      <trkpt lat="45.84789" lon="4.62851">
        <ele>313.81476</ele>
        <time>2023-07-04T14:15:29.000Z</time>
      </trkpt>
      <trkpt lat="45.84786" lon="4.62858">
        <ele>313.75742</ele>
        <time>2023-07-04T14:15:30.000Z</time>
      </trkpt>
      <trkpt lat="45.84781" lon="4.62862">
        <ele>313.79889</ele>
        <time>2023-07-04T14:15:31.000Z</time>
      </trkpt>
      <trkpt lat="45.84774" lon="4.62867">
        <ele>313.87399</ele>
        <time>2023-07-04T14:15:32.000Z</time>
      </trkpt>
      <trkpt lat="45.84769" lon="4.6287">
        <ele>313.82513</ele>
        <time>2023-07-04T14:15:33.000Z</time>
      </trkpt>
      <trkpt lat="45.84765" lon="4.62875">
        <ele>313.93414</ele>
        <time>2023-07-04T14:15:34.000Z</time>
      </trkpt>
      <trkpt lat="45.84763" lon="4.62879">
        <ele>314.06699</ele>
        <time>2023-07-04T14:15:35.000Z</time>
      </trkpt>
      <trkpt lat="45.84759" lon="4.62883">
        <ele>314.21753</ele>
        <time>2023-07-04T14:15:36.000Z</time>
      </trkpt>
      <trkpt lat="45.84755" lon="4.62886">
        <ele>314.26675</ele>
        <time>2023-07-04T14:15:37.000Z</time>
      </trkpt>
      <trkpt lat="45.84753" lon="4.62891">
        <ele>314.27701</ele>
        <time>2023-07-04T14:15:38.000Z</time>
      </trkpt>
      <trkpt lat="45.84747" lon="4.62895">
        <ele>314.2522</ele>
        <time>2023-07-04T14:15:39.000Z</time>
      </trkpt>
      <trkpt lat="45.84742" lon="4.62899">
        <ele>314.46533</ele>
        <time>2023-07-04T14:15:40.000Z</time>
      </trkpt>
      <trkpt lat="45.84738" lon="4.62904">
        <ele>314.67725</ele>
        <time>2023-07-04T14:15:41.000Z</time>
      </trkpt>
      <trkpt lat="45.84734" lon="4.62908">
        <ele>314.68115</ele>
        <time>2023-07-04T14:15:42.000Z</time>
      </trkpt>
      <trkpt lat="45.84732" lon="4.62913">
        <ele>314.61655</ele>
        <time>2023-07-04T14:15:43.000Z</time>
      </trkpt>
      <trkpt lat="45.84728" lon="4.62916">
        <ele>314.54807</ele>
        <time>2023-07-04T14:15:44.000Z</time>
      </trkpt>
      <trkpt lat="45.84724" lon="4.62922">
        <ele>314.43707</ele>
        <time>2023-07-04T14:15:45.000Z</time>
      </trkpt>
      <trkpt lat="45.84722" lon="4.62926">
        <ele>314.31732</ele>
        <time>2023-07-04T14:15:46.000Z</time>
      </trkpt>
      <trkpt lat="45.8472" lon="4.6293">
        <ele>313.98904</ele>
        <time>2023-07-04T14:15:47.000Z</time>
      </trkpt>
      <trkpt lat="45.84718" lon="4.62934">
        <ele>313.98871</ele>
        <time>2023-07-04T14:15:48.000Z</time>
      </trkpt>
      <trkpt lat="45.84716" lon="4.62938">
        <ele>313.79623</ele>
        <time>2023-07-04T14:15:49.000Z</time>
      </trkpt>
      <trkpt lat="45.84715" lon="4.62942">
        <ele>313.55042</ele>
        <time>2023-07-04T14:15:50.000Z</time>
      </trkpt>
      <trkpt lat="45.84714" lon="4.62946">
        <ele>313.15851</ele>
        <time>2023-07-04T14:15:51.000Z</time>
      </trkpt>
      <trkpt lat="45.84712" lon="4.62951">
        <ele>312.75076</ele>
        <time>2023-07-04T14:15:52.000Z</time>
      </trkpt>
      <trkpt lat="45.84711" lon="4.62956">
        <ele>312.40057</ele>
        <time>2023-07-04T14:15:53.000Z</time>
      </trkpt>
      <trkpt lat="45.84707" lon="4.62961">
        <ele>312.03531</ele>
        <time>2023-07-04T14:15:54.000Z</time>
      </trkpt>
      <trkpt lat="45.84706" lon="4.62968">
        <ele>311.68774</ele>
        <time>2023-07-04T14:15:55.000Z</time>
      </trkpt>
      <trkpt lat="45.84705" lon="4.62975">
        <ele>311.27374</ele>
        <time>2023-07-04T14:15:56.000Z</time>
      </trkpt>
      <trkpt lat="45.84706" lon="4.62983">
        <ele>311.02084</ele>
        <time>2023-07-04T14:15:57.000Z</time>
      </trkpt>
      <trkpt lat="45.84706" lon="4.62993">
        <ele>310.77264</ele>
        <time>2023-07-04T14:15:58.000Z</time>
      </trkpt>
      <trkpt lat="45.84707" lon="4.63001">
        <ele>310.4216</ele>
        <time>2023-07-04T14:15:59.000Z</time>
      </trkpt>
      <trkpt lat="45.84709" lon="4.63009">
        <ele>309.77002</ele>
        <time>2023-07-04T14:16:00.000Z</time>
      </trkpt>
      <trkpt lat="45.84711" lon="4.63016">
        <ele>309.1843</ele>
        <time>2023-07-04T14:16:01.000Z</time>
      </trkpt>
      <trkpt lat="45.84714" lon="4.63021">
        <ele>308.88068</ele>
        <time>2023-07-04T14:16:02.000Z</time>
      </trkpt>
      <trkpt lat="45.84717" lon="4.63026">
        <ele>308.50693</ele>
        <time>2023-07-04T14:16:03.000Z</time>
      </trkpt>
      <trkpt lat="45.84719" lon="4.63031">
        <ele>308.15439</ele>
        <time>2023-07-04T14:16:04.000Z</time>
      </trkpt>
      <trkpt lat="45.84722" lon="4.63036">
        <ele>307.91153</ele>
        <time>2023-07-04T14:16:05.000Z</time>
      </trkpt>
      <trkpt lat="45.84723" lon="4.6304">
        <ele>307.64026</ele>
        <time>2023-07-04T14:16:06.000Z</time>
      </trkpt>
      <trkpt lat="45.84724" lon="4.63044">
        <ele>307.33029</ele>
        <time>2023-07-04T14:16:07.000Z</time>
      </trkpt>
      <trkpt lat="45.84727" lon="4.63049">
        <ele>307.29645</ele>
        <time>2023-07-04T14:16:09.000Z</time>
      </trkpt>
      <trkpt lat="45.84729" lon="4.63049">
        <ele>307.09357</ele>
        <time>2023-07-04T14:16:11.000Z</time>
      </trkpt>
      <trkpt lat="45.84732" lon="4.6305">
        <ele>306.97745</ele>
        <time>2023-07-04T14:16:12.000Z</time>
      </trkpt>
      <trkpt lat="45.84734" lon="4.63049">
        <ele>306.83969</ele>
        <time>2023-07-04T14:16:13.000Z</time>
      </trkpt>
      <trkpt lat="45.84736" lon="4.63048">
        <ele>306.73611</ele>
        <time>2023-07-04T14:16:14.000Z</time>
      </trkpt>
      <trkpt lat="45.84739" lon="4.63046">
        <ele>306.47992</ele>
        <time>2023-07-04T14:16:15.000Z</time>
      </trkpt>
      <trkpt lat="45.84741" lon="4.63045">
        <ele>306.17657</ele>
        <time>2023-07-04T14:16:16.000Z</time>
      </trkpt>
      <trkpt lat="45.84743" lon="4.63044">
        <ele>305.94913</ele>
        <time>2023-07-04T14:16:17.000Z</time>
      </trkpt>
      <trkpt lat="45.84745" lon="4.63043">
        <ele>305.77783</ele>
        <time>2023-07-04T14:16:18.000Z</time>
      </trkpt>
      <trkpt lat="45.84744" lon="4.6304">
        <ele>305.51788</ele>
        <time>2023-07-04T14:16:20.000Z</time>
      </trkpt>
      <trkpt lat="45.84742" lon="4.6304">
        <ele>305.38699</ele>
        <time>2023-07-04T14:16:21.000Z</time>
      </trkpt>
      <trkpt lat="45.84739" lon="4.63042">
        <ele>305.59048</ele>
        <time>2023-07-04T14:16:22.000Z</time>
      </trkpt>
      <trkpt lat="45.84737" lon="4.63045">
        <ele>305.81122</ele>
        <time>2023-07-04T14:16:23.000Z</time>
      </trkpt>
      <trkpt lat="45.84736" lon="4.63049">
        <ele>305.901</ele>
        <time>2023-07-04T14:16:24.000Z</time>
      </trkpt>
      <trkpt lat="45.84735" lon="4.63052">
        <ele>306.11465</ele>
        <time>2023-07-04T14:16:25.000Z</time>
      </trkpt>
      <trkpt lat="45.84734" lon="4.63055">
        <ele>305.85931</ele>
        <time>2023-07-04T14:16:26.000Z</time>
      </trkpt>
      <trkpt lat="45.84734" lon="4.63059">
        <ele>305.6626</ele>
        <time>2023-07-04T14:16:27.000Z</time>
      </trkpt>
      <trkpt lat="45.84734" lon="4.63062">
        <ele>305.39691</ele>
        <time>2023-07-04T14:16:28.000Z</time>
      </trkpt>
      <trkpt lat="45.84733" lon="4.63065">
        <ele>305.12555</ele>
        <time>2023-07-04T14:16:29.000Z</time>
      </trkpt>
      <trkpt lat="45.84733" lon="4.63068">
        <ele>304.95044</ele>
        <time>2023-07-04T14:16:30.000Z</time>
      </trkpt>
      <trkpt lat="45.84732" lon="4.63071">
        <ele>304.46289</ele>
        <time>2023-07-04T14:16:31.000Z</time>
      </trkpt>
      <trkpt lat="45.84732" lon="4.63074">
        <ele>304.21906</ele>
        <time>2023-07-04T14:16:32.000Z</time>
      </trkpt>
      <trkpt lat="45.84731" lon="4.63078">
        <ele>303.90039</ele>
        <time>2023-07-04T14:16:33.000Z</time>
      </trkpt>
      <trkpt lat="45.8473" lon="4.63082">
        <ele>303.7016</ele>
        <time>2023-07-04T14:16:34.000Z</time>
      </trkpt>
      <trkpt lat="45.8473" lon="4.63086">
        <ele>303.48428</ele>
        <time>2023-07-04T14:16:35.000Z</time>
      </trkpt>
      <trkpt lat="45.84729" lon="4.63091">
        <ele>303.34335</ele>
        <time>2023-07-04T14:16:36.000Z</time>
      </trkpt>
      <trkpt lat="45.84729" lon="4.63095">
        <ele>303.29996</ele>
        <time>2023-07-04T14:16:37.000Z</time>
      </trkpt>
      <trkpt lat="45.84728" lon="4.63099">
        <ele>303.15039</ele>
        <time>2023-07-04T14:16:38.000Z</time>
      </trkpt>
      <trkpt lat="45.84727" lon="4.63103">
        <ele>303.0061</ele>
        <time>2023-07-04T14:16:39.000Z</time>
      </trkpt>
      <trkpt lat="45.84726" lon="4.63107">
        <ele>302.89105</ele>
        <time>2023-07-04T14:16:40.000Z</time>
      </trkpt>
      <trkpt lat="45.84725" lon="4.63111">
        <ele>302.66528</ele>
        <time>2023-07-04T14:16:41.000Z</time>
      </trkpt>
      <trkpt lat="45.84725" lon="4.63115">
        <ele>302.11346</ele>
        <time>2023-07-04T14:16:42.000Z</time>
      </trkpt>
      <trkpt lat="45.84724" lon="4.63118">
        <ele>301.87131</ele>
        <time>2023-07-04T14:16:43.000Z</time>
      </trkpt>
      <trkpt lat="45.84724" lon="4.63122">
        <ele>301.62714</ele>
        <time>2023-07-04T14:16:44.000Z</time>
      </trkpt>
      <trkpt lat="45.84723" lon="4.63126">
        <ele>301.27567</ele>
        <time>2023-07-04T14:16:45.000Z</time>
      </trkpt>
      <trkpt lat="45.84722" lon="4.6313">
        <ele>301.43033</ele>
        <time>2023-07-04T14:16:46.000Z</time>
      </trkpt>
      <trkpt lat="45.84722" lon="4.63135">
        <ele>301.58261</ele>
        <time>2023-07-04T14:16:47.000Z</time>
      </trkpt>
      <trkpt lat="45.84721" lon="4.63139">
        <ele>301.78851</ele>
        <time>2023-07-04T14:16:48.000Z</time>
      </trkpt>
      <trkpt lat="45.84721" lon="4.63144">
        <ele>302.07254</ele>
        <time>2023-07-04T14:16:49.000Z</time>
      </trkpt>
      <trkpt lat="45.8472" lon="4.63148">
        <ele>302.36786</ele>
        <time>2023-07-04T14:16:50.000Z</time>
      </trkpt>
      <trkpt lat="45.84719" lon="4.63153">
        <ele>302.68008</ele>
        <time>2023-07-04T14:16:51.000Z</time>
      </trkpt>
      <trkpt lat="45.84719" lon="4.63158">
        <ele>303.06848</ele>
        <time>2023-07-04T14:16:52.000Z</time>
      </trkpt>
      <trkpt lat="45.84719" lon="4.63162">
        <ele>303.47742</ele>
        <time>2023-07-04T14:16:53.000Z</time>
      </trkpt>
      <trkpt lat="45.84719" lon="4.63166">
        <ele>303.89462</ele>
        <time>2023-07-04T14:16:54.000Z</time>
      </trkpt>
      <trkpt lat="45.84719" lon="4.6317">
        <ele>304.30731</ele>
        <time>2023-07-04T14:16:55.000Z</time>
      </trkpt>
      <trkpt lat="45.8472" lon="4.63174">
        <ele>304.73102</ele>
        <time>2023-07-04T14:16:56.000Z</time>
      </trkpt>
      <trkpt lat="45.84722" lon="4.63178">
        <ele>305.16373</ele>
        <time>2023-07-04T14:16:57.000Z</time>
      </trkpt>
      <trkpt lat="45.84724" lon="4.63182">
        <ele>305.60889</ele>
        <time>2023-07-04T14:16:58.000Z</time>
      </trkpt>
      <trkpt lat="45.84725" lon="4.63185">
        <ele>306.07159</ele>
        <time>2023-07-04T14:16:59.000Z</time>
      </trkpt>
      <trkpt lat="45.84727" lon="4.63189">
        <ele>306.53577</ele>
        <time>2023-07-04T14:17:00.000Z</time>
      </trkpt>
      <trkpt lat="45.84728" lon="4.63192">
        <ele>307.11908</ele>
        <time>2023-07-04T14:17:01.000Z</time>
      </trkpt>
      <trkpt lat="45.8473" lon="4.63196">
        <ele>307.54205</ele>
        <time>2023-07-04T14:17:02.000Z</time>
      </trkpt>
      <trkpt lat="45.84732" lon="4.63199">
        <ele>307.71588</ele>
        <time>2023-07-04T14:17:03.000Z</time>
      </trkpt>
      <trkpt lat="45.84734" lon="4.63202">
        <ele>307.89594</ele>
        <time>2023-07-04T14:17:04.000Z</time>
      </trkpt>
      <trkpt lat="45.84736" lon="4.63205">
        <ele>308.07684</ele>
        <time>2023-07-04T14:17:05.000Z</time>
      </trkpt>
      <trkpt lat="45.84738" lon="4.63209">
        <ele>308.25085</ele>
        <time>2023-07-04T14:17:06.000Z</time>
      </trkpt>
      <trkpt lat="45.84739" lon="4.63213">
        <ele>308.42325</ele>
        <time>2023-07-04T14:17:07.000Z</time>
      </trkpt>
      <trkpt lat="45.84741" lon="4.63216">
        <ele>308.6055</ele>
        <time>2023-07-04T14:17:08.000Z</time>
      </trkpt>
      <trkpt lat="45.84744" lon="4.63219">
        <ele>308.77405</ele>
        <time>2023-07-04T14:17:09.000Z</time>
      </trkpt>
      <trkpt lat="45.84746" lon="4.63221">
        <ele>308.91858</ele>
        <time>2023-07-04T14:17:10.000Z</time>
      </trkpt>
      <trkpt lat="45.84749" lon="4.63224">
        <ele>309.06256</ele>
        <time>2023-07-04T14:17:11.000Z</time>
      </trkpt>
      <trkpt lat="45.84752" lon="4.63226">
        <ele>309.20105</ele>
        <time>2023-07-04T14:17:12.000Z</time>
      </trkpt>
      <trkpt lat="45.84755" lon="4.63228">
        <ele>309.33307</ele>
        <time>2023-07-04T14:17:13.000Z</time>
      </trkpt>
      <trkpt lat="45.84759" lon="4.63229">
        <ele>309.47614</ele>
        <time>2023-07-04T14:17:14.000Z</time>
      </trkpt>
      <trkpt lat="45.84762" lon="4.63229">
        <ele>309.64157</ele>
        <time>2023-07-04T14:17:15.000Z</time>
      </trkpt>
      <trkpt lat="45.84764" lon="4.63229">
        <ele>309.83731</ele>
        <time>2023-07-04T14:17:16.000Z</time>
      </trkpt>
      <trkpt lat="45.84766" lon="4.63228">
        <ele>310.02673</ele>
        <time>2023-07-04T14:17:17.000Z</time>
      </trkpt>
      <trkpt lat="45.84768" lon="4.63226">
        <ele>310.211</ele>
        <time>2023-07-04T14:17:18.000Z</time>
      </trkpt>
      <trkpt lat="45.8477" lon="4.63223">
        <ele>310.37946</ele>
        <time>2023-07-04T14:17:19.000Z</time>
      </trkpt>
      <trkpt lat="45.84772" lon="4.63219">
        <ele>310.54538</ele>
        <time>2023-07-04T14:17:20.000Z</time>
      </trkpt>
      <trkpt lat="45.84772" lon="4.63215">
        <ele>310.59341</ele>
        <time>2023-07-04T14:17:21.000Z</time>
      </trkpt>
      <trkpt lat="45.84773" lon="4.63211">
        <ele>310.90762</ele>
        <time>2023-07-04T14:17:22.000Z</time>
      </trkpt>
      <trkpt lat="45.84774" lon="4.63207">
        <ele>311.20926</ele>
        <time>2023-07-04T14:17:23.000Z</time>
      </trkpt>
      <trkpt lat="45.84776" lon="4.63203">
        <ele>311.50977</ele>
        <time>2023-07-04T14:17:24.000Z</time>
      </trkpt>
      <trkpt lat="45.84778" lon="4.632">
        <ele>311.81467</ele>
        <time>2023-07-04T14:17:25.000Z</time>
      </trkpt>
      <trkpt lat="45.84781" lon="4.63198">
        <ele>312.11697</ele>
        <time>2023-07-04T14:17:26.000Z</time>
      </trkpt>
      <trkpt lat="45.84784" lon="4.63196">
        <ele>312.40918</ele>
        <time>2023-07-04T14:17:27.000Z</time>
      </trkpt>
      <trkpt lat="45.84787" lon="4.63195">
        <ele>312.80475</ele>
        <time>2023-07-04T14:17:28.000Z</time>
      </trkpt>
      <trkpt lat="45.8479" lon="4.63194">
        <ele>313.26849</ele>
        <time>2023-07-04T14:17:29.000Z</time>
      </trkpt>
      <trkpt lat="45.84793" lon="4.63193">
        <ele>313.75739</ele>
        <time>2023-07-04T14:17:30.000Z</time>
      </trkpt>
      <trkpt lat="45.84796" lon="4.63192">
        <ele>314.22794</ele>
        <time>2023-07-04T14:17:31.000Z</time>
      </trkpt>
      <trkpt lat="45.84799" lon="4.63191">
        <ele>314.5188</ele>
        <time>2023-07-04T14:17:32.000Z</time>
      </trkpt>
      <trkpt lat="45.84801" lon="4.6319">
        <ele>314.81796</ele>
        <time>2023-07-04T14:17:33.000Z</time>
      </trkpt>
      <trkpt lat="45.84804" lon="4.63189">
        <ele>315.08868</ele>
        <time>2023-07-04T14:17:34.000Z</time>
      </trkpt>
      <trkpt lat="45.84807" lon="4.63188">
        <ele>315.36865</ele>
        <time>2023-07-04T14:17:35.000Z</time>
      </trkpt>
      <trkpt lat="45.8481" lon="4.63186">
        <ele>315.61246</ele>
        <time>2023-07-04T14:17:36.000Z</time>
      </trkpt>
      <trkpt lat="45.84813" lon="4.63185">
        <ele>315.8494</ele>
        <time>2023-07-04T14:17:37.000Z</time>
      </trkpt>
      <trkpt lat="45.84816" lon="4.63184">
        <ele>316.08862</ele>
        <time>2023-07-04T14:17:38.000Z</time>
      </trkpt>
      <trkpt lat="45.84819" lon="4.63182">
        <ele>316.32513</ele>
        <time>2023-07-04T14:17:39.000Z</time>
      </trkpt>
      <trkpt lat="45.84822" lon="4.63181">
        <ele>316.56577</ele>
        <time>2023-07-04T14:17:40.000Z</time>
      </trkpt>
      <trkpt lat="45.84825" lon="4.6318">
        <ele>316.79837</ele>
        <time>2023-07-04T14:17:41.000Z</time>
      </trkpt>
      <trkpt lat="45.84828" lon="4.63179">
        <ele>317.03256</ele>
        <time>2023-07-04T14:17:42.000Z</time>
      </trkpt>
      <trkpt lat="45.84831" lon="4.63178">
        <ele>317.32462</ele>
        <time>2023-07-04T14:17:43.000Z</time>
      </trkpt>
      <trkpt lat="45.84835" lon="4.63178">
        <ele>317.5983</ele>
        <time>2023-07-04T14:17:44.000Z</time>
      </trkpt>
      <trkpt lat="45.84838" lon="4.63177">
        <ele>317.62473</ele>
        <time>2023-07-04T14:17:45.000Z</time>
      </trkpt>
      <trkpt lat="45.84841" lon="4.63177">
        <ele>317.65588</ele>
        <time>2023-07-04T14:17:46.000Z</time>
      </trkpt>
      <trkpt lat="45.84844" lon="4.63177">
        <ele>317.69452</ele>
        <time>2023-07-04T14:17:47.000Z</time>
      </trkpt>
      <trkpt lat="45.84847" lon="4.63177">
        <ele>317.59088</ele>
        <time>2023-07-04T14:17:48.000Z</time>
      </trkpt>
      <trkpt lat="45.8485" lon="4.63177">
        <ele>317.43295</ele>
        <time>2023-07-04T14:17:49.000Z</time>
      </trkpt>
      <trkpt lat="45.84853" lon="4.63178">
        <ele>317.26056</ele>
        <time>2023-07-04T14:17:50.000Z</time>
      </trkpt>
      <trkpt lat="45.84856" lon="4.63178">
        <ele>317.09839</ele>
        <time>2023-07-04T14:17:51.000Z</time>
      </trkpt>
      <trkpt lat="45.84858" lon="4.63179">
        <ele>317.08981</ele>
        <time>2023-07-04T14:17:52.000Z</time>
      </trkpt>
      <trkpt lat="45.84861" lon="4.6318">
        <ele>317.07678</ele>
        <time>2023-07-04T14:17:53.000Z</time>
      </trkpt>
      <trkpt lat="45.84864" lon="4.6318">
        <ele>317.04587</ele>
        <time>2023-07-04T14:17:54.000Z</time>
      </trkpt>
      <trkpt lat="45.84867" lon="4.63181">
        <ele>316.99185</ele>
        <time>2023-07-04T14:17:55.000Z</time>
      </trkpt>
      <trkpt lat="45.8487" lon="4.63182">
        <ele>316.94458</ele>
        <time>2023-07-04T14:17:56.000Z</time>
      </trkpt>
      <trkpt lat="45.84873" lon="4.63182">
        <ele>316.88254</ele>
        <time>2023-07-04T14:17:57.000Z</time>
      </trkpt>
      <trkpt lat="45.84876" lon="4.63183">
        <ele>316.82251</ele>
        <time>2023-07-04T14:17:58.000Z</time>
      </trkpt>
      <trkpt lat="45.84879" lon="4.63184">
        <ele>316.77118</ele>
        <time>2023-07-04T14:17:59.000Z</time>
      </trkpt>
      <trkpt lat="45.84882" lon="4.63185">
        <ele>316.70001</ele>
        <time>2023-07-04T14:18:00.000Z</time>
      </trkpt>
      <trkpt lat="45.84885" lon="4.63186">
        <ele>316.62436</ele>
        <time>2023-07-04T14:18:01.000Z</time>
      </trkpt>
      <trkpt lat="45.84888" lon="4.63187">
        <ele>316.54489</ele>
        <time>2023-07-04T14:18:02.000Z</time>
      </trkpt>
      <trkpt lat="45.84891" lon="4.63188">
        <ele>316.40161</ele>
        <time>2023-07-04T14:18:03.000Z</time>
      </trkpt>
      <trkpt lat="45.84894" lon="4.63189">
        <ele>316.26694</ele>
        <time>2023-07-04T14:18:04.000Z</time>
      </trkpt>
      <trkpt lat="45.84897" lon="4.63191">
        <ele>316.31525</ele>
        <time>2023-07-04T14:18:05.000Z</time>
      </trkpt>
      <trkpt lat="45.849" lon="4.63192">
        <ele>316.34805</ele>
        <time>2023-07-04T14:18:06.000Z</time>
      </trkpt>
      <trkpt lat="45.84903" lon="4.63194">
        <ele>316.3717</ele>
        <time>2023-07-04T14:18:07.000Z</time>
      </trkpt>
      <trkpt lat="45.84906" lon="4.63196">
        <ele>317.76251</ele>
        <time>2023-07-04T14:18:08.000Z</time>
      </trkpt>
      <trkpt lat="45.84909" lon="4.63197">
        <ele>319.21475</ele>
        <time>2023-07-04T14:18:09.000Z</time>
      </trkpt>
      <trkpt lat="45.84912" lon="4.63199">
        <ele>320.69077</ele>
        <time>2023-07-04T14:18:10.000Z</time>
      </trkpt>
      <trkpt lat="45.84915" lon="4.632">
        <ele>322.17401</ele>
        <time>2023-07-04T14:18:11.000Z</time>
      </trkpt>
      <trkpt lat="45.84918" lon="4.63201">
        <ele>323.62347</ele>
        <time>2023-07-04T14:18:12.000Z</time>
      </trkpt>
      <trkpt lat="45.84921" lon="4.63203">
        <ele>325.05066</ele>
        <time>2023-07-04T14:18:13.000Z</time>
      </trkpt>
      <trkpt lat="45.84925" lon="4.63204">
        <ele>326.47507</ele>
        <time>2023-07-04T14:18:14.000Z</time>
      </trkpt>
      <trkpt lat="45.84928" lon="4.63205">
        <ele>327.88913</ele>
        <time>2023-07-04T14:18:15.000Z</time>
      </trkpt>
      <trkpt lat="45.84931" lon="4.63206">
        <ele>329.27817</ele>
        <time>2023-07-04T14:18:16.000Z</time>
      </trkpt>
      <trkpt lat="45.84934" lon="4.63207">
        <ele>330.67603</ele>
        <time>2023-07-04T14:18:17.000Z</time>
      </trkpt>
      <trkpt lat="45.84937" lon="4.63208">
        <ele>332.07977</ele>
        <time>2023-07-04T14:18:18.000Z</time>
      </trkpt>
      <trkpt lat="45.8494" lon="4.63209">
        <ele>333.4975</ele>
        <time>2023-07-04T14:18:19.000Z</time>
      </trkpt>
      <trkpt lat="45.84943" lon="4.6321">
        <ele>335.3299</ele>
        <time>2023-07-04T14:18:20.000Z</time>
      </trkpt>
      <trkpt lat="45.84947" lon="4.63211">
        <ele>337.45844</ele>
        <time>2023-07-04T14:18:21.000Z</time>
      </trkpt>
      <trkpt lat="45.8495" lon="4.63211">
        <ele>338.71686</ele>
        <time>2023-07-04T14:18:22.000Z</time>
      </trkpt>
      <trkpt lat="45.84953" lon="4.63212">
        <ele>340.13736</ele>
        <time>2023-07-04T14:18:23.000Z</time>
      </trkpt>
      <trkpt lat="45.84956" lon="4.63212">
        <ele>341.56445</ele>
        <time>2023-07-04T14:18:24.000Z</time>
      </trkpt>
      <trkpt lat="45.84959" lon="4.63212">
        <ele>343.06699</ele>
        <time>2023-07-04T14:18:25.000Z</time>
      </trkpt>
      <trkpt lat="45.84963" lon="4.63212">
        <ele>344.97314</ele>
        <time>2023-07-04T14:18:26.000Z</time>
      </trkpt>
      <trkpt lat="45.84966" lon="4.63212">
        <ele>347.155</ele>
        <time>2023-07-04T14:18:27.000Z</time>
      </trkpt>
      <trkpt lat="45.84969" lon="4.63212">
        <ele>347.11111</ele>
        <time>2023-07-04T14:18:28.000Z</time>
      </trkpt>
      <trkpt lat="45.84972" lon="4.63212">
        <ele>347.13239</ele>
        <time>2023-07-04T14:18:29.000Z</time>
      </trkpt>
      <trkpt lat="45.84975" lon="4.63212">
        <ele>347.1376</ele>
        <time>2023-07-04T14:18:30.000Z</time>
      </trkpt>
      <trkpt lat="45.84978" lon="4.63211">
        <ele>347.15848</ele>
        <time>2023-07-04T14:18:31.000Z</time>
      </trkpt>
      <trkpt lat="45.84981" lon="4.63211">
        <ele>347.23346</ele>
        <time>2023-07-04T14:18:32.000Z</time>
      </trkpt>
      <trkpt lat="45.84984" lon="4.6321">
        <ele>347.31903</ele>
        <time>2023-07-04T14:18:33.000Z</time>
      </trkpt>
      <trkpt lat="45.84988" lon="4.6321">
        <ele>347.46509</ele>
        <time>2023-07-04T14:18:34.000Z</time>
      </trkpt>
      <trkpt lat="45.84991" lon="4.6321">
        <ele>347.56815</ele>
        <time>2023-07-04T14:18:35.000Z</time>
      </trkpt>
      <trkpt lat="45.84994" lon="4.6321">
        <ele>347.69931</ele>
        <time>2023-07-04T14:18:36.000Z</time>
      </trkpt>
      <trkpt lat="45.84997" lon="4.63209">
        <ele>347.82355</ele>
        <time>2023-07-04T14:18:37.000Z</time>
      </trkpt>
      <trkpt lat="45.85" lon="4.63209">
        <ele>347.96527</ele>
        <time>2023-07-04T14:18:38.000Z</time>
      </trkpt>
      <trkpt lat="45.85003" lon="4.63209">
        <ele>348.02887</ele>
        <time>2023-07-04T14:18:39.000Z</time>
      </trkpt>
      <trkpt lat="45.85006" lon="4.63209">
        <ele>347.68817</ele>
        <time>2023-07-04T14:18:40.000Z</time>
      </trkpt>
      <trkpt lat="45.85009" lon="4.63208">
        <ele>347.04883</ele>
        <time>2023-07-04T14:18:41.000Z</time>
      </trkpt>
      <trkpt lat="45.85012" lon="4.63208">
        <ele>347.20154</ele>
        <time>2023-07-04T14:18:42.000Z</time>
      </trkpt>
      <trkpt lat="45.85015" lon="4.63208">
        <ele>347.263</ele>
        <time>2023-07-04T14:18:43.000Z</time>
      </trkpt>
      <trkpt lat="45.85018" lon="4.63207">
        <ele>347.31595</ele>
        <time>2023-07-04T14:18:44.000Z</time>
      </trkpt>
      <trkpt lat="45.85021" lon="4.63207">
        <ele>347.3342</ele>
        <time>2023-07-04T14:18:45.000Z</time>
      </trkpt>
      <trkpt lat="45.85024" lon="4.63206">
        <ele>346.94226</ele>
        <time>2023-07-04T14:18:46.000Z</time>
      </trkpt>
      <trkpt lat="45.85027" lon="4.63206">
        <ele>346.27643</ele>
        <time>2023-07-04T14:18:47.000Z</time>
      </trkpt>
      <trkpt lat="45.8503" lon="4.63206">
        <ele>346.4809</ele>
        <time>2023-07-04T14:18:48.000Z</time>
      </trkpt>
      <trkpt lat="45.85033" lon="4.63206">
        <ele>346.53323</ele>
        <time>2023-07-04T14:18:49.000Z</time>
      </trkpt>
      <trkpt lat="45.85036" lon="4.63205">
        <ele>346.62115</ele>
        <time>2023-07-04T14:18:50.000Z</time>
      </trkpt>
      <trkpt lat="45.85039" lon="4.63205">
        <ele>346.65494</ele>
        <time>2023-07-04T14:18:51.000Z</time>
      </trkpt>
      <trkpt lat="45.85043" lon="4.63205">
        <ele>346.68448</ele>
        <time>2023-07-04T14:18:52.000Z</time>
      </trkpt>
      <trkpt lat="45.85046" lon="4.63205">
        <ele>346.70782</ele>
        <time>2023-07-04T14:18:53.000Z</time>
      </trkpt>
      <trkpt lat="45.85049" lon="4.63205">
        <ele>346.68686</ele>
        <time>2023-07-04T14:18:54.000Z</time>
      </trkpt>
      <trkpt lat="45.85052" lon="4.63205">
        <ele>346.70529</ele>
        <time>2023-07-04T14:18:55.000Z</time>
      </trkpt>
      <trkpt lat="45.85055" lon="4.63204">
        <ele>346.72992</ele>
        <time>2023-07-04T14:18:56.000Z</time>
      </trkpt>
      <trkpt lat="45.85058" lon="4.63204">
        <ele>346.73718</ele>
        <time>2023-07-04T14:18:57.000Z</time>
      </trkpt>
      <trkpt lat="45.85062" lon="4.63204">
        <ele>347.30457</ele>
        <time>2023-07-04T14:18:58.000Z</time>
      </trkpt>
      <trkpt lat="45.85065" lon="4.63204">
        <ele>347.95782</ele>
        <time>2023-07-04T14:18:59.000Z</time>
      </trkpt>
      <trkpt lat="45.85068" lon="4.63204">
        <ele>348.73734</ele>
        <time>2023-07-04T14:19:00.000Z</time>
      </trkpt>
      <trkpt lat="45.85072" lon="4.63204">
        <ele>349.62296</ele>
        <time>2023-07-04T14:19:01.000Z</time>
      </trkpt>
      <trkpt lat="45.85075" lon="4.63204">
        <ele>349.64249</ele>
        <time>2023-07-04T14:19:02.000Z</time>
      </trkpt>
      <trkpt lat="45.85079" lon="4.63204">
        <ele>349.66638</ele>
        <time>2023-07-04T14:19:03.000Z</time>
      </trkpt>
      <trkpt lat="45.85082" lon="4.63204">
        <ele>349.69205</ele>
        <time>2023-07-04T14:19:04.000Z</time>
      </trkpt>
      <trkpt lat="45.85085" lon="4.63204">
        <ele>349.72989</ele>
        <time>2023-07-04T14:19:05.000Z</time>
      </trkpt>
      <trkpt lat="45.85089" lon="4.63204">
        <ele>349.77295</ele>
        <time>2023-07-04T14:19:06.000Z</time>
      </trkpt>
      <trkpt lat="45.85093" lon="4.63203">
        <ele>349.84293</ele>
        <time>2023-07-04T14:19:07.000Z</time>
      </trkpt>
      <trkpt lat="45.85096" lon="4.63203">
        <ele>349.87955</ele>
        <time>2023-07-04T14:19:08.000Z</time>
      </trkpt>
      <trkpt lat="45.851" lon="4.63203">
        <ele>349.94049</ele>
        <time>2023-07-04T14:19:09.000Z</time>
      </trkpt>
      <trkpt lat="45.85104" lon="4.63203">
        <ele>349.94254</ele>
        <time>2023-07-04T14:19:10.000Z</time>
      </trkpt>
      <trkpt lat="45.85108" lon="4.63203">
        <ele>349.97519</ele>
        <time>2023-07-04T14:19:11.000Z</time>
      </trkpt>
      <trkpt lat="45.85112" lon="4.63203">
        <ele>350.00568</ele>
        <time>2023-07-04T14:19:12.000Z</time>
      </trkpt>
      <trkpt lat="45.85116" lon="4.63203">
        <ele>350.03751</ele>
        <time>2023-07-04T14:19:13.000Z</time>
      </trkpt>
      <trkpt lat="45.8512" lon="4.63203">
        <ele>350.1037</ele>
        <time>2023-07-04T14:19:14.000Z</time>
      </trkpt>
      <trkpt lat="45.85124" lon="4.63202">
        <ele>350.10928</ele>
        <time>2023-07-04T14:19:15.000Z</time>
      </trkpt>
      <trkpt lat="45.85128" lon="4.63201">
        <ele>350.10233</ele>
        <time>2023-07-04T14:19:16.000Z</time>
      </trkpt>
      <trkpt lat="45.85132" lon="4.63201">
        <ele>350.11407</ele>
        <time>2023-07-04T14:19:17.000Z</time>
      </trkpt>
      <trkpt lat="45.85136" lon="4.63201">
        <ele>349.53537</ele>
        <time>2023-07-04T14:19:18.000Z</time>
      </trkpt>
      <trkpt lat="45.8514" lon="4.632">
        <ele>348.96088</ele>
        <time>2023-07-04T14:19:19.000Z</time>
      </trkpt>
      <trkpt lat="45.85145" lon="4.63199">
        <ele>348.21423</ele>
        <time>2023-07-04T14:19:20.000Z</time>
      </trkpt>
      <trkpt lat="45.85149" lon="4.63199">
        <ele>347.41089</ele>
        <time>2023-07-04T14:19:21.000Z</time>
      </trkpt>
      <trkpt lat="45.85153" lon="4.63198">
        <ele>347.49091</ele>
        <time>2023-07-04T14:19:22.000Z</time>
      </trkpt>
      <trkpt lat="45.85157" lon="4.63197">
        <ele>347.48627</ele>
        <time>2023-07-04T14:19:23.000Z</time>
      </trkpt>
      <trkpt lat="45.85161" lon="4.63196">
        <ele>347.48395</ele>
        <time>2023-07-04T14:19:24.000Z</time>
      </trkpt>
      <trkpt lat="45.85165" lon="4.63195">
        <ele>347.4874</ele>
        <time>2023-07-04T14:19:25.000Z</time>
      </trkpt>
      <trkpt lat="45.85169" lon="4.63194">
        <ele>347.48706</ele>
        <time>2023-07-04T14:19:26.000Z</time>
      </trkpt>
      <trkpt lat="45.85173" lon="4.63192">
        <ele>347.45132</ele>
        <time>2023-07-04T14:19:27.000Z</time>
      </trkpt>
      <trkpt lat="45.85177" lon="4.63191">
        <ele>347.452</ele>
        <time>2023-07-04T14:19:28.000Z</time>
      </trkpt>
      <trkpt lat="45.85181" lon="4.6319">
        <ele>347.82825</ele>
        <time>2023-07-04T14:19:29.000Z</time>
      </trkpt>
      <trkpt lat="45.85185" lon="4.6319">
        <ele>348.21255</ele>
        <time>2023-07-04T14:19:30.000Z</time>
      </trkpt>
      <trkpt lat="45.85188" lon="4.63188">
        <ele>348.61655</ele>
        <time>2023-07-04T14:19:31.000Z</time>
      </trkpt>
      <trkpt lat="45.85192" lon="4.63187">
        <ele>349.02802</ele>
        <time>2023-07-04T14:19:32.000Z</time>
      </trkpt>
      <trkpt lat="45.85195" lon="4.63186">
        <ele>349.44897</ele>
        <time>2023-07-04T14:19:33.000Z</time>
      </trkpt>
      <trkpt lat="45.85198" lon="4.63186">
        <ele>349.83557</ele>
        <time>2023-07-04T14:19:34.000Z</time>
      </trkpt>
      <trkpt lat="45.85202" lon="4.63185">
        <ele>350.27777</ele>
        <time>2023-07-04T14:19:35.000Z</time>
      </trkpt>
      <trkpt lat="45.85205" lon="4.63185">
        <ele>350.99084</ele>
        <time>2023-07-04T14:19:36.000Z</time>
      </trkpt>
      <trkpt lat="45.85209" lon="4.63184">
        <ele>351.69818</ele>
        <time>2023-07-04T14:19:37.000Z</time>
      </trkpt>
      <trkpt lat="45.85213" lon="4.63184">
        <ele>351.53683</ele>
        <time>2023-07-04T14:19:38.000Z</time>
      </trkpt>
      <trkpt lat="45.85217" lon="4.63183">
        <ele>351.47617</ele>
        <time>2023-07-04T14:19:39.000Z</time>
      </trkpt>
      <trkpt lat="45.8522" lon="4.63182">
        <ele>351.42169</ele>
        <time>2023-07-04T14:19:40.000Z</time>
      </trkpt>
      <trkpt lat="45.85224" lon="4.63181">
        <ele>351.32147</ele>
        <time>2023-07-04T14:19:41.000Z</time>
      </trkpt>
      <trkpt lat="45.85228" lon="4.63179">
        <ele>351.26862</ele>
        <time>2023-07-04T14:19:42.000Z</time>
      </trkpt>
      <trkpt lat="45.85232" lon="4.63177">
        <ele>351.23767</ele>
        <time>2023-07-04T14:19:43.000Z</time>
      </trkpt>
      <trkpt lat="45.85235" lon="4.63175">
        <ele>351.21567</ele>
        <time>2023-07-04T14:19:44.000Z</time>
      </trkpt>
      <trkpt lat="45.85239" lon="4.63173">
        <ele>351.1828</ele>
        <time>2023-07-04T14:19:45.000Z</time>
      </trkpt>
      <trkpt lat="45.85243" lon="4.63172">
        <ele>351.15546</ele>
        <time>2023-07-04T14:19:46.000Z</time>
      </trkpt>
      <trkpt lat="45.85246" lon="4.63171">
        <ele>351.14691</ele>
        <time>2023-07-04T14:19:47.000Z</time>
      </trkpt>
      <trkpt lat="45.8525" lon="4.6317">
        <ele>351.14093</ele>
        <time>2023-07-04T14:19:48.000Z</time>
      </trkpt>
      <trkpt lat="45.85253" lon="4.63169">
        <ele>350.76947</ele>
        <time>2023-07-04T14:19:49.000Z</time>
      </trkpt>
      <trkpt lat="45.85257" lon="4.63169">
        <ele>350.40848</ele>
        <time>2023-07-04T14:19:50.000Z</time>
      </trkpt>
      <trkpt lat="45.85261" lon="4.63169">
        <ele>350.03568</ele>
        <time>2023-07-04T14:19:51.000Z</time>
      </trkpt>
      <trkpt lat="45.85264" lon="4.63172">
        <ele>349.64859</ele>
        <time>2023-07-04T14:19:52.000Z</time>
      </trkpt>
      <trkpt lat="45.85265" lon="4.63177">
        <ele>349.26151</ele>
        <time>2023-07-04T14:19:53.000Z</time>
      </trkpt>
      <trkpt lat="45.85265" lon="4.63183">
        <ele>348.86029</ele>
        <time>2023-07-04T14:19:54.000Z</time>
      </trkpt>
      <trkpt lat="45.85265" lon="4.63188">
        <ele>348.47656</ele>
        <time>2023-07-04T14:19:55.000Z</time>
      </trkpt>
      <trkpt lat="45.85264" lon="4.63193">
        <ele>347.80023</ele>
        <time>2023-07-04T14:19:56.000Z</time>
      </trkpt>
      <trkpt lat="45.85264" lon="4.63198">
        <ele>347.17035</ele>
        <time>2023-07-04T14:19:57.000Z</time>
      </trkpt>
      <trkpt lat="45.85266" lon="4.63203">
        <ele>347.41556</ele>
        <time>2023-07-04T14:19:58.000Z</time>
      </trkpt>
      <trkpt lat="45.85269" lon="4.63205">
        <ele>347.55811</ele>
        <time>2023-07-04T14:19:59.000Z</time>
      </trkpt>
      <trkpt lat="45.85272" lon="4.63205">
        <ele>347.73248</ele>
        <time>2023-07-04T14:20:00.000Z</time>
      </trkpt>
      <trkpt lat="45.85276" lon="4.63205">
        <ele>347.95282</ele>
        <time>2023-07-04T14:20:01.000Z</time>
      </trkpt>
      <trkpt lat="45.85279" lon="4.63204">
        <ele>348.12372</ele>
        <time>2023-07-04T14:20:02.000Z</time>
      </trkpt>
      <trkpt lat="45.85283" lon="4.63204">
        <ele>348.27481</ele>
        <time>2023-07-04T14:20:03.000Z</time>
      </trkpt>
      <trkpt lat="45.85286" lon="4.63204">
        <ele>348.44913</ele>
        <time>2023-07-04T14:20:04.000Z</time>
      </trkpt>
      <trkpt lat="45.8529" lon="4.63204">
        <ele>348.64059</ele>
        <time>2023-07-04T14:20:05.000Z</time>
      </trkpt>
      <trkpt lat="45.85293" lon="4.63204">
        <ele>348.81104</ele>
        <time>2023-07-04T14:20:06.000Z</time>
      </trkpt>
      <trkpt lat="45.85296" lon="4.63205">
        <ele>348.97266</ele>
        <time>2023-07-04T14:20:07.000Z</time>
      </trkpt>
      <trkpt lat="45.85299" lon="4.63204">
        <ele>349.13339</ele>
        <time>2023-07-04T14:20:08.000Z</time>
      </trkpt>
      <trkpt lat="45.85302" lon="4.63204">
        <ele>349.66669</ele>
        <time>2023-07-04T14:20:09.000Z</time>
      </trkpt>
      <trkpt lat="45.85306" lon="4.63203">
        <ele>350.36914</ele>
        <time>2023-07-04T14:20:10.000Z</time>
      </trkpt>
      <trkpt lat="45.85309" lon="4.63203">
        <ele>351.18488</ele>
        <time>2023-07-04T14:20:11.000Z</time>
      </trkpt>
      <trkpt lat="45.85311" lon="4.63202">
        <ele>351.17413</ele>
        <time>2023-07-04T14:20:12.000Z</time>
      </trkpt>
      <trkpt lat="45.85314" lon="4.63201">
        <ele>351.30453</ele>
        <time>2023-07-04T14:20:13.000Z</time>
      </trkpt>
      <trkpt lat="45.85317" lon="4.63199">
        <ele>351.45639</ele>
        <time>2023-07-04T14:20:14.000Z</time>
      </trkpt>
      <trkpt lat="45.85319" lon="4.63196">
        <ele>351.60907</ele>
        <time>2023-07-04T14:20:15.000Z</time>
      </trkpt>
      <trkpt lat="45.85322" lon="4.63194">
        <ele>351.806</ele>
        <time>2023-07-04T14:20:16.000Z</time>
      </trkpt>
      <trkpt lat="45.85324" lon="4.63191">
        <ele>351.96979</ele>
        <time>2023-07-04T14:20:17.000Z</time>
      </trkpt>
      <trkpt lat="45.85326" lon="4.63189">
        <ele>352.1232</ele>
        <time>2023-07-04T14:20:18.000Z</time>
      </trkpt>
      <trkpt lat="45.85328" lon="4.63186">
        <ele>352.26257</ele>
        <time>2023-07-04T14:20:19.000Z</time>
      </trkpt>
      <trkpt lat="45.85331" lon="4.63183">
        <ele>352.41388</ele>
        <time>2023-07-04T14:20:20.000Z</time>
      </trkpt>
      <trkpt lat="45.85333" lon="4.6318">
        <ele>352.87775</ele>
        <time>2023-07-04T14:20:21.000Z</time>
      </trkpt>
      <trkpt lat="45.85336" lon="4.63178">
        <ele>353.67435</ele>
        <time>2023-07-04T14:20:22.000Z</time>
      </trkpt>
      <trkpt lat="45.85338" lon="4.63175">
        <ele>353.72321</ele>
        <time>2023-07-04T14:20:23.000Z</time>
      </trkpt>
      <trkpt lat="45.8534" lon="4.63172">
        <ele>353.87845</ele>
        <time>2023-07-04T14:20:24.000Z</time>
      </trkpt>
      <trkpt lat="45.85343" lon="4.63169">
        <ele>354.04062</ele>
        <time>2023-07-04T14:20:25.000Z</time>
      </trkpt>
      <trkpt lat="45.85345" lon="4.63167">
        <ele>354.22906</ele>
        <time>2023-07-04T14:20:26.000Z</time>
      </trkpt>
      <trkpt lat="45.85348" lon="4.63164">
        <ele>354.4057</ele>
        <time>2023-07-04T14:20:27.000Z</time>
      </trkpt>
      <trkpt lat="45.8535" lon="4.63162">
        <ele>354.59418</ele>
        <time>2023-07-04T14:20:28.000Z</time>
      </trkpt>
      <trkpt lat="45.85353" lon="4.63161">
        <ele>354.39468</ele>
        <time>2023-07-04T14:20:29.000Z</time>
      </trkpt>
      <trkpt lat="45.85356" lon="4.63159">
        <ele>354.03168</ele>
        <time>2023-07-04T14:20:30.000Z</time>
      </trkpt>
      <trkpt lat="45.85358" lon="4.63157">
        <ele>353.55252</ele>
        <time>2023-07-04T14:20:31.000Z</time>
      </trkpt>
      <trkpt lat="45.85361" lon="4.63155">
        <ele>353.92416</ele>
        <time>2023-07-04T14:20:32.000Z</time>
      </trkpt>
      <trkpt lat="45.85364" lon="4.63152">
        <ele>354.15317</ele>
        <time>2023-07-04T14:20:33.000Z</time>
      </trkpt>
      <trkpt lat="45.85366" lon="4.6315">
        <ele>354.38901</ele>
        <time>2023-07-04T14:20:34.000Z</time>
      </trkpt>
      <trkpt lat="45.85369" lon="4.63147">
        <ele>354.60782</ele>
        <time>2023-07-04T14:20:35.000Z</time>
      </trkpt>
      <trkpt lat="45.85372" lon="4.63145">
        <ele>354.77887</ele>
        <time>2023-07-04T14:20:36.000Z</time>
      </trkpt>
      <trkpt lat="45.85374" lon="4.63142">
        <ele>354.95111</ele>
        <time>2023-07-04T14:20:37.000Z</time>
      </trkpt>
      <trkpt lat="45.85377" lon="4.6314">
        <ele>355.12054</ele>
        <time>2023-07-04T14:20:38.000Z</time>
      </trkpt>
      <trkpt lat="45.85379" lon="4.63138">
        <ele>355.79385</ele>
        <time>2023-07-04T14:20:39.000Z</time>
      </trkpt>
      <trkpt lat="45.85382" lon="4.63136">
        <ele>356.53427</ele>
        <time>2023-07-04T14:20:40.000Z</time>
      </trkpt>
      <trkpt lat="45.85385" lon="4.63134">
        <ele>356.92584</ele>
        <time>2023-07-04T14:20:41.000Z</time>
      </trkpt>
      <trkpt lat="45.85387" lon="4.63133">
        <ele>355.28732</ele>
        <time>2023-07-04T14:20:42.000Z</time>
      </trkpt>
      <trkpt lat="45.8539" lon="4.63131">
        <ele>354.41071</ele>
        <time>2023-07-04T14:20:43.000Z</time>
      </trkpt>
      <trkpt lat="45.85393" lon="4.63129">
        <ele>354.52795</ele>
        <time>2023-07-04T14:20:44.000Z</time>
      </trkpt>
      <trkpt lat="45.85395" lon="4.63127">
        <ele>354.62857</ele>
        <time>2023-07-04T14:20:45.000Z</time>
      </trkpt>
      <trkpt lat="45.85397" lon="4.63125">
        <ele>354.7309</ele>
        <time>2023-07-04T14:20:46.000Z</time>
      </trkpt>
      <trkpt lat="45.854" lon="4.63122">
        <ele>355.19775</ele>
        <time>2023-07-04T14:20:47.000Z</time>
      </trkpt>
      <trkpt lat="45.85402" lon="4.6312">
        <ele>355.89865</ele>
        <time>2023-07-04T14:20:48.000Z</time>
      </trkpt>
      <trkpt lat="45.85404" lon="4.63117">
        <ele>356.61002</ele>
        <time>2023-07-04T14:20:49.000Z</time>
      </trkpt>
      <trkpt lat="45.85407" lon="4.63117">
        <ele>356.74203</ele>
        <time>2023-07-04T14:20:51.000Z</time>
      </trkpt>
      <trkpt lat="45.8541" lon="4.6312">
        <ele>356.86783</ele>
        <time>2023-07-04T14:20:53.000Z</time>
      </trkpt>
      <trkpt lat="45.85412" lon="4.63122">
        <ele>356.98975</ele>
        <time>2023-07-04T14:20:54.000Z</time>
      </trkpt>
      <trkpt lat="45.85414" lon="4.63124">
        <ele>357.45206</ele>
        <time>2023-07-04T14:20:55.000Z</time>
      </trkpt>
      <trkpt lat="45.85417" lon="4.63125">
        <ele>358.15018</ele>
        <time>2023-07-04T14:20:56.000Z</time>
      </trkpt>
      <trkpt lat="45.85419" lon="4.63127">
        <ele>358.85596</ele>
        <time>2023-07-04T14:20:57.000Z</time>
      </trkpt>
      <trkpt lat="45.85421" lon="4.63128">
        <ele>358.84036</ele>
        <time>2023-07-04T14:20:58.000Z</time>
      </trkpt>
      <trkpt lat="45.85424" lon="4.63129">
        <ele>358.90308</ele>
        <time>2023-07-04T14:20:59.000Z</time>
      </trkpt>
      <trkpt lat="45.85426" lon="4.6313">
        <ele>358.99908</ele>
        <time>2023-07-04T14:21:00.000Z</time>
      </trkpt>
      <trkpt lat="45.85428" lon="4.63131">
        <ele>358.53842</ele>
        <time>2023-07-04T14:21:01.000Z</time>
      </trkpt>
      <trkpt lat="45.8543" lon="4.63133">
        <ele>357.9791</ele>
        <time>2023-07-04T14:21:02.000Z</time>
      </trkpt>
      <trkpt lat="45.85433" lon="4.63134">
        <ele>357.42865</ele>
        <time>2023-07-04T14:21:03.000Z</time>
      </trkpt>
      <trkpt lat="45.85435" lon="4.63136">
        <ele>358.63788</ele>
        <time>2023-07-04T14:21:04.000Z</time>
      </trkpt>
      <trkpt lat="45.85438" lon="4.63137">
        <ele>359.9079</ele>
        <time>2023-07-04T14:21:05.000Z</time>
      </trkpt>
      <trkpt lat="45.8544" lon="4.63138">
        <ele>360.34198</ele>
        <time>2023-07-04T14:21:06.000Z</time>
      </trkpt>
      <trkpt lat="45.85443" lon="4.63139">
        <ele>360.76413</ele>
        <time>2023-07-04T14:21:07.000Z</time>
      </trkpt>
      <trkpt lat="45.85445" lon="4.6314">
        <ele>361.16702</ele>
        <time>2023-07-04T14:21:08.000Z</time>
      </trkpt>
      <trkpt lat="45.85448" lon="4.63141">
        <ele>361.22433</ele>
        <time>2023-07-04T14:21:09.000Z</time>
      </trkpt>
      <trkpt lat="45.85451" lon="4.63142">
        <ele>361.03558</ele>
        <time>2023-07-04T14:21:10.000Z</time>
      </trkpt>
      <trkpt lat="45.85454" lon="4.63142">
        <ele>360.83411</ele>
        <time>2023-07-04T14:21:11.000Z</time>
      </trkpt>
      <trkpt lat="45.85457" lon="4.63143">
        <ele>361.19452</ele>
        <time>2023-07-04T14:21:12.000Z</time>
      </trkpt>
      <trkpt lat="45.8546" lon="4.63143">
        <ele>361.57709</ele>
        <time>2023-07-04T14:21:13.000Z</time>
      </trkpt>
      <trkpt lat="45.85463" lon="4.63144">
        <ele>361.95468</ele>
        <time>2023-07-04T14:21:14.000Z</time>
      </trkpt>
      <trkpt lat="45.85467" lon="4.63144">
        <ele>361.99554</ele>
        <time>2023-07-04T14:21:15.000Z</time>
      </trkpt>
      <trkpt lat="45.8547" lon="4.63144">
        <ele>361.77881</ele>
        <time>2023-07-04T14:21:16.000Z</time>
      </trkpt>
      <trkpt lat="45.85473" lon="4.63144">
        <ele>361.56778</ele>
        <time>2023-07-04T14:21:17.000Z</time>
      </trkpt>
      <trkpt lat="45.85476" lon="4.63144">
        <ele>362.10419</ele>
        <time>2023-07-04T14:21:18.000Z</time>
      </trkpt>
      <trkpt lat="45.85479" lon="4.63144">
        <ele>362.55881</ele>
        <time>2023-07-04T14:21:19.000Z</time>
      </trkpt>
      <trkpt lat="45.85482" lon="4.63145">
        <ele>362.98083</ele>
        <time>2023-07-04T14:21:20.000Z</time>
      </trkpt>
      <trkpt lat="45.85484" lon="4.63146">
        <ele>363.44058</ele>
        <time>2023-07-04T14:21:21.000Z</time>
      </trkpt>
      <trkpt lat="45.85487" lon="4.63147">
        <ele>363.91385</ele>
        <time>2023-07-04T14:21:22.000Z</time>
      </trkpt>
      <trkpt lat="45.85489" lon="4.63148">
        <ele>364.35089</ele>
        <time>2023-07-04T14:21:23.000Z</time>
      </trkpt>
      <trkpt lat="45.85491" lon="4.6315">
        <ele>364.79156</ele>
        <time>2023-07-04T14:21:24.000Z</time>
      </trkpt>
      <trkpt lat="45.85493" lon="4.63152">
        <ele>365.15985</ele>
        <time>2023-07-04T14:21:25.000Z</time>
      </trkpt>
      <trkpt lat="45.85496" lon="4.63155">
        <ele>365.233</ele>
        <time>2023-07-04T14:21:26.000Z</time>
      </trkpt>
      <trkpt lat="45.85498" lon="4.63157">
        <ele>365.31931</ele>
        <time>2023-07-04T14:21:27.000Z</time>
      </trkpt>
      <trkpt lat="45.855" lon="4.63158">
        <ele>365.41428</ele>
        <time>2023-07-04T14:21:28.000Z</time>
      </trkpt>
      <trkpt lat="45.85502" lon="4.6316">
        <ele>364.92596</ele>
        <time>2023-07-04T14:21:29.000Z</time>
      </trkpt>
      <trkpt lat="45.85504" lon="4.63162">
        <ele>364.63077</ele>
        <time>2023-07-04T14:21:30.000Z</time>
      </trkpt>
      <trkpt lat="45.85505" lon="4.63164">
        <ele>364.35333</ele>
        <time>2023-07-04T14:21:31.000Z</time>
      </trkpt>
      <trkpt lat="45.85507" lon="4.63167">
        <ele>364.05777</ele>
        <time>2023-07-04T14:21:32.000Z</time>
      </trkpt>
      <trkpt lat="45.85509" lon="4.63169">
        <ele>363.70758</ele>
        <time>2023-07-04T14:21:33.000Z</time>
      </trkpt>
      <trkpt lat="45.85511" lon="4.63172">
        <ele>363.3432</ele>
        <time>2023-07-04T14:21:34.000Z</time>
      </trkpt>
      <trkpt lat="45.85513" lon="4.63174">
        <ele>362.95322</ele>
        <time>2023-07-04T14:21:35.000Z</time>
      </trkpt>
      <trkpt lat="45.85516" lon="4.63176">
        <ele>362.56134</ele>
        <time>2023-07-04T14:21:36.000Z</time>
      </trkpt>
      <trkpt lat="45.85518" lon="4.63179">
        <ele>362.16058</ele>
        <time>2023-07-04T14:21:37.000Z</time>
      </trkpt>
      <trkpt lat="45.85521" lon="4.63181">
        <ele>361.73059</ele>
        <time>2023-07-04T14:21:38.000Z</time>
      </trkpt>
      <trkpt lat="45.85523" lon="4.63184">
        <ele>361.2626</ele>
        <time>2023-07-04T14:21:39.000Z</time>
      </trkpt>
      <trkpt lat="45.85526" lon="4.63188">
        <ele>360.78223</ele>
        <time>2023-07-04T14:21:40.000Z</time>
      </trkpt>
      <trkpt lat="45.85529" lon="4.63191">
        <ele>360.24127</ele>
        <time>2023-07-04T14:21:41.000Z</time>
      </trkpt>
      <trkpt lat="45.85531" lon="4.63193">
        <ele>359.92227</ele>
        <time>2023-07-04T14:21:42.000Z</time>
      </trkpt>
      <trkpt lat="45.85535" lon="4.63197">
        <ele>359.59796</ele>
        <time>2023-07-04T14:21:43.000Z</time>
      </trkpt>
      <trkpt lat="45.8554" lon="4.632">
        <ele>359.2103</ele>
        <time>2023-07-04T14:21:44.000Z</time>
      </trkpt>
      <trkpt lat="45.85544" lon="4.63202">
        <ele>358.88742</ele>
        <time>2023-07-04T14:21:45.000Z</time>
      </trkpt>
      <trkpt lat="45.85548" lon="4.63205">
        <ele>358.39963</ele>
        <time>2023-07-04T14:21:46.000Z</time>
      </trkpt>
      <trkpt lat="45.85552" lon="4.63205">
        <ele>358.20282</ele>
        <time>2023-07-04T14:21:47.000Z</time>
      </trkpt>
      <trkpt lat="45.85555" lon="4.63206">
        <ele>358.32202</ele>
        <time>2023-07-04T14:21:48.000Z</time>
      </trkpt>
      <trkpt lat="45.85558" lon="4.63208">
        <ele>358.93756</ele>
        <time>2023-07-04T14:21:49.000Z</time>
      </trkpt>
      <trkpt lat="45.8556" lon="4.63208">
        <ele>359.40445</ele>
        <time>2023-07-04T14:21:50.000Z</time>
      </trkpt>
      <trkpt lat="45.85562" lon="4.63209">
        <ele>359.7807</ele>
        <time>2023-07-04T14:21:51.000Z</time>
      </trkpt>
      <trkpt lat="45.85565" lon="4.63212">
        <ele>359.41086</ele>
        <time>2023-07-04T14:21:52.000Z</time>
      </trkpt>
      <trkpt lat="45.85568" lon="4.63213">
        <ele>359.22382</ele>
        <time>2023-07-04T14:21:53.000Z</time>
      </trkpt>
      <trkpt lat="45.85572" lon="4.63215">
        <ele>359.00323</ele>
        <time>2023-07-04T14:21:54.000Z</time>
      </trkpt>
      <trkpt lat="45.85576" lon="4.63217">
        <ele>358.88113</ele>
        <time>2023-07-04T14:21:55.000Z</time>
      </trkpt>
      <trkpt lat="45.85581" lon="4.6322">
        <ele>358.78867</ele>
        <time>2023-07-04T14:21:56.000Z</time>
      </trkpt>
      <trkpt lat="45.85585" lon="4.63222">
        <ele>358.82605</ele>
        <time>2023-07-04T14:21:57.000Z</time>
      </trkpt>
      <trkpt lat="45.85591" lon="4.63227">
        <ele>358.99347</ele>
        <time>2023-07-04T14:21:58.000Z</time>
      </trkpt>
      <trkpt lat="45.85597" lon="4.63233">
        <ele>359.03915</ele>
        <time>2023-07-04T14:21:59.000Z</time>
      </trkpt>
      <trkpt lat="45.85602" lon="4.63239">
        <ele>358.96655</ele>
        <time>2023-07-04T14:22:00.000Z</time>
      </trkpt>
      <trkpt lat="45.85609" lon="4.63243">
        <ele>359.16443</ele>
        <time>2023-07-04T14:22:01.000Z</time>
      </trkpt>
      <trkpt lat="45.85615" lon="4.63249">
        <ele>359.18112</ele>
        <time>2023-07-04T14:22:02.000Z</time>
      </trkpt>
      <trkpt lat="45.85621" lon="4.63252">
        <ele>359.71112</ele>
        <time>2023-07-04T14:22:03.000Z</time>
      </trkpt>
      <trkpt lat="45.85629" lon="4.63258">
        <ele>360.64813</ele>
        <time>2023-07-04T14:22:04.000Z</time>
      </trkpt>
      <trkpt lat="45.85636" lon="4.63264">
        <ele>361.65521</ele>
        <time>2023-07-04T14:22:05.000Z</time>
      </trkpt>
      <trkpt lat="45.85644" lon="4.63269">
        <ele>361.81659</ele>
        <time>2023-07-04T14:22:06.000Z</time>
      </trkpt>
      <trkpt lat="45.85651" lon="4.63275">
        <ele>361.86929</ele>
        <time>2023-07-04T14:22:07.000Z</time>
      </trkpt>
      <trkpt lat="45.85658" lon="4.6328">
        <ele>361.64621</ele>
        <time>2023-07-04T14:22:08.000Z</time>
      </trkpt>
      <trkpt lat="45.85665" lon="4.63287">
        <ele>361.38965</ele>
        <time>2023-07-04T14:22:09.000Z</time>
      </trkpt>
      <trkpt lat="45.85672" lon="4.63293">
        <ele>359.97223</ele>
        <time>2023-07-04T14:22:10.000Z</time>
      </trkpt>
      <trkpt lat="45.85677" lon="4.63298">
        <ele>358.5856</ele>
        <time>2023-07-04T14:22:11.000Z</time>
      </trkpt>
      <trkpt lat="45.85681" lon="4.63303">
        <ele>357.47552</ele>
        <time>2023-07-04T14:22:12.000Z</time>
      </trkpt>
      <trkpt lat="45.85684" lon="4.63309">
        <ele>357.64423</ele>
        <time>2023-07-04T14:22:13.000Z</time>
      </trkpt>
      <trkpt lat="45.85688" lon="4.63315">
        <ele>357.85596</ele>
        <time>2023-07-04T14:22:14.000Z</time>
      </trkpt>
      <trkpt lat="45.85691" lon="4.63321">
        <ele>357.99292</ele>
        <time>2023-07-04T14:22:15.000Z</time>
      </trkpt>
      <trkpt lat="45.85695" lon="4.63327">
        <ele>358.11212</ele>
        <time>2023-07-04T14:22:16.000Z</time>
      </trkpt>
      <trkpt lat="45.85697" lon="4.63332">
        <ele>358.10272</ele>
        <time>2023-07-04T14:22:17.000Z</time>
      </trkpt>
      <trkpt lat="45.857" lon="4.63337">
        <ele>356.28888</ele>
        <time>2023-07-04T14:22:18.000Z</time>
      </trkpt>
      <trkpt lat="45.85703" lon="4.63342">
        <ele>356.23657</ele>
        <time>2023-07-04T14:22:19.000Z</time>
      </trkpt>
      <trkpt lat="45.85706" lon="4.63346">
        <ele>356.30997</ele>
        <time>2023-07-04T14:22:20.000Z</time>
      </trkpt>
      <trkpt lat="45.85709" lon="4.63349">
        <ele>356.17075</ele>
        <time>2023-07-04T14:22:21.000Z</time>
      </trkpt>
      <trkpt lat="45.85712" lon="4.63353">
        <ele>355.9902</ele>
        <time>2023-07-04T14:22:22.000Z</time>
      </trkpt>
      <trkpt lat="45.85715" lon="4.63357">
        <ele>355.30707</ele>
        <time>2023-07-04T14:22:23.000Z</time>
      </trkpt>
      <trkpt lat="45.85718" lon="4.63361">
        <ele>352.75519</ele>
        <time>2023-07-04T14:22:24.000Z</time>
      </trkpt>
      <trkpt lat="45.85721" lon="4.63364">
        <ele>350.06915</ele>
        <time>2023-07-04T14:22:25.000Z</time>
      </trkpt>
      <trkpt lat="45.85724" lon="4.63369">
        <ele>348.4278</ele>
        <time>2023-07-04T14:22:26.000Z</time>
      </trkpt>
      <trkpt lat="45.85727" lon="4.63373">
        <ele>346.60867</ele>
        <time>2023-07-04T14:22:27.000Z</time>
      </trkpt>
      <trkpt lat="45.85729" lon="4.63377">
        <ele>344.77145</ele>
        <time>2023-07-04T14:22:28.000Z</time>
      </trkpt>
      <trkpt lat="45.85732" lon="4.6338">
        <ele>343.07233</ele>
        <time>2023-07-04T14:22:29.000Z</time>
      </trkpt>
      <trkpt lat="45.85735" lon="4.63384">
        <ele>342.51239</ele>
        <time>2023-07-04T14:22:30.000Z</time>
      </trkpt>
      <trkpt lat="45.85738" lon="4.63388">
        <ele>342.00482</ele>
        <time>2023-07-04T14:22:31.000Z</time>
      </trkpt>
      <trkpt lat="45.85741" lon="4.63391">
        <ele>341.98361</ele>
        <time>2023-07-04T14:22:32.000Z</time>
      </trkpt>
      <trkpt lat="45.85745" lon="4.63394">
        <ele>340.5643</ele>
        <time>2023-07-04T14:22:33.000Z</time>
      </trkpt>
      <trkpt lat="45.85748" lon="4.63397">
        <ele>339.14346</ele>
        <time>2023-07-04T14:22:34.000Z</time>
      </trkpt>
      <trkpt lat="45.85752" lon="4.634">
        <ele>337.70337</ele>
        <time>2023-07-04T14:22:35.000Z</time>
      </trkpt>
      <trkpt lat="45.85755" lon="4.63403">
        <ele>336.25418</ele>
        <time>2023-07-04T14:22:36.000Z</time>
      </trkpt>
      <trkpt lat="45.85759" lon="4.63406">
        <ele>334.82269</ele>
        <time>2023-07-04T14:22:37.000Z</time>
      </trkpt>
      <trkpt lat="45.85762" lon="4.63408">
        <ele>335.09296</ele>
        <time>2023-07-04T14:22:38.000Z</time>
      </trkpt>
      <trkpt lat="45.85765" lon="4.6341">
        <ele>333.77542</ele>
        <time>2023-07-04T14:22:39.000Z</time>
      </trkpt>
      <trkpt lat="45.85769" lon="4.63413">
        <ele>332.47675</ele>
        <time>2023-07-04T14:22:40.000Z</time>
      </trkpt>
      <trkpt lat="45.85772" lon="4.63416">
        <ele>331.19434</ele>
        <time>2023-07-04T14:22:41.000Z</time>
      </trkpt>
      <trkpt lat="45.85775" lon="4.63418">
        <ele>329.93262</ele>
        <time>2023-07-04T14:22:42.000Z</time>
      </trkpt>
      <trkpt lat="45.85779" lon="4.6342">
        <ele>328.66559</ele>
        <time>2023-07-04T14:22:43.000Z</time>
      </trkpt>
      <trkpt lat="45.85783" lon="4.63422">
        <ele>328.91583</ele>
        <time>2023-07-04T14:22:44.000Z</time>
      </trkpt>
      <trkpt lat="45.85786" lon="4.63425">
        <ele>329.19186</ele>
        <time>2023-07-04T14:22:45.000Z</time>
      </trkpt>
      <trkpt lat="45.85789" lon="4.63427">
        <ele>329.4407</ele>
        <time>2023-07-04T14:22:46.000Z</time>
      </trkpt>
      <trkpt lat="45.85793" lon="4.6343">
        <ele>329.70477</ele>
        <time>2023-07-04T14:22:47.000Z</time>
      </trkpt>
      <trkpt lat="45.85796" lon="4.63433">
        <ele>329.95752</ele>
        <time>2023-07-04T14:22:48.000Z</time>
      </trkpt>
      <trkpt lat="45.858" lon="4.63435">
        <ele>330.20816</ele>
        <time>2023-07-04T14:22:49.000Z</time>
      </trkpt>
      <trkpt lat="45.85802" lon="4.63437">
        <ele>330.43457</ele>
        <time>2023-07-04T14:22:50.000Z</time>
      </trkpt>
      <trkpt lat="45.85805" lon="4.63439">
        <ele>330.64417</ele>
        <time>2023-07-04T14:22:51.000Z</time>
      </trkpt>
      <trkpt lat="45.85808" lon="4.6344">
        <ele>330.8541</ele>
        <time>2023-07-04T14:22:52.000Z</time>
      </trkpt>
      <trkpt lat="45.85811" lon="4.63442">
        <ele>331.04184</ele>
        <time>2023-07-04T14:22:53.000Z</time>
      </trkpt>
      <trkpt lat="45.85814" lon="4.63443">
        <ele>331.22778</ele>
        <time>2023-07-04T14:22:54.000Z</time>
      </trkpt>
      <trkpt lat="45.85816" lon="4.63445">
        <ele>331.40692</ele>
        <time>2023-07-04T14:22:55.000Z</time>
      </trkpt>
      <trkpt lat="45.85819" lon="4.63446">
        <ele>331.60785</ele>
        <time>2023-07-04T14:22:56.000Z</time>
      </trkpt>
      <trkpt lat="45.85821" lon="4.63448">
        <ele>331.85318</ele>
        <time>2023-07-04T14:22:57.000Z</time>
      </trkpt>
      <trkpt lat="45.85823" lon="4.6345">
        <ele>332.09085</ele>
        <time>2023-07-04T14:22:58.000Z</time>
      </trkpt>
      <trkpt lat="45.85825" lon="4.63453">
        <ele>332.34177</ele>
        <time>2023-07-04T14:22:59.000Z</time>
      </trkpt>
      <trkpt lat="45.85827" lon="4.63454">
        <ele>332.57895</ele>
        <time>2023-07-04T14:23:00.000Z</time>
      </trkpt>
      <trkpt lat="45.8583" lon="4.63456">
        <ele>332.80301</ele>
        <time>2023-07-04T14:23:01.000Z</time>
      </trkpt>
      <trkpt lat="45.85832" lon="4.63457">
        <ele>333.01508</ele>
        <time>2023-07-04T14:23:02.000Z</time>
      </trkpt>
      <trkpt lat="45.85835" lon="4.63459">
        <ele>333.2525</ele>
        <time>2023-07-04T14:23:03.000Z</time>
      </trkpt>
      <trkpt lat="45.85838" lon="4.63461">
        <ele>333.48883</ele>
        <time>2023-07-04T14:23:04.000Z</time>
      </trkpt>
      <trkpt lat="45.8584" lon="4.63463">
        <ele>333.70868</ele>
        <time>2023-07-04T14:23:05.000Z</time>
      </trkpt>
      <trkpt lat="45.85842" lon="4.63465">
        <ele>333.91104</ele>
        <time>2023-07-04T14:23:06.000Z</time>
      </trkpt>
      <trkpt lat="45.85845" lon="4.63467">
        <ele>334.74637</ele>
        <time>2023-07-04T14:23:07.000Z</time>
      </trkpt>
      <trkpt lat="45.85848" lon="4.63469">
        <ele>335.5752</ele>
        <time>2023-07-04T14:23:08.000Z</time>
      </trkpt>
      <trkpt lat="45.85851" lon="4.6347">
        <ele>336.3735</ele>
        <time>2023-07-04T14:23:09.000Z</time>
      </trkpt>
      <trkpt lat="45.85855" lon="4.63472">
        <ele>337.18167</ele>
        <time>2023-07-04T14:23:10.000Z</time>
      </trkpt>
      <trkpt lat="45.85859" lon="4.63473">
        <ele>337.99088</ele>
        <time>2023-07-04T14:23:11.000Z</time>
      </trkpt>
      <trkpt lat="45.85863" lon="4.63473">
        <ele>338.80441</ele>
        <time>2023-07-04T14:23:12.000Z</time>
      </trkpt>
      <trkpt lat="45.85867" lon="4.63474">
        <ele>338.94498</ele>
        <time>2023-07-04T14:23:13.000Z</time>
      </trkpt>
      <trkpt lat="45.85871" lon="4.63474">
        <ele>339.08374</ele>
        <time>2023-07-04T14:23:14.000Z</time>
      </trkpt>
      <trkpt lat="45.85875" lon="4.63473">
        <ele>339.17313</ele>
        <time>2023-07-04T14:23:15.000Z</time>
      </trkpt>
      <trkpt lat="45.85879" lon="4.63473">
        <ele>339.21893</ele>
        <time>2023-07-04T14:23:16.000Z</time>
      </trkpt>
      <trkpt lat="45.85883" lon="4.63473">
        <ele>339.18973</ele>
        <time>2023-07-04T14:23:17.000Z</time>
      </trkpt>
      <trkpt lat="45.85888" lon="4.63474">
        <ele>339.15344</ele>
        <time>2023-07-04T14:23:18.000Z</time>
      </trkpt>
      <trkpt lat="45.85893" lon="4.63475">
        <ele>339.06744</ele>
        <time>2023-07-04T14:23:19.000Z</time>
      </trkpt>
      <trkpt lat="45.85898" lon="4.63476">
        <ele>338.98175</ele>
        <time>2023-07-04T14:23:20.000Z</time>
      </trkpt>
      <trkpt lat="45.85903" lon="4.63477">
        <ele>338.94604</ele>
        <time>2023-07-04T14:23:21.000Z</time>
      </trkpt>
      <trkpt lat="45.85909" lon="4.63478">
        <ele>338.90485</ele>
        <time>2023-07-04T14:23:22.000Z</time>
      </trkpt>
      <trkpt lat="45.85914" lon="4.63478">
        <ele>338.82809</ele>
        <time>2023-07-04T14:23:23.000Z</time>
      </trkpt>
      <trkpt lat="45.85919" lon="4.63478">
        <ele>338.75693</ele>
        <time>2023-07-04T14:23:24.000Z</time>
      </trkpt>
      <trkpt lat="45.85923" lon="4.63479">
        <ele>338.66348</ele>
        <time>2023-07-04T14:23:25.000Z</time>
      </trkpt>
      <trkpt lat="45.85926" lon="4.63479">
        <ele>338.57358</ele>
        <time>2023-07-04T14:23:26.000Z</time>
      </trkpt>
      <trkpt lat="45.8593" lon="4.63479">
        <ele>337.80841</ele>
        <time>2023-07-04T14:23:27.000Z</time>
      </trkpt>
      <trkpt lat="45.85933" lon="4.63481">
        <ele>337.03064</ele>
        <time>2023-07-04T14:23:28.000Z</time>
      </trkpt>
      <trkpt lat="45.85936" lon="4.63482">
        <ele>336.26773</ele>
        <time>2023-07-04T14:23:29.000Z</time>
      </trkpt>
      <trkpt lat="45.85938" lon="4.63483">
        <ele>335.47281</ele>
        <time>2023-07-04T14:23:30.000Z</time>
      </trkpt>
      <trkpt lat="45.85941" lon="4.63483">
        <ele>334.68073</ele>
        <time>2023-07-04T14:23:31.000Z</time>
      </trkpt>
      <trkpt lat="45.85943" lon="4.6348">
        <ele>333.8714</ele>
        <time>2023-07-04T14:23:32.000Z</time>
      </trkpt>
      <trkpt lat="45.85945" lon="4.63477">
        <ele>333.71906</ele>
        <time>2023-07-04T14:23:33.000Z</time>
      </trkpt>
      <trkpt lat="45.85948" lon="4.63472">
        <ele>333.62552</ele>
        <time>2023-07-04T14:23:34.000Z</time>
      </trkpt>
      <trkpt lat="45.8595" lon="4.63468">
        <ele>333.56274</ele>
        <time>2023-07-04T14:23:35.000Z</time>
      </trkpt>
      <trkpt lat="45.85953" lon="4.63464">
        <ele>334.20587</ele>
        <time>2023-07-04T14:23:36.000Z</time>
      </trkpt>
      <trkpt lat="45.85956" lon="4.6346">
        <ele>334.87131</ele>
        <time>2023-07-04T14:23:37.000Z</time>
      </trkpt>
      <trkpt lat="45.85959" lon="4.63455">
        <ele>335.55298</ele>
        <time>2023-07-04T14:23:38.000Z</time>
      </trkpt>
      <trkpt lat="45.85962" lon="4.63451">
        <ele>336.25922</ele>
        <time>2023-07-04T14:23:39.000Z</time>
      </trkpt>
      <trkpt lat="45.85965" lon="4.63446">
        <ele>336.32745</ele>
        <time>2023-07-04T14:23:40.000Z</time>
      </trkpt>
      <trkpt lat="45.85967" lon="4.63441">
        <ele>336.33255</ele>
        <time>2023-07-04T14:23:41.000Z</time>
      </trkpt>
      <trkpt lat="45.8597" lon="4.63436">
        <ele>336.34454</ele>
        <time>2023-07-04T14:23:42.000Z</time>
      </trkpt>
      <trkpt lat="45.85973" lon="4.63431">
        <ele>336.35687</ele>
        <time>2023-07-04T14:23:43.000Z</time>
      </trkpt>
      <trkpt lat="45.85976" lon="4.63426">
        <ele>336.34344</ele>
        <time>2023-07-04T14:23:44.000Z</time>
      </trkpt>
      <trkpt lat="45.85978" lon="4.63422">
        <ele>336.34958</ele>
        <time>2023-07-04T14:23:45.000Z</time>
      </trkpt>
      <trkpt lat="45.85981" lon="4.63417">
        <ele>336.39044</ele>
        <time>2023-07-04T14:23:46.000Z</time>
      </trkpt>
      <trkpt lat="45.85984" lon="4.63411">
        <ele>336.42535</ele>
        <time>2023-07-04T14:23:47.000Z</time>
      </trkpt>
      <trkpt lat="45.85986" lon="4.63406">
        <ele>336.46521</ele>
        <time>2023-07-04T14:23:48.000Z</time>
      </trkpt>
      <trkpt lat="45.85989" lon="4.63401">
        <ele>336.48721</ele>
        <time>2023-07-04T14:23:49.000Z</time>
      </trkpt>
      <trkpt lat="45.85992" lon="4.63396">
        <ele>336.50839</ele>
        <time>2023-07-04T14:23:50.000Z</time>
      </trkpt>
      <trkpt lat="45.85995" lon="4.63391">
        <ele>336.53574</ele>
        <time>2023-07-04T14:23:51.000Z</time>
      </trkpt>
      <trkpt lat="45.85997" lon="4.63386">
        <ele>336.57288</ele>
        <time>2023-07-04T14:23:52.000Z</time>
      </trkpt>
      <trkpt lat="45.85999" lon="4.63381">
        <ele>336.63727</ele>
        <time>2023-07-04T14:23:53.000Z</time>
      </trkpt>
      <trkpt lat="45.86002" lon="4.63376">
        <ele>336.64175</ele>
        <time>2023-07-04T14:23:54.000Z</time>
      </trkpt>
      <trkpt lat="45.86004" lon="4.63371">
        <ele>336.69318</ele>
        <time>2023-07-04T14:23:55.000Z</time>
      </trkpt>
      <trkpt lat="45.86007" lon="4.63366">
        <ele>336.06418</ele>
        <time>2023-07-04T14:23:56.000Z</time>
      </trkpt>
      <trkpt lat="45.86009" lon="4.63361">
        <ele>335.42462</ele>
        <time>2023-07-04T14:23:57.000Z</time>
      </trkpt>
      <trkpt lat="45.86012" lon="4.63355">
        <ele>334.78784</ele>
        <time>2023-07-04T14:23:58.000Z</time>
      </trkpt>
      <trkpt lat="45.86014" lon="4.63349">
        <ele>334.16022</ele>
        <time>2023-07-04T14:23:59.000Z</time>
      </trkpt>
      <trkpt lat="45.86016" lon="4.63344">
        <ele>334.17593</ele>
        <time>2023-07-04T14:24:00.000Z</time>
      </trkpt>
      <trkpt lat="45.86018" lon="4.63339">
        <ele>334.22324</ele>
        <time>2023-07-04T14:24:01.000Z</time>
      </trkpt>
      <trkpt lat="45.8602" lon="4.63334">
        <ele>334.28729</ele>
        <time>2023-07-04T14:24:02.000Z</time>
      </trkpt>
      <trkpt lat="45.86022" lon="4.63329">
        <ele>334.36688</ele>
        <time>2023-07-04T14:24:03.000Z</time>
      </trkpt>
      <trkpt lat="45.86024" lon="4.63324">
        <ele>334.47287</ele>
        <time>2023-07-04T14:24:04.000Z</time>
      </trkpt>
      <trkpt lat="45.86026" lon="4.6332">
        <ele>334.56458</ele>
        <time>2023-07-04T14:24:05.000Z</time>
      </trkpt>
      <trkpt lat="45.86028" lon="4.63316">
        <ele>334.6358</ele>
        <time>2023-07-04T14:24:06.000Z</time>
      </trkpt>
      <trkpt lat="45.8603" lon="4.63311">
        <ele>334.74045</ele>
        <time>2023-07-04T14:24:07.000Z</time>
      </trkpt>
      <trkpt lat="45.86032" lon="4.63307">
        <ele>334.83099</ele>
        <time>2023-07-04T14:24:08.000Z</time>
      </trkpt>
      <trkpt lat="45.86035" lon="4.63304">
        <ele>334.91455</ele>
        <time>2023-07-04T14:24:09.000Z</time>
      </trkpt>
      <trkpt lat="45.86037" lon="4.63299">
        <ele>335.017</ele>
        <time>2023-07-04T14:24:10.000Z</time>
      </trkpt>
      <trkpt lat="45.86039" lon="4.63294">
        <ele>335.12701</ele>
        <time>2023-07-04T14:24:11.000Z</time>
      </trkpt>
      <trkpt lat="45.8604" lon="4.63289">
        <ele>335.22559</ele>
        <time>2023-07-04T14:24:12.000Z</time>
      </trkpt>
      <trkpt lat="45.86042" lon="4.63284">
        <ele>335.32635</ele>
        <time>2023-07-04T14:24:13.000Z</time>
      </trkpt>
      <trkpt lat="45.86044" lon="4.63279">
        <ele>335.42285</ele>
        <time>2023-07-04T14:24:14.000Z</time>
      </trkpt>
      <trkpt lat="45.86046" lon="4.63274">
        <ele>335.52197</ele>
        <time>2023-07-04T14:24:15.000Z</time>
      </trkpt>
      <trkpt lat="45.86049" lon="4.63269">
        <ele>335.61658</ele>
        <time>2023-07-04T14:24:16.000Z</time>
      </trkpt>
      <trkpt lat="45.86051" lon="4.63264">
        <ele>335.70883</ele>
        <time>2023-07-04T14:24:17.000Z</time>
      </trkpt>
      <trkpt lat="45.86053" lon="4.63259">
        <ele>335.83292</ele>
        <time>2023-07-04T14:24:18.000Z</time>
      </trkpt>
      <trkpt lat="45.86055" lon="4.63254">
        <ele>335.96066</ele>
        <time>2023-07-04T14:24:19.000Z</time>
      </trkpt>
      <trkpt lat="45.86058" lon="4.63249">
        <ele>336.047</ele>
        <time>2023-07-04T14:24:20.000Z</time>
      </trkpt>
      <trkpt lat="45.8606" lon="4.63244">
        <ele>336.0921</ele>
        <time>2023-07-04T14:24:21.000Z</time>
      </trkpt>
      <trkpt lat="45.86062" lon="4.6324">
        <ele>336.11285</ele>
        <time>2023-07-04T14:24:22.000Z</time>
      </trkpt>
      <trkpt lat="45.86064" lon="4.63235">
        <ele>336.14795</ele>
        <time>2023-07-04T14:24:23.000Z</time>
      </trkpt>
      <trkpt lat="45.86066" lon="4.63231">
        <ele>336.19049</ele>
        <time>2023-07-04T14:24:24.000Z</time>
      </trkpt>
      <trkpt lat="45.86068" lon="4.63227">
        <ele>336.22687</ele>
        <time>2023-07-04T14:24:25.000Z</time>
      </trkpt>
      <trkpt lat="45.8607" lon="4.63222">
        <ele>336.383</ele>
        <time>2023-07-04T14:24:26.000Z</time>
      </trkpt>
      <trkpt lat="45.86072" lon="4.63218">
        <ele>336.50275</ele>
        <time>2023-07-04T14:24:27.000Z</time>
      </trkpt>
      <trkpt lat="45.86074" lon="4.63213">
        <ele>336.65015</ele>
        <time>2023-07-04T14:24:28.000Z</time>
      </trkpt>
      <trkpt lat="45.86076" lon="4.63209">
        <ele>336.79596</ele>
        <time>2023-07-04T14:24:29.000Z</time>
      </trkpt>
      <trkpt lat="45.86078" lon="4.63204">
        <ele>336.94708</ele>
        <time>2023-07-04T14:24:30.000Z</time>
      </trkpt>
      <trkpt lat="45.8608" lon="4.632">
        <ele>337.10446</ele>
        <time>2023-07-04T14:24:31.000Z</time>
      </trkpt>
      <trkpt lat="45.86082" lon="4.63196">
        <ele>337.23929</ele>
        <time>2023-07-04T14:24:32.000Z</time>
      </trkpt>
      <trkpt lat="45.86084" lon="4.63192">
        <ele>337.32477</ele>
        <time>2023-07-04T14:24:33.000Z</time>
      </trkpt>
      <trkpt lat="45.86086" lon="4.63188">
        <ele>337.55414</ele>
        <time>2023-07-04T14:24:34.000Z</time>
      </trkpt>
      <trkpt lat="45.86089" lon="4.63184">
        <ele>337.75287</ele>
        <time>2023-07-04T14:24:35.000Z</time>
      </trkpt>
      <trkpt lat="45.86091" lon="4.6318">
        <ele>337.97137</ele>
        <time>2023-07-04T14:24:36.000Z</time>
      </trkpt>
      <trkpt lat="45.86093" lon="4.63176">
        <ele>338.2049</ele>
        <time>2023-07-04T14:24:37.000Z</time>
      </trkpt>
      <trkpt lat="45.86095" lon="4.63172">
        <ele>338.40424</ele>
        <time>2023-07-04T14:24:38.000Z</time>
      </trkpt>
      <trkpt lat="45.86097" lon="4.63169">
        <ele>338.56671</ele>
        <time>2023-07-04T14:24:39.000Z</time>
      </trkpt>
      <trkpt lat="45.86099" lon="4.63166">
        <ele>338.76462</ele>
        <time>2023-07-04T14:24:40.000Z</time>
      </trkpt>
      <trkpt lat="45.861" lon="4.63163">
        <ele>338.99677</ele>
        <time>2023-07-04T14:24:41.000Z</time>
      </trkpt>
      <trkpt lat="45.86102" lon="4.63159">
        <ele>339.24789</ele>
        <time>2023-07-04T14:24:42.000Z</time>
      </trkpt>
      <trkpt lat="45.86104" lon="4.63155">
        <ele>339.49713</ele>
        <time>2023-07-04T14:24:43.000Z</time>
      </trkpt>
      <trkpt lat="45.86106" lon="4.63152">
        <ele>339.74887</ele>
        <time>2023-07-04T14:24:44.000Z</time>
      </trkpt>
      <trkpt lat="45.86108" lon="4.63147">
        <ele>340.04022</ele>
        <time>2023-07-04T14:24:45.000Z</time>
      </trkpt>
      <trkpt lat="45.8611" lon="4.63143">
        <ele>340.19394</ele>
        <time>2023-07-04T14:24:46.000Z</time>
      </trkpt>
      <trkpt lat="45.86113" lon="4.6314">
        <ele>340.36478</ele>
        <time>2023-07-04T14:24:47.000Z</time>
      </trkpt>
      <trkpt lat="45.86115" lon="4.63136">
        <ele>340.53403</ele>
        <time>2023-07-04T14:24:48.000Z</time>
      </trkpt>
      <trkpt lat="45.86117" lon="4.63132">
        <ele>340.74423</ele>
        <time>2023-07-04T14:24:49.000Z</time>
      </trkpt>
      <trkpt lat="45.86119" lon="4.63128">
        <ele>340.88116</ele>
        <time>2023-07-04T14:24:50.000Z</time>
      </trkpt>
      <trkpt lat="45.86122" lon="4.63124">
        <ele>341.00925</ele>
        <time>2023-07-04T14:24:51.000Z</time>
      </trkpt>
      <trkpt lat="45.86124" lon="4.6312">
        <ele>341.18475</ele>
        <time>2023-07-04T14:24:52.000Z</time>
      </trkpt>
      <trkpt lat="45.86126" lon="4.63116">
        <ele>341.35489</ele>
        <time>2023-07-04T14:24:53.000Z</time>
      </trkpt>
      <trkpt lat="45.86128" lon="4.63112">
        <ele>341.57724</ele>
        <time>2023-07-04T14:24:54.000Z</time>
      </trkpt>
      <trkpt lat="45.8613" lon="4.63108">
        <ele>341.78699</ele>
        <time>2023-07-04T14:24:55.000Z</time>
      </trkpt>
      <trkpt lat="45.86132" lon="4.63106">
        <ele>341.97189</ele>
        <time>2023-07-04T14:24:56.000Z</time>
      </trkpt>
      <trkpt lat="45.86133" lon="4.63103">
        <ele>342.12729</ele>
        <time>2023-07-04T14:24:57.000Z</time>
      </trkpt>
      <trkpt lat="45.86135" lon="4.631">
        <ele>342.2774</ele>
        <time>2023-07-04T14:24:59.000Z</time>
      </trkpt>
      <trkpt lat="45.86136" lon="4.63096">
        <ele>342.26447</ele>
        <time>2023-07-04T14:25:01.000Z</time>
      </trkpt>
      <trkpt lat="45.86136" lon="4.63094">
        <ele>342.41412</ele>
        <time>2023-07-04T14:25:02.000Z</time>
      </trkpt>
      <trkpt lat="45.86134" lon="4.6309">
        <ele>342.53156</ele>
        <time>2023-07-04T14:25:03.000Z</time>
      </trkpt>
      <trkpt lat="45.86131" lon="4.63088">
        <ele>342.6286</ele>
        <time>2023-07-04T14:25:04.000Z</time>
      </trkpt>
      <trkpt lat="45.86129" lon="4.63086">
        <ele>342.70303</ele>
        <time>2023-07-04T14:25:05.000Z</time>
      </trkpt>
      <trkpt lat="45.86126" lon="4.63084">
        <ele>342.73901</ele>
        <time>2023-07-04T14:25:06.000Z</time>
      </trkpt>
      <trkpt lat="45.86123" lon="4.63082">
        <ele>342.72882</ele>
        <time>2023-07-04T14:25:07.000Z</time>
      </trkpt>
      <trkpt lat="45.86121" lon="4.6308">
        <ele>342.75986</ele>
        <time>2023-07-04T14:25:08.000Z</time>
      </trkpt>
      <trkpt lat="45.86118" lon="4.63078">
        <ele>342.81247</ele>
        <time>2023-07-04T14:25:09.000Z</time>
      </trkpt>
      <trkpt lat="45.86116" lon="4.63075">
        <ele>342.83917</ele>
        <time>2023-07-04T14:25:10.000Z</time>
      </trkpt>
      <trkpt lat="45.86114" lon="4.63073">
        <ele>342.78757</ele>
        <time>2023-07-04T14:25:11.000Z</time>
      </trkpt>
      <trkpt lat="45.86112" lon="4.63072">
        <ele>342.78717</ele>
        <time>2023-07-04T14:25:12.000Z</time>
      </trkpt>
      <trkpt lat="45.86109" lon="4.6307">
        <ele>342.83041</ele>
        <time>2023-07-04T14:25:13.000Z</time>
      </trkpt>
      <trkpt lat="45.86106" lon="4.63067">
        <ele>342.91858</ele>
        <time>2023-07-04T14:25:14.000Z</time>
      </trkpt>
      <trkpt lat="45.86102" lon="4.63064">
        <ele>343.05368</ele>
        <time>2023-07-04T14:25:15.000Z</time>
      </trkpt>
      <trkpt lat="45.86099" lon="4.63061">
        <ele>343.03693</ele>
        <time>2023-07-04T14:25:16.000Z</time>
      </trkpt>
      <trkpt lat="45.86096" lon="4.63058">
        <ele>343.02719</ele>
        <time>2023-07-04T14:25:17.000Z</time>
      </trkpt>
      <trkpt lat="45.86093" lon="4.63056">
        <ele>342.9693</ele>
        <time>2023-07-04T14:25:18.000Z</time>
      </trkpt>
      <trkpt lat="45.86091" lon="4.63054">
        <ele>342.82318</ele>
        <time>2023-07-04T14:25:19.000Z</time>
      </trkpt>
      <trkpt lat="45.86088" lon="4.6305">
        <ele>342.6731</ele>
        <time>2023-07-04T14:25:20.000Z</time>
      </trkpt>
      <trkpt lat="45.86084" lon="4.63047">
        <ele>342.64685</ele>
        <time>2023-07-04T14:25:21.000Z</time>
      </trkpt>
      <trkpt lat="45.86081" lon="4.63044">
        <ele>342.64142</ele>
        <time>2023-07-04T14:25:22.000Z</time>
      </trkpt>
      <trkpt lat="45.86078" lon="4.63042">
        <ele>342.63309</ele>
        <time>2023-07-04T14:25:23.000Z</time>
      </trkpt>
      <trkpt lat="45.86074" lon="4.63039">
        <ele>342.63559</ele>
        <time>2023-07-04T14:25:24.000Z</time>
      </trkpt>
      <trkpt lat="45.8607" lon="4.63035">
        <ele>342.6608</ele>
        <time>2023-07-04T14:25:25.000Z</time>
      </trkpt>
      <trkpt lat="45.86066" lon="4.63031">
        <ele>342.6994</ele>
        <time>2023-07-04T14:25:26.000Z</time>
      </trkpt>
      <trkpt lat="45.86062" lon="4.63028">
        <ele>342.72589</ele>
        <time>2023-07-04T14:25:27.000Z</time>
      </trkpt>
      <trkpt lat="45.86058" lon="4.63023">
        <ele>342.72208</ele>
        <time>2023-07-04T14:25:28.000Z</time>
      </trkpt>
      <trkpt lat="45.86053" lon="4.6302">
        <ele>342.71918</ele>
        <time>2023-07-04T14:25:29.000Z</time>
      </trkpt>
      <trkpt lat="45.86048" lon="4.63016">
        <ele>342.71387</ele>
        <time>2023-07-04T14:25:30.000Z</time>
      </trkpt>
      <trkpt lat="45.86042" lon="4.63011">
        <ele>342.73761</ele>
        <time>2023-07-04T14:25:31.000Z</time>
      </trkpt>
      <trkpt lat="45.86036" lon="4.63006">
        <ele>342.68707</ele>
        <time>2023-07-04T14:25:32.000Z</time>
      </trkpt>
      <trkpt lat="45.8603" lon="4.63001">
        <ele>342.48758</ele>
        <time>2023-07-04T14:25:33.000Z</time>
      </trkpt>
      <trkpt lat="45.86023" lon="4.62994">
        <ele>342.34158</ele>
        <time>2023-07-04T14:25:34.000Z</time>
      </trkpt>
      <trkpt lat="45.86016" lon="4.62987">
        <ele>342.129</ele>
        <time>2023-07-04T14:25:35.000Z</time>
      </trkpt>
      <trkpt lat="45.86009" lon="4.6298">
        <ele>341.86188</ele>
        <time>2023-07-04T14:25:36.000Z</time>
      </trkpt>
      <trkpt lat="45.86001" lon="4.62973">
        <ele>341.5816</ele>
        <time>2023-07-04T14:25:37.000Z</time>
      </trkpt>
      <trkpt lat="45.85995" lon="4.62965">
        <ele>341.31732</ele>
        <time>2023-07-04T14:25:38.000Z</time>
      </trkpt>
      <trkpt lat="45.85989" lon="4.62957">
        <ele>341.11612</ele>
        <time>2023-07-04T14:25:39.000Z</time>
      </trkpt>
      <trkpt lat="45.85984" lon="4.62948">
        <ele>340.87912</ele>
        <time>2023-07-04T14:25:40.000Z</time>
      </trkpt>
      <trkpt lat="45.85979" lon="4.6294">
        <ele>340.67514</ele>
        <time>2023-07-04T14:25:41.000Z</time>
      </trkpt>
      <trkpt lat="45.85975" lon="4.62933">
        <ele>340.2182</ele>
        <time>2023-07-04T14:25:42.000Z</time>
      </trkpt>
      <trkpt lat="45.85971" lon="4.62925">
        <ele>339.71246</ele>
        <time>2023-07-04T14:25:43.000Z</time>
      </trkpt>
      <trkpt lat="45.85967" lon="4.6292">
        <ele>339.24521</ele>
        <time>2023-07-04T14:25:44.000Z</time>
      </trkpt>
      <trkpt lat="45.85964" lon="4.62914">
        <ele>338.73819</ele>
        <time>2023-07-04T14:25:45.000Z</time>
      </trkpt>
      <trkpt lat="45.8596" lon="4.62907">
        <ele>338.21869</ele>
        <time>2023-07-04T14:25:46.000Z</time>
      </trkpt>
      <trkpt lat="45.85959" lon="4.629">
        <ele>337.71982</ele>
        <time>2023-07-04T14:25:47.000Z</time>
      </trkpt>
      <trkpt lat="45.8596" lon="4.62892">
        <ele>337.20062</ele>
        <time>2023-07-04T14:25:48.000Z</time>
      </trkpt>
      <trkpt lat="45.8596" lon="4.62886">
        <ele>336.68286</ele>
        <time>2023-07-04T14:25:49.000Z</time>
      </trkpt>
      <trkpt lat="45.8596" lon="4.62879">
        <ele>336.16708</ele>
        <time>2023-07-04T14:25:50.000Z</time>
      </trkpt>
      <trkpt lat="45.8596" lon="4.62872">
        <ele>335.64725</ele>
        <time>2023-07-04T14:25:51.000Z</time>
      </trkpt>
      <trkpt lat="45.8596" lon="4.62867">
        <ele>335.26074</ele>
        <time>2023-07-04T14:25:52.000Z</time>
      </trkpt>
      <trkpt lat="45.85959" lon="4.62861">
        <ele>334.97794</ele>
        <time>2023-07-04T14:25:53.000Z</time>
      </trkpt>
      <trkpt lat="45.85959" lon="4.62856">
        <ele>334.60678</ele>
        <time>2023-07-04T14:25:54.000Z</time>
      </trkpt>
      <trkpt lat="45.85958" lon="4.62851">
        <ele>334.31635</ele>
        <time>2023-07-04T14:25:55.000Z</time>
      </trkpt>
      <trkpt lat="45.85957" lon="4.62845">
        <ele>334.03452</ele>
        <time>2023-07-04T14:25:56.000Z</time>
      </trkpt>
      <trkpt lat="45.85956" lon="4.6284">
        <ele>333.79871</ele>
        <time>2023-07-04T14:25:57.000Z</time>
      </trkpt>
      <trkpt lat="45.85956" lon="4.62836">
        <ele>333.60165</ele>
        <time>2023-07-04T14:25:58.000Z</time>
      </trkpt>
      <trkpt lat="45.85956" lon="4.6283">
        <ele>333.44537</ele>
        <time>2023-07-04T14:25:59.000Z</time>
      </trkpt>
      <trkpt lat="45.85955" lon="4.62826">
        <ele>333.33539</ele>
        <time>2023-07-04T14:26:00.000Z</time>
      </trkpt>
      <trkpt lat="45.85954" lon="4.62822">
        <ele>333.26718</ele>
        <time>2023-07-04T14:26:01.000Z</time>
      </trkpt>
      <trkpt lat="45.85954" lon="4.62817">
        <ele>333.23062</ele>
        <time>2023-07-04T14:26:02.000Z</time>
      </trkpt>
      <trkpt lat="45.85953" lon="4.62813">
        <ele>333.27246</ele>
        <time>2023-07-04T14:26:03.000Z</time>
      </trkpt>
      <trkpt lat="45.85952" lon="4.62809">
        <ele>333.2822</ele>
        <time>2023-07-04T14:26:04.000Z</time>
      </trkpt>
      <trkpt lat="45.85951" lon="4.62805">
        <ele>333.34229</ele>
        <time>2023-07-04T14:26:05.000Z</time>
      </trkpt>
      <trkpt lat="45.8595" lon="4.62802">
        <ele>333.4415</ele>
        <time>2023-07-04T14:26:06.000Z</time>
      </trkpt>
      <trkpt lat="45.8595" lon="4.62798">
        <ele>333.56146</ele>
        <time>2023-07-04T14:26:07.000Z</time>
      </trkpt>
      <trkpt lat="45.85949" lon="4.62794">
        <ele>333.70404</ele>
        <time>2023-07-04T14:26:08.000Z</time>
      </trkpt>
      <trkpt lat="45.85948" lon="4.6279">
        <ele>333.84326</ele>
        <time>2023-07-04T14:26:09.000Z</time>
      </trkpt>
      <trkpt lat="45.85947" lon="4.62786">
        <ele>334.01431</ele>
        <time>2023-07-04T14:26:10.000Z</time>
      </trkpt>
      <trkpt lat="45.85946" lon="4.62781">
        <ele>334.2178</ele>
        <time>2023-07-04T14:26:11.000Z</time>
      </trkpt>
      <trkpt lat="45.85945" lon="4.62777">
        <ele>334.39279</ele>
        <time>2023-07-04T14:26:12.000Z</time>
      </trkpt>
      <trkpt lat="45.85944" lon="4.62772">
        <ele>334.58347</ele>
        <time>2023-07-04T14:26:13.000Z</time>
      </trkpt>
      <trkpt lat="45.85944" lon="4.62768">
        <ele>334.75604</ele>
        <time>2023-07-04T14:26:14.000Z</time>
      </trkpt>
      <trkpt lat="45.85943" lon="4.62763">
        <ele>334.92023</ele>
        <time>2023-07-04T14:26:15.000Z</time>
      </trkpt>
      <trkpt lat="45.85942" lon="4.6276">
        <ele>335.07352</ele>
        <time>2023-07-04T14:26:16.000Z</time>
      </trkpt>
      <trkpt lat="45.85942" lon="4.62756">
        <ele>335.21552</ele>
        <time>2023-07-04T14:26:17.000Z</time>
      </trkpt>
      <trkpt lat="45.85941" lon="4.62753">
        <ele>335.37149</ele>
        <time>2023-07-04T14:26:18.000Z</time>
      </trkpt>
      <trkpt lat="45.8594" lon="4.62747">
        <ele>335.56512</ele>
        <time>2023-07-04T14:26:20.000Z</time>
      </trkpt>
      <trkpt lat="45.85939" lon="4.62744">
        <ele>335.71701</ele>
        <time>2023-07-04T14:26:21.000Z</time>
      </trkpt>
      <trkpt lat="45.8594" lon="4.6274">
        <ele>335.85602</ele>
        <time>2023-07-04T14:26:22.000Z</time>
      </trkpt>
      <trkpt lat="45.8594" lon="4.62736">
        <ele>336.06821</ele>
        <time>2023-07-04T14:26:23.000Z</time>
      </trkpt>
      <trkpt lat="45.85941" lon="4.62731">
        <ele>336.2475</ele>
        <time>2023-07-04T14:26:24.000Z</time>
      </trkpt>
      <trkpt lat="45.85941" lon="4.62726">
        <ele>336.38</ele>
        <time>2023-07-04T14:26:25.000Z</time>
      </trkpt>
      <trkpt lat="45.85941" lon="4.62722">
        <ele>336.54184</ele>
        <time>2023-07-04T14:26:26.000Z</time>
      </trkpt>
      <trkpt lat="45.85942" lon="4.62717">
        <ele>336.66125</ele>
        <time>2023-07-04T14:26:27.000Z</time>
      </trkpt>
      <trkpt lat="45.85943" lon="4.62713">
        <ele>336.78265</ele>
        <time>2023-07-04T14:26:28.000Z</time>
      </trkpt>
      <trkpt lat="45.85944" lon="4.62708">
        <ele>337.04089</ele>
        <time>2023-07-04T14:26:29.000Z</time>
      </trkpt>
      <trkpt lat="45.85945" lon="4.62703">
        <ele>337.26938</ele>
        <time>2023-07-04T14:26:30.000Z</time>
      </trkpt>
      <trkpt lat="45.85945" lon="4.62698">
        <ele>337.49469</ele>
        <time>2023-07-04T14:26:31.000Z</time>
      </trkpt>
      <trkpt lat="45.85946" lon="4.62693">
        <ele>337.7384</ele>
        <time>2023-07-04T14:26:32.000Z</time>
      </trkpt>
      <trkpt lat="45.85946" lon="4.62688">
        <ele>337.99005</ele>
        <time>2023-07-04T14:26:33.000Z</time>
      </trkpt>
      <trkpt lat="45.85946" lon="4.62683">
        <ele>338.21857</ele>
        <time>2023-07-04T14:26:34.000Z</time>
      </trkpt>
      <trkpt lat="45.85947" lon="4.62678">
        <ele>338.45996</ele>
        <time>2023-07-04T14:26:35.000Z</time>
      </trkpt>
      <trkpt lat="45.85948" lon="4.62673">
        <ele>338.68906</ele>
        <time>2023-07-04T14:26:36.000Z</time>
      </trkpt>
      <trkpt lat="45.85949" lon="4.62669">
        <ele>338.96234</ele>
        <time>2023-07-04T14:26:37.000Z</time>
      </trkpt>
      <trkpt lat="45.8595" lon="4.62664">
        <ele>339.22205</ele>
        <time>2023-07-04T14:26:38.000Z</time>
      </trkpt>
      <trkpt lat="45.85951" lon="4.62659">
        <ele>339.48486</ele>
        <time>2023-07-04T14:26:39.000Z</time>
      </trkpt>
      <trkpt lat="45.85952" lon="4.62655">
        <ele>339.72031</ele>
        <time>2023-07-04T14:26:40.000Z</time>
      </trkpt>
      <trkpt lat="45.85954" lon="4.6265">
        <ele>340.01315</ele>
        <time>2023-07-04T14:26:41.000Z</time>
      </trkpt>
      <trkpt lat="45.85955" lon="4.62646">
        <ele>340.33502</ele>
        <time>2023-07-04T14:26:42.000Z</time>
      </trkpt>
      <trkpt lat="45.85956" lon="4.62641">
        <ele>340.62192</ele>
        <time>2023-07-04T14:26:43.000Z</time>
      </trkpt>
      <trkpt lat="45.85957" lon="4.62637">
        <ele>340.9332</ele>
        <time>2023-07-04T14:26:44.000Z</time>
      </trkpt>
      <trkpt lat="45.85958" lon="4.62632">
        <ele>341.28757</ele>
        <time>2023-07-04T14:26:45.000Z</time>
      </trkpt>
      <trkpt lat="45.85959" lon="4.62628">
        <ele>341.60385</ele>
        <time>2023-07-04T14:26:46.000Z</time>
      </trkpt>
      <trkpt lat="45.8596" lon="4.62623">
        <ele>341.96594</ele>
        <time>2023-07-04T14:26:47.000Z</time>
      </trkpt>
      <trkpt lat="45.85961" lon="4.62619">
        <ele>342.30695</ele>
        <time>2023-07-04T14:26:48.000Z</time>
      </trkpt>
      <trkpt lat="45.85961" lon="4.62614">
        <ele>342.48285</ele>
        <time>2023-07-04T14:26:49.000Z</time>
      </trkpt>
      <trkpt lat="45.85962" lon="4.6261">
        <ele>342.54117</ele>
        <time>2023-07-04T14:26:50.000Z</time>
      </trkpt>
      <trkpt lat="45.85962" lon="4.62605">
        <ele>342.86011</ele>
        <time>2023-07-04T14:26:51.000Z</time>
      </trkpt>
      <trkpt lat="45.85963" lon="4.626">
        <ele>343.31573</ele>
        <time>2023-07-04T14:26:52.000Z</time>
      </trkpt>
      <trkpt lat="45.85964" lon="4.62596">
        <ele>343.76129</ele>
        <time>2023-07-04T14:26:53.000Z</time>
      </trkpt>
      <trkpt lat="45.85965" lon="4.62591">
        <ele>344.19867</ele>
        <time>2023-07-04T14:26:54.000Z</time>
      </trkpt>
      <trkpt lat="45.85965" lon="4.62587">
        <ele>344.63455</ele>
        <time>2023-07-04T14:26:55.000Z</time>
      </trkpt>
      <trkpt lat="45.85966" lon="4.62583">
        <ele>345.0799</ele>
        <time>2023-07-04T14:26:56.000Z</time>
      </trkpt>
      <trkpt lat="45.85967" lon="4.62578">
        <ele>345.50272</ele>
        <time>2023-07-04T14:26:57.000Z</time>
      </trkpt>
      <trkpt lat="45.85968" lon="4.62573">
        <ele>345.94977</ele>
        <time>2023-07-04T14:26:58.000Z</time>
      </trkpt>
      <trkpt lat="45.85969" lon="4.62568">
        <ele>346.38882</ele>
        <time>2023-07-04T14:26:59.000Z</time>
      </trkpt>
      <trkpt lat="45.8597" lon="4.62564">
        <ele>346.82715</ele>
        <time>2023-07-04T14:27:00.000Z</time>
      </trkpt>
      <trkpt lat="45.85971" lon="4.62559">
        <ele>347.24969</ele>
        <time>2023-07-04T14:27:01.000Z</time>
      </trkpt>
      <trkpt lat="45.85972" lon="4.62555">
        <ele>347.65079</ele>
        <time>2023-07-04T14:27:02.000Z</time>
      </trkpt>
      <trkpt lat="45.85973" lon="4.6255">
        <ele>348.05011</ele>
        <time>2023-07-04T14:27:03.000Z</time>
      </trkpt>
      <trkpt lat="45.85973" lon="4.62546">
        <ele>348.44604</ele>
        <time>2023-07-04T14:27:04.000Z</time>
      </trkpt>
      <trkpt lat="45.85974" lon="4.62541">
        <ele>348.84836</ele>
        <time>2023-07-04T14:27:05.000Z</time>
      </trkpt>
      <trkpt lat="45.85975" lon="4.62536">
        <ele>349.25732</ele>
        <time>2023-07-04T14:27:06.000Z</time>
      </trkpt>
      <trkpt lat="45.85976" lon="4.62532">
        <ele>349.63943</ele>
        <time>2023-07-04T14:27:07.000Z</time>
      </trkpt>
      <trkpt lat="45.85977" lon="4.62527">
        <ele>350.03204</ele>
        <time>2023-07-04T14:27:08.000Z</time>
      </trkpt>
      <trkpt lat="45.85978" lon="4.62523">
        <ele>350.43484</ele>
        <time>2023-07-04T14:27:09.000Z</time>
      </trkpt>
      <trkpt lat="45.85978" lon="4.62518">
        <ele>350.94632</ele>
        <time>2023-07-04T14:27:10.000Z</time>
      </trkpt>
      <trkpt lat="45.85979" lon="4.62513">
        <ele>351.20221</ele>
        <time>2023-07-04T14:27:11.000Z</time>
      </trkpt>
      <trkpt lat="45.85981" lon="4.62508">
        <ele>351.32343</ele>
        <time>2023-07-04T14:27:12.000Z</time>
      </trkpt>
      <trkpt lat="45.85982" lon="4.62504">
        <ele>351.43842</ele>
        <time>2023-07-04T14:27:13.000Z</time>
      </trkpt>
      <trkpt lat="45.85983" lon="4.62499">
        <ele>351.55463</ele>
        <time>2023-07-04T14:27:14.000Z</time>
      </trkpt>
      <trkpt lat="45.85984" lon="4.62495">
        <ele>351.67572</ele>
        <time>2023-07-04T14:27:15.000Z</time>
      </trkpt>
      <trkpt lat="45.85985" lon="4.62491">
        <ele>351.79333</ele>
        <time>2023-07-04T14:27:16.000Z</time>
      </trkpt>
      <trkpt lat="45.85987" lon="4.62487">
        <ele>351.892</ele>
        <time>2023-07-04T14:27:17.000Z</time>
      </trkpt>
      <trkpt lat="45.85988" lon="4.62482">
        <ele>351.98776</ele>
        <time>2023-07-04T14:27:18.000Z</time>
      </trkpt>
      <trkpt lat="45.8599" lon="4.62478">
        <ele>352.08978</ele>
        <time>2023-07-04T14:27:19.000Z</time>
      </trkpt>
      <trkpt lat="45.85991" lon="4.62473">
        <ele>352.16757</ele>
        <time>2023-07-04T14:27:20.000Z</time>
      </trkpt>
      <trkpt lat="45.85992" lon="4.62469">
        <ele>352.24368</ele>
        <time>2023-07-04T14:27:21.000Z</time>
      </trkpt>
      <trkpt lat="45.85993" lon="4.62464">
        <ele>352.31363</ele>
        <time>2023-07-04T14:27:22.000Z</time>
      </trkpt>
      <trkpt lat="45.85995" lon="4.6246">
        <ele>352.36749</ele>
        <time>2023-07-04T14:27:23.000Z</time>
      </trkpt>
      <trkpt lat="45.85996" lon="4.62455">
        <ele>352.41769</ele>
        <time>2023-07-04T14:27:24.000Z</time>
      </trkpt>
      <trkpt lat="45.85997" lon="4.6245">
        <ele>352.4519</ele>
        <time>2023-07-04T14:27:25.000Z</time>
      </trkpt>
      <trkpt lat="45.85998" lon="4.62445">
        <ele>352.4707</ele>
        <time>2023-07-04T14:27:26.000Z</time>
      </trkpt>
      <trkpt lat="45.85999" lon="4.6244">
        <ele>352.50699</ele>
        <time>2023-07-04T14:27:27.000Z</time>
      </trkpt>
      <trkpt lat="45.85999" lon="4.62436">
        <ele>352.53214</ele>
        <time>2023-07-04T14:27:28.000Z</time>
      </trkpt>
      <trkpt lat="45.86" lon="4.62431">
        <ele>352.60968</ele>
        <time>2023-07-04T14:27:29.000Z</time>
      </trkpt>
      <trkpt lat="45.86" lon="4.62425">
        <ele>352.71603</ele>
        <time>2023-07-04T14:27:30.000Z</time>
      </trkpt>
      <trkpt lat="45.86" lon="4.6242">
        <ele>352.84103</ele>
        <time>2023-07-04T14:27:31.000Z</time>
      </trkpt>
      <trkpt lat="45.86001" lon="4.62414">
        <ele>352.93063</ele>
        <time>2023-07-04T14:27:32.000Z</time>
      </trkpt>
      <trkpt lat="45.86001" lon="4.62409">
        <ele>352.99213</ele>
        <time>2023-07-04T14:27:33.000Z</time>
      </trkpt>
      <trkpt lat="45.86002" lon="4.62403">
        <ele>353.02826</ele>
        <time>2023-07-04T14:27:34.000Z</time>
      </trkpt>
      <trkpt lat="45.86002" lon="4.62398">
        <ele>353.05121</ele>
        <time>2023-07-04T14:27:35.000Z</time>
      </trkpt>
      <trkpt lat="45.86002" lon="4.62392">
        <ele>353.05704</ele>
        <time>2023-07-04T14:27:36.000Z</time>
      </trkpt>
      <trkpt lat="45.86003" lon="4.62386">
        <ele>353.11981</ele>
        <time>2023-07-04T14:27:37.000Z</time>
      </trkpt>
      <trkpt lat="45.86003" lon="4.62381">
        <ele>353.13675</ele>
        <time>2023-07-04T14:27:38.000Z</time>
      </trkpt>
      <trkpt lat="45.86003" lon="4.62375">
        <ele>353.15219</ele>
        <time>2023-07-04T14:27:39.000Z</time>
      </trkpt>
      <trkpt lat="45.86003" lon="4.62369">
        <ele>353.19522</ele>
        <time>2023-07-04T14:27:40.000Z</time>
      </trkpt>
      <trkpt lat="45.86003" lon="4.62363">
        <ele>353.26898</ele>
        <time>2023-07-04T14:27:41.000Z</time>
      </trkpt>
      <trkpt lat="45.86004" lon="4.62358">
        <ele>353.36896</ele>
        <time>2023-07-04T14:27:42.000Z</time>
      </trkpt>
      <trkpt lat="45.86004" lon="4.62352">
        <ele>353.50058</ele>
        <time>2023-07-04T14:27:43.000Z</time>
      </trkpt>
      <trkpt lat="45.86004" lon="4.62346">
        <ele>353.66135</ele>
        <time>2023-07-04T14:27:44.000Z</time>
      </trkpt>
      <trkpt lat="45.86004" lon="4.62341">
        <ele>353.83301</ele>
        <time>2023-07-04T14:27:45.000Z</time>
      </trkpt>
      <trkpt lat="45.86004" lon="4.62335">
        <ele>354.00998</ele>
        <time>2023-07-04T14:27:46.000Z</time>
      </trkpt>
      <trkpt lat="45.86005" lon="4.62329">
        <ele>354.1734</ele>
        <time>2023-07-04T14:27:47.000Z</time>
      </trkpt>
      <trkpt lat="45.86006" lon="4.62324">
        <ele>354.35907</ele>
        <time>2023-07-04T14:27:48.000Z</time>
      </trkpt>
      <trkpt lat="45.86006" lon="4.62318">
        <ele>354.49731</ele>
        <time>2023-07-04T14:27:49.000Z</time>
      </trkpt>
      <trkpt lat="45.86007" lon="4.62312">
        <ele>354.62613</ele>
        <time>2023-07-04T14:27:50.000Z</time>
      </trkpt>
      <trkpt lat="45.86008" lon="4.62306">
        <ele>354.73438</ele>
        <time>2023-07-04T14:27:51.000Z</time>
      </trkpt>
      <trkpt lat="45.86008" lon="4.62301">
        <ele>354.82755</ele>
        <time>2023-07-04T14:27:52.000Z</time>
      </trkpt>
      <trkpt lat="45.86008" lon="4.62296">
        <ele>354.93555</ele>
        <time>2023-07-04T14:27:53.000Z</time>
      </trkpt>
      <trkpt lat="45.86009" lon="4.62291">
        <ele>355.1525</ele>
        <time>2023-07-04T14:27:54.000Z</time>
      </trkpt>
      <trkpt lat="45.8601" lon="4.62285">
        <ele>355.3197</ele>
        <time>2023-07-04T14:27:55.000Z</time>
      </trkpt>
      <trkpt lat="45.86011" lon="4.6228">
        <ele>355.51947</ele>
        <time>2023-07-04T14:27:56.000Z</time>
      </trkpt>
      <trkpt lat="45.86012" lon="4.62274">
        <ele>355.69427</ele>
        <time>2023-07-04T14:27:57.000Z</time>
      </trkpt>
      <trkpt lat="45.86012" lon="4.62268">
        <ele>355.92535</ele>
        <time>2023-07-04T14:27:58.000Z</time>
      </trkpt>
      <trkpt lat="45.86013" lon="4.62262">
        <ele>356.13409</ele>
        <time>2023-07-04T14:27:59.000Z</time>
      </trkpt>
      <trkpt lat="45.86014" lon="4.62257">
        <ele>356.22186</ele>
        <time>2023-07-04T14:28:00.000Z</time>
      </trkpt>
      <trkpt lat="45.86015" lon="4.62253">
        <ele>356.24008</ele>
        <time>2023-07-04T14:28:01.000Z</time>
      </trkpt>
      <trkpt lat="45.86016" lon="4.62248">
        <ele>356.23724</ele>
        <time>2023-07-04T14:28:02.000Z</time>
      </trkpt>
      <trkpt lat="45.86017" lon="4.62242">
        <ele>356.23386</ele>
        <time>2023-07-04T14:28:03.000Z</time>
      </trkpt>
      <trkpt lat="45.86017" lon="4.62236">
        <ele>356.20612</ele>
        <time>2023-07-04T14:28:04.000Z</time>
      </trkpt>
      <trkpt lat="45.86018" lon="4.6223">
        <ele>356.14053</ele>
        <time>2023-07-04T14:28:05.000Z</time>
      </trkpt>
      <trkpt lat="45.86018" lon="4.62224">
        <ele>356.08716</ele>
        <time>2023-07-04T14:28:06.000Z</time>
      </trkpt>
      <trkpt lat="45.86018" lon="4.62218">
        <ele>355.99896</ele>
        <time>2023-07-04T14:28:07.000Z</time>
      </trkpt>
      <trkpt lat="45.86017" lon="4.62212">
        <ele>355.93713</ele>
        <time>2023-07-04T14:28:08.000Z</time>
      </trkpt>
      <trkpt lat="45.86017" lon="4.62205">
        <ele>355.95514</ele>
        <time>2023-07-04T14:28:09.000Z</time>
      </trkpt>
      <trkpt lat="45.86016" lon="4.62199">
        <ele>355.99048</ele>
        <time>2023-07-04T14:28:10.000Z</time>
      </trkpt>
      <trkpt lat="45.86015" lon="4.62193">
        <ele>356.01276</ele>
        <time>2023-07-04T14:28:11.000Z</time>
      </trkpt>
      <trkpt lat="45.86014" lon="4.62187">
        <ele>356.07407</ele>
        <time>2023-07-04T14:28:12.000Z</time>
      </trkpt>
      <trkpt lat="45.86013" lon="4.62181">
        <ele>356.15036</ele>
        <time>2023-07-04T14:28:13.000Z</time>
      </trkpt>
      <trkpt lat="45.86012" lon="4.62176">
        <ele>356.13928</ele>
        <time>2023-07-04T14:28:14.000Z</time>
      </trkpt>
      <trkpt lat="45.86011" lon="4.62171">
        <ele>356.12814</ele>
        <time>2023-07-04T14:28:15.000Z</time>
      </trkpt>
      <trkpt lat="45.86012" lon="4.62166">
        <ele>356.09213</ele>
        <time>2023-07-04T14:28:16.000Z</time>
      </trkpt>
      <trkpt lat="45.86014" lon="4.62164">
        <ele>356.04608</ele>
        <time>2023-07-04T14:28:17.000Z</time>
      </trkpt>
      <trkpt lat="45.86018" lon="4.62165">
        <ele>355.9877</ele>
        <time>2023-07-04T14:28:18.000Z</time>
      </trkpt>
      <trkpt lat="45.86021" lon="4.62168">
        <ele>355.97876</ele>
        <time>2023-07-04T14:28:19.000Z</time>
      </trkpt>
      <trkpt lat="45.86023" lon="4.62172">
        <ele>356.09299</ele>
        <time>2023-07-04T14:28:20.000Z</time>
      </trkpt>
      <trkpt lat="45.86026" lon="4.62175">
        <ele>356.2131</ele>
        <time>2023-07-04T14:28:21.000Z</time>
      </trkpt>
      <trkpt lat="45.86029" lon="4.62177">
        <ele>356.36993</ele>
        <time>2023-07-04T14:28:22.000Z</time>
      </trkpt>
      <trkpt lat="45.86032" lon="4.6218">
        <ele>356.52222</ele>
        <time>2023-07-04T14:28:23.000Z</time>
      </trkpt>
      <trkpt lat="45.86035" lon="4.62182">
        <ele>356.63037</ele>
        <time>2023-07-04T14:28:24.000Z</time>
      </trkpt>
      <trkpt lat="45.86038" lon="4.62185">
        <ele>356.70697</ele>
        <time>2023-07-04T14:28:25.000Z</time>
      </trkpt>
      <trkpt lat="45.8604" lon="4.62189">
        <ele>356.76068</ele>
        <time>2023-07-04T14:28:26.000Z</time>
      </trkpt>
      <trkpt lat="45.86043" lon="4.62192">
        <ele>356.87225</ele>
        <time>2023-07-04T14:28:27.000Z</time>
      </trkpt>
      <trkpt lat="45.86045" lon="4.62194">
        <ele>357.05334</ele>
        <time>2023-07-04T14:28:28.000Z</time>
      </trkpt>
      <trkpt lat="45.86048" lon="4.62197">
        <ele>357.12573</ele>
        <time>2023-07-04T14:28:29.000Z</time>
      </trkpt>
      <trkpt lat="45.86051" lon="4.62199">
        <ele>357.18365</ele>
        <time>2023-07-04T14:28:30.000Z</time>
      </trkpt>
      <trkpt lat="45.86053" lon="4.62202">
        <ele>357.26926</ele>
        <time>2023-07-04T14:28:31.000Z</time>
      </trkpt>
      <trkpt lat="45.86057" lon="4.62204">
        <ele>357.31122</ele>
        <time>2023-07-04T14:28:32.000Z</time>
      </trkpt>
      <trkpt lat="45.8606" lon="4.62208">
        <ele>357.32181</ele>
        <time>2023-07-04T14:28:33.000Z</time>
      </trkpt>
      <trkpt lat="45.86064" lon="4.62212">
        <ele>357.25104</ele>
        <time>2023-07-04T14:28:34.000Z</time>
      </trkpt>
      <trkpt lat="45.86068" lon="4.62215">
        <ele>357.20123</ele>
        <time>2023-07-04T14:28:35.000Z</time>
      </trkpt>
      <trkpt lat="45.86071" lon="4.62218">
        <ele>357.1727</ele>
        <time>2023-07-04T14:28:36.000Z</time>
      </trkpt>
      <trkpt lat="45.86075" lon="4.6222">
        <ele>357.08383</ele>
        <time>2023-07-04T14:28:37.000Z</time>
      </trkpt>
      <trkpt lat="45.86078" lon="4.62222">
        <ele>356.97479</ele>
        <time>2023-07-04T14:28:38.000Z</time>
      </trkpt>
      <trkpt lat="45.8608" lon="4.62224">
        <ele>356.88516</ele>
        <time>2023-07-04T14:28:39.000Z</time>
      </trkpt>
      <trkpt lat="45.86082" lon="4.62225">
        <ele>356.78641</ele>
        <time>2023-07-04T14:28:40.000Z</time>
      </trkpt>
      <trkpt lat="45.86084" lon="4.62227">
        <ele>356.73071</ele>
        <time>2023-07-04T14:28:41.000Z</time>
      </trkpt>
      <trkpt lat="45.86086" lon="4.62228">
        <ele>356.64771</ele>
        <time>2023-07-04T14:28:42.000Z</time>
      </trkpt>
      <trkpt lat="45.86089" lon="4.62231">
        <ele>356.9187</ele>
        <time>2023-07-04T14:28:44.000Z</time>
      </trkpt>
      <trkpt lat="45.86092" lon="4.62235">
        <ele>357.28595</ele>
        <time>2023-07-04T14:28:45.000Z</time>
      </trkpt>
      <trkpt lat="45.86094" lon="4.62238">
        <ele>357.72968</ele>
        <time>2023-07-04T14:28:46.000Z</time>
      </trkpt>
      <trkpt lat="45.86096" lon="4.6224">
        <ele>358.19638</ele>
        <time>2023-07-04T14:28:47.000Z</time>
      </trkpt>
      <trkpt lat="45.86099" lon="4.62243">
        <ele>358.66498</ele>
        <time>2023-07-04T14:28:48.000Z</time>
      </trkpt>
      <trkpt lat="45.86102" lon="4.62247">
        <ele>359.01819</ele>
        <time>2023-07-04T14:28:49.000Z</time>
      </trkpt>
      <trkpt lat="45.86105" lon="4.6225">
        <ele>359.36969</ele>
        <time>2023-07-04T14:28:50.000Z</time>
      </trkpt>
      <trkpt lat="45.86108" lon="4.62253">
        <ele>359.69748</ele>
        <time>2023-07-04T14:28:51.000Z</time>
      </trkpt>
      <trkpt lat="45.8611" lon="4.62256">
        <ele>360.02667</ele>
        <time>2023-07-04T14:28:52.000Z</time>
      </trkpt>
      <trkpt lat="45.86112" lon="4.62259">
        <ele>360.39056</ele>
        <time>2023-07-04T14:28:53.000Z</time>
      </trkpt>
      <trkpt lat="45.86114" lon="4.62262">
        <ele>360.79153</ele>
        <time>2023-07-04T14:28:54.000Z</time>
      </trkpt>
      <trkpt lat="45.86116" lon="4.62265">
        <ele>361.27164</ele>
        <time>2023-07-04T14:28:55.000Z</time>
      </trkpt>
      <trkpt lat="45.86117" lon="4.62266">
        <ele>361.78174</ele>
        <time>2023-07-04T14:28:56.000Z</time>
      </trkpt>
      <trkpt lat="45.86119" lon="4.62269">
        <ele>362.25861</ele>
        <time>2023-07-04T14:28:57.000Z</time>
      </trkpt>
      <trkpt lat="45.86122" lon="4.62272">
        <ele>362.78922</ele>
        <time>2023-07-04T14:28:58.000Z</time>
      </trkpt>
      <trkpt lat="45.86125" lon="4.62276">
        <ele>363.29181</ele>
        <time>2023-07-04T14:28:59.000Z</time>
      </trkpt>
      <trkpt lat="45.86129" lon="4.6228">
        <ele>362.51675</ele>
        <time>2023-07-04T14:29:00.000Z</time>
      </trkpt>
      <trkpt lat="45.86134" lon="4.62283">
        <ele>361.72223</ele>
        <time>2023-07-04T14:29:01.000Z</time>
      </trkpt>
      <trkpt lat="45.86138" lon="4.62287">
        <ele>360.94739</ele>
        <time>2023-07-04T14:29:02.000Z</time>
      </trkpt>
      <trkpt lat="45.86142" lon="4.6229">
        <ele>360.11798</ele>
        <time>2023-07-04T14:29:03.000Z</time>
      </trkpt>
      <trkpt lat="45.86146" lon="4.62292">
        <ele>358.92236</ele>
        <time>2023-07-04T14:29:04.000Z</time>
      </trkpt>
      <trkpt lat="45.86152" lon="4.62298">
        <ele>357.62735</ele>
        <time>2023-07-04T14:29:05.000Z</time>
      </trkpt>
      <trkpt lat="45.86158" lon="4.62303">
        <ele>356.26154</ele>
        <time>2023-07-04T14:29:06.000Z</time>
      </trkpt>
      <trkpt lat="45.86161" lon="4.62308">
        <ele>355.1225</ele>
        <time>2023-07-04T14:29:07.000Z</time>
      </trkpt>
      <trkpt lat="45.86162" lon="4.62313">
        <ele>353.93024</ele>
        <time>2023-07-04T14:29:08.000Z</time>
      </trkpt>
      <trkpt lat="45.86163" lon="4.62318">
        <ele>352.71106</ele>
        <time>2023-07-04T14:29:09.000Z</time>
      </trkpt>
      <trkpt lat="45.86161" lon="4.62323">
        <ele>351.50702</ele>
        <time>2023-07-04T14:29:10.000Z</time>
      </trkpt>
      <trkpt lat="45.86158" lon="4.62326">
        <ele>350.3566</ele>
        <time>2023-07-04T14:29:11.000Z</time>
      </trkpt>
      <trkpt lat="45.86156" lon="4.62329">
        <ele>349.15424</ele>
        <time>2023-07-04T14:29:12.000Z</time>
      </trkpt>
      <trkpt lat="45.86154" lon="4.62333">
        <ele>348.00739</ele>
        <time>2023-07-04T14:29:13.000Z</time>
      </trkpt>
      <trkpt lat="45.86151" lon="4.62337">
        <ele>346.86737</ele>
        <time>2023-07-04T14:29:14.000Z</time>
      </trkpt>
      <trkpt lat="45.86149" lon="4.62342">
        <ele>345.64078</ele>
        <time>2023-07-04T14:29:15.000Z</time>
      </trkpt>
      <trkpt lat="45.86147" lon="4.62348">
        <ele>344.40292</ele>
        <time>2023-07-04T14:29:16.000Z</time>
      </trkpt>
      <trkpt lat="45.86153" lon="4.62352">
        <ele>343.18793</ele>
        <time>2023-07-04T14:29:17.000Z</time>
      </trkpt>
      <trkpt lat="45.86157" lon="4.62356">
        <ele>342.05289</ele>
        <time>2023-07-04T14:29:18.000Z</time>
      </trkpt>
      <trkpt lat="45.86161" lon="4.62359">
        <ele>341.28729</ele>
        <time>2023-07-04T14:29:19.000Z</time>
      </trkpt>
      <trkpt lat="45.86165" lon="4.62364">
        <ele>341.73688</ele>
        <time>2023-07-04T14:29:20.000Z</time>
      </trkpt>
      <trkpt lat="45.86169" lon="4.62367">
        <ele>342.19894</ele>
        <time>2023-07-04T14:29:21.000Z</time>
      </trkpt>
      <trkpt lat="45.86174" lon="4.62371">
        <ele>342.57477</ele>
        <time>2023-07-04T14:29:22.000Z</time>
      </trkpt>
      <trkpt lat="45.86178" lon="4.62375">
        <ele>342.96933</ele>
        <time>2023-07-04T14:29:23.000Z</time>
      </trkpt>
      <trkpt lat="45.86181" lon="4.62379">
        <ele>343.37866</ele>
        <time>2023-07-04T14:29:24.000Z</time>
      </trkpt>
      <trkpt lat="45.86186" lon="4.62386">
        <ele>343.85995</ele>
        <time>2023-07-04T14:29:25.000Z</time>
      </trkpt>
      <trkpt lat="45.86191" lon="4.62392">
        <ele>344.34457</ele>
        <time>2023-07-04T14:29:26.000Z</time>
      </trkpt>
      <trkpt lat="45.86196" lon="4.62397">
        <ele>344.5755</ele>
        <time>2023-07-04T14:29:27.000Z</time>
      </trkpt>
      <trkpt lat="45.86202" lon="4.624">
        <ele>344.81</ele>
        <time>2023-07-04T14:29:28.000Z</time>
      </trkpt>
      <trkpt lat="45.86207" lon="4.62399">
        <ele>345.25876</ele>
        <time>2023-07-04T14:29:29.000Z</time>
      </trkpt>
      <trkpt lat="45.86211" lon="4.62395">
        <ele>345.6528</ele>
        <time>2023-07-04T14:29:30.000Z</time>
      </trkpt>
      <trkpt lat="45.86217" lon="4.62392">
        <ele>346.03296</ele>
        <time>2023-07-04T14:29:31.000Z</time>
      </trkpt>
      <trkpt lat="45.86218" lon="4.62387">
        <ele>346.42059</ele>
        <time>2023-07-04T14:29:32.000Z</time>
      </trkpt>
      <trkpt lat="45.86219" lon="4.62383">
        <ele>346.7981</ele>
        <time>2023-07-04T14:29:33.000Z</time>
      </trkpt>
      <trkpt lat="45.86221" lon="4.62377">
        <ele>347.14459</ele>
        <time>2023-07-04T14:29:34.000Z</time>
      </trkpt>
      <trkpt lat="45.86223" lon="4.62372">
        <ele>347.53009</ele>
        <time>2023-07-04T14:29:35.000Z</time>
      </trkpt>
      <trkpt lat="45.86225" lon="4.62367">
        <ele>347.84293</ele>
        <time>2023-07-04T14:29:36.000Z</time>
      </trkpt>
      <trkpt lat="45.86228" lon="4.62362">
        <ele>348.29062</ele>
        <time>2023-07-04T14:29:37.000Z</time>
      </trkpt>
      <trkpt lat="45.86229" lon="4.62358">
        <ele>348.61899</ele>
        <time>2023-07-04T14:29:38.000Z</time>
      </trkpt>
      <trkpt lat="45.8623" lon="4.62354">
        <ele>348.63782</ele>
        <time>2023-07-04T14:29:39.000Z</time>
      </trkpt>
      <trkpt lat="45.86231" lon="4.6235">
        <ele>348.6503</ele>
        <time>2023-07-04T14:29:40.000Z</time>
      </trkpt>
      <trkpt lat="45.86232" lon="4.62345">
        <ele>348.67218</ele>
        <time>2023-07-04T14:29:41.000Z</time>
      </trkpt>
      <trkpt lat="45.86233" lon="4.62342">
        <ele>348.75385</ele>
        <time>2023-07-04T14:29:42.000Z</time>
      </trkpt>
      <trkpt lat="45.86234" lon="4.62339">
        <ele>348.84576</ele>
        <time>2023-07-04T14:29:43.000Z</time>
      </trkpt>
      <trkpt lat="45.86236" lon="4.62335">
        <ele>348.93805</ele>
        <time>2023-07-04T14:29:44.000Z</time>
      </trkpt>
      <trkpt lat="45.86237" lon="4.62333">
        <ele>348.99084</ele>
        <time>2023-07-04T14:29:45.000Z</time>
      </trkpt>
      <trkpt lat="45.86239" lon="4.62329">
        <ele>349.14636</ele>
        <time>2023-07-04T14:29:46.000Z</time>
      </trkpt>
      <trkpt lat="45.86241" lon="4.62325">
        <ele>349.32108</ele>
        <time>2023-07-04T14:29:47.000Z</time>
      </trkpt>
      <trkpt lat="45.86242" lon="4.62321">
        <ele>349.57407</ele>
        <time>2023-07-04T14:29:48.000Z</time>
      </trkpt>
      <trkpt lat="45.86244" lon="4.62317">
        <ele>349.59088</ele>
        <time>2023-07-04T14:29:49.000Z</time>
      </trkpt>
      <trkpt lat="45.86246" lon="4.62313">
        <ele>349.61862</ele>
        <time>2023-07-04T14:29:50.000Z</time>
      </trkpt>
      <trkpt lat="45.86247" lon="4.62309">
        <ele>349.84561</ele>
        <time>2023-07-04T14:29:51.000Z</time>
      </trkpt>
      <trkpt lat="45.86248" lon="4.62305">
        <ele>350.06705</ele>
        <time>2023-07-04T14:29:52.000Z</time>
      </trkpt>
      <trkpt lat="45.8625" lon="4.62301">
        <ele>350.23718</ele>
        <time>2023-07-04T14:29:53.000Z</time>
      </trkpt>
      <trkpt lat="45.86251" lon="4.62296">
        <ele>350.43399</ele>
        <time>2023-07-04T14:29:54.000Z</time>
      </trkpt>
      <trkpt lat="45.86253" lon="4.62292">
        <ele>350.69131</ele>
        <time>2023-07-04T14:29:55.000Z</time>
      </trkpt>
      <trkpt lat="45.86255" lon="4.62288">
        <ele>351.0173</ele>
        <time>2023-07-04T14:29:56.000Z</time>
      </trkpt>
      <trkpt lat="45.86257" lon="4.62283">
        <ele>351.21188</ele>
        <time>2023-07-04T14:29:57.000Z</time>
      </trkpt>
      <trkpt lat="45.86259" lon="4.62279">
        <ele>351.4606</ele>
        <time>2023-07-04T14:29:58.000Z</time>
      </trkpt>
      <trkpt lat="45.86261" lon="4.62276">
        <ele>351.66867</ele>
        <time>2023-07-04T14:29:59.000Z</time>
      </trkpt>
      <trkpt lat="45.86264" lon="4.62272">
        <ele>351.89203</ele>
        <time>2023-07-04T14:30:00.000Z</time>
      </trkpt>
      <trkpt lat="45.86266" lon="4.62268">
        <ele>352.11154</ele>
        <time>2023-07-04T14:30:01.000Z</time>
      </trkpt>
      <trkpt lat="45.86268" lon="4.62264">
        <ele>352.32428</ele>
        <time>2023-07-04T14:30:02.000Z</time>
      </trkpt>
      <trkpt lat="45.86271" lon="4.6226">
        <ele>352.55133</ele>
        <time>2023-07-04T14:30:03.000Z</time>
      </trkpt>
      <trkpt lat="45.86273" lon="4.62256">
        <ele>352.76746</ele>
        <time>2023-07-04T14:30:04.000Z</time>
      </trkpt>
      <trkpt lat="45.86275" lon="4.62253">
        <ele>353.54559</ele>
        <time>2023-07-04T14:30:05.000Z</time>
      </trkpt>
      <trkpt lat="45.86277" lon="4.62249">
        <ele>354.28577</ele>
        <time>2023-07-04T14:30:06.000Z</time>
      </trkpt>
      <trkpt lat="45.8628" lon="4.62245">
        <ele>355.00861</ele>
        <time>2023-07-04T14:30:07.000Z</time>
      </trkpt>
      <trkpt lat="45.86282" lon="4.62241">
        <ele>355.67813</ele>
        <time>2023-07-04T14:30:08.000Z</time>
      </trkpt>
      <trkpt lat="45.86284" lon="4.62236">
        <ele>356.41388</ele>
        <time>2023-07-04T14:30:09.000Z</time>
      </trkpt>
      <trkpt lat="45.86285" lon="4.62232">
        <ele>357.21075</ele>
        <time>2023-07-04T14:30:10.000Z</time>
      </trkpt>
      <trkpt lat="45.86286" lon="4.62227">
        <ele>357.78354</ele>
        <time>2023-07-04T14:30:11.000Z</time>
      </trkpt>
      <trkpt lat="45.86287" lon="4.62222">
        <ele>358.38983</ele>
        <time>2023-07-04T14:30:12.000Z</time>
      </trkpt>
      <trkpt lat="45.86286" lon="4.62217">
        <ele>359.00751</ele>
        <time>2023-07-04T14:30:13.000Z</time>
      </trkpt>
      <trkpt lat="45.86284" lon="4.62213">
        <ele>359.61502</ele>
        <time>2023-07-04T14:30:14.000Z</time>
      </trkpt>
      <trkpt lat="45.86282" lon="4.62209">
        <ele>360.23016</ele>
        <time>2023-07-04T14:30:15.000Z</time>
      </trkpt>
      <trkpt lat="45.86278" lon="4.62206">
        <ele>360.84689</ele>
        <time>2023-07-04T14:30:16.000Z</time>
      </trkpt>
      <trkpt lat="45.86275" lon="4.62203">
        <ele>361.4595</ele>
        <time>2023-07-04T14:30:17.000Z</time>
      </trkpt>
      <trkpt lat="45.86272" lon="4.622">
        <ele>362.0621</ele>
        <time>2023-07-04T14:30:18.000Z</time>
      </trkpt>
      <trkpt lat="45.86269" lon="4.62198">
        <ele>362.69064</ele>
        <time>2023-07-04T14:30:19.000Z</time>
      </trkpt>
      <trkpt lat="45.86266" lon="4.62195">
        <ele>363.3222</ele>
        <time>2023-07-04T14:30:20.000Z</time>
      </trkpt>
      <trkpt lat="45.86263" lon="4.62192">
        <ele>363.96158</ele>
        <time>2023-07-04T14:30:21.000Z</time>
      </trkpt>
      <trkpt lat="45.8626" lon="4.62189">
        <ele>364.61322</ele>
        <time>2023-07-04T14:30:22.000Z</time>
      </trkpt>
      <trkpt lat="45.86257" lon="4.62186">
        <ele>365.27502</ele>
        <time>2023-07-04T14:30:23.000Z</time>
      </trkpt>
      <trkpt lat="45.86254" lon="4.62183">
        <ele>365.9606</ele>
        <time>2023-07-04T14:30:24.000Z</time>
      </trkpt>
      <trkpt lat="45.86251" lon="4.6218">
        <ele>366.10605</ele>
        <time>2023-07-04T14:30:25.000Z</time>
      </trkpt>
      <trkpt lat="45.86248" lon="4.62177">
        <ele>366.21826</ele>
        <time>2023-07-04T14:30:26.000Z</time>
      </trkpt>
      <trkpt lat="45.86245" lon="4.62173">
        <ele>366.34555</ele>
        <time>2023-07-04T14:30:27.000Z</time>
      </trkpt>
      <trkpt lat="45.86242" lon="4.6217">
        <ele>366.50311</ele>
        <time>2023-07-04T14:30:28.000Z</time>
      </trkpt>
      <trkpt lat="45.86239" lon="4.62167">
        <ele>366.63638</ele>
        <time>2023-07-04T14:30:29.000Z</time>
      </trkpt>
      <trkpt lat="45.86236" lon="4.62164">
        <ele>366.76031</ele>
        <time>2023-07-04T14:30:30.000Z</time>
      </trkpt>
      <trkpt lat="45.86233" lon="4.62161">
        <ele>366.90265</ele>
        <time>2023-07-04T14:30:31.000Z</time>
      </trkpt>
      <trkpt lat="45.8623" lon="4.62158">
        <ele>367.03912</ele>
        <time>2023-07-04T14:30:32.000Z</time>
      </trkpt>
      <trkpt lat="45.86228" lon="4.62154">
        <ele>367.16171</ele>
        <time>2023-07-04T14:30:33.000Z</time>
      </trkpt>
      <trkpt lat="45.86226" lon="4.6215">
        <ele>367.26114</ele>
        <time>2023-07-04T14:30:34.000Z</time>
      </trkpt>
      <trkpt lat="45.86225" lon="4.62146">
        <ele>367.38202</ele>
        <time>2023-07-04T14:30:35.000Z</time>
      </trkpt>
      <trkpt lat="45.86226" lon="4.62142">
        <ele>367.5296</ele>
        <time>2023-07-04T14:30:36.000Z</time>
      </trkpt>
      <trkpt lat="45.86227" lon="4.62139">
        <ele>367.67926</ele>
        <time>2023-07-04T14:30:37.000Z</time>
      </trkpt>
      <trkpt lat="45.8623" lon="4.62137">
        <ele>367.84384</ele>
        <time>2023-07-04T14:30:38.000Z</time>
      </trkpt>
      <trkpt lat="45.86234" lon="4.62135">
        <ele>368.03778</ele>
        <time>2023-07-04T14:30:39.000Z</time>
      </trkpt>
      <trkpt lat="45.86238" lon="4.62133">
        <ele>368.21616</ele>
        <time>2023-07-04T14:30:40.000Z</time>
      </trkpt>
      <trkpt lat="45.86242" lon="4.62132">
        <ele>368.39447</ele>
        <time>2023-07-04T14:30:41.000Z</time>
      </trkpt>
      <trkpt lat="45.86245" lon="4.62131">
        <ele>368.54391</ele>
        <time>2023-07-04T14:30:42.000Z</time>
      </trkpt>
      <trkpt lat="45.86248" lon="4.6213">
        <ele>368.69672</ele>
        <time>2023-07-04T14:30:43.000Z</time>
      </trkpt>
      <trkpt lat="45.86252" lon="4.62129">
        <ele>368.79901</ele>
        <time>2023-07-04T14:30:44.000Z</time>
      </trkpt>
      <trkpt lat="45.86255" lon="4.62128">
        <ele>368.91037</ele>
        <time>2023-07-04T14:30:45.000Z</time>
      </trkpt>
      <trkpt lat="45.86259" lon="4.62127">
        <ele>369.04776</ele>
        <time>2023-07-04T14:30:46.000Z</time>
      </trkpt>
      <trkpt lat="45.86262" lon="4.62126">
        <ele>369.17139</ele>
        <time>2023-07-04T14:30:47.000Z</time>
      </trkpt>
      <trkpt lat="45.86266" lon="4.62126">
        <ele>369.26627</ele>
        <time>2023-07-04T14:30:48.000Z</time>
      </trkpt>
      <trkpt lat="45.86269" lon="4.62125">
        <ele>369.40289</ele>
        <time>2023-07-04T14:30:49.000Z</time>
      </trkpt>
      <trkpt lat="45.86272" lon="4.62124">
        <ele>369.54047</ele>
        <time>2023-07-04T14:30:50.000Z</time>
      </trkpt>
      <trkpt lat="45.86276" lon="4.62124">
        <ele>369.67667</ele>
        <time>2023-07-04T14:30:51.000Z</time>
      </trkpt>
      <trkpt lat="45.8628" lon="4.62123">
        <ele>369.80167</ele>
        <time>2023-07-04T14:30:52.000Z</time>
      </trkpt>
      <trkpt lat="45.86283" lon="4.62122">
        <ele>369.88519</ele>
        <time>2023-07-04T14:30:53.000Z</time>
      </trkpt>
      <trkpt lat="45.86287" lon="4.62121">
        <ele>370.02887</ele>
        <time>2023-07-04T14:30:54.000Z</time>
      </trkpt>
      <trkpt lat="45.8629" lon="4.6212">
        <ele>370.17908</ele>
        <time>2023-07-04T14:30:55.000Z</time>
      </trkpt>
      <trkpt lat="45.86294" lon="4.62119">
        <ele>370.35703</ele>
        <time>2023-07-04T14:30:56.000Z</time>
      </trkpt>
      <trkpt lat="45.86297" lon="4.62119">
        <ele>370.44293</ele>
        <time>2023-07-04T14:30:57.000Z</time>
      </trkpt>
      <trkpt lat="45.86301" lon="4.62118">
        <ele>370.53787</ele>
        <time>2023-07-04T14:30:58.000Z</time>
      </trkpt>
      <trkpt lat="45.86305" lon="4.62118">
        <ele>370.61099</ele>
        <time>2023-07-04T14:30:59.000Z</time>
      </trkpt>
      <trkpt lat="45.86309" lon="4.62118">
        <ele>370.68097</ele>
        <time>2023-07-04T14:31:00.000Z</time>
      </trkpt>
      <trkpt lat="45.86313" lon="4.62117">
        <ele>370.72253</ele>
        <time>2023-07-04T14:31:01.000Z</time>
      </trkpt>
      <trkpt lat="45.86317" lon="4.62115">
        <ele>370.79141</ele>
        <time>2023-07-04T14:31:02.000Z</time>
      </trkpt>
      <trkpt lat="45.86322" lon="4.62114">
        <ele>370.86493</ele>
        <time>2023-07-04T14:31:03.000Z</time>
      </trkpt>
      <trkpt lat="45.86326" lon="4.62112">
        <ele>370.97552</ele>
        <time>2023-07-04T14:31:04.000Z</time>
      </trkpt>
      <trkpt lat="45.86329" lon="4.6211">
        <ele>371.05896</ele>
        <time>2023-07-04T14:31:05.000Z</time>
      </trkpt>
      <trkpt lat="45.86333" lon="4.62108">
        <ele>371.15384</ele>
        <time>2023-07-04T14:31:06.000Z</time>
      </trkpt>
      <trkpt lat="45.86336" lon="4.62107">
        <ele>371.27924</ele>
        <time>2023-07-04T14:31:07.000Z</time>
      </trkpt>
      <trkpt lat="45.8634" lon="4.62104">
        <ele>371.40298</ele>
        <time>2023-07-04T14:31:08.000Z</time>
      </trkpt>
      <trkpt lat="45.86343" lon="4.62102">
        <ele>371.50909</ele>
        <time>2023-07-04T14:31:09.000Z</time>
      </trkpt>
      <trkpt lat="45.86345" lon="4.621">
        <ele>371.58502</ele>
        <time>2023-07-04T14:31:10.000Z</time>
      </trkpt>
      <trkpt lat="45.86347" lon="4.62098">
        <ele>371.68317</ele>
        <time>2023-07-04T14:31:11.000Z</time>
      </trkpt>
      <trkpt lat="45.8635" lon="4.62096">
        <ele>371.78946</ele>
        <time>2023-07-04T14:31:12.000Z</time>
      </trkpt>
      <trkpt lat="45.86352" lon="4.62095">
        <ele>371.9787</ele>
        <time>2023-07-04T14:31:13.000Z</time>
      </trkpt>
      <trkpt lat="45.86354" lon="4.62093">
        <ele>372.1423</ele>
        <time>2023-07-04T14:31:14.000Z</time>
      </trkpt>
      <trkpt lat="45.86356" lon="4.62092">
        <ele>372.26825</ele>
        <time>2023-07-04T14:31:15.000Z</time>
      </trkpt>
      <trkpt lat="45.86358" lon="4.6209">
        <ele>372.35406</ele>
        <time>2023-07-04T14:31:16.000Z</time>
      </trkpt>
      <trkpt lat="45.8636" lon="4.6209">
        <ele>372.54584</ele>
        <time>2023-07-04T14:31:19.000Z</time>
      </trkpt>
      <trkpt lat="45.86363" lon="4.62088">
        <ele>372.64166</ele>
        <time>2023-07-04T14:34:31.000Z</time>
      </trkpt>
      <trkpt lat="45.86364" lon="4.62087">
        <ele>372.74393</ele>
        <time>2023-07-04T14:34:32.000Z</time>
      </trkpt>
      <trkpt lat="45.86367" lon="4.62086">
        <ele>372.86987</ele>
        <time>2023-07-04T14:34:33.000Z</time>
      </trkpt>
      <trkpt lat="45.86369" lon="4.62085">
        <ele>373.03384</ele>
        <time>2023-07-04T14:34:34.000Z</time>
      </trkpt>
      <trkpt lat="45.86371" lon="4.62084">
        <ele>373.19113</ele>
        <time>2023-07-04T14:34:35.000Z</time>
      </trkpt>
      <trkpt lat="45.86373" lon="4.62082">
        <ele>373.31711</ele>
        <time>2023-07-04T14:34:36.000Z</time>
      </trkpt>
      <trkpt lat="45.86375" lon="4.6208">
        <ele>373.34726</ele>
        <time>2023-07-04T14:34:37.000Z</time>
      </trkpt>
      <trkpt lat="45.86376" lon="4.62078">
        <ele>373.37796</ele>
        <time>2023-07-04T14:34:38.000Z</time>
      </trkpt>
      <trkpt lat="45.86378" lon="4.62075">
        <ele>373.39191</ele>
        <time>2023-07-04T14:34:39.000Z</time>
      </trkpt>
      <trkpt lat="45.8638" lon="4.62073">
        <ele>373.39038</ele>
        <time>2023-07-04T14:34:40.000Z</time>
      </trkpt>
      <trkpt lat="45.86383" lon="4.62071">
        <ele>373.41501</ele>
        <time>2023-07-04T14:34:41.000Z</time>
      </trkpt>
      <trkpt lat="45.86386" lon="4.6207">
        <ele>373.45929</ele>
        <time>2023-07-04T14:34:42.000Z</time>
      </trkpt>
      <trkpt lat="45.86388" lon="4.62068">
        <ele>373.53607</ele>
        <time>2023-07-04T14:34:43.000Z</time>
      </trkpt>
      <trkpt lat="45.86389" lon="4.62066">
        <ele>373.54413</ele>
        <time>2023-07-04T14:34:44.000Z</time>
      </trkpt>
      <trkpt lat="45.86392" lon="4.62062">
        <ele>373.52307</ele>
        <time>2023-07-04T14:34:46.000Z</time>
      </trkpt>
      <trkpt lat="45.86394" lon="4.6206">
        <ele>373.4678</ele>
        <time>2023-07-04T14:34:47.000Z</time>
      </trkpt>
      <trkpt lat="45.86396" lon="4.62058">
        <ele>373.41431</ele>
        <time>2023-07-04T14:34:48.000Z</time>
      </trkpt>
      <trkpt lat="45.86398" lon="4.62057">
        <ele>373.36215</ele>
        <time>2023-07-04T14:34:49.000Z</time>
      </trkpt>
      <trkpt lat="45.864" lon="4.62056">
        <ele>373.36118</ele>
        <time>2023-07-04T14:34:50.000Z</time>
      </trkpt>
      <trkpt lat="45.86403" lon="4.62054">
        <ele>373.35132</ele>
        <time>2023-07-04T14:34:51.000Z</time>
      </trkpt>
      <trkpt lat="45.86405" lon="4.62054">
        <ele>373.41193</ele>
        <time>2023-07-04T14:34:52.000Z</time>
      </trkpt>
      <trkpt lat="45.86408" lon="4.62054">
        <ele>373.44391</ele>
        <time>2023-07-04T14:34:53.000Z</time>
      </trkpt>
      <trkpt lat="45.86409" lon="4.62055">
        <ele>373.48312</ele>
        <time>2023-07-04T14:34:54.000Z</time>
      </trkpt>
      <trkpt lat="45.86411" lon="4.62055">
        <ele>373.504</ele>
        <time>2023-07-04T14:34:55.000Z</time>
      </trkpt>
      <trkpt lat="45.86414" lon="4.62056">
        <ele>373.5105</ele>
        <time>2023-07-04T14:34:56.000Z</time>
      </trkpt>
      <trkpt lat="45.86417" lon="4.62055">
        <ele>373.45599</ele>
        <time>2023-07-04T14:34:57.000Z</time>
      </trkpt>
      <trkpt lat="45.86419" lon="4.62054">
        <ele>373.48541</ele>
        <time>2023-07-04T14:34:58.000Z</time>
      </trkpt>
      <trkpt lat="45.86421" lon="4.62051">
        <ele>373.53052</ele>
        <time>2023-07-04T14:34:59.000Z</time>
      </trkpt>
      <trkpt lat="45.8642" lon="4.62047">
        <ele>373.56363</ele>
        <time>2023-07-04T14:35:01.000Z</time>
      </trkpt>
      <trkpt lat="45.86417" lon="4.62048">
        <ele>373.59036</ele>
        <time>2023-07-04T14:35:03.000Z</time>
      </trkpt>
      <trkpt lat="45.86415" lon="4.62051">
        <ele>373.59283</ele>
        <time>2023-07-04T14:35:05.000Z</time>
      </trkpt>
      <trkpt lat="45.86412" lon="4.6205">
        <ele>373.57587</ele>
        <time>2023-07-04T14:35:07.000Z</time>
      </trkpt>
      <trkpt lat="45.86411" lon="4.62047">
        <ele>373.52719</ele>
        <time>2023-07-04T14:35:09.000Z</time>
      </trkpt>
      <trkpt lat="45.8641" lon="4.62044">
        <ele>373.51093</ele>
        <time>2023-07-04T14:35:10.000Z</time>
      </trkpt>
      <trkpt lat="45.86408" lon="4.62041">
        <ele>373.45587</ele>
        <time>2023-07-04T14:35:11.000Z</time>
      </trkpt>
      <trkpt lat="45.86406" lon="4.62039">
        <ele>373.4007</ele>
        <time>2023-07-04T14:35:12.000Z</time>
      </trkpt>
      <trkpt lat="45.86404" lon="4.62037">
        <ele>373.37476</ele>
        <time>2023-07-04T14:35:13.000Z</time>
      </trkpt>
      <trkpt lat="45.86401" lon="4.62036">
        <ele>373.35785</ele>
        <time>2023-07-04T14:35:14.000Z</time>
      </trkpt>
      <trkpt lat="45.86399" lon="4.62035">
        <ele>373.27652</ele>
        <time>2023-07-04T14:35:15.000Z</time>
      </trkpt>
      <trkpt lat="45.86397" lon="4.62033">
        <ele>373.20053</ele>
        <time>2023-07-04T14:35:16.000Z</time>
      </trkpt>
      <trkpt lat="45.86395" lon="4.62032">
        <ele>373.1199</ele>
        <time>2023-07-04T14:35:17.000Z</time>
      </trkpt>
      <trkpt lat="45.86391" lon="4.6203">
        <ele>373.07892</ele>
        <time>2023-07-04T14:35:19.000Z</time>
      </trkpt>
      <trkpt lat="45.86389" lon="4.62029">
        <ele>373.04779</ele>
        <time>2023-07-04T14:35:20.000Z</time>
      </trkpt>
      <trkpt lat="45.86386" lon="4.62027">
        <ele>373.02106</ele>
        <time>2023-07-04T14:35:21.000Z</time>
      </trkpt>
      <trkpt lat="45.86384" lon="4.62026">
        <ele>372.99609</ele>
        <time>2023-07-04T14:35:22.000Z</time>
      </trkpt>
      <trkpt lat="45.86382" lon="4.62025">
        <ele>373.04517</ele>
        <time>2023-07-04T14:35:23.000Z</time>
      </trkpt>
      <trkpt lat="45.86381" lon="4.62023">
        <ele>373.08215</ele>
        <time>2023-07-04T14:35:24.000Z</time>
      </trkpt>
      <trkpt lat="45.86379" lon="4.62022">
        <ele>373.13599</ele>
        <time>2023-07-04T14:35:25.000Z</time>
      </trkpt>
      <trkpt lat="45.86377" lon="4.62021">
        <ele>373.19226</ele>
        <time>2023-07-04T14:35:26.000Z</time>
      </trkpt>
      <trkpt lat="45.86374" lon="4.6202">
        <ele>373.24188</ele>
        <time>2023-07-04T14:35:27.000Z</time>
      </trkpt>
      <trkpt lat="45.86372" lon="4.62019">
        <ele>373.27039</ele>
        <time>2023-07-04T14:35:28.000Z</time>
      </trkpt>
      <trkpt lat="45.86369" lon="4.62018">
        <ele>373.27176</ele>
        <time>2023-07-04T14:35:29.000Z</time>
      </trkpt>
      <trkpt lat="45.86367" lon="4.62016">
        <ele>373.31073</ele>
        <time>2023-07-04T14:35:30.000Z</time>
      </trkpt>
      <trkpt lat="45.86365" lon="4.62015">
        <ele>373.32953</ele>
        <time>2023-07-04T14:35:31.000Z</time>
      </trkpt>
      <trkpt lat="45.86362" lon="4.62014">
        <ele>373.41937</ele>
        <time>2023-07-04T14:35:32.000Z</time>
      </trkpt>
      <trkpt lat="45.86359" lon="4.62012">
        <ele>373.50439</ele>
        <time>2023-07-04T14:35:33.000Z</time>
      </trkpt>
      <trkpt lat="45.86356" lon="4.6201">
        <ele>373.56192</ele>
        <time>2023-07-04T14:35:34.000Z</time>
      </trkpt>
      <trkpt lat="45.86354" lon="4.62008">
        <ele>373.61877</ele>
        <time>2023-07-04T14:35:35.000Z</time>
      </trkpt>
      <trkpt lat="45.86352" lon="4.62005">
        <ele>373.70343</ele>
        <time>2023-07-04T14:35:36.000Z</time>
      </trkpt>
      <trkpt lat="45.8635" lon="4.62003">
        <ele>373.7724</ele>
        <time>2023-07-04T14:35:37.000Z</time>
      </trkpt>
      <trkpt lat="45.86349" lon="4.62">
        <ele>373.83905</ele>
        <time>2023-07-04T14:35:38.000Z</time>
      </trkpt>
      <trkpt lat="45.86347" lon="4.61996">
        <ele>373.85623</ele>
        <time>2023-07-04T14:35:39.000Z</time>
      </trkpt>
      <trkpt lat="45.86345" lon="4.61992">
        <ele>373.82587</ele>
        <time>2023-07-04T14:35:40.000Z</time>
      </trkpt>
      <trkpt lat="45.86344" lon="4.61989">
        <ele>373.77679</ele>
        <time>2023-07-04T14:35:41.000Z</time>
      </trkpt>
      <trkpt lat="45.86342" lon="4.61985">
        <ele>373.76984</ele>
        <time>2023-07-04T14:35:42.000Z</time>
      </trkpt>
      <trkpt lat="45.86341" lon="4.61981">
        <ele>373.69794</ele>
        <time>2023-07-04T14:35:43.000Z</time>
      </trkpt>
      <trkpt lat="45.86339" lon="4.61977">
        <ele>373.64377</ele>
        <time>2023-07-04T14:35:44.000Z</time>
      </trkpt>
      <trkpt lat="45.86338" lon="4.61974">
        <ele>373.55344</ele>
        <time>2023-07-04T14:35:45.000Z</time>
      </trkpt>
      <trkpt lat="45.86336" lon="4.61971">
        <ele>373.48199</ele>
        <time>2023-07-04T14:35:46.000Z</time>
      </trkpt>
      <trkpt lat="45.86333" lon="4.61967">
        <ele>373.40558</ele>
        <time>2023-07-04T14:35:47.000Z</time>
      </trkpt>
      <trkpt lat="45.86331" lon="4.61963">
        <ele>373.35977</ele>
        <time>2023-07-04T14:35:48.000Z</time>
      </trkpt>
      <trkpt lat="45.86328" lon="4.61959">
        <ele>373.3671</ele>
        <time>2023-07-04T14:35:49.000Z</time>
      </trkpt>
      <trkpt lat="45.86325" lon="4.61955">
        <ele>373.37164</ele>
        <time>2023-07-04T14:35:50.000Z</time>
      </trkpt>
      <trkpt lat="45.86323" lon="4.6195">
        <ele>373.40799</ele>
        <time>2023-07-04T14:35:51.000Z</time>
      </trkpt>
      <trkpt lat="45.86321" lon="4.61946">
        <ele>373.45398</ele>
        <time>2023-07-04T14:35:52.000Z</time>
      </trkpt>
      <trkpt lat="45.86319" lon="4.61942">
        <ele>373.51123</ele>
        <time>2023-07-04T14:35:53.000Z</time>
      </trkpt>
      <trkpt lat="45.86317" lon="4.61938">
        <ele>373.57495</ele>
        <time>2023-07-04T14:35:54.000Z</time>
      </trkpt>
      <trkpt lat="45.86316" lon="4.61934">
        <ele>373.58823</ele>
        <time>2023-07-04T14:35:55.000Z</time>
      </trkpt>
      <trkpt lat="45.86315" lon="4.6193">
        <ele>372.64838</ele>
        <time>2023-07-04T14:35:56.000Z</time>
      </trkpt>
      <trkpt lat="45.86314" lon="4.61926">
        <ele>371.73154</ele>
        <time>2023-07-04T14:35:57.000Z</time>
      </trkpt>
      <trkpt lat="45.86312" lon="4.61922">
        <ele>370.8465</ele>
        <time>2023-07-04T14:35:58.000Z</time>
      </trkpt>
      <trkpt lat="45.8631" lon="4.61918">
        <ele>369.9942</ele>
        <time>2023-07-04T14:35:59.000Z</time>
      </trkpt>
      <trkpt lat="45.86309" lon="4.61914">
        <ele>369.23773</ele>
        <time>2023-07-04T14:36:00.000Z</time>
      </trkpt>
      <trkpt lat="45.86308" lon="4.6191">
        <ele>368.48602</ele>
        <time>2023-07-04T14:36:01.000Z</time>
      </trkpt>
      <trkpt lat="45.86306" lon="4.61907">
        <ele>367.64365</ele>
        <time>2023-07-04T14:36:02.000Z</time>
      </trkpt>
      <trkpt lat="45.86305" lon="4.61903">
        <ele>366.85303</ele>
        <time>2023-07-04T14:36:03.000Z</time>
      </trkpt>
      <trkpt lat="45.86303" lon="4.619">
        <ele>366.07437</ele>
        <time>2023-07-04T14:36:04.000Z</time>
      </trkpt>
      <trkpt lat="45.863" lon="4.61896">
        <ele>365.31015</ele>
        <time>2023-07-04T14:36:05.000Z</time>
      </trkpt>
      <trkpt lat="45.86298" lon="4.61893">
        <ele>364.53726</ele>
        <time>2023-07-04T14:36:06.000Z</time>
      </trkpt>
      <trkpt lat="45.86296" lon="4.6189">
        <ele>363.76114</ele>
        <time>2023-07-04T14:36:07.000Z</time>
      </trkpt>
      <trkpt lat="45.86295" lon="4.61887">
        <ele>362.90149</ele>
        <time>2023-07-04T14:36:08.000Z</time>
      </trkpt>
      <trkpt lat="45.86296" lon="4.61882">
        <ele>361.86441</ele>
        <time>2023-07-04T14:36:10.000Z</time>
      </trkpt>
      <trkpt lat="45.86296" lon="4.61879">
        <ele>360.7565</ele>
        <time>2023-07-04T14:36:11.000Z</time>
      </trkpt>
      <trkpt lat="45.86297" lon="4.61876">
        <ele>359.65054</ele>
        <time>2023-07-04T14:36:13.000Z</time>
      </trkpt>
      <trkpt lat="45.86298" lon="4.61872">
        <ele>358.54523</ele>
        <time>2023-07-04T14:36:15.000Z</time>
      </trkpt>
      <trkpt lat="45.86299" lon="4.61869">
        <ele>357.43222</ele>
        <time>2023-07-04T14:36:16.000Z</time>
      </trkpt>
      <trkpt lat="45.863" lon="4.61867">
        <ele>356.13922</ele>
        <time>2023-07-04T14:36:17.000Z</time>
      </trkpt>
      <trkpt lat="45.86301" lon="4.61864">
        <ele>354.8652</ele>
        <time>2023-07-04T14:36:18.000Z</time>
      </trkpt>
      <trkpt lat="45.86302" lon="4.61861">
        <ele>354.88284</ele>
        <time>2023-07-04T14:36:19.000Z</time>
      </trkpt>
      <trkpt lat="45.86303" lon="4.61857">
        <ele>354.82788</ele>
        <time>2023-07-04T14:36:20.000Z</time>
      </trkpt>
      <trkpt lat="45.86304" lon="4.61853">
        <ele>354.77264</ele>
        <time>2023-07-04T14:36:21.000Z</time>
      </trkpt>
      <trkpt lat="45.86305" lon="4.61849">
        <ele>354.73978</ele>
        <time>2023-07-04T14:36:22.000Z</time>
      </trkpt>
      <trkpt lat="45.86306" lon="4.61846">
        <ele>354.51706</ele>
        <time>2023-07-04T14:36:23.000Z</time>
      </trkpt>
      <trkpt lat="45.86307" lon="4.61842">
        <ele>354.91534</ele>
        <time>2023-07-04T14:36:24.000Z</time>
      </trkpt>
      <trkpt lat="45.86309" lon="4.61838">
        <ele>355.55627</ele>
        <time>2023-07-04T14:36:25.000Z</time>
      </trkpt>
      <trkpt lat="45.8631" lon="4.61833">
        <ele>356.30121</ele>
        <time>2023-07-04T14:36:26.000Z</time>
      </trkpt>
      <trkpt lat="45.86312" lon="4.61829">
        <ele>357.02344</ele>
        <time>2023-07-04T14:36:27.000Z</time>
      </trkpt>
      <trkpt lat="45.86314" lon="4.61826">
        <ele>357.741</ele>
        <time>2023-07-04T14:36:28.000Z</time>
      </trkpt>
      <trkpt lat="45.86316" lon="4.61822">
        <ele>358.43121</ele>
        <time>2023-07-04T14:36:29.000Z</time>
      </trkpt>
      <trkpt lat="45.86318" lon="4.61818">
        <ele>359.12695</ele>
        <time>2023-07-04T14:36:30.000Z</time>
      </trkpt>
      <trkpt lat="45.86319" lon="4.61815">
        <ele>359.927</ele>
        <time>2023-07-04T14:36:31.000Z</time>
      </trkpt>
      <trkpt lat="45.86321" lon="4.61813">
        <ele>360.89063</ele>
        <time>2023-07-04T14:36:32.000Z</time>
      </trkpt>
      <trkpt lat="45.86322" lon="4.61809">
        <ele>361.95755</ele>
        <time>2023-07-04T14:36:33.000Z</time>
      </trkpt>
      <trkpt lat="45.86322" lon="4.61805">
        <ele>363.00122</ele>
        <time>2023-07-04T14:36:34.000Z</time>
      </trkpt>
      <trkpt lat="45.86322" lon="4.618">
        <ele>362.85455</ele>
        <time>2023-07-04T14:36:35.000Z</time>
      </trkpt>
      <trkpt lat="45.8632" lon="4.61797">
        <ele>362.80334</ele>
        <time>2023-07-04T14:36:36.000Z</time>
      </trkpt>
      <trkpt lat="45.86318" lon="4.61793">
        <ele>362.96118</ele>
        <time>2023-07-04T14:36:37.000Z</time>
      </trkpt>
      <trkpt lat="45.86316" lon="4.61789">
        <ele>363.1546</ele>
        <time>2023-07-04T14:36:38.000Z</time>
      </trkpt>
      <trkpt lat="45.86314" lon="4.61785">
        <ele>363.12952</ele>
        <time>2023-07-04T14:36:39.000Z</time>
      </trkpt>
      <trkpt lat="45.86312" lon="4.61782">
        <ele>363.11972</ele>
        <time>2023-07-04T14:36:40.000Z</time>
      </trkpt>
      <trkpt lat="45.8631" lon="4.61777">
        <ele>363.16888</ele>
        <time>2023-07-04T14:36:41.000Z</time>
      </trkpt>
      <trkpt lat="45.86308" lon="4.61773">
        <ele>363.1496</ele>
        <time>2023-07-04T14:36:42.000Z</time>
      </trkpt>
      <trkpt lat="45.86306" lon="4.6177">
        <ele>363.36673</ele>
        <time>2023-07-04T14:36:43.000Z</time>
      </trkpt>
      <trkpt lat="45.86304" lon="4.61767">
        <ele>363.03241</ele>
        <time>2023-07-04T14:36:44.000Z</time>
      </trkpt>
      <trkpt lat="45.86303" lon="4.61764">
        <ele>362.60349</ele>
        <time>2023-07-04T14:36:45.000Z</time>
      </trkpt>
      <trkpt lat="45.86301" lon="4.61762">
        <ele>362.57584</ele>
        <time>2023-07-04T14:36:46.000Z</time>
      </trkpt>
      <trkpt lat="45.863" lon="4.61759">
        <ele>362.52814</ele>
        <time>2023-07-04T14:36:47.000Z</time>
      </trkpt>
      <trkpt lat="45.86299" lon="4.61756">
        <ele>362.47223</ele>
        <time>2023-07-04T14:36:48.000Z</time>
      </trkpt>
      <trkpt lat="45.86297" lon="4.61753">
        <ele>362.58099</ele>
        <time>2023-07-04T14:36:49.000Z</time>
      </trkpt>
      <trkpt lat="45.86295" lon="4.6175">
        <ele>362.68054</ele>
        <time>2023-07-04T14:36:50.000Z</time>
      </trkpt>
      <trkpt lat="45.86294" lon="4.61747">
        <ele>362.75183</ele>
        <time>2023-07-04T14:36:51.000Z</time>
      </trkpt>
      <trkpt lat="45.86292" lon="4.61745">
        <ele>362.89798</ele>
        <time>2023-07-04T14:36:52.000Z</time>
      </trkpt>
      <trkpt lat="45.8629" lon="4.61742">
        <ele>363.03461</ele>
        <time>2023-07-04T14:36:53.000Z</time>
      </trkpt>
      <trkpt lat="45.86288" lon="4.61739">
        <ele>363.19562</ele>
        <time>2023-07-04T14:36:54.000Z</time>
      </trkpt>
      <trkpt lat="45.86286" lon="4.61736">
        <ele>364.50357</ele>
        <time>2023-07-04T14:36:55.000Z</time>
      </trkpt>
      <trkpt lat="45.86284" lon="4.61734">
        <ele>365.66467</ele>
        <time>2023-07-04T14:36:56.000Z</time>
      </trkpt>
      <trkpt lat="45.86282" lon="4.61731">
        <ele>366.78448</ele>
        <time>2023-07-04T14:36:57.000Z</time>
      </trkpt>
      <trkpt lat="45.86281" lon="4.61728">
        <ele>367.87146</ele>
        <time>2023-07-04T14:36:58.000Z</time>
      </trkpt>
      <trkpt lat="45.86279" lon="4.61725">
        <ele>368.82867</ele>
        <time>2023-07-04T14:36:59.000Z</time>
      </trkpt>
      <trkpt lat="45.86278" lon="4.61721">
        <ele>368.80234</ele>
        <time>2023-07-04T14:37:00.000Z</time>
      </trkpt>
      <trkpt lat="45.86277" lon="4.61717">
        <ele>368.71155</ele>
        <time>2023-07-04T14:37:01.000Z</time>
      </trkpt>
      <trkpt lat="45.86278" lon="4.61715">
        <ele>368.66833</ele>
        <time>2023-07-04T14:37:02.000Z</time>
      </trkpt>
      <trkpt lat="45.8628" lon="4.61712">
        <ele>368.4722</ele>
        <time>2023-07-04T14:37:03.000Z</time>
      </trkpt>
      <trkpt lat="45.86283" lon="4.61709">
        <ele>368.77524</ele>
        <time>2023-07-04T14:37:04.000Z</time>
      </trkpt>
      <trkpt lat="45.86285" lon="4.61707">
        <ele>369.22632</ele>
        <time>2023-07-04T14:37:05.000Z</time>
      </trkpt>
      <trkpt lat="45.86288" lon="4.61708">
        <ele>369.14706</ele>
        <time>2023-07-04T14:37:06.000Z</time>
      </trkpt>
      <trkpt lat="45.86291" lon="4.61711">
        <ele>369.19696</ele>
        <time>2023-07-04T14:37:07.000Z</time>
      </trkpt>
      <trkpt lat="45.86294" lon="4.61713">
        <ele>369.3429</ele>
        <time>2023-07-04T14:37:08.000Z</time>
      </trkpt>
      <trkpt lat="45.86297" lon="4.61716">
        <ele>369.41733</ele>
        <time>2023-07-04T14:37:09.000Z</time>
      </trkpt>
      <trkpt lat="45.86299" lon="4.61719">
        <ele>369.52545</ele>
        <time>2023-07-04T14:37:10.000Z</time>
      </trkpt>
      <trkpt lat="45.86302" lon="4.61722">
        <ele>369.63824</ele>
        <time>2023-07-04T14:37:11.000Z</time>
      </trkpt>
      <trkpt lat="45.86306" lon="4.61725">
        <ele>369.67844</ele>
        <time>2023-07-04T14:37:12.000Z</time>
      </trkpt>
      <trkpt lat="45.86308" lon="4.61728">
        <ele>369.69119</ele>
        <time>2023-07-04T14:37:13.000Z</time>
      </trkpt>
      <trkpt lat="45.86312" lon="4.61731">
        <ele>369.7103</ele>
        <time>2023-07-04T14:37:14.000Z</time>
      </trkpt>
      <trkpt lat="45.86315" lon="4.61733">
        <ele>369.77087</ele>
        <time>2023-07-04T14:37:15.000Z</time>
      </trkpt>
      <trkpt lat="45.86319" lon="4.61735">
        <ele>369.90128</ele>
        <time>2023-07-04T14:37:16.000Z</time>
      </trkpt>
      <trkpt lat="45.86323" lon="4.61737">
        <ele>370.01367</ele>
        <time>2023-07-04T14:37:17.000Z</time>
      </trkpt>
      <trkpt lat="45.86327" lon="4.61739">
        <ele>370.14682</ele>
        <time>2023-07-04T14:37:18.000Z</time>
      </trkpt>
      <trkpt lat="45.86331" lon="4.61741">
        <ele>370.28131</ele>
        <time>2023-07-04T14:37:19.000Z</time>
      </trkpt>
      <trkpt lat="45.86336" lon="4.61742">
        <ele>371.43719</ele>
        <time>2023-07-04T14:37:20.000Z</time>
      </trkpt>
      <trkpt lat="45.8634" lon="4.61743">
        <ele>372.56473</ele>
        <time>2023-07-04T14:37:21.000Z</time>
      </trkpt>
      <trkpt lat="45.86344" lon="4.61744">
        <ele>373.68817</ele>
        <time>2023-07-04T14:37:22.000Z</time>
      </trkpt>
      <trkpt lat="45.86349" lon="4.61744">
        <ele>374.85544</ele>
        <time>2023-07-04T14:37:23.000Z</time>
      </trkpt>
      <trkpt lat="45.86354" lon="4.61745">
        <ele>375.46387</ele>
        <time>2023-07-04T14:37:24.000Z</time>
      </trkpt>
      <trkpt lat="45.86358" lon="4.61745">
        <ele>375.82336</ele>
        <time>2023-07-04T14:37:25.000Z</time>
      </trkpt>
      <trkpt lat="45.86363" lon="4.61746">
        <ele>376.20236</ele>
        <time>2023-07-04T14:37:26.000Z</time>
      </trkpt>
      <trkpt lat="45.86367" lon="4.61748">
        <ele>376.46686</ele>
        <time>2023-07-04T14:37:27.000Z</time>
      </trkpt>
      <trkpt lat="45.86372" lon="4.61749">
        <ele>376.65918</ele>
        <time>2023-07-04T14:37:28.000Z</time>
      </trkpt>
      <trkpt lat="45.86377" lon="4.6175">
        <ele>376.77423</ele>
        <time>2023-07-04T14:37:29.000Z</time>
      </trkpt>
      <trkpt lat="45.86382" lon="4.61752">
        <ele>376.87762</ele>
        <time>2023-07-04T14:37:30.000Z</time>
      </trkpt>
      <trkpt lat="45.86387" lon="4.61753">
        <ele>376.98688</ele>
        <time>2023-07-04T14:37:31.000Z</time>
      </trkpt>
      <trkpt lat="45.86392" lon="4.61756">
        <ele>377.0889</ele>
        <time>2023-07-04T14:37:32.000Z</time>
      </trkpt>
      <trkpt lat="45.86397" lon="4.61757">
        <ele>377.19891</ele>
        <time>2023-07-04T14:37:33.000Z</time>
      </trkpt>
      <trkpt lat="45.86402" lon="4.61759">
        <ele>377.26382</ele>
        <time>2023-07-04T14:37:34.000Z</time>
      </trkpt>
      <trkpt lat="45.86406" lon="4.61761">
        <ele>377.29816</ele>
        <time>2023-07-04T14:37:35.000Z</time>
      </trkpt>
      <trkpt lat="45.86411" lon="4.61765">
        <ele>377.33795</ele>
        <time>2023-07-04T14:37:36.000Z</time>
      </trkpt>
      <trkpt lat="45.86415" lon="4.61769">
        <ele>377.38571</ele>
        <time>2023-07-04T14:37:37.000Z</time>
      </trkpt>
      <trkpt lat="45.86419" lon="4.61774">
        <ele>377.41046</ele>
        <time>2023-07-04T14:37:38.000Z</time>
      </trkpt>
      <trkpt lat="45.86422" lon="4.61779">
        <ele>377.42609</ele>
        <time>2023-07-04T14:37:39.000Z</time>
      </trkpt>
      <trkpt lat="45.86425" lon="4.61784">
        <ele>377.41986</ele>
        <time>2023-07-04T14:37:40.000Z</time>
      </trkpt>
      <trkpt lat="45.86428" lon="4.61789">
        <ele>377.4046</ele>
        <time>2023-07-04T14:37:41.000Z</time>
      </trkpt>
      <trkpt lat="45.86431" lon="4.61796">
        <ele>377.37363</ele>
        <time>2023-07-04T14:37:42.000Z</time>
      </trkpt>
      <trkpt lat="45.86434" lon="4.61801">
        <ele>377.32675</ele>
        <time>2023-07-04T14:37:43.000Z</time>
      </trkpt>
      <trkpt lat="45.86438" lon="4.61807">
        <ele>377.24057</ele>
        <time>2023-07-04T14:37:44.000Z</time>
      </trkpt>
      <trkpt lat="45.86442" lon="4.61813">
        <ele>377.13776</ele>
        <time>2023-07-04T14:37:45.000Z</time>
      </trkpt>
      <trkpt lat="45.86446" lon="4.6182">
        <ele>377.04266</ele>
        <time>2023-07-04T14:37:46.000Z</time>
      </trkpt>
      <trkpt lat="45.86449" lon="4.61828">
        <ele>376.94098</ele>
        <time>2023-07-04T14:37:47.000Z</time>
      </trkpt>
      <trkpt lat="45.86453" lon="4.61835">
        <ele>376.80374</ele>
        <time>2023-07-04T14:37:48.000Z</time>
      </trkpt>
      <trkpt lat="45.86457" lon="4.61843">
        <ele>376.64917</ele>
        <time>2023-07-04T14:37:49.000Z</time>
      </trkpt>
      <trkpt lat="45.86462" lon="4.61851">
        <ele>376.461</ele>
        <time>2023-07-04T14:37:50.000Z</time>
      </trkpt>
      <trkpt lat="45.86467" lon="4.61858">
        <ele>376.23654</ele>
        <time>2023-07-04T14:37:51.000Z</time>
      </trkpt>
      <trkpt lat="45.86472" lon="4.61868">
        <ele>375.98193</ele>
        <time>2023-07-04T14:37:52.000Z</time>
      </trkpt>
      <trkpt lat="45.86477" lon="4.61878">
        <ele>375.6861</ele>
        <time>2023-07-04T14:37:53.000Z</time>
      </trkpt>
      <trkpt lat="45.86483" lon="4.61888">
        <ele>375.4068</ele>
        <time>2023-07-04T14:37:54.000Z</time>
      </trkpt>
      <trkpt lat="45.86489" lon="4.61899">
        <ele>375.10614</ele>
        <time>2023-07-04T14:37:55.000Z</time>
      </trkpt>
      <trkpt lat="45.86496" lon="4.6191">
        <ele>374.75235</ele>
        <time>2023-07-04T14:37:56.000Z</time>
      </trkpt>
      <trkpt lat="45.86503" lon="4.61919">
        <ele>374.3725</ele>
        <time>2023-07-04T14:37:57.000Z</time>
      </trkpt>
      <trkpt lat="45.86513" lon="4.61926">
        <ele>373.97559</ele>
        <time>2023-07-04T14:37:58.000Z</time>
      </trkpt>
      <trkpt lat="45.86522" lon="4.61931">
        <ele>373.55997</ele>
        <time>2023-07-04T14:37:59.000Z</time>
      </trkpt>
      <trkpt lat="45.86532" lon="4.61935">
        <ele>373.14825</ele>
        <time>2023-07-04T14:38:00.000Z</time>
      </trkpt>
      <trkpt lat="45.86542" lon="4.6194">
        <ele>372.64996</ele>
        <time>2023-07-04T14:38:01.000Z</time>
      </trkpt>
      <trkpt lat="45.86551" lon="4.61945">
        <ele>372.15631</ele>
        <time>2023-07-04T14:38:02.000Z</time>
      </trkpt>
      <trkpt lat="45.8656" lon="4.6195">
        <ele>371.66376</ele>
        <time>2023-07-04T14:38:03.000Z</time>
      </trkpt>
      <trkpt lat="45.86594" lon="4.61948">
        <ele>371.23193</ele>
        <time>2023-07-04T14:38:06.000Z</time>
      </trkpt>
      <trkpt lat="45.866" lon="4.61951">
        <ele>370.84967</ele>
        <time>2023-07-04T14:38:07.000Z</time>
      </trkpt>
      <trkpt lat="45.86608" lon="4.61951">
        <ele>370.49994</ele>
        <time>2023-07-04T14:38:08.000Z</time>
      </trkpt>
      <trkpt lat="45.86614" lon="4.61952">
        <ele>370.16681</ele>
        <time>2023-07-04T14:38:09.000Z</time>
      </trkpt>
      <trkpt lat="45.86618" lon="4.61954">
        <ele>369.8454</ele>
        <time>2023-07-04T14:38:10.000Z</time>
      </trkpt>
      <trkpt lat="45.86622" lon="4.61959">
        <ele>369.56171</ele>
        <time>2023-07-04T14:38:11.000Z</time>
      </trkpt>
      <trkpt lat="45.86623" lon="4.61966">
        <ele>369.30133</ele>
        <time>2023-07-04T14:38:12.000Z</time>
      </trkpt>
      <trkpt lat="45.86624" lon="4.61972">
        <ele>369.06406</ele>
        <time>2023-07-04T14:38:13.000Z</time>
      </trkpt>
      <trkpt lat="45.86625" lon="4.61979">
        <ele>368.82706</ele>
        <time>2023-07-04T14:38:14.000Z</time>
      </trkpt>
      <trkpt lat="45.86626" lon="4.61986">
        <ele>368.62372</ele>
        <time>2023-07-04T14:38:15.000Z</time>
      </trkpt>
      <trkpt lat="45.86627" lon="4.61993">
        <ele>368.43619</ele>
        <time>2023-07-04T14:38:16.000Z</time>
      </trkpt>
      <trkpt lat="45.86627" lon="4.62001">
        <ele>368.29123</ele>
        <time>2023-07-04T14:38:17.000Z</time>
      </trkpt>
      <trkpt lat="45.86628" lon="4.62008">
        <ele>368.18106</ele>
        <time>2023-07-04T14:38:18.000Z</time>
      </trkpt>
      <trkpt lat="45.86629" lon="4.62014">
        <ele>368.09308</ele>
        <time>2023-07-04T14:38:19.000Z</time>
      </trkpt>
      <trkpt lat="45.86629" lon="4.62021">
        <ele>368.03473</ele>
        <time>2023-07-04T14:38:20.000Z</time>
      </trkpt>
      <trkpt lat="45.8663" lon="4.62028">
        <ele>368.01855</ele>
        <time>2023-07-04T14:38:21.000Z</time>
      </trkpt>
      <trkpt lat="45.8663" lon="4.62035">
        <ele>368.01303</ele>
        <time>2023-07-04T14:38:22.000Z</time>
      </trkpt>
      <trkpt lat="45.86631" lon="4.62041">
        <ele>368.1304</ele>
        <time>2023-07-04T14:38:23.000Z</time>
      </trkpt>
      <trkpt lat="45.86632" lon="4.62047">
        <ele>368.25812</ele>
        <time>2023-07-04T14:38:24.000Z</time>
      </trkpt>
      <trkpt lat="45.86632" lon="4.62052">
        <ele>368.3869</ele>
        <time>2023-07-04T14:38:25.000Z</time>
      </trkpt>
      <trkpt lat="45.86633" lon="4.62058">
        <ele>368.50604</ele>
        <time>2023-07-04T14:38:26.000Z</time>
      </trkpt>
      <trkpt lat="45.86634" lon="4.62063">
        <ele>368.59073</ele>
        <time>2023-07-04T14:38:27.000Z</time>
      </trkpt>
      <trkpt lat="45.86635" lon="4.62069">
        <ele>368.64572</ele>
        <time>2023-07-04T14:38:28.000Z</time>
      </trkpt>
      <trkpt lat="45.86636" lon="4.62075">
        <ele>368.71329</ele>
        <time>2023-07-04T14:38:29.000Z</time>
      </trkpt>
      <trkpt lat="45.86637" lon="4.62081">
        <ele>368.79608</ele>
        <time>2023-07-04T14:38:30.000Z</time>
      </trkpt>
      <trkpt lat="45.86637" lon="4.62087">
        <ele>368.8566</ele>
        <time>2023-07-04T14:38:31.000Z</time>
      </trkpt>
      <trkpt lat="45.86637" lon="4.62093">
        <ele>368.91232</ele>
        <time>2023-07-04T14:38:32.000Z</time>
      </trkpt>
      <trkpt lat="45.86637" lon="4.621">
        <ele>368.96262</ele>
        <time>2023-07-04T14:38:33.000Z</time>
      </trkpt>
      <trkpt lat="45.86636" lon="4.62107">
        <ele>369.02893</ele>
        <time>2023-07-04T14:38:34.000Z</time>
      </trkpt>
      <trkpt lat="45.86635" lon="4.62114">
        <ele>369.09625</ele>
        <time>2023-07-04T14:38:35.000Z</time>
      </trkpt>
      <trkpt lat="45.86634" lon="4.6212">
        <ele>369.16757</ele>
        <time>2023-07-04T14:38:36.000Z</time>
      </trkpt>
      <trkpt lat="45.86632" lon="4.62126">
        <ele>369.22549</ele>
        <time>2023-07-04T14:38:37.000Z</time>
      </trkpt>
      <trkpt lat="45.8663" lon="4.62132">
        <ele>369.26788</ele>
        <time>2023-07-04T14:38:38.000Z</time>
      </trkpt>
      <trkpt lat="45.86627" lon="4.62139">
        <ele>369.31976</ele>
        <time>2023-07-04T14:38:39.000Z</time>
      </trkpt>
      <trkpt lat="45.86625" lon="4.62145">
        <ele>369.38855</ele>
        <time>2023-07-04T14:38:40.000Z</time>
      </trkpt>
      <trkpt lat="45.86623" lon="4.62151">
        <ele>369.43298</ele>
        <time>2023-07-04T14:38:41.000Z</time>
      </trkpt>
      <trkpt lat="45.86621" lon="4.62157">
        <ele>369.48462</ele>
        <time>2023-07-04T14:38:42.000Z</time>
      </trkpt>
      <trkpt lat="45.86619" lon="4.62163">
        <ele>369.51996</ele>
        <time>2023-07-04T14:38:43.000Z</time>
      </trkpt>
      <trkpt lat="45.86617" lon="4.62169">
        <ele>369.55157</ele>
        <time>2023-07-04T14:38:44.000Z</time>
      </trkpt>
      <trkpt lat="45.86614" lon="4.62174">
        <ele>369.59045</ele>
        <time>2023-07-04T14:38:45.000Z</time>
      </trkpt>
      <trkpt lat="45.86612" lon="4.6218">
        <ele>369.61707</ele>
        <time>2023-07-04T14:38:46.000Z</time>
      </trkpt>
      <trkpt lat="45.86611" lon="4.62186">
        <ele>369.21384</ele>
        <time>2023-07-04T14:38:47.000Z</time>
      </trkpt>
      <trkpt lat="45.86609" lon="4.62191">
        <ele>368.80255</ele>
        <time>2023-07-04T14:38:48.000Z</time>
      </trkpt>
      <trkpt lat="45.86607" lon="4.62198">
        <ele>368.366</ele>
        <time>2023-07-04T14:38:49.000Z</time>
      </trkpt>
      <trkpt lat="45.86605" lon="4.62204">
        <ele>368.45789</ele>
        <time>2023-07-04T14:38:50.000Z</time>
      </trkpt>
      <trkpt lat="45.86603" lon="4.62208">
        <ele>368.57144</ele>
        <time>2023-07-04T14:38:51.000Z</time>
      </trkpt>
      <trkpt lat="45.86602" lon="4.62213">
        <ele>368.68805</ele>
        <time>2023-07-04T14:38:52.000Z</time>
      </trkpt>
      <trkpt lat="45.86599" lon="4.62219">
        <ele>368.81009</ele>
        <time>2023-07-04T14:38:53.000Z</time>
      </trkpt>
      <trkpt lat="45.86597" lon="4.62225">
        <ele>368.92987</ele>
        <time>2023-07-04T14:38:54.000Z</time>
      </trkpt>
      <trkpt lat="45.86594" lon="4.62231">
        <ele>369.03461</ele>
        <time>2023-07-04T14:38:55.000Z</time>
      </trkpt>
      <trkpt lat="45.86592" lon="4.62237">
        <ele>369.11432</ele>
        <time>2023-07-04T14:38:56.000Z</time>
      </trkpt>
      <trkpt lat="45.86589" lon="4.62244">
        <ele>369.1759</ele>
        <time>2023-07-04T14:38:57.000Z</time>
      </trkpt>
      <trkpt lat="45.86585" lon="4.62253">
        <ele>369.2117</ele>
        <time>2023-07-04T14:38:58.000Z</time>
      </trkpt>
      <trkpt lat="45.86582" lon="4.62261">
        <ele>369.23227</ele>
        <time>2023-07-04T14:38:59.000Z</time>
      </trkpt>
      <trkpt lat="45.86579" lon="4.62271">
        <ele>369.21539</ele>
        <time>2023-07-04T14:39:00.000Z</time>
      </trkpt>
      <trkpt lat="45.86575" lon="4.62281">
        <ele>369.1691</ele>
        <time>2023-07-04T14:39:01.000Z</time>
      </trkpt>
      <trkpt lat="45.86572" lon="4.62291">
        <ele>369.10309</ele>
        <time>2023-07-04T14:39:02.000Z</time>
      </trkpt>
      <trkpt lat="45.86569" lon="4.623">
        <ele>369.0206</ele>
        <time>2023-07-04T14:39:03.000Z</time>
      </trkpt>
      <trkpt lat="45.86565" lon="4.62311">
        <ele>368.27881</ele>
        <time>2023-07-04T14:39:04.000Z</time>
      </trkpt>
      <trkpt lat="45.86561" lon="4.62321">
        <ele>367.51364</ele>
        <time>2023-07-04T14:39:05.000Z</time>
      </trkpt>
      <trkpt lat="45.86557" lon="4.62331">
        <ele>366.72803</ele>
        <time>2023-07-04T14:39:06.000Z</time>
      </trkpt>
      <trkpt lat="45.86553" lon="4.62341">
        <ele>366.38202</ele>
        <time>2023-07-04T14:39:07.000Z</time>
      </trkpt>
      <trkpt lat="45.86549" lon="4.62351">
        <ele>366.02643</ele>
        <time>2023-07-04T14:39:08.000Z</time>
      </trkpt>
      <trkpt lat="45.86545" lon="4.6236">
        <ele>366.30951</ele>
        <time>2023-07-04T14:39:09.000Z</time>
      </trkpt>
      <trkpt lat="45.86542" lon="4.62371">
        <ele>366.14856</ele>
        <time>2023-07-04T14:39:10.000Z</time>
      </trkpt>
      <trkpt lat="45.8654" lon="4.62381">
        <ele>365.2424</ele>
        <time>2023-07-04T14:39:11.000Z</time>
      </trkpt>
      <trkpt lat="45.86538" lon="4.62392">
        <ele>364.34064</ele>
        <time>2023-07-04T14:39:12.000Z</time>
      </trkpt>
      <trkpt lat="45.86537" lon="4.62403">
        <ele>363.44312</ele>
        <time>2023-07-04T14:39:13.000Z</time>
      </trkpt>
      <trkpt lat="45.86536" lon="4.62414">
        <ele>362.53693</ele>
        <time>2023-07-04T14:39:14.000Z</time>
      </trkpt>
      <trkpt lat="45.86536" lon="4.62425">
        <ele>361.63104</ele>
        <time>2023-07-04T14:39:15.000Z</time>
      </trkpt>
      <trkpt lat="45.86535" lon="4.62436">
        <ele>360.74203</ele>
        <time>2023-07-04T14:39:16.000Z</time>
      </trkpt>
      <trkpt lat="45.86535" lon="4.62446">
        <ele>359.89655</ele>
        <time>2023-07-04T14:39:17.000Z</time>
      </trkpt>
      <trkpt lat="45.86534" lon="4.62457">
        <ele>359.06503</ele>
        <time>2023-07-04T14:39:18.000Z</time>
      </trkpt>
      <trkpt lat="45.86532" lon="4.62468">
        <ele>358.85376</ele>
        <time>2023-07-04T14:39:19.000Z</time>
      </trkpt>
      <trkpt lat="45.86531" lon="4.62479">
        <ele>358.64804</ele>
        <time>2023-07-04T14:39:20.000Z</time>
      </trkpt>
      <trkpt lat="45.86529" lon="4.62489">
        <ele>358.43683</ele>
        <time>2023-07-04T14:39:21.000Z</time>
      </trkpt>
      <trkpt lat="45.86527" lon="4.625">
        <ele>358.19458</ele>
        <time>2023-07-04T14:39:22.000Z</time>
      </trkpt>
      <trkpt lat="45.86525" lon="4.62511">
        <ele>358.00107</ele>
        <time>2023-07-04T14:39:23.000Z</time>
      </trkpt>
      <trkpt lat="45.86522" lon="4.62522">
        <ele>358.43652</ele>
        <time>2023-07-04T14:39:24.000Z</time>
      </trkpt>
      <trkpt lat="45.8652" lon="4.62532">
        <ele>358.86636</ele>
        <time>2023-07-04T14:39:25.000Z</time>
      </trkpt>
      <trkpt lat="45.86518" lon="4.62542">
        <ele>359.29779</ele>
        <time>2023-07-04T14:39:26.000Z</time>
      </trkpt>
      <trkpt lat="45.86516" lon="4.62551">
        <ele>359.69672</ele>
        <time>2023-07-04T14:39:27.000Z</time>
      </trkpt>
      <trkpt lat="45.86514" lon="4.6256">
        <ele>360.08508</ele>
        <time>2023-07-04T14:39:28.000Z</time>
      </trkpt>
      <trkpt lat="45.86512" lon="4.62568">
        <ele>359.79816</ele>
        <time>2023-07-04T14:39:29.000Z</time>
      </trkpt>
      <trkpt lat="45.8651" lon="4.62576">
        <ele>359.39087</ele>
        <time>2023-07-04T14:39:30.000Z</time>
      </trkpt>
      <trkpt lat="45.86508" lon="4.62584">
        <ele>359.69067</ele>
        <time>2023-07-04T14:39:31.000Z</time>
      </trkpt>
      <trkpt lat="45.86505" lon="4.62592">
        <ele>359.96255</ele>
        <time>2023-07-04T14:39:32.000Z</time>
      </trkpt>
      <trkpt lat="45.86504" lon="4.62599">
        <ele>360.22122</ele>
        <time>2023-07-04T14:39:33.000Z</time>
      </trkpt>
      <trkpt lat="45.86502" lon="4.62605">
        <ele>360.45779</ele>
        <time>2023-07-04T14:39:34.000Z</time>
      </trkpt>
      <trkpt lat="45.865" lon="4.6261">
        <ele>360.71143</ele>
        <time>2023-07-04T14:39:35.000Z</time>
      </trkpt>
      <trkpt lat="45.86499" lon="4.62615">
        <ele>360.93796</ele>
        <time>2023-07-04T14:39:36.000Z</time>
      </trkpt>
      <trkpt lat="45.86496" lon="4.6262">
        <ele>361.12457</ele>
        <time>2023-07-04T14:39:37.000Z</time>
      </trkpt>
      <trkpt lat="45.86494" lon="4.62626">
        <ele>361.30377</ele>
        <time>2023-07-04T14:39:38.000Z</time>
      </trkpt>
      <trkpt lat="45.86493" lon="4.6263">
        <ele>360.84943</ele>
        <time>2023-07-04T14:39:39.000Z</time>
      </trkpt>
      <trkpt lat="45.86494" lon="4.62634">
        <ele>359.58545</ele>
        <time>2023-07-04T14:39:40.000Z</time>
      </trkpt>
      <trkpt lat="45.86495" lon="4.62638">
        <ele>358.30179</ele>
        <time>2023-07-04T14:39:41.000Z</time>
      </trkpt>
      <trkpt lat="45.86497" lon="4.62641">
        <ele>357.04962</ele>
        <time>2023-07-04T14:39:42.000Z</time>
      </trkpt>
      <trkpt lat="45.865" lon="4.62645">
        <ele>355.89185</ele>
        <time>2023-07-04T14:39:43.000Z</time>
      </trkpt>
      <trkpt lat="45.86503" lon="4.6265">
        <ele>354.73712</ele>
        <time>2023-07-04T14:39:44.000Z</time>
      </trkpt>
      <trkpt lat="45.86505" lon="4.62654">
        <ele>353.58145</ele>
        <time>2023-07-04T14:39:45.000Z</time>
      </trkpt>
      <trkpt lat="45.86506" lon="4.62659">
        <ele>352.46503</ele>
        <time>2023-07-04T14:39:46.000Z</time>
      </trkpt>
      <trkpt lat="45.86508" lon="4.62663">
        <ele>351.37369</ele>
        <time>2023-07-04T14:39:47.000Z</time>
      </trkpt>
      <trkpt lat="45.86511" lon="4.62666">
        <ele>350.31665</ele>
        <time>2023-07-04T14:39:48.000Z</time>
      </trkpt>
      <trkpt lat="45.86514" lon="4.62671">
        <ele>349.31705</ele>
        <time>2023-07-04T14:39:49.000Z</time>
      </trkpt>
      <trkpt lat="45.86515" lon="4.62675">
        <ele>348.31967</ele>
        <time>2023-07-04T14:39:50.000Z</time>
      </trkpt>
      <trkpt lat="45.86517" lon="4.6268">
        <ele>347.32806</ele>
        <time>2023-07-04T14:39:51.000Z</time>
      </trkpt>
      <trkpt lat="45.86519" lon="4.62685">
        <ele>346.3967</ele>
        <time>2023-07-04T14:39:52.000Z</time>
      </trkpt>
      <trkpt lat="45.86521" lon="4.6269">
        <ele>345.4834</ele>
        <time>2023-07-04T14:39:53.000Z</time>
      </trkpt>
      <trkpt lat="45.86522" lon="4.62694">
        <ele>344.5921</ele>
        <time>2023-07-04T14:39:54.000Z</time>
      </trkpt>
      <trkpt lat="45.86524" lon="4.62699">
        <ele>343.68091</ele>
        <time>2023-07-04T14:39:55.000Z</time>
      </trkpt>
      <trkpt lat="45.86525" lon="4.62703">
        <ele>342.70343</ele>
        <time>2023-07-04T14:39:56.000Z</time>
      </trkpt>
      <trkpt lat="45.86527" lon="4.62706">
        <ele>341.70978</ele>
        <time>2023-07-04T14:39:57.000Z</time>
      </trkpt>
      <trkpt lat="45.8653" lon="4.6271">
        <ele>340.73459</ele>
        <time>2023-07-04T14:39:58.000Z</time>
      </trkpt>
      <trkpt lat="45.86532" lon="4.62714">
        <ele>339.75421</ele>
        <time>2023-07-04T14:39:59.000Z</time>
      </trkpt>
      <trkpt lat="45.86533" lon="4.62717">
        <ele>339.64606</ele>
        <time>2023-07-04T14:40:00.000Z</time>
      </trkpt>
      <trkpt lat="45.86534" lon="4.62719">
        <ele>339.73169</ele>
        <time>2023-07-04T14:40:01.000Z</time>
      </trkpt>
      <trkpt lat="45.86535" lon="4.62722">
        <ele>339.81818</ele>
        <time>2023-07-04T14:40:02.000Z</time>
      </trkpt>
      <trkpt lat="45.86536" lon="4.62724">
        <ele>339.77115</ele>
        <time>2023-07-04T14:40:03.000Z</time>
      </trkpt>
      <trkpt lat="45.86538" lon="4.62727">
        <ele>339.69986</ele>
        <time>2023-07-04T14:40:05.000Z</time>
      </trkpt>
      <trkpt lat="45.86539" lon="4.6273">
        <ele>339.64508</ele>
        <time>2023-07-04T14:40:13.000Z</time>
      </trkpt>
      <trkpt lat="45.86541" lon="4.62733">
        <ele>339.52765</ele>
        <time>2023-07-04T14:40:14.000Z</time>
      </trkpt>
      <trkpt lat="45.86543" lon="4.62737">
        <ele>339.55365</ele>
        <time>2023-07-04T14:40:15.000Z</time>
      </trkpt>
      <trkpt lat="45.86545" lon="4.62742">
        <ele>339.57074</ele>
        <time>2023-07-04T14:40:16.000Z</time>
      </trkpt>
      <trkpt lat="45.86548" lon="4.62747">
        <ele>339.57526</ele>
        <time>2023-07-04T14:40:17.000Z</time>
      </trkpt>
      <trkpt lat="45.86551" lon="4.62751">
        <ele>339.61682</ele>
        <time>2023-07-04T14:40:18.000Z</time>
      </trkpt>
      <trkpt lat="45.86553" lon="4.62756">
        <ele>339.67087</ele>
        <time>2023-07-04T14:40:19.000Z</time>
      </trkpt>
      <trkpt lat="45.86556" lon="4.62762">
        <ele>339.63947</ele>
        <time>2023-07-04T14:40:20.000Z</time>
      </trkpt>
      <trkpt lat="45.86559" lon="4.62767">
        <ele>339.53799</ele>
        <time>2023-07-04T14:40:21.000Z</time>
      </trkpt>
      <trkpt lat="45.86562" lon="4.62772">
        <ele>339.44257</ele>
        <time>2023-07-04T14:40:22.000Z</time>
      </trkpt>
      <trkpt lat="45.86566" lon="4.62778">
        <ele>339.49838</ele>
        <time>2023-07-04T14:40:23.000Z</time>
      </trkpt>
      <trkpt lat="45.86569" lon="4.62783">
        <ele>339.62701</ele>
        <time>2023-07-04T14:40:24.000Z</time>
      </trkpt>
      <trkpt lat="45.86573" lon="4.62787">
        <ele>339.78387</ele>
        <time>2023-07-04T14:40:25.000Z</time>
      </trkpt>
      <trkpt lat="45.86577" lon="4.62791">
        <ele>339.91501</ele>
        <time>2023-07-04T14:40:26.000Z</time>
      </trkpt>
      <trkpt lat="45.8658" lon="4.62796">
        <ele>340.04834</ele>
        <time>2023-07-04T14:40:27.000Z</time>
      </trkpt>
      <trkpt lat="45.86583" lon="4.62801">
        <ele>340.14542</ele>
        <time>2023-07-04T14:40:28.000Z</time>
      </trkpt>
      <trkpt lat="45.86586" lon="4.62806">
        <ele>340.13126</ele>
        <time>2023-07-04T14:40:29.000Z</time>
      </trkpt>
      <trkpt lat="45.86589" lon="4.62811">
        <ele>340.08627</ele>
        <time>2023-07-04T14:40:30.000Z</time>
      </trkpt>
      <trkpt lat="45.86592" lon="4.62816">
        <ele>340.05621</ele>
        <time>2023-07-04T14:40:31.000Z</time>
      </trkpt>
      <trkpt lat="45.86596" lon="4.62822">
        <ele>340.03226</ele>
        <time>2023-07-04T14:40:32.000Z</time>
      </trkpt>
      <trkpt lat="45.866" lon="4.62828">
        <ele>340.16489</ele>
        <time>2023-07-04T14:40:33.000Z</time>
      </trkpt>
      <trkpt lat="45.86603" lon="4.62832">
        <ele>340.29144</ele>
        <time>2023-07-04T14:40:34.000Z</time>
      </trkpt>
      <trkpt lat="45.86605" lon="4.62837">
        <ele>340.26465</ele>
        <time>2023-07-04T14:40:35.000Z</time>
      </trkpt>
      <trkpt lat="45.86609" lon="4.62841">
        <ele>340.16705</ele>
        <time>2023-07-04T14:40:36.000Z</time>
      </trkpt>
      <trkpt lat="45.86613" lon="4.62847">
        <ele>340.05002</ele>
        <time>2023-07-04T14:40:37.000Z</time>
      </trkpt>
      <trkpt lat="45.86615" lon="4.62851">
        <ele>339.83865</ele>
        <time>2023-07-04T14:40:38.000Z</time>
      </trkpt>
      <trkpt lat="45.86618" lon="4.62857">
        <ele>339.61862</ele>
        <time>2023-07-04T14:40:39.000Z</time>
      </trkpt>
      <trkpt lat="45.86621" lon="4.62862">
        <ele>339.41418</ele>
        <time>2023-07-04T14:40:40.000Z</time>
      </trkpt>
      <trkpt lat="45.86625" lon="4.62867">
        <ele>339.32138</ele>
        <time>2023-07-04T14:40:41.000Z</time>
      </trkpt>
      <trkpt lat="45.86629" lon="4.62872">
        <ele>339.4259</ele>
        <time>2023-07-04T14:40:42.000Z</time>
      </trkpt>
      <trkpt lat="45.86633" lon="4.62877">
        <ele>339.39203</ele>
        <time>2023-07-04T14:40:43.000Z</time>
      </trkpt>
      <trkpt lat="45.86636" lon="4.62882">
        <ele>339.37079</ele>
        <time>2023-07-04T14:40:44.000Z</time>
      </trkpt>
      <trkpt lat="45.86641" lon="4.62887">
        <ele>339.32474</ele>
        <time>2023-07-04T14:40:45.000Z</time>
      </trkpt>
      <trkpt lat="45.86645" lon="4.62893">
        <ele>339.22931</ele>
        <time>2023-07-04T14:40:46.000Z</time>
      </trkpt>
      <trkpt lat="45.86649" lon="4.62896">
        <ele>339.09326</ele>
        <time>2023-07-04T14:40:47.000Z</time>
      </trkpt>
      <trkpt lat="45.86655" lon="4.62899">
        <ele>339.10468</ele>
        <time>2023-07-04T14:40:48.000Z</time>
      </trkpt>
      <trkpt lat="45.86658" lon="4.62903">
        <ele>339.09009</ele>
        <time>2023-07-04T14:40:49.000Z</time>
      </trkpt>
      <trkpt lat="45.86662" lon="4.62906">
        <ele>339.14996</ele>
        <time>2023-07-04T14:40:50.000Z</time>
      </trkpt>
      <trkpt lat="45.86665" lon="4.6291">
        <ele>339.21588</ele>
        <time>2023-07-04T14:40:51.000Z</time>
      </trkpt>
      <trkpt lat="45.86669" lon="4.62912">
        <ele>339.28671</ele>
        <time>2023-07-04T14:40:52.000Z</time>
      </trkpt>
      <trkpt lat="45.86673" lon="4.62915">
        <ele>339.25531</ele>
        <time>2023-07-04T14:40:53.000Z</time>
      </trkpt>
      <trkpt lat="45.86676" lon="4.62919">
        <ele>339.30725</ele>
        <time>2023-07-04T14:40:54.000Z</time>
      </trkpt>
      <trkpt lat="45.86679" lon="4.62922">
        <ele>339.24567</ele>
        <time>2023-07-04T14:40:55.000Z</time>
      </trkpt>
      <trkpt lat="45.86683" lon="4.62924">
        <ele>339.2316</ele>
        <time>2023-07-04T14:40:56.000Z</time>
      </trkpt>
      <trkpt lat="45.86686" lon="4.62926">
        <ele>339.27307</ele>
        <time>2023-07-04T14:40:57.000Z</time>
      </trkpt>
      <trkpt lat="45.86689" lon="4.62929">
        <ele>339.63544</ele>
        <time>2023-07-04T14:40:58.000Z</time>
      </trkpt>
      <trkpt lat="45.86692" lon="4.62931">
        <ele>339.99323</ele>
        <time>2023-07-04T14:40:59.000Z</time>
      </trkpt>
      <trkpt lat="45.86694" lon="4.62933">
        <ele>340.34952</ele>
        <time>2023-07-04T14:41:00.000Z</time>
      </trkpt>
      <trkpt lat="45.86697" lon="4.62935">
        <ele>340.64038</ele>
        <time>2023-07-04T14:41:01.000Z</time>
      </trkpt>
      <trkpt lat="45.867" lon="4.62937">
        <ele>340.77106</ele>
        <time>2023-07-04T14:41:02.000Z</time>
      </trkpt>
      <trkpt lat="45.86702" lon="4.62939">
        <ele>340.89117</ele>
        <time>2023-07-04T14:41:03.000Z</time>
      </trkpt>
      <trkpt lat="45.86704" lon="4.62941">
        <ele>340.98502</ele>
        <time>2023-07-04T14:41:04.000Z</time>
      </trkpt>
      <trkpt lat="45.86706" lon="4.62944">
        <ele>341.09039</ele>
        <time>2023-07-04T14:41:05.000Z</time>
      </trkpt>
      <trkpt lat="45.86707" lon="4.62948">
        <ele>341.25131</ele>
        <time>2023-07-04T14:41:06.000Z</time>
      </trkpt>
      <trkpt lat="45.86707" lon="4.62953">
        <ele>341.46594</ele>
        <time>2023-07-04T14:41:07.000Z</time>
      </trkpt>
      <trkpt lat="45.86707" lon="4.62958">
        <ele>341.51154</ele>
        <time>2023-07-04T14:41:08.000Z</time>
      </trkpt>
      <trkpt lat="45.86706" lon="4.62963">
        <ele>341.5665</ele>
        <time>2023-07-04T14:41:09.000Z</time>
      </trkpt>
      <trkpt lat="45.86706" lon="4.62969">
        <ele>341.60944</ele>
        <time>2023-07-04T14:41:10.000Z</time>
      </trkpt>
      <trkpt lat="45.86706" lon="4.62974">
        <ele>341.63461</ele>
        <time>2023-07-04T14:41:11.000Z</time>
      </trkpt>
      <trkpt lat="45.86705" lon="4.62979">
        <ele>341.69818</ele>
        <time>2023-07-04T14:41:12.000Z</time>
      </trkpt>
      <trkpt lat="45.86704" lon="4.62985">
        <ele>341.70856</ele>
        <time>2023-07-04T14:41:13.000Z</time>
      </trkpt>
      <trkpt lat="45.86703" lon="4.6299">
        <ele>341.64508</ele>
        <time>2023-07-04T14:41:14.000Z</time>
      </trkpt>
      <trkpt lat="45.86702" lon="4.62996">
        <ele>341.71262</ele>
        <time>2023-07-04T14:41:15.000Z</time>
      </trkpt>
      <trkpt lat="45.86702" lon="4.63002">
        <ele>341.80634</ele>
        <time>2023-07-04T14:41:16.000Z</time>
      </trkpt>
      <trkpt lat="45.86701" lon="4.63008">
        <ele>341.87677</ele>
        <time>2023-07-04T14:41:17.000Z</time>
      </trkpt>
      <trkpt lat="45.86699" lon="4.63016">
        <ele>341.70575</ele>
        <time>2023-07-04T14:41:18.000Z</time>
      </trkpt>
      <trkpt lat="45.86699" lon="4.63022">
        <ele>341.56024</ele>
        <time>2023-07-04T14:41:19.000Z</time>
      </trkpt>
      <trkpt lat="45.86698" lon="4.63029">
        <ele>341.37738</ele>
        <time>2023-07-04T14:41:20.000Z</time>
      </trkpt>
      <trkpt lat="45.86696" lon="4.63036">
        <ele>341.16425</ele>
        <time>2023-07-04T14:41:21.000Z</time>
      </trkpt>
      <trkpt lat="45.86696" lon="4.63043">
        <ele>340.90854</ele>
        <time>2023-07-04T14:41:22.000Z</time>
      </trkpt>
      <trkpt lat="45.86695" lon="4.6305">
        <ele>340.81476</ele>
        <time>2023-07-04T14:41:23.000Z</time>
      </trkpt>
      <trkpt lat="45.86694" lon="4.63056">
        <ele>340.72864</ele>
        <time>2023-07-04T14:41:24.000Z</time>
      </trkpt>
      <trkpt lat="45.86693" lon="4.63062">
        <ele>340.67154</ele>
        <time>2023-07-04T14:41:25.000Z</time>
      </trkpt>
      <trkpt lat="45.86691" lon="4.63069">
        <ele>340.64496</ele>
        <time>2023-07-04T14:41:26.000Z</time>
      </trkpt>
      <trkpt lat="45.86691" lon="4.63076">
        <ele>340.60797</ele>
        <time>2023-07-04T14:41:27.000Z</time>
      </trkpt>
      <trkpt lat="45.86692" lon="4.63082">
        <ele>340.59283</ele>
        <time>2023-07-04T14:41:28.000Z</time>
      </trkpt>
      <trkpt lat="45.86693" lon="4.63086">
        <ele>340.56949</ele>
        <time>2023-07-04T14:41:29.000Z</time>
      </trkpt>
      <trkpt lat="45.86696" lon="4.63089">
        <ele>340.53461</ele>
        <time>2023-07-04T14:41:30.000Z</time>
      </trkpt>
      <trkpt lat="45.86698" lon="4.63092">
        <ele>340.5192</ele>
        <time>2023-07-04T14:41:31.000Z</time>
      </trkpt>
      <trkpt lat="45.86701" lon="4.63095">
        <ele>340.50165</ele>
        <time>2023-07-04T14:41:32.000Z</time>
      </trkpt>
      <trkpt lat="45.86704" lon="4.63097">
        <ele>340.50064</ele>
        <time>2023-07-04T14:41:33.000Z</time>
      </trkpt>
      <trkpt lat="45.86708" lon="4.631">
        <ele>340.52411</ele>
        <time>2023-07-04T14:41:34.000Z</time>
      </trkpt>
      <trkpt lat="45.86711" lon="4.63102">
        <ele>340.50275</ele>
        <time>2023-07-04T14:41:35.000Z</time>
      </trkpt>
      <trkpt lat="45.86714" lon="4.63105">
        <ele>340.43201</ele>
        <time>2023-07-04T14:41:36.000Z</time>
      </trkpt>
      <trkpt lat="45.86717" lon="4.63108">
        <ele>340.35449</ele>
        <time>2023-07-04T14:41:37.000Z</time>
      </trkpt>
      <trkpt lat="45.8672" lon="4.63111">
        <ele>340.43839</ele>
        <time>2023-07-04T14:41:38.000Z</time>
      </trkpt>
      <trkpt lat="45.86723" lon="4.63113">
        <ele>340.48923</ele>
        <time>2023-07-04T14:41:39.000Z</time>
      </trkpt>
      <trkpt lat="45.86727" lon="4.63115">
        <ele>340.65207</ele>
        <time>2023-07-04T14:41:40.000Z</time>
      </trkpt>
      <trkpt lat="45.8673" lon="4.63117">
        <ele>340.86115</ele>
        <time>2023-07-04T14:41:41.000Z</time>
      </trkpt>
      <trkpt lat="45.86733" lon="4.63119">
        <ele>341.07196</ele>
        <time>2023-07-04T14:41:42.000Z</time>
      </trkpt>
      <trkpt lat="45.86737" lon="4.6312">
        <ele>341.12128</ele>
        <time>2023-07-04T14:41:43.000Z</time>
      </trkpt>
      <trkpt lat="45.86741" lon="4.63121">
        <ele>341.20453</ele>
        <time>2023-07-04T14:41:44.000Z</time>
      </trkpt>
      <trkpt lat="45.86744" lon="4.63122">
        <ele>341.28745</ele>
        <time>2023-07-04T14:41:45.000Z</time>
      </trkpt>
      <trkpt lat="45.86748" lon="4.63122">
        <ele>341.29614</ele>
        <time>2023-07-04T14:41:46.000Z</time>
      </trkpt>
      <trkpt lat="45.86751" lon="4.63122">
        <ele>341.34583</ele>
        <time>2023-07-04T14:41:47.000Z</time>
      </trkpt>
      <trkpt lat="45.86755" lon="4.63122">
        <ele>341.33813</ele>
        <time>2023-07-04T14:41:48.000Z</time>
      </trkpt>
      <trkpt lat="45.86758" lon="4.63121">
        <ele>341.51175</ele>
        <time>2023-07-04T14:41:49.000Z</time>
      </trkpt>
      <trkpt lat="45.86761" lon="4.6312">
        <ele>341.66754</ele>
        <time>2023-07-04T14:41:50.000Z</time>
      </trkpt>
      <trkpt lat="45.86765" lon="4.63119">
        <ele>341.81525</ele>
        <time>2023-07-04T14:41:51.000Z</time>
      </trkpt>
      <trkpt lat="45.86768" lon="4.63117">
        <ele>341.9801</ele>
        <time>2023-07-04T14:41:52.000Z</time>
      </trkpt>
      <trkpt lat="45.86771" lon="4.63115">
        <ele>342.15143</ele>
        <time>2023-07-04T14:41:53.000Z</time>
      </trkpt>
      <trkpt lat="45.86774" lon="4.63113">
        <ele>342.36679</ele>
        <time>2023-07-04T14:41:54.000Z</time>
      </trkpt>
      <trkpt lat="45.86776" lon="4.6311">
        <ele>342.64078</ele>
        <time>2023-07-04T14:41:55.000Z</time>
      </trkpt>
      <trkpt lat="45.86778" lon="4.63107">
        <ele>342.97714</ele>
        <time>2023-07-04T14:41:56.000Z</time>
      </trkpt>
      <trkpt lat="45.86781" lon="4.63104">
        <ele>343.32086</ele>
        <time>2023-07-04T14:41:57.000Z</time>
      </trkpt>
      <trkpt lat="45.86783" lon="4.631">
        <ele>343.51578</ele>
        <time>2023-07-04T14:41:58.000Z</time>
      </trkpt>
      <trkpt lat="45.86785" lon="4.63096">
        <ele>343.7648</ele>
        <time>2023-07-04T14:41:59.000Z</time>
      </trkpt>
      <trkpt lat="45.86787" lon="4.63093">
        <ele>343.99548</ele>
        <time>2023-07-04T14:42:00.000Z</time>
      </trkpt>
      <trkpt lat="45.86789" lon="4.6309">
        <ele>344.21664</ele>
        <time>2023-07-04T14:42:01.000Z</time>
      </trkpt>
      <trkpt lat="45.8679" lon="4.63086">
        <ele>344.43182</ele>
        <time>2023-07-04T14:42:02.000Z</time>
      </trkpt>
      <trkpt lat="45.86792" lon="4.63082">
        <ele>344.66711</ele>
        <time>2023-07-04T14:42:03.000Z</time>
      </trkpt>
      <trkpt lat="45.86794" lon="4.63078">
        <ele>344.85446</ele>
        <time>2023-07-04T14:42:04.000Z</time>
      </trkpt>
      <trkpt lat="45.86797" lon="4.63075">
        <ele>345.01779</ele>
        <time>2023-07-04T14:42:05.000Z</time>
      </trkpt>
      <trkpt lat="45.86799" lon="4.63071">
        <ele>345.24753</ele>
        <time>2023-07-04T14:42:06.000Z</time>
      </trkpt>
      <trkpt lat="45.86802" lon="4.63069">
        <ele>345.45825</ele>
        <time>2023-07-04T14:42:07.000Z</time>
      </trkpt>
      <trkpt lat="45.86804" lon="4.63066">
        <ele>345.72803</ele>
        <time>2023-07-04T14:42:08.000Z</time>
      </trkpt>
      <trkpt lat="45.86806" lon="4.63064">
        <ele>345.69345</ele>
        <time>2023-07-04T14:42:09.000Z</time>
      </trkpt>
      <trkpt lat="45.86808" lon="4.63062">
        <ele>345.70581</ele>
        <time>2023-07-04T14:42:10.000Z</time>
      </trkpt>
      <trkpt lat="45.86811" lon="4.6306">
        <ele>345.68121</ele>
        <time>2023-07-04T14:42:11.000Z</time>
      </trkpt>
      <trkpt lat="45.86814" lon="4.63058">
        <ele>345.57416</ele>
        <time>2023-07-04T14:42:12.000Z</time>
      </trkpt>
      <trkpt lat="45.86816" lon="4.63056">
        <ele>345.45752</ele>
        <time>2023-07-04T14:42:13.000Z</time>
      </trkpt>
      <trkpt lat="45.86819" lon="4.63055">
        <ele>345.29337</ele>
        <time>2023-07-04T14:42:14.000Z</time>
      </trkpt>
      <trkpt lat="45.86822" lon="4.63053">
        <ele>345.06958</ele>
        <time>2023-07-04T14:42:15.000Z</time>
      </trkpt>
      <trkpt lat="45.86824" lon="4.63052">
        <ele>344.85526</ele>
        <time>2023-07-04T14:42:16.000Z</time>
      </trkpt>
      <trkpt lat="45.86827" lon="4.6305">
        <ele>344.48923</ele>
        <time>2023-07-04T14:42:17.000Z</time>
      </trkpt>
      <trkpt lat="45.86829" lon="4.63048">
        <ele>344.4328</ele>
        <time>2023-07-04T14:42:18.000Z</time>
      </trkpt>
      <trkpt lat="45.86831" lon="4.63046">
        <ele>344.30469</ele>
        <time>2023-07-04T14:42:19.000Z</time>
      </trkpt>
      <trkpt lat="45.86833" lon="4.63045">
        <ele>345.28934</ele>
        <time>2023-07-04T14:42:20.000Z</time>
      </trkpt>
      <trkpt lat="45.86836" lon="4.63042">
        <ele>346.24762</ele>
        <time>2023-07-04T14:42:21.000Z</time>
      </trkpt>
      <trkpt lat="45.86838" lon="4.63039">
        <ele>347.19244</ele>
        <time>2023-07-04T14:42:22.000Z</time>
      </trkpt>
      <trkpt lat="45.8684" lon="4.63036">
        <ele>348.1947</ele>
        <time>2023-07-04T14:42:23.000Z</time>
      </trkpt>
      <trkpt lat="45.86843" lon="4.63034">
        <ele>349.22366</ele>
        <time>2023-07-04T14:42:24.000Z</time>
      </trkpt>
      <trkpt lat="45.86845" lon="4.63033">
        <ele>350.28308</ele>
        <time>2023-07-04T14:42:25.000Z</time>
      </trkpt>
      <trkpt lat="45.86848" lon="4.63032">
        <ele>351.33429</ele>
        <time>2023-07-04T14:42:26.000Z</time>
      </trkpt>
      <trkpt lat="45.86852" lon="4.6303">
        <ele>352.39178</ele>
        <time>2023-07-04T14:42:27.000Z</time>
      </trkpt>
      <trkpt lat="45.86854" lon="4.63029">
        <ele>353.4837</ele>
        <time>2023-07-04T14:42:28.000Z</time>
      </trkpt>
      <trkpt lat="45.86856" lon="4.63028">
        <ele>354.79211</ele>
        <time>2023-07-04T14:42:29.000Z</time>
      </trkpt>
      <trkpt lat="45.86859" lon="4.63028">
        <ele>356.08041</ele>
        <time>2023-07-04T14:42:30.000Z</time>
      </trkpt>
      <trkpt lat="45.86863" lon="4.63028">
        <ele>357.37836</ele>
        <time>2023-07-04T14:42:31.000Z</time>
      </trkpt>
      <trkpt lat="45.86866" lon="4.6303">
        <ele>357.49118</ele>
        <time>2023-07-04T14:42:32.000Z</time>
      </trkpt>
      <trkpt lat="45.86869" lon="4.63031">
        <ele>357.55768</ele>
        <time>2023-07-04T14:42:33.000Z</time>
      </trkpt>
      <trkpt lat="45.86872" lon="4.63031">
        <ele>357.58783</ele>
        <time>2023-07-04T14:42:34.000Z</time>
      </trkpt>
      <trkpt lat="45.86875" lon="4.63031">
        <ele>357.60162</ele>
        <time>2023-07-04T14:42:35.000Z</time>
      </trkpt>
      <trkpt lat="45.86877" lon="4.63031">
        <ele>357.57651</ele>
        <time>2023-07-04T14:42:36.000Z</time>
      </trkpt>
      <trkpt lat="45.8688" lon="4.6303">
        <ele>357.66254</ele>
        <time>2023-07-04T14:42:37.000Z</time>
      </trkpt>
      <trkpt lat="45.86882" lon="4.63029">
        <ele>357.78427</ele>
        <time>2023-07-04T14:42:38.000Z</time>
      </trkpt>
      <trkpt lat="45.86885" lon="4.63028">
        <ele>357.85257</ele>
        <time>2023-07-04T14:42:39.000Z</time>
      </trkpt>
      <trkpt lat="45.86887" lon="4.63027">
        <ele>356.83917</ele>
        <time>2023-07-04T14:42:40.000Z</time>
      </trkpt>
      <trkpt lat="45.8689" lon="4.63026">
        <ele>355.86349</ele>
        <time>2023-07-04T14:42:41.000Z</time>
      </trkpt>
      <trkpt lat="45.86893" lon="4.63026">
        <ele>354.83411</ele>
        <time>2023-07-04T14:42:42.000Z</time>
      </trkpt>
      <trkpt lat="45.86896" lon="4.63026">
        <ele>353.68295</ele>
        <time>2023-07-04T14:42:43.000Z</time>
      </trkpt>
      <trkpt lat="45.86898" lon="4.63026">
        <ele>352.52783</ele>
        <time>2023-07-04T14:42:44.000Z</time>
      </trkpt>
      <trkpt lat="45.86901" lon="4.63026">
        <ele>351.33868</ele>
        <time>2023-07-04T14:42:45.000Z</time>
      </trkpt>
      <trkpt lat="45.86904" lon="4.63026">
        <ele>350.2475</ele>
        <time>2023-07-04T14:42:46.000Z</time>
      </trkpt>
      <trkpt lat="45.86906" lon="4.63027">
        <ele>349.22211</ele>
        <time>2023-07-04T14:42:47.000Z</time>
      </trkpt>
      <trkpt lat="45.86908" lon="4.63027">
        <ele>348.10748</ele>
        <time>2023-07-04T14:42:48.000Z</time>
      </trkpt>
      <trkpt lat="45.86911" lon="4.63027">
        <ele>346.85703</ele>
        <time>2023-07-04T14:42:49.000Z</time>
      </trkpt>
      <trkpt lat="45.86913" lon="4.63027">
        <ele>345.76932</ele>
        <time>2023-07-04T14:42:50.000Z</time>
      </trkpt>
      <trkpt lat="45.86915" lon="4.63027">
        <ele>344.70639</ele>
        <time>2023-07-04T14:42:51.000Z</time>
      </trkpt>
      <trkpt lat="45.86917" lon="4.63028">
        <ele>344.86444</ele>
        <time>2023-07-04T14:42:52.000Z</time>
      </trkpt>
      <trkpt lat="45.8692" lon="4.63028">
        <ele>345.09531</ele>
        <time>2023-07-04T14:42:53.000Z</time>
      </trkpt>
      <trkpt lat="45.86922" lon="4.63029">
        <ele>345.42743</ele>
        <time>2023-07-04T14:42:54.000Z</time>
      </trkpt>
      <trkpt lat="45.86924" lon="4.63029">
        <ele>345.88406</ele>
        <time>2023-07-04T14:42:55.000Z</time>
      </trkpt>
      <trkpt lat="45.86927" lon="4.63032">
        <ele>346.43686</ele>
        <time>2023-07-04T14:42:57.000Z</time>
      </trkpt>
      <trkpt lat="45.86929" lon="4.63034">
        <ele>346.93033</ele>
        <time>2023-07-04T14:42:58.000Z</time>
      </trkpt>
      <trkpt lat="45.86932" lon="4.63037">
        <ele>347.09515</ele>
        <time>2023-07-04T14:42:59.000Z</time>
      </trkpt>
      <trkpt lat="45.86934" lon="4.6304">
        <ele>347.37338</ele>
        <time>2023-07-04T14:43:00.000Z</time>
      </trkpt>
      <trkpt lat="45.86936" lon="4.63044">
        <ele>347.43021</ele>
        <time>2023-07-04T14:43:01.000Z</time>
      </trkpt>
      <trkpt lat="45.86938" lon="4.63048">
        <ele>347.40857</ele>
        <time>2023-07-04T14:43:02.000Z</time>
      </trkpt>
      <trkpt lat="45.8694" lon="4.63052">
        <ele>347.55862</ele>
        <time>2023-07-04T14:43:03.000Z</time>
      </trkpt>
      <trkpt lat="45.86942" lon="4.63056">
        <ele>348.25659</ele>
        <time>2023-07-04T14:43:04.000Z</time>
      </trkpt>
      <trkpt lat="45.86943" lon="4.6306">
        <ele>348.87659</ele>
        <time>2023-07-04T14:43:05.000Z</time>
      </trkpt>
      <trkpt lat="45.86944" lon="4.63064">
        <ele>349.56122</ele>
        <time>2023-07-04T14:43:06.000Z</time>
      </trkpt>
      <trkpt lat="45.86946" lon="4.63069">
        <ele>350.17813</ele>
        <time>2023-07-04T14:43:07.000Z</time>
      </trkpt>
      <trkpt lat="45.86947" lon="4.63073">
        <ele>350.63849</ele>
        <time>2023-07-04T14:43:08.000Z</time>
      </trkpt>
      <trkpt lat="45.86949" lon="4.63078">
        <ele>351.16098</ele>
        <time>2023-07-04T14:43:09.000Z</time>
      </trkpt>
      <trkpt lat="45.86951" lon="4.63082">
        <ele>351.77814</ele>
        <time>2023-07-04T14:43:10.000Z</time>
      </trkpt>
      <trkpt lat="45.86953" lon="4.63087">
        <ele>352.23846</ele>
        <time>2023-07-04T14:43:11.000Z</time>
      </trkpt>
      <trkpt lat="45.86955" lon="4.63091">
        <ele>352.59991</ele>
        <time>2023-07-04T14:43:12.000Z</time>
      </trkpt>
      <trkpt lat="45.86957" lon="4.63097">
        <ele>352.96066</ele>
        <time>2023-07-04T14:43:13.000Z</time>
      </trkpt>
      <trkpt lat="45.86959" lon="4.63102">
        <ele>353.29712</ele>
        <time>2023-07-04T14:43:14.000Z</time>
      </trkpt>
      <trkpt lat="45.86962" lon="4.63107">
        <ele>353.63556</ele>
        <time>2023-07-04T14:43:15.000Z</time>
      </trkpt>
      <trkpt lat="45.86965" lon="4.63111">
        <ele>353.94604</ele>
        <time>2023-07-04T14:43:16.000Z</time>
      </trkpt>
      <trkpt lat="45.86968" lon="4.63115">
        <ele>354.22937</ele>
        <time>2023-07-04T14:43:17.000Z</time>
      </trkpt>
      <trkpt lat="45.86972" lon="4.63117">
        <ele>354.6348</ele>
        <time>2023-07-04T14:43:18.000Z</time>
      </trkpt>
      <trkpt lat="45.86976" lon="4.63118">
        <ele>354.99023</ele>
        <time>2023-07-04T14:43:19.000Z</time>
      </trkpt>
      <trkpt lat="45.8698" lon="4.63119">
        <ele>355.36285</ele>
        <time>2023-07-04T14:43:20.000Z</time>
      </trkpt>
      <trkpt lat="45.86984" lon="4.6312">
        <ele>355.91052</ele>
        <time>2023-07-04T14:43:21.000Z</time>
      </trkpt>
      <trkpt lat="45.86988" lon="4.63122">
        <ele>356.422</ele>
        <time>2023-07-04T14:43:22.000Z</time>
      </trkpt>
      <trkpt lat="45.86991" lon="4.63124">
        <ele>356.82843</ele>
        <time>2023-07-04T14:43:23.000Z</time>
      </trkpt>
      <trkpt lat="45.86994" lon="4.63126">
        <ele>356.74658</ele>
        <time>2023-07-04T14:43:24.000Z</time>
      </trkpt>
      <trkpt lat="45.86997" lon="4.63129">
        <ele>356.62091</ele>
        <time>2023-07-04T14:43:25.000Z</time>
      </trkpt>
      <trkpt lat="45.87" lon="4.63132">
        <ele>356.78119</ele>
        <time>2023-07-04T14:43:26.000Z</time>
      </trkpt>
      <trkpt lat="45.87002" lon="4.63136">
        <ele>356.8797</ele>
        <time>2023-07-04T14:43:27.000Z</time>
      </trkpt>
      <trkpt lat="45.87004" lon="4.63141">
        <ele>357.06671</ele>
        <time>2023-07-04T14:43:28.000Z</time>
      </trkpt>
      <trkpt lat="45.87005" lon="4.63146">
        <ele>357.22583</ele>
        <time>2023-07-04T14:43:29.000Z</time>
      </trkpt>
      <trkpt lat="45.87006" lon="4.63151">
        <ele>357.37305</ele>
        <time>2023-07-04T14:43:30.000Z</time>
      </trkpt>
      <trkpt lat="45.87008" lon="4.63157">
        <ele>357.47858</ele>
        <time>2023-07-04T14:43:31.000Z</time>
      </trkpt>
      <trkpt lat="45.87009" lon="4.63162">
        <ele>357.67413</ele>
        <time>2023-07-04T14:43:32.000Z</time>
      </trkpt>
      <trkpt lat="45.87011" lon="4.63167">
        <ele>357.88989</ele>
        <time>2023-07-04T14:43:33.000Z</time>
      </trkpt>
      <trkpt lat="45.87013" lon="4.63172">
        <ele>358.08896</ele>
        <time>2023-07-04T14:43:34.000Z</time>
      </trkpt>
      <trkpt lat="45.87015" lon="4.63176">
        <ele>358.21759</ele>
        <time>2023-07-04T14:43:35.000Z</time>
      </trkpt>
      <trkpt lat="45.87017" lon="4.6318">
        <ele>358.05341</ele>
        <time>2023-07-04T14:43:36.000Z</time>
      </trkpt>
      <trkpt lat="45.87019" lon="4.63184">
        <ele>357.84091</ele>
        <time>2023-07-04T14:43:37.000Z</time>
      </trkpt>
      <trkpt lat="45.87022" lon="4.63187">
        <ele>357.57831</ele>
        <time>2023-07-04T14:43:38.000Z</time>
      </trkpt>
      <trkpt lat="45.87024" lon="4.6319">
        <ele>357.7005</ele>
        <time>2023-07-04T14:43:39.000Z</time>
      </trkpt>
      <trkpt lat="45.87027" lon="4.63193">
        <ele>357.74506</ele>
        <time>2023-07-04T14:43:40.000Z</time>
      </trkpt>
      <trkpt lat="45.8703" lon="4.63196">
        <ele>357.80182</ele>
        <time>2023-07-04T14:43:41.000Z</time>
      </trkpt>
      <trkpt lat="45.87033" lon="4.63199">
        <ele>357.99115</ele>
        <time>2023-07-04T14:43:42.000Z</time>
      </trkpt>
      <trkpt lat="45.87036" lon="4.63202">
        <ele>358.22128</ele>
        <time>2023-07-04T14:43:43.000Z</time>
      </trkpt>
      <trkpt lat="45.87038" lon="4.63205">
        <ele>358.45709</ele>
        <time>2023-07-04T14:43:44.000Z</time>
      </trkpt>
      <trkpt lat="45.8704" lon="4.63207">
        <ele>358.84253</ele>
        <time>2023-07-04T14:43:45.000Z</time>
      </trkpt>
      <trkpt lat="45.87043" lon="4.63209">
        <ele>358.91229</ele>
        <time>2023-07-04T14:43:46.000Z</time>
      </trkpt>
      <trkpt lat="45.87046" lon="4.63211">
        <ele>359.00693</ele>
        <time>2023-07-04T14:43:47.000Z</time>
      </trkpt>
      <trkpt lat="45.87049" lon="4.63212">
        <ele>358.81619</ele>
        <time>2023-07-04T14:43:48.000Z</time>
      </trkpt>
      <trkpt lat="45.87051" lon="4.63214">
        <ele>358.56866</ele>
        <time>2023-07-04T14:43:49.000Z</time>
      </trkpt>
      <trkpt lat="45.87054" lon="4.63215">
        <ele>358.25757</ele>
        <time>2023-07-04T14:43:50.000Z</time>
      </trkpt>
      <trkpt lat="45.87056" lon="4.63216">
        <ele>357.69327</ele>
        <time>2023-07-04T14:43:51.000Z</time>
      </trkpt>
      <trkpt lat="45.87058" lon="4.63217">
        <ele>357.06561</ele>
        <time>2023-07-04T14:43:52.000Z</time>
      </trkpt>
      <trkpt lat="45.87062" lon="4.63218">
        <ele>356.88275</ele>
        <time>2023-07-04T14:43:53.000Z</time>
      </trkpt>
      <trkpt lat="45.87066" lon="4.63219">
        <ele>356.57904</ele>
        <time>2023-07-04T14:43:54.000Z</time>
      </trkpt>
      <trkpt lat="45.87069" lon="4.6322">
        <ele>356.3172</ele>
        <time>2023-07-04T14:43:55.000Z</time>
      </trkpt>
      <trkpt lat="45.87073" lon="4.63221">
        <ele>356.17291</ele>
        <time>2023-07-04T14:43:56.000Z</time>
      </trkpt>
      <trkpt lat="45.87076" lon="4.63222">
        <ele>356.03424</ele>
        <time>2023-07-04T14:43:57.000Z</time>
      </trkpt>
      <trkpt lat="45.87079" lon="4.63223">
        <ele>355.86481</ele>
        <time>2023-07-04T14:43:58.000Z</time>
      </trkpt>
      <trkpt lat="45.87082" lon="4.63223">
        <ele>355.37909</ele>
        <time>2023-07-04T14:43:59.000Z</time>
      </trkpt>
      <trkpt lat="45.87084" lon="4.63224">
        <ele>354.67398</ele>
        <time>2023-07-04T14:44:00.000Z</time>
      </trkpt>
      <trkpt lat="45.87087" lon="4.63224">
        <ele>353.96866</ele>
        <time>2023-07-04T14:44:01.000Z</time>
      </trkpt>
      <trkpt lat="45.87091" lon="4.63225">
        <ele>353.21643</ele>
        <time>2023-07-04T14:44:02.000Z</time>
      </trkpt>
      <trkpt lat="45.87094" lon="4.63225">
        <ele>352.27277</ele>
        <time>2023-07-04T14:44:03.000Z</time>
      </trkpt>
      <trkpt lat="45.87097" lon="4.63226">
        <ele>351.74011</ele>
        <time>2023-07-04T14:44:04.000Z</time>
      </trkpt>
      <trkpt lat="45.87101" lon="4.63227">
        <ele>351.12299</ele>
        <time>2023-07-04T14:44:05.000Z</time>
      </trkpt>
      <trkpt lat="45.87104" lon="4.63228">
        <ele>350.42224</ele>
        <time>2023-07-04T14:44:06.000Z</time>
      </trkpt>
      <trkpt lat="45.87107" lon="4.63229">
        <ele>349.73587</ele>
        <time>2023-07-04T14:44:07.000Z</time>
      </trkpt>
      <trkpt lat="45.87111" lon="4.63232">
        <ele>349.33472</ele>
        <time>2023-07-04T14:44:08.000Z</time>
      </trkpt>
      <trkpt lat="45.87114" lon="4.63233">
        <ele>348.74203</ele>
        <time>2023-07-04T14:44:09.000Z</time>
      </trkpt>
      <trkpt lat="45.87118" lon="4.63233">
        <ele>348.12091</ele>
        <time>2023-07-04T14:44:10.000Z</time>
      </trkpt>
      <trkpt lat="45.8712" lon="4.6323">
        <ele>347.82733</ele>
        <time>2023-07-04T14:44:11.000Z</time>
      </trkpt>
      <trkpt lat="45.87121" lon="4.63227">
        <ele>347.55026</ele>
        <time>2023-07-04T14:44:12.000Z</time>
      </trkpt>
      <trkpt lat="45.87121" lon="4.63223">
        <ele>346.87601</ele>
        <time>2023-07-04T14:44:13.000Z</time>
      </trkpt>
      <trkpt lat="45.8712" lon="4.63218">
        <ele>346.4129</ele>
        <time>2023-07-04T14:44:14.000Z</time>
      </trkpt>
      <trkpt lat="45.87119" lon="4.63215">
        <ele>345.7655</ele>
        <time>2023-07-04T14:44:15.000Z</time>
      </trkpt>
      <trkpt lat="45.87119" lon="4.63211">
        <ele>345.65323</ele>
        <time>2023-07-04T14:44:16.000Z</time>
      </trkpt>
      <trkpt lat="45.87119" lon="4.63208">
        <ele>345.48813</ele>
        <time>2023-07-04T14:44:17.000Z</time>
      </trkpt>
      <trkpt lat="45.87119" lon="4.63205">
        <ele>345.349</ele>
        <time>2023-07-04T14:44:18.000Z</time>
      </trkpt>
      <trkpt lat="45.8712" lon="4.63202">
        <ele>345.15094</ele>
        <time>2023-07-04T14:44:19.000Z</time>
      </trkpt>
      <trkpt lat="45.8712" lon="4.63198">
        <ele>345.01599</ele>
        <time>2023-07-04T14:44:20.000Z</time>
      </trkpt>
      <trkpt lat="45.87121" lon="4.63195">
        <ele>344.7511</ele>
        <time>2023-07-04T14:44:21.000Z</time>
      </trkpt>
      <trkpt lat="45.87122" lon="4.63191">
        <ele>344.49261</ele>
        <time>2023-07-04T14:44:22.000Z</time>
      </trkpt>
      <trkpt lat="45.87123" lon="4.63188">
        <ele>344.77478</ele>
        <time>2023-07-04T14:44:23.000Z</time>
      </trkpt>
      <trkpt lat="45.87123" lon="4.63185">
        <ele>344.56497</ele>
        <time>2023-07-04T14:44:24.000Z</time>
      </trkpt>
      <trkpt lat="45.87123" lon="4.63181">
        <ele>344.3866</ele>
        <time>2023-07-04T14:44:25.000Z</time>
      </trkpt>
      <trkpt lat="45.87123" lon="4.63177">
        <ele>344.23224</ele>
        <time>2023-07-04T14:44:26.000Z</time>
      </trkpt>
      <trkpt lat="45.87123" lon="4.63174">
        <ele>344.08713</ele>
        <time>2023-07-04T14:44:27.000Z</time>
      </trkpt>
      <trkpt lat="45.87122" lon="4.6317">
        <ele>343.93481</ele>
        <time>2023-07-04T14:44:28.000Z</time>
      </trkpt>
      <trkpt lat="45.87121" lon="4.63165">
        <ele>344.06058</ele>
        <time>2023-07-04T14:44:29.000Z</time>
      </trkpt>
      <trkpt lat="45.8712" lon="4.63161">
        <ele>344.18878</ele>
        <time>2023-07-04T14:44:30.000Z</time>
      </trkpt>
      <trkpt lat="45.8712" lon="4.63157">
        <ele>344.14679</ele>
        <time>2023-07-04T14:44:31.000Z</time>
      </trkpt>
      <trkpt lat="45.87119" lon="4.63153">
        <ele>344.05057</ele>
        <time>2023-07-04T14:44:32.000Z</time>
      </trkpt>
      <trkpt lat="45.87118" lon="4.63149">
        <ele>343.83676</ele>
        <time>2023-07-04T14:44:33.000Z</time>
      </trkpt>
      <trkpt lat="45.87118" lon="4.63145">
        <ele>343.50443</ele>
        <time>2023-07-04T14:44:34.000Z</time>
      </trkpt>
      <trkpt lat="45.87118" lon="4.63141">
        <ele>343.33014</ele>
        <time>2023-07-04T14:44:35.000Z</time>
      </trkpt>
      <trkpt lat="45.87118" lon="4.63136">
        <ele>342.76135</ele>
        <time>2023-07-04T14:44:36.000Z</time>
      </trkpt>
      <trkpt lat="45.87119" lon="4.63132">
        <ele>342.2182</ele>
        <time>2023-07-04T14:44:37.000Z</time>
      </trkpt>
      <trkpt lat="45.8712" lon="4.63129">
        <ele>341.69095</ele>
        <time>2023-07-04T14:44:38.000Z</time>
      </trkpt>
      <trkpt lat="45.87121" lon="4.63125">
        <ele>341.10284</ele>
        <time>2023-07-04T14:44:39.000Z</time>
      </trkpt>
      <trkpt lat="45.87121" lon="4.63121">
        <ele>340.72455</ele>
        <time>2023-07-04T14:44:40.000Z</time>
      </trkpt>
      <trkpt lat="45.87121" lon="4.63117">
        <ele>340.73755</ele>
        <time>2023-07-04T14:44:41.000Z</time>
      </trkpt>
      <trkpt lat="45.87121" lon="4.63113">
        <ele>340.70401</ele>
        <time>2023-07-04T14:44:42.000Z</time>
      </trkpt>
      <trkpt lat="45.87121" lon="4.63109">
        <ele>340.31848</ele>
        <time>2023-07-04T14:44:43.000Z</time>
      </trkpt>
      <trkpt lat="45.87122" lon="4.63105">
        <ele>340.00677</ele>
        <time>2023-07-04T14:44:44.000Z</time>
      </trkpt>
      <trkpt lat="45.87123" lon="4.63103">
        <ele>339.70032</ele>
        <time>2023-07-04T14:44:45.000Z</time>
      </trkpt>
      <trkpt lat="45.87125" lon="4.63099">
        <ele>339.46063</ele>
        <time>2023-07-04T14:44:46.000Z</time>
      </trkpt>
      <trkpt lat="45.87127" lon="4.63095">
        <ele>339.23834</ele>
        <time>2023-07-04T14:44:47.000Z</time>
      </trkpt>
      <trkpt lat="45.87128" lon="4.63091">
        <ele>339.00861</ele>
        <time>2023-07-04T14:44:48.000Z</time>
      </trkpt>
      <trkpt lat="45.8713" lon="4.63089">
        <ele>338.75677</ele>
        <time>2023-07-04T14:44:49.000Z</time>
      </trkpt>
      <trkpt lat="45.87132" lon="4.63087">
        <ele>338.54443</ele>
        <time>2023-07-04T14:44:50.000Z</time>
      </trkpt>
      <trkpt lat="45.87133" lon="4.63083">
        <ele>338.47919</ele>
        <time>2023-07-04T14:44:51.000Z</time>
      </trkpt>
      <trkpt lat="45.87135" lon="4.63079">
        <ele>338.40109</ele>
        <time>2023-07-04T14:44:52.000Z</time>
      </trkpt>
      <trkpt lat="45.87136" lon="4.63075">
        <ele>338.41772</ele>
        <time>2023-07-04T14:44:53.000Z</time>
      </trkpt>
      <trkpt lat="45.87138" lon="4.63072">
        <ele>338.53345</ele>
        <time>2023-07-04T14:44:54.000Z</time>
      </trkpt>
      <trkpt lat="45.87139" lon="4.63068">
        <ele>338.7233</ele>
        <time>2023-07-04T14:44:55.000Z</time>
      </trkpt>
      <trkpt lat="45.87141" lon="4.63066">
        <ele>338.88275</ele>
        <time>2023-07-04T14:44:56.000Z</time>
      </trkpt>
      <trkpt lat="45.87143" lon="4.63064">
        <ele>339.00024</ele>
        <time>2023-07-04T14:44:57.000Z</time>
      </trkpt>
      <trkpt lat="45.87145" lon="4.63062">
        <ele>339.53867</ele>
        <time>2023-07-04T14:44:58.000Z</time>
      </trkpt>
      <trkpt lat="45.87147" lon="4.6306">
        <ele>340.09659</ele>
        <time>2023-07-04T14:44:59.000Z</time>
      </trkpt>
      <trkpt lat="45.87149" lon="4.63057">
        <ele>340.70099</ele>
        <time>2023-07-04T14:45:00.000Z</time>
      </trkpt>
      <trkpt lat="45.87151" lon="4.63054">
        <ele>341.06421</ele>
        <time>2023-07-04T14:45:01.000Z</time>
      </trkpt>
      <trkpt lat="45.87154" lon="4.63052">
        <ele>341.49921</ele>
        <time>2023-07-04T14:45:02.000Z</time>
      </trkpt>
      <trkpt lat="45.87156" lon="4.6305">
        <ele>341.98083</ele>
        <time>2023-07-04T14:45:03.000Z</time>
      </trkpt>
      <trkpt lat="45.87159" lon="4.63049">
        <ele>342.33795</ele>
        <time>2023-07-04T14:45:04.000Z</time>
      </trkpt>
      <trkpt lat="45.87161" lon="4.63047">
        <ele>342.84732</ele>
        <time>2023-07-04T14:45:05.000Z</time>
      </trkpt>
      <trkpt lat="45.87164" lon="4.63046">
        <ele>343.29352</ele>
        <time>2023-07-04T14:45:06.000Z</time>
      </trkpt>
      <trkpt lat="45.87168" lon="4.63044">
        <ele>343.77066</ele>
        <time>2023-07-04T14:45:07.000Z</time>
      </trkpt>
      <trkpt lat="45.87171" lon="4.63043">
        <ele>344.31097</ele>
        <time>2023-07-04T14:45:08.000Z</time>
      </trkpt>
      <trkpt lat="45.87174" lon="4.63042">
        <ele>344.79681</ele>
        <time>2023-07-04T14:45:09.000Z</time>
      </trkpt>
      <trkpt lat="45.87177" lon="4.63041">
        <ele>345.38629</ele>
        <time>2023-07-04T14:45:10.000Z</time>
      </trkpt>
      <trkpt lat="45.8718" lon="4.63039">
        <ele>346.444</ele>
        <time>2023-07-04T14:45:11.000Z</time>
      </trkpt>
      <trkpt lat="45.87183" lon="4.63038">
        <ele>347.60992</ele>
        <time>2023-07-04T14:45:12.000Z</time>
      </trkpt>
      <trkpt lat="45.87186" lon="4.63037">
        <ele>348.8576</ele>
        <time>2023-07-04T14:45:13.000Z</time>
      </trkpt>
      <trkpt lat="45.87189" lon="4.63036">
        <ele>350.07175</ele>
        <time>2023-07-04T14:45:14.000Z</time>
      </trkpt>
      <trkpt lat="45.87193" lon="4.63034">
        <ele>351.0791</ele>
        <time>2023-07-04T14:45:15.000Z</time>
      </trkpt>
      <trkpt lat="45.87196" lon="4.63032">
        <ele>352.12399</ele>
        <time>2023-07-04T14:45:16.000Z</time>
      </trkpt>
      <trkpt lat="45.87199" lon="4.63029">
        <ele>353.34418</ele>
        <time>2023-07-04T14:45:17.000Z</time>
      </trkpt>
      <trkpt lat="45.87202" lon="4.63027">
        <ele>354.28217</ele>
        <time>2023-07-04T14:45:18.000Z</time>
      </trkpt>
      <trkpt lat="45.87205" lon="4.63024">
        <ele>355.36261</ele>
        <time>2023-07-04T14:45:19.000Z</time>
      </trkpt>
      <trkpt lat="45.87208" lon="4.63021">
        <ele>356.19379</ele>
        <time>2023-07-04T14:45:20.000Z</time>
      </trkpt>
      <trkpt lat="45.87211" lon="4.63019">
        <ele>357.034</ele>
        <time>2023-07-04T14:45:21.000Z</time>
      </trkpt>
      <trkpt lat="45.87214" lon="4.63016">
        <ele>357.86545</ele>
        <time>2023-07-04T14:45:22.000Z</time>
      </trkpt>
      <trkpt lat="45.87218" lon="4.63012">
        <ele>358.46512</ele>
        <time>2023-07-04T14:45:23.000Z</time>
      </trkpt>
      <trkpt lat="45.87221" lon="4.63009">
        <ele>359.67783</ele>
        <time>2023-07-04T14:45:24.000Z</time>
      </trkpt>
      <trkpt lat="45.87225" lon="4.63007">
        <ele>360.6167</ele>
        <time>2023-07-04T14:45:25.000Z</time>
      </trkpt>
      <trkpt lat="45.8723" lon="4.63006">
        <ele>361.52448</ele>
        <time>2023-07-04T14:45:26.000Z</time>
      </trkpt>
      <trkpt lat="45.87233" lon="4.63005">
        <ele>362.37384</ele>
        <time>2023-07-04T14:45:27.000Z</time>
      </trkpt>
      <trkpt lat="45.87236" lon="4.63004">
        <ele>363.15631</ele>
        <time>2023-07-04T14:45:28.000Z</time>
      </trkpt>
      <trkpt lat="45.87239" lon="4.63003">
        <ele>364.08749</ele>
        <time>2023-07-04T14:45:29.000Z</time>
      </trkpt>
      <trkpt lat="45.87242" lon="4.63001">
        <ele>364.74103</ele>
        <time>2023-07-04T14:45:30.000Z</time>
      </trkpt>
      <trkpt lat="45.87244" lon="4.62999">
        <ele>364.90961</ele>
        <time>2023-07-04T14:45:31.000Z</time>
      </trkpt>
      <trkpt lat="45.87247" lon="4.62997">
        <ele>365.08795</ele>
        <time>2023-07-04T14:45:32.000Z</time>
      </trkpt>
      <trkpt lat="45.87249" lon="4.62995">
        <ele>365.01331</ele>
        <time>2023-07-04T14:45:33.000Z</time>
      </trkpt>
      <trkpt lat="45.87253" lon="4.62993">
        <ele>365.4184</ele>
        <time>2023-07-04T14:45:34.000Z</time>
      </trkpt>
      <trkpt lat="45.87257" lon="4.62992">
        <ele>365.858</ele>
        <time>2023-07-04T14:45:35.000Z</time>
      </trkpt>
      <trkpt lat="45.8726" lon="4.6299">
        <ele>366.29425</ele>
        <time>2023-07-04T14:45:36.000Z</time>
      </trkpt>
      <trkpt lat="45.87264" lon="4.62989">
        <ele>366.61142</ele>
        <time>2023-07-04T14:45:37.000Z</time>
      </trkpt>
      <trkpt lat="45.87268" lon="4.62989">
        <ele>366.82431</ele>
        <time>2023-07-04T14:45:38.000Z</time>
      </trkpt>
      <trkpt lat="45.87271" lon="4.62989">
        <ele>366.95526</ele>
        <time>2023-07-04T14:45:39.000Z</time>
      </trkpt>
      <trkpt lat="45.87274" lon="4.62989">
        <ele>366.86407</ele>
        <time>2023-07-04T14:45:40.000Z</time>
      </trkpt>
      <trkpt lat="45.87277" lon="4.62988">
        <ele>366.9682</ele>
        <time>2023-07-04T14:45:41.000Z</time>
      </trkpt>
      <trkpt lat="45.87281" lon="4.62988">
        <ele>367.08374</ele>
        <time>2023-07-04T14:45:42.000Z</time>
      </trkpt>
      <trkpt lat="45.87285" lon="4.62989">
        <ele>367.36737</ele>
        <time>2023-07-04T14:45:43.000Z</time>
      </trkpt>
      <trkpt lat="45.87289" lon="4.62989">
        <ele>368.62299</ele>
        <time>2023-07-04T14:45:44.000Z</time>
      </trkpt>
      <trkpt lat="45.87292" lon="4.6299">
        <ele>370.06967</ele>
        <time>2023-07-04T14:45:45.000Z</time>
      </trkpt>
      <trkpt lat="45.87294" lon="4.62991">
        <ele>371.66193</ele>
        <time>2023-07-04T14:45:46.000Z</time>
      </trkpt>
      <trkpt lat="45.87297" lon="4.62992">
        <ele>373.40259</ele>
        <time>2023-07-04T14:45:47.000Z</time>
      </trkpt>
      <trkpt lat="45.87301" lon="4.62992">
        <ele>373.76923</ele>
        <time>2023-07-04T14:45:48.000Z</time>
      </trkpt>
      <trkpt lat="45.87307" lon="4.6299">
        <ele>374.06509</ele>
        <time>2023-07-04T14:45:49.000Z</time>
      </trkpt>
      <trkpt lat="45.87312" lon="4.62989">
        <ele>374.55542</ele>
        <time>2023-07-04T14:45:50.000Z</time>
      </trkpt>
      <trkpt lat="45.87318" lon="4.62989">
        <ele>375.05438</ele>
        <time>2023-07-04T14:45:51.000Z</time>
      </trkpt>
      <trkpt lat="45.87323" lon="4.62988">
        <ele>375.56964</ele>
        <time>2023-07-04T14:45:52.000Z</time>
      </trkpt>
      <trkpt lat="45.87328" lon="4.62985">
        <ele>377.90271</ele>
        <time>2023-07-04T14:45:53.000Z</time>
      </trkpt>
      <trkpt lat="45.87332" lon="4.62982">
        <ele>378.20273</ele>
        <time>2023-07-04T14:45:54.000Z</time>
      </trkpt>
      <trkpt lat="45.87335" lon="4.62977">
        <ele>379.64087</ele>
        <time>2023-07-04T14:45:55.000Z</time>
      </trkpt>
      <trkpt lat="45.8734" lon="4.62975">
        <ele>380.69485</ele>
        <time>2023-07-04T14:45:56.000Z</time>
      </trkpt>
      <trkpt lat="45.87344" lon="4.62971">
        <ele>381.53168</ele>
        <time>2023-07-04T14:45:57.000Z</time>
      </trkpt>
      <trkpt lat="45.87346" lon="4.62965">
        <ele>382.24042</ele>
        <time>2023-07-04T14:45:58.000Z</time>
      </trkpt>
      <trkpt lat="45.87352" lon="4.62962">
        <ele>382.83255</ele>
        <time>2023-07-04T14:45:59.000Z</time>
      </trkpt>
      <trkpt lat="45.87357" lon="4.62961">
        <ele>383.83987</ele>
        <time>2023-07-04T14:46:00.000Z</time>
      </trkpt>
      <trkpt lat="45.87361" lon="4.62959">
        <ele>384.55688</ele>
        <time>2023-07-04T14:46:01.000Z</time>
      </trkpt>
      <trkpt lat="45.87367" lon="4.6296">
        <ele>385.19699</ele>
        <time>2023-07-04T14:46:02.000Z</time>
      </trkpt>
      <trkpt lat="45.87372" lon="4.6296">
        <ele>385.77432</ele>
        <time>2023-07-04T14:46:03.000Z</time>
      </trkpt>
      <trkpt lat="45.87377" lon="4.6296">
        <ele>384.88217</ele>
        <time>2023-07-04T14:46:04.000Z</time>
      </trkpt>
      <trkpt lat="45.87383" lon="4.62961">
        <ele>383.90933</ele>
        <time>2023-07-04T14:46:05.000Z</time>
      </trkpt>
      <trkpt lat="45.87388" lon="4.6296">
        <ele>382.83115</ele>
        <time>2023-07-04T14:46:06.000Z</time>
      </trkpt>
      <trkpt lat="45.87394" lon="4.6296">
        <ele>381.58038</ele>
        <time>2023-07-04T14:46:07.000Z</time>
      </trkpt>
      <trkpt lat="45.87399" lon="4.62961">
        <ele>381.7049</ele>
        <time>2023-07-04T14:46:08.000Z</time>
      </trkpt>
      <trkpt lat="45.87405" lon="4.62962">
        <ele>381.79153</ele>
        <time>2023-07-04T14:46:09.000Z</time>
      </trkpt>
      <trkpt lat="45.87411" lon="4.62964">
        <ele>381.84647</ele>
        <time>2023-07-04T14:46:10.000Z</time>
      </trkpt>
      <trkpt lat="45.87417" lon="4.62962">
        <ele>381.7453</ele>
        <time>2023-07-04T14:46:11.000Z</time>
      </trkpt>
      <trkpt lat="45.87424" lon="4.62959">
        <ele>381.49652</ele>
        <time>2023-07-04T14:46:12.000Z</time>
      </trkpt>
      <trkpt lat="45.87431" lon="4.62954">
        <ele>379.45584</ele>
        <time>2023-07-04T14:46:13.000Z</time>
      </trkpt>
      <trkpt lat="45.87438" lon="4.62949">
        <ele>378.79962</ele>
        <time>2023-07-04T14:46:14.000Z</time>
      </trkpt>
      <trkpt lat="45.87446" lon="4.62945">
        <ele>377.06137</ele>
        <time>2023-07-04T14:46:15.000Z</time>
      </trkpt>
      <trkpt lat="45.87455" lon="4.62941">
        <ele>375.6517</ele>
        <time>2023-07-04T14:46:16.000Z</time>
      </trkpt>
      <trkpt lat="45.87464" lon="4.62939">
        <ele>374.42194</ele>
        <time>2023-07-04T14:46:17.000Z</time>
      </trkpt>
      <trkpt lat="45.87474" lon="4.62935">
        <ele>373.20453</ele>
        <time>2023-07-04T14:46:18.000Z</time>
      </trkpt>
      <trkpt lat="45.87483" lon="4.62931">
        <ele>372.05792</ele>
        <time>2023-07-04T14:46:19.000Z</time>
      </trkpt>
      <trkpt lat="45.87493" lon="4.62928">
        <ele>370.86224</ele>
        <time>2023-07-04T14:46:20.000Z</time>
      </trkpt>
      <trkpt lat="45.87503" lon="4.62927">
        <ele>369.67444</ele>
        <time>2023-07-04T14:46:21.000Z</time>
      </trkpt>
      <trkpt lat="45.87512" lon="4.62927">
        <ele>368.53168</ele>
        <time>2023-07-04T14:46:22.000Z</time>
      </trkpt>
      <trkpt lat="45.87521" lon="4.62928">
        <ele>367.39819</ele>
        <time>2023-07-04T14:46:23.000Z</time>
      </trkpt>
      <trkpt lat="45.87531" lon="4.62928">
        <ele>366.21054</ele>
        <time>2023-07-04T14:46:24.000Z</time>
      </trkpt>
      <trkpt lat="45.87539" lon="4.6293">
        <ele>365.05774</ele>
        <time>2023-07-04T14:46:25.000Z</time>
      </trkpt>
      <trkpt lat="45.87547" lon="4.62931">
        <ele>363.90125</ele>
        <time>2023-07-04T14:46:26.000Z</time>
      </trkpt>
      <trkpt lat="45.87555" lon="4.62932">
        <ele>362.74078</ele>
        <time>2023-07-04T14:46:27.000Z</time>
      </trkpt>
      <trkpt lat="45.87562" lon="4.62934">
        <ele>361.53656</ele>
        <time>2023-07-04T14:46:28.000Z</time>
      </trkpt>
      <trkpt lat="45.87572" lon="4.62935">
        <ele>360.27008</ele>
        <time>2023-07-04T14:46:29.000Z</time>
      </trkpt>
      <trkpt lat="45.87581" lon="4.62936">
        <ele>359.00531</ele>
        <time>2023-07-04T14:46:30.000Z</time>
      </trkpt>
      <trkpt lat="45.8759" lon="4.62937">
        <ele>357.83527</ele>
        <time>2023-07-04T14:46:31.000Z</time>
      </trkpt>
      <trkpt lat="45.87598" lon="4.62938">
        <ele>356.71475</ele>
        <time>2023-07-04T14:46:32.000Z</time>
      </trkpt>
      <trkpt lat="45.87605" lon="4.62939">
        <ele>355.68671</ele>
        <time>2023-07-04T14:46:33.000Z</time>
      </trkpt>
      <trkpt lat="45.87612" lon="4.62939">
        <ele>354.77802</ele>
        <time>2023-07-04T14:46:34.000Z</time>
      </trkpt>
      <trkpt lat="45.87618" lon="4.6294">
        <ele>353.87329</ele>
        <time>2023-07-04T14:46:35.000Z</time>
      </trkpt>
      <trkpt lat="45.87624" lon="4.6294">
        <ele>352.98608</ele>
        <time>2023-07-04T14:46:36.000Z</time>
      </trkpt>
      <trkpt lat="45.87629" lon="4.6294">
        <ele>352.11682</ele>
        <time>2023-07-04T14:46:37.000Z</time>
      </trkpt>
      <trkpt lat="45.87634" lon="4.6294">
        <ele>351.32373</ele>
        <time>2023-07-04T14:46:38.000Z</time>
      </trkpt>
      <trkpt lat="45.87638" lon="4.62939">
        <ele>350.55695</ele>
        <time>2023-07-04T14:46:39.000Z</time>
      </trkpt>
      <trkpt lat="45.87641" lon="4.62936">
        <ele>349.82953</ele>
        <time>2023-07-04T14:46:40.000Z</time>
      </trkpt>
      <trkpt lat="45.87643" lon="4.62931">
        <ele>349.15558</ele>
        <time>2023-07-04T14:46:41.000Z</time>
      </trkpt>
      <trkpt lat="45.87644" lon="4.62926">
        <ele>348.48099</ele>
        <time>2023-07-04T14:46:42.000Z</time>
      </trkpt>
      <trkpt lat="45.87645" lon="4.6292">
        <ele>347.85751</ele>
        <time>2023-07-04T14:46:43.000Z</time>
      </trkpt>
      <trkpt lat="45.87645" lon="4.62914">
        <ele>347.28268</ele>
        <time>2023-07-04T14:46:44.000Z</time>
      </trkpt>
      <trkpt lat="45.87647" lon="4.62907">
        <ele>346.73578</ele>
        <time>2023-07-04T14:46:45.000Z</time>
      </trkpt>
      <trkpt lat="45.87648" lon="4.629">
        <ele>346.33194</ele>
        <time>2023-07-04T14:46:46.000Z</time>
      </trkpt>
      <trkpt lat="45.8765" lon="4.62894">
        <ele>345.94684</ele>
        <time>2023-07-04T14:46:47.000Z</time>
      </trkpt>
      <trkpt lat="45.87652" lon="4.62887">
        <ele>345.69928</ele>
        <time>2023-07-04T14:46:48.000Z</time>
      </trkpt>
      <trkpt lat="45.87654" lon="4.6288">
        <ele>345.25146</ele>
        <time>2023-07-04T14:46:49.000Z</time>
      </trkpt>
      <trkpt lat="45.87656" lon="4.62873">
        <ele>344.88223</ele>
        <time>2023-07-04T14:46:50.000Z</time>
      </trkpt>
      <trkpt lat="45.87658" lon="4.62866">
        <ele>344.53781</ele>
        <time>2023-07-04T14:46:51.000Z</time>
      </trkpt>
      <trkpt lat="45.87661" lon="4.62859">
        <ele>344.26495</ele>
        <time>2023-07-04T14:46:52.000Z</time>
      </trkpt>
      <trkpt lat="45.87662" lon="4.62851">
        <ele>344.02283</ele>
        <time>2023-07-04T14:46:53.000Z</time>
      </trkpt>
      <trkpt lat="45.87663" lon="4.62843">
        <ele>343.77972</ele>
        <time>2023-07-04T14:46:54.000Z</time>
      </trkpt>
      <trkpt lat="45.87664" lon="4.62835">
        <ele>343.55109</ele>
        <time>2023-07-04T14:46:55.000Z</time>
      </trkpt>
      <trkpt lat="45.87666" lon="4.62827">
        <ele>343.49347</ele>
        <time>2023-07-04T14:46:56.000Z</time>
      </trkpt>
      <trkpt lat="45.87667" lon="4.62819">
        <ele>343.45175</ele>
        <time>2023-07-04T14:46:57.000Z</time>
      </trkpt>
      <trkpt lat="45.87669" lon="4.6281">
        <ele>343.5119</ele>
        <time>2023-07-04T14:46:58.000Z</time>
      </trkpt>
      <trkpt lat="45.8767" lon="4.62802">
        <ele>343.28409</ele>
        <time>2023-07-04T14:46:59.000Z</time>
      </trkpt>
      <trkpt lat="45.87672" lon="4.62793">
        <ele>343.11798</ele>
        <time>2023-07-04T14:47:00.000Z</time>
      </trkpt>
      <trkpt lat="45.87673" lon="4.62784">
        <ele>342.93106</ele>
        <time>2023-07-04T14:47:01.000Z</time>
      </trkpt>
      <trkpt lat="45.87674" lon="4.62776">
        <ele>342.76389</ele>
        <time>2023-07-04T14:47:02.000Z</time>
      </trkpt>
      <trkpt lat="45.87676" lon="4.62767">
        <ele>342.59399</ele>
        <time>2023-07-04T14:47:03.000Z</time>
      </trkpt>
      <trkpt lat="45.87679" lon="4.62759">
        <ele>342.41434</ele>
        <time>2023-07-04T14:47:04.000Z</time>
      </trkpt>
      <trkpt lat="45.87681" lon="4.62751">
        <ele>342.22156</ele>
        <time>2023-07-04T14:47:05.000Z</time>
      </trkpt>
      <trkpt lat="45.87684" lon="4.62742">
        <ele>341.91855</ele>
        <time>2023-07-04T14:47:06.000Z</time>
      </trkpt>
      <trkpt lat="45.87686" lon="4.62735">
        <ele>341.62427</ele>
        <time>2023-07-04T14:47:07.000Z</time>
      </trkpt>
      <trkpt lat="45.87688" lon="4.62728">
        <ele>341.28326</ele>
        <time>2023-07-04T14:47:08.000Z</time>
      </trkpt>
      <trkpt lat="45.87691" lon="4.62721">
        <ele>341.35587</ele>
        <time>2023-07-04T14:47:09.000Z</time>
      </trkpt>
      <trkpt lat="45.87694" lon="4.62713">
        <ele>341.379</ele>
        <time>2023-07-04T14:47:10.000Z</time>
      </trkpt>
      <trkpt lat="45.87697" lon="4.62706">
        <ele>341.42578</ele>
        <time>2023-07-04T14:47:11.000Z</time>
      </trkpt>
      <trkpt lat="45.877" lon="4.62699">
        <ele>341.56595</ele>
        <time>2023-07-04T14:47:12.000Z</time>
      </trkpt>
      <trkpt lat="45.87703" lon="4.62693">
        <ele>341.39761</ele>
        <time>2023-07-04T14:47:13.000Z</time>
      </trkpt>
      <trkpt lat="45.87706" lon="4.62685">
        <ele>341.30075</ele>
        <time>2023-07-04T14:47:14.000Z</time>
      </trkpt>
      <trkpt lat="45.87708" lon="4.62678">
        <ele>341.25107</ele>
        <time>2023-07-04T14:47:15.000Z</time>
      </trkpt>
      <trkpt lat="45.8771" lon="4.62672">
        <ele>341.07983</ele>
        <time>2023-07-04T14:47:16.000Z</time>
      </trkpt>
      <trkpt lat="45.87712" lon="4.62666">
        <ele>340.96231</ele>
        <time>2023-07-04T14:47:17.000Z</time>
      </trkpt>
      <trkpt lat="45.87713" lon="4.62661">
        <ele>340.76862</ele>
        <time>2023-07-04T14:47:18.000Z</time>
      </trkpt>
      <trkpt lat="45.87715" lon="4.62656">
        <ele>340.91135</ele>
        <time>2023-07-04T14:47:19.000Z</time>
      </trkpt>
      <trkpt lat="45.87717" lon="4.6265">
        <ele>341.01172</ele>
        <time>2023-07-04T14:47:20.000Z</time>
      </trkpt>
      <trkpt lat="45.87719" lon="4.62645">
        <ele>341.14026</ele>
        <time>2023-07-04T14:47:21.000Z</time>
      </trkpt>
      <trkpt lat="45.8772" lon="4.62641">
        <ele>341.27026</ele>
        <time>2023-07-04T14:47:22.000Z</time>
      </trkpt>
      <trkpt lat="45.87722" lon="4.62637">
        <ele>341.39777</ele>
        <time>2023-07-04T14:47:23.000Z</time>
      </trkpt>
      <trkpt lat="45.87722" lon="4.62632">
        <ele>341.5741</ele>
        <time>2023-07-04T14:47:24.000Z</time>
      </trkpt>
      <trkpt lat="45.87724" lon="4.62628">
        <ele>341.73712</ele>
        <time>2023-07-04T14:47:25.000Z</time>
      </trkpt>
      <trkpt lat="45.87726" lon="4.62624">
        <ele>341.90167</ele>
        <time>2023-07-04T14:47:26.000Z</time>
      </trkpt>
      <trkpt lat="45.87727" lon="4.6262">
        <ele>342.11896</ele>
        <time>2023-07-04T14:47:27.000Z</time>
      </trkpt>
      <trkpt lat="45.87728" lon="4.62615">
        <ele>342.30893</ele>
        <time>2023-07-04T14:47:28.000Z</time>
      </trkpt>
      <trkpt lat="45.8773" lon="4.62611">
        <ele>342.38474</ele>
        <time>2023-07-04T14:47:29.000Z</time>
      </trkpt>
      <trkpt lat="45.87731" lon="4.62607">
        <ele>342.45282</ele>
        <time>2023-07-04T14:47:30.000Z</time>
      </trkpt>
      <trkpt lat="45.87732" lon="4.62603">
        <ele>342.52167</ele>
        <time>2023-07-04T14:47:31.000Z</time>
      </trkpt>
      <trkpt lat="45.87733" lon="4.62599">
        <ele>342.61285</ele>
        <time>2023-07-04T14:47:32.000Z</time>
      </trkpt>
      <trkpt lat="45.87735" lon="4.62595">
        <ele>343.03058</ele>
        <time>2023-07-04T14:47:33.000Z</time>
      </trkpt>
      <trkpt lat="45.87737" lon="4.62591">
        <ele>343.4693</ele>
        <time>2023-07-04T14:47:34.000Z</time>
      </trkpt>
      <trkpt lat="45.87739" lon="4.62588">
        <ele>343.65802</ele>
        <time>2023-07-04T14:47:35.000Z</time>
      </trkpt>
      <trkpt lat="45.8774" lon="4.62584">
        <ele>343.87207</ele>
        <time>2023-07-04T14:47:36.000Z</time>
      </trkpt>
      <trkpt lat="45.87742" lon="4.62581">
        <ele>344.06683</ele>
        <time>2023-07-04T14:47:37.000Z</time>
      </trkpt>
      <trkpt lat="45.87743" lon="4.62577">
        <ele>344.23535</ele>
        <time>2023-07-04T14:47:38.000Z</time>
      </trkpt>
      <trkpt lat="45.87745" lon="4.62573">
        <ele>344.36703</ele>
        <time>2023-07-04T14:47:39.000Z</time>
      </trkpt>
      <trkpt lat="45.87747" lon="4.62569">
        <ele>344.47119</ele>
        <time>2023-07-04T14:47:40.000Z</time>
      </trkpt>
      <trkpt lat="45.87749" lon="4.62566">
        <ele>344.58566</ele>
        <time>2023-07-04T14:47:41.000Z</time>
      </trkpt>
      <trkpt lat="45.8775" lon="4.62562">
        <ele>344.71954</ele>
        <time>2023-07-04T14:47:42.000Z</time>
      </trkpt>
      <trkpt lat="45.87752" lon="4.62559">
        <ele>344.85202</ele>
        <time>2023-07-04T14:47:43.000Z</time>
      </trkpt>
      <trkpt lat="45.87754" lon="4.62555">
        <ele>344.94073</ele>
        <time>2023-07-04T14:47:44.000Z</time>
      </trkpt>
      <trkpt lat="45.87756" lon="4.62551">
        <ele>345.06134</ele>
        <time>2023-07-04T14:47:45.000Z</time>
      </trkpt>
      <trkpt lat="45.87758" lon="4.62547">
        <ele>345.19604</ele>
        <time>2023-07-04T14:47:46.000Z</time>
      </trkpt>
      <trkpt lat="45.87759" lon="4.62543">
        <ele>345.27463</ele>
        <time>2023-07-04T14:47:47.000Z</time>
      </trkpt>
      <trkpt lat="45.87761" lon="4.62539">
        <ele>345.336</ele>
        <time>2023-07-04T14:47:48.000Z</time>
      </trkpt>
      <trkpt lat="45.87763" lon="4.62535">
        <ele>345.366</ele>
        <time>2023-07-04T14:47:49.000Z</time>
      </trkpt>
      <trkpt lat="45.87765" lon="4.62531">
        <ele>345.39215</ele>
        <time>2023-07-04T14:47:50.000Z</time>
      </trkpt>
      <trkpt lat="45.87767" lon="4.62526">
        <ele>345.40768</ele>
        <time>2023-07-04T14:47:51.000Z</time>
      </trkpt>
      <trkpt lat="45.87768" lon="4.62522">
        <ele>345.31424</ele>
        <time>2023-07-04T14:47:52.000Z</time>
      </trkpt>
      <trkpt lat="45.8777" lon="4.62517">
        <ele>345.21268</ele>
        <time>2023-07-04T14:47:53.000Z</time>
      </trkpt>
      <trkpt lat="45.87771" lon="4.62512">
        <ele>345.0528</ele>
        <time>2023-07-04T14:47:54.000Z</time>
      </trkpt>
      <trkpt lat="45.87772" lon="4.62508">
        <ele>345.11499</ele>
        <time>2023-07-04T14:47:55.000Z</time>
      </trkpt>
      <trkpt lat="45.87772" lon="4.62502">
        <ele>345.14182</ele>
        <time>2023-07-04T14:47:56.000Z</time>
      </trkpt>
      <trkpt lat="45.87772" lon="4.62497">
        <ele>345.15027</ele>
        <time>2023-07-04T14:47:57.000Z</time>
      </trkpt>
      <trkpt lat="45.87771" lon="4.62492">
        <ele>345.16418</ele>
        <time>2023-07-04T14:47:58.000Z</time>
      </trkpt>
      <trkpt lat="45.8777" lon="4.62488">
        <ele>345.1922</ele>
        <time>2023-07-04T14:47:59.000Z</time>
      </trkpt>
      <trkpt lat="45.87768" lon="4.62484">
        <ele>345.25888</ele>
        <time>2023-07-04T14:48:00.000Z</time>
      </trkpt>
      <trkpt lat="45.87766" lon="4.62481">
        <ele>345.29208</ele>
        <time>2023-07-04T14:48:01.000Z</time>
      </trkpt>
      <trkpt lat="45.87764" lon="4.62479">
        <ele>345.30499</ele>
        <time>2023-07-04T14:48:02.000Z</time>
      </trkpt>
      <trkpt lat="45.87761" lon="4.62477">
        <ele>345.32788</ele>
        <time>2023-07-04T14:48:03.000Z</time>
      </trkpt>
      <trkpt lat="45.87758" lon="4.62475">
        <ele>345.39716</ele>
        <time>2023-07-04T14:48:04.000Z</time>
      </trkpt>
      <trkpt lat="45.87755" lon="4.62473">
        <ele>345.45856</ele>
        <time>2023-07-04T14:48:05.000Z</time>
      </trkpt>
      <trkpt lat="45.87753" lon="4.62472">
        <ele>345.50458</ele>
        <time>2023-07-04T14:48:06.000Z</time>
      </trkpt>
      <trkpt lat="45.87751" lon="4.6247">
        <ele>345.58319</ele>
        <time>2023-07-04T14:48:07.000Z</time>
      </trkpt>
      <trkpt lat="45.87748" lon="4.62469">
        <ele>345.69296</ele>
        <time>2023-07-04T14:48:08.000Z</time>
      </trkpt>
      <trkpt lat="45.87746" lon="4.62467">
        <ele>345.83597</ele>
        <time>2023-07-04T14:48:09.000Z</time>
      </trkpt>
      <trkpt lat="45.87744" lon="4.62465">
        <ele>345.97009</ele>
        <time>2023-07-04T14:48:10.000Z</time>
      </trkpt>
      <trkpt lat="45.87741" lon="4.62464">
        <ele>346.13239</ele>
        <time>2023-07-04T14:48:11.000Z</time>
      </trkpt>
      <trkpt lat="45.87739" lon="4.62463">
        <ele>346.27448</ele>
        <time>2023-07-04T14:48:12.000Z</time>
      </trkpt>
      <trkpt lat="45.87736" lon="4.62461">
        <ele>346.41876</ele>
        <time>2023-07-04T14:48:13.000Z</time>
      </trkpt>
      <trkpt lat="45.87734" lon="4.62459">
        <ele>346.5661</ele>
        <time>2023-07-04T14:48:14.000Z</time>
      </trkpt>
      <trkpt lat="45.87732" lon="4.62457">
        <ele>346.80328</ele>
        <time>2023-07-04T14:48:15.000Z</time>
      </trkpt>
      <trkpt lat="45.8773" lon="4.62455">
        <ele>347.10287</ele>
        <time>2023-07-04T14:48:16.000Z</time>
      </trkpt>
      <trkpt lat="45.87727" lon="4.62453">
        <ele>347.21829</ele>
        <time>2023-07-04T14:48:17.000Z</time>
      </trkpt>
      <trkpt lat="45.87725" lon="4.62452">
        <ele>347.3877</ele>
        <time>2023-07-04T14:48:18.000Z</time>
      </trkpt>
      <trkpt lat="45.87722" lon="4.62451">
        <ele>347.56299</ele>
        <time>2023-07-04T14:48:19.000Z</time>
      </trkpt>
      <trkpt lat="45.8772" lon="4.62449">
        <ele>347.74841</ele>
        <time>2023-07-04T14:48:20.000Z</time>
      </trkpt>
      <trkpt lat="45.87718" lon="4.62448">
        <ele>347.95435</ele>
        <time>2023-07-04T14:48:21.000Z</time>
      </trkpt>
      <trkpt lat="45.87715" lon="4.62446">
        <ele>348.17563</ele>
        <time>2023-07-04T14:48:22.000Z</time>
      </trkpt>
      <trkpt lat="45.87713" lon="4.62445">
        <ele>348.40295</ele>
        <time>2023-07-04T14:48:23.000Z</time>
      </trkpt>
      <trkpt lat="45.87711" lon="4.62443">
        <ele>348.61069</ele>
        <time>2023-07-04T14:48:24.000Z</time>
      </trkpt>
      <trkpt lat="45.87708" lon="4.62442">
        <ele>348.79642</ele>
        <time>2023-07-04T14:48:25.000Z</time>
      </trkpt>
      <trkpt lat="45.87706" lon="4.6244">
        <ele>349.00064</ele>
        <time>2023-07-04T14:48:26.000Z</time>
      </trkpt>
      <trkpt lat="45.87704" lon="4.62438">
        <ele>349.19086</ele>
        <time>2023-07-04T14:48:27.000Z</time>
      </trkpt>
      <trkpt lat="45.87702" lon="4.62436">
        <ele>349.36603</ele>
        <time>2023-07-04T14:48:28.000Z</time>
      </trkpt>
      <trkpt lat="45.87699" lon="4.62434">
        <ele>349.51971</ele>
        <time>2023-07-04T14:48:29.000Z</time>
      </trkpt>
      <trkpt lat="45.87697" lon="4.62433">
        <ele>349.68732</ele>
        <time>2023-07-04T14:48:30.000Z</time>
      </trkpt>
      <trkpt lat="45.87695" lon="4.62431">
        <ele>349.84772</ele>
        <time>2023-07-04T14:48:31.000Z</time>
      </trkpt>
      <trkpt lat="45.87693" lon="4.62429">
        <ele>350.10626</ele>
        <time>2023-07-04T14:48:32.000Z</time>
      </trkpt>
      <trkpt lat="45.87691" lon="4.62428">
        <ele>350.3681</ele>
        <time>2023-07-04T14:48:33.000Z</time>
      </trkpt>
      <trkpt lat="45.87688" lon="4.62427">
        <ele>350.65115</ele>
        <time>2023-07-04T14:48:34.000Z</time>
      </trkpt>
      <trkpt lat="45.87686" lon="4.62425">
        <ele>350.86948</ele>
        <time>2023-07-04T14:48:35.000Z</time>
      </trkpt>
      <trkpt lat="45.87684" lon="4.62424">
        <ele>350.87283</ele>
        <time>2023-07-04T14:48:36.000Z</time>
      </trkpt>
      <trkpt lat="45.87682" lon="4.62422">
        <ele>351.0892</ele>
        <time>2023-07-04T14:48:37.000Z</time>
      </trkpt>
      <trkpt lat="45.8768" lon="4.62421">
        <ele>351.27502</ele>
        <time>2023-07-04T14:48:38.000Z</time>
      </trkpt>
      <trkpt lat="45.87678" lon="4.6242">
        <ele>351.45874</ele>
        <time>2023-07-04T14:48:39.000Z</time>
      </trkpt>
      <trkpt lat="45.87676" lon="4.62419">
        <ele>351.63431</ele>
        <time>2023-07-04T14:48:40.000Z</time>
      </trkpt>
      <trkpt lat="45.87673" lon="4.62418">
        <ele>351.81775</ele>
        <time>2023-07-04T14:48:41.000Z</time>
      </trkpt>
      <trkpt lat="45.87671" lon="4.62418">
        <ele>352.0007</ele>
        <time>2023-07-04T14:48:42.000Z</time>
      </trkpt>
      <trkpt lat="45.87669" lon="4.62417">
        <ele>352.18207</ele>
        <time>2023-07-04T14:48:43.000Z</time>
      </trkpt>
      <trkpt lat="45.87667" lon="4.62417">
        <ele>352.36682</ele>
        <time>2023-07-04T14:48:44.000Z</time>
      </trkpt>
      <trkpt lat="45.87665" lon="4.62416">
        <ele>352.58246</ele>
        <time>2023-07-04T14:48:45.000Z</time>
      </trkpt>
      <trkpt lat="45.87662" lon="4.62416">
        <ele>352.79449</ele>
        <time>2023-07-04T14:48:46.000Z</time>
      </trkpt>
      <trkpt lat="45.8766" lon="4.62416">
        <ele>353.00192</ele>
        <time>2023-07-04T14:48:47.000Z</time>
      </trkpt>
      <trkpt lat="45.87658" lon="4.62415">
        <ele>353.21683</ele>
        <time>2023-07-04T14:48:48.000Z</time>
      </trkpt>
      <trkpt lat="45.87656" lon="4.62415">
        <ele>353.44122</ele>
        <time>2023-07-04T14:48:49.000Z</time>
      </trkpt>
      <trkpt lat="45.87654" lon="4.62414">
        <ele>353.65088</ele>
        <time>2023-07-04T14:48:50.000Z</time>
      </trkpt>
      <trkpt lat="45.87652" lon="4.62414">
        <ele>353.83942</ele>
        <time>2023-07-04T14:48:51.000Z</time>
      </trkpt>
      <trkpt lat="45.87649" lon="4.62414">
        <ele>353.93988</ele>
        <time>2023-07-04T14:48:52.000Z</time>
      </trkpt>
      <trkpt lat="45.87647" lon="4.62413">
        <ele>354.05377</ele>
        <time>2023-07-04T14:48:53.000Z</time>
      </trkpt>
      <trkpt lat="45.87645" lon="4.62413">
        <ele>354.11932</ele>
        <time>2023-07-04T14:48:54.000Z</time>
      </trkpt>
      <trkpt lat="45.87643" lon="4.62413">
        <ele>354.18729</ele>
        <time>2023-07-04T14:48:55.000Z</time>
      </trkpt>
      <trkpt lat="45.8764" lon="4.62412">
        <ele>354.47275</ele>
        <time>2023-07-04T14:48:56.000Z</time>
      </trkpt>
      <trkpt lat="45.87638" lon="4.62412">
        <ele>354.76578</ele>
        <time>2023-07-04T14:48:57.000Z</time>
      </trkpt>
      <trkpt lat="45.87636" lon="4.62412">
        <ele>354.92566</ele>
        <time>2023-07-04T14:48:58.000Z</time>
      </trkpt>
      <trkpt lat="45.87634" lon="4.62411">
        <ele>355.09564</ele>
        <time>2023-07-04T14:48:59.000Z</time>
      </trkpt>
      <trkpt lat="45.87632" lon="4.62411">
        <ele>355.25577</ele>
        <time>2023-07-04T14:49:00.000Z</time>
      </trkpt>
      <trkpt lat="45.8763" lon="4.62411">
        <ele>355.43219</ele>
        <time>2023-07-04T14:49:01.000Z</time>
      </trkpt>
      <trkpt lat="45.87628" lon="4.62411">
        <ele>355.61118</ele>
        <time>2023-07-04T14:49:02.000Z</time>
      </trkpt>
      <trkpt lat="45.87626" lon="4.6241">
        <ele>355.78934</ele>
        <time>2023-07-04T14:49:03.000Z</time>
      </trkpt>
      <trkpt lat="45.87624" lon="4.6241">
        <ele>355.97104</ele>
        <time>2023-07-04T14:49:04.000Z</time>
      </trkpt>
      <trkpt lat="45.87622" lon="4.62409">
        <ele>356.12964</ele>
        <time>2023-07-04T14:49:05.000Z</time>
      </trkpt>
      <trkpt lat="45.8762" lon="4.62409">
        <ele>356.28436</ele>
        <time>2023-07-04T14:49:06.000Z</time>
      </trkpt>
      <trkpt lat="45.87617" lon="4.62408">
        <ele>356.44351</ele>
        <time>2023-07-04T14:49:07.000Z</time>
      </trkpt>
      <trkpt lat="45.87615" lon="4.62407">
        <ele>356.59006</ele>
        <time>2023-07-04T14:49:08.000Z</time>
      </trkpt>
      <trkpt lat="45.87613" lon="4.62407">
        <ele>356.74951</ele>
        <time>2023-07-04T14:49:09.000Z</time>
      </trkpt>
      <trkpt lat="45.87611" lon="4.62406">
        <ele>356.9274</ele>
        <time>2023-07-04T14:49:10.000Z</time>
      </trkpt>
      <trkpt lat="45.87609" lon="4.62406">
        <ele>357.11191</ele>
        <time>2023-07-04T14:49:11.000Z</time>
      </trkpt>
      <trkpt lat="45.87607" lon="4.62405">
        <ele>357.30707</ele>
        <time>2023-07-04T14:49:12.000Z</time>
      </trkpt>
      <trkpt lat="45.87605" lon="4.62405">
        <ele>357.46832</ele>
        <time>2023-07-04T14:49:13.000Z</time>
      </trkpt>
      <trkpt lat="45.87603" lon="4.62404">
        <ele>357.63092</ele>
        <time>2023-07-04T14:49:14.000Z</time>
      </trkpt>
      <trkpt lat="45.87601" lon="4.62404">
        <ele>357.78171</ele>
        <time>2023-07-04T14:49:15.000Z</time>
      </trkpt>
      <trkpt lat="45.87599" lon="4.62403">
        <ele>357.90619</ele>
        <time>2023-07-04T14:49:16.000Z</time>
      </trkpt>
      <trkpt lat="45.87597" lon="4.62402">
        <ele>358.00162</ele>
        <time>2023-07-04T14:49:17.000Z</time>
      </trkpt>
      <trkpt lat="45.87595" lon="4.62401">
        <ele>358.1456</ele>
        <time>2023-07-04T14:49:18.000Z</time>
      </trkpt>
      <trkpt lat="45.87593" lon="4.624">
        <ele>358.20703</ele>
        <time>2023-07-04T14:49:19.000Z</time>
      </trkpt>
      <trkpt lat="45.8759" lon="4.62399">
        <ele>358.35474</ele>
        <time>2023-07-04T14:49:20.000Z</time>
      </trkpt>
      <trkpt lat="45.87588" lon="4.62398">
        <ele>358.48096</ele>
        <time>2023-07-04T14:49:21.000Z</time>
      </trkpt>
      <trkpt lat="45.87586" lon="4.62398">
        <ele>358.60626</ele>
        <time>2023-07-04T14:49:22.000Z</time>
      </trkpt>
      <trkpt lat="45.87584" lon="4.62397">
        <ele>358.73935</ele>
        <time>2023-07-04T14:49:23.000Z</time>
      </trkpt>
      <trkpt lat="45.87582" lon="4.62396">
        <ele>358.92227</ele>
        <time>2023-07-04T14:49:24.000Z</time>
      </trkpt>
      <trkpt lat="45.8758" lon="4.62395">
        <ele>358.98383</ele>
        <time>2023-07-04T14:49:25.000Z</time>
      </trkpt>
      <trkpt lat="45.87578" lon="4.62395">
        <ele>359.04849</ele>
        <time>2023-07-04T14:49:26.000Z</time>
      </trkpt>
      <trkpt lat="45.87576" lon="4.62394">
        <ele>359.12067</ele>
        <time>2023-07-04T14:49:27.000Z</time>
      </trkpt>
      <trkpt lat="45.87574" lon="4.62393">
        <ele>359.29355</ele>
        <time>2023-07-04T14:49:28.000Z</time>
      </trkpt>
      <trkpt lat="45.87572" lon="4.62392">
        <ele>359.45929</ele>
        <time>2023-07-04T14:49:29.000Z</time>
      </trkpt>
      <trkpt lat="45.8757" lon="4.62391">
        <ele>359.62701</ele>
        <time>2023-07-04T14:49:30.000Z</time>
      </trkpt>
      <trkpt lat="45.87568" lon="4.6239">
        <ele>359.76044</ele>
        <time>2023-07-04T14:49:31.000Z</time>
      </trkpt>
      <trkpt lat="45.87566" lon="4.62389">
        <ele>359.90552</ele>
        <time>2023-07-04T14:49:32.000Z</time>
      </trkpt>
      <trkpt lat="45.87564" lon="4.62388">
        <ele>360.04965</ele>
        <time>2023-07-04T14:49:33.000Z</time>
      </trkpt>
      <trkpt lat="45.87562" lon="4.62387">
        <ele>360.20541</ele>
        <time>2023-07-04T14:49:34.000Z</time>
      </trkpt>
      <trkpt lat="45.8756" lon="4.62386">
        <ele>360.37997</ele>
        <time>2023-07-04T14:49:35.000Z</time>
      </trkpt>
      <trkpt lat="45.87558" lon="4.62385">
        <ele>360.52628</ele>
        <time>2023-07-04T14:49:36.000Z</time>
      </trkpt>
      <trkpt lat="45.87556" lon="4.62384">
        <ele>360.65213</ele>
        <time>2023-07-04T14:49:37.000Z</time>
      </trkpt>
      <trkpt lat="45.87554" lon="4.62383">
        <ele>360.85114</ele>
        <time>2023-07-04T14:49:38.000Z</time>
      </trkpt>
      <trkpt lat="45.87552" lon="4.62382">
        <ele>361.13037</ele>
        <time>2023-07-04T14:49:39.000Z</time>
      </trkpt>
      <trkpt lat="45.8755" lon="4.62381">
        <ele>361.32242</ele>
        <time>2023-07-04T14:49:40.000Z</time>
      </trkpt>
      <trkpt lat="45.87548" lon="4.6238">
        <ele>361.50018</ele>
        <time>2023-07-04T14:49:41.000Z</time>
      </trkpt>
      <trkpt lat="45.87545" lon="4.62379">
        <ele>361.68335</ele>
        <time>2023-07-04T14:49:42.000Z</time>
      </trkpt>
      <trkpt lat="45.87543" lon="4.62378">
        <ele>361.83398</ele>
        <time>2023-07-04T14:49:43.000Z</time>
      </trkpt>
      <trkpt lat="45.87541" lon="4.62376">
        <ele>361.91422</ele>
        <time>2023-07-04T14:49:44.000Z</time>
      </trkpt>
      <trkpt lat="45.8754" lon="4.62375">
        <ele>362.09717</ele>
        <time>2023-07-04T14:49:45.000Z</time>
      </trkpt>
      <trkpt lat="45.87538" lon="4.62374">
        <ele>362.27002</ele>
        <time>2023-07-04T14:49:46.000Z</time>
      </trkpt>
      <trkpt lat="45.87536" lon="4.62372">
        <ele>362.4295</ele>
        <time>2023-07-04T14:49:47.000Z</time>
      </trkpt>
      <trkpt lat="45.87534" lon="4.62371">
        <ele>362.48505</ele>
        <time>2023-07-04T14:49:48.000Z</time>
      </trkpt>
      <trkpt lat="45.87532" lon="4.6237">
        <ele>362.52676</ele>
        <time>2023-07-04T14:49:49.000Z</time>
      </trkpt>
      <trkpt lat="45.87531" lon="4.62368">
        <ele>362.56512</ele>
        <time>2023-07-04T14:49:50.000Z</time>
      </trkpt>
      <trkpt lat="45.87529" lon="4.62367">
        <ele>362.62216</ele>
        <time>2023-07-04T14:49:51.000Z</time>
      </trkpt>
      <trkpt lat="45.87527" lon="4.62365">
        <ele>362.67883</ele>
        <time>2023-07-04T14:49:52.000Z</time>
      </trkpt>
      <trkpt lat="45.87525" lon="4.62362">
        <ele>362.76303</ele>
        <time>2023-07-04T14:49:53.000Z</time>
      </trkpt>
      <trkpt lat="45.87524" lon="4.6236">
        <ele>362.83603</ele>
        <time>2023-07-04T14:49:54.000Z</time>
      </trkpt>
      <trkpt lat="45.87523" lon="4.62357">
        <ele>362.8812</ele>
        <time>2023-07-04T14:49:55.000Z</time>
      </trkpt>
      <trkpt lat="45.87521" lon="4.62355">
        <ele>362.91412</ele>
        <time>2023-07-04T14:49:56.000Z</time>
      </trkpt>
      <trkpt lat="45.87519" lon="4.62353">
        <ele>362.95242</ele>
        <time>2023-07-04T14:49:57.000Z</time>
      </trkpt>
      <trkpt lat="45.87518" lon="4.6235">
        <ele>362.99316</ele>
        <time>2023-07-04T14:49:58.000Z</time>
      </trkpt>
      <trkpt lat="45.87516" lon="4.62348">
        <ele>363.01181</ele>
        <time>2023-07-04T14:49:59.000Z</time>
      </trkpt>
      <trkpt lat="45.87514" lon="4.62345">
        <ele>363.03876</ele>
        <time>2023-07-04T14:50:00.000Z</time>
      </trkpt>
      <trkpt lat="45.87513" lon="4.62343">
        <ele>363.08041</ele>
        <time>2023-07-04T14:50:01.000Z</time>
      </trkpt>
      <trkpt lat="45.87511" lon="4.62341">
        <ele>363.11407</ele>
        <time>2023-07-04T14:50:02.000Z</time>
      </trkpt>
      <trkpt lat="45.8751" lon="4.62338">
        <ele>363.17755</ele>
        <time>2023-07-04T14:50:03.000Z</time>
      </trkpt>
      <trkpt lat="45.87508" lon="4.62336">
        <ele>363.25409</ele>
        <time>2023-07-04T14:50:04.000Z</time>
      </trkpt>
      <trkpt lat="45.87507" lon="4.62333">
        <ele>363.35638</ele>
        <time>2023-07-04T14:50:05.000Z</time>
      </trkpt>
      <trkpt lat="45.87505" lon="4.62331">
        <ele>363.47043</ele>
        <time>2023-07-04T14:50:06.000Z</time>
      </trkpt>
      <trkpt lat="45.87504" lon="4.62328">
        <ele>363.59784</ele>
        <time>2023-07-04T14:50:07.000Z</time>
      </trkpt>
      <trkpt lat="45.87502" lon="4.62326">
        <ele>363.73398</ele>
        <time>2023-07-04T14:50:08.000Z</time>
      </trkpt>
      <trkpt lat="45.87501" lon="4.62323">
        <ele>363.87201</ele>
        <time>2023-07-04T14:50:09.000Z</time>
      </trkpt>
      <trkpt lat="45.87499" lon="4.6232">
        <ele>363.99384</ele>
        <time>2023-07-04T14:50:10.000Z</time>
      </trkpt>
      <trkpt lat="45.87498" lon="4.62317">
        <ele>364.14612</ele>
        <time>2023-07-04T14:50:11.000Z</time>
      </trkpt>
      <trkpt lat="45.87497" lon="4.62314">
        <ele>364.3165</ele>
        <time>2023-07-04T14:50:12.000Z</time>
      </trkpt>
      <trkpt lat="45.87496" lon="4.62311">
        <ele>364.49158</ele>
        <time>2023-07-04T14:50:13.000Z</time>
      </trkpt>
      <trkpt lat="45.87495" lon="4.62307">
        <ele>364.69052</ele>
        <time>2023-07-04T14:50:14.000Z</time>
      </trkpt>
      <trkpt lat="45.87495" lon="4.62302">
        <ele>364.8978</ele>
        <time>2023-07-04T14:50:15.000Z</time>
      </trkpt>
      <trkpt lat="45.87495" lon="4.62298">
        <ele>365.12054</ele>
        <time>2023-07-04T14:50:16.000Z</time>
      </trkpt>
      <trkpt lat="45.87496" lon="4.62293">
        <ele>365.36685</ele>
        <time>2023-07-04T14:50:17.000Z</time>
      </trkpt>
      <trkpt lat="45.87496" lon="4.62288">
        <ele>365.61661</ele>
        <time>2023-07-04T14:50:18.000Z</time>
      </trkpt>
      <trkpt lat="45.87497" lon="4.62283">
        <ele>365.91</ele>
        <time>2023-07-04T14:50:19.000Z</time>
      </trkpt>
      <trkpt lat="45.87497" lon="4.62278">
        <ele>366.21133</ele>
        <time>2023-07-04T14:50:20.000Z</time>
      </trkpt>
      <trkpt lat="45.87497" lon="4.62273">
        <ele>366.51532</ele>
        <time>2023-07-04T14:50:21.000Z</time>
      </trkpt>
      <trkpt lat="45.87498" lon="4.62269">
        <ele>366.81775</ele>
        <time>2023-07-04T14:50:22.000Z</time>
      </trkpt>
      <trkpt lat="45.87499" lon="4.62265">
        <ele>367.09253</ele>
        <time>2023-07-04T14:50:23.000Z</time>
      </trkpt>
      <trkpt lat="45.87499" lon="4.62261">
        <ele>367.37585</ele>
        <time>2023-07-04T14:50:24.000Z</time>
      </trkpt>
      <trkpt lat="45.875" lon="4.62257">
        <ele>367.66422</ele>
        <time>2023-07-04T14:50:25.000Z</time>
      </trkpt>
      <trkpt lat="45.87502" lon="4.62253">
        <ele>368.05853</ele>
        <time>2023-07-04T14:50:26.000Z</time>
      </trkpt>
      <trkpt lat="45.87503" lon="4.62249">
        <ele>368.43604</ele>
        <time>2023-07-04T14:50:27.000Z</time>
      </trkpt>
      <trkpt lat="45.87505" lon="4.62245">
        <ele>368.82733</ele>
        <time>2023-07-04T14:50:28.000Z</time>
      </trkpt>
      <trkpt lat="45.87506" lon="4.62241">
        <ele>369.24625</ele>
        <time>2023-07-04T14:50:29.000Z</time>
      </trkpt>
      <trkpt lat="45.87508" lon="4.62237">
        <ele>369.68552</ele>
        <time>2023-07-04T14:50:30.000Z</time>
      </trkpt>
      <trkpt lat="45.87509" lon="4.62234">
        <ele>370.11179</ele>
        <time>2023-07-04T14:50:31.000Z</time>
      </trkpt>
      <trkpt lat="45.87511" lon="4.6223">
        <ele>370.51749</ele>
        <time>2023-07-04T14:50:32.000Z</time>
      </trkpt>
      <trkpt lat="45.87513" lon="4.62226">
        <ele>370.93256</ele>
        <time>2023-07-04T14:50:33.000Z</time>
      </trkpt>
      <trkpt lat="45.87514" lon="4.62222">
        <ele>371.34503</ele>
        <time>2023-07-04T14:50:34.000Z</time>
      </trkpt>
      <trkpt lat="45.87516" lon="4.62219">
        <ele>371.69101</ele>
        <time>2023-07-04T14:50:35.000Z</time>
      </trkpt>
      <trkpt lat="45.87518" lon="4.62216">
        <ele>372.03632</ele>
        <time>2023-07-04T14:50:36.000Z</time>
      </trkpt>
      <trkpt lat="45.8752" lon="4.62213">
        <ele>372.37662</ele>
        <time>2023-07-04T14:50:37.000Z</time>
      </trkpt>
      <trkpt lat="45.87522" lon="4.62209">
        <ele>372.66495</ele>
        <time>2023-07-04T14:50:38.000Z</time>
      </trkpt>
      <trkpt lat="45.87524" lon="4.62206">
        <ele>372.91595</ele>
        <time>2023-07-04T14:50:39.000Z</time>
      </trkpt>
      <trkpt lat="45.87526" lon="4.62203">
        <ele>373.30573</ele>
        <time>2023-07-04T14:50:40.000Z</time>
      </trkpt>
      <trkpt lat="45.87528" lon="4.62199">
        <ele>373.65878</ele>
        <time>2023-07-04T14:50:41.000Z</time>
      </trkpt>
      <trkpt lat="45.87529" lon="4.62196">
        <ele>374.02603</ele>
        <time>2023-07-04T14:50:42.000Z</time>
      </trkpt>
      <trkpt lat="45.8753" lon="4.62192">
        <ele>374.4422</ele>
        <time>2023-07-04T14:50:43.000Z</time>
      </trkpt>
      <trkpt lat="45.87531" lon="4.6219">
        <ele>374.84824</ele>
        <time>2023-07-04T14:50:44.000Z</time>
      </trkpt>
      <trkpt lat="45.87533" lon="4.62187">
        <ele>374.7937</ele>
        <time>2023-07-04T14:50:45.000Z</time>
      </trkpt>
      <trkpt lat="45.87535" lon="4.62186">
        <ele>374.63678</ele>
        <time>2023-07-04T14:50:46.000Z</time>
      </trkpt>
      <trkpt lat="45.87537" lon="4.62184">
        <ele>374.49612</ele>
        <time>2023-07-04T14:50:47.000Z</time>
      </trkpt>
      <trkpt lat="45.87538" lon="4.62182">
        <ele>374.36325</ele>
        <time>2023-07-04T14:50:48.000Z</time>
      </trkpt>
      <trkpt lat="45.8754" lon="4.62179">
        <ele>374.20776</ele>
        <time>2023-07-04T14:50:49.000Z</time>
      </trkpt>
      <trkpt lat="45.87542" lon="4.62177">
        <ele>374.05368</ele>
        <time>2023-07-04T14:50:50.000Z</time>
      </trkpt>
      <trkpt lat="45.87544" lon="4.62174">
        <ele>373.89877</ele>
        <time>2023-07-04T14:50:51.000Z</time>
      </trkpt>
      <trkpt lat="45.87546" lon="4.62172">
        <ele>373.76071</ele>
        <time>2023-07-04T14:50:52.000Z</time>
      </trkpt>
      <trkpt lat="45.87548" lon="4.62169">
        <ele>373.60516</ele>
        <time>2023-07-04T14:50:53.000Z</time>
      </trkpt>
      <trkpt lat="45.87551" lon="4.62166">
        <ele>373.44855</ele>
        <time>2023-07-04T14:50:54.000Z</time>
      </trkpt>
      <trkpt lat="45.87553" lon="4.62164">
        <ele>373.38007</ele>
        <time>2023-07-04T14:50:55.000Z</time>
      </trkpt>
      <trkpt lat="45.87556" lon="4.62162">
        <ele>373.31149</ele>
        <time>2023-07-04T14:50:56.000Z</time>
      </trkpt>
      <trkpt lat="45.87558" lon="4.6216">
        <ele>373.24457</ele>
        <time>2023-07-04T14:50:57.000Z</time>
      </trkpt>
      <trkpt lat="45.87561" lon="4.62159">
        <ele>373.2453</ele>
        <time>2023-07-04T14:50:58.000Z</time>
      </trkpt>
      <trkpt lat="45.87563" lon="4.62157">
        <ele>373.27972</ele>
        <time>2023-07-04T14:50:59.000Z</time>
      </trkpt>
      <trkpt lat="45.87566" lon="4.62156">
        <ele>373.16745</ele>
        <time>2023-07-04T14:51:00.000Z</time>
      </trkpt>
      <trkpt lat="45.87568" lon="4.62154">
        <ele>373.24896</ele>
        <time>2023-07-04T14:51:01.000Z</time>
      </trkpt>
      <trkpt lat="45.8757" lon="4.62153">
        <ele>373.33881</ele>
        <time>2023-07-04T14:51:02.000Z</time>
      </trkpt>
      <trkpt lat="45.87573" lon="4.62151">
        <ele>373.41162</ele>
        <time>2023-07-04T14:51:03.000Z</time>
      </trkpt>
      <trkpt lat="45.87575" lon="4.6215">
        <ele>373.52985</ele>
        <time>2023-07-04T14:51:04.000Z</time>
      </trkpt>
      <trkpt lat="45.87578" lon="4.62148">
        <ele>374.1181</ele>
        <time>2023-07-04T14:51:05.000Z</time>
      </trkpt>
      <trkpt lat="45.8758" lon="4.62146">
        <ele>374.70752</ele>
        <time>2023-07-04T14:51:06.000Z</time>
      </trkpt>
      <trkpt lat="45.87583" lon="4.62144">
        <ele>375.29694</ele>
        <time>2023-07-04T14:51:07.000Z</time>
      </trkpt>
      <trkpt lat="45.87585" lon="4.62141">
        <ele>375.85788</ele>
        <time>2023-07-04T14:51:08.000Z</time>
      </trkpt>
      <trkpt lat="45.87587" lon="4.62137">
        <ele>376.4549</ele>
        <time>2023-07-04T14:51:09.000Z</time>
      </trkpt>
      <trkpt lat="45.87588" lon="4.62132">
        <ele>377.03107</ele>
        <time>2023-07-04T14:51:10.000Z</time>
      </trkpt>
      <trkpt lat="45.87588" lon="4.62128">
        <ele>377.62961</ele>
        <time>2023-07-04T14:51:11.000Z</time>
      </trkpt>
      <trkpt lat="45.87588" lon="4.62123">
        <ele>378.23456</ele>
        <time>2023-07-04T14:51:12.000Z</time>
      </trkpt>
      <trkpt lat="45.87589" lon="4.62119">
        <ele>378.84821</ele>
        <time>2023-07-04T14:51:13.000Z</time>
      </trkpt>
      <trkpt lat="45.87589" lon="4.62115">
        <ele>379.46408</ele>
        <time>2023-07-04T14:51:14.000Z</time>
      </trkpt>
      <trkpt lat="45.87589" lon="4.6211">
        <ele>380.08301</ele>
        <time>2023-07-04T14:51:15.000Z</time>
      </trkpt>
      <trkpt lat="45.8759" lon="4.62107">
        <ele>380.68634</ele>
        <time>2023-07-04T14:51:16.000Z</time>
      </trkpt>
      <trkpt lat="45.87591" lon="4.62104">
        <ele>381.2796</ele>
        <time>2023-07-04T14:51:17.000Z</time>
      </trkpt>
      <trkpt lat="45.87594" lon="4.62102">
        <ele>381.86865</ele>
        <time>2023-07-04T14:51:19.000Z</time>
      </trkpt>
      <trkpt lat="45.87596" lon="4.62103">
        <ele>382.24554</ele>
        <time>2023-07-04T14:51:20.000Z</time>
      </trkpt>
      <trkpt lat="45.87598" lon="4.62103">
        <ele>382.60611</ele>
        <time>2023-07-04T14:51:21.000Z</time>
      </trkpt>
      <trkpt lat="45.87599" lon="4.62101">
        <ele>382.79044</ele>
        <time>2023-07-04T14:51:22.000Z</time>
      </trkpt>
      <trkpt lat="45.876" lon="4.62097">
        <ele>382.96979</ele>
        <time>2023-07-04T14:51:23.000Z</time>
      </trkpt>
      <trkpt lat="45.87599" lon="4.62093">
        <ele>383.1185</ele>
        <time>2023-07-04T14:51:24.000Z</time>
      </trkpt>
      <trkpt lat="45.87597" lon="4.62091">
        <ele>383.18768</ele>
        <time>2023-07-04T14:51:25.000Z</time>
      </trkpt>
      <trkpt lat="45.87595" lon="4.62089">
        <ele>383.29947</ele>
        <time>2023-07-04T14:51:26.000Z</time>
      </trkpt>
      <trkpt lat="45.87594" lon="4.62087">
        <ele>383.38617</ele>
        <time>2023-07-04T14:51:27.000Z</time>
      </trkpt>
      <trkpt lat="45.87592" lon="4.62084">
        <ele>383.43304</ele>
        <time>2023-07-04T14:51:28.000Z</time>
      </trkpt>
      <trkpt lat="45.87591" lon="4.62081">
        <ele>383.46912</ele>
        <time>2023-07-04T14:51:29.000Z</time>
      </trkpt>
      <trkpt lat="45.87591" lon="4.62078">
        <ele>383.45685</ele>
        <time>2023-07-04T14:51:30.000Z</time>
      </trkpt>
      <trkpt lat="45.87591" lon="4.62075">
        <ele>383.44751</ele>
        <time>2023-07-04T14:51:31.000Z</time>
      </trkpt>
      <trkpt lat="45.87591" lon="4.62071">
        <ele>382.92242</ele>
        <time>2023-07-04T14:51:32.000Z</time>
      </trkpt>
      <trkpt lat="45.87591" lon="4.62068">
        <ele>383.46988</ele>
        <time>2023-07-04T14:51:33.000Z</time>
      </trkpt>
      <trkpt lat="45.8759" lon="4.62065">
        <ele>384.00424</ele>
        <time>2023-07-04T14:51:34.000Z</time>
      </trkpt>
      <trkpt lat="45.8759" lon="4.62061">
        <ele>384.52225</ele>
        <time>2023-07-04T14:51:35.000Z</time>
      </trkpt>
      <trkpt lat="45.8759" lon="4.62058">
        <ele>385.04242</ele>
        <time>2023-07-04T14:51:36.000Z</time>
      </trkpt>
      <trkpt lat="45.8759" lon="4.62055">
        <ele>385.57578</ele>
        <time>2023-07-04T14:51:37.000Z</time>
      </trkpt>
      <trkpt lat="45.8759" lon="4.62052">
        <ele>386.1022</ele>
        <time>2023-07-04T14:51:38.000Z</time>
      </trkpt>
      <trkpt lat="45.8759" lon="4.62049">
        <ele>386.05026</ele>
        <time>2023-07-04T14:51:39.000Z</time>
      </trkpt>
      <trkpt lat="45.8759" lon="4.62046">
        <ele>386.18756</ele>
        <time>2023-07-04T14:51:40.000Z</time>
      </trkpt>
      <trkpt lat="45.8759" lon="4.62043">
        <ele>386.81134</ele>
        <time>2023-07-04T14:51:41.000Z</time>
      </trkpt>
      <trkpt lat="45.8759" lon="4.62039">
        <ele>387.4577</ele>
        <time>2023-07-04T14:51:42.000Z</time>
      </trkpt>
      <trkpt lat="45.87589" lon="4.62036">
        <ele>388.08917</ele>
        <time>2023-07-04T14:51:43.000Z</time>
      </trkpt>
      <trkpt lat="45.87589" lon="4.62033">
        <ele>388.72394</ele>
        <time>2023-07-04T14:51:44.000Z</time>
      </trkpt>
      <trkpt lat="45.87589" lon="4.6203">
        <ele>389.40396</ele>
        <time>2023-07-04T14:51:45.000Z</time>
      </trkpt>
      <trkpt lat="45.87589" lon="4.62027">
        <ele>390.04102</ele>
        <time>2023-07-04T14:51:46.000Z</time>
      </trkpt>
      <trkpt lat="45.87588" lon="4.62024">
        <ele>390.41733</ele>
        <time>2023-07-04T14:51:47.000Z</time>
      </trkpt>
      <trkpt lat="45.87588" lon="4.62021">
        <ele>391.45743</ele>
        <time>2023-07-04T14:51:48.000Z</time>
      </trkpt>
      <trkpt lat="45.87588" lon="4.62018">
        <ele>392.51065</ele>
        <time>2023-07-04T14:51:49.000Z</time>
      </trkpt>
      <trkpt lat="45.87588" lon="4.62015">
        <ele>393.58282</ele>
        <time>2023-07-04T14:51:50.000Z</time>
      </trkpt>
      <trkpt lat="45.87588" lon="4.62012">
        <ele>394.67197</ele>
        <time>2023-07-04T14:51:51.000Z</time>
      </trkpt>
      <trkpt lat="45.87588" lon="4.62009">
        <ele>396.25275</ele>
        <time>2023-07-04T14:51:52.000Z</time>
      </trkpt>
      <trkpt lat="45.87588" lon="4.62005">
        <ele>396.92319</ele>
        <time>2023-07-04T14:51:53.000Z</time>
      </trkpt>
      <trkpt lat="45.87588" lon="4.62002">
        <ele>397.63553</ele>
        <time>2023-07-04T14:51:54.000Z</time>
      </trkpt>
      <trkpt lat="45.87587" lon="4.61999">
        <ele>398.35168</ele>
        <time>2023-07-04T14:51:55.000Z</time>
      </trkpt>
      <trkpt lat="45.87587" lon="4.61996">
        <ele>399.03522</ele>
        <time>2023-07-04T14:51:56.000Z</time>
      </trkpt>
      <trkpt lat="45.87588" lon="4.61992">
        <ele>398.81451</ele>
        <time>2023-07-04T14:51:57.000Z</time>
      </trkpt>
      <trkpt lat="45.87588" lon="4.61989">
        <ele>398.57523</ele>
        <time>2023-07-04T14:51:58.000Z</time>
      </trkpt>
      <trkpt lat="45.87587" lon="4.61986">
        <ele>399.30405</ele>
        <time>2023-07-04T14:51:59.000Z</time>
      </trkpt>
      <trkpt lat="45.87587" lon="4.61983">
        <ele>399.92786</ele>
        <time>2023-07-04T14:52:00.000Z</time>
      </trkpt>
      <trkpt lat="45.87587" lon="4.6198">
        <ele>400.05078</ele>
        <time>2023-07-04T14:52:01.000Z</time>
      </trkpt>
      <trkpt lat="45.87586" lon="4.61977">
        <ele>400.18811</ele>
        <time>2023-07-04T14:52:02.000Z</time>
      </trkpt>
      <trkpt lat="45.87586" lon="4.61974">
        <ele>400.32867</ele>
        <time>2023-07-04T14:52:03.000Z</time>
      </trkpt>
      <trkpt lat="45.87586" lon="4.6197">
        <ele>400.49261</ele>
        <time>2023-07-04T14:52:04.000Z</time>
      </trkpt>
      <trkpt lat="45.87586" lon="4.61967">
        <ele>400.64728</ele>
        <time>2023-07-04T14:52:05.000Z</time>
      </trkpt>
      <trkpt lat="45.87586" lon="4.61964">
        <ele>400.77762</ele>
        <time>2023-07-04T14:52:06.000Z</time>
      </trkpt>
      <trkpt lat="45.87585" lon="4.61961">
        <ele>401.24265</ele>
        <time>2023-07-04T14:52:07.000Z</time>
      </trkpt>
      <trkpt lat="45.87584" lon="4.61958">
        <ele>401.06485</ele>
        <time>2023-07-04T14:52:08.000Z</time>
      </trkpt>
      <trkpt lat="45.87584" lon="4.61954">
        <ele>400.89499</ele>
        <time>2023-07-04T14:52:09.000Z</time>
      </trkpt>
      <trkpt lat="45.87584" lon="4.6195">
        <ele>400.72711</ele>
        <time>2023-07-04T14:52:10.000Z</time>
      </trkpt>
      <trkpt lat="45.87583" lon="4.61947">
        <ele>400.56927</ele>
        <time>2023-07-04T14:52:11.000Z</time>
      </trkpt>
      <trkpt lat="45.87583" lon="4.61943">
        <ele>400.92792</ele>
        <time>2023-07-04T14:52:12.000Z</time>
      </trkpt>
      <trkpt lat="45.87582" lon="4.6194">
        <ele>401.13068</ele>
        <time>2023-07-04T14:52:13.000Z</time>
      </trkpt>
      <trkpt lat="45.87581" lon="4.61937">
        <ele>400.82471</ele>
        <time>2023-07-04T14:52:14.000Z</time>
      </trkpt>
      <trkpt lat="45.8758" lon="4.61933">
        <ele>400.17648</ele>
        <time>2023-07-04T14:52:15.000Z</time>
      </trkpt>
      <trkpt lat="45.87579" lon="4.6193">
        <ele>399.89471</ele>
        <time>2023-07-04T14:52:16.000Z</time>
      </trkpt>
      <trkpt lat="45.87578" lon="4.61927">
        <ele>400.52344</ele>
        <time>2023-07-04T14:52:17.000Z</time>
      </trkpt>
      <trkpt lat="45.87577" lon="4.61924">
        <ele>401.17111</ele>
        <time>2023-07-04T14:52:18.000Z</time>
      </trkpt>
      <trkpt lat="45.87576" lon="4.6192">
        <ele>401.40497</ele>
        <time>2023-07-04T14:52:19.000Z</time>
      </trkpt>
      <trkpt lat="45.87575" lon="4.61917">
        <ele>401.72183</ele>
        <time>2023-07-04T14:52:20.000Z</time>
      </trkpt>
      <trkpt lat="45.87574" lon="4.61914">
        <ele>401.76358</ele>
        <time>2023-07-04T14:52:21.000Z</time>
      </trkpt>
      <trkpt lat="45.87573" lon="4.61911">
        <ele>402.51865</ele>
        <time>2023-07-04T14:52:22.000Z</time>
      </trkpt>
      <trkpt lat="45.87571" lon="4.61908">
        <ele>403.2738</ele>
        <time>2023-07-04T14:52:23.000Z</time>
      </trkpt>
      <trkpt lat="45.8757" lon="4.61905">
        <ele>404.01422</ele>
        <time>2023-07-04T14:52:24.000Z</time>
      </trkpt>
      <trkpt lat="45.87568" lon="4.61902">
        <ele>404.75848</ele>
        <time>2023-07-04T14:52:25.000Z</time>
      </trkpt>
      <trkpt lat="45.87566" lon="4.61899">
        <ele>405.47742</ele>
        <time>2023-07-04T14:52:26.000Z</time>
      </trkpt>
      <trkpt lat="45.87565" lon="4.61896">
        <ele>406.12643</ele>
        <time>2023-07-04T14:52:27.000Z</time>
      </trkpt>
      <trkpt lat="45.87563" lon="4.61893">
        <ele>406.77783</ele>
        <time>2023-07-04T14:52:28.000Z</time>
      </trkpt>
      <trkpt lat="45.87562" lon="4.6189">
        <ele>407.41782</ele>
        <time>2023-07-04T14:52:29.000Z</time>
      </trkpt>
      <trkpt lat="45.8756" lon="4.61888">
        <ele>408.09558</ele>
        <time>2023-07-04T14:52:30.000Z</time>
      </trkpt>
      <trkpt lat="45.87559" lon="4.61885">
        <ele>408.74115</ele>
        <time>2023-07-04T14:52:31.000Z</time>
      </trkpt>
      <trkpt lat="45.87557" lon="4.61882">
        <ele>408.87677</ele>
        <time>2023-07-04T14:52:32.000Z</time>
      </trkpt>
      <trkpt lat="45.87555" lon="4.61879">
        <ele>408.36713</ele>
        <time>2023-07-04T14:52:33.000Z</time>
      </trkpt>
      <trkpt lat="45.87553" lon="4.61877">
        <ele>408.30426</ele>
        <time>2023-07-04T14:52:34.000Z</time>
      </trkpt>
      <trkpt lat="45.87552" lon="4.61875">
        <ele>408.57642</ele>
        <time>2023-07-04T14:52:35.000Z</time>
      </trkpt>
      <trkpt lat="45.8755" lon="4.61872">
        <ele>408.49231</ele>
        <time>2023-07-04T14:52:36.000Z</time>
      </trkpt>
      <trkpt lat="45.87548" lon="4.6187">
        <ele>408.37018</ele>
        <time>2023-07-04T14:52:37.000Z</time>
      </trkpt>
      <trkpt lat="45.87546" lon="4.61867">
        <ele>408.26535</ele>
        <time>2023-07-04T14:52:38.000Z</time>
      </trkpt>
      <trkpt lat="45.87545" lon="4.61864">
        <ele>408.15778</ele>
        <time>2023-07-04T14:52:39.000Z</time>
      </trkpt>
      <trkpt lat="45.87543" lon="4.61861">
        <ele>408.05157</ele>
        <time>2023-07-04T14:52:40.000Z</time>
      </trkpt>
      <trkpt lat="45.87542" lon="4.61858">
        <ele>408.80441</ele>
        <time>2023-07-04T14:52:41.000Z</time>
      </trkpt>
      <trkpt lat="45.8754" lon="4.61855">
        <ele>408.79239</ele>
        <time>2023-07-04T14:52:42.000Z</time>
      </trkpt>
      <trkpt lat="45.87538" lon="4.61853">
        <ele>408.79691</ele>
        <time>2023-07-04T14:52:43.000Z</time>
      </trkpt>
      <trkpt lat="45.87536" lon="4.61851">
        <ele>408.78433</ele>
        <time>2023-07-04T14:52:44.000Z</time>
      </trkpt>
      <trkpt lat="45.87534" lon="4.61849">
        <ele>408.75082</ele>
        <time>2023-07-04T14:52:45.000Z</time>
      </trkpt>
      <trkpt lat="45.87531" lon="4.61848">
        <ele>408.73141</ele>
        <time>2023-07-04T14:52:46.000Z</time>
      </trkpt>
      <trkpt lat="45.87529" lon="4.61846">
        <ele>408.80545</ele>
        <time>2023-07-04T14:52:47.000Z</time>
      </trkpt>
      <trkpt lat="45.87527" lon="4.61844">
        <ele>408.94086</ele>
        <time>2023-07-04T14:52:48.000Z</time>
      </trkpt>
      <trkpt lat="45.87524" lon="4.61842">
        <ele>409.07196</ele>
        <time>2023-07-04T14:52:49.000Z</time>
      </trkpt>
      <trkpt lat="45.87521" lon="4.6184">
        <ele>409.12823</ele>
        <time>2023-07-04T14:52:50.000Z</time>
      </trkpt>
      <trkpt lat="45.87518" lon="4.61838">
        <ele>409.18759</ele>
        <time>2023-07-04T14:52:51.000Z</time>
      </trkpt>
      <trkpt lat="45.87515" lon="4.61835">
        <ele>409.22919</ele>
        <time>2023-07-04T14:52:52.000Z</time>
      </trkpt>
      <trkpt lat="45.87512" lon="4.61833">
        <ele>409.87833</ele>
        <time>2023-07-04T14:52:53.000Z</time>
      </trkpt>
      <trkpt lat="45.87509" lon="4.6183">
        <ele>410.52539</ele>
        <time>2023-07-04T14:52:54.000Z</time>
      </trkpt>
      <trkpt lat="45.87505" lon="4.61827">
        <ele>410.40015</ele>
        <time>2023-07-04T14:52:55.000Z</time>
      </trkpt>
      <trkpt lat="45.87502" lon="4.61822">
        <ele>410.20956</ele>
        <time>2023-07-04T14:52:56.000Z</time>
      </trkpt>
      <trkpt lat="45.87499" lon="4.61818">
        <ele>410.38647</ele>
        <time>2023-07-04T14:52:57.000Z</time>
      </trkpt>
      <trkpt lat="45.87495" lon="4.61814">
        <ele>410.45157</ele>
        <time>2023-07-04T14:52:58.000Z</time>
      </trkpt>
      <trkpt lat="45.87492" lon="4.61808">
        <ele>410.54141</ele>
        <time>2023-07-04T14:52:59.000Z</time>
      </trkpt>
      <trkpt lat="45.87489" lon="4.61802">
        <ele>410.6127</ele>
        <time>2023-07-04T14:53:00.000Z</time>
      </trkpt>
      <trkpt lat="45.87486" lon="4.61796">
        <ele>410.11139</ele>
        <time>2023-07-04T14:53:01.000Z</time>
      </trkpt>
      <trkpt lat="45.87482" lon="4.61789">
        <ele>409.61359</ele>
        <time>2023-07-04T14:53:02.000Z</time>
      </trkpt>
      <trkpt lat="45.87479" lon="4.61783">
        <ele>409.1048</ele>
        <time>2023-07-04T14:53:03.000Z</time>
      </trkpt>
      <trkpt lat="45.87476" lon="4.61778">
        <ele>408.61191</ele>
        <time>2023-07-04T14:53:04.000Z</time>
      </trkpt>
      <trkpt lat="45.87472" lon="4.61775">
        <ele>408.13702</ele>
        <time>2023-07-04T14:53:05.000Z</time>
      </trkpt>
      <trkpt lat="45.8747" lon="4.61775">
        <ele>407.68082</ele>
        <time>2023-07-04T14:53:06.000Z</time>
      </trkpt>
      <trkpt lat="45.87467" lon="4.61775">
        <ele>407.11679</ele>
        <time>2023-07-04T14:53:07.000Z</time>
      </trkpt>
      <trkpt lat="45.87463" lon="4.61774">
        <ele>406.48746</ele>
        <time>2023-07-04T14:53:09.000Z</time>
      </trkpt>
      <trkpt lat="45.87462" lon="4.61772">
        <ele>405.91461</ele>
        <time>2023-07-04T14:53:11.000Z</time>
      </trkpt>
      <trkpt lat="45.8746" lon="4.61772">
        <ele>405.36093</ele>
        <time>2023-07-04T14:53:12.000Z</time>
      </trkpt>
      <trkpt lat="45.87456" lon="4.61772">
        <ele>404.74274</ele>
        <time>2023-07-04T14:53:14.000Z</time>
      </trkpt>
      <trkpt lat="45.87454" lon="4.61772">
        <ele>404.08429</ele>
        <time>2023-07-04T14:53:15.000Z</time>
      </trkpt>
      <trkpt lat="45.87451" lon="4.61773">
        <ele>403.41061</ele>
        <time>2023-07-04T14:53:16.000Z</time>
      </trkpt>
      <trkpt lat="45.87449" lon="4.61774">
        <ele>402.73724</ele>
        <time>2023-07-04T14:53:17.000Z</time>
      </trkpt>
      <trkpt lat="45.87446" lon="4.61774">
        <ele>402.80963</ele>
        <time>2023-07-04T14:53:18.000Z</time>
      </trkpt>
      <trkpt lat="45.87443" lon="4.61775">
        <ele>402.90155</ele>
        <time>2023-07-04T14:53:19.000Z</time>
      </trkpt>
      <trkpt lat="45.87441" lon="4.61776">
        <ele>402.61688</ele>
        <time>2023-07-04T14:53:20.000Z</time>
      </trkpt>
      <trkpt lat="45.87439" lon="4.61777">
        <ele>402.3436</ele>
        <time>2023-07-04T14:53:21.000Z</time>
      </trkpt>
      <trkpt lat="45.87436" lon="4.61778">
        <ele>402.01376</ele>
        <time>2023-07-04T14:53:22.000Z</time>
      </trkpt>
      <trkpt lat="45.87432" lon="4.61778">
        <ele>401.7648</ele>
        <time>2023-07-04T14:53:23.000Z</time>
      </trkpt>
      <trkpt lat="45.87429" lon="4.61778">
        <ele>401.61276</ele>
        <time>2023-07-04T14:53:24.000Z</time>
      </trkpt>
      <trkpt lat="45.87426" lon="4.61779">
        <ele>401.49454</ele>
        <time>2023-07-04T14:53:25.000Z</time>
      </trkpt>
      <trkpt lat="45.87422" lon="4.6178">
        <ele>401.16034</ele>
        <time>2023-07-04T14:53:26.000Z</time>
      </trkpt>
      <trkpt lat="45.87419" lon="4.61782">
        <ele>400.76306</ele>
        <time>2023-07-04T14:53:27.000Z</time>
      </trkpt>
      <trkpt lat="45.87415" lon="4.61783">
        <ele>400.25153</ele>
        <time>2023-07-04T14:53:28.000Z</time>
      </trkpt>
      <trkpt lat="45.87412" lon="4.61785">
        <ele>400.11829</ele>
        <time>2023-07-04T14:53:29.000Z</time>
      </trkpt>
      <trkpt lat="45.87409" lon="4.61785">
        <ele>400.40903</ele>
        <time>2023-07-04T14:53:30.000Z</time>
      </trkpt>
      <trkpt lat="45.87405" lon="4.61786">
        <ele>400.71823</ele>
        <time>2023-07-04T14:53:31.000Z</time>
      </trkpt>
      <trkpt lat="45.87402" lon="4.61786">
        <ele>400.95483</ele>
        <time>2023-07-04T14:53:32.000Z</time>
      </trkpt>
      <trkpt lat="45.87398" lon="4.61786">
        <ele>401.18854</ele>
        <time>2023-07-04T14:53:33.000Z</time>
      </trkpt>
      <trkpt lat="45.87395" lon="4.61786">
        <ele>401.44684</ele>
        <time>2023-07-04T14:53:34.000Z</time>
      </trkpt>
      <trkpt lat="45.87391" lon="4.61786">
        <ele>401.72992</ele>
        <time>2023-07-04T14:53:35.000Z</time>
      </trkpt>
      <trkpt lat="45.87387" lon="4.61786">
        <ele>401.93674</ele>
        <time>2023-07-04T14:53:36.000Z</time>
      </trkpt>
      <trkpt lat="45.87384" lon="4.61786">
        <ele>402.36368</ele>
        <time>2023-07-04T14:53:37.000Z</time>
      </trkpt>
      <trkpt lat="45.8738" lon="4.61787">
        <ele>402.81393</ele>
        <time>2023-07-04T14:53:38.000Z</time>
      </trkpt>
      <trkpt lat="45.87376" lon="4.61787">
        <ele>403.28458</ele>
        <time>2023-07-04T14:53:39.000Z</time>
      </trkpt>
      <trkpt lat="45.87373" lon="4.61788">
        <ele>403.87665</ele>
        <time>2023-07-04T14:53:40.000Z</time>
      </trkpt>
      <trkpt lat="45.87369" lon="4.61789">
        <ele>404.54486</ele>
        <time>2023-07-04T14:53:41.000Z</time>
      </trkpt>
      <trkpt lat="45.87365" lon="4.6179">
        <ele>405.26172</ele>
        <time>2023-07-04T14:53:42.000Z</time>
      </trkpt>
      <trkpt lat="45.87362" lon="4.6179">
        <ele>405.97968</ele>
        <time>2023-07-04T14:53:43.000Z</time>
      </trkpt>
      <trkpt lat="45.87358" lon="4.61791">
        <ele>406.60178</ele>
        <time>2023-07-04T14:53:44.000Z</time>
      </trkpt>
      <trkpt lat="45.87354" lon="4.61792">
        <ele>407.20361</ele>
        <time>2023-07-04T14:53:45.000Z</time>
      </trkpt>
      <trkpt lat="45.87349" lon="4.61793">
        <ele>407.9754</ele>
        <time>2023-07-04T14:53:46.000Z</time>
      </trkpt>
      <trkpt lat="45.87345" lon="4.61793">
        <ele>408.81232</ele>
        <time>2023-07-04T14:53:47.000Z</time>
      </trkpt>
      <trkpt lat="45.8734" lon="4.61793">
        <ele>408.70099</ele>
        <time>2023-07-04T14:53:48.000Z</time>
      </trkpt>
      <trkpt lat="45.87336" lon="4.61793">
        <ele>408.20935</ele>
        <time>2023-07-04T14:53:49.000Z</time>
      </trkpt>
      <trkpt lat="45.87332" lon="4.61793">
        <ele>407.27441</ele>
        <time>2023-07-04T14:53:50.000Z</time>
      </trkpt>
      <trkpt lat="45.87328" lon="4.61792">
        <ele>406.41693</ele>
        <time>2023-07-04T14:53:51.000Z</time>
      </trkpt>
      <trkpt lat="45.87325" lon="4.61791">
        <ele>405.59195</ele>
        <time>2023-07-04T14:53:52.000Z</time>
      </trkpt>
      <trkpt lat="45.8732" lon="4.6179">
        <ele>404.71143</ele>
        <time>2023-07-04T14:53:53.000Z</time>
      </trkpt>
      <trkpt lat="45.87317" lon="4.61788">
        <ele>403.88666</ele>
        <time>2023-07-04T14:53:54.000Z</time>
      </trkpt>
      <trkpt lat="45.87312" lon="4.61787">
        <ele>403.12244</ele>
        <time>2023-07-04T14:53:55.000Z</time>
      </trkpt>
      <trkpt lat="45.87307" lon="4.61786">
        <ele>402.48398</ele>
        <time>2023-07-04T14:53:56.000Z</time>
      </trkpt>
      <trkpt lat="45.87303" lon="4.61786">
        <ele>401.55167</ele>
        <time>2023-07-04T14:53:57.000Z</time>
      </trkpt>
      <trkpt lat="45.87298" lon="4.61783">
        <ele>400.63196</ele>
        <time>2023-07-04T14:53:58.000Z</time>
      </trkpt>
      <trkpt lat="45.87293" lon="4.6178">
        <ele>399.67303</ele>
        <time>2023-07-04T14:53:59.000Z</time>
      </trkpt>
      <trkpt lat="45.87288" lon="4.6178">
        <ele>398.60834</ele>
        <time>2023-07-04T14:54:00.000Z</time>
      </trkpt>
      <trkpt lat="45.87282" lon="4.61776">
        <ele>397.56369</ele>
        <time>2023-07-04T14:54:01.000Z</time>
      </trkpt>
      <trkpt lat="45.87277" lon="4.61773">
        <ele>396.892</ele>
        <time>2023-07-04T14:54:02.000Z</time>
      </trkpt>
      <trkpt lat="45.87272" lon="4.6177">
        <ele>396.15057</ele>
        <time>2023-07-04T14:54:03.000Z</time>
      </trkpt>
      <trkpt lat="45.87266" lon="4.61768">
        <ele>395.41656</ele>
        <time>2023-07-04T14:54:04.000Z</time>
      </trkpt>
      <trkpt lat="45.87262" lon="4.61764">
        <ele>394.73282</ele>
        <time>2023-07-04T14:54:05.000Z</time>
      </trkpt>
      <trkpt lat="45.87256" lon="4.6176">
        <ele>394.34747</ele>
        <time>2023-07-04T14:54:06.000Z</time>
      </trkpt>
      <trkpt lat="45.8725" lon="4.61756">
        <ele>394.02554</ele>
        <time>2023-07-04T14:54:07.000Z</time>
      </trkpt>
      <trkpt lat="45.87246" lon="4.61753">
        <ele>394.77362</ele>
        <time>2023-07-04T14:54:08.000Z</time>
      </trkpt>
      <trkpt lat="45.87242" lon="4.61751">
        <ele>395.46878</ele>
        <time>2023-07-04T14:54:09.000Z</time>
      </trkpt>
      <trkpt lat="45.87237" lon="4.61746">
        <ele>396.20154</ele>
        <time>2023-07-04T14:54:10.000Z</time>
      </trkpt>
      <trkpt lat="45.87231" lon="4.61743">
        <ele>396.80673</ele>
        <time>2023-07-04T14:54:11.000Z</time>
      </trkpt>
      <trkpt lat="45.87229" lon="4.61739">
        <ele>397.43054</ele>
        <time>2023-07-04T14:54:12.000Z</time>
      </trkpt>
      <trkpt lat="45.87225" lon="4.61734">
        <ele>398.13266</ele>
        <time>2023-07-04T14:54:13.000Z</time>
      </trkpt>
      <trkpt lat="45.87225" lon="4.61731">
        <ele>398.85263</ele>
        <time>2023-07-04T14:54:14.000Z</time>
      </trkpt>
      <trkpt lat="45.87226" lon="4.61726">
        <ele>399.50485</ele>
        <time>2023-07-04T14:54:15.000Z</time>
      </trkpt>
      <trkpt lat="45.87228" lon="4.61722">
        <ele>400.03644</ele>
        <time>2023-07-04T14:54:16.000Z</time>
      </trkpt>
      <trkpt lat="45.87227" lon="4.61718">
        <ele>400.57236</ele>
        <time>2023-07-04T14:54:18.000Z</time>
      </trkpt>
      <trkpt lat="45.87229" lon="4.61712">
        <ele>401.06049</ele>
        <time>2023-07-04T14:54:20.000Z</time>
      </trkpt>
      <trkpt lat="45.87229" lon="4.61708">
        <ele>401.60727</ele>
        <time>2023-07-04T14:54:21.000Z</time>
      </trkpt>
      <trkpt lat="45.87228" lon="4.61705">
        <ele>402.17667</ele>
        <time>2023-07-04T14:54:22.000Z</time>
      </trkpt>
      <trkpt lat="45.87227" lon="4.61703">
        <ele>402.73672</ele>
        <time>2023-07-04T14:54:23.000Z</time>
      </trkpt>
      <trkpt lat="45.87225" lon="4.617">
        <ele>402.88492</ele>
        <time>2023-07-04T14:54:24.000Z</time>
      </trkpt>
      <trkpt lat="45.87223" lon="4.61697">
        <ele>403.02582</ele>
        <time>2023-07-04T14:54:25.000Z</time>
      </trkpt>
      <trkpt lat="45.87222" lon="4.61694">
        <ele>403.11896</ele>
        <time>2023-07-04T14:54:26.000Z</time>
      </trkpt>
      <trkpt lat="45.87219" lon="4.6169">
        <ele>403.17035</ele>
        <time>2023-07-04T14:54:27.000Z</time>
      </trkpt>
      <trkpt lat="45.87217" lon="4.61686">
        <ele>402.98077</ele>
        <time>2023-07-04T14:54:28.000Z</time>
      </trkpt>
      <trkpt lat="45.87214" lon="4.61683">
        <ele>402.72348</ele>
        <time>2023-07-04T14:54:29.000Z</time>
      </trkpt>
      <trkpt lat="45.87212" lon="4.61678">
        <ele>402.43329</ele>
        <time>2023-07-04T14:54:30.000Z</time>
      </trkpt>
      <trkpt lat="45.87207" lon="4.61665">
        <ele>402.20441</ele>
        <time>2023-07-04T14:54:31.000Z</time>
      </trkpt>
      <trkpt lat="45.87204" lon="4.6166">
        <ele>401.96988</ele>
        <time>2023-07-04T14:54:32.000Z</time>
      </trkpt>
      <trkpt lat="45.872" lon="4.61655">
        <ele>401.77463</ele>
        <time>2023-07-04T14:54:33.000Z</time>
      </trkpt>
      <trkpt lat="45.87197" lon="4.61651">
        <ele>401.52972</ele>
        <time>2023-07-04T14:54:34.000Z</time>
      </trkpt>
      <trkpt lat="45.87194" lon="4.61647">
        <ele>401.27704</ele>
        <time>2023-07-04T14:54:35.000Z</time>
      </trkpt>
      <trkpt lat="45.8719" lon="4.61643">
        <ele>401.00482</ele>
        <time>2023-07-04T14:54:36.000Z</time>
      </trkpt>
      <trkpt lat="45.87186" lon="4.6164">
        <ele>400.75159</ele>
        <time>2023-07-04T14:54:37.000Z</time>
      </trkpt>
      <trkpt lat="45.87181" lon="4.61635">
        <ele>400.56525</ele>
        <time>2023-07-04T14:54:38.000Z</time>
      </trkpt>
      <trkpt lat="45.87176" lon="4.6163">
        <ele>400.47104</ele>
        <time>2023-07-04T14:54:39.000Z</time>
      </trkpt>
      <trkpt lat="45.87171" lon="4.61627">
        <ele>400.414</ele>
        <time>2023-07-04T14:54:40.000Z</time>
      </trkpt>
      <trkpt lat="45.87167" lon="4.61621">
        <ele>400.3085</ele>
        <time>2023-07-04T14:54:41.000Z</time>
      </trkpt>
      <trkpt lat="45.87162" lon="4.61617">
        <ele>400.18668</ele>
        <time>2023-07-04T14:54:42.000Z</time>
      </trkpt>
      <trkpt lat="45.87158" lon="4.61613">
        <ele>398.85458</ele>
        <time>2023-07-04T14:54:43.000Z</time>
      </trkpt>
      <trkpt lat="45.87153" lon="4.6161">
        <ele>397.52145</ele>
        <time>2023-07-04T14:54:44.000Z</time>
      </trkpt>
      <trkpt lat="45.87147" lon="4.61609">
        <ele>396.51752</ele>
        <time>2023-07-04T14:54:45.000Z</time>
      </trkpt>
      <trkpt lat="45.87141" lon="4.61606">
        <ele>395.49966</ele>
        <time>2023-07-04T14:54:46.000Z</time>
      </trkpt>
      <trkpt lat="45.87137" lon="4.61604">
        <ele>394.46497</ele>
        <time>2023-07-04T14:54:47.000Z</time>
      </trkpt>
      <trkpt lat="45.87132" lon="4.61602">
        <ele>393.41501</ele>
        <time>2023-07-04T14:54:48.000Z</time>
      </trkpt>
      <trkpt lat="45.87126" lon="4.61599">
        <ele>392.40253</ele>
        <time>2023-07-04T14:54:49.000Z</time>
      </trkpt>
      <trkpt lat="45.8712" lon="4.61595">
        <ele>391.46252</ele>
        <time>2023-07-04T14:54:50.000Z</time>
      </trkpt>
      <trkpt lat="45.87113" lon="4.61592">
        <ele>390.53998</ele>
        <time>2023-07-04T14:54:51.000Z</time>
      </trkpt>
      <trkpt lat="45.87109" lon="4.61591">
        <ele>389.63177</ele>
        <time>2023-07-04T14:54:52.000Z</time>
      </trkpt>
      <trkpt lat="45.87103" lon="4.61588">
        <ele>388.73111</ele>
        <time>2023-07-04T14:54:53.000Z</time>
      </trkpt>
      <trkpt lat="45.87097" lon="4.61586">
        <ele>387.91919</ele>
        <time>2023-07-04T14:54:54.000Z</time>
      </trkpt>
      <trkpt lat="45.87093" lon="4.61585">
        <ele>387.07526</ele>
        <time>2023-07-04T14:54:55.000Z</time>
      </trkpt>
      <trkpt lat="45.87088" lon="4.61582">
        <ele>386.30084</ele>
        <time>2023-07-04T14:54:56.000Z</time>
      </trkpt>
      <trkpt lat="45.87082" lon="4.61579">
        <ele>385.40082</ele>
        <time>2023-07-04T14:54:57.000Z</time>
      </trkpt>
      <trkpt lat="45.87078" lon="4.61576">
        <ele>384.47061</ele>
        <time>2023-07-04T14:54:58.000Z</time>
      </trkpt>
      <trkpt lat="45.87075" lon="4.61573">
        <ele>383.46964</ele>
        <time>2023-07-04T14:54:59.000Z</time>
      </trkpt>
      <trkpt lat="45.87071" lon="4.61571">
        <ele>382.47681</ele>
        <time>2023-07-04T14:55:00.000Z</time>
      </trkpt>
      <trkpt lat="45.87067" lon="4.61569">
        <ele>381.54532</ele>
        <time>2023-07-04T14:55:01.000Z</time>
      </trkpt>
      <trkpt lat="45.87064" lon="4.61567">
        <ele>380.61243</ele>
        <time>2023-07-04T14:55:02.000Z</time>
      </trkpt>
      <trkpt lat="45.87061" lon="4.61566">
        <ele>380.84424</ele>
        <time>2023-07-04T14:55:03.000Z</time>
      </trkpt>
      <trkpt lat="45.87059" lon="4.61563">
        <ele>381.13037</ele>
        <time>2023-07-04T14:55:04.000Z</time>
      </trkpt>
      <trkpt lat="45.87054" lon="4.61559">
        <ele>381.07373</ele>
        <time>2023-07-04T14:55:05.000Z</time>
      </trkpt>
      <trkpt lat="45.87051" lon="4.61558">
        <ele>381.08789</ele>
        <time>2023-07-04T14:55:06.000Z</time>
      </trkpt>
      <trkpt lat="45.87046" lon="4.61557">
        <ele>381.06784</ele>
        <time>2023-07-04T14:55:08.000Z</time>
      </trkpt>
      <trkpt lat="45.87043" lon="4.61555">
        <ele>380.96146</ele>
        <time>2023-07-04T14:55:09.000Z</time>
      </trkpt>
      <trkpt lat="45.8704" lon="4.61554">
        <ele>380.79678</ele>
        <time>2023-07-04T14:55:10.000Z</time>
      </trkpt>
      <trkpt lat="45.87037" lon="4.61552">
        <ele>380.54984</ele>
        <time>2023-07-04T14:55:11.000Z</time>
      </trkpt>
      <trkpt lat="45.87034" lon="4.61551">
        <ele>380.22519</ele>
        <time>2023-07-04T14:55:12.000Z</time>
      </trkpt>
      <trkpt lat="45.87031" lon="4.61549">
        <ele>379.89041</ele>
        <time>2023-07-04T14:55:13.000Z</time>
      </trkpt>
      <trkpt lat="45.87028" lon="4.61547">
        <ele>379.54803</ele>
        <time>2023-07-04T14:55:14.000Z</time>
      </trkpt>
      <trkpt lat="45.87025" lon="4.61545">
        <ele>379.13138</ele>
        <time>2023-07-04T14:55:15.000Z</time>
      </trkpt>
      <trkpt lat="45.87022" lon="4.61544">
        <ele>378.7934</ele>
        <time>2023-07-04T14:55:16.000Z</time>
      </trkpt>
      <trkpt lat="45.87019" lon="4.61543">
        <ele>378.33545</ele>
        <time>2023-07-04T14:55:17.000Z</time>
      </trkpt>
      <trkpt lat="45.87016" lon="4.61541">
        <ele>377.99594</ele>
        <time>2023-07-04T14:55:18.000Z</time>
      </trkpt>
      <trkpt lat="45.87014" lon="4.61539">
        <ele>377.89868</ele>
        <time>2023-07-04T14:55:19.000Z</time>
      </trkpt>
      <trkpt lat="45.87012" lon="4.61537">
        <ele>377.81219</ele>
        <time>2023-07-04T14:55:20.000Z</time>
      </trkpt>
      <trkpt lat="45.87009" lon="4.61536">
        <ele>377.65494</ele>
        <time>2023-07-04T14:55:21.000Z</time>
      </trkpt>
      <trkpt lat="45.87006" lon="4.61534">
        <ele>377.52161</ele>
        <time>2023-07-04T14:55:22.000Z</time>
      </trkpt>
      <trkpt lat="45.87004" lon="4.61533">
        <ele>377.39258</ele>
        <time>2023-07-04T14:55:23.000Z</time>
      </trkpt>
      <trkpt lat="45.87002" lon="4.61531">
        <ele>377.3017</ele>
        <time>2023-07-04T14:55:24.000Z</time>
      </trkpt>
      <trkpt lat="45.87001" lon="4.61527">
        <ele>377.16888</ele>
        <time>2023-07-04T14:55:26.000Z</time>
      </trkpt>
      <trkpt lat="45.87002" lon="4.61524">
        <ele>377.22141</ele>
        <time>2023-07-04T14:55:28.000Z</time>
      </trkpt>
      <trkpt lat="45.87004" lon="4.61523">
        <ele>377.1568</ele>
        <time>2023-07-04T14:55:30.000Z</time>
      </trkpt>
      <trkpt lat="45.87007" lon="4.61521">
        <ele>377.10492</ele>
        <time>2023-07-04T14:55:32.000Z</time>
      </trkpt>
      <trkpt lat="45.87009" lon="4.61521">
        <ele>377.13596</ele>
        <time>2023-07-04T14:55:33.000Z</time>
      </trkpt>
      <trkpt lat="45.87012" lon="4.6152">
        <ele>377.15121</ele>
        <time>2023-07-04T14:55:35.000Z</time>
      </trkpt>
      <trkpt lat="45.87015" lon="4.61518">
        <ele>377.11935</ele>
        <time>2023-07-04T14:55:37.000Z</time>
      </trkpt>
      <trkpt lat="45.87019" lon="4.61516">
        <ele>377.20142</ele>
        <time>2023-07-04T14:55:39.000Z</time>
      </trkpt>
      <trkpt lat="45.87021" lon="4.61514">
        <ele>377.22549</ele>
        <time>2023-07-04T14:55:40.000Z</time>
      </trkpt>
      <trkpt lat="45.87023" lon="4.61512">
        <ele>377.25937</ele>
        <time>2023-07-04T14:55:41.000Z</time>
      </trkpt>
      <trkpt lat="45.87026" lon="4.6151">
        <ele>377.30417</ele>
        <time>2023-07-04T14:55:42.000Z</time>
      </trkpt>
      <trkpt lat="45.87028" lon="4.61508">
        <ele>377.27255</ele>
        <time>2023-07-04T14:55:43.000Z</time>
      </trkpt>
      <trkpt lat="45.8703" lon="4.61507">
        <ele>377.28665</ele>
        <time>2023-07-04T14:55:44.000Z</time>
      </trkpt>
      <trkpt lat="45.87032" lon="4.61504">
        <ele>377.28058</ele>
        <time>2023-07-04T14:55:45.000Z</time>
      </trkpt>
      <trkpt lat="45.87034" lon="4.61502">
        <ele>377.0759</ele>
        <time>2023-07-04T14:55:46.000Z</time>
      </trkpt>
      <trkpt lat="45.87037" lon="4.61499">
        <ele>376.88385</ele>
        <time>2023-07-04T14:55:47.000Z</time>
      </trkpt>
      <trkpt lat="45.87039" lon="4.61498">
        <ele>376.74951</ele>
        <time>2023-07-04T14:55:48.000Z</time>
      </trkpt>
      <trkpt lat="45.87042" lon="4.61495">
        <ele>376.5712</ele>
        <time>2023-07-04T14:55:50.000Z</time>
      </trkpt>
      <trkpt lat="45.87045" lon="4.61492">
        <ele>376.30206</ele>
        <time>2023-07-04T14:55:51.000Z</time>
      </trkpt>
      <trkpt lat="45.87047" lon="4.61489">
        <ele>376.04474</ele>
        <time>2023-07-04T14:55:52.000Z</time>
      </trkpt>
      <trkpt lat="45.87049" lon="4.61486">
        <ele>375.81732</ele>
        <time>2023-07-04T14:55:53.000Z</time>
      </trkpt>
      <trkpt lat="45.87051" lon="4.61484">
        <ele>375.43314</ele>
        <time>2023-07-04T14:55:54.000Z</time>
      </trkpt>
      <trkpt lat="45.87054" lon="4.6148">
        <ele>375.17212</ele>
        <time>2023-07-04T14:55:56.000Z</time>
      </trkpt>
      <trkpt lat="45.87055" lon="4.61478">
        <ele>374.9201</ele>
        <time>2023-07-04T14:55:57.000Z</time>
      </trkpt>
      <trkpt lat="45.87057" lon="4.61476">
        <ele>374.64804</ele>
        <time>2023-07-04T14:55:58.000Z</time>
      </trkpt>
      <trkpt lat="45.87058" lon="4.61474">
        <ele>374.62524</ele>
        <time>2023-07-04T14:55:59.000Z</time>
      </trkpt>
      <trkpt lat="45.8706" lon="4.61472">
        <ele>374.62585</ele>
        <time>2023-07-04T14:56:00.000Z</time>
      </trkpt>
      <trkpt lat="45.87062" lon="4.6147">
        <ele>374.53848</ele>
        <time>2023-07-04T14:56:01.000Z</time>
      </trkpt>
      <trkpt lat="45.87064" lon="4.61468">
        <ele>374.53986</ele>
        <time>2023-07-04T14:56:02.000Z</time>
      </trkpt>
      <trkpt lat="45.87067" lon="4.61467">
        <ele>374.53171</ele>
        <time>2023-07-04T14:56:03.000Z</time>
      </trkpt>
      <trkpt lat="45.87068" lon="4.61465">
        <ele>374.5293</ele>
        <time>2023-07-04T14:56:04.000Z</time>
      </trkpt>
      <trkpt lat="45.8707" lon="4.61464">
        <ele>374.4921</ele>
        <time>2023-07-04T14:56:05.000Z</time>
      </trkpt>
      <trkpt lat="45.87072" lon="4.61463">
        <ele>374.46674</ele>
        <time>2023-07-04T14:56:06.000Z</time>
      </trkpt>
      <trkpt lat="45.87075" lon="4.61461">
        <ele>374.36053</ele>
        <time>2023-07-04T14:56:07.000Z</time>
      </trkpt>
      <trkpt lat="45.87078" lon="4.6146">
        <ele>374.23535</ele>
        <time>2023-07-04T14:56:08.000Z</time>
      </trkpt>
      <trkpt lat="45.87082" lon="4.61459">
        <ele>374.13113</ele>
        <time>2023-07-04T14:56:09.000Z</time>
      </trkpt>
      <trkpt lat="45.87085" lon="4.61458">
        <ele>374.03741</ele>
        <time>2023-07-04T14:56:10.000Z</time>
      </trkpt>
      <trkpt lat="45.87088" lon="4.61456">
        <ele>373.95288</ele>
        <time>2023-07-04T14:56:11.000Z</time>
      </trkpt>
      <trkpt lat="45.87092" lon="4.61454">
        <ele>374.12885</ele>
        <time>2023-07-04T14:56:12.000Z</time>
      </trkpt>
      <trkpt lat="45.87095" lon="4.61452">
        <ele>374.27655</ele>
        <time>2023-07-04T14:56:13.000Z</time>
      </trkpt>
      <trkpt lat="45.87099" lon="4.61451">
        <ele>374.50677</ele>
        <time>2023-07-04T14:56:14.000Z</time>
      </trkpt>
      <trkpt lat="45.87103" lon="4.61449">
        <ele>375.02863</ele>
        <time>2023-07-04T14:56:15.000Z</time>
      </trkpt>
      <trkpt lat="45.87107" lon="4.61447">
        <ele>375.77408</ele>
        <time>2023-07-04T14:56:16.000Z</time>
      </trkpt>
      <trkpt lat="45.8711" lon="4.61444">
        <ele>376.70081</ele>
        <time>2023-07-04T14:56:17.000Z</time>
      </trkpt>
      <trkpt lat="45.87113" lon="4.6144">
        <ele>377.62701</ele>
        <time>2023-07-04T14:56:18.000Z</time>
      </trkpt>
      <trkpt lat="45.87117" lon="4.61436">
        <ele>378.44778</ele>
        <time>2023-07-04T14:56:19.000Z</time>
      </trkpt>
      <trkpt lat="45.8712" lon="4.61433">
        <ele>378.24417</ele>
        <time>2023-07-04T14:56:20.000Z</time>
      </trkpt>
      <trkpt lat="45.87123" lon="4.61431">
        <ele>378.2023</ele>
        <time>2023-07-04T14:56:21.000Z</time>
      </trkpt>
      <trkpt lat="45.87126" lon="4.61428">
        <ele>378.12582</ele>
        <time>2023-07-04T14:56:22.000Z</time>
      </trkpt>
      <trkpt lat="45.87129" lon="4.61425">
        <ele>378.05038</ele>
        <time>2023-07-04T14:56:23.000Z</time>
      </trkpt>
      <trkpt lat="45.87133" lon="4.61422">
        <ele>377.93524</ele>
        <time>2023-07-04T14:56:24.000Z</time>
      </trkpt>
      <trkpt lat="45.87136" lon="4.61419">
        <ele>377.89642</ele>
        <time>2023-07-04T14:56:25.000Z</time>
      </trkpt>
      <trkpt lat="45.8714" lon="4.61416">
        <ele>377.89319</ele>
        <time>2023-07-04T14:56:26.000Z</time>
      </trkpt>
      <trkpt lat="45.87142" lon="4.61413">
        <ele>378.04446</ele>
        <time>2023-07-04T14:56:27.000Z</time>
      </trkpt>
      <trkpt lat="45.87144" lon="4.61409">
        <ele>378.23203</ele>
        <time>2023-07-04T14:56:28.000Z</time>
      </trkpt>
      <trkpt lat="45.87146" lon="4.61404">
        <ele>378.40039</ele>
        <time>2023-07-04T14:56:29.000Z</time>
      </trkpt>
      <trkpt lat="45.87147" lon="4.614">
        <ele>378.5686</ele>
        <time>2023-07-04T14:56:30.000Z</time>
      </trkpt>
      <trkpt lat="45.87148" lon="4.61395">
        <ele>378.69336</ele>
        <time>2023-07-04T14:56:31.000Z</time>
      </trkpt>
      <trkpt lat="45.87149" lon="4.61391">
        <ele>378.61847</ele>
        <time>2023-07-04T14:56:32.000Z</time>
      </trkpt>
      <trkpt lat="45.87149" lon="4.61386">
        <ele>378.552</ele>
        <time>2023-07-04T14:56:33.000Z</time>
      </trkpt>
      <trkpt lat="45.87149" lon="4.61381">
        <ele>378.38788</ele>
        <time>2023-07-04T14:56:34.000Z</time>
      </trkpt>
      <trkpt lat="45.87149" lon="4.61376">
        <ele>377.93707</ele>
        <time>2023-07-04T14:56:35.000Z</time>
      </trkpt>
      <trkpt lat="45.8715" lon="4.61373">
        <ele>377.29565</ele>
        <time>2023-07-04T14:56:36.000Z</time>
      </trkpt>
      <trkpt lat="45.87151" lon="4.6137">
        <ele>376.52136</ele>
        <time>2023-07-04T14:56:37.000Z</time>
      </trkpt>
      <trkpt lat="45.87152" lon="4.61367">
        <ele>375.75659</ele>
        <time>2023-07-04T14:56:38.000Z</time>
      </trkpt>
      <trkpt lat="45.87153" lon="4.61363">
        <ele>374.91348</ele>
        <time>2023-07-04T14:56:39.000Z</time>
      </trkpt>
      <trkpt lat="45.87153" lon="4.6136">
        <ele>375.01404</ele>
        <time>2023-07-04T14:56:40.000Z</time>
      </trkpt>
      <trkpt lat="45.87154" lon="4.61356">
        <ele>375.01001</ele>
        <time>2023-07-04T14:56:41.000Z</time>
      </trkpt>
      <trkpt lat="45.87154" lon="4.61353">
        <ele>375.02026</ele>
        <time>2023-07-04T14:56:42.000Z</time>
      </trkpt>
      <trkpt lat="45.87154" lon="4.6135">
        <ele>375.04727</ele>
        <time>2023-07-04T14:56:43.000Z</time>
      </trkpt>
      <trkpt lat="45.87154" lon="4.61348">
        <ele>375.09018</ele>
        <time>2023-07-04T14:56:44.000Z</time>
      </trkpt>
      <trkpt lat="45.87153" lon="4.61344">
        <ele>375.09357</ele>
        <time>2023-07-04T14:56:45.000Z</time>
      </trkpt>
      <trkpt lat="45.87154" lon="4.6134">
        <ele>375.02371</ele>
        <time>2023-07-04T14:56:46.000Z</time>
      </trkpt>
      <trkpt lat="45.87155" lon="4.61335">
        <ele>374.91391</ele>
        <time>2023-07-04T14:56:47.000Z</time>
      </trkpt>
      <trkpt lat="45.87156" lon="4.61331">
        <ele>374.80975</ele>
        <time>2023-07-04T14:56:48.000Z</time>
      </trkpt>
      <trkpt lat="45.87157" lon="4.61326">
        <ele>373.31317</ele>
        <time>2023-07-04T14:56:49.000Z</time>
      </trkpt>
      <trkpt lat="45.87157" lon="4.61322">
        <ele>371.7894</ele>
        <time>2023-07-04T14:56:50.000Z</time>
      </trkpt>
      <trkpt lat="45.87159" lon="4.61318">
        <ele>370.32376</ele>
        <time>2023-07-04T14:56:51.000Z</time>
      </trkpt>
      <trkpt lat="45.8716" lon="4.61313">
        <ele>368.90192</ele>
        <time>2023-07-04T14:56:52.000Z</time>
      </trkpt>
      <trkpt lat="45.87161" lon="4.61309">
        <ele>367.50104</ele>
        <time>2023-07-04T14:56:53.000Z</time>
      </trkpt>
      <trkpt lat="45.87162" lon="4.61306">
        <ele>366.11105</ele>
        <time>2023-07-04T14:56:54.000Z</time>
      </trkpt>
      <trkpt lat="45.87163" lon="4.61302">
        <ele>364.7486</ele>
        <time>2023-07-04T14:56:55.000Z</time>
      </trkpt>
      <trkpt lat="45.87163" lon="4.61298">
        <ele>363.30182</ele>
        <time>2023-07-04T14:56:56.000Z</time>
      </trkpt>
      <trkpt lat="45.87163" lon="4.61294">
        <ele>361.85846</ele>
        <time>2023-07-04T14:56:57.000Z</time>
      </trkpt>
      <trkpt lat="45.87163" lon="4.61288">
        <ele>360.4313</ele>
        <time>2023-07-04T14:56:58.000Z</time>
      </trkpt>
      <trkpt lat="45.87164" lon="4.61283">
        <ele>358.9671</ele>
        <time>2023-07-04T14:56:59.000Z</time>
      </trkpt>
      <trkpt lat="45.87164" lon="4.61279">
        <ele>357.60416</ele>
        <time>2023-07-04T14:57:00.000Z</time>
      </trkpt>
      <trkpt lat="45.87165" lon="4.61276">
        <ele>356.20758</ele>
        <time>2023-07-04T14:57:01.000Z</time>
      </trkpt>
      <trkpt lat="45.87166" lon="4.61271">
        <ele>354.79813</ele>
        <time>2023-07-04T14:57:02.000Z</time>
      </trkpt>
      <trkpt lat="45.87167" lon="4.61267">
        <ele>353.3558</ele>
        <time>2023-07-04T14:57:03.000Z</time>
      </trkpt>
      <trkpt lat="45.87167" lon="4.61263">
        <ele>351.91934</ele>
        <time>2023-07-04T14:57:04.000Z</time>
      </trkpt>
      <trkpt lat="45.87168" lon="4.61258">
        <ele>350.48413</ele>
        <time>2023-07-04T14:57:05.000Z</time>
      </trkpt>
      <trkpt lat="45.87169" lon="4.61254">
        <ele>349.05588</ele>
        <time>2023-07-04T14:57:06.000Z</time>
      </trkpt>
      <trkpt lat="45.8717" lon="4.61251">
        <ele>347.58783</ele>
        <time>2023-07-04T14:57:07.000Z</time>
      </trkpt>
      <trkpt lat="45.87171" lon="4.61247">
        <ele>346.10785</ele>
        <time>2023-07-04T14:57:08.000Z</time>
      </trkpt>
      <trkpt lat="45.87172" lon="4.61244">
        <ele>346.05014</ele>
        <time>2023-07-04T14:57:09.000Z</time>
      </trkpt>
      <trkpt lat="45.87173" lon="4.61239">
        <ele>346.02069</ele>
        <time>2023-07-04T14:57:10.000Z</time>
      </trkpt>
      <trkpt lat="45.87174" lon="4.61235">
        <ele>345.95959</ele>
        <time>2023-07-04T14:57:11.000Z</time>
      </trkpt>
      <trkpt lat="45.87175" lon="4.61232">
        <ele>345.91833</ele>
        <time>2023-07-04T14:57:12.000Z</time>
      </trkpt>
      <trkpt lat="45.87175" lon="4.61229">
        <ele>345.86993</ele>
        <time>2023-07-04T14:57:13.000Z</time>
      </trkpt>
      <trkpt lat="45.87176" lon="4.61226">
        <ele>345.81821</ele>
        <time>2023-07-04T14:57:14.000Z</time>
      </trkpt>
      <trkpt lat="45.87176" lon="4.61223">
        <ele>345.72778</ele>
        <time>2023-07-04T14:57:15.000Z</time>
      </trkpt>
      <trkpt lat="45.87176" lon="4.6122">
        <ele>345.65741</ele>
        <time>2023-07-04T14:57:16.000Z</time>
      </trkpt>
      <trkpt lat="45.87177" lon="4.61217">
        <ele>345.54904</ele>
        <time>2023-07-04T14:57:17.000Z</time>
      </trkpt>
      <trkpt lat="45.8718" lon="4.61215">
        <ele>345.42401</ele>
        <time>2023-07-04T14:57:19.000Z</time>
      </trkpt>
      <trkpt lat="45.87182" lon="4.61213">
        <ele>345.25824</ele>
        <time>2023-07-04T14:57:22.000Z</time>
      </trkpt>
      <trkpt lat="45.87183" lon="4.6121">
        <ele>345.11395</ele>
        <time>2023-07-04T14:57:23.000Z</time>
      </trkpt>
      <trkpt lat="45.87184" lon="4.61207">
        <ele>344.98114</ele>
        <time>2023-07-04T14:57:26.000Z</time>
      </trkpt>
      <trkpt lat="45.87187" lon="4.61207">
        <ele>344.99094</ele>
        <time>2023-07-04T14:57:28.000Z</time>
      </trkpt>
      <trkpt lat="45.87189" lon="4.61207">
        <ele>345.05856</ele>
        <time>2023-07-04T14:57:29.000Z</time>
      </trkpt>
      <trkpt lat="45.87193" lon="4.61207">
        <ele>345.29608</ele>
        <time>2023-07-04T14:57:31.000Z</time>
      </trkpt>
      <trkpt lat="45.87195" lon="4.61208">
        <ele>345.67029</ele>
        <time>2023-07-04T14:57:32.000Z</time>
      </trkpt>
      <trkpt lat="45.87197" lon="4.61207">
        <ele>346.23602</ele>
        <time>2023-07-04T14:57:33.000Z</time>
      </trkpt>
      <trkpt lat="45.87199" lon="4.61207">
        <ele>346.94174</ele>
        <time>2023-07-04T14:57:34.000Z</time>
      </trkpt>
      <trkpt lat="45.87201" lon="4.61207">
        <ele>347.70673</ele>
        <time>2023-07-04T14:57:35.000Z</time>
      </trkpt>
      <trkpt lat="45.87204" lon="4.61208">
        <ele>348.66943</ele>
        <time>2023-07-04T14:57:36.000Z</time>
      </trkpt>
      <trkpt lat="45.87207" lon="4.61209">
        <ele>349.60205</ele>
        <time>2023-07-04T14:57:38.000Z</time>
      </trkpt>
      <trkpt lat="45.8721" lon="4.61211">
        <ele>350.65756</ele>
        <time>2023-07-04T14:57:39.000Z</time>
      </trkpt>
      <trkpt lat="45.87212" lon="4.61213">
        <ele>351.74155</ele>
        <time>2023-07-04T14:57:40.000Z</time>
      </trkpt>
      <trkpt lat="45.87215" lon="4.61215">
        <ele>352.84943</ele>
        <time>2023-07-04T14:57:41.000Z</time>
      </trkpt>
      <trkpt lat="45.87219" lon="4.61218">
        <ele>354.05991</ele>
        <time>2023-07-04T14:57:42.000Z</time>
      </trkpt>
      <trkpt lat="45.87222" lon="4.6122">
        <ele>355.32019</ele>
        <time>2023-07-04T14:57:43.000Z</time>
      </trkpt>
      <trkpt lat="45.87226" lon="4.61222">
        <ele>355.83344</ele>
        <time>2023-07-04T14:57:44.000Z</time>
      </trkpt>
      <trkpt lat="45.87229" lon="4.61224">
        <ele>357.6207</ele>
        <time>2023-07-04T14:57:45.000Z</time>
      </trkpt>
      <trkpt lat="45.87231" lon="4.61225">
        <ele>359.42499</ele>
        <time>2023-07-04T14:57:46.000Z</time>
      </trkpt>
      <trkpt lat="45.87233" lon="4.61226">
        <ele>361.32626</ele>
        <time>2023-07-04T14:57:47.000Z</time>
      </trkpt>
      <trkpt lat="45.87235" lon="4.61228">
        <ele>363.11139</ele>
        <time>2023-07-04T14:57:48.000Z</time>
      </trkpt>
      <trkpt lat="45.87238" lon="4.61229">
        <ele>364.71478</ele>
        <time>2023-07-04T14:57:49.000Z</time>
      </trkpt>
      <trkpt lat="45.8724" lon="4.61231">
        <ele>366.25693</ele>
        <time>2023-07-04T14:57:50.000Z</time>
      </trkpt>
      <trkpt lat="45.87242" lon="4.61232">
        <ele>367.76309</ele>
        <time>2023-07-04T14:57:51.000Z</time>
      </trkpt>
      <trkpt lat="45.87244" lon="4.61233">
        <ele>369.0137</ele>
        <time>2023-07-04T14:57:52.000Z</time>
      </trkpt>
      <trkpt lat="45.87247" lon="4.61234">
        <ele>371.28442</ele>
        <time>2023-07-04T14:57:53.000Z</time>
      </trkpt>
      <trkpt lat="45.87249" lon="4.61236">
        <ele>373.39532</ele>
        <time>2023-07-04T14:57:54.000Z</time>
      </trkpt>
      <trkpt lat="45.87252" lon="4.61237">
        <ele>375.43289</ele>
        <time>2023-07-04T14:57:55.000Z</time>
      </trkpt>
      <trkpt lat="45.87254" lon="4.61239">
        <ele>377.36603</ele>
        <time>2023-07-04T14:57:56.000Z</time>
      </trkpt>
      <trkpt lat="45.87257" lon="4.6124">
        <ele>378.77728</ele>
        <time>2023-07-04T14:57:57.000Z</time>
      </trkpt>
      <trkpt lat="45.87261" lon="4.61242">
        <ele>380.23404</ele>
        <time>2023-07-04T14:57:59.000Z</time>
      </trkpt>
      <trkpt lat="45.87263" lon="4.61245">
        <ele>381.54752</ele>
        <time>2023-07-04T14:58:00.000Z</time>
      </trkpt>
      <trkpt lat="45.87265" lon="4.61247">
        <ele>382.83224</ele>
        <time>2023-07-04T14:58:01.000Z</time>
      </trkpt>
      <trkpt lat="45.87267" lon="4.6125">
        <ele>384.02859</ele>
        <time>2023-07-04T14:58:03.000Z</time>
      </trkpt>
      <trkpt lat="45.87269" lon="4.61251">
        <ele>385.07281</ele>
        <time>2023-07-04T14:58:04.000Z</time>
      </trkpt>
      <trkpt lat="45.87271" lon="4.61254">
        <ele>386.5152</ele>
        <time>2023-07-04T14:58:05.000Z</time>
      </trkpt>
      <trkpt lat="45.87273" lon="4.61256">
        <ele>388.64127</ele>
        <time>2023-07-04T14:58:06.000Z</time>
      </trkpt>
      <trkpt lat="45.87275" lon="4.61259">
        <ele>389.51935</ele>
        <time>2023-07-04T14:58:07.000Z</time>
      </trkpt>
      <trkpt lat="45.87277" lon="4.61262">
        <ele>390.42847</ele>
        <time>2023-07-04T14:58:08.000Z</time>
      </trkpt>
      <trkpt lat="45.87279" lon="4.61265">
        <ele>391.95367</ele>
        <time>2023-07-04T14:58:09.000Z</time>
      </trkpt>
      <trkpt lat="45.87281" lon="4.61267">
        <ele>393.88715</ele>
        <time>2023-07-04T14:58:10.000Z</time>
      </trkpt>
      <trkpt lat="45.87283" lon="4.6127">
        <ele>396.00415</ele>
        <time>2023-07-04T14:58:11.000Z</time>
      </trkpt>
      <trkpt lat="45.87284" lon="4.61272">
        <ele>398.19025</ele>
        <time>2023-07-04T14:58:12.000Z</time>
      </trkpt>
      <trkpt lat="45.87286" lon="4.61275">
        <ele>400.36322</ele>
        <time>2023-07-04T14:58:13.000Z</time>
      </trkpt>
      <trkpt lat="45.87288" lon="4.61278">
        <ele>402.63995</ele>
        <time>2023-07-04T14:58:14.000Z</time>
      </trkpt>
      <trkpt lat="45.87289" lon="4.61281">
        <ele>403.82925</ele>
        <time>2023-07-04T14:58:15.000Z</time>
      </trkpt>
      <trkpt lat="45.8729" lon="4.61284">
        <ele>405.00461</ele>
        <time>2023-07-04T14:58:16.000Z</time>
      </trkpt>
      <trkpt lat="45.87292" lon="4.61286">
        <ele>406.16403</ele>
        <time>2023-07-04T14:58:17.000Z</time>
      </trkpt>
      <trkpt lat="45.87295" lon="4.61288">
        <ele>407.35907</ele>
        <time>2023-07-04T14:58:18.000Z</time>
      </trkpt>
      <trkpt lat="45.87298" lon="4.61288">
        <ele>408.89874</ele>
        <time>2023-07-04T14:58:19.000Z</time>
      </trkpt>
      <trkpt lat="45.87301" lon="4.61286">
        <ele>410.42911</ele>
        <time>2023-07-04T14:58:20.000Z</time>
      </trkpt>
      <trkpt lat="45.87302" lon="4.61283">
        <ele>411.97159</ele>
        <time>2023-07-04T14:58:21.000Z</time>
      </trkpt>
      <trkpt lat="45.87304" lon="4.6128">
        <ele>413.48813</ele>
        <time>2023-07-04T14:58:22.000Z</time>
      </trkpt>
      <trkpt lat="45.87305" lon="4.61277">
        <ele>415.04703</ele>
        <time>2023-07-04T14:58:23.000Z</time>
      </trkpt>
      <trkpt lat="45.87307" lon="4.61274">
        <ele>416.64899</ele>
        <time>2023-07-04T14:58:24.000Z</time>
      </trkpt>
      <trkpt lat="45.87308" lon="4.6127">
        <ele>417.85629</ele>
        <time>2023-07-04T14:58:25.000Z</time>
      </trkpt>
      <trkpt lat="45.87309" lon="4.61266">
        <ele>419.1517</ele>
        <time>2023-07-04T14:58:26.000Z</time>
      </trkpt>
      <trkpt lat="45.8731" lon="4.61262">
        <ele>420.48419</ele>
        <time>2023-07-04T14:58:27.000Z</time>
      </trkpt>
      <trkpt lat="45.87311" lon="4.61258">
        <ele>421.77109</ele>
        <time>2023-07-04T14:58:28.000Z</time>
      </trkpt>
      <trkpt lat="45.87312" lon="4.61253">
        <ele>422.39175</ele>
        <time>2023-07-04T14:58:29.000Z</time>
      </trkpt>
      <trkpt lat="45.87314" lon="4.6125">
        <ele>422.71979</ele>
        <time>2023-07-04T14:58:30.000Z</time>
      </trkpt>
      <trkpt lat="45.87315" lon="4.61246">
        <ele>423.03583</ele>
        <time>2023-07-04T14:58:31.000Z</time>
      </trkpt>
      <trkpt lat="45.87316" lon="4.61243">
        <ele>423.19556</ele>
        <time>2023-07-04T14:58:32.000Z</time>
      </trkpt>
      <trkpt lat="45.87318" lon="4.6124">
        <ele>422.51285</ele>
        <time>2023-07-04T14:58:33.000Z</time>
      </trkpt>
      <trkpt lat="45.87319" lon="4.61237">
        <ele>421.85382</ele>
        <time>2023-07-04T14:58:34.000Z</time>
      </trkpt>
      <trkpt lat="45.87321" lon="4.61233">
        <ele>421.18457</ele>
        <time>2023-07-04T14:58:35.000Z</time>
      </trkpt>
      <trkpt lat="45.87322" lon="4.61229">
        <ele>420.3775</ele>
        <time>2023-07-04T14:58:36.000Z</time>
      </trkpt>
      <trkpt lat="45.87324" lon="4.61225">
        <ele>419.37085</ele>
        <time>2023-07-04T14:58:37.000Z</time>
      </trkpt>
      <trkpt lat="45.87325" lon="4.61221">
        <ele>418.26807</ele>
        <time>2023-07-04T14:58:38.000Z</time>
      </trkpt>
      <trkpt lat="45.87327" lon="4.61217">
        <ele>417.17328</ele>
        <time>2023-07-04T14:58:39.000Z</time>
      </trkpt>
      <trkpt lat="45.87329" lon="4.61214">
        <ele>416.61823</ele>
        <time>2023-07-04T14:58:40.000Z</time>
      </trkpt>
      <trkpt lat="45.8733" lon="4.6121">
        <ele>416.04559</ele>
        <time>2023-07-04T14:58:41.000Z</time>
      </trkpt>
      <trkpt lat="45.87332" lon="4.61206">
        <ele>415.5415</ele>
        <time>2023-07-04T14:58:42.000Z</time>
      </trkpt>
      <trkpt lat="45.87334" lon="4.61202">
        <ele>415.10565</ele>
        <time>2023-07-04T14:58:43.000Z</time>
      </trkpt>
      <trkpt lat="45.87335" lon="4.61198">
        <ele>414.72168</ele>
        <time>2023-07-04T14:58:44.000Z</time>
      </trkpt>
      <trkpt lat="45.87337" lon="4.61194">
        <ele>414.34601</ele>
        <time>2023-07-04T14:58:45.000Z</time>
      </trkpt>
      <trkpt lat="45.87338" lon="4.61189">
        <ele>414.01727</ele>
        <time>2023-07-04T14:58:46.000Z</time>
      </trkpt>
      <trkpt lat="45.8734" lon="4.61185">
        <ele>413.6459</ele>
        <time>2023-07-04T14:58:47.000Z</time>
      </trkpt>
      <trkpt lat="45.87341" lon="4.61181">
        <ele>413.29077</ele>
        <time>2023-07-04T14:58:48.000Z</time>
      </trkpt>
      <trkpt lat="45.87342" lon="4.61176">
        <ele>412.94403</ele>
        <time>2023-07-04T14:58:49.000Z</time>
      </trkpt>
      <trkpt lat="45.87344" lon="4.61172">
        <ele>412.6037</ele>
        <time>2023-07-04T14:58:50.000Z</time>
      </trkpt>
      <trkpt lat="45.87345" lon="4.61167">
        <ele>412.27319</ele>
        <time>2023-07-04T14:58:51.000Z</time>
      </trkpt>
      <trkpt lat="45.87346" lon="4.61162">
        <ele>411.96597</ele>
        <time>2023-07-04T14:58:52.000Z</time>
      </trkpt>
      <trkpt lat="45.87348" lon="4.61157">
        <ele>412.51334</ele>
        <time>2023-07-04T14:58:53.000Z</time>
      </trkpt>
      <trkpt lat="45.87349" lon="4.61153">
        <ele>413.02402</ele>
        <time>2023-07-04T14:58:54.000Z</time>
      </trkpt>
      <trkpt lat="45.87351" lon="4.61148">
        <ele>413.49536</ele>
        <time>2023-07-04T14:58:55.000Z</time>
      </trkpt>
      <trkpt lat="45.87352" lon="4.61144">
        <ele>414.12042</ele>
        <time>2023-07-04T14:58:56.000Z</time>
      </trkpt>
      <trkpt lat="45.87354" lon="4.61139">
        <ele>414.73251</ele>
        <time>2023-07-04T14:58:57.000Z</time>
      </trkpt>
      <trkpt lat="45.87355" lon="4.61134">
        <ele>415.43683</ele>
        <time>2023-07-04T14:58:58.000Z</time>
      </trkpt>
      <trkpt lat="45.87357" lon="4.6113">
        <ele>416.03864</ele>
        <time>2023-07-04T14:58:59.000Z</time>
      </trkpt>
      <trkpt lat="45.87359" lon="4.61126">
        <ele>416.05225</ele>
        <time>2023-07-04T14:59:00.000Z</time>
      </trkpt>
      <trkpt lat="45.87361" lon="4.61121">
        <ele>416.04965</ele>
        <time>2023-07-04T14:59:01.000Z</time>
      </trkpt>
      <trkpt lat="45.87362" lon="4.61116">
        <ele>416.04791</ele>
        <time>2023-07-04T14:59:02.000Z</time>
      </trkpt>
      <trkpt lat="45.87364" lon="4.61111">
        <ele>415.87247</ele>
        <time>2023-07-04T14:59:03.000Z</time>
      </trkpt>
      <trkpt lat="45.87365" lon="4.61106">
        <ele>415.62979</ele>
        <time>2023-07-04T14:59:04.000Z</time>
      </trkpt>
      <trkpt lat="45.87367" lon="4.61101">
        <ele>415.82916</ele>
        <time>2023-07-04T14:59:05.000Z</time>
      </trkpt>
      <trkpt lat="45.87368" lon="4.61095">
        <ele>415.93536</ele>
        <time>2023-07-04T14:59:06.000Z</time>
      </trkpt>
      <trkpt lat="45.8737" lon="4.61089">
        <ele>416.00034</ele>
        <time>2023-07-04T14:59:07.000Z</time>
      </trkpt>
      <trkpt lat="45.87371" lon="4.61083">
        <ele>416.04092</ele>
        <time>2023-07-04T14:59:08.000Z</time>
      </trkpt>
      <trkpt lat="45.87373" lon="4.61077">
        <ele>416.08966</ele>
        <time>2023-07-04T14:59:09.000Z</time>
      </trkpt>
      <trkpt lat="45.87374" lon="4.61071">
        <ele>416.15302</ele>
        <time>2023-07-04T14:59:10.000Z</time>
      </trkpt>
      <trkpt lat="45.87375" lon="4.61065">
        <ele>416.21002</ele>
        <time>2023-07-04T14:59:11.000Z</time>
      </trkpt>
      <trkpt lat="45.87377" lon="4.6106">
        <ele>416.79825</ele>
        <time>2023-07-04T14:59:12.000Z</time>
      </trkpt>
      <trkpt lat="45.87378" lon="4.61054">
        <ele>417.40634</ele>
        <time>2023-07-04T14:59:13.000Z</time>
      </trkpt>
      <trkpt lat="45.87379" lon="4.61048">
        <ele>418.05255</ele>
        <time>2023-07-04T14:59:14.000Z</time>
      </trkpt>
      <trkpt lat="45.87381" lon="4.61042">
        <ele>418.69196</ele>
        <time>2023-07-04T14:59:15.000Z</time>
      </trkpt>
      <trkpt lat="45.87382" lon="4.61035">
        <ele>419.32333</ele>
        <time>2023-07-04T14:59:16.000Z</time>
      </trkpt>
      <trkpt lat="45.87383" lon="4.61029">
        <ele>420.16269</ele>
        <time>2023-07-04T14:59:17.000Z</time>
      </trkpt>
      <trkpt lat="45.87383" lon="4.61023">
        <ele>420.9787</ele>
        <time>2023-07-04T14:59:18.000Z</time>
      </trkpt>
      <trkpt lat="45.87385" lon="4.61016">
        <ele>420.99127</ele>
        <time>2023-07-04T14:59:19.000Z</time>
      </trkpt>
      <trkpt lat="45.87385" lon="4.61011">
        <ele>421.17401</ele>
        <time>2023-07-04T14:59:20.000Z</time>
      </trkpt>
      <trkpt lat="45.87386" lon="4.61004">
        <ele>421.46198</ele>
        <time>2023-07-04T14:59:21.000Z</time>
      </trkpt>
      <trkpt lat="45.87387" lon="4.60998">
        <ele>421.70001</ele>
        <time>2023-07-04T14:59:22.000Z</time>
      </trkpt>
      <trkpt lat="45.87389" lon="4.6099">
        <ele>421.909</ele>
        <time>2023-07-04T14:59:23.000Z</time>
      </trkpt>
      <trkpt lat="45.8739" lon="4.60983">
        <ele>422.04193</ele>
        <time>2023-07-04T14:59:24.000Z</time>
      </trkpt>
      <trkpt lat="45.87391" lon="4.60977">
        <ele>421.67114</ele>
        <time>2023-07-04T14:59:25.000Z</time>
      </trkpt>
      <trkpt lat="45.87391" lon="4.60971">
        <ele>421.41177</ele>
        <time>2023-07-04T14:59:26.000Z</time>
      </trkpt>
      <trkpt lat="45.87391" lon="4.60966">
        <ele>421.25946</ele>
        <time>2023-07-04T14:59:27.000Z</time>
      </trkpt>
      <trkpt lat="45.87392" lon="4.6096">
        <ele>421.17938</ele>
        <time>2023-07-04T14:59:28.000Z</time>
      </trkpt>
      <trkpt lat="45.87393" lon="4.60954">
        <ele>421.08505</ele>
        <time>2023-07-04T14:59:29.000Z</time>
      </trkpt>
      <trkpt lat="45.87393" lon="4.60946">
        <ele>420.83209</ele>
        <time>2023-07-04T14:59:30.000Z</time>
      </trkpt>
      <trkpt lat="45.87394" lon="4.6094">
        <ele>420.60516</ele>
        <time>2023-07-04T14:59:31.000Z</time>
      </trkpt>
      <trkpt lat="45.87395" lon="4.60933">
        <ele>419.78555</ele>
        <time>2023-07-04T14:59:32.000Z</time>
      </trkpt>
      <trkpt lat="45.87395" lon="4.60926">
        <ele>418.74677</ele>
        <time>2023-07-04T14:59:33.000Z</time>
      </trkpt>
      <trkpt lat="45.87396" lon="4.6092">
        <ele>417.74225</ele>
        <time>2023-07-04T14:59:34.000Z</time>
      </trkpt>
      <trkpt lat="45.87397" lon="4.60914">
        <ele>416.79388</ele>
        <time>2023-07-04T14:59:35.000Z</time>
      </trkpt>
      <trkpt lat="45.87399" lon="4.60908">
        <ele>415.96762</ele>
        <time>2023-07-04T14:59:36.000Z</time>
      </trkpt>
      <trkpt lat="45.87399" lon="4.60902">
        <ele>414.97885</ele>
        <time>2023-07-04T14:59:37.000Z</time>
      </trkpt>
      <trkpt lat="45.87401" lon="4.60897">
        <ele>414.59415</ele>
        <time>2023-07-04T14:59:38.000Z</time>
      </trkpt>
      <trkpt lat="45.87402" lon="4.60892">
        <ele>415.03491</ele>
        <time>2023-07-04T14:59:39.000Z</time>
      </trkpt>
      <trkpt lat="45.87402" lon="4.60887">
        <ele>415.40683</ele>
        <time>2023-07-04T14:59:40.000Z</time>
      </trkpt>
      <trkpt lat="45.87402" lon="4.60883">
        <ele>415.52826</ele>
        <time>2023-07-04T14:59:41.000Z</time>
      </trkpt>
      <trkpt lat="45.87403" lon="4.60877">
        <ele>415.64191</ele>
        <time>2023-07-04T14:59:42.000Z</time>
      </trkpt>
      <trkpt lat="45.87404" lon="4.60873">
        <ele>415.89804</ele>
        <time>2023-07-04T14:59:43.000Z</time>
      </trkpt>
      <trkpt lat="45.87405" lon="4.60868">
        <ele>416.21664</ele>
        <time>2023-07-04T14:59:44.000Z</time>
      </trkpt>
      <trkpt lat="45.87406" lon="4.60862">
        <ele>416.58487</ele>
        <time>2023-07-04T14:59:45.000Z</time>
      </trkpt>
      <trkpt lat="45.87407" lon="4.60857">
        <ele>416.76959</ele>
        <time>2023-07-04T14:59:46.000Z</time>
      </trkpt>
      <trkpt lat="45.87408" lon="4.60852">
        <ele>416.82535</ele>
        <time>2023-07-04T14:59:47.000Z</time>
      </trkpt>
      <trkpt lat="45.87408" lon="4.60847">
        <ele>416.8707</ele>
        <time>2023-07-04T14:59:48.000Z</time>
      </trkpt>
      <trkpt lat="45.87409" lon="4.60843">
        <ele>416.88666</ele>
        <time>2023-07-04T14:59:49.000Z</time>
      </trkpt>
      <trkpt lat="45.8741" lon="4.60838">
        <ele>417.11517</ele>
        <time>2023-07-04T14:59:50.000Z</time>
      </trkpt>
      <trkpt lat="45.8741" lon="4.60834">
        <ele>417.327</ele>
        <time>2023-07-04T14:59:51.000Z</time>
      </trkpt>
      <trkpt lat="45.87411" lon="4.60831">
        <ele>417.59277</ele>
        <time>2023-07-04T14:59:52.000Z</time>
      </trkpt>
      <trkpt lat="45.87411" lon="4.60828">
        <ele>418.04501</ele>
        <time>2023-07-04T14:59:53.000Z</time>
      </trkpt>
      <trkpt lat="45.87411" lon="4.60824">
        <ele>418.54559</ele>
        <time>2023-07-04T14:59:54.000Z</time>
      </trkpt>
      <trkpt lat="45.87411" lon="4.6082">
        <ele>418.98822</ele>
        <time>2023-07-04T14:59:55.000Z</time>
      </trkpt>
      <trkpt lat="45.8741" lon="4.60817">
        <ele>419.27441</ele>
        <time>2023-07-04T14:59:56.000Z</time>
      </trkpt>
      <trkpt lat="45.87409" lon="4.60814">
        <ele>419.67758</ele>
        <time>2023-07-04T14:59:57.000Z</time>
      </trkpt>
      <trkpt lat="45.87407" lon="4.60811">
        <ele>419.97418</ele>
        <time>2023-07-04T14:59:58.000Z</time>
      </trkpt>
      <trkpt lat="45.87404" lon="4.60809">
        <ele>420.26025</ele>
        <time>2023-07-04T14:59:59.000Z</time>
      </trkpt>
      <trkpt lat="45.87401" lon="4.60807">
        <ele>420.48828</ele>
        <time>2023-07-04T15:00:00.000Z</time>
      </trkpt>
      <trkpt lat="45.87397" lon="4.60807">
        <ele>420.87851</ele>
        <time>2023-07-04T15:00:01.000Z</time>
      </trkpt>
      <trkpt lat="45.87393" lon="4.60807">
        <ele>421.2374</ele>
        <time>2023-07-04T15:00:02.000Z</time>
      </trkpt>
      <trkpt lat="45.87389" lon="4.60807">
        <ele>421.60776</ele>
        <time>2023-07-04T15:00:03.000Z</time>
      </trkpt>
      <trkpt lat="45.87385" lon="4.60806">
        <ele>422.01065</ele>
        <time>2023-07-04T15:00:04.000Z</time>
      </trkpt>
      <trkpt lat="45.87381" lon="4.60805">
        <ele>422.35532</ele>
        <time>2023-07-04T15:00:05.000Z</time>
      </trkpt>
      <trkpt lat="45.87377" lon="4.60805">
        <ele>422.79272</ele>
        <time>2023-07-04T15:00:06.000Z</time>
      </trkpt>
      <trkpt lat="45.87373" lon="4.60804">
        <ele>423.33612</ele>
        <time>2023-07-04T15:00:07.000Z</time>
      </trkpt>
      <trkpt lat="45.8737" lon="4.60803">
        <ele>423.79288</ele>
        <time>2023-07-04T15:00:08.000Z</time>
      </trkpt>
      <trkpt lat="45.87367" lon="4.60802">
        <ele>424.28378</ele>
        <time>2023-07-04T15:00:09.000Z</time>
      </trkpt>
      <trkpt lat="45.87364" lon="4.60802">
        <ele>424.69327</ele>
        <time>2023-07-04T15:00:10.000Z</time>
      </trkpt>
      <trkpt lat="45.87361" lon="4.60801">
        <ele>425.07968</ele>
        <time>2023-07-04T15:00:11.000Z</time>
      </trkpt>
      <trkpt lat="45.87359" lon="4.60799">
        <ele>425.44434</ele>
        <time>2023-07-04T15:00:12.000Z</time>
      </trkpt>
      <trkpt lat="45.87357" lon="4.60798">
        <ele>425.78802</ele>
        <time>2023-07-04T15:00:13.000Z</time>
      </trkpt>
      <trkpt lat="45.87355" lon="4.60798">
        <ele>426.00723</ele>
        <time>2023-07-04T15:00:14.000Z</time>
      </trkpt>
      <trkpt lat="45.87352" lon="4.60798">
        <ele>425.8869</ele>
        <time>2023-07-04T15:00:15.000Z</time>
      </trkpt>
      <trkpt lat="45.8735" lon="4.60797">
        <ele>425.72736</ele>
        <time>2023-07-04T15:00:16.000Z</time>
      </trkpt>
      <trkpt lat="45.87347" lon="4.60797">
        <ele>426.07504</ele>
        <time>2023-07-04T15:00:17.000Z</time>
      </trkpt>
      <trkpt lat="45.87344" lon="4.60796">
        <ele>425.8847</ele>
        <time>2023-07-04T15:00:18.000Z</time>
      </trkpt>
      <trkpt lat="45.87341" lon="4.60795">
        <ele>425.74521</ele>
        <time>2023-07-04T15:00:19.000Z</time>
      </trkpt>
      <trkpt lat="45.87337" lon="4.60794">
        <ele>425.60092</ele>
        <time>2023-07-04T15:00:20.000Z</time>
      </trkpt>
      <trkpt lat="45.87334" lon="4.60793">
        <ele>425.49738</ele>
        <time>2023-07-04T15:00:21.000Z</time>
      </trkpt>
      <trkpt lat="45.87331" lon="4.60792">
        <ele>425.38565</ele>
        <time>2023-07-04T15:00:22.000Z</time>
      </trkpt>
      <trkpt lat="45.87328" lon="4.60792">
        <ele>425.2916</ele>
        <time>2023-07-04T15:00:23.000Z</time>
      </trkpt>
      <trkpt lat="45.87326" lon="4.60794">
        <ele>425.19391</ele>
        <time>2023-07-04T15:00:24.000Z</time>
      </trkpt>
      <trkpt lat="45.87324" lon="4.60796">
        <ele>425.11191</ele>
        <time>2023-07-04T15:00:25.000Z</time>
      </trkpt>
      <trkpt lat="45.87323" lon="4.60801">
        <ele>425.05753</ele>
        <time>2023-07-04T15:00:26.000Z</time>
      </trkpt>
      <trkpt lat="45.87321" lon="4.60806">
        <ele>424.95987</ele>
        <time>2023-07-04T15:00:27.000Z</time>
      </trkpt>
      <trkpt lat="45.87321" lon="4.60814">
        <ele>424.64542</ele>
        <time>2023-07-04T15:00:28.000Z</time>
      </trkpt>
      <trkpt lat="45.87318" lon="4.60818">
        <ele>424.13257</ele>
        <time>2023-07-04T15:00:29.000Z</time>
      </trkpt>
      <trkpt lat="45.87316" lon="4.60825">
        <ele>424.07269</ele>
        <time>2023-07-04T15:00:30.000Z</time>
      </trkpt>
      <trkpt lat="45.87314" lon="4.60832">
        <ele>423.94904</ele>
        <time>2023-07-04T15:00:31.000Z</time>
      </trkpt>
      <trkpt lat="45.87312" lon="4.60839">
        <ele>423.80923</ele>
        <time>2023-07-04T15:00:32.000Z</time>
      </trkpt>
      <trkpt lat="45.87309" lon="4.60847">
        <ele>423.68106</ele>
        <time>2023-07-04T15:00:33.000Z</time>
      </trkpt>
      <trkpt lat="45.87306" lon="4.60857">
        <ele>423.51523</ele>
        <time>2023-07-04T15:00:34.000Z</time>
      </trkpt>
      <trkpt lat="45.87304" lon="4.60866">
        <ele>423.61426</ele>
        <time>2023-07-04T15:00:35.000Z</time>
      </trkpt>
      <trkpt lat="45.87301" lon="4.60875">
        <ele>423.67392</ele>
        <time>2023-07-04T15:00:36.000Z</time>
      </trkpt>
      <trkpt lat="45.87299" lon="4.60884">
        <ele>423.1192</ele>
        <time>2023-07-04T15:00:37.000Z</time>
      </trkpt>
      <trkpt lat="45.87295" lon="4.60892">
        <ele>422.48965</ele>
        <time>2023-07-04T15:00:38.000Z</time>
      </trkpt>
      <trkpt lat="45.87292" lon="4.60903">
        <ele>421.72012</ele>
        <time>2023-07-04T15:00:39.000Z</time>
      </trkpt>
      <trkpt lat="45.87289" lon="4.60913">
        <ele>421.05438</ele>
        <time>2023-07-04T15:00:40.000Z</time>
      </trkpt>
      <trkpt lat="45.87286" lon="4.60922">
        <ele>420.33905</ele>
        <time>2023-07-04T15:00:41.000Z</time>
      </trkpt>
      <trkpt lat="45.87284" lon="4.60933">
        <ele>419.48007</ele>
        <time>2023-07-04T15:00:42.000Z</time>
      </trkpt>
      <trkpt lat="45.87281" lon="4.60944">
        <ele>418.5687</ele>
        <time>2023-07-04T15:00:43.000Z</time>
      </trkpt>
      <trkpt lat="45.87277" lon="4.60956">
        <ele>417.73306</ele>
        <time>2023-07-04T15:00:44.000Z</time>
      </trkpt>
      <trkpt lat="45.87272" lon="4.60969">
        <ele>416.89532</ele>
        <time>2023-07-04T15:00:45.000Z</time>
      </trkpt>
      <trkpt lat="45.87269" lon="4.60981">
        <ele>416.05621</ele>
        <time>2023-07-04T15:00:46.000Z</time>
      </trkpt>
      <trkpt lat="45.87266" lon="4.60993">
        <ele>415.27866</ele>
        <time>2023-07-04T15:00:47.000Z</time>
      </trkpt>
      <trkpt lat="45.8726" lon="4.61002">
        <ele>414.72421</ele>
        <time>2023-07-04T15:00:48.000Z</time>
      </trkpt>
      <trkpt lat="45.87256" lon="4.61011">
        <ele>414.28134</ele>
        <time>2023-07-04T15:00:49.000Z</time>
      </trkpt>
      <trkpt lat="45.8725" lon="4.61017">
        <ele>413.48334</ele>
        <time>2023-07-04T15:00:50.000Z</time>
      </trkpt>
      <trkpt lat="45.87242" lon="4.6102">
        <ele>412.73145</ele>
        <time>2023-07-04T15:00:51.000Z</time>
      </trkpt>
      <trkpt lat="45.87235" lon="4.61021">
        <ele>412.00464</ele>
        <time>2023-07-04T15:00:52.000Z</time>
      </trkpt>
      <trkpt lat="45.87229" lon="4.61023">
        <ele>411.2916</ele>
        <time>2023-07-04T15:00:53.000Z</time>
      </trkpt>
      <trkpt lat="45.87223" lon="4.61027">
        <ele>410.69321</ele>
        <time>2023-07-04T15:00:54.000Z</time>
      </trkpt>
      <trkpt lat="45.87218" lon="4.61032">
        <ele>410.00757</ele>
        <time>2023-07-04T15:00:55.000Z</time>
      </trkpt>
      <trkpt lat="45.87213" lon="4.61039">
        <ele>409.3631</ele>
        <time>2023-07-04T15:00:56.000Z</time>
      </trkpt>
      <trkpt lat="45.87209" lon="4.61043">
        <ele>408.65552</ele>
        <time>2023-07-04T15:00:57.000Z</time>
      </trkpt>
      <trkpt lat="45.87204" lon="4.61048">
        <ele>407.96759</ele>
        <time>2023-07-04T15:00:58.000Z</time>
      </trkpt>
      <trkpt lat="45.87201" lon="4.61052">
        <ele>407.31799</ele>
        <time>2023-07-04T15:00:59.000Z</time>
      </trkpt>
      <trkpt lat="45.87199" lon="4.6106">
        <ele>407.04053</ele>
        <time>2023-07-04T15:01:00.000Z</time>
      </trkpt>
      <trkpt lat="45.87198" lon="4.61068">
        <ele>407.42245</ele>
        <time>2023-07-04T15:01:01.000Z</time>
      </trkpt>
      <trkpt lat="45.87197" lon="4.61076">
        <ele>407.89523</ele>
        <time>2023-07-04T15:01:02.000Z</time>
      </trkpt>
      <trkpt lat="45.87199" lon="4.61086">
        <ele>408.40457</ele>
        <time>2023-07-04T15:01:03.000Z</time>
      </trkpt>
      <trkpt lat="45.872" lon="4.61095">
        <ele>408.82983</ele>
        <time>2023-07-04T15:01:04.000Z</time>
      </trkpt>
      <trkpt lat="45.872" lon="4.61104">
        <ele>409.2142</ele>
        <time>2023-07-04T15:01:05.000Z</time>
      </trkpt>
      <trkpt lat="45.87201" lon="4.61112">
        <ele>409.52951</ele>
        <time>2023-07-04T15:01:06.000Z</time>
      </trkpt>
      <trkpt lat="45.872" lon="4.61121">
        <ele>409.75815</ele>
        <time>2023-07-04T15:01:07.000Z</time>
      </trkpt>
      <trkpt lat="45.87201" lon="4.61129">
        <ele>408.35263</ele>
        <time>2023-07-04T15:01:08.000Z</time>
      </trkpt>
      <trkpt lat="45.87202" lon="4.61136">
        <ele>407.28125</ele>
        <time>2023-07-04T15:01:09.000Z</time>
      </trkpt>
      <trkpt lat="45.87203" lon="4.6114">
        <ele>406.15741</ele>
        <time>2023-07-04T15:01:10.000Z</time>
      </trkpt>
      <trkpt lat="45.87202" lon="4.61145">
        <ele>404.7803</ele>
        <time>2023-07-04T15:01:11.000Z</time>
      </trkpt>
      <trkpt lat="45.87201" lon="4.6115">
        <ele>403.77716</ele>
        <time>2023-07-04T15:01:12.000Z</time>
      </trkpt>
      <trkpt lat="45.87202" lon="4.61154">
        <ele>402.66266</ele>
        <time>2023-07-04T15:01:14.000Z</time>
      </trkpt>
      <trkpt lat="45.87201" lon="4.61158">
        <ele>401.4191</ele>
        <time>2023-07-04T15:01:16.000Z</time>
      </trkpt>
      <trkpt lat="45.87202" lon="4.6116">
        <ele>400.47574</ele>
        <time>2023-07-04T15:01:30.000Z</time>
      </trkpt>
      <trkpt lat="45.87204" lon="4.61163">
        <ele>399.47638</ele>
        <time>2023-07-04T15:01:33.000Z</time>
      </trkpt>
      <trkpt lat="45.87206" lon="4.61166">
        <ele>398.7583</ele>
        <time>2023-07-04T15:01:34.000Z</time>
      </trkpt>
      <trkpt lat="45.87206" lon="4.6117">
        <ele>398.17841</ele>
        <time>2023-07-04T15:01:35.000Z</time>
      </trkpt>
      <trkpt lat="45.87207" lon="4.61173">
        <ele>397.79742</ele>
        <time>2023-07-04T15:01:36.000Z</time>
      </trkpt>
      <trkpt lat="45.87207" lon="4.61176">
        <ele>396.97772</ele>
        <time>2023-07-04T15:01:37.000Z</time>
      </trkpt>
      <trkpt lat="45.87206" lon="4.6118">
        <ele>395.49786</ele>
        <time>2023-07-04T15:01:38.000Z</time>
      </trkpt>
      <trkpt lat="45.87206" lon="4.61183">
        <ele>394.03726</ele>
        <time>2023-07-04T15:01:39.000Z</time>
      </trkpt>
      <trkpt lat="45.87205" lon="4.61186">
        <ele>392.58698</ele>
        <time>2023-07-04T15:01:40.000Z</time>
      </trkpt>
      <trkpt lat="45.87202" lon="4.61189">
        <ele>391.08505</ele>
        <time>2023-07-04T15:01:42.000Z</time>
      </trkpt>
      <trkpt lat="45.872" lon="4.61191">
        <ele>389.73123</ele>
        <time>2023-07-04T15:01:44.000Z</time>
      </trkpt>
      <trkpt lat="45.87197" lon="4.61193">
        <ele>388.43213</ele>
        <time>2023-07-04T15:01:46.000Z</time>
      </trkpt>
      <trkpt lat="45.87196" lon="4.61194">
        <ele>387.21655</ele>
        <time>2023-07-04T15:01:49.000Z</time>
      </trkpt>
      <trkpt lat="45.87194" lon="4.61194">
        <ele>387.52197</ele>
        <time>2023-07-04T15:01:56.000Z</time>
      </trkpt>
      <trkpt lat="45.8719" lon="4.61195">
        <ele>387.4787</ele>
        <time>2023-07-04T15:01:58.000Z</time>
      </trkpt>
      <trkpt lat="45.87187" lon="4.61194">
        <ele>387.49255</ele>
        <time>2023-07-04T15:02:00.000Z</time>
      </trkpt>
      <trkpt lat="45.87184" lon="4.61194">
        <ele>387.81284</ele>
        <time>2023-07-04T15:02:01.000Z</time>
      </trkpt>
      <trkpt lat="45.87181" lon="4.61192">
        <ele>387.52408</ele>
        <time>2023-07-04T15:02:02.000Z</time>
      </trkpt>
      <trkpt lat="45.87179" lon="4.61191">
        <ele>387.31302</ele>
        <time>2023-07-04T15:02:03.000Z</time>
      </trkpt>
      <trkpt lat="45.87176" lon="4.6119">
        <ele>387.18204</ele>
        <time>2023-07-04T15:02:05.000Z</time>
      </trkpt>
      <trkpt lat="45.87174" lon="4.61188">
        <ele>386.9584</ele>
        <time>2023-07-04T15:02:06.000Z</time>
      </trkpt>
      <trkpt lat="45.87171" lon="4.61186">
        <ele>386.92172</ele>
        <time>2023-07-04T15:02:07.000Z</time>
      </trkpt>
      <trkpt lat="45.87169" lon="4.61184">
        <ele>386.75766</ele>
        <time>2023-07-04T15:02:08.000Z</time>
      </trkpt>
      <trkpt lat="45.87166" lon="4.61182">
        <ele>386.46597</ele>
        <time>2023-07-04T15:02:09.000Z</time>
      </trkpt>
      <trkpt lat="45.87164" lon="4.61181">
        <ele>386.66107</ele>
        <time>2023-07-04T15:02:10.000Z</time>
      </trkpt>
      <trkpt lat="45.87161" lon="4.61179">
        <ele>386.771</ele>
        <time>2023-07-04T15:02:11.000Z</time>
      </trkpt>
      <trkpt lat="45.87158" lon="4.61177">
        <ele>386.93988</ele>
        <time>2023-07-04T15:02:12.000Z</time>
      </trkpt>
      <trkpt lat="45.87155" lon="4.61176">
        <ele>387.18585</ele>
        <time>2023-07-04T15:02:13.000Z</time>
      </trkpt>
      <trkpt lat="45.87152" lon="4.61175">
        <ele>387.38507</ele>
        <time>2023-07-04T15:02:14.000Z</time>
      </trkpt>
      <trkpt lat="45.87149" lon="4.61173">
        <ele>387.5246</ele>
        <time>2023-07-04T15:02:15.000Z</time>
      </trkpt>
      <trkpt lat="45.87146" lon="4.61171">
        <ele>387.56317</ele>
        <time>2023-07-04T15:02:16.000Z</time>
      </trkpt>
      <trkpt lat="45.87143" lon="4.6117">
        <ele>387.69583</ele>
        <time>2023-07-04T15:02:17.000Z</time>
      </trkpt>
      <trkpt lat="45.87141" lon="4.61169">
        <ele>387.79071</ele>
        <time>2023-07-04T15:02:18.000Z</time>
      </trkpt>
      <trkpt lat="45.87138" lon="4.61169">
        <ele>388.01093</ele>
        <time>2023-07-04T15:02:19.000Z</time>
      </trkpt>
      <trkpt lat="45.87135" lon="4.61168">
        <ele>388.34396</ele>
        <time>2023-07-04T15:02:20.000Z</time>
      </trkpt>
      <trkpt lat="45.87133" lon="4.61167">
        <ele>388.63812</ele>
        <time>2023-07-04T15:02:21.000Z</time>
      </trkpt>
      <trkpt lat="45.87131" lon="4.61166">
        <ele>388.89005</ele>
        <time>2023-07-04T15:02:22.000Z</time>
      </trkpt>
      <trkpt lat="45.87128" lon="4.61166">
        <ele>389.39813</ele>
        <time>2023-07-04T15:02:23.000Z</time>
      </trkpt>
      <trkpt lat="45.87126" lon="4.61165">
        <ele>389.93036</ele>
        <time>2023-07-04T15:02:24.000Z</time>
      </trkpt>
      <trkpt lat="45.87124" lon="4.61165">
        <ele>390.22714</ele>
        <time>2023-07-04T15:02:25.000Z</time>
      </trkpt>
      <trkpt lat="45.87122" lon="4.61164">
        <ele>390.3132</ele>
        <time>2023-07-04T15:02:26.000Z</time>
      </trkpt>
      <trkpt lat="45.87119" lon="4.61163">
        <ele>390.38571</ele>
        <time>2023-07-04T15:02:27.000Z</time>
      </trkpt>
      <trkpt lat="45.87117" lon="4.61162">
        <ele>390.55728</ele>
        <time>2023-07-04T15:02:28.000Z</time>
      </trkpt>
      <trkpt lat="45.87114" lon="4.61162">
        <ele>390.87531</ele>
        <time>2023-07-04T15:02:29.000Z</time>
      </trkpt>
      <trkpt lat="45.87112" lon="4.61161">
        <ele>390.63785</ele>
        <time>2023-07-04T15:02:30.000Z</time>
      </trkpt>
      <trkpt lat="45.8711" lon="4.61161">
        <ele>390.3913</ele>
        <time>2023-07-04T15:02:31.000Z</time>
      </trkpt>
      <trkpt lat="45.87106" lon="4.61162">
        <ele>390.00323</ele>
        <time>2023-07-04T15:02:33.000Z</time>
      </trkpt>
      <trkpt lat="45.87104" lon="4.61163">
        <ele>389.6647</ele>
        <time>2023-07-04T15:02:34.000Z</time>
      </trkpt>
      <trkpt lat="45.87101" lon="4.61165">
        <ele>389.39487</ele>
        <time>2023-07-04T15:02:36.000Z</time>
      </trkpt>
      <trkpt lat="45.87098" lon="4.61167">
        <ele>389.18854</ele>
        <time>2023-07-04T15:02:38.000Z</time>
      </trkpt>
      <trkpt lat="45.87095" lon="4.61168">
        <ele>389.02179</ele>
        <time>2023-07-04T15:02:39.000Z</time>
      </trkpt>
      <trkpt lat="45.87091" lon="4.61169">
        <ele>388.81219</ele>
        <time>2023-07-04T15:02:40.000Z</time>
      </trkpt>
      <trkpt lat="45.87087" lon="4.61168">
        <ele>388.60571</ele>
        <time>2023-07-04T15:02:41.000Z</time>
      </trkpt>
      <trkpt lat="45.87084" lon="4.61168">
        <ele>388.44449</ele>
        <time>2023-07-04T15:02:42.000Z</time>
      </trkpt>
      <trkpt lat="45.8708" lon="4.61167">
        <ele>388.20212</ele>
        <time>2023-07-04T15:02:43.000Z</time>
      </trkpt>
      <trkpt lat="45.87078" lon="4.61168">
        <ele>387.88824</ele>
        <time>2023-07-04T15:02:44.000Z</time>
      </trkpt>
      <trkpt lat="45.87075" lon="4.61168">
        <ele>387.65869</ele>
        <time>2023-07-04T15:02:45.000Z</time>
      </trkpt>
      <trkpt lat="45.87073" lon="4.61168">
        <ele>387.37628</ele>
        <time>2023-07-04T15:02:46.000Z</time>
      </trkpt>
      <trkpt lat="45.87069" lon="4.61169">
        <ele>387.05075</ele>
        <time>2023-07-04T15:02:48.000Z</time>
      </trkpt>
      <trkpt lat="45.87066" lon="4.61171">
        <ele>387.00351</ele>
        <time>2023-07-04T15:02:49.000Z</time>
      </trkpt>
      <trkpt lat="45.87063" lon="4.61172">
        <ele>387.19098</ele>
        <time>2023-07-04T15:02:50.000Z</time>
      </trkpt>
      <trkpt lat="45.8706" lon="4.61174">
        <ele>387.30389</ele>
        <time>2023-07-04T15:02:51.000Z</time>
      </trkpt>
      <trkpt lat="45.87057" lon="4.61175">
        <ele>387.41437</ele>
        <time>2023-07-04T15:02:52.000Z</time>
      </trkpt>
      <trkpt lat="45.87054" lon="4.61177">
        <ele>387.47702</ele>
        <time>2023-07-04T15:02:53.000Z</time>
      </trkpt>
      <trkpt lat="45.87051" lon="4.61178">
        <ele>387.46606</ele>
        <time>2023-07-04T15:02:54.000Z</time>
      </trkpt>
      <trkpt lat="45.87049" lon="4.61179">
        <ele>387.47214</ele>
        <time>2023-07-04T15:02:55.000Z</time>
      </trkpt>
      <trkpt lat="45.87046" lon="4.61181">
        <ele>387.59872</ele>
        <time>2023-07-04T15:02:56.000Z</time>
      </trkpt>
      <trkpt lat="45.87043" lon="4.61182">
        <ele>387.61542</ele>
        <time>2023-07-04T15:02:57.000Z</time>
      </trkpt>
      <trkpt lat="45.87039" lon="4.61182">
        <ele>387.6149</ele>
        <time>2023-07-04T15:02:58.000Z</time>
      </trkpt>
      <trkpt lat="45.87035" lon="4.61183">
        <ele>387.74466</ele>
        <time>2023-07-04T15:02:59.000Z</time>
      </trkpt>
      <trkpt lat="45.87031" lon="4.61185">
        <ele>387.83386</ele>
        <time>2023-07-04T15:03:00.000Z</time>
      </trkpt>
      <trkpt lat="45.87028" lon="4.61186">
        <ele>387.85599</ele>
        <time>2023-07-04T15:03:01.000Z</time>
      </trkpt>
      <trkpt lat="45.87024" lon="4.61186">
        <ele>387.81076</ele>
        <time>2023-07-04T15:03:02.000Z</time>
      </trkpt>
      <trkpt lat="45.87021" lon="4.61186">
        <ele>387.72397</ele>
        <time>2023-07-04T15:03:03.000Z</time>
      </trkpt>
      <trkpt lat="45.87017" lon="4.61186">
        <ele>387.68555</ele>
        <time>2023-07-04T15:03:04.000Z</time>
      </trkpt>
      <trkpt lat="45.87014" lon="4.61187">
        <ele>387.6608</ele>
        <time>2023-07-04T15:03:05.000Z</time>
      </trkpt>
      <trkpt lat="45.87011" lon="4.61187">
        <ele>387.55377</ele>
        <time>2023-07-04T15:03:06.000Z</time>
      </trkpt>
      <trkpt lat="45.87007" lon="4.61188">
        <ele>387.50388</ele>
        <time>2023-07-04T15:03:07.000Z</time>
      </trkpt>
      <trkpt lat="45.87004" lon="4.61189">
        <ele>387.54819</ele>
        <time>2023-07-04T15:03:08.000Z</time>
      </trkpt>
      <trkpt lat="45.87001" lon="4.6119">
        <ele>387.57556</ele>
        <time>2023-07-04T15:03:09.000Z</time>
      </trkpt>
      <trkpt lat="45.86999" lon="4.61191">
        <ele>387.63885</ele>
        <time>2023-07-04T15:03:10.000Z</time>
      </trkpt>
      <trkpt lat="45.86996" lon="4.61191">
        <ele>387.76285</ele>
        <time>2023-07-04T15:03:11.000Z</time>
      </trkpt>
      <trkpt lat="45.86993" lon="4.61191">
        <ele>387.80099</ele>
        <time>2023-07-04T15:03:12.000Z</time>
      </trkpt>
      <trkpt lat="45.8699" lon="4.61191">
        <ele>387.79498</ele>
        <time>2023-07-04T15:03:13.000Z</time>
      </trkpt>
      <trkpt lat="45.86988" lon="4.61191">
        <ele>387.91071</ele>
        <time>2023-07-04T15:03:14.000Z</time>
      </trkpt>
      <trkpt lat="45.86986" lon="4.61191">
        <ele>388.16949</ele>
        <time>2023-07-04T15:03:15.000Z</time>
      </trkpt>
      <trkpt lat="45.86982" lon="4.61191">
        <ele>388.30841</ele>
        <time>2023-07-04T15:03:16.000Z</time>
      </trkpt>
      <trkpt lat="45.86979" lon="4.61191">
        <ele>388.55096</ele>
        <time>2023-07-04T15:03:17.000Z</time>
      </trkpt>
      <trkpt lat="45.86976" lon="4.61191">
        <ele>388.75378</ele>
        <time>2023-07-04T15:03:18.000Z</time>
      </trkpt>
      <trkpt lat="45.86972" lon="4.6119">
        <ele>388.91605</ele>
        <time>2023-07-04T15:03:19.000Z</time>
      </trkpt>
      <trkpt lat="45.86968" lon="4.6119">
        <ele>389.00641</ele>
        <time>2023-07-04T15:03:20.000Z</time>
      </trkpt>
      <trkpt lat="45.86965" lon="4.61189">
        <ele>389.08298</ele>
        <time>2023-07-04T15:03:21.000Z</time>
      </trkpt>
      <trkpt lat="45.86962" lon="4.61188">
        <ele>389.21951</ele>
        <time>2023-07-04T15:03:22.000Z</time>
      </trkpt>
      <trkpt lat="45.86958" lon="4.61188">
        <ele>389.34332</ele>
        <time>2023-07-04T15:03:23.000Z</time>
      </trkpt>
      <trkpt lat="45.86955" lon="4.61187">
        <ele>389.48404</ele>
        <time>2023-07-04T15:03:24.000Z</time>
      </trkpt>
      <trkpt lat="45.86952" lon="4.61187">
        <ele>389.68738</ele>
        <time>2023-07-04T15:03:25.000Z</time>
      </trkpt>
      <trkpt lat="45.86949" lon="4.61186">
        <ele>389.85309</ele>
        <time>2023-07-04T15:03:26.000Z</time>
      </trkpt>
      <trkpt lat="45.86946" lon="4.61185">
        <ele>389.84979</ele>
        <time>2023-07-04T15:03:27.000Z</time>
      </trkpt>
      <trkpt lat="45.86944" lon="4.61185">
        <ele>389.66415</ele>
        <time>2023-07-04T15:03:28.000Z</time>
      </trkpt>
      <trkpt lat="45.86941" lon="4.61184">
        <ele>390.0798</ele>
        <time>2023-07-04T15:03:30.000Z</time>
      </trkpt>
      <trkpt lat="45.86937" lon="4.61183">
        <ele>390.5563</ele>
        <time>2023-07-04T15:03:32.000Z</time>
      </trkpt>
      <trkpt lat="45.86935" lon="4.61182">
        <ele>391.18658</ele>
        <time>2023-07-04T15:03:36.000Z</time>
      </trkpt>
      <trkpt lat="45.86933" lon="4.61182">
        <ele>391.68109</ele>
        <time>2023-07-04T15:05:13.000Z</time>
      </trkpt>
      <trkpt lat="45.86931" lon="4.61182">
        <ele>390.96536</ele>
        <time>2023-07-04T15:06:05.000Z</time>
      </trkpt>
      <trkpt lat="45.86929" lon="4.61178">
        <ele>390.39029</ele>
        <time>2023-07-04T15:06:07.000Z</time>
      </trkpt>
      <trkpt lat="45.86929" lon="4.61176">
        <ele>389.63892</ele>
        <time>2023-07-04T15:06:08.000Z</time>
      </trkpt>
      <trkpt lat="45.86928" lon="4.61173">
        <ele>389.05463</ele>
        <time>2023-07-04T15:06:09.000Z</time>
      </trkpt>
      <trkpt lat="45.86927" lon="4.6117">
        <ele>388.39374</ele>
        <time>2023-07-04T15:06:10.000Z</time>
      </trkpt>
      <trkpt lat="45.86928" lon="4.61166">
        <ele>387.35919</ele>
        <time>2023-07-04T15:06:12.000Z</time>
      </trkpt>
      <trkpt lat="45.86929" lon="4.61163">
        <ele>387.29974</ele>
        <time>2023-07-04T15:06:14.000Z</time>
      </trkpt>
      <trkpt lat="45.8693" lon="4.61158">
        <ele>387.14072</ele>
        <time>2023-07-04T15:06:16.000Z</time>
      </trkpt>
      <trkpt lat="45.8693" lon="4.61156">
        <ele>387.0119</ele>
        <time>2023-07-04T15:06:17.000Z</time>
      </trkpt>
      <trkpt lat="45.86931" lon="4.61151">
        <ele>386.73257</ele>
        <time>2023-07-04T15:06:19.000Z</time>
      </trkpt>
      <trkpt lat="45.86931" lon="4.61148">
        <ele>386.995</ele>
        <time>2023-07-04T15:06:20.000Z</time>
      </trkpt>
      <trkpt lat="45.86932" lon="4.61146">
        <ele>387.01221</ele>
        <time>2023-07-04T15:06:21.000Z</time>
      </trkpt>
      <trkpt lat="45.86933" lon="4.6114">
        <ele>387.14423</ele>
        <time>2023-07-04T15:06:23.000Z</time>
      </trkpt>
      <trkpt lat="45.86933" lon="4.61137">
        <ele>387.27075</ele>
        <time>2023-07-04T15:06:24.000Z</time>
      </trkpt>
      <trkpt lat="45.86933" lon="4.61134">
        <ele>387.479</ele>
        <time>2023-07-04T15:06:25.000Z</time>
      </trkpt>
      <trkpt lat="45.86934" lon="4.61131">
        <ele>387.81921</ele>
        <time>2023-07-04T15:06:26.000Z</time>
      </trkpt>
      <trkpt lat="45.86935" lon="4.61127">
        <ele>387.47205</ele>
        <time>2023-07-04T15:06:27.000Z</time>
      </trkpt>
      <trkpt lat="45.86935" lon="4.61125">
        <ele>386.2308</ele>
        <time>2023-07-04T15:06:28.000Z</time>
      </trkpt>
      <trkpt lat="45.86936" lon="4.61122">
        <ele>384.68124</ele>
        <time>2023-07-04T15:06:29.000Z</time>
      </trkpt>
      <trkpt lat="45.86938" lon="4.61117">
        <ele>383.24628</ele>
        <time>2023-07-04T15:06:31.000Z</time>
      </trkpt>
      <trkpt lat="45.86939" lon="4.61113">
        <ele>383.05658</ele>
        <time>2023-07-04T15:06:32.000Z</time>
      </trkpt>
      <trkpt lat="45.86941" lon="4.61111">
        <ele>382.7457</ele>
        <time>2023-07-04T15:06:33.000Z</time>
      </trkpt>
      <trkpt lat="45.86942" lon="4.61107">
        <ele>382.64264</ele>
        <time>2023-07-04T15:06:34.000Z</time>
      </trkpt>
      <trkpt lat="45.86943" lon="4.61105">
        <ele>382.3266</ele>
        <time>2023-07-04T15:06:35.000Z</time>
      </trkpt>
      <trkpt lat="45.86944" lon="4.61102">
        <ele>382.10336</ele>
        <time>2023-07-04T15:06:36.000Z</time>
      </trkpt>
      <trkpt lat="45.86946" lon="4.61098">
        <ele>382.32175</ele>
        <time>2023-07-04T15:06:37.000Z</time>
      </trkpt>
      <trkpt lat="45.86947" lon="4.61095">
        <ele>381.51944</ele>
        <time>2023-07-04T15:06:38.000Z</time>
      </trkpt>
      <trkpt lat="45.86949" lon="4.61092">
        <ele>380.87219</ele>
        <time>2023-07-04T15:06:39.000Z</time>
      </trkpt>
      <trkpt lat="45.86951" lon="4.6109">
        <ele>380.14481</ele>
        <time>2023-07-04T15:06:40.000Z</time>
      </trkpt>
      <trkpt lat="45.86953" lon="4.61088">
        <ele>379.51065</ele>
        <time>2023-07-04T15:06:41.000Z</time>
      </trkpt>
      <trkpt lat="45.86954" lon="4.61086">
        <ele>378.79605</ele>
        <time>2023-07-04T15:06:42.000Z</time>
      </trkpt>
      <trkpt lat="45.86956" lon="4.61083">
        <ele>377.88303</ele>
        <time>2023-07-04T15:06:43.000Z</time>
      </trkpt>
      <trkpt lat="45.86958" lon="4.6108">
        <ele>376.79675</ele>
        <time>2023-07-04T15:06:44.000Z</time>
      </trkpt>
      <trkpt lat="45.86961" lon="4.61077">
        <ele>375.76959</ele>
        <time>2023-07-04T15:06:45.000Z</time>
      </trkpt>
      <trkpt lat="45.86962" lon="4.61074">
        <ele>374.86197</ele>
        <time>2023-07-04T15:06:46.000Z</time>
      </trkpt>
      <trkpt lat="45.86964" lon="4.61072">
        <ele>374.00046</ele>
        <time>2023-07-04T15:06:47.000Z</time>
      </trkpt>
      <trkpt lat="45.86966" lon="4.61068">
        <ele>373.24377</ele>
        <time>2023-07-04T15:06:48.000Z</time>
      </trkpt>
      <trkpt lat="45.86968" lon="4.61065">
        <ele>373.26544</ele>
        <time>2023-07-04T15:06:49.000Z</time>
      </trkpt>
      <trkpt lat="45.8697" lon="4.61062">
        <ele>374.17987</ele>
        <time>2023-07-04T15:06:50.000Z</time>
      </trkpt>
      <trkpt lat="45.86972" lon="4.61059">
        <ele>375.2287</ele>
        <time>2023-07-04T15:06:51.000Z</time>
      </trkpt>
      <trkpt lat="45.86974" lon="4.61056">
        <ele>376.34976</ele>
        <time>2023-07-04T15:06:52.000Z</time>
      </trkpt>
      <trkpt lat="45.86976" lon="4.61053">
        <ele>377.42697</ele>
        <time>2023-07-04T15:06:53.000Z</time>
      </trkpt>
      <trkpt lat="45.86978" lon="4.61049">
        <ele>378.31909</ele>
        <time>2023-07-04T15:06:54.000Z</time>
      </trkpt>
      <trkpt lat="45.8698" lon="4.61045">
        <ele>380.06989</ele>
        <time>2023-07-04T15:06:55.000Z</time>
      </trkpt>
      <trkpt lat="45.86982" lon="4.61041">
        <ele>380.39719</ele>
        <time>2023-07-04T15:06:56.000Z</time>
      </trkpt>
      <trkpt lat="45.86984" lon="4.61038">
        <ele>380.6918</ele>
        <time>2023-07-04T15:06:57.000Z</time>
      </trkpt>
      <trkpt lat="45.86986" lon="4.61035">
        <ele>381.01224</ele>
        <time>2023-07-04T15:06:58.000Z</time>
      </trkpt>
      <trkpt lat="45.86987" lon="4.61032">
        <ele>381.36642</ele>
        <time>2023-07-04T15:06:59.000Z</time>
      </trkpt>
      <trkpt lat="45.86988" lon="4.6103">
        <ele>381.8187</ele>
        <time>2023-07-04T15:07:00.000Z</time>
      </trkpt>
      <trkpt lat="45.86989" lon="4.61027">
        <ele>383.28754</ele>
        <time>2023-07-04T15:07:01.000Z</time>
      </trkpt>
      <trkpt lat="45.8699" lon="4.61024">
        <ele>384.2963</ele>
        <time>2023-07-04T15:07:02.000Z</time>
      </trkpt>
      <trkpt lat="45.86991" lon="4.6102">
        <ele>385.69116</ele>
        <time>2023-07-04T15:07:03.000Z</time>
      </trkpt>
      <trkpt lat="45.86991" lon="4.61016">
        <ele>387.09247</ele>
        <time>2023-07-04T15:07:04.000Z</time>
      </trkpt>
      <trkpt lat="45.86992" lon="4.61013">
        <ele>388.47162</ele>
        <time>2023-07-04T15:07:05.000Z</time>
      </trkpt>
      <trkpt lat="45.86992" lon="4.61009">
        <ele>389.72562</ele>
        <time>2023-07-04T15:07:06.000Z</time>
      </trkpt>
      <trkpt lat="45.86993" lon="4.61006">
        <ele>390.91156</ele>
        <time>2023-07-04T15:07:07.000Z</time>
      </trkpt>
      <trkpt lat="45.86994" lon="4.61002">
        <ele>392.0672</ele>
        <time>2023-07-04T15:07:08.000Z</time>
      </trkpt>
      <trkpt lat="45.86995" lon="4.60998">
        <ele>393.1214</ele>
        <time>2023-07-04T15:07:09.000Z</time>
      </trkpt>
      <trkpt lat="45.86996" lon="4.60994">
        <ele>393.32617</ele>
        <time>2023-07-04T15:07:10.000Z</time>
      </trkpt>
      <trkpt lat="45.86997" lon="4.60989">
        <ele>393.51337</ele>
        <time>2023-07-04T15:07:11.000Z</time>
      </trkpt>
      <trkpt lat="45.86998" lon="4.60984">
        <ele>393.60086</ele>
        <time>2023-07-04T15:07:12.000Z</time>
      </trkpt>
      <trkpt lat="45.86999" lon="4.60981">
        <ele>393.59509</ele>
        <time>2023-07-04T15:07:13.000Z</time>
      </trkpt>
      <trkpt lat="45.87" lon="4.60979">
        <ele>393.54648</ele>
        <time>2023-07-04T15:07:14.000Z</time>
      </trkpt>
      <trkpt lat="45.87002" lon="4.60976">
        <ele>392.74481</ele>
        <time>2023-07-04T15:07:15.000Z</time>
      </trkpt>
      <trkpt lat="45.87004" lon="4.60973">
        <ele>393.20145</ele>
        <time>2023-07-04T15:07:16.000Z</time>
      </trkpt>
      <trkpt lat="45.87005" lon="4.6097">
        <ele>393.63538</ele>
        <time>2023-07-04T15:07:17.000Z</time>
      </trkpt>
      <trkpt lat="45.87007" lon="4.60966">
        <ele>394.05954</ele>
        <time>2023-07-04T15:07:18.000Z</time>
      </trkpt>
      <trkpt lat="45.87009" lon="4.60963">
        <ele>394.48471</ele>
        <time>2023-07-04T15:07:19.000Z</time>
      </trkpt>
      <trkpt lat="45.87011" lon="4.6096">
        <ele>394.94293</ele>
        <time>2023-07-04T15:07:20.000Z</time>
      </trkpt>
      <trkpt lat="45.87013" lon="4.60956">
        <ele>394.51566</ele>
        <time>2023-07-04T15:07:21.000Z</time>
      </trkpt>
      <trkpt lat="45.87015" lon="4.60952">
        <ele>394.13983</ele>
        <time>2023-07-04T15:07:22.000Z</time>
      </trkpt>
      <trkpt lat="45.87017" lon="4.60948">
        <ele>393.84998</ele>
        <time>2023-07-04T15:07:23.000Z</time>
      </trkpt>
      <trkpt lat="45.87019" lon="4.60945">
        <ele>393.56415</ele>
        <time>2023-07-04T15:07:24.000Z</time>
      </trkpt>
      <trkpt lat="45.87021" lon="4.60943">
        <ele>393.33154</ele>
        <time>2023-07-04T15:07:25.000Z</time>
      </trkpt>
      <trkpt lat="45.87024" lon="4.60939">
        <ele>393.27173</ele>
        <time>2023-07-04T15:07:26.000Z</time>
      </trkpt>
      <trkpt lat="45.87027" lon="4.60936">
        <ele>393.30066</ele>
        <time>2023-07-04T15:07:27.000Z</time>
      </trkpt>
      <trkpt lat="45.87029" lon="4.60933">
        <ele>394.01389</ele>
        <time>2023-07-04T15:07:28.000Z</time>
      </trkpt>
      <trkpt lat="45.87031" lon="4.60931">
        <ele>394.53314</ele>
        <time>2023-07-04T15:07:29.000Z</time>
      </trkpt>
      <trkpt lat="45.87035" lon="4.60928">
        <ele>395.08295</ele>
        <time>2023-07-04T15:07:30.000Z</time>
      </trkpt>
      <trkpt lat="45.87037" lon="4.60926">
        <ele>395.59344</ele>
        <time>2023-07-04T15:07:31.000Z</time>
      </trkpt>
      <trkpt lat="45.8704" lon="4.60923">
        <ele>396.10883</ele>
        <time>2023-07-04T15:07:32.000Z</time>
      </trkpt>
      <trkpt lat="45.87042" lon="4.6092">
        <ele>396.58911</ele>
        <time>2023-07-04T15:07:33.000Z</time>
      </trkpt>
      <trkpt lat="45.87044" lon="4.60917">
        <ele>397.09387</ele>
        <time>2023-07-04T15:07:34.000Z</time>
      </trkpt>
      <trkpt lat="45.87046" lon="4.60914">
        <ele>397.62076</ele>
        <time>2023-07-04T15:07:35.000Z</time>
      </trkpt>
      <trkpt lat="45.87049" lon="4.6091">
        <ele>398.25104</ele>
        <time>2023-07-04T15:07:36.000Z</time>
      </trkpt>
      <trkpt lat="45.8705" lon="4.60907">
        <ele>398.84839</ele>
        <time>2023-07-04T15:07:37.000Z</time>
      </trkpt>
      <trkpt lat="45.87052" lon="4.60904">
        <ele>399.51367</ele>
        <time>2023-07-04T15:07:38.000Z</time>
      </trkpt>
      <trkpt lat="45.87053" lon="4.60899">
        <ele>401.0567</ele>
        <time>2023-07-04T15:07:39.000Z</time>
      </trkpt>
      <trkpt lat="45.87052" lon="4.60896">
        <ele>402.56744</ele>
        <time>2023-07-04T15:07:40.000Z</time>
      </trkpt>
      <trkpt lat="45.87051" lon="4.60893">
        <ele>404.37921</ele>
        <time>2023-07-04T15:07:41.000Z</time>
      </trkpt>
      <trkpt lat="45.87048" lon="4.60891">
        <ele>404.94012</ele>
        <time>2023-07-04T15:07:42.000Z</time>
      </trkpt>
      <trkpt lat="45.87045" lon="4.60889">
        <ele>405.5025</ele>
        <time>2023-07-04T15:07:43.000Z</time>
      </trkpt>
      <trkpt lat="45.87043" lon="4.60888">
        <ele>406.08887</ele>
        <time>2023-07-04T15:07:44.000Z</time>
      </trkpt>
      <trkpt lat="45.8704" lon="4.60886">
        <ele>406.67538</ele>
        <time>2023-07-04T15:07:45.000Z</time>
      </trkpt>
      <trkpt lat="45.87036" lon="4.60883">
        <ele>407.19394</ele>
        <time>2023-07-04T15:07:46.000Z</time>
      </trkpt>
      <trkpt lat="45.87033" lon="4.6088">
        <ele>409.38007</ele>
        <time>2023-07-04T15:07:47.000Z</time>
      </trkpt>
      <trkpt lat="45.8703" lon="4.60876">
        <ele>408.79462</ele>
        <time>2023-07-04T15:07:48.000Z</time>
      </trkpt>
      <trkpt lat="45.87027" lon="4.60873">
        <ele>408.97269</ele>
        <time>2023-07-04T15:07:49.000Z</time>
      </trkpt>
      <trkpt lat="45.87023" lon="4.60866">
        <ele>409.12598</ele>
        <time>2023-07-04T15:07:50.000Z</time>
      </trkpt>
      <trkpt lat="45.87019" lon="4.60862">
        <ele>409.33173</ele>
        <time>2023-07-04T15:07:51.000Z</time>
      </trkpt>
      <trkpt lat="45.87015" lon="4.60859">
        <ele>409.58319</ele>
        <time>2023-07-04T15:07:52.000Z</time>
      </trkpt>
      <trkpt lat="45.87011" lon="4.60856">
        <ele>409.81415</ele>
        <time>2023-07-04T15:07:53.000Z</time>
      </trkpt>
      <trkpt lat="45.87006" lon="4.60852">
        <ele>410.14093</ele>
        <time>2023-07-04T15:07:54.000Z</time>
      </trkpt>
      <trkpt lat="45.87003" lon="4.60849">
        <ele>410.41168</ele>
        <time>2023-07-04T15:07:55.000Z</time>
      </trkpt>
      <trkpt lat="45.86999" lon="4.60845">
        <ele>410.6922</ele>
        <time>2023-07-04T15:07:56.000Z</time>
      </trkpt>
      <trkpt lat="45.86993" lon="4.60842">
        <ele>411.02026</ele>
        <time>2023-07-04T15:07:57.000Z</time>
      </trkpt>
      <trkpt lat="45.86988" lon="4.60838">
        <ele>411.25287</ele>
        <time>2023-07-04T15:07:58.000Z</time>
      </trkpt>
      <trkpt lat="45.86982" lon="4.60833">
        <ele>410.63379</ele>
        <time>2023-07-04T15:07:59.000Z</time>
      </trkpt>
      <trkpt lat="45.86978" lon="4.60828">
        <ele>409.72958</ele>
        <time>2023-07-04T15:08:00.000Z</time>
      </trkpt>
      <trkpt lat="45.86973" lon="4.60825">
        <ele>408.45807</ele>
        <time>2023-07-04T15:08:01.000Z</time>
      </trkpt>
      <trkpt lat="45.86972" lon="4.60822">
        <ele>408.33344</ele>
        <time>2023-07-04T15:08:02.000Z</time>
      </trkpt>
      <trkpt lat="45.8697" lon="4.6082">
        <ele>407.94501</ele>
        <time>2023-07-04T15:08:05.000Z</time>
      </trkpt>
      <trkpt lat="45.86969" lon="4.60818">
        <ele>407.84879</ele>
        <time>2023-07-04T15:08:13.000Z</time>
      </trkpt>
      <trkpt lat="45.86965" lon="4.60815">
        <ele>409.40634</ele>
        <time>2023-07-04T15:08:28.000Z</time>
      </trkpt>
      <trkpt lat="45.86965" lon="4.60812">
        <ele>410.88916</ele>
        <time>2023-07-04T15:08:29.000Z</time>
      </trkpt>
      <trkpt lat="45.86963" lon="4.60808">
        <ele>410.65167</ele>
        <time>2023-07-04T15:08:30.000Z</time>
      </trkpt>
      <trkpt lat="45.8696" lon="4.60804">
        <ele>412.43686</ele>
        <time>2023-07-04T15:08:31.000Z</time>
      </trkpt>
      <trkpt lat="45.86958" lon="4.608">
        <ele>413.73486</ele>
        <time>2023-07-04T15:08:32.000Z</time>
      </trkpt>
      <trkpt lat="45.86956" lon="4.60795">
        <ele>415.11954</ele>
        <time>2023-07-04T15:08:33.000Z</time>
      </trkpt>
      <trkpt lat="45.86954" lon="4.60789">
        <ele>416.43732</ele>
        <time>2023-07-04T15:08:34.000Z</time>
      </trkpt>
      <trkpt lat="45.86953" lon="4.60784">
        <ele>417.73309</ele>
        <time>2023-07-04T15:08:35.000Z</time>
      </trkpt>
      <trkpt lat="45.86951" lon="4.60779">
        <ele>419.18353</ele>
        <time>2023-07-04T15:08:36.000Z</time>
      </trkpt>
      <trkpt lat="45.8695" lon="4.60772">
        <ele>420.58121</ele>
        <time>2023-07-04T15:08:37.000Z</time>
      </trkpt>
      <trkpt lat="45.86948" lon="4.60761">
        <ele>422.09732</ele>
        <time>2023-07-04T15:08:38.000Z</time>
      </trkpt>
      <trkpt lat="45.86946" lon="4.60759">
        <ele>423.59366</ele>
        <time>2023-07-04T15:08:39.000Z</time>
      </trkpt>
      <trkpt lat="45.86944" lon="4.60758">
        <ele>425.05438</ele>
        <time>2023-07-04T15:08:42.000Z</time>
      </trkpt>
      <trkpt lat="45.86943" lon="4.60755">
        <ele>426.51938</ele>
        <time>2023-07-04T15:08:46.000Z</time>
      </trkpt>
      <trkpt lat="45.86941" lon="4.60752">
        <ele>427.9086</ele>
        <time>2023-07-04T15:08:48.000Z</time>
      </trkpt>
      <trkpt lat="45.86941" lon="4.60749">
        <ele>429.586</ele>
        <time>2023-07-04T15:08:49.000Z</time>
      </trkpt>
      <trkpt lat="45.8694" lon="4.60744">
        <ele>431.21924</ele>
        <time>2023-07-04T15:08:50.000Z</time>
      </trkpt>
      <trkpt lat="45.8694" lon="4.6074">
        <ele>432.89893</ele>
        <time>2023-07-04T15:08:51.000Z</time>
      </trkpt>
      <trkpt lat="45.8694" lon="4.60735">
        <ele>434.79932</ele>
        <time>2023-07-04T15:08:52.000Z</time>
      </trkpt>
      <trkpt lat="45.86939" lon="4.6073">
        <ele>436.35654</ele>
        <time>2023-07-04T15:08:53.000Z</time>
      </trkpt>
      <trkpt lat="45.86937" lon="4.60724">
        <ele>436.2482</ele>
        <time>2023-07-04T15:08:54.000Z</time>
      </trkpt>
      <trkpt lat="45.86936" lon="4.60719">
        <ele>436.19669</ele>
        <time>2023-07-04T15:08:55.000Z</time>
      </trkpt>
      <trkpt lat="45.86935" lon="4.60715">
        <ele>436.20392</ele>
        <time>2023-07-04T15:08:56.000Z</time>
      </trkpt>
      <trkpt lat="45.86935" lon="4.60711">
        <ele>436.22681</ele>
        <time>2023-07-04T15:08:57.000Z</time>
      </trkpt>
      <trkpt lat="45.86934" lon="4.60706">
        <ele>436.18213</ele>
        <time>2023-07-04T15:08:58.000Z</time>
      </trkpt>
      <trkpt lat="45.86931" lon="4.60698">
        <ele>436.07578</ele>
        <time>2023-07-04T15:08:59.000Z</time>
      </trkpt>
      <trkpt lat="45.86929" lon="4.60692">
        <ele>435.96533</ele>
        <time>2023-07-04T15:09:00.000Z</time>
      </trkpt>
      <trkpt lat="45.8693" lon="4.60687">
        <ele>435.83389</ele>
        <time>2023-07-04T15:09:01.000Z</time>
      </trkpt>
      <trkpt lat="45.86927" lon="4.60681">
        <ele>435.67099</ele>
        <time>2023-07-04T15:09:02.000Z</time>
      </trkpt>
      <trkpt lat="45.86924" lon="4.60675">
        <ele>435.53271</ele>
        <time>2023-07-04T15:09:03.000Z</time>
      </trkpt>
      <trkpt lat="45.86921" lon="4.60667">
        <ele>435.30997</ele>
        <time>2023-07-04T15:09:04.000Z</time>
      </trkpt>
      <trkpt lat="45.86921" lon="4.60659">
        <ele>435.06299</ele>
        <time>2023-07-04T15:09:05.000Z</time>
      </trkpt>
      <trkpt lat="45.8692" lon="4.60652">
        <ele>434.90128</ele>
        <time>2023-07-04T15:09:06.000Z</time>
      </trkpt>
      <trkpt lat="45.86919" lon="4.60644">
        <ele>434.75214</ele>
        <time>2023-07-04T15:09:07.000Z</time>
      </trkpt>
      <trkpt lat="45.86918" lon="4.60638">
        <ele>434.64169</ele>
        <time>2023-07-04T15:09:08.000Z</time>
      </trkpt>
      <trkpt lat="45.86918" lon="4.60631">
        <ele>434.50568</ele>
        <time>2023-07-04T15:09:09.000Z</time>
      </trkpt>
      <trkpt lat="45.86918" lon="4.60624">
        <ele>434.39404</ele>
        <time>2023-07-04T15:09:10.000Z</time>
      </trkpt>
      <trkpt lat="45.86917" lon="4.60618">
        <ele>434.24936</ele>
        <time>2023-07-04T15:09:11.000Z</time>
      </trkpt>
      <trkpt lat="45.86916" lon="4.60612">
        <ele>434.10406</ele>
        <time>2023-07-04T15:09:12.000Z</time>
      </trkpt>
      <trkpt lat="45.86916" lon="4.60607">
        <ele>433.9881</ele>
        <time>2023-07-04T15:09:13.000Z</time>
      </trkpt>
      <trkpt lat="45.86916" lon="4.606">
        <ele>433.79996</ele>
        <time>2023-07-04T15:09:14.000Z</time>
      </trkpt>
      <trkpt lat="45.86916" lon="4.60594">
        <ele>433.58691</ele>
        <time>2023-07-04T15:09:15.000Z</time>
      </trkpt>
      <trkpt lat="45.86915" lon="4.60588">
        <ele>433.28433</ele>
        <time>2023-07-04T15:09:16.000Z</time>
      </trkpt>
      <trkpt lat="45.86914" lon="4.60582">
        <ele>433.01358</ele>
        <time>2023-07-04T15:09:17.000Z</time>
      </trkpt>
      <trkpt lat="45.86913" lon="4.60577">
        <ele>432.75824</ele>
        <time>2023-07-04T15:09:18.000Z</time>
      </trkpt>
      <trkpt lat="45.86913" lon="4.60572">
        <ele>432.49503</ele>
        <time>2023-07-04T15:09:19.000Z</time>
      </trkpt>
      <trkpt lat="45.86913" lon="4.60566">
        <ele>432.24112</ele>
        <time>2023-07-04T15:09:20.000Z</time>
      </trkpt>
      <trkpt lat="45.86913" lon="4.60561">
        <ele>432.02679</ele>
        <time>2023-07-04T15:09:21.000Z</time>
      </trkpt>
      <trkpt lat="45.86913" lon="4.60556">
        <ele>431.82813</ele>
        <time>2023-07-04T15:09:22.000Z</time>
      </trkpt>
      <trkpt lat="45.86914" lon="4.60551">
        <ele>431.67554</ele>
        <time>2023-07-04T15:09:23.000Z</time>
      </trkpt>
      <trkpt lat="45.86916" lon="4.60549">
        <ele>431.57941</ele>
        <time>2023-07-04T15:09:24.000Z</time>
      </trkpt>
      <trkpt lat="45.86918" lon="4.60548">
        <ele>431.44019</ele>
        <time>2023-07-04T15:09:25.000Z</time>
      </trkpt>
      <trkpt lat="45.86921" lon="4.60548">
        <ele>431.23822</ele>
        <time>2023-07-04T15:09:26.000Z</time>
      </trkpt>
      <trkpt lat="45.86924" lon="4.6055">
        <ele>431.12762</ele>
        <time>2023-07-04T15:09:27.000Z</time>
      </trkpt>
      <trkpt lat="45.86927" lon="4.60552">
        <ele>431.00552</ele>
        <time>2023-07-04T15:09:28.000Z</time>
      </trkpt>
      <trkpt lat="45.8693" lon="4.60554">
        <ele>430.88141</ele>
        <time>2023-07-04T15:09:29.000Z</time>
      </trkpt>
      <trkpt lat="45.86933" lon="4.60556">
        <ele>430.73511</ele>
        <time>2023-07-04T15:09:30.000Z</time>
      </trkpt>
      <trkpt lat="45.86936" lon="4.60558">
        <ele>432.02643</ele>
        <time>2023-07-04T15:09:31.000Z</time>
      </trkpt>
      <trkpt lat="45.86939" lon="4.6056">
        <ele>431.93491</ele>
        <time>2023-07-04T15:09:32.000Z</time>
      </trkpt>
      <trkpt lat="45.86943" lon="4.60562">
        <ele>431.85114</ele>
        <time>2023-07-04T15:09:33.000Z</time>
      </trkpt>
      <trkpt lat="45.86947" lon="4.60565">
        <ele>431.82162</ele>
        <time>2023-07-04T15:09:34.000Z</time>
      </trkpt>
      <trkpt lat="45.8695" lon="4.60567">
        <ele>431.81454</ele>
        <time>2023-07-04T15:09:35.000Z</time>
      </trkpt>
      <trkpt lat="45.86954" lon="4.60569">
        <ele>431.8172</ele>
        <time>2023-07-04T15:09:36.000Z</time>
      </trkpt>
      <trkpt lat="45.86958" lon="4.6057">
        <ele>431.82144</ele>
        <time>2023-07-04T15:09:37.000Z</time>
      </trkpt>
      <trkpt lat="45.86963" lon="4.60572">
        <ele>431.85272</ele>
        <time>2023-07-04T15:09:38.000Z</time>
      </trkpt>
      <trkpt lat="45.86967" lon="4.60574">
        <ele>431.95026</ele>
        <time>2023-07-04T15:09:39.000Z</time>
      </trkpt>
      <trkpt lat="45.86972" lon="4.60575">
        <ele>432.0975</ele>
        <time>2023-07-04T15:09:40.000Z</time>
      </trkpt>
      <trkpt lat="45.86976" lon="4.60577">
        <ele>432.28809</ele>
        <time>2023-07-04T15:09:41.000Z</time>
      </trkpt>
      <trkpt lat="45.86979" lon="4.60579">
        <ele>432.46002</ele>
        <time>2023-07-04T15:09:42.000Z</time>
      </trkpt>
      <trkpt lat="45.86984" lon="4.60581">
        <ele>432.61078</ele>
        <time>2023-07-04T15:09:43.000Z</time>
      </trkpt>
      <trkpt lat="45.86988" lon="4.60583">
        <ele>432.77734</ele>
        <time>2023-07-04T15:09:44.000Z</time>
      </trkpt>
      <trkpt lat="45.86992" lon="4.60586">
        <ele>433.0271</ele>
        <time>2023-07-04T15:09:45.000Z</time>
      </trkpt>
      <trkpt lat="45.86996" lon="4.60588">
        <ele>433.29532</ele>
        <time>2023-07-04T15:09:46.000Z</time>
      </trkpt>
      <trkpt lat="45.87" lon="4.60588">
        <ele>433.49551</ele>
        <time>2023-07-04T15:09:47.000Z</time>
      </trkpt>
      <trkpt lat="45.87005" lon="4.6059">
        <ele>433.69492</ele>
        <time>2023-07-04T15:09:48.000Z</time>
      </trkpt>
      <trkpt lat="45.87008" lon="4.60591">
        <ele>433.91058</ele>
        <time>2023-07-04T15:09:49.000Z</time>
      </trkpt>
      <trkpt lat="45.87013" lon="4.60594">
        <ele>434.16608</ele>
        <time>2023-07-04T15:09:50.000Z</time>
      </trkpt>
      <trkpt lat="45.87017" lon="4.60595">
        <ele>432.99243</ele>
        <time>2023-07-04T15:09:51.000Z</time>
      </trkpt>
      <trkpt lat="45.87021" lon="4.60597">
        <ele>433.22885</ele>
        <time>2023-07-04T15:09:52.000Z</time>
      </trkpt>
      <trkpt lat="45.87025" lon="4.60599">
        <ele>433.47308</ele>
        <time>2023-07-04T15:09:53.000Z</time>
      </trkpt>
      <trkpt lat="45.87029" lon="4.60601">
        <ele>433.75409</ele>
        <time>2023-07-04T15:09:54.000Z</time>
      </trkpt>
      <trkpt lat="45.87034" lon="4.60603">
        <ele>434.08145</ele>
        <time>2023-07-04T15:09:55.000Z</time>
      </trkpt>
      <trkpt lat="45.87038" lon="4.60606">
        <ele>434.40714</ele>
        <time>2023-07-04T15:09:56.000Z</time>
      </trkpt>
      <trkpt lat="45.87043" lon="4.60607">
        <ele>434.69659</ele>
        <time>2023-07-04T15:09:57.000Z</time>
      </trkpt>
      <trkpt lat="45.87047" lon="4.60609">
        <ele>435.00537</ele>
        <time>2023-07-04T15:09:58.000Z</time>
      </trkpt>
      <trkpt lat="45.87051" lon="4.60611">
        <ele>435.3002</ele>
        <time>2023-07-04T15:09:59.000Z</time>
      </trkpt>
      <trkpt lat="45.87056" lon="4.60614">
        <ele>435.55063</ele>
        <time>2023-07-04T15:10:00.000Z</time>
      </trkpt>
      <trkpt lat="45.87061" lon="4.60615">
        <ele>435.75269</ele>
        <time>2023-07-04T15:10:01.000Z</time>
      </trkpt>
      <trkpt lat="45.87066" lon="4.6062">
        <ele>435.88348</ele>
        <time>2023-07-04T15:10:02.000Z</time>
      </trkpt>
      <trkpt lat="45.87069" lon="4.60621">
        <ele>436.01987</ele>
        <time>2023-07-04T15:10:03.000Z</time>
      </trkpt>
      <trkpt lat="45.87074" lon="4.60624">
        <ele>436.14691</ele>
        <time>2023-07-04T15:10:04.000Z</time>
      </trkpt>
      <trkpt lat="45.87078" lon="4.60626">
        <ele>436.27216</ele>
        <time>2023-07-04T15:10:05.000Z</time>
      </trkpt>
      <trkpt lat="45.87083" lon="4.60628">
        <ele>436.41412</ele>
        <time>2023-07-04T15:10:06.000Z</time>
      </trkpt>
      <trkpt lat="45.87087" lon="4.60631">
        <ele>436.56512</ele>
        <time>2023-07-04T15:10:07.000Z</time>
      </trkpt>
      <trkpt lat="45.8709" lon="4.60632">
        <ele>436.7395</ele>
        <time>2023-07-04T15:10:08.000Z</time>
      </trkpt>
      <trkpt lat="45.87095" lon="4.60634">
        <ele>436.92838</ele>
        <time>2023-07-04T15:10:09.000Z</time>
      </trkpt>
      <trkpt lat="45.87099" lon="4.60637">
        <ele>437.10028</ele>
        <time>2023-07-04T15:10:10.000Z</time>
      </trkpt>
      <trkpt lat="45.87102" lon="4.6064">
        <ele>437.34375</ele>
        <time>2023-07-04T15:10:11.000Z</time>
      </trkpt>
      <trkpt lat="45.87107" lon="4.60643">
        <ele>437.60742</ele>
        <time>2023-07-04T15:10:12.000Z</time>
      </trkpt>
      <trkpt lat="45.87111" lon="4.60645">
        <ele>437.87247</ele>
        <time>2023-07-04T15:10:13.000Z</time>
      </trkpt>
      <trkpt lat="45.87115" lon="4.60647">
        <ele>438.10162</ele>
        <time>2023-07-04T15:10:14.000Z</time>
      </trkpt>
      <trkpt lat="45.87119" lon="4.6065">
        <ele>438.25391</ele>
        <time>2023-07-04T15:10:15.000Z</time>
      </trkpt>
      <trkpt lat="45.87123" lon="4.60653">
        <ele>438.45322</ele>
        <time>2023-07-04T15:10:16.000Z</time>
      </trkpt>
      <trkpt lat="45.87126" lon="4.60656">
        <ele>438.67181</ele>
        <time>2023-07-04T15:10:17.000Z</time>
      </trkpt>
      <trkpt lat="45.87131" lon="4.6066">
        <ele>438.90356</ele>
        <time>2023-07-04T15:10:18.000Z</time>
      </trkpt>
      <trkpt lat="45.87135" lon="4.60663">
        <ele>439.13531</ele>
        <time>2023-07-04T15:10:19.000Z</time>
      </trkpt>
      <trkpt lat="45.87139" lon="4.60666">
        <ele>439.35815</ele>
        <time>2023-07-04T15:10:20.000Z</time>
      </trkpt>
      <trkpt lat="45.87143" lon="4.60669">
        <ele>439.60724</ele>
        <time>2023-07-04T15:10:21.000Z</time>
      </trkpt>
      <trkpt lat="45.87147" lon="4.6067">
        <ele>439.9393</ele>
        <time>2023-07-04T15:10:22.000Z</time>
      </trkpt>
      <trkpt lat="45.87151" lon="4.60674">
        <ele>440.2413</ele>
        <time>2023-07-04T15:10:23.000Z</time>
      </trkpt>
      <trkpt lat="45.87155" lon="4.60677">
        <ele>440.5744</ele>
        <time>2023-07-04T15:10:24.000Z</time>
      </trkpt>
      <trkpt lat="45.87159" lon="4.60679">
        <ele>440.86993</ele>
        <time>2023-07-04T15:10:25.000Z</time>
      </trkpt>
      <trkpt lat="45.87162" lon="4.60682">
        <ele>441.13867</ele>
        <time>2023-07-04T15:10:26.000Z</time>
      </trkpt>
      <trkpt lat="45.87166" lon="4.60684">
        <ele>441.3746</ele>
        <time>2023-07-04T15:10:27.000Z</time>
      </trkpt>
      <trkpt lat="45.87169" lon="4.60686">
        <ele>441.5787</ele>
        <time>2023-07-04T15:10:28.000Z</time>
      </trkpt>
      <trkpt lat="45.87173" lon="4.60688">
        <ele>441.76602</ele>
        <time>2023-07-04T15:10:29.000Z</time>
      </trkpt>
      <trkpt lat="45.87177" lon="4.6069">
        <ele>441.9187</ele>
        <time>2023-07-04T15:10:30.000Z</time>
      </trkpt>
      <trkpt lat="45.8718" lon="4.60693">
        <ele>442.05585</ele>
        <time>2023-07-04T15:10:31.000Z</time>
      </trkpt>
      <trkpt lat="45.87184" lon="4.60696">
        <ele>442.1669</ele>
        <time>2023-07-04T15:10:32.000Z</time>
      </trkpt>
      <trkpt lat="45.87188" lon="4.60698">
        <ele>442.25333</ele>
        <time>2023-07-04T15:10:33.000Z</time>
      </trkpt>
      <trkpt lat="45.87191" lon="4.607">
        <ele>442.32928</ele>
        <time>2023-07-04T15:10:34.000Z</time>
      </trkpt>
      <trkpt lat="45.87195" lon="4.60701">
        <ele>442.43024</ele>
        <time>2023-07-04T15:10:35.000Z</time>
      </trkpt>
      <trkpt lat="45.87199" lon="4.60703">
        <ele>442.47891</ele>
        <time>2023-07-04T15:10:36.000Z</time>
      </trkpt>
      <trkpt lat="45.87203" lon="4.60705">
        <ele>442.54547</ele>
        <time>2023-07-04T15:10:37.000Z</time>
      </trkpt>
      <trkpt lat="45.87207" lon="4.60707">
        <ele>442.57648</ele>
        <time>2023-07-04T15:10:38.000Z</time>
      </trkpt>
      <trkpt lat="45.87212" lon="4.60708">
        <ele>442.57007</ele>
        <time>2023-07-04T15:10:39.000Z</time>
      </trkpt>
      <trkpt lat="45.87216" lon="4.6071">
        <ele>442.57568</ele>
        <time>2023-07-04T15:10:40.000Z</time>
      </trkpt>
      <trkpt lat="45.87221" lon="4.60712">
        <ele>442.56671</ele>
        <time>2023-07-04T15:10:41.000Z</time>
      </trkpt>
      <trkpt lat="45.87225" lon="4.60713">
        <ele>442.53427</ele>
        <time>2023-07-04T15:10:42.000Z</time>
      </trkpt>
      <trkpt lat="45.87231" lon="4.60715">
        <ele>442.48862</ele>
        <time>2023-07-04T15:10:43.000Z</time>
      </trkpt>
      <trkpt lat="45.87236" lon="4.60718">
        <ele>442.38452</ele>
        <time>2023-07-04T15:10:44.000Z</time>
      </trkpt>
      <trkpt lat="45.8724" lon="4.6072">
        <ele>442.27081</ele>
        <time>2023-07-04T15:10:45.000Z</time>
      </trkpt>
      <trkpt lat="45.87245" lon="4.60726">
        <ele>442.12909</ele>
        <time>2023-07-04T15:10:46.000Z</time>
      </trkpt>
      <trkpt lat="45.8725" lon="4.6073">
        <ele>441.98846</ele>
        <time>2023-07-04T15:10:47.000Z</time>
      </trkpt>
      <trkpt lat="45.87255" lon="4.60735">
        <ele>441.85205</ele>
        <time>2023-07-04T15:10:48.000Z</time>
      </trkpt>
      <trkpt lat="45.8726" lon="4.60741">
        <ele>441.71036</ele>
        <time>2023-07-04T15:10:49.000Z</time>
      </trkpt>
      <trkpt lat="45.87265" lon="4.60746">
        <ele>441.5687</ele>
        <time>2023-07-04T15:10:50.000Z</time>
      </trkpt>
      <trkpt lat="45.8727" lon="4.60751">
        <ele>441.40918</ele>
        <time>2023-07-04T15:10:51.000Z</time>
      </trkpt>
      <trkpt lat="45.87275" lon="4.60756">
        <ele>441.22665</ele>
        <time>2023-07-04T15:10:52.000Z</time>
      </trkpt>
      <trkpt lat="45.87279" lon="4.60759">
        <ele>441.0419</ele>
        <time>2023-07-04T15:10:53.000Z</time>
      </trkpt>
      <trkpt lat="45.87284" lon="4.60764">
        <ele>440.86725</ele>
        <time>2023-07-04T15:10:54.000Z</time>
      </trkpt>
      <trkpt lat="45.87288" lon="4.60768">
        <ele>440.69882</ele>
        <time>2023-07-04T15:10:55.000Z</time>
      </trkpt>
      <trkpt lat="45.87294" lon="4.60772">
        <ele>440.5795</ele>
        <time>2023-07-04T15:10:56.000Z</time>
      </trkpt>
      <trkpt lat="45.87298" lon="4.60776">
        <ele>440.43359</ele>
        <time>2023-07-04T15:10:57.000Z</time>
      </trkpt>
      <trkpt lat="45.87304" lon="4.6078">
        <ele>440.2879</ele>
        <time>2023-07-04T15:10:58.000Z</time>
      </trkpt>
      <trkpt lat="45.87309" lon="4.60784">
        <ele>440.16431</ele>
        <time>2023-07-04T15:10:59.000Z</time>
      </trkpt>
      <trkpt lat="45.87315" lon="4.60787">
        <ele>440.01105</ele>
        <time>2023-07-04T15:11:00.000Z</time>
      </trkpt>
      <trkpt lat="45.8732" lon="4.6079">
        <ele>439.86411</ele>
        <time>2023-07-04T15:11:01.000Z</time>
      </trkpt>
      <trkpt lat="45.87326" lon="4.60792">
        <ele>439.74521</ele>
        <time>2023-07-04T15:11:02.000Z</time>
      </trkpt>
      <trkpt lat="45.87331" lon="4.60795">
        <ele>439.66348</ele>
        <time>2023-07-04T15:11:03.000Z</time>
      </trkpt>
      <trkpt lat="45.87336" lon="4.60797">
        <ele>439.61499</ele>
        <time>2023-07-04T15:11:04.000Z</time>
      </trkpt>
      <trkpt lat="45.87342" lon="4.60799">
        <ele>439.57568</ele>
        <time>2023-07-04T15:11:05.000Z</time>
      </trkpt>
      <trkpt lat="45.87347" lon="4.60801">
        <ele>439.57114</ele>
        <time>2023-07-04T15:11:06.000Z</time>
      </trkpt>
      <trkpt lat="45.87352" lon="4.60802">
        <ele>439.58099</ele>
        <time>2023-07-04T15:11:07.000Z</time>
      </trkpt>
      <trkpt lat="45.87357" lon="4.60804">
        <ele>439.59741</ele>
        <time>2023-07-04T15:11:08.000Z</time>
      </trkpt>
      <trkpt lat="45.87362" lon="4.60806">
        <ele>439.61246</ele>
        <time>2023-07-04T15:11:09.000Z</time>
      </trkpt>
      <trkpt lat="45.87368" lon="4.60806">
        <ele>439.65039</ele>
        <time>2023-07-04T15:11:10.000Z</time>
      </trkpt>
      <trkpt lat="45.87373" lon="4.60807">
        <ele>439.73129</ele>
        <time>2023-07-04T15:11:11.000Z</time>
      </trkpt>
      <trkpt lat="45.87377" lon="4.60807">
        <ele>439.81885</ele>
        <time>2023-07-04T15:11:12.000Z</time>
      </trkpt>
      <trkpt lat="45.87382" lon="4.60808">
        <ele>439.9086</ele>
        <time>2023-07-04T15:11:13.000Z</time>
      </trkpt>
      <trkpt lat="45.87387" lon="4.60808">
        <ele>440.03232</ele>
        <time>2023-07-04T15:11:14.000Z</time>
      </trkpt>
      <trkpt lat="45.8739" lon="4.60808">
        <ele>440.1207</ele>
        <time>2023-07-04T15:11:15.000Z</time>
      </trkpt>
      <trkpt lat="45.87395" lon="4.60809">
        <ele>440.21719</ele>
        <time>2023-07-04T15:11:16.000Z</time>
      </trkpt>
      <trkpt lat="45.87399" lon="4.6081">
        <ele>440.32462</ele>
        <time>2023-07-04T15:11:17.000Z</time>
      </trkpt>
      <trkpt lat="45.87404" lon="4.60811">
        <ele>440.42587</ele>
        <time>2023-07-04T15:11:18.000Z</time>
      </trkpt>
      <trkpt lat="45.87408" lon="4.60813">
        <ele>440.53207</ele>
        <time>2023-07-04T15:11:19.000Z</time>
      </trkpt>
      <trkpt lat="45.87413" lon="4.60813">
        <ele>440.68115</ele>
        <time>2023-07-04T15:11:20.000Z</time>
      </trkpt>
      <trkpt lat="45.87418" lon="4.60814">
        <ele>440.8497</ele>
        <time>2023-07-04T15:11:21.000Z</time>
      </trkpt>
      <trkpt lat="45.87422" lon="4.60815">
        <ele>441.01865</ele>
        <time>2023-07-04T15:11:22.000Z</time>
      </trkpt>
      <trkpt lat="45.87427" lon="4.60815">
        <ele>441.21588</ele>
        <time>2023-07-04T15:11:23.000Z</time>
      </trkpt>
      <trkpt lat="45.87431" lon="4.60816">
        <ele>441.4288</ele>
        <time>2023-07-04T15:11:24.000Z</time>
      </trkpt>
      <trkpt lat="45.87436" lon="4.60817">
        <ele>441.67645</ele>
        <time>2023-07-04T15:11:25.000Z</time>
      </trkpt>
      <trkpt lat="45.87441" lon="4.60818">
        <ele>441.9101</ele>
        <time>2023-07-04T15:11:26.000Z</time>
      </trkpt>
      <trkpt lat="45.87445" lon="4.60819">
        <ele>442.13068</ele>
        <time>2023-07-04T15:11:27.000Z</time>
      </trkpt>
      <trkpt lat="45.8745" lon="4.6082">
        <ele>442.39502</ele>
        <time>2023-07-04T15:11:28.000Z</time>
      </trkpt>
      <trkpt lat="45.87454" lon="4.60822">
        <ele>442.6748</ele>
        <time>2023-07-04T15:11:29.000Z</time>
      </trkpt>
      <trkpt lat="45.87459" lon="4.60823">
        <ele>442.94556</ele>
        <time>2023-07-04T15:11:30.000Z</time>
      </trkpt>
      <trkpt lat="45.87463" lon="4.60826">
        <ele>443.19647</ele>
        <time>2023-07-04T15:11:31.000Z</time>
      </trkpt>
      <trkpt lat="45.87467" lon="4.60828">
        <ele>443.50336</ele>
        <time>2023-07-04T15:11:32.000Z</time>
      </trkpt>
      <trkpt lat="45.87471" lon="4.6083">
        <ele>443.82999</ele>
        <time>2023-07-04T15:11:33.000Z</time>
      </trkpt>
      <trkpt lat="45.87475" lon="4.60833">
        <ele>444.12592</ele>
        <time>2023-07-04T15:11:34.000Z</time>
      </trkpt>
      <trkpt lat="45.87479" lon="4.60836">
        <ele>444.40518</ele>
        <time>2023-07-04T15:11:35.000Z</time>
      </trkpt>
      <trkpt lat="45.87483" lon="4.60839">
        <ele>444.65387</ele>
        <time>2023-07-04T15:11:36.000Z</time>
      </trkpt>
      <trkpt lat="45.87487" lon="4.60842">
        <ele>444.90488</ele>
        <time>2023-07-04T15:11:37.000Z</time>
      </trkpt>
      <trkpt lat="45.87491" lon="4.60843">
        <ele>445.1669</ele>
        <time>2023-07-04T15:11:38.000Z</time>
      </trkpt>
      <trkpt lat="45.87495" lon="4.60844">
        <ele>445.42352</ele>
        <time>2023-07-04T15:11:39.000Z</time>
      </trkpt>
      <trkpt lat="45.87499" lon="4.60846">
        <ele>445.65024</ele>
        <time>2023-07-04T15:11:40.000Z</time>
      </trkpt>
      <trkpt lat="45.87503" lon="4.60848">
        <ele>445.83072</ele>
        <time>2023-07-04T15:11:41.000Z</time>
      </trkpt>
      <trkpt lat="45.87506" lon="4.6085">
        <ele>446.04669</ele>
        <time>2023-07-04T15:11:42.000Z</time>
      </trkpt>
      <trkpt lat="45.87509" lon="4.60851">
        <ele>446.17099</ele>
        <time>2023-07-04T15:11:43.000Z</time>
      </trkpt>
      <trkpt lat="45.87512" lon="4.60853">
        <ele>446.31342</ele>
        <time>2023-07-04T15:11:44.000Z</time>
      </trkpt>
      <trkpt lat="45.87516" lon="4.60855">
        <ele>446.45386</ele>
        <time>2023-07-04T15:11:45.000Z</time>
      </trkpt>
      <trkpt lat="45.87519" lon="4.60858">
        <ele>446.60419</ele>
        <time>2023-07-04T15:11:46.000Z</time>
      </trkpt>
      <trkpt lat="45.87522" lon="4.6086">
        <ele>446.80975</ele>
        <time>2023-07-04T15:11:47.000Z</time>
      </trkpt>
      <trkpt lat="45.87526" lon="4.60862">
        <ele>447.03802</ele>
        <time>2023-07-04T15:11:48.000Z</time>
      </trkpt>
      <trkpt lat="45.87529" lon="4.60865">
        <ele>447.2775</ele>
        <time>2023-07-04T15:11:49.000Z</time>
      </trkpt>
      <trkpt lat="45.87533" lon="4.60868">
        <ele>447.52328</ele>
        <time>2023-07-04T15:11:50.000Z</time>
      </trkpt>
      <trkpt lat="45.87536" lon="4.60871">
        <ele>447.78604</ele>
        <time>2023-07-04T15:11:51.000Z</time>
      </trkpt>
      <trkpt lat="45.8754" lon="4.60873">
        <ele>448.07172</ele>
        <time>2023-07-04T15:11:52.000Z</time>
      </trkpt>
      <trkpt lat="45.87544" lon="4.60875">
        <ele>448.36359</ele>
        <time>2023-07-04T15:11:53.000Z</time>
      </trkpt>
      <trkpt lat="45.87548" lon="4.60877">
        <ele>448.59146</ele>
        <time>2023-07-04T15:11:54.000Z</time>
      </trkpt>
      <trkpt lat="45.87552" lon="4.60879">
        <ele>448.8479</ele>
        <time>2023-07-04T15:11:55.000Z</time>
      </trkpt>
      <trkpt lat="45.87555" lon="4.6088">
        <ele>449.06461</ele>
        <time>2023-07-04T15:11:56.000Z</time>
      </trkpt>
      <trkpt lat="45.87559" lon="4.60882">
        <ele>449.26422</ele>
        <time>2023-07-04T15:11:57.000Z</time>
      </trkpt>
      <trkpt lat="45.87563" lon="4.60883">
        <ele>449.44232</ele>
        <time>2023-07-04T15:11:58.000Z</time>
      </trkpt>
      <trkpt lat="45.87567" lon="4.60884">
        <ele>449.64337</ele>
        <time>2023-07-04T15:11:59.000Z</time>
      </trkpt>
      <trkpt lat="45.8757" lon="4.60884">
        <ele>449.90756</ele>
        <time>2023-07-04T15:12:00.000Z</time>
      </trkpt>
      <trkpt lat="45.87574" lon="4.60885">
        <ele>450.18817</ele>
        <time>2023-07-04T15:12:01.000Z</time>
      </trkpt>
      <trkpt lat="45.87577" lon="4.60886">
        <ele>450.47394</ele>
        <time>2023-07-04T15:12:02.000Z</time>
      </trkpt>
      <trkpt lat="45.87581" lon="4.60886">
        <ele>450.80518</ele>
        <time>2023-07-04T15:12:03.000Z</time>
      </trkpt>
      <trkpt lat="45.87585" lon="4.60886">
        <ele>451.13242</ele>
        <time>2023-07-04T15:12:04.000Z</time>
      </trkpt>
      <trkpt lat="45.87588" lon="4.60886">
        <ele>451.44995</ele>
        <time>2023-07-04T15:12:05.000Z</time>
      </trkpt>
      <trkpt lat="45.87592" lon="4.60887">
        <ele>451.80713</ele>
        <time>2023-07-04T15:12:06.000Z</time>
      </trkpt>
      <trkpt lat="45.87596" lon="4.60888">
        <ele>452.17145</ele>
        <time>2023-07-04T15:12:07.000Z</time>
      </trkpt>
      <trkpt lat="45.876" lon="4.60888">
        <ele>452.47296</ele>
        <time>2023-07-04T15:12:08.000Z</time>
      </trkpt>
      <trkpt lat="45.87603" lon="4.60889">
        <ele>452.80533</ele>
        <time>2023-07-04T15:12:09.000Z</time>
      </trkpt>
      <trkpt lat="45.87607" lon="4.60889">
        <ele>453.07867</ele>
        <time>2023-07-04T15:12:10.000Z</time>
      </trkpt>
      <trkpt lat="45.8761" lon="4.6089">
        <ele>453.36212</ele>
        <time>2023-07-04T15:12:11.000Z</time>
      </trkpt>
      <trkpt lat="45.87614" lon="4.60891">
        <ele>453.59732</ele>
        <time>2023-07-04T15:12:12.000Z</time>
      </trkpt>
      <trkpt lat="45.87617" lon="4.60892">
        <ele>453.81299</ele>
        <time>2023-07-04T15:12:13.000Z</time>
      </trkpt>
      <trkpt lat="45.87621" lon="4.60894">
        <ele>454.08432</ele>
        <time>2023-07-04T15:12:14.000Z</time>
      </trkpt>
      <trkpt lat="45.87624" lon="4.60895">
        <ele>454.48828</ele>
        <time>2023-07-04T15:12:15.000Z</time>
      </trkpt>
      <trkpt lat="45.87628" lon="4.60896">
        <ele>454.92133</ele>
        <time>2023-07-04T15:12:16.000Z</time>
      </trkpt>
      <trkpt lat="45.87632" lon="4.60897">
        <ele>455.38916</ele>
        <time>2023-07-04T15:12:17.000Z</time>
      </trkpt>
      <trkpt lat="45.87636" lon="4.60898">
        <ele>455.89658</ele>
        <time>2023-07-04T15:12:18.000Z</time>
      </trkpt>
      <trkpt lat="45.8764" lon="4.60899">
        <ele>456.41302</ele>
        <time>2023-07-04T15:12:19.000Z</time>
      </trkpt>
      <trkpt lat="45.87644" lon="4.60899">
        <ele>456.88843</ele>
        <time>2023-07-04T15:12:20.000Z</time>
      </trkpt>
      <trkpt lat="45.87648" lon="4.609">
        <ele>457.37442</ele>
        <time>2023-07-04T15:12:21.000Z</time>
      </trkpt>
      <trkpt lat="45.87651" lon="4.609">
        <ele>457.7995</ele>
        <time>2023-07-04T15:12:22.000Z</time>
      </trkpt>
      <trkpt lat="45.87655" lon="4.609">
        <ele>458.21664</ele>
        <time>2023-07-04T15:12:23.000Z</time>
      </trkpt>
      <trkpt lat="45.87659" lon="4.60901">
        <ele>458.59467</ele>
        <time>2023-07-04T15:12:24.000Z</time>
      </trkpt>
      <trkpt lat="45.87663" lon="4.60901">
        <ele>458.96014</ele>
        <time>2023-07-04T15:12:25.000Z</time>
      </trkpt>
      <trkpt lat="45.87666" lon="4.60901">
        <ele>459.21991</ele>
        <time>2023-07-04T15:12:26.000Z</time>
      </trkpt>
      <trkpt lat="45.8767" lon="4.60901">
        <ele>459.43048</ele>
        <time>2023-07-04T15:12:27.000Z</time>
      </trkpt>
      <trkpt lat="45.87674" lon="4.609">
        <ele>459.65869</ele>
        <time>2023-07-04T15:12:28.000Z</time>
      </trkpt>
      <trkpt lat="45.87678" lon="4.609">
        <ele>459.86426</ele>
        <time>2023-07-04T15:12:29.000Z</time>
      </trkpt>
      <trkpt lat="45.87681" lon="4.60899">
        <ele>460.08905</ele>
        <time>2023-07-04T15:12:30.000Z</time>
      </trkpt>
      <trkpt lat="45.87685" lon="4.60899">
        <ele>460.39648</ele>
        <time>2023-07-04T15:12:31.000Z</time>
      </trkpt>
      <trkpt lat="45.87688" lon="4.60899">
        <ele>460.69067</ele>
        <time>2023-07-04T15:12:32.000Z</time>
      </trkpt>
      <trkpt lat="45.87691" lon="4.60898">
        <ele>460.98242</ele>
        <time>2023-07-04T15:12:33.000Z</time>
      </trkpt>
      <trkpt lat="45.87695" lon="4.60897">
        <ele>461.29575</ele>
        <time>2023-07-04T15:12:34.000Z</time>
      </trkpt>
      <trkpt lat="45.87698" lon="4.60897">
        <ele>461.52264</ele>
        <time>2023-07-04T15:12:35.000Z</time>
      </trkpt>
      <trkpt lat="45.87701" lon="4.60897">
        <ele>461.78506</ele>
        <time>2023-07-04T15:12:36.000Z</time>
      </trkpt>
      <trkpt lat="45.87704" lon="4.60897">
        <ele>462.02524</ele>
        <time>2023-07-04T15:12:37.000Z</time>
      </trkpt>
      <trkpt lat="45.87706" lon="4.60897">
        <ele>462.23322</ele>
        <time>2023-07-04T15:12:38.000Z</time>
      </trkpt>
      <trkpt lat="45.87709" lon="4.60898">
        <ele>462.39862</ele>
        <time>2023-07-04T15:12:39.000Z</time>
      </trkpt>
      <trkpt lat="45.87712" lon="4.60898">
        <ele>462.56024</ele>
        <time>2023-07-04T15:12:40.000Z</time>
      </trkpt>
      <trkpt lat="45.87715" lon="4.60898">
        <ele>462.70517</ele>
        <time>2023-07-04T15:12:41.000Z</time>
      </trkpt>
      <trkpt lat="45.87718" lon="4.60899">
        <ele>462.84442</ele>
        <time>2023-07-04T15:12:42.000Z</time>
      </trkpt>
      <trkpt lat="45.87722" lon="4.609">
        <ele>462.98486</ele>
        <time>2023-07-04T15:12:43.000Z</time>
      </trkpt>
      <trkpt lat="45.87724" lon="4.609">
        <ele>463.11133</ele>
        <time>2023-07-04T15:12:44.000Z</time>
      </trkpt>
      <trkpt lat="45.87727" lon="4.60901">
        <ele>463.22736</ele>
        <time>2023-07-04T15:12:45.000Z</time>
      </trkpt>
      <trkpt lat="45.87729" lon="4.60902">
        <ele>463.4043</ele>
        <time>2023-07-04T15:12:46.000Z</time>
      </trkpt>
      <trkpt lat="45.87731" lon="4.60903">
        <ele>463.57098</ele>
        <time>2023-07-04T15:12:47.000Z</time>
      </trkpt>
      <trkpt lat="45.87733" lon="4.60904">
        <ele>463.71851</ele>
        <time>2023-07-04T15:12:48.000Z</time>
      </trkpt>
      <trkpt lat="45.87735" lon="4.60907">
        <ele>463.84113</ele>
        <time>2023-07-04T15:12:49.000Z</time>
      </trkpt>
      <trkpt lat="45.87736" lon="4.6091">
        <ele>464.05429</ele>
        <time>2023-07-04T15:12:50.000Z</time>
      </trkpt>
      <trkpt lat="45.87738" lon="4.60913">
        <ele>464.16095</ele>
        <time>2023-07-04T15:12:51.000Z</time>
      </trkpt>
      <trkpt lat="45.87739" lon="4.60915">
        <ele>464.22491</ele>
        <time>2023-07-04T15:12:52.000Z</time>
      </trkpt>
      <trkpt lat="45.87743" lon="4.60916">
        <ele>464.25812</ele>
        <time>2023-07-04T15:12:54.000Z</time>
      </trkpt>
      <trkpt lat="45.87746" lon="4.60916">
        <ele>464.27139</ele>
        <time>2023-07-04T15:12:55.000Z</time>
      </trkpt>
      <trkpt lat="45.87748" lon="4.60918">
        <ele>464.27289</ele>
        <time>2023-07-04T15:12:57.000Z</time>
      </trkpt>
      <trkpt lat="45.87748" lon="4.60922">
        <ele>464.2453</ele>
        <time>2023-07-04T15:12:58.000Z</time>
      </trkpt>
      <trkpt lat="45.87747" lon="4.60927">
        <ele>464.21298</ele>
        <time>2023-07-04T15:12:59.000Z</time>
      </trkpt>
      <trkpt lat="45.87746" lon="4.60931">
        <ele>464.19122</ele>
        <time>2023-07-04T15:13:00.000Z</time>
      </trkpt>
      <trkpt lat="45.87746" lon="4.60935">
        <ele>466.20728</ele>
        <time>2023-07-04T15:13:01.000Z</time>
      </trkpt>
      <trkpt lat="45.87745" lon="4.60939">
        <ele>466.85907</ele>
        <time>2023-07-04T15:13:02.000Z</time>
      </trkpt>
      <trkpt lat="45.87744" lon="4.60943">
        <ele>467.51871</ele>
        <time>2023-07-04T15:13:03.000Z</time>
      </trkpt>
      <trkpt lat="45.87744" lon="4.60948">
        <ele>468.16309</ele>
        <time>2023-07-04T15:13:04.000Z</time>
      </trkpt>
      <trkpt lat="45.87743" lon="4.60953">
        <ele>468.80048</ele>
        <time>2023-07-04T15:13:05.000Z</time>
      </trkpt>
      <trkpt lat="45.87743" lon="4.60958">
        <ele>469.44659</ele>
        <time>2023-07-04T15:13:06.000Z</time>
      </trkpt>
      <trkpt lat="45.87746" lon="4.60963">
        <ele>470.10858</ele>
        <time>2023-07-04T15:13:07.000Z</time>
      </trkpt>
      <trkpt lat="45.87748" lon="4.6097">
        <ele>470.7627</ele>
        <time>2023-07-04T15:13:08.000Z</time>
      </trkpt>
      <trkpt lat="45.87748" lon="4.60978">
        <ele>471.41928</ele>
        <time>2023-07-04T15:13:09.000Z</time>
      </trkpt>
      <trkpt lat="45.87749" lon="4.60985">
        <ele>472.0856</ele>
        <time>2023-07-04T15:13:10.000Z</time>
      </trkpt>
      <trkpt lat="45.87749" lon="4.60992">
        <ele>472.72501</ele>
        <time>2023-07-04T15:13:11.000Z</time>
      </trkpt>
      <trkpt lat="45.87748" lon="4.60999">
        <ele>473.45459</ele>
        <time>2023-07-04T15:13:12.000Z</time>
      </trkpt>
      <trkpt lat="45.87746" lon="4.61005">
        <ele>474.15839</ele>
        <time>2023-07-04T15:13:13.000Z</time>
      </trkpt>
      <trkpt lat="45.87744" lon="4.61012">
        <ele>474.8685</ele>
        <time>2023-07-04T15:13:14.000Z</time>
      </trkpt>
      <trkpt lat="45.87742" lon="4.61019">
        <ele>475.59479</ele>
        <time>2023-07-04T15:13:15.000Z</time>
      </trkpt>
      <trkpt lat="45.87739" lon="4.61026">
        <ele>476.18149</ele>
        <time>2023-07-04T15:13:16.000Z</time>
      </trkpt>
      <trkpt lat="45.87736" lon="4.61032">
        <ele>476.77701</ele>
        <time>2023-07-04T15:13:17.000Z</time>
      </trkpt>
      <trkpt lat="45.87732" lon="4.61037">
        <ele>477.40225</ele>
        <time>2023-07-04T15:13:18.000Z</time>
      </trkpt>
      <trkpt lat="45.87729" lon="4.61041">
        <ele>478.06012</ele>
        <time>2023-07-04T15:13:19.000Z</time>
      </trkpt>
      <trkpt lat="45.87727" lon="4.61044">
        <ele>478.7525</ele>
        <time>2023-07-04T15:13:20.000Z</time>
      </trkpt>
      <trkpt lat="45.87724" lon="4.61047">
        <ele>475.01358</ele>
        <time>2023-07-04T15:13:21.000Z</time>
      </trkpt>
      <trkpt lat="45.87722" lon="4.61051">
        <ele>474.88751</ele>
        <time>2023-07-04T15:13:22.000Z</time>
      </trkpt>
      <trkpt lat="45.87721" lon="4.61055">
        <ele>474.75278</ele>
        <time>2023-07-04T15:13:23.000Z</time>
      </trkpt>
      <trkpt lat="45.87719" lon="4.61057">
        <ele>474.63129</ele>
        <time>2023-07-04T15:13:24.000Z</time>
      </trkpt>
      <trkpt lat="45.87716" lon="4.61058">
        <ele>474.51324</ele>
        <time>2023-07-04T15:13:25.000Z</time>
      </trkpt>
      <trkpt lat="45.87713" lon="4.61058">
        <ele>474.39624</ele>
        <time>2023-07-04T15:13:26.000Z</time>
      </trkpt>
      <trkpt lat="45.8771" lon="4.61057">
        <ele>472.4682</ele>
        <time>2023-07-04T15:13:27.000Z</time>
      </trkpt>
      <trkpt lat="45.87707" lon="4.61056">
        <ele>472.25073</ele>
        <time>2023-07-04T15:13:28.000Z</time>
      </trkpt>
      <trkpt lat="45.87704" lon="4.61056">
        <ele>472.02066</ele>
        <time>2023-07-04T15:13:29.000Z</time>
      </trkpt>
      <trkpt lat="45.87701" lon="4.61057">
        <ele>471.77124</ele>
        <time>2023-07-04T15:13:30.000Z</time>
      </trkpt>
      <trkpt lat="45.87699" lon="4.61058">
        <ele>471.52515</ele>
        <time>2023-07-04T15:13:31.000Z</time>
      </trkpt>
      <trkpt lat="45.87696" lon="4.61059">
        <ele>471.12347</ele>
        <time>2023-07-04T15:13:32.000Z</time>
      </trkpt>
      <trkpt lat="45.87694" lon="4.6106">
        <ele>469.16229</ele>
        <time>2023-07-04T15:13:33.000Z</time>
      </trkpt>
      <trkpt lat="45.87692" lon="4.61061">
        <ele>467.22247</ele>
        <time>2023-07-04T15:13:34.000Z</time>
      </trkpt>
      <trkpt lat="45.8769" lon="4.61064">
        <ele>465.2746</ele>
        <time>2023-07-04T15:13:35.000Z</time>
      </trkpt>
      <trkpt lat="45.87689" lon="4.61067">
        <ele>463.41571</ele>
        <time>2023-07-04T15:13:36.000Z</time>
      </trkpt>
      <trkpt lat="45.87689" lon="4.6107">
        <ele>461.55884</ele>
        <time>2023-07-04T15:13:37.000Z</time>
      </trkpt>
      <trkpt lat="45.8769" lon="4.61073">
        <ele>459.61246</ele>
        <time>2023-07-04T15:13:38.000Z</time>
      </trkpt>
      <trkpt lat="45.87692" lon="4.61075">
        <ele>457.68475</ele>
        <time>2023-07-04T15:13:39.000Z</time>
      </trkpt>
      <trkpt lat="45.87694" lon="4.61075">
        <ele>455.72208</ele>
        <time>2023-07-04T15:13:40.000Z</time>
      </trkpt>
      <trkpt lat="45.87696" lon="4.61074">
        <ele>456.10547</ele>
        <time>2023-07-04T15:13:41.000Z</time>
      </trkpt>
      <trkpt lat="45.87698" lon="4.61072">
        <ele>454.1832</ele>
        <time>2023-07-04T15:13:42.000Z</time>
      </trkpt>
      <trkpt lat="45.877" lon="4.6107">
        <ele>452.32001</ele>
        <time>2023-07-04T15:13:43.000Z</time>
      </trkpt>
      <trkpt lat="45.87702" lon="4.61068">
        <ele>450.55386</ele>
        <time>2023-07-04T15:13:44.000Z</time>
      </trkpt>
      <trkpt lat="45.87704" lon="4.61068">
        <ele>448.81366</ele>
        <time>2023-07-04T15:13:45.000Z</time>
      </trkpt>
      <trkpt lat="45.87707" lon="4.6107">
        <ele>446.77921</ele>
        <time>2023-07-04T15:13:47.000Z</time>
      </trkpt>
      <trkpt lat="45.87708" lon="4.61073">
        <ele>446.53149</ele>
        <time>2023-07-04T15:13:49.000Z</time>
      </trkpt>
      <trkpt lat="45.8771" lon="4.61074">
        <ele>444.58282</ele>
        <time>2023-07-04T15:13:50.000Z</time>
      </trkpt>
      <trkpt lat="45.87712" lon="4.61075">
        <ele>442.64868</ele>
        <time>2023-07-04T15:13:51.000Z</time>
      </trkpt>
      <trkpt lat="45.87715" lon="4.61077">
        <ele>440.54678</ele>
        <time>2023-07-04T15:13:53.000Z</time>
      </trkpt>
      <trkpt lat="45.87717" lon="4.6108">
        <ele>439.06183</ele>
        <time>2023-07-04T15:13:55.000Z</time>
      </trkpt>
      <trkpt lat="45.87719" lon="4.61083">
        <ele>437.46198</ele>
        <time>2023-07-04T15:13:57.000Z</time>
      </trkpt>
      <trkpt lat="45.87722" lon="4.61086">
        <ele>437.41064</ele>
        <time>2023-07-04T15:13:59.000Z</time>
      </trkpt>
      <trkpt lat="45.87722" lon="4.61088">
        <ele>437.2355</ele>
        <time>2023-07-04T15:14:06.000Z</time>
      </trkpt>
      <trkpt lat="45.87724" lon="4.61087">
        <ele>436.35391</ele>
        <time>2023-07-04T15:14:40.000Z</time>
      </trkpt>
      <trkpt lat="45.87725" lon="4.61084">
        <ele>435.9314</ele>
        <time>2023-07-04T15:14:42.000Z</time>
      </trkpt>
      <trkpt lat="45.87726" lon="4.61081">
        <ele>435.41348</ele>
        <time>2023-07-04T15:14:44.000Z</time>
      </trkpt>
      <trkpt lat="45.87727" lon="4.61079">
        <ele>434.87286</ele>
        <time>2023-07-04T15:14:52.000Z</time>
      </trkpt>
      <trkpt lat="45.87731" lon="4.61079">
        <ele>434.49542</ele>
        <time>2023-07-04T15:15:38.000Z</time>
      </trkpt>
      <trkpt lat="45.87733" lon="4.61081">
        <ele>434.22266</ele>
        <time>2023-07-04T15:15:39.000Z</time>
      </trkpt>
      <trkpt lat="45.87735" lon="4.61082">
        <ele>434.03094</ele>
        <time>2023-07-04T15:15:40.000Z</time>
      </trkpt>
      <trkpt lat="45.87737" lon="4.61084">
        <ele>433.61725</ele>
        <time>2023-07-04T15:15:41.000Z</time>
      </trkpt>
      <trkpt lat="45.87739" lon="4.61085">
        <ele>433.19742</ele>
        <time>2023-07-04T15:15:42.000Z</time>
      </trkpt>
      <trkpt lat="45.87741" lon="4.61087">
        <ele>432.59161</ele>
        <time>2023-07-04T15:15:43.000Z</time>
      </trkpt>
      <trkpt lat="45.87743" lon="4.61088">
        <ele>432.05313</ele>
        <time>2023-07-04T15:15:44.000Z</time>
      </trkpt>
      <trkpt lat="45.87746" lon="4.61088">
        <ele>431.97363</ele>
        <time>2023-07-04T15:15:45.000Z</time>
      </trkpt>
      <trkpt lat="45.87748" lon="4.61087">
        <ele>431.96445</ele>
        <time>2023-07-04T15:15:46.000Z</time>
      </trkpt>
      <trkpt lat="45.8775" lon="4.61086">
        <ele>431.79971</ele>
        <time>2023-07-04T15:15:47.000Z</time>
      </trkpt>
      <trkpt lat="45.87752" lon="4.61086">
        <ele>431.60468</ele>
        <time>2023-07-04T15:15:48.000Z</time>
      </trkpt>
      <trkpt lat="45.87754" lon="4.61087">
        <ele>432.12091</ele>
        <time>2023-07-04T15:15:49.000Z</time>
      </trkpt>
      <trkpt lat="45.87757" lon="4.61088">
        <ele>431.62335</ele>
        <time>2023-07-04T15:15:50.000Z</time>
      </trkpt>
      <trkpt lat="45.87759" lon="4.61089">
        <ele>431.22809</ele>
        <time>2023-07-04T15:15:51.000Z</time>
      </trkpt>
      <trkpt lat="45.87762" lon="4.61089">
        <ele>430.83804</ele>
        <time>2023-07-04T15:15:52.000Z</time>
      </trkpt>
      <trkpt lat="45.87764" lon="4.61088">
        <ele>430.56055</ele>
        <time>2023-07-04T15:15:53.000Z</time>
      </trkpt>
      <trkpt lat="45.87767" lon="4.61087">
        <ele>430.99561</ele>
        <time>2023-07-04T15:15:54.000Z</time>
      </trkpt>
      <trkpt lat="45.8777" lon="4.61085">
        <ele>434.88385</ele>
        <time>2023-07-04T15:15:55.000Z</time>
      </trkpt>
      <trkpt lat="45.87772" lon="4.61083">
        <ele>435.19376</ele>
        <time>2023-07-04T15:15:56.000Z</time>
      </trkpt>
      <trkpt lat="45.87774" lon="4.61082">
        <ele>435.60156</ele>
        <time>2023-07-04T15:15:57.000Z</time>
      </trkpt>
      <trkpt lat="45.87776" lon="4.6108">
        <ele>435.81665</ele>
        <time>2023-07-04T15:15:58.000Z</time>
      </trkpt>
      <trkpt lat="45.87777" lon="4.61077">
        <ele>435.93988</ele>
        <time>2023-07-04T15:15:59.000Z</time>
      </trkpt>
      <trkpt lat="45.87778" lon="4.61074">
        <ele>436.05469</ele>
        <time>2023-07-04T15:16:00.000Z</time>
      </trkpt>
      <trkpt lat="45.8778" lon="4.6107">
        <ele>439.34381</ele>
        <time>2023-07-04T15:16:01.000Z</time>
      </trkpt>
      <trkpt lat="45.87781" lon="4.61067">
        <ele>439.84961</ele>
        <time>2023-07-04T15:16:02.000Z</time>
      </trkpt>
      <trkpt lat="45.87783" lon="4.61063">
        <ele>440.47641</ele>
        <time>2023-07-04T15:16:03.000Z</time>
      </trkpt>
      <trkpt lat="45.87784" lon="4.61059">
        <ele>441.04736</ele>
        <time>2023-07-04T15:16:04.000Z</time>
      </trkpt>
      <trkpt lat="45.87785" lon="4.61055">
        <ele>442.77701</ele>
        <time>2023-07-04T15:16:05.000Z</time>
      </trkpt>
      <trkpt lat="45.87786" lon="4.61052">
        <ele>444.49863</ele>
        <time>2023-07-04T15:16:06.000Z</time>
      </trkpt>
      <trkpt lat="45.87787" lon="4.61048">
        <ele>446.40292</ele>
        <time>2023-07-04T15:16:07.000Z</time>
      </trkpt>
      <trkpt lat="45.87788" lon="4.61043">
        <ele>448.33725</ele>
        <time>2023-07-04T15:16:08.000Z</time>
      </trkpt>
      <trkpt lat="45.87789" lon="4.61039">
        <ele>449.75995</ele>
        <time>2023-07-04T15:16:09.000Z</time>
      </trkpt>
      <trkpt lat="45.87789" lon="4.61035">
        <ele>451.59448</ele>
        <time>2023-07-04T15:16:10.000Z</time>
      </trkpt>
      <trkpt lat="45.8779" lon="4.61031">
        <ele>453.46576</ele>
        <time>2023-07-04T15:16:11.000Z</time>
      </trkpt>
      <trkpt lat="45.87791" lon="4.61026">
        <ele>455.36581</ele>
        <time>2023-07-04T15:16:12.000Z</time>
      </trkpt>
      <trkpt lat="45.87792" lon="4.61022">
        <ele>457.29868</ele>
        <time>2023-07-04T15:16:13.000Z</time>
      </trkpt>
      <trkpt lat="45.87793" lon="4.61018">
        <ele>459.47314</ele>
        <time>2023-07-04T15:16:14.000Z</time>
      </trkpt>
      <trkpt lat="45.87794" lon="4.61014">
        <ele>457.68369</ele>
        <time>2023-07-04T15:16:15.000Z</time>
      </trkpt>
      <trkpt lat="45.87795" lon="4.6101">
        <ele>459.50488</ele>
        <time>2023-07-04T15:16:16.000Z</time>
      </trkpt>
      <trkpt lat="45.87795" lon="4.61006">
        <ele>461.33917</ele>
        <time>2023-07-04T15:16:17.000Z</time>
      </trkpt>
      <trkpt lat="45.87795" lon="4.61002">
        <ele>463.15878</ele>
        <time>2023-07-04T15:16:18.000Z</time>
      </trkpt>
      <trkpt lat="45.87796" lon="4.60997">
        <ele>464.52594</ele>
        <time>2023-07-04T15:16:19.000Z</time>
      </trkpt>
      <trkpt lat="45.87797" lon="4.60993">
        <ele>465.95526</ele>
        <time>2023-07-04T15:16:20.000Z</time>
      </trkpt>
      <trkpt lat="45.87798" lon="4.6099">
        <ele>465.14551</ele>
        <time>2023-07-04T15:16:21.000Z</time>
      </trkpt>
      <trkpt lat="45.87799" lon="4.60986">
        <ele>467.07397</ele>
        <time>2023-07-04T15:16:22.000Z</time>
      </trkpt>
      <trkpt lat="45.878" lon="4.60983">
        <ele>468.97916</ele>
        <time>2023-07-04T15:16:23.000Z</time>
      </trkpt>
      <trkpt lat="45.87801" lon="4.60979">
        <ele>470.9787</ele>
        <time>2023-07-04T15:16:24.000Z</time>
      </trkpt>
      <trkpt lat="45.87801" lon="4.60975">
        <ele>471.3226</ele>
        <time>2023-07-04T15:16:25.000Z</time>
      </trkpt>
      <trkpt lat="45.87801" lon="4.6097">
        <ele>471.6752</ele>
        <time>2023-07-04T15:16:26.000Z</time>
      </trkpt>
      <trkpt lat="45.87799" lon="4.60966">
        <ele>472.00351</ele>
        <time>2023-07-04T15:16:27.000Z</time>
      </trkpt>
      <trkpt lat="45.87798" lon="4.60962">
        <ele>472.34442</ele>
        <time>2023-07-04T15:16:28.000Z</time>
      </trkpt>
      <trkpt lat="45.87797" lon="4.60958">
        <ele>472.67065</ele>
        <time>2023-07-04T15:16:29.000Z</time>
      </trkpt>
      <trkpt lat="45.87795" lon="4.60955">
        <ele>472.99884</ele>
        <time>2023-07-04T15:16:30.000Z</time>
      </trkpt>
      <trkpt lat="45.87793" lon="4.60952">
        <ele>473.31616</ele>
        <time>2023-07-04T15:16:31.000Z</time>
      </trkpt>
      <trkpt lat="45.8779" lon="4.60949">
        <ele>474.99652</ele>
        <time>2023-07-04T15:16:32.000Z</time>
      </trkpt>
      <trkpt lat="45.87788" lon="4.60946">
        <ele>475.27158</ele>
        <time>2023-07-04T15:16:33.000Z</time>
      </trkpt>
      <trkpt lat="45.87786" lon="4.60943">
        <ele>475.33267</ele>
        <time>2023-07-04T15:16:34.000Z</time>
      </trkpt>
      <trkpt lat="45.87783" lon="4.60941">
        <ele>476.62775</ele>
        <time>2023-07-04T15:16:35.000Z</time>
      </trkpt>
      <trkpt lat="45.87781" lon="4.60938">
        <ele>476.065</ele>
        <time>2023-07-04T15:16:36.000Z</time>
      </trkpt>
      <trkpt lat="45.87778" lon="4.60936">
        <ele>475.46405</ele>
        <time>2023-07-04T15:16:37.000Z</time>
      </trkpt>
      <trkpt lat="45.87776" lon="4.60934">
        <ele>475.63754</ele>
        <time>2023-07-04T15:16:38.000Z</time>
      </trkpt>
      <trkpt lat="45.87773" lon="4.60932">
        <ele>477.5672</ele>
        <time>2023-07-04T15:16:39.000Z</time>
      </trkpt>
      <trkpt lat="45.8777" lon="4.6093">
        <ele>479.56177</ele>
        <time>2023-07-04T15:16:40.000Z</time>
      </trkpt>
      <trkpt lat="45.87767" lon="4.60928">
        <ele>480.9166</ele>
        <time>2023-07-04T15:16:41.000Z</time>
      </trkpt>
      <trkpt lat="45.87764" lon="4.60926">
        <ele>482.2789</ele>
        <time>2023-07-04T15:16:42.000Z</time>
      </trkpt>
      <trkpt lat="45.87762" lon="4.60923">
        <ele>483.64642</ele>
        <time>2023-07-04T15:16:43.000Z</time>
      </trkpt>
      <trkpt lat="45.8776" lon="4.6092">
        <ele>484.90741</ele>
        <time>2023-07-04T15:16:44.000Z</time>
      </trkpt>
      <trkpt lat="45.87758" lon="4.60918">
        <ele>486.50015</ele>
        <time>2023-07-04T15:16:45.000Z</time>
      </trkpt>
      <trkpt lat="45.87756" lon="4.60916">
        <ele>488.05093</ele>
        <time>2023-07-04T15:16:46.000Z</time>
      </trkpt>
      <trkpt lat="45.87754" lon="4.60915">
        <ele>489.58926</ele>
        <time>2023-07-04T15:16:47.000Z</time>
      </trkpt>
      <trkpt lat="45.87752" lon="4.60913">
        <ele>491.11191</ele>
        <time>2023-07-04T15:16:48.000Z</time>
      </trkpt>
      <trkpt lat="45.8775" lon="4.60912">
        <ele>492.62997</ele>
        <time>2023-07-04T15:16:49.000Z</time>
      </trkpt>
      <trkpt lat="45.87747" lon="4.60912">
        <ele>494.13785</ele>
        <time>2023-07-04T15:16:50.000Z</time>
      </trkpt>
      <trkpt lat="45.87745" lon="4.60913">
        <ele>495.64917</ele>
        <time>2023-07-04T15:16:51.000Z</time>
      </trkpt>
      <trkpt lat="45.87742" lon="4.60915">
        <ele>495.84326</ele>
        <time>2023-07-04T15:16:52.000Z</time>
      </trkpt>
      <trkpt lat="45.8774" lon="4.60916">
        <ele>496.88565</ele>
        <time>2023-07-04T15:16:53.000Z</time>
      </trkpt>
      <trkpt lat="45.87737" lon="4.60912">
        <ele>497.96637</ele>
        <time>2023-07-04T15:16:55.000Z</time>
      </trkpt>
      <trkpt lat="45.87735" lon="4.60908">
        <ele>497.9725</ele>
        <time>2023-07-04T15:16:56.000Z</time>
      </trkpt>
      <trkpt lat="45.87734" lon="4.60905">
        <ele>499.86856</ele>
        <time>2023-07-04T15:16:57.000Z</time>
      </trkpt>
      <trkpt lat="45.87732" lon="4.60901">
        <ele>500.05655</ele>
        <time>2023-07-04T15:16:58.000Z</time>
      </trkpt>
      <trkpt lat="45.87729" lon="4.60899">
        <ele>501.28619</ele>
        <time>2023-07-04T15:16:59.000Z</time>
      </trkpt>
      <trkpt lat="45.87726" lon="4.60898">
        <ele>501.26288</ele>
        <time>2023-07-04T15:17:00.000Z</time>
      </trkpt>
      <trkpt lat="45.87723" lon="4.60897">
        <ele>501.10513</ele>
        <time>2023-07-04T15:17:01.000Z</time>
      </trkpt>
      <trkpt lat="45.8772" lon="4.60897">
        <ele>501.20126</ele>
        <time>2023-07-04T15:17:02.000Z</time>
      </trkpt>
      <trkpt lat="45.87717" lon="4.60897">
        <ele>501.2933</ele>
        <time>2023-07-04T15:17:03.000Z</time>
      </trkpt>
      <trkpt lat="45.87714" lon="4.60897">
        <ele>501.31244</ele>
        <time>2023-07-04T15:17:04.000Z</time>
      </trkpt>
      <trkpt lat="45.87712" lon="4.60897">
        <ele>501.31738</ele>
        <time>2023-07-04T15:17:05.000Z</time>
      </trkpt>
      <trkpt lat="45.87709" lon="4.60897">
        <ele>501.09848</ele>
        <time>2023-07-04T15:17:06.000Z</time>
      </trkpt>
      <trkpt lat="45.87706" lon="4.60896">
        <ele>500.86557</ele>
        <time>2023-07-04T15:17:07.000Z</time>
      </trkpt>
      <trkpt lat="45.87703" lon="4.60896">
        <ele>500.62793</ele>
        <time>2023-07-04T15:17:08.000Z</time>
      </trkpt>
      <trkpt lat="45.877" lon="4.60896">
        <ele>500.37808</ele>
        <time>2023-07-04T15:17:09.000Z</time>
      </trkpt>
      <trkpt lat="45.87696" lon="4.60895">
        <ele>500.11465</ele>
        <time>2023-07-04T15:17:10.000Z</time>
      </trkpt>
      <trkpt lat="45.87692" lon="4.60896">
        <ele>499.84375</ele>
        <time>2023-07-04T15:17:11.000Z</time>
      </trkpt>
      <trkpt lat="45.87688" lon="4.60896">
        <ele>497.69879</ele>
        <time>2023-07-04T15:17:12.000Z</time>
      </trkpt>
      <trkpt lat="45.87684" lon="4.60898">
        <ele>497.2478</ele>
        <time>2023-07-04T15:17:13.000Z</time>
      </trkpt>
      <trkpt lat="45.8768" lon="4.60899">
        <ele>497.31805</ele>
        <time>2023-07-04T15:17:14.000Z</time>
      </trkpt>
      <trkpt lat="45.87675" lon="4.609">
        <ele>497.33969</ele>
        <time>2023-07-04T15:17:15.000Z</time>
      </trkpt>
      <trkpt lat="45.87671" lon="4.60901">
        <ele>497.30835</ele>
        <time>2023-07-04T15:17:16.000Z</time>
      </trkpt>
      <trkpt lat="45.87666" lon="4.60901">
        <ele>497.27515</ele>
        <time>2023-07-04T15:17:17.000Z</time>
      </trkpt>
      <trkpt lat="45.87661" lon="4.60901">
        <ele>497.10962</ele>
        <time>2023-07-04T15:17:18.000Z</time>
      </trkpt>
      <trkpt lat="45.87656" lon="4.60901">
        <ele>496.96225</ele>
        <time>2023-07-04T15:17:19.000Z</time>
      </trkpt>
      <trkpt lat="45.8765" lon="4.609">
        <ele>496.74603</ele>
        <time>2023-07-04T15:17:20.000Z</time>
      </trkpt>
      <trkpt lat="45.87645" lon="4.609">
        <ele>496.5202</ele>
        <time>2023-07-04T15:17:21.000Z</time>
      </trkpt>
      <trkpt lat="45.8764" lon="4.60901">
        <ele>496.00122</ele>
        <time>2023-07-04T15:17:22.000Z</time>
      </trkpt>
      <trkpt lat="45.87633" lon="4.609">
        <ele>495.45126</ele>
        <time>2023-07-04T15:17:23.000Z</time>
      </trkpt>
      <trkpt lat="45.87627" lon="4.60898">
        <ele>493.14404</ele>
        <time>2023-07-04T15:17:24.000Z</time>
      </trkpt>
      <trkpt lat="45.87621" lon="4.60895">
        <ele>492.51202</ele>
        <time>2023-07-04T15:17:25.000Z</time>
      </trkpt>
      <trkpt lat="45.87615" lon="4.60893">
        <ele>492.07852</ele>
        <time>2023-07-04T15:17:26.000Z</time>
      </trkpt>
      <trkpt lat="45.87607" lon="4.6089">
        <ele>491.6275</ele>
        <time>2023-07-04T15:17:27.000Z</time>
      </trkpt>
      <trkpt lat="45.87599" lon="4.60888">
        <ele>491.16562</ele>
        <time>2023-07-04T15:17:28.000Z</time>
      </trkpt>
      <trkpt lat="45.87592" lon="4.60887">
        <ele>490.69254</ele>
        <time>2023-07-04T15:17:29.000Z</time>
      </trkpt>
      <trkpt lat="45.87585" lon="4.60885">
        <ele>488.4577</ele>
        <time>2023-07-04T15:17:30.000Z</time>
      </trkpt>
      <trkpt lat="45.87578" lon="4.60883">
        <ele>487.87491</ele>
        <time>2023-07-04T15:17:31.000Z</time>
      </trkpt>
      <trkpt lat="45.87571" lon="4.60883">
        <ele>489.13251</ele>
        <time>2023-07-04T15:17:32.000Z</time>
      </trkpt>
      <trkpt lat="45.87564" lon="4.60881">
        <ele>488.70419</ele>
        <time>2023-07-04T15:17:33.000Z</time>
      </trkpt>
      <trkpt lat="45.87558" lon="4.6088">
        <ele>488.27701</ele>
        <time>2023-07-04T15:17:34.000Z</time>
      </trkpt>
      <trkpt lat="45.8755" lon="4.60878">
        <ele>487.82495</ele>
        <time>2023-07-04T15:17:35.000Z</time>
      </trkpt>
      <trkpt lat="45.87543" lon="4.60876">
        <ele>485.61191</ele>
        <time>2023-07-04T15:17:36.000Z</time>
      </trkpt>
      <trkpt lat="45.87537" lon="4.60872">
        <ele>485.0271</ele>
        <time>2023-07-04T15:17:37.000Z</time>
      </trkpt>
      <trkpt lat="45.8753" lon="4.60868">
        <ele>486.26303</ele>
        <time>2023-07-04T15:17:38.000Z</time>
      </trkpt>
      <trkpt lat="45.87523" lon="4.60863">
        <ele>485.7207</ele>
        <time>2023-07-04T15:17:39.000Z</time>
      </trkpt>
      <trkpt lat="45.87517" lon="4.60859">
        <ele>485.15863</ele>
        <time>2023-07-04T15:17:40.000Z</time>
      </trkpt>
      <trkpt lat="45.87511" lon="4.60855">
        <ele>484.57925</ele>
        <time>2023-07-04T15:17:41.000Z</time>
      </trkpt>
      <trkpt lat="45.87505" lon="4.6085">
        <ele>482.24283</ele>
        <time>2023-07-04T15:17:42.000Z</time>
      </trkpt>
      <trkpt lat="45.87498" lon="4.60846">
        <ele>481.55493</ele>
        <time>2023-07-04T15:17:43.000Z</time>
      </trkpt>
      <trkpt lat="45.87491" lon="4.6084">
        <ele>482.65558</ele>
        <time>2023-07-04T15:17:44.000Z</time>
      </trkpt>
      <trkpt lat="45.87483" lon="4.60836">
        <ele>482.1311</ele>
        <time>2023-07-04T15:17:45.000Z</time>
      </trkpt>
      <trkpt lat="45.87476" lon="4.60831">
        <ele>481.61206</ele>
        <time>2023-07-04T15:17:46.000Z</time>
      </trkpt>
      <trkpt lat="45.87468" lon="4.60827">
        <ele>481.08878</ele>
        <time>2023-07-04T15:17:47.000Z</time>
      </trkpt>
      <trkpt lat="45.87459" lon="4.60822">
        <ele>478.90414</ele>
        <time>2023-07-04T15:17:48.000Z</time>
      </trkpt>
      <trkpt lat="45.8745" lon="4.60818">
        <ele>478.29108</ele>
        <time>2023-07-04T15:17:49.000Z</time>
      </trkpt>
      <trkpt lat="45.87441" lon="4.60816">
        <ele>479.42154</ele>
        <time>2023-07-04T15:17:50.000Z</time>
      </trkpt>
      <trkpt lat="45.87434" lon="4.60814">
        <ele>478.96973</ele>
        <time>2023-07-04T15:17:51.000Z</time>
      </trkpt>
      <trkpt lat="45.87429" lon="4.60812">
        <ele>478.52448</ele>
        <time>2023-07-04T15:17:52.000Z</time>
      </trkpt>
      <trkpt lat="45.87424" lon="4.6081">
        <ele>477.99405</ele>
        <time>2023-07-04T15:17:53.000Z</time>
      </trkpt>
      <trkpt lat="45.8742" lon="4.60809">
        <ele>475.81363</ele>
        <time>2023-07-04T15:17:54.000Z</time>
      </trkpt>
      <trkpt lat="45.87415" lon="4.60808">
        <ele>475.19043</ele>
        <time>2023-07-04T15:17:55.000Z</time>
      </trkpt>
      <trkpt lat="45.8741" lon="4.60808">
        <ele>474.80475</ele>
        <time>2023-07-04T15:17:56.000Z</time>
      </trkpt>
      <trkpt lat="45.87405" lon="4.60809">
        <ele>472.77423</ele>
        <time>2023-07-04T15:17:57.000Z</time>
      </trkpt>
      <trkpt lat="45.87399" lon="4.60808">
        <ele>470.77252</ele>
        <time>2023-07-04T15:17:58.000Z</time>
      </trkpt>
      <trkpt lat="45.87393" lon="4.60808">
        <ele>468.69424</ele>
        <time>2023-07-04T15:17:59.000Z</time>
      </trkpt>
      <trkpt lat="45.87387" lon="4.60807">
        <ele>466.621</ele>
        <time>2023-07-04T15:18:00.000Z</time>
      </trkpt>
      <trkpt lat="45.8738" lon="4.60805">
        <ele>464.59091</ele>
        <time>2023-07-04T15:18:01.000Z</time>
      </trkpt>
      <trkpt lat="45.87373" lon="4.60804">
        <ele>464.3251</ele>
        <time>2023-07-04T15:18:02.000Z</time>
      </trkpt>
      <trkpt lat="45.87366" lon="4.60802">
        <ele>462.43686</ele>
        <time>2023-07-04T15:18:03.000Z</time>
      </trkpt>
      <trkpt lat="45.87359" lon="4.608">
        <ele>460.52716</ele>
        <time>2023-07-04T15:18:04.000Z</time>
      </trkpt>
      <trkpt lat="45.87352" lon="4.60799">
        <ele>458.53949</ele>
        <time>2023-07-04T15:18:05.000Z</time>
      </trkpt>
      <trkpt lat="45.87346" lon="4.60797">
        <ele>456.60358</ele>
        <time>2023-07-04T15:18:06.000Z</time>
      </trkpt>
      <trkpt lat="45.87339" lon="4.60794">
        <ele>454.72772</ele>
        <time>2023-07-04T15:18:07.000Z</time>
      </trkpt>
      <trkpt lat="45.87333" lon="4.60792">
        <ele>454.54117</ele>
        <time>2023-07-04T15:18:08.000Z</time>
      </trkpt>
      <trkpt lat="45.87326" lon="4.60789">
        <ele>452.80353</ele>
        <time>2023-07-04T15:18:09.000Z</time>
      </trkpt>
      <trkpt lat="45.8732" lon="4.60786">
        <ele>451.04404</ele>
        <time>2023-07-04T15:18:10.000Z</time>
      </trkpt>
      <trkpt lat="45.87313" lon="4.60784">
        <ele>449.25269</ele>
        <time>2023-07-04T15:18:11.000Z</time>
      </trkpt>
      <trkpt lat="45.87307" lon="4.60779">
        <ele>447.46808</ele>
        <time>2023-07-04T15:18:12.000Z</time>
      </trkpt>
      <trkpt lat="45.87301" lon="4.60775">
        <ele>445.69223</ele>
        <time>2023-07-04T15:18:13.000Z</time>
      </trkpt>
      <trkpt lat="45.87295" lon="4.60771">
        <ele>445.56503</ele>
        <time>2023-07-04T15:18:14.000Z</time>
      </trkpt>
      <trkpt lat="45.8729" lon="4.60766">
        <ele>443.92227</ele>
        <time>2023-07-04T15:18:15.000Z</time>
      </trkpt>
      <trkpt lat="45.87284" lon="4.60761">
        <ele>443.81308</ele>
        <time>2023-07-04T15:18:16.000Z</time>
      </trkpt>
      <trkpt lat="45.87279" lon="4.60756">
        <ele>443.7186</ele>
        <time>2023-07-04T15:18:17.000Z</time>
      </trkpt>
      <trkpt lat="45.87274" lon="4.6075">
        <ele>443.63828</ele>
        <time>2023-07-04T15:18:18.000Z</time>
      </trkpt>
      <trkpt lat="45.8727" lon="4.60745">
        <ele>443.55997</ele>
        <time>2023-07-04T15:18:19.000Z</time>
      </trkpt>
      <trkpt lat="45.87265" lon="4.60739">
        <ele>443.50299</ele>
        <time>2023-07-04T15:18:20.000Z</time>
      </trkpt>
      <trkpt lat="45.8726" lon="4.60733">
        <ele>443.41266</ele>
        <time>2023-07-04T15:18:21.000Z</time>
      </trkpt>
      <trkpt lat="45.87255" lon="4.60728">
        <ele>443.33359</ele>
        <time>2023-07-04T15:18:22.000Z</time>
      </trkpt>
      <trkpt lat="45.8725" lon="4.60723">
        <ele>443.26035</ele>
        <time>2023-07-04T15:18:23.000Z</time>
      </trkpt>
      <trkpt lat="45.87244" lon="4.60719">
        <ele>443.25287</ele>
        <time>2023-07-04T15:18:24.000Z</time>
      </trkpt>
      <trkpt lat="45.87239" lon="4.60716">
        <ele>443.26392</ele>
        <time>2023-07-04T15:18:25.000Z</time>
      </trkpt>
      <trkpt lat="45.87234" lon="4.60713">
        <ele>443.23578</ele>
        <time>2023-07-04T15:18:26.000Z</time>
      </trkpt>
      <trkpt lat="45.87228" lon="4.6071">
        <ele>443.1817</ele>
        <time>2023-07-04T15:18:27.000Z</time>
      </trkpt>
      <trkpt lat="45.87223" lon="4.60708">
        <ele>443.15088</ele>
        <time>2023-07-04T15:18:28.000Z</time>
      </trkpt>
      <trkpt lat="45.87217" lon="4.60705">
        <ele>443.13013</ele>
        <time>2023-07-04T15:18:29.000Z</time>
      </trkpt>
      <trkpt lat="45.87212" lon="4.60702">
        <ele>443.16339</ele>
        <time>2023-07-04T15:18:30.000Z</time>
      </trkpt>
      <trkpt lat="45.87206" lon="4.607">
        <ele>443.16934</ele>
        <time>2023-07-04T15:18:31.000Z</time>
      </trkpt>
      <trkpt lat="45.872" lon="4.60697">
        <ele>443.19977</ele>
        <time>2023-07-04T15:18:32.000Z</time>
      </trkpt>
      <trkpt lat="45.87195" lon="4.60695">
        <ele>443.25409</ele>
        <time>2023-07-04T15:18:33.000Z</time>
      </trkpt>
      <trkpt lat="45.8719" lon="4.60693">
        <ele>443.38617</ele>
        <time>2023-07-04T15:18:34.000Z</time>
      </trkpt>
      <trkpt lat="45.87184" lon="4.6069">
        <ele>443.48871</ele>
        <time>2023-07-04T15:18:35.000Z</time>
      </trkpt>
      <trkpt lat="45.87179" lon="4.60687">
        <ele>443.58334</ele>
        <time>2023-07-04T15:18:36.000Z</time>
      </trkpt>
      <trkpt lat="45.87173" lon="4.60684">
        <ele>443.67584</ele>
        <time>2023-07-04T15:18:37.000Z</time>
      </trkpt>
      <trkpt lat="45.87168" lon="4.60681">
        <ele>443.7666</ele>
        <time>2023-07-04T15:18:38.000Z</time>
      </trkpt>
      <trkpt lat="45.87163" lon="4.60676">
        <ele>443.84985</ele>
        <time>2023-07-04T15:18:39.000Z</time>
      </trkpt>
      <trkpt lat="45.87157" lon="4.60673">
        <ele>443.90073</ele>
        <time>2023-07-04T15:18:40.000Z</time>
      </trkpt>
      <trkpt lat="45.87152" lon="4.60669">
        <ele>443.9754</ele>
        <time>2023-07-04T15:18:41.000Z</time>
      </trkpt>
      <trkpt lat="45.87146" lon="4.60665">
        <ele>444.03711</ele>
        <time>2023-07-04T15:18:42.000Z</time>
      </trkpt>
      <trkpt lat="45.8714" lon="4.60661">
        <ele>444.11026</ele>
        <time>2023-07-04T15:18:43.000Z</time>
      </trkpt>
      <trkpt lat="45.87134" lon="4.60657">
        <ele>444.18301</ele>
        <time>2023-07-04T15:18:44.000Z</time>
      </trkpt>
      <trkpt lat="45.87128" lon="4.60653">
        <ele>444.24039</ele>
        <time>2023-07-04T15:18:45.000Z</time>
      </trkpt>
      <trkpt lat="45.87122" lon="4.60649">
        <ele>444.30756</ele>
        <time>2023-07-04T15:18:46.000Z</time>
      </trkpt>
      <trkpt lat="45.87115" lon="4.60644">
        <ele>444.38086</ele>
        <time>2023-07-04T15:18:47.000Z</time>
      </trkpt>
      <trkpt lat="45.87109" lon="4.6064">
        <ele>444.41113</ele>
        <time>2023-07-04T15:18:48.000Z</time>
      </trkpt>
      <trkpt lat="45.87103" lon="4.60636">
        <ele>444.41025</ele>
        <time>2023-07-04T15:18:49.000Z</time>
      </trkpt>
      <trkpt lat="45.87097" lon="4.60631">
        <ele>444.37534</ele>
        <time>2023-07-04T15:18:50.000Z</time>
      </trkpt>
      <trkpt lat="45.8709" lon="4.60627">
        <ele>444.30585</ele>
        <time>2023-07-04T15:18:51.000Z</time>
      </trkpt>
      <trkpt lat="45.87083" lon="4.60623">
        <ele>444.1976</ele>
        <time>2023-07-04T15:18:52.000Z</time>
      </trkpt>
      <trkpt lat="45.87075" lon="4.60619">
        <ele>444.02069</ele>
        <time>2023-07-04T15:18:53.000Z</time>
      </trkpt>
      <trkpt lat="45.87066" lon="4.60616">
        <ele>443.7457</ele>
        <time>2023-07-04T15:18:54.000Z</time>
      </trkpt>
      <trkpt lat="45.87058" lon="4.60613">
        <ele>443.4332</ele>
        <time>2023-07-04T15:18:55.000Z</time>
      </trkpt>
      <trkpt lat="45.8705" lon="4.60609">
        <ele>443.09015</ele>
        <time>2023-07-04T15:18:56.000Z</time>
      </trkpt>
      <trkpt lat="45.87041" lon="4.60605">
        <ele>442.73102</ele>
        <time>2023-07-04T15:18:57.000Z</time>
      </trkpt>
      <trkpt lat="45.87032" lon="4.606">
        <ele>442.31845</ele>
        <time>2023-07-04T15:18:58.000Z</time>
      </trkpt>
      <trkpt lat="45.87022" lon="4.60594">
        <ele>441.88519</ele>
        <time>2023-07-04T15:18:59.000Z</time>
      </trkpt>
      <trkpt lat="45.87012" lon="4.6059">
        <ele>441.42538</ele>
        <time>2023-07-04T15:19:00.000Z</time>
      </trkpt>
      <trkpt lat="45.87002" lon="4.60586">
        <ele>440.94403</ele>
        <time>2023-07-04T15:19:01.000Z</time>
      </trkpt>
      <trkpt lat="45.86992" lon="4.60582">
        <ele>440.42023</ele>
        <time>2023-07-04T15:19:02.000Z</time>
      </trkpt>
      <trkpt lat="45.86982" lon="4.60577">
        <ele>439.88202</ele>
        <time>2023-07-04T15:19:03.000Z</time>
      </trkpt>
      <trkpt lat="45.86972" lon="4.60572">
        <ele>439.28125</ele>
        <time>2023-07-04T15:19:04.000Z</time>
      </trkpt>
      <trkpt lat="45.86962" lon="4.60568">
        <ele>438.65399</ele>
        <time>2023-07-04T15:19:05.000Z</time>
      </trkpt>
      <trkpt lat="45.86951" lon="4.60564">
        <ele>438.03769</ele>
        <time>2023-07-04T15:19:06.000Z</time>
      </trkpt>
      <trkpt lat="45.86941" lon="4.60559">
        <ele>437.41132</ele>
        <time>2023-07-04T15:19:07.000Z</time>
      </trkpt>
      <trkpt lat="45.86931" lon="4.60553">
        <ele>436.79678</ele>
        <time>2023-07-04T15:19:08.000Z</time>
      </trkpt>
      <trkpt lat="45.8692" lon="4.60546">
        <ele>436.17169</ele>
        <time>2023-07-04T15:19:09.000Z</time>
      </trkpt>
      <trkpt lat="45.86911" lon="4.60537">
        <ele>435.55298</ele>
        <time>2023-07-04T15:19:10.000Z</time>
      </trkpt>
      <trkpt lat="45.86901" lon="4.60529">
        <ele>434.93561</ele>
        <time>2023-07-04T15:19:11.000Z</time>
      </trkpt>
      <trkpt lat="45.86894" lon="4.60519">
        <ele>434.3222</ele>
        <time>2023-07-04T15:19:12.000Z</time>
      </trkpt>
      <trkpt lat="45.86888" lon="4.60512">
        <ele>433.75073</ele>
        <time>2023-07-04T15:19:13.000Z</time>
      </trkpt>
      <trkpt lat="45.86882" lon="4.60506">
        <ele>433.19263</ele>
        <time>2023-07-04T15:19:14.000Z</time>
      </trkpt>
      <trkpt lat="45.86878" lon="4.605">
        <ele>432.66974</ele>
        <time>2023-07-04T15:19:15.000Z</time>
      </trkpt>
      <trkpt lat="45.86874" lon="4.60494">
        <ele>432.16708</ele>
        <time>2023-07-04T15:19:16.000Z</time>
      </trkpt>
      <trkpt lat="45.8687" lon="4.60488">
        <ele>431.66229</ele>
        <time>2023-07-04T15:19:17.000Z</time>
      </trkpt>
      <trkpt lat="45.86867" lon="4.60483">
        <ele>431.19702</ele>
        <time>2023-07-04T15:19:18.000Z</time>
      </trkpt>
      <trkpt lat="45.86863" lon="4.60478">
        <ele>430.76596</ele>
        <time>2023-07-04T15:19:19.000Z</time>
      </trkpt>
      <trkpt lat="45.86859" lon="4.60475">
        <ele>430.37564</ele>
        <time>2023-07-04T15:19:20.000Z</time>
      </trkpt>
      <trkpt lat="45.86855" lon="4.60474">
        <ele>429.98639</ele>
        <time>2023-07-04T15:19:21.000Z</time>
      </trkpt>
      <trkpt lat="45.8685" lon="4.60475">
        <ele>429.61908</ele>
        <time>2023-07-04T15:19:22.000Z</time>
      </trkpt>
      <trkpt lat="45.86845" lon="4.60475">
        <ele>429.23209</ele>
        <time>2023-07-04T15:19:23.000Z</time>
      </trkpt>
      <trkpt lat="45.8684" lon="4.60477">
        <ele>428.88306</ele>
        <time>2023-07-04T15:19:24.000Z</time>
      </trkpt>
      <trkpt lat="45.86835" lon="4.60478">
        <ele>428.57486</ele>
        <time>2023-07-04T15:19:25.000Z</time>
      </trkpt>
      <trkpt lat="45.8683" lon="4.6048">
        <ele>428.41022</ele>
        <time>2023-07-04T15:19:26.000Z</time>
      </trkpt>
      <trkpt lat="45.86824" lon="4.60482">
        <ele>428.23309</ele>
        <time>2023-07-04T15:19:27.000Z</time>
      </trkpt>
      <trkpt lat="45.86818" lon="4.60484">
        <ele>428.04965</ele>
        <time>2023-07-04T15:19:28.000Z</time>
      </trkpt>
      <trkpt lat="45.86812" lon="4.60486">
        <ele>427.89127</ele>
        <time>2023-07-04T15:19:29.000Z</time>
      </trkpt>
      <trkpt lat="45.86806" lon="4.60487">
        <ele>427.75113</ele>
        <time>2023-07-04T15:19:30.000Z</time>
      </trkpt>
      <trkpt lat="45.868" lon="4.6049">
        <ele>425.6232</ele>
        <time>2023-07-04T15:19:31.000Z</time>
      </trkpt>
      <trkpt lat="45.86793" lon="4.60492">
        <ele>425.4317</ele>
        <time>2023-07-04T15:19:32.000Z</time>
      </trkpt>
      <trkpt lat="45.86786" lon="4.60493">
        <ele>425.24692</ele>
        <time>2023-07-04T15:19:33.000Z</time>
      </trkpt>
      <trkpt lat="45.86779" lon="4.60496">
        <ele>425.08267</ele>
        <time>2023-07-04T15:19:34.000Z</time>
      </trkpt>
      <trkpt lat="45.86772" lon="4.60498">
        <ele>424.92172</ele>
        <time>2023-07-04T15:19:35.000Z</time>
      </trkpt>
      <trkpt lat="45.86765" lon="4.605">
        <ele>424.75983</ele>
        <time>2023-07-04T15:19:36.000Z</time>
      </trkpt>
      <trkpt lat="45.86758" lon="4.60502">
        <ele>422.66705</ele>
        <time>2023-07-04T15:19:37.000Z</time>
      </trkpt>
      <trkpt lat="45.86751" lon="4.60505">
        <ele>422.41812</ele>
        <time>2023-07-04T15:19:38.000Z</time>
      </trkpt>
      <trkpt lat="45.86744" lon="4.60508">
        <ele>422.16351</ele>
        <time>2023-07-04T15:19:39.000Z</time>
      </trkpt>
      <trkpt lat="45.86736" lon="4.6051">
        <ele>421.91513</ele>
        <time>2023-07-04T15:19:40.000Z</time>
      </trkpt>
      <trkpt lat="45.86729" lon="4.60513">
        <ele>421.66937</ele>
        <time>2023-07-04T15:19:41.000Z</time>
      </trkpt>
      <trkpt lat="45.86722" lon="4.60515">
        <ele>421.43756</ele>
        <time>2023-07-04T15:19:42.000Z</time>
      </trkpt>
      <trkpt lat="45.86714" lon="4.60518">
        <ele>419.34064</ele>
        <time>2023-07-04T15:19:43.000Z</time>
      </trkpt>
      <trkpt lat="45.86707" lon="4.60521">
        <ele>418.1441</ele>
        <time>2023-07-04T15:19:44.000Z</time>
      </trkpt>
      <trkpt lat="45.86699" lon="4.60524">
        <ele>416.93262</ele>
        <time>2023-07-04T15:19:45.000Z</time>
      </trkpt>
      <trkpt lat="45.86692" lon="4.60527">
        <ele>415.55865</ele>
        <time>2023-07-04T15:19:46.000Z</time>
      </trkpt>
      <trkpt lat="45.86684" lon="4.6053">
        <ele>414.18262</ele>
        <time>2023-07-04T15:19:47.000Z</time>
      </trkpt>
      <trkpt lat="45.86676" lon="4.60533">
        <ele>412.7962</ele>
        <time>2023-07-04T15:19:48.000Z</time>
      </trkpt>
      <trkpt lat="45.86668" lon="4.60536">
        <ele>411.2897</ele>
        <time>2023-07-04T15:19:49.000Z</time>
      </trkpt>
      <trkpt lat="45.86661" lon="4.60541">
        <ele>409.7955</ele>
        <time>2023-07-04T15:19:50.000Z</time>
      </trkpt>
      <trkpt lat="45.86654" lon="4.60545">
        <ele>410.31436</ele>
        <time>2023-07-04T15:19:51.000Z</time>
      </trkpt>
      <trkpt lat="45.86646" lon="4.60548">
        <ele>408.91959</ele>
        <time>2023-07-04T15:19:52.000Z</time>
      </trkpt>
      <trkpt lat="45.86638" lon="4.60552">
        <ele>407.52734</ele>
        <time>2023-07-04T15:19:53.000Z</time>
      </trkpt>
      <trkpt lat="45.8663" lon="4.60555">
        <ele>406.89847</ele>
        <time>2023-07-04T15:19:54.000Z</time>
      </trkpt>
      <trkpt lat="45.86621" lon="4.60558">
        <ele>406.25363</ele>
        <time>2023-07-04T15:19:55.000Z</time>
      </trkpt>
      <trkpt lat="45.86613" lon="4.6056">
        <ele>405.5946</ele>
        <time>2023-07-04T15:19:56.000Z</time>
      </trkpt>
      <trkpt lat="45.86604" lon="4.60562">
        <ele>406.88568</ele>
        <time>2023-07-04T15:19:57.000Z</time>
      </trkpt>
      <trkpt lat="45.86595" lon="4.60563">
        <ele>406.33917</ele>
        <time>2023-07-04T15:19:58.000Z</time>
      </trkpt>
      <trkpt lat="45.86587" lon="4.60563">
        <ele>405.78894</ele>
        <time>2023-07-04T15:19:59.000Z</time>
      </trkpt>
      <trkpt lat="45.86578" lon="4.60563">
        <ele>405.24588</ele>
        <time>2023-07-04T15:20:00.000Z</time>
      </trkpt>
      <trkpt lat="45.8657" lon="4.60563">
        <ele>404.69724</ele>
        <time>2023-07-04T15:20:01.000Z</time>
      </trkpt>
      <trkpt lat="45.86561" lon="4.60561">
        <ele>404.1524</ele>
        <time>2023-07-04T15:20:02.000Z</time>
      </trkpt>
      <trkpt lat="45.86554" lon="4.6056">
        <ele>405.50449</ele>
        <time>2023-07-04T15:20:03.000Z</time>
      </trkpt>
      <trkpt lat="45.86546" lon="4.6056">
        <ele>406.33551</ele>
        <time>2023-07-04T15:20:04.000Z</time>
      </trkpt>
      <trkpt lat="45.8654" lon="4.6056">
        <ele>407.12506</ele>
        <time>2023-07-04T15:20:05.000Z</time>
      </trkpt>
      <trkpt lat="45.86533" lon="4.60561">
        <ele>408.02432</ele>
        <time>2023-07-04T15:20:06.000Z</time>
      </trkpt>
      <trkpt lat="45.86527" lon="4.6056">
        <ele>408.98453</ele>
        <time>2023-07-04T15:20:07.000Z</time>
      </trkpt>
      <trkpt lat="45.8652" lon="4.6056">
        <ele>409.78702</ele>
        <time>2023-07-04T15:20:08.000Z</time>
      </trkpt>
      <trkpt lat="45.86515" lon="4.60561">
        <ele>410.74902</ele>
        <time>2023-07-04T15:20:09.000Z</time>
      </trkpt>
      <trkpt lat="45.86509" lon="4.60561">
        <ele>411.70807</ele>
        <time>2023-07-04T15:20:10.000Z</time>
      </trkpt>
      <trkpt lat="45.86502" lon="4.6056">
        <ele>412.65732</ele>
        <time>2023-07-04T15:20:11.000Z</time>
      </trkpt>
      <trkpt lat="45.86497" lon="4.60561">
        <ele>413.60052</ele>
        <time>2023-07-04T15:20:12.000Z</time>
      </trkpt>
      <trkpt lat="45.86492" lon="4.6056">
        <ele>414.53467</ele>
        <time>2023-07-04T15:20:13.000Z</time>
      </trkpt>
      <trkpt lat="45.86487" lon="4.6056">
        <ele>414.69351</ele>
        <time>2023-07-04T15:20:14.000Z</time>
      </trkpt>
      <trkpt lat="45.86485" lon="4.60559">
        <ele>414.69122</ele>
        <time>2023-07-04T15:20:15.000Z</time>
      </trkpt>
      <trkpt lat="45.86483" lon="4.60557">
        <ele>414.60458</ele>
        <time>2023-07-04T15:20:16.000Z</time>
      </trkpt>
      <trkpt lat="45.86485" lon="4.60556">
        <ele>414.5108</ele>
        <time>2023-07-04T15:20:17.000Z</time>
      </trkpt>
      <trkpt lat="45.86486" lon="4.60551">
        <ele>414.38849</ele>
        <time>2023-07-04T15:20:18.000Z</time>
      </trkpt>
      <trkpt lat="45.86486" lon="4.60546">
        <ele>414.28882</ele>
        <time>2023-07-04T15:20:19.000Z</time>
      </trkpt>
      <trkpt lat="45.86485" lon="4.6054">
        <ele>414.21338</ele>
        <time>2023-07-04T15:20:20.000Z</time>
      </trkpt>
      <trkpt lat="45.86483" lon="4.60534">
        <ele>414.47882</ele>
        <time>2023-07-04T15:20:21.000Z</time>
      </trkpt>
      <trkpt lat="45.8648" lon="4.60527">
        <ele>414.73642</ele>
        <time>2023-07-04T15:20:22.000Z</time>
      </trkpt>
      <trkpt lat="45.86478" lon="4.60521">
        <ele>414.98724</ele>
        <time>2023-07-04T15:20:23.000Z</time>
      </trkpt>
      <trkpt lat="45.86476" lon="4.60515">
        <ele>414.86456</ele>
        <time>2023-07-04T15:20:24.000Z</time>
      </trkpt>
      <trkpt lat="45.86474" lon="4.60508">
        <ele>414.7818</ele>
        <time>2023-07-04T15:20:25.000Z</time>
      </trkpt>
      <trkpt lat="45.86473" lon="4.60501">
        <ele>414.29254</ele>
        <time>2023-07-04T15:20:26.000Z</time>
      </trkpt>
      <trkpt lat="45.86472" lon="4.60495">
        <ele>413.76294</ele>
        <time>2023-07-04T15:20:27.000Z</time>
      </trkpt>
      <trkpt lat="45.86472" lon="4.60489">
        <ele>413.62338</ele>
        <time>2023-07-04T15:20:28.000Z</time>
      </trkpt>
      <trkpt lat="45.8647" lon="4.60482">
        <ele>413.44653</ele>
        <time>2023-07-04T15:20:29.000Z</time>
      </trkpt>
      <trkpt lat="45.86469" lon="4.60475">
        <ele>413.25952</ele>
        <time>2023-07-04T15:20:30.000Z</time>
      </trkpt>
      <trkpt lat="45.86468" lon="4.60469">
        <ele>413.0835</ele>
        <time>2023-07-04T15:20:31.000Z</time>
      </trkpt>
      <trkpt lat="45.86468" lon="4.60463">
        <ele>411.40829</ele>
        <time>2023-07-04T15:20:32.000Z</time>
      </trkpt>
      <trkpt lat="45.86467" lon="4.60457">
        <ele>409.74551</ele>
        <time>2023-07-04T15:20:33.000Z</time>
      </trkpt>
      <trkpt lat="45.86466" lon="4.6045">
        <ele>409.44049</ele>
        <time>2023-07-04T15:20:34.000Z</time>
      </trkpt>
      <trkpt lat="45.86465" lon="4.60443">
        <ele>409.30548</ele>
        <time>2023-07-04T15:20:35.000Z</time>
      </trkpt>
      <trkpt lat="45.86464" lon="4.60435">
        <ele>408.42059</ele>
        <time>2023-07-04T15:20:36.000Z</time>
      </trkpt>
      <trkpt lat="45.86463" lon="4.60429">
        <ele>407.42529</ele>
        <time>2023-07-04T15:20:37.000Z</time>
      </trkpt>
      <trkpt lat="45.86462" lon="4.60421">
        <ele>406.46243</ele>
        <time>2023-07-04T15:20:38.000Z</time>
      </trkpt>
      <trkpt lat="45.86461" lon="4.60414">
        <ele>404.9809</ele>
        <time>2023-07-04T15:20:39.000Z</time>
      </trkpt>
      <trkpt lat="45.86461" lon="4.60407">
        <ele>405.06424</ele>
        <time>2023-07-04T15:20:40.000Z</time>
      </trkpt>
      <trkpt lat="45.8646" lon="4.60401">
        <ele>404.79782</ele>
        <time>2023-07-04T15:20:41.000Z</time>
      </trkpt>
      <trkpt lat="45.86459" lon="4.60394">
        <ele>404.54315</ele>
        <time>2023-07-04T15:20:42.000Z</time>
      </trkpt>
      <trkpt lat="45.86459" lon="4.60387">
        <ele>404.27972</ele>
        <time>2023-07-04T15:20:43.000Z</time>
      </trkpt>
      <trkpt lat="45.86458" lon="4.6038">
        <ele>404.0322</ele>
        <time>2023-07-04T15:20:44.000Z</time>
      </trkpt>
      <trkpt lat="45.86457" lon="4.60373">
        <ele>403.81314</ele>
        <time>2023-07-04T15:20:45.000Z</time>
      </trkpt>
      <trkpt lat="45.86457" lon="4.60367">
        <ele>403.89423</ele>
        <time>2023-07-04T15:20:46.000Z</time>
      </trkpt>
      <trkpt lat="45.86457" lon="4.6036">
        <ele>403.96436</ele>
        <time>2023-07-04T15:20:47.000Z</time>
      </trkpt>
      <trkpt lat="45.86456" lon="4.60353">
        <ele>403.81479</ele>
        <time>2023-07-04T15:20:48.000Z</time>
      </trkpt>
      <trkpt lat="45.86456" lon="4.60346">
        <ele>403.66562</ele>
        <time>2023-07-04T15:20:49.000Z</time>
      </trkpt>
      <trkpt lat="45.86454" lon="4.60339">
        <ele>403.51971</ele>
        <time>2023-07-04T15:20:50.000Z</time>
      </trkpt>
      <trkpt lat="45.86453" lon="4.60334">
        <ele>403.38022</ele>
        <time>2023-07-04T15:20:51.000Z</time>
      </trkpt>
      <trkpt lat="45.8645" lon="4.60328">
        <ele>404.73819</ele>
        <time>2023-07-04T15:20:52.000Z</time>
      </trkpt>
      <trkpt lat="45.86446" lon="4.60324">
        <ele>406.39471</ele>
        <time>2023-07-04T15:20:53.000Z</time>
      </trkpt>
      <trkpt lat="45.86441" lon="4.60321">
        <ele>406.69781</ele>
        <time>2023-07-04T15:20:54.000Z</time>
      </trkpt>
      <trkpt lat="45.86435" lon="4.60317">
        <ele>407.01169</ele>
        <time>2023-07-04T15:20:55.000Z</time>
      </trkpt>
      <trkpt lat="45.86432" lon="4.60311">
        <ele>407.86972</ele>
        <time>2023-07-04T15:20:56.000Z</time>
      </trkpt>
      <trkpt lat="45.8643" lon="4.60304">
        <ele>408.82919</ele>
        <time>2023-07-04T15:20:57.000Z</time>
      </trkpt>
      <trkpt lat="45.86428" lon="4.60296">
        <ele>409.76959</ele>
        <time>2023-07-04T15:20:58.000Z</time>
      </trkpt>
      <trkpt lat="45.86426" lon="4.60289">
        <ele>411.20361</ele>
        <time>2023-07-04T15:20:59.000Z</time>
      </trkpt>
      <trkpt lat="45.86424" lon="4.60283">
        <ele>411.0639</ele>
        <time>2023-07-04T15:21:00.000Z</time>
      </trkpt>
      <trkpt lat="45.86421" lon="4.60277">
        <ele>410.92499</ele>
        <time>2023-07-04T15:21:01.000Z</time>
      </trkpt>
      <trkpt lat="45.86417" lon="4.60271">
        <ele>410.77133</ele>
        <time>2023-07-04T15:21:02.000Z</time>
      </trkpt>
      <trkpt lat="45.86414" lon="4.60264">
        <ele>410.56573</ele>
        <time>2023-07-04T15:21:03.000Z</time>
      </trkpt>
      <trkpt lat="45.8641" lon="4.60259">
        <ele>410.35663</ele>
        <time>2023-07-04T15:21:04.000Z</time>
      </trkpt>
      <trkpt lat="45.86407" lon="4.60251">
        <ele>410.14185</ele>
        <time>2023-07-04T15:21:05.000Z</time>
      </trkpt>
      <trkpt lat="45.86404" lon="4.60245">
        <ele>409.90216</ele>
        <time>2023-07-04T15:21:06.000Z</time>
      </trkpt>
      <trkpt lat="45.86402" lon="4.60239">
        <ele>409.73184</ele>
        <time>2023-07-04T15:21:07.000Z</time>
      </trkpt>
      <trkpt lat="45.86399" lon="4.60233">
        <ele>409.55811</ele>
        <time>2023-07-04T15:21:08.000Z</time>
      </trkpt>
      <trkpt lat="45.86395" lon="4.60227">
        <ele>409.4306</ele>
        <time>2023-07-04T15:21:09.000Z</time>
      </trkpt>
      <trkpt lat="45.86387" lon="4.60221">
        <ele>409.32169</ele>
        <time>2023-07-04T15:21:10.000Z</time>
      </trkpt>
      <trkpt lat="45.86381" lon="4.60217">
        <ele>409.21136</ele>
        <time>2023-07-04T15:21:11.000Z</time>
      </trkpt>
      <trkpt lat="45.86374" lon="4.60211">
        <ele>409.69858</ele>
        <time>2023-07-04T15:21:12.000Z</time>
      </trkpt>
      <trkpt lat="45.86369" lon="4.60206">
        <ele>409.92783</ele>
        <time>2023-07-04T15:21:13.000Z</time>
      </trkpt>
      <trkpt lat="45.86365" lon="4.60199">
        <ele>410.19427</ele>
        <time>2023-07-04T15:21:14.000Z</time>
      </trkpt>
      <trkpt lat="45.86363" lon="4.60194">
        <ele>410.49481</ele>
        <time>2023-07-04T15:21:15.000Z</time>
      </trkpt>
      <trkpt lat="45.86362" lon="4.60187">
        <ele>411.10751</ele>
        <time>2023-07-04T15:21:16.000Z</time>
      </trkpt>
      <trkpt lat="45.86358" lon="4.60181">
        <ele>411.71332</ele>
        <time>2023-07-04T15:21:17.000Z</time>
      </trkpt>
      <trkpt lat="45.86355" lon="4.60174">
        <ele>412.47885</ele>
        <time>2023-07-04T15:21:18.000Z</time>
      </trkpt>
      <trkpt lat="45.86351" lon="4.6017">
        <ele>413.23486</ele>
        <time>2023-07-04T15:21:19.000Z</time>
      </trkpt>
      <trkpt lat="45.86347" lon="4.60164">
        <ele>413.98331</ele>
        <time>2023-07-04T15:21:20.000Z</time>
      </trkpt>
      <trkpt lat="45.86342" lon="4.60161">
        <ele>414.73846</ele>
        <time>2023-07-04T15:21:21.000Z</time>
      </trkpt>
      <trkpt lat="45.86336" lon="4.60157">
        <ele>415.43204</ele>
        <time>2023-07-04T15:21:22.000Z</time>
      </trkpt>
      <trkpt lat="45.86331" lon="4.60154">
        <ele>416.07675</ele>
        <time>2023-07-04T15:21:23.000Z</time>
      </trkpt>
      <trkpt lat="45.86328" lon="4.60151">
        <ele>416.629</ele>
        <time>2023-07-04T15:21:24.000Z</time>
      </trkpt>
      <trkpt lat="45.86325" lon="4.60149">
        <ele>417.21176</ele>
        <time>2023-07-04T15:21:25.000Z</time>
      </trkpt>
      <trkpt lat="45.86323" lon="4.60146">
        <ele>417.47174</ele>
        <time>2023-07-04T15:21:26.000Z</time>
      </trkpt>
      <trkpt lat="45.86322" lon="4.60143">
        <ele>417.74405</ele>
        <time>2023-07-04T15:21:27.000Z</time>
      </trkpt>
      <trkpt lat="45.86321" lon="4.60139">
        <ele>418.05109</ele>
        <time>2023-07-04T15:21:28.000Z</time>
      </trkpt>
      <trkpt lat="45.86321" lon="4.60135">
        <ele>418.29156</ele>
        <time>2023-07-04T15:21:29.000Z</time>
      </trkpt>
      <trkpt lat="45.86322" lon="4.60131">
        <ele>418.4899</ele>
        <time>2023-07-04T15:21:30.000Z</time>
      </trkpt>
      <trkpt lat="45.86322" lon="4.60126">
        <ele>418.64569</ele>
        <time>2023-07-04T15:21:31.000Z</time>
      </trkpt>
      <trkpt lat="45.86323" lon="4.6012">
        <ele>418.17993</ele>
        <time>2023-07-04T15:21:32.000Z</time>
      </trkpt>
      <trkpt lat="45.86325" lon="4.60114">
        <ele>417.66168</ele>
        <time>2023-07-04T15:21:33.000Z</time>
      </trkpt>
      <trkpt lat="45.86327" lon="4.60109">
        <ele>417.15948</ele>
        <time>2023-07-04T15:21:34.000Z</time>
      </trkpt>
      <trkpt lat="45.86328" lon="4.60104">
        <ele>416.62909</ele>
        <time>2023-07-04T15:21:35.000Z</time>
      </trkpt>
      <trkpt lat="45.8633" lon="4.60098">
        <ele>416.10297</ele>
        <time>2023-07-04T15:21:36.000Z</time>
      </trkpt>
      <trkpt lat="45.86331" lon="4.60092">
        <ele>415.63348</ele>
        <time>2023-07-04T15:21:37.000Z</time>
      </trkpt>
      <trkpt lat="45.86333" lon="4.60086">
        <ele>415.00797</ele>
        <time>2023-07-04T15:21:38.000Z</time>
      </trkpt>
      <trkpt lat="45.86335" lon="4.6008">
        <ele>414.4039</ele>
        <time>2023-07-04T15:21:39.000Z</time>
      </trkpt>
      <trkpt lat="45.86338" lon="4.60073">
        <ele>413.93158</ele>
        <time>2023-07-04T15:21:40.000Z</time>
      </trkpt>
      <trkpt lat="45.8634" lon="4.60067">
        <ele>413.47412</ele>
        <time>2023-07-04T15:21:41.000Z</time>
      </trkpt>
      <trkpt lat="45.86343" lon="4.60062">
        <ele>412.90179</ele>
        <time>2023-07-04T15:21:42.000Z</time>
      </trkpt>
      <trkpt lat="45.86345" lon="4.60056">
        <ele>412.4375</ele>
        <time>2023-07-04T15:21:43.000Z</time>
      </trkpt>
      <trkpt lat="45.86347" lon="4.6005">
        <ele>412.06909</ele>
        <time>2023-07-04T15:21:44.000Z</time>
      </trkpt>
      <trkpt lat="45.86349" lon="4.60044">
        <ele>411.53745</ele>
        <time>2023-07-04T15:21:45.000Z</time>
      </trkpt>
      <trkpt lat="45.86351" lon="4.60037">
        <ele>411.43179</ele>
        <time>2023-07-04T15:21:46.000Z</time>
      </trkpt>
      <trkpt lat="45.86353" lon="4.60032">
        <ele>411.23322</ele>
        <time>2023-07-04T15:21:47.000Z</time>
      </trkpt>
      <trkpt lat="45.86356" lon="4.60028">
        <ele>411.00424</ele>
        <time>2023-07-04T15:21:48.000Z</time>
      </trkpt>
      <trkpt lat="45.86359" lon="4.60023">
        <ele>410.87589</ele>
        <time>2023-07-04T15:21:49.000Z</time>
      </trkpt>
      <trkpt lat="45.86361" lon="4.60018">
        <ele>410.77426</ele>
        <time>2023-07-04T15:21:50.000Z</time>
      </trkpt>
      <trkpt lat="45.86362" lon="4.60012">
        <ele>410.74097</ele>
        <time>2023-07-04T15:21:51.000Z</time>
      </trkpt>
      <trkpt lat="45.86361" lon="4.60007">
        <ele>410.73944</ele>
        <time>2023-07-04T15:21:52.000Z</time>
      </trkpt>
      <trkpt lat="45.86359" lon="4.60002">
        <ele>410.76221</ele>
        <time>2023-07-04T15:21:53.000Z</time>
      </trkpt>
      <trkpt lat="45.86356" lon="4.59998">
        <ele>410.75821</ele>
        <time>2023-07-04T15:21:54.000Z</time>
      </trkpt>
      <trkpt lat="45.86355" lon="4.59993">
        <ele>410.81714</ele>
        <time>2023-07-04T15:21:55.000Z</time>
      </trkpt>
      <trkpt lat="45.86353" lon="4.59988">
        <ele>410.85913</ele>
        <time>2023-07-04T15:21:56.000Z</time>
      </trkpt>
      <trkpt lat="45.86352" lon="4.59982">
        <ele>410.91327</ele>
        <time>2023-07-04T15:21:57.000Z</time>
      </trkpt>
      <trkpt lat="45.86352" lon="4.59975">
        <ele>410.8212</ele>
        <time>2023-07-04T15:21:58.000Z</time>
      </trkpt>
      <trkpt lat="45.86352" lon="4.59967">
        <ele>410.74811</ele>
        <time>2023-07-04T15:21:59.000Z</time>
      </trkpt>
      <trkpt lat="45.86355" lon="4.59961">
        <ele>410.55096</ele>
        <time>2023-07-04T15:22:00.000Z</time>
      </trkpt>
      <trkpt lat="45.86357" lon="4.59953">
        <ele>410.33163</ele>
        <time>2023-07-04T15:22:01.000Z</time>
      </trkpt>
      <trkpt lat="45.86361" lon="4.59944">
        <ele>410.27246</ele>
        <time>2023-07-04T15:22:02.000Z</time>
      </trkpt>
      <trkpt lat="45.86365" lon="4.59936">
        <ele>410.17178</ele>
        <time>2023-07-04T15:22:03.000Z</time>
      </trkpt>
      <trkpt lat="45.86368" lon="4.59927">
        <ele>410.07129</ele>
        <time>2023-07-04T15:22:04.000Z</time>
      </trkpt>
      <trkpt lat="45.8637" lon="4.59919">
        <ele>410.09052</ele>
        <time>2023-07-04T15:22:05.000Z</time>
      </trkpt>
      <trkpt lat="45.86371" lon="4.59913">
        <ele>410.02362</ele>
        <time>2023-07-04T15:22:06.000Z</time>
      </trkpt>
      <trkpt lat="45.86371" lon="4.59907">
        <ele>409.9794</ele>
        <time>2023-07-04T15:22:07.000Z</time>
      </trkpt>
      <trkpt lat="45.8637" lon="4.599">
        <ele>409.92535</ele>
        <time>2023-07-04T15:22:08.000Z</time>
      </trkpt>
      <trkpt lat="45.86367" lon="4.59896">
        <ele>409.78091</ele>
        <time>2023-07-04T15:22:09.000Z</time>
      </trkpt>
      <trkpt lat="45.86363" lon="4.59895">
        <ele>409.61981</ele>
        <time>2023-07-04T15:22:10.000Z</time>
      </trkpt>
      <trkpt lat="45.86359" lon="4.59896">
        <ele>409.40656</ele>
        <time>2023-07-04T15:22:11.000Z</time>
      </trkpt>
      <trkpt lat="45.86356" lon="4.59896">
        <ele>409.23853</ele>
        <time>2023-07-04T15:22:12.000Z</time>
      </trkpt>
      <trkpt lat="45.86353" lon="4.59897">
        <ele>409.08514</ele>
        <time>2023-07-04T15:22:14.000Z</time>
      </trkpt>
      <trkpt lat="45.86351" lon="4.59897">
        <ele>408.92706</ele>
        <time>2023-07-04T15:22:15.000Z</time>
      </trkpt>
      <trkpt lat="45.8635" lon="4.59899">
        <ele>408.52567</ele>
        <time>2023-07-04T15:22:16.000Z</time>
      </trkpt>
      <trkpt lat="45.86351" lon="4.59902">
        <ele>408.15765</ele>
        <time>2023-07-04T15:22:17.000Z</time>
      </trkpt>
      <trkpt lat="45.86355" lon="4.59901">
        <ele>407.74643</ele>
        <time>2023-07-04T15:22:19.000Z</time>
      </trkpt>
      <trkpt lat="45.86357" lon="4.59899">
        <ele>407.49017</ele>
        <time>2023-07-04T15:22:20.000Z</time>
      </trkpt>
      <trkpt lat="45.86359" lon="4.59897">
        <ele>407.23993</ele>
        <time>2023-07-04T15:22:21.000Z</time>
      </trkpt>
      <trkpt lat="45.86361" lon="4.59894">
        <ele>406.99323</ele>
        <time>2023-07-04T15:22:22.000Z</time>
      </trkpt>
      <trkpt lat="45.86363" lon="4.59891">
        <ele>406.74438</ele>
        <time>2023-07-04T15:22:23.000Z</time>
      </trkpt>
      <trkpt lat="45.86365" lon="4.59887">
        <ele>406.5126</ele>
        <time>2023-07-04T15:22:24.000Z</time>
      </trkpt>
      <trkpt lat="45.86367" lon="4.59882">
        <ele>406.31232</ele>
        <time>2023-07-04T15:22:25.000Z</time>
      </trkpt>
      <trkpt lat="45.86366" lon="4.59875">
        <ele>406.06848</ele>
        <time>2023-07-04T15:22:26.000Z</time>
      </trkpt>
      <trkpt lat="45.86365" lon="4.59868">
        <ele>405.83313</ele>
        <time>2023-07-04T15:22:27.000Z</time>
      </trkpt>
      <trkpt lat="45.86363" lon="4.59861">
        <ele>405.59128</ele>
        <time>2023-07-04T15:22:28.000Z</time>
      </trkpt>
      <trkpt lat="45.86361" lon="4.59855">
        <ele>405.32788</ele>
        <time>2023-07-04T15:22:29.000Z</time>
      </trkpt>
      <trkpt lat="45.86359" lon="4.59847">
        <ele>405.03326</ele>
        <time>2023-07-04T15:22:30.000Z</time>
      </trkpt>
      <trkpt lat="45.86356" lon="4.59839">
        <ele>404.75104</ele>
        <time>2023-07-04T15:22:31.000Z</time>
      </trkpt>
      <trkpt lat="45.86354" lon="4.5983">
        <ele>404.53439</ele>
        <time>2023-07-04T15:22:32.000Z</time>
      </trkpt>
      <trkpt lat="45.86352" lon="4.5982">
        <ele>404.34534</ele>
        <time>2023-07-04T15:22:33.000Z</time>
      </trkpt>
      <trkpt lat="45.86351" lon="4.5981">
        <ele>404.11508</ele>
        <time>2023-07-04T15:22:34.000Z</time>
      </trkpt>
      <trkpt lat="45.86351" lon="4.598">
        <ele>403.85931</ele>
        <time>2023-07-04T15:22:35.000Z</time>
      </trkpt>
      <trkpt lat="45.86351" lon="4.5979">
        <ele>403.58075</ele>
        <time>2023-07-04T15:22:36.000Z</time>
      </trkpt>
      <trkpt lat="45.86351" lon="4.59779">
        <ele>403.50949</ele>
        <time>2023-07-04T15:22:37.000Z</time>
      </trkpt>
      <trkpt lat="45.86353" lon="4.59768">
        <ele>403.4718</ele>
        <time>2023-07-04T15:22:38.000Z</time>
      </trkpt>
      <trkpt lat="45.86356" lon="4.59757">
        <ele>403.20859</ele>
        <time>2023-07-04T15:22:39.000Z</time>
      </trkpt>
      <trkpt lat="45.8636" lon="4.59747">
        <ele>402.98587</ele>
        <time>2023-07-04T15:22:40.000Z</time>
      </trkpt>
      <trkpt lat="45.86364" lon="4.59737">
        <ele>402.74466</ele>
        <time>2023-07-04T15:22:41.000Z</time>
      </trkpt>
      <trkpt lat="45.86369" lon="4.59727">
        <ele>402.50912</ele>
        <time>2023-07-04T15:22:42.000Z</time>
      </trkpt>
      <trkpt lat="45.86374" lon="4.59719">
        <ele>402.31049</ele>
        <time>2023-07-04T15:22:43.000Z</time>
      </trkpt>
      <trkpt lat="45.8638" lon="4.5971">
        <ele>402.12338</ele>
        <time>2023-07-04T15:22:44.000Z</time>
      </trkpt>
      <trkpt lat="45.86385" lon="4.59702">
        <ele>401.93781</ele>
        <time>2023-07-04T15:22:45.000Z</time>
      </trkpt>
      <trkpt lat="45.8639" lon="4.59694">
        <ele>401.87091</ele>
        <time>2023-07-04T15:22:46.000Z</time>
      </trkpt>
      <trkpt lat="45.86395" lon="4.59687">
        <ele>401.78989</ele>
        <time>2023-07-04T15:22:47.000Z</time>
      </trkpt>
      <trkpt lat="45.864" lon="4.5968">
        <ele>400.36972</ele>
        <time>2023-07-04T15:22:48.000Z</time>
      </trkpt>
      <trkpt lat="45.86404" lon="4.59674">
        <ele>398.83533</ele>
        <time>2023-07-04T15:22:49.000Z</time>
      </trkpt>
      <trkpt lat="45.86409" lon="4.59668">
        <ele>398.6828</ele>
        <time>2023-07-04T15:22:50.000Z</time>
      </trkpt>
      <trkpt lat="45.86412" lon="4.59661">
        <ele>397.7597</ele>
        <time>2023-07-04T15:22:51.000Z</time>
      </trkpt>
      <trkpt lat="45.86415" lon="4.59655">
        <ele>396.80884</ele>
        <time>2023-07-04T15:22:52.000Z</time>
      </trkpt>
      <trkpt lat="45.86419" lon="4.59648">
        <ele>395.84161</ele>
        <time>2023-07-04T15:22:53.000Z</time>
      </trkpt>
      <trkpt lat="45.86422" lon="4.59642">
        <ele>394.86224</ele>
        <time>2023-07-04T15:22:54.000Z</time>
      </trkpt>
      <trkpt lat="45.86425" lon="4.59635">
        <ele>393.86368</ele>
        <time>2023-07-04T15:22:55.000Z</time>
      </trkpt>
      <trkpt lat="45.86428" lon="4.59626">
        <ele>392.9053</ele>
        <time>2023-07-04T15:22:56.000Z</time>
      </trkpt>
      <trkpt lat="45.86429" lon="4.59617">
        <ele>392.07092</ele>
        <time>2023-07-04T15:22:57.000Z</time>
      </trkpt>
      <trkpt lat="45.86431" lon="4.59608">
        <ele>391.83197</ele>
        <time>2023-07-04T15:22:58.000Z</time>
      </trkpt>
      <trkpt lat="45.86433" lon="4.596">
        <ele>391.85477</ele>
        <time>2023-07-04T15:22:59.000Z</time>
      </trkpt>
      <trkpt lat="45.86435" lon="4.59592">
        <ele>391.832</ele>
        <time>2023-07-04T15:23:00.000Z</time>
      </trkpt>
      <trkpt lat="45.86436" lon="4.59584">
        <ele>391.79688</ele>
        <time>2023-07-04T15:23:01.000Z</time>
      </trkpt>
      <trkpt lat="45.86437" lon="4.59576">
        <ele>391.77335</ele>
        <time>2023-07-04T15:23:02.000Z</time>
      </trkpt>
      <trkpt lat="45.86437" lon="4.59567">
        <ele>391.76123</ele>
        <time>2023-07-04T15:23:03.000Z</time>
      </trkpt>
      <trkpt lat="45.86437" lon="4.59559">
        <ele>391.74341</ele>
        <time>2023-07-04T15:23:04.000Z</time>
      </trkpt>
      <trkpt lat="45.86437" lon="4.5955">
        <ele>391.73578</ele>
        <time>2023-07-04T15:23:05.000Z</time>
      </trkpt>
      <trkpt lat="45.86437" lon="4.59541">
        <ele>391.67801</ele>
        <time>2023-07-04T15:23:06.000Z</time>
      </trkpt>
      <trkpt lat="45.86437" lon="4.59532">
        <ele>391.63702</ele>
        <time>2023-07-04T15:23:07.000Z</time>
      </trkpt>
      <trkpt lat="45.86438" lon="4.59523">
        <ele>392.96088</ele>
        <time>2023-07-04T15:23:08.000Z</time>
      </trkpt>
      <trkpt lat="45.86438" lon="4.59515">
        <ele>394.43494</ele>
        <time>2023-07-04T15:23:09.000Z</time>
      </trkpt>
      <trkpt lat="45.86438" lon="4.59507">
        <ele>394.69272</ele>
        <time>2023-07-04T15:23:10.000Z</time>
      </trkpt>
      <trkpt lat="45.86437" lon="4.59498">
        <ele>395.73615</ele>
        <time>2023-07-04T15:23:11.000Z</time>
      </trkpt>
      <trkpt lat="45.86437" lon="4.59489">
        <ele>396.77338</ele>
        <time>2023-07-04T15:23:12.000Z</time>
      </trkpt>
      <trkpt lat="45.86437" lon="4.5948">
        <ele>397.65512</ele>
        <time>2023-07-04T15:23:13.000Z</time>
      </trkpt>
      <trkpt lat="45.86437" lon="4.59471">
        <ele>398.58124</ele>
        <time>2023-07-04T15:23:14.000Z</time>
      </trkpt>
      <trkpt lat="45.86437" lon="4.59462">
        <ele>399.52322</ele>
        <time>2023-07-04T15:23:15.000Z</time>
      </trkpt>
      <trkpt lat="45.86437" lon="4.59453">
        <ele>400.42996</ele>
        <time>2023-07-04T15:23:16.000Z</time>
      </trkpt>
      <trkpt lat="45.86437" lon="4.59445">
        <ele>401.19827</ele>
        <time>2023-07-04T15:23:17.000Z</time>
      </trkpt>
      <trkpt lat="45.86437" lon="4.59436">
        <ele>401.33035</ele>
        <time>2023-07-04T15:23:18.000Z</time>
      </trkpt>
      <trkpt lat="45.86437" lon="4.59428">
        <ele>401.43762</ele>
        <time>2023-07-04T15:23:19.000Z</time>
      </trkpt>
      <trkpt lat="45.86437" lon="4.5942">
        <ele>401.54105</ele>
        <time>2023-07-04T15:23:20.000Z</time>
      </trkpt>
      <trkpt lat="45.86437" lon="4.59412">
        <ele>401.43353</ele>
        <time>2023-07-04T15:23:21.000Z</time>
      </trkpt>
      <trkpt lat="45.86438" lon="4.59403">
        <ele>401.29099</ele>
        <time>2023-07-04T15:23:22.000Z</time>
      </trkpt>
      <trkpt lat="45.86438" lon="4.59395">
        <ele>401.12637</ele>
        <time>2023-07-04T15:23:23.000Z</time>
      </trkpt>
      <trkpt lat="45.86438" lon="4.59387">
        <ele>400.99121</ele>
        <time>2023-07-04T15:23:24.000Z</time>
      </trkpt>
      <trkpt lat="45.86439" lon="4.59379">
        <ele>400.84131</ele>
        <time>2023-07-04T15:23:25.000Z</time>
      </trkpt>
      <trkpt lat="45.86439" lon="4.59371">
        <ele>400.0726</ele>
        <time>2023-07-04T15:23:26.000Z</time>
      </trkpt>
      <trkpt lat="45.86439" lon="4.59362">
        <ele>399.94281</ele>
        <time>2023-07-04T15:23:27.000Z</time>
      </trkpt>
      <trkpt lat="45.86439" lon="4.59354">
        <ele>399.78329</ele>
        <time>2023-07-04T15:23:28.000Z</time>
      </trkpt>
      <trkpt lat="45.86439" lon="4.59346">
        <ele>399.60199</ele>
        <time>2023-07-04T15:23:29.000Z</time>
      </trkpt>
      <trkpt lat="45.86439" lon="4.59337">
        <ele>399.32785</ele>
        <time>2023-07-04T15:23:30.000Z</time>
      </trkpt>
      <trkpt lat="45.86439" lon="4.59329">
        <ele>399.05637</ele>
        <time>2023-07-04T15:23:31.000Z</time>
      </trkpt>
      <trkpt lat="45.86439" lon="4.5932">
        <ele>398.78897</ele>
        <time>2023-07-04T15:23:32.000Z</time>
      </trkpt>
      <trkpt lat="45.86439" lon="4.59312">
        <ele>398.72168</ele>
        <time>2023-07-04T15:23:33.000Z</time>
      </trkpt>
      <trkpt lat="45.86439" lon="4.59304">
        <ele>398.08734</ele>
        <time>2023-07-04T15:23:34.000Z</time>
      </trkpt>
      <trkpt lat="45.86439" lon="4.59296">
        <ele>397.48752</ele>
        <time>2023-07-04T15:23:35.000Z</time>
      </trkpt>
      <trkpt lat="45.86438" lon="4.59288">
        <ele>396.92081</ele>
        <time>2023-07-04T15:23:36.000Z</time>
      </trkpt>
      <trkpt lat="45.86438" lon="4.59281">
        <ele>396.33099</ele>
        <time>2023-07-04T15:23:37.000Z</time>
      </trkpt>
      <trkpt lat="45.86438" lon="4.59274">
        <ele>395.73132</ele>
        <time>2023-07-04T15:23:38.000Z</time>
      </trkpt>
      <trkpt lat="45.86438" lon="4.59268">
        <ele>395.10663</ele>
        <time>2023-07-04T15:23:39.000Z</time>
      </trkpt>
      <trkpt lat="45.86438" lon="4.59261">
        <ele>394.52228</ele>
        <time>2023-07-04T15:23:40.000Z</time>
      </trkpt>
      <trkpt lat="45.86438" lon="4.59254">
        <ele>394.1615</ele>
        <time>2023-07-04T15:23:41.000Z</time>
      </trkpt>
      <trkpt lat="45.86438" lon="4.59248">
        <ele>393.83429</ele>
        <time>2023-07-04T15:23:42.000Z</time>
      </trkpt>
      <trkpt lat="45.86438" lon="4.59242">
        <ele>393.50275</ele>
        <time>2023-07-04T15:23:43.000Z</time>
      </trkpt>
      <trkpt lat="45.86438" lon="4.59236">
        <ele>393.1752</ele>
        <time>2023-07-04T15:23:44.000Z</time>
      </trkpt>
      <trkpt lat="45.86438" lon="4.5923">
        <ele>392.90613</ele>
        <time>2023-07-04T15:23:45.000Z</time>
      </trkpt>
      <trkpt lat="45.86439" lon="4.59226">
        <ele>393.21729</ele>
        <time>2023-07-04T15:23:46.000Z</time>
      </trkpt>
      <trkpt lat="45.86436" lon="4.59223">
        <ele>392.85657</ele>
        <time>2023-07-04T15:23:47.000Z</time>
      </trkpt>
      <trkpt lat="45.86433" lon="4.59221">
        <ele>392.54291</ele>
        <time>2023-07-04T15:23:48.000Z</time>
      </trkpt>
      <trkpt lat="45.8643" lon="4.59219">
        <ele>392.22516</ele>
        <time>2023-07-04T15:23:49.000Z</time>
      </trkpt>
      <trkpt lat="45.86427" lon="4.59219">
        <ele>391.87766</ele>
        <time>2023-07-04T15:23:50.000Z</time>
      </trkpt>
      <trkpt lat="45.86424" lon="4.59219">
        <ele>391.51657</ele>
        <time>2023-07-04T15:23:51.000Z</time>
      </trkpt>
      <trkpt lat="45.86421" lon="4.59219">
        <ele>391.15482</ele>
        <time>2023-07-04T15:23:52.000Z</time>
      </trkpt>
      <trkpt lat="45.86417" lon="4.59219">
        <ele>390.80865</ele>
        <time>2023-07-04T15:23:53.000Z</time>
      </trkpt>
      <trkpt lat="45.86414" lon="4.59219">
        <ele>390.9791</ele>
        <time>2023-07-04T15:23:54.000Z</time>
      </trkpt>
      <trkpt lat="45.8641" lon="4.59219">
        <ele>391.12213</ele>
        <time>2023-07-04T15:23:55.000Z</time>
      </trkpt>
      <trkpt lat="45.86406" lon="4.59219">
        <ele>391.23907</ele>
        <time>2023-07-04T15:23:56.000Z</time>
      </trkpt>
      <trkpt lat="45.86402" lon="4.59219">
        <ele>391.2182</ele>
        <time>2023-07-04T15:23:57.000Z</time>
      </trkpt>
      <trkpt lat="45.86399" lon="4.59218">
        <ele>391.16449</ele>
        <time>2023-07-04T15:23:58.000Z</time>
      </trkpt>
      <trkpt lat="45.86395" lon="4.59218">
        <ele>391.0538</ele>
        <time>2023-07-04T15:23:59.000Z</time>
      </trkpt>
      <trkpt lat="45.86391" lon="4.59217">
        <ele>390.85315</ele>
        <time>2023-07-04T15:24:00.000Z</time>
      </trkpt>
      <trkpt lat="45.86387" lon="4.59217">
        <ele>390.68011</ele>
        <time>2023-07-04T15:24:01.000Z</time>
      </trkpt>
      <trkpt lat="45.86382" lon="4.59216">
        <ele>390.79764</ele>
        <time>2023-07-04T15:24:02.000Z</time>
      </trkpt>
      <trkpt lat="45.86378" lon="4.59216">
        <ele>390.84433</ele>
        <time>2023-07-04T15:24:03.000Z</time>
      </trkpt>
      <trkpt lat="45.86374" lon="4.59216">
        <ele>390.9053</ele>
        <time>2023-07-04T15:24:04.000Z</time>
      </trkpt>
      <trkpt lat="45.8637" lon="4.59216">
        <ele>390.8779</ele>
        <time>2023-07-04T15:24:05.000Z</time>
      </trkpt>
      <trkpt lat="45.86366" lon="4.59216">
        <ele>390.79941</ele>
        <time>2023-07-04T15:24:06.000Z</time>
      </trkpt>
      <trkpt lat="45.86362" lon="4.59216">
        <ele>390.79303</ele>
        <time>2023-07-04T15:24:07.000Z</time>
      </trkpt>
      <trkpt lat="45.86358" lon="4.59216">
        <ele>390.77347</ele>
        <time>2023-07-04T15:24:08.000Z</time>
      </trkpt>
      <trkpt lat="45.86355" lon="4.59216">
        <ele>390.81381</ele>
        <time>2023-07-04T15:24:09.000Z</time>
      </trkpt>
      <trkpt lat="45.86351" lon="4.59216">
        <ele>390.88257</ele>
        <time>2023-07-04T15:24:10.000Z</time>
      </trkpt>
      <trkpt lat="45.86347" lon="4.59215">
        <ele>390.89362</ele>
        <time>2023-07-04T15:24:11.000Z</time>
      </trkpt>
      <trkpt lat="45.86343" lon="4.59215">
        <ele>390.93954</ele>
        <time>2023-07-04T15:24:12.000Z</time>
      </trkpt>
      <trkpt lat="45.86339" lon="4.59214">
        <ele>390.98184</ele>
        <time>2023-07-04T15:24:13.000Z</time>
      </trkpt>
      <trkpt lat="45.86335" lon="4.59214">
        <ele>391.03568</ele>
        <time>2023-07-04T15:24:14.000Z</time>
      </trkpt>
      <trkpt lat="45.86332" lon="4.59213">
        <ele>391.07263</ele>
        <time>2023-07-04T15:24:15.000Z</time>
      </trkpt>
      <trkpt lat="45.86328" lon="4.59213">
        <ele>391.12628</ele>
        <time>2023-07-04T15:24:16.000Z</time>
      </trkpt>
      <trkpt lat="45.86324" lon="4.59213">
        <ele>391.33588</ele>
        <time>2023-07-04T15:24:17.000Z</time>
      </trkpt>
      <trkpt lat="45.8632" lon="4.59212">
        <ele>391.55618</ele>
        <time>2023-07-04T15:24:18.000Z</time>
      </trkpt>
      <trkpt lat="45.86316" lon="4.59211">
        <ele>391.86206</ele>
        <time>2023-07-04T15:24:19.000Z</time>
      </trkpt>
      <trkpt lat="45.86312" lon="4.5921">
        <ele>392.24512</ele>
        <time>2023-07-04T15:24:20.000Z</time>
      </trkpt>
      <trkpt lat="45.86308" lon="4.59209">
        <ele>392.54669</ele>
        <time>2023-07-04T15:24:21.000Z</time>
      </trkpt>
      <trkpt lat="45.86304" lon="4.59207">
        <ele>392.76108</ele>
        <time>2023-07-04T15:24:22.000Z</time>
      </trkpt>
      <trkpt lat="45.86301" lon="4.59205">
        <ele>393.71924</ele>
        <time>2023-07-04T15:24:23.000Z</time>
      </trkpt>
      <trkpt lat="45.86297" lon="4.59203">
        <ele>394.64755</ele>
        <time>2023-07-04T15:24:24.000Z</time>
      </trkpt>
      <trkpt lat="45.86294" lon="4.592">
        <ele>395.66647</ele>
        <time>2023-07-04T15:24:25.000Z</time>
      </trkpt>
      <trkpt lat="45.8629" lon="4.59197">
        <ele>396.72296</ele>
        <time>2023-07-04T15:24:26.000Z</time>
      </trkpt>
      <trkpt lat="45.86287" lon="4.59191">
        <ele>397.70172</ele>
        <time>2023-07-04T15:24:27.000Z</time>
      </trkpt>
      <trkpt lat="45.86284" lon="4.59188">
        <ele>398.56674</ele>
        <time>2023-07-04T15:24:28.000Z</time>
      </trkpt>
      <trkpt lat="45.8628" lon="4.59184">
        <ele>399.37897</ele>
        <time>2023-07-04T15:24:29.000Z</time>
      </trkpt>
      <trkpt lat="45.86275" lon="4.59181">
        <ele>400.1546</ele>
        <time>2023-07-04T15:24:30.000Z</time>
      </trkpt>
      <trkpt lat="45.8627" lon="4.5918">
        <ele>400.99225</ele>
        <time>2023-07-04T15:24:31.000Z</time>
      </trkpt>
      <trkpt lat="45.86265" lon="4.59181">
        <ele>401.75989</ele>
        <time>2023-07-04T15:24:32.000Z</time>
      </trkpt>
      <trkpt lat="45.8626" lon="4.59184">
        <ele>402.47162</ele>
        <time>2023-07-04T15:24:33.000Z</time>
      </trkpt>
      <trkpt lat="45.86254" lon="4.59189">
        <ele>403.17236</ele>
        <time>2023-07-04T15:24:34.000Z</time>
      </trkpt>
      <trkpt lat="45.8625" lon="4.59194">
        <ele>403.8674</ele>
        <time>2023-07-04T15:24:35.000Z</time>
      </trkpt>
      <trkpt lat="45.86245" lon="4.59198">
        <ele>404.53036</ele>
        <time>2023-07-04T15:24:36.000Z</time>
      </trkpt>
      <trkpt lat="45.8624" lon="4.59203">
        <ele>405.18414</ele>
        <time>2023-07-04T15:24:37.000Z</time>
      </trkpt>
      <trkpt lat="45.86235" lon="4.59207">
        <ele>405.83887</ele>
        <time>2023-07-04T15:24:38.000Z</time>
      </trkpt>
      <trkpt lat="45.8623" lon="4.59212">
        <ele>406.46997</ele>
        <time>2023-07-04T15:24:39.000Z</time>
      </trkpt>
      <trkpt lat="45.86225" lon="4.59216">
        <ele>407.04926</ele>
        <time>2023-07-04T15:24:40.000Z</time>
      </trkpt>
      <trkpt lat="45.86219" lon="4.5922">
        <ele>407.66663</ele>
        <time>2023-07-04T15:24:41.000Z</time>
      </trkpt>
      <trkpt lat="45.86213" lon="4.59223">
        <ele>408.10248</ele>
        <time>2023-07-04T15:24:42.000Z</time>
      </trkpt>
      <trkpt lat="45.86208" lon="4.59226">
        <ele>407.91974</ele>
        <time>2023-07-04T15:24:43.000Z</time>
      </trkpt>
      <trkpt lat="45.86204" lon="4.59226">
        <ele>407.71124</ele>
        <time>2023-07-04T15:24:44.000Z</time>
      </trkpt>
      <trkpt lat="45.86202" lon="4.59226">
        <ele>407.43558</ele>
        <time>2023-07-04T15:24:45.000Z</time>
      </trkpt>
      <trkpt lat="45.86199" lon="4.59227">
        <ele>407.07184</ele>
        <time>2023-07-04T15:24:47.000Z</time>
      </trkpt>
      <trkpt lat="45.86195" lon="4.59227">
        <ele>406.78372</ele>
        <time>2023-07-04T15:24:49.000Z</time>
      </trkpt>
      <trkpt lat="45.86193" lon="4.59229">
        <ele>406.58322</ele>
        <time>2023-07-04T15:24:50.000Z</time>
      </trkpt>
      <trkpt lat="45.86194" lon="4.59232">
        <ele>406.37897</ele>
        <time>2023-07-04T15:24:51.000Z</time>
      </trkpt>
      <trkpt lat="45.86197" lon="4.59232">
        <ele>406.20248</ele>
        <time>2023-07-04T15:24:53.000Z</time>
      </trkpt>
      <trkpt lat="45.86199" lon="4.5923">
        <ele>406.0166</ele>
        <time>2023-07-04T15:24:54.000Z</time>
      </trkpt>
      <trkpt lat="45.86201" lon="4.59227">
        <ele>405.84525</ele>
        <time>2023-07-04T15:24:55.000Z</time>
      </trkpt>
      <trkpt lat="45.86204" lon="4.59226">
        <ele>405.70392</ele>
        <time>2023-07-04T15:24:56.000Z</time>
      </trkpt>
      <trkpt lat="45.86206" lon="4.59225">
        <ele>405.58896</ele>
        <time>2023-07-04T15:24:57.000Z</time>
      </trkpt>
      <trkpt lat="45.86209" lon="4.59224">
        <ele>405.51892</ele>
        <time>2023-07-04T15:24:58.000Z</time>
      </trkpt>
      <trkpt lat="45.86212" lon="4.59223">
        <ele>405.55609</ele>
        <time>2023-07-04T15:24:59.000Z</time>
      </trkpt>
      <trkpt lat="45.86214" lon="4.59222">
        <ele>405.60333</ele>
        <time>2023-07-04T15:25:00.000Z</time>
      </trkpt>
      <trkpt lat="45.86217" lon="4.5922">
        <ele>405.6839</ele>
        <time>2023-07-04T15:25:01.000Z</time>
      </trkpt>
      <trkpt lat="45.86219" lon="4.59218">
        <ele>405.81451</ele>
        <time>2023-07-04T15:25:02.000Z</time>
      </trkpt>
      <trkpt lat="45.86222" lon="4.59216">
        <ele>406.02249</ele>
        <time>2023-07-04T15:25:03.000Z</time>
      </trkpt>
      <trkpt lat="45.86224" lon="4.59214">
        <ele>406.09381</ele>
        <time>2023-07-04T15:25:04.000Z</time>
      </trkpt>
      <trkpt lat="45.86227" lon="4.59213">
        <ele>406.14557</ele>
        <time>2023-07-04T15:25:05.000Z</time>
      </trkpt>
      <trkpt lat="45.86229" lon="4.59211">
        <ele>406.16803</ele>
        <time>2023-07-04T15:25:06.000Z</time>
      </trkpt>
      <trkpt lat="45.86232" lon="4.59209">
        <ele>406.21643</ele>
        <time>2023-07-04T15:25:07.000Z</time>
      </trkpt>
      <trkpt lat="45.86234" lon="4.59206">
        <ele>406.29037</ele>
        <time>2023-07-04T15:25:08.000Z</time>
      </trkpt>
      <trkpt lat="45.86237" lon="4.59204">
        <ele>406.47772</ele>
        <time>2023-07-04T15:25:09.000Z</time>
      </trkpt>
      <trkpt lat="45.8624" lon="4.59202">
        <ele>406.63379</ele>
        <time>2023-07-04T15:25:10.000Z</time>
      </trkpt>
      <trkpt lat="45.86242" lon="4.592">
        <ele>406.79327</ele>
        <time>2023-07-04T15:25:11.000Z</time>
      </trkpt>
      <trkpt lat="45.86245" lon="4.59198">
        <ele>406.94775</ele>
        <time>2023-07-04T15:25:12.000Z</time>
      </trkpt>
      <trkpt lat="45.86247" lon="4.59196">
        <ele>407.10754</ele>
        <time>2023-07-04T15:25:13.000Z</time>
      </trkpt>
      <trkpt lat="45.8625" lon="4.59194">
        <ele>407.34528</ele>
        <time>2023-07-04T15:25:14.000Z</time>
      </trkpt>
      <trkpt lat="45.86252" lon="4.59192">
        <ele>407.61139</ele>
        <time>2023-07-04T15:25:15.000Z</time>
      </trkpt>
      <trkpt lat="45.86255" lon="4.59189">
        <ele>407.86948</ele>
        <time>2023-07-04T15:25:16.000Z</time>
      </trkpt>
      <trkpt lat="45.86257" lon="4.59187">
        <ele>408.09781</ele>
        <time>2023-07-04T15:25:17.000Z</time>
      </trkpt>
      <trkpt lat="45.8626" lon="4.59185">
        <ele>408.35138</ele>
        <time>2023-07-04T15:25:18.000Z</time>
      </trkpt>
      <trkpt lat="45.86262" lon="4.59184">
        <ele>408.54575</ele>
        <time>2023-07-04T15:25:19.000Z</time>
      </trkpt>
      <trkpt lat="45.86264" lon="4.59182">
        <ele>408.6088</ele>
        <time>2023-07-04T15:25:20.000Z</time>
      </trkpt>
      <trkpt lat="45.86265" lon="4.59179">
        <ele>408.69052</ele>
        <time>2023-07-04T15:25:21.000Z</time>
      </trkpt>
      <trkpt lat="45.86265" lon="4.59176">
        <ele>408.71918</ele>
        <time>2023-07-04T15:25:22.000Z</time>
      </trkpt>
      <trkpt lat="45.86264" lon="4.59173">
        <ele>408.68036</ele>
        <time>2023-07-04T15:25:23.000Z</time>
      </trkpt>
      <trkpt lat="45.86262" lon="4.59171">
        <ele>408.79413</ele>
        <time>2023-07-04T15:25:24.000Z</time>
      </trkpt>
      <trkpt lat="45.86258" lon="4.59169">
        <ele>408.85831</ele>
        <time>2023-07-04T15:25:25.000Z</time>
      </trkpt>
      <trkpt lat="45.86255" lon="4.59168">
        <ele>408.91464</ele>
        <time>2023-07-04T15:25:26.000Z</time>
      </trkpt>
      <trkpt lat="45.86251" lon="4.59167">
        <ele>408.95514</ele>
        <time>2023-07-04T15:25:27.000Z</time>
      </trkpt>
      <trkpt lat="45.86247" lon="4.59165">
        <ele>408.97748</ele>
        <time>2023-07-04T15:25:28.000Z</time>
      </trkpt>
      <trkpt lat="45.86243" lon="4.59164">
        <ele>408.9834</ele>
        <time>2023-07-04T15:25:29.000Z</time>
      </trkpt>
      <trkpt lat="45.86239" lon="4.59162">
        <ele>408.96729</ele>
        <time>2023-07-04T15:25:30.000Z</time>
      </trkpt>
      <trkpt lat="45.86235" lon="4.59161">
        <ele>408.95184</ele>
        <time>2023-07-04T15:25:31.000Z</time>
      </trkpt>
      <trkpt lat="45.8623" lon="4.59159">
        <ele>409.01938</ele>
        <time>2023-07-04T15:25:32.000Z</time>
      </trkpt>
      <trkpt lat="45.86224" lon="4.59156">
        <ele>409.04968</ele>
        <time>2023-07-04T15:25:33.000Z</time>
      </trkpt>
      <trkpt lat="45.86218" lon="4.59153">
        <ele>408.97876</ele>
        <time>2023-07-04T15:25:34.000Z</time>
      </trkpt>
      <trkpt lat="45.86212" lon="4.59151">
        <ele>408.84583</ele>
        <time>2023-07-04T15:25:35.000Z</time>
      </trkpt>
      <trkpt lat="45.86206" lon="4.59148">
        <ele>408.50903</ele>
        <time>2023-07-04T15:25:36.000Z</time>
      </trkpt>
      <trkpt lat="45.86201" lon="4.59145">
        <ele>408.18283</ele>
        <time>2023-07-04T15:25:37.000Z</time>
      </trkpt>
      <trkpt lat="45.86195" lon="4.59143">
        <ele>407.71954</ele>
        <time>2023-07-04T15:25:38.000Z</time>
      </trkpt>
      <trkpt lat="45.86189" lon="4.5914">
        <ele>407.14877</ele>
        <time>2023-07-04T15:25:39.000Z</time>
      </trkpt>
      <trkpt lat="45.86183" lon="4.59137">
        <ele>406.61823</ele>
        <time>2023-07-04T15:25:40.000Z</time>
      </trkpt>
      <trkpt lat="45.86177" lon="4.59134">
        <ele>405.99066</ele>
        <time>2023-07-04T15:25:41.000Z</time>
      </trkpt>
      <trkpt lat="45.86171" lon="4.59132">
        <ele>405.35333</ele>
        <time>2023-07-04T15:25:42.000Z</time>
      </trkpt>
      <trkpt lat="45.86166" lon="4.59129">
        <ele>404.7074</ele>
        <time>2023-07-04T15:25:43.000Z</time>
      </trkpt>
      <trkpt lat="45.8616" lon="4.59126">
        <ele>403.99576</ele>
        <time>2023-07-04T15:25:44.000Z</time>
      </trkpt>
      <trkpt lat="45.86156" lon="4.59124">
        <ele>403.26108</ele>
        <time>2023-07-04T15:25:45.000Z</time>
      </trkpt>
      <trkpt lat="45.86153" lon="4.59122">
        <ele>402.47382</ele>
        <time>2023-07-04T15:25:46.000Z</time>
      </trkpt>
      <trkpt lat="45.86151" lon="4.59122">
        <ele>401.73322</ele>
        <time>2023-07-04T15:25:47.000Z</time>
      </trkpt>
      <trkpt lat="45.86149" lon="4.59119">
        <ele>400.97006</ele>
        <time>2023-07-04T15:25:49.000Z</time>
      </trkpt>
      <trkpt lat="45.86148" lon="4.59117">
        <ele>400.39896</ele>
        <time>2023-07-04T15:25:55.000Z</time>
      </trkpt>
      <trkpt lat="45.86146" lon="4.59115">
        <ele>399.87149</ele>
        <time>2023-07-04T15:25:56.000Z</time>
      </trkpt>
      <trkpt lat="45.86144" lon="4.59113">
        <ele>399.33136</ele>
        <time>2023-07-04T15:25:57.000Z</time>
      </trkpt>
      <trkpt lat="45.86141" lon="4.59111">
        <ele>398.45352</ele>
        <time>2023-07-04T15:25:58.000Z</time>
      </trkpt>
      <trkpt lat="45.86139" lon="4.5911">
        <ele>397.59213</ele>
        <time>2023-07-04T15:25:59.000Z</time>
      </trkpt>
      <trkpt lat="45.86137" lon="4.59108">
        <ele>396.73383</ele>
        <time>2023-07-04T15:26:00.000Z</time>
      </trkpt>
      <trkpt lat="45.86135" lon="4.59106">
        <ele>395.85898</ele>
        <time>2023-07-04T15:26:06.000Z</time>
      </trkpt>
      <trkpt lat="45.86134" lon="4.59105">
        <ele>395.25427</ele>
        <time>2023-07-04T15:26:07.000Z</time>
      </trkpt>
      <trkpt lat="45.86132" lon="4.59103">
        <ele>394.71719</ele>
        <time>2023-07-04T15:26:08.000Z</time>
      </trkpt>
      <trkpt lat="45.86129" lon="4.59101">
        <ele>394.23721</ele>
        <time>2023-07-04T15:26:09.000Z</time>
      </trkpt>
      <trkpt lat="45.86127" lon="4.59099">
        <ele>393.73407</ele>
        <time>2023-07-04T15:26:10.000Z</time>
      </trkpt>
      <trkpt lat="45.86125" lon="4.59097">
        <ele>393.33228</ele>
        <time>2023-07-04T15:26:11.000Z</time>
      </trkpt>
      <trkpt lat="45.86121" lon="4.59093">
        <ele>393.09875</ele>
        <time>2023-07-04T15:26:12.000Z</time>
      </trkpt>
      <trkpt lat="45.86119" lon="4.59089">
        <ele>392.9137</ele>
        <time>2023-07-04T15:26:13.000Z</time>
      </trkpt>
      <trkpt lat="45.86118" lon="4.59086">
        <ele>392.7291</ele>
        <time>2023-07-04T15:26:14.000Z</time>
      </trkpt>
      <trkpt lat="45.86116" lon="4.59082">
        <ele>392.81329</ele>
        <time>2023-07-04T15:26:15.000Z</time>
      </trkpt>
      <trkpt lat="45.86113" lon="4.5908">
        <ele>392.99261</ele>
        <time>2023-07-04T15:26:16.000Z</time>
      </trkpt>
      <trkpt lat="45.86109" lon="4.59074">
        <ele>392.94296</ele>
        <time>2023-07-04T15:26:17.000Z</time>
      </trkpt>
      <trkpt lat="45.86105" lon="4.5907">
        <ele>392.88031</ele>
        <time>2023-07-04T15:26:18.000Z</time>
      </trkpt>
      <trkpt lat="45.861" lon="4.59067">
        <ele>393.10696</ele>
        <time>2023-07-04T15:26:19.000Z</time>
      </trkpt>
      <trkpt lat="45.86097" lon="4.59066">
        <ele>393.10721</ele>
        <time>2023-07-04T15:26:20.000Z</time>
      </trkpt>
      <trkpt lat="45.86094" lon="4.59065">
        <ele>393.04141</ele>
        <time>2023-07-04T15:26:21.000Z</time>
      </trkpt>
      <trkpt lat="45.86092" lon="4.59064">
        <ele>392.89499</ele>
        <time>2023-07-04T15:26:22.000Z</time>
      </trkpt>
      <trkpt lat="45.86089" lon="4.59063">
        <ele>392.73523</ele>
        <time>2023-07-04T15:26:35.000Z</time>
      </trkpt>
      <trkpt lat="45.86085" lon="4.59061">
        <ele>392.70117</ele>
        <time>2023-07-04T15:26:37.000Z</time>
      </trkpt>
      <trkpt lat="45.86082" lon="4.5906">
        <ele>392.77353</ele>
        <time>2023-07-04T15:26:38.000Z</time>
      </trkpt>
      <trkpt lat="45.8608" lon="4.59062">
        <ele>392.95856</ele>
        <time>2023-07-04T15:26:39.000Z</time>
      </trkpt>
      <trkpt lat="45.86078" lon="4.59064">
        <ele>393.01099</ele>
        <time>2023-07-04T15:26:40.000Z</time>
      </trkpt>
      <trkpt lat="45.86076" lon="4.59066">
        <ele>393.01389</ele>
        <time>2023-07-04T15:26:41.000Z</time>
      </trkpt>
      <trkpt lat="45.86074" lon="4.59069">
        <ele>392.91702</ele>
        <time>2023-07-04T15:26:42.000Z</time>
      </trkpt>
      <trkpt lat="45.86072" lon="4.59071">
        <ele>392.90106</ele>
        <time>2023-07-04T15:26:43.000Z</time>
      </trkpt>
      <trkpt lat="45.86071" lon="4.59073">
        <ele>392.82162</ele>
        <time>2023-07-04T15:26:44.000Z</time>
      </trkpt>
      <trkpt lat="45.86069" lon="4.59076">
        <ele>392.73105</ele>
        <time>2023-07-04T15:26:45.000Z</time>
      </trkpt>
      <trkpt lat="45.86066" lon="4.59079">
        <ele>392.59296</ele>
        <time>2023-07-04T15:26:46.000Z</time>
      </trkpt>
      <trkpt lat="45.86064" lon="4.59082">
        <ele>392.60135</ele>
        <time>2023-07-04T15:26:47.000Z</time>
      </trkpt>
      <trkpt lat="45.86061" lon="4.59085">
        <ele>392.47192</ele>
        <time>2023-07-04T15:26:48.000Z</time>
      </trkpt>
      <trkpt lat="45.86059" lon="4.59088">
        <ele>392.22058</ele>
        <time>2023-07-04T15:26:49.000Z</time>
      </trkpt>
      <trkpt lat="45.86056" lon="4.5909">
        <ele>392.26987</ele>
        <time>2023-07-04T15:26:50.000Z</time>
      </trkpt>
      <trkpt lat="45.86054" lon="4.59092">
        <ele>392.26648</ele>
        <time>2023-07-04T15:26:51.000Z</time>
      </trkpt>
      <trkpt lat="45.86051" lon="4.59093">
        <ele>392.04471</ele>
        <time>2023-07-04T15:26:52.000Z</time>
      </trkpt>
      <trkpt lat="45.86049" lon="4.59094">
        <ele>391.96249</ele>
        <time>2023-07-04T15:26:53.000Z</time>
      </trkpt>
      <trkpt lat="45.86046" lon="4.59095">
        <ele>391.87906</ele>
        <time>2023-07-04T15:26:54.000Z</time>
      </trkpt>
      <trkpt lat="45.86043" lon="4.59095">
        <ele>391.88583</ele>
        <time>2023-07-04T15:26:55.000Z</time>
      </trkpt>
      <trkpt lat="45.8604" lon="4.59095">
        <ele>392.26385</ele>
        <time>2023-07-04T15:26:56.000Z</time>
      </trkpt>
      <trkpt lat="45.86037" lon="4.59094">
        <ele>392.5069</ele>
        <time>2023-07-04T15:26:57.000Z</time>
      </trkpt>
      <trkpt lat="45.86033" lon="4.59093">
        <ele>392.7739</ele>
        <time>2023-07-04T15:26:58.000Z</time>
      </trkpt>
      <trkpt lat="45.8603" lon="4.59091">
        <ele>393.02744</ele>
        <time>2023-07-04T15:26:59.000Z</time>
      </trkpt>
      <trkpt lat="45.86026" lon="4.5909">
        <ele>393.3924</ele>
        <time>2023-07-04T15:27:00.000Z</time>
      </trkpt>
      <trkpt lat="45.86023" lon="4.59089">
        <ele>393.68381</ele>
        <time>2023-07-04T15:27:01.000Z</time>
      </trkpt>
      <trkpt lat="45.8602" lon="4.59086">
        <ele>393.95422</ele>
        <time>2023-07-04T15:27:02.000Z</time>
      </trkpt>
      <trkpt lat="45.86017" lon="4.59084">
        <ele>394.15692</ele>
        <time>2023-07-04T15:27:03.000Z</time>
      </trkpt>
      <trkpt lat="45.86014" lon="4.59081">
        <ele>394.35849</ele>
        <time>2023-07-04T15:27:04.000Z</time>
      </trkpt>
      <trkpt lat="45.86012" lon="4.5908">
        <ele>394.41803</ele>
        <time>2023-07-04T15:27:05.000Z</time>
      </trkpt>
      <trkpt lat="45.86009" lon="4.59078">
        <ele>394.45346</ele>
        <time>2023-07-04T15:27:06.000Z</time>
      </trkpt>
      <trkpt lat="45.86006" lon="4.59076">
        <ele>394.49554</ele>
        <time>2023-07-04T15:27:07.000Z</time>
      </trkpt>
      <trkpt lat="45.86003" lon="4.59074">
        <ele>394.45953</ele>
        <time>2023-07-04T15:27:08.000Z</time>
      </trkpt>
      <trkpt lat="45.86" lon="4.59073">
        <ele>394.56284</ele>
        <time>2023-07-04T15:27:09.000Z</time>
      </trkpt>
      <trkpt lat="45.85997" lon="4.59072">
        <ele>394.71759</ele>
        <time>2023-07-04T15:27:10.000Z</time>
      </trkpt>
      <trkpt lat="45.85994" lon="4.59071">
        <ele>394.92676</ele>
        <time>2023-07-04T15:27:11.000Z</time>
      </trkpt>
      <trkpt lat="45.85991" lon="4.5907">
        <ele>395.22525</ele>
        <time>2023-07-04T15:27:12.000Z</time>
      </trkpt>
      <trkpt lat="45.85988" lon="4.59069">
        <ele>395.09442</ele>
        <time>2023-07-04T15:27:13.000Z</time>
      </trkpt>
      <trkpt lat="45.85985" lon="4.59068">
        <ele>394.98254</ele>
        <time>2023-07-04T15:27:14.000Z</time>
      </trkpt>
      <trkpt lat="45.85982" lon="4.59067">
        <ele>394.94327</ele>
        <time>2023-07-04T15:27:15.000Z</time>
      </trkpt>
      <trkpt lat="45.85979" lon="4.59067">
        <ele>394.82706</ele>
        <time>2023-07-04T15:27:16.000Z</time>
      </trkpt>
      <trkpt lat="45.85977" lon="4.59066">
        <ele>394.73074</ele>
        <time>2023-07-04T15:27:17.000Z</time>
      </trkpt>
      <trkpt lat="45.85975" lon="4.59066">
        <ele>394.72601</ele>
        <time>2023-07-04T15:27:22.000Z</time>
      </trkpt>
      <trkpt lat="45.85972" lon="4.59065">
        <ele>394.41568</ele>
        <time>2023-07-04T15:27:32.000Z</time>
      </trkpt>
      <trkpt lat="45.85969" lon="4.59063">
        <ele>394.06833</ele>
        <time>2023-07-04T15:27:34.000Z</time>
      </trkpt>
      <trkpt lat="45.85968" lon="4.59061">
        <ele>393.78119</ele>
        <time>2023-07-04T15:27:35.000Z</time>
      </trkpt>
      <trkpt lat="45.85966" lon="4.5906">
        <ele>393.85077</ele>
        <time>2023-07-04T15:27:36.000Z</time>
      </trkpt>
      <trkpt lat="45.85963" lon="4.5906">
        <ele>393.98175</ele>
        <time>2023-07-04T15:27:37.000Z</time>
      </trkpt>
      <trkpt lat="45.85962" lon="4.59062">
        <ele>394.10147</ele>
        <time>2023-07-04T15:27:38.000Z</time>
      </trkpt>
      <trkpt lat="45.85962" lon="4.59065">
        <ele>394.33478</ele>
        <time>2023-07-04T15:27:39.000Z</time>
      </trkpt>
      <trkpt lat="45.85963" lon="4.59067">
        <ele>394.61502</ele>
        <time>2023-07-04T15:27:40.000Z</time>
      </trkpt>
      <trkpt lat="45.85965" lon="4.59069">
        <ele>394.52216</ele>
        <time>2023-07-04T15:27:41.000Z</time>
      </trkpt>
      <trkpt lat="45.85968" lon="4.5907">
        <ele>394.40585</ele>
        <time>2023-07-04T15:27:42.000Z</time>
      </trkpt>
      <trkpt lat="45.85971" lon="4.59071">
        <ele>394.21921</ele>
        <time>2023-07-04T15:27:43.000Z</time>
      </trkpt>
      <trkpt lat="45.85973" lon="4.59075">
        <ele>393.95139</ele>
        <time>2023-07-04T15:27:44.000Z</time>
      </trkpt>
      <trkpt lat="45.85975" lon="4.59079">
        <ele>393.65875</ele>
        <time>2023-07-04T15:27:45.000Z</time>
      </trkpt>
      <trkpt lat="45.85976" lon="4.59083">
        <ele>393.2269</ele>
        <time>2023-07-04T15:27:46.000Z</time>
      </trkpt>
      <trkpt lat="45.85977" lon="4.59089">
        <ele>393.12714</ele>
        <time>2023-07-04T15:27:47.000Z</time>
      </trkpt>
      <trkpt lat="45.85977" lon="4.59094">
        <ele>393.04254</ele>
        <time>2023-07-04T15:27:48.000Z</time>
      </trkpt>
      <trkpt lat="45.85976" lon="4.59098">
        <ele>392.88931</ele>
        <time>2023-07-04T15:27:49.000Z</time>
      </trkpt>
      <trkpt lat="45.85976" lon="4.59103">
        <ele>392.81015</ele>
        <time>2023-07-04T15:27:50.000Z</time>
      </trkpt>
      <trkpt lat="45.85976" lon="4.59107">
        <ele>392.75467</ele>
        <time>2023-07-04T15:27:51.000Z</time>
      </trkpt>
      <trkpt lat="45.85975" lon="4.59112">
        <ele>392.55698</ele>
        <time>2023-07-04T15:27:52.000Z</time>
      </trkpt>
      <trkpt lat="45.85975" lon="4.59117">
        <ele>392.37332</ele>
        <time>2023-07-04T15:27:53.000Z</time>
      </trkpt>
      <trkpt lat="45.85974" lon="4.59122">
        <ele>392.20343</ele>
        <time>2023-07-04T15:27:54.000Z</time>
      </trkpt>
      <trkpt lat="45.85973" lon="4.59126">
        <ele>392.03461</ele>
        <time>2023-07-04T15:27:55.000Z</time>
      </trkpt>
      <trkpt lat="45.85972" lon="4.59131">
        <ele>391.6214</ele>
        <time>2023-07-04T15:27:56.000Z</time>
      </trkpt>
      <trkpt lat="45.85971" lon="4.59136">
        <ele>391.22858</ele>
        <time>2023-07-04T15:27:57.000Z</time>
      </trkpt>
      <trkpt lat="45.8597" lon="4.59142">
        <ele>390.90625</ele>
        <time>2023-07-04T15:27:58.000Z</time>
      </trkpt>
      <trkpt lat="45.8597" lon="4.59147">
        <ele>390.50171</ele>
        <time>2023-07-04T15:27:59.000Z</time>
      </trkpt>
      <trkpt lat="45.85969" lon="4.59153">
        <ele>390.08829</ele>
        <time>2023-07-04T15:28:00.000Z</time>
      </trkpt>
      <trkpt lat="45.85968" lon="4.59159">
        <ele>389.93695</ele>
        <time>2023-07-04T15:28:01.000Z</time>
      </trkpt>
      <trkpt lat="45.85967" lon="4.59165">
        <ele>389.8071</ele>
        <time>2023-07-04T15:28:02.000Z</time>
      </trkpt>
      <trkpt lat="45.85966" lon="4.59168">
        <ele>389.672</ele>
        <time>2023-07-04T15:28:03.000Z</time>
      </trkpt>
      <trkpt lat="45.85965" lon="4.59172">
        <ele>389.53275</ele>
        <time>2023-07-04T15:28:04.000Z</time>
      </trkpt>
      <trkpt lat="45.85965" lon="4.59176">
        <ele>389.4386</ele>
        <time>2023-07-04T15:28:05.000Z</time>
      </trkpt>
      <trkpt lat="45.85964" lon="4.5918">
        <ele>389.52435</ele>
        <time>2023-07-04T15:28:06.000Z</time>
      </trkpt>
      <trkpt lat="45.85963" lon="4.59184">
        <ele>389.66962</ele>
        <time>2023-07-04T15:28:07.000Z</time>
      </trkpt>
      <trkpt lat="45.85963" lon="4.59187">
        <ele>389.54865</ele>
        <time>2023-07-04T15:28:08.000Z</time>
      </trkpt>
      <trkpt lat="45.85962" lon="4.5919">
        <ele>389.54712</ele>
        <time>2023-07-04T15:28:09.000Z</time>
      </trkpt>
      <trkpt lat="45.85961" lon="4.59193">
        <ele>389.40094</ele>
        <time>2023-07-04T15:28:10.000Z</time>
      </trkpt>
      <trkpt lat="45.8596" lon="4.59196">
        <ele>389.18634</ele>
        <time>2023-07-04T15:28:11.000Z</time>
      </trkpt>
      <trkpt lat="45.8596" lon="4.592">
        <ele>388.84351</ele>
        <time>2023-07-04T15:28:12.000Z</time>
      </trkpt>
      <trkpt lat="45.85959" lon="4.59204">
        <ele>388.72473</ele>
        <time>2023-07-04T15:28:13.000Z</time>
      </trkpt>
      <trkpt lat="45.85958" lon="4.59207">
        <ele>388.60364</ele>
        <time>2023-07-04T15:28:14.000Z</time>
      </trkpt>
      <trkpt lat="45.85957" lon="4.5921">
        <ele>388.65067</ele>
        <time>2023-07-04T15:28:15.000Z</time>
      </trkpt>
      <trkpt lat="45.85956" lon="4.59214">
        <ele>388.73886</ele>
        <time>2023-07-04T15:28:16.000Z</time>
      </trkpt>
      <trkpt lat="45.85955" lon="4.59219">
        <ele>388.80319</ele>
        <time>2023-07-04T15:28:17.000Z</time>
      </trkpt>
      <trkpt lat="45.85954" lon="4.59224">
        <ele>389.02289</ele>
        <time>2023-07-04T15:28:18.000Z</time>
      </trkpt>
      <trkpt lat="45.85953" lon="4.59228">
        <ele>389.38495</ele>
        <time>2023-07-04T15:28:19.000Z</time>
      </trkpt>
      <trkpt lat="45.85951" lon="4.59232">
        <ele>389.3591</ele>
        <time>2023-07-04T15:28:20.000Z</time>
      </trkpt>
      <trkpt lat="45.8595" lon="4.59236">
        <ele>389.42047</ele>
        <time>2023-07-04T15:28:21.000Z</time>
      </trkpt>
      <trkpt lat="45.85948" lon="4.59239">
        <ele>389.45996</ele>
        <time>2023-07-04T15:28:22.000Z</time>
      </trkpt>
      <trkpt lat="45.85947" lon="4.59242">
        <ele>389.49103</ele>
        <time>2023-07-04T15:28:23.000Z</time>
      </trkpt>
      <trkpt lat="45.85946" lon="4.59245">
        <ele>389.51373</ele>
        <time>2023-07-04T15:28:24.000Z</time>
      </trkpt>
      <trkpt lat="45.85944" lon="4.59249">
        <ele>389.43634</ele>
        <time>2023-07-04T15:28:25.000Z</time>
      </trkpt>
      <trkpt lat="45.85942" lon="4.59253">
        <ele>389.21271</ele>
        <time>2023-07-04T15:28:26.000Z</time>
      </trkpt>
      <trkpt lat="45.85941" lon="4.59256">
        <ele>388.91403</ele>
        <time>2023-07-04T15:28:27.000Z</time>
      </trkpt>
      <trkpt lat="45.8594" lon="4.59258">
        <ele>388.95764</ele>
        <time>2023-07-04T15:28:28.000Z</time>
      </trkpt>
      <trkpt lat="45.85939" lon="4.59262">
        <ele>388.88251</ele>
        <time>2023-07-04T15:28:29.000Z</time>
      </trkpt>
      <trkpt lat="45.85938" lon="4.59265">
        <ele>389.04999</ele>
        <time>2023-07-04T15:28:30.000Z</time>
      </trkpt>
      <trkpt lat="45.85938" lon="4.59268">
        <ele>388.91583</ele>
        <time>2023-07-04T15:28:31.000Z</time>
      </trkpt>
      <trkpt lat="45.85937" lon="4.59272">
        <ele>388.72974</ele>
        <time>2023-07-04T15:28:32.000Z</time>
      </trkpt>
      <trkpt lat="45.85937" lon="4.59276">
        <ele>388.51193</ele>
        <time>2023-07-04T15:28:33.000Z</time>
      </trkpt>
      <trkpt lat="45.85937" lon="4.59281">
        <ele>387.81906</ele>
        <time>2023-07-04T15:28:34.000Z</time>
      </trkpt>
      <trkpt lat="45.85936" lon="4.59285">
        <ele>386.9624</ele>
        <time>2023-07-04T15:28:35.000Z</time>
      </trkpt>
      <trkpt lat="45.85936" lon="4.59289">
        <ele>386.0939</ele>
        <time>2023-07-04T15:28:36.000Z</time>
      </trkpt>
      <trkpt lat="45.85935" lon="4.59292">
        <ele>385.24551</ele>
        <time>2023-07-04T15:28:37.000Z</time>
      </trkpt>
      <trkpt lat="45.85934" lon="4.59294">
        <ele>384.15704</ele>
        <time>2023-07-04T15:28:39.000Z</time>
      </trkpt>
      <trkpt lat="45.85934" lon="4.59299">
        <ele>382.94583</ele>
        <time>2023-07-04T15:28:42.000Z</time>
      </trkpt>
      <trkpt lat="45.85935" lon="4.59304">
        <ele>382.1355</ele>
        <time>2023-07-04T15:28:43.000Z</time>
      </trkpt>
      <trkpt lat="45.85937" lon="4.59309">
        <ele>381.24829</ele>
        <time>2023-07-04T15:28:44.000Z</time>
      </trkpt>
      <trkpt lat="45.85936" lon="4.59319">
        <ele>380.41074</ele>
        <time>2023-07-04T15:28:45.000Z</time>
      </trkpt>
      <trkpt lat="45.85935" lon="4.59327">
        <ele>379.66742</ele>
        <time>2023-07-04T15:28:46.000Z</time>
      </trkpt>
      <trkpt lat="45.85933" lon="4.59334">
        <ele>378.90176</ele>
        <time>2023-07-04T15:28:47.000Z</time>
      </trkpt>
      <trkpt lat="45.85931" lon="4.59343">
        <ele>378.1814</ele>
        <time>2023-07-04T15:28:48.000Z</time>
      </trkpt>
      <trkpt lat="45.8593" lon="4.5935">
        <ele>377.42844</ele>
        <time>2023-07-04T15:28:49.000Z</time>
      </trkpt>
      <trkpt lat="45.85928" lon="4.59357">
        <ele>376.56464</ele>
        <time>2023-07-04T15:28:50.000Z</time>
      </trkpt>
      <trkpt lat="45.85928" lon="4.59361">
        <ele>375.67413</ele>
        <time>2023-07-04T15:28:51.000Z</time>
      </trkpt>
      <trkpt lat="45.85927" lon="4.59366">
        <ele>374.7478</ele>
        <time>2023-07-04T15:28:52.000Z</time>
      </trkpt>
      <trkpt lat="45.85927" lon="4.5937">
        <ele>373.61423</ele>
        <time>2023-07-04T15:28:53.000Z</time>
      </trkpt>
      <trkpt lat="45.85927" lon="4.59374">
        <ele>372.82388</ele>
        <time>2023-07-04T15:28:54.000Z</time>
      </trkpt>
      <trkpt lat="45.85926" lon="4.59381">
        <ele>372.20877</ele>
        <time>2023-07-04T15:28:55.000Z</time>
      </trkpt>
      <trkpt lat="45.85926" lon="4.59386">
        <ele>371.62299</ele>
        <time>2023-07-04T15:28:56.000Z</time>
      </trkpt>
      <trkpt lat="45.85927" lon="4.59392">
        <ele>371.47311</ele>
        <time>2023-07-04T15:28:57.000Z</time>
      </trkpt>
      <trkpt lat="45.85926" lon="4.59399">
        <ele>371.28745</ele>
        <time>2023-07-04T15:28:58.000Z</time>
      </trkpt>
      <trkpt lat="45.85926" lon="4.59405">
        <ele>371.08102</ele>
        <time>2023-07-04T15:28:59.000Z</time>
      </trkpt>
      <trkpt lat="45.85926" lon="4.59411">
        <ele>370.51581</ele>
        <time>2023-07-04T15:29:00.000Z</time>
      </trkpt>
      <trkpt lat="45.85926" lon="4.59418">
        <ele>369.99396</ele>
        <time>2023-07-04T15:29:01.000Z</time>
      </trkpt>
      <trkpt lat="45.85926" lon="4.59425">
        <ele>369.49957</ele>
        <time>2023-07-04T15:29:02.000Z</time>
      </trkpt>
      <trkpt lat="45.85926" lon="4.59432">
        <ele>369.00107</ele>
        <time>2023-07-04T15:29:03.000Z</time>
      </trkpt>
      <trkpt lat="45.85927" lon="4.5944">
        <ele>368.46808</ele>
        <time>2023-07-04T15:29:04.000Z</time>
      </trkpt>
      <trkpt lat="45.85927" lon="4.59448">
        <ele>367.89828</ele>
        <time>2023-07-04T15:29:05.000Z</time>
      </trkpt>
      <trkpt lat="45.85927" lon="4.59456">
        <ele>367.20065</ele>
        <time>2023-07-04T15:29:06.000Z</time>
      </trkpt>
      <trkpt lat="45.85926" lon="4.59464">
        <ele>366.49908</ele>
        <time>2023-07-04T15:29:07.000Z</time>
      </trkpt>
      <trkpt lat="45.85926" lon="4.59472">
        <ele>365.78656</ele>
        <time>2023-07-04T15:29:08.000Z</time>
      </trkpt>
      <trkpt lat="45.85926" lon="4.59481">
        <ele>365.05859</ele>
        <time>2023-07-04T15:29:09.000Z</time>
      </trkpt>
      <trkpt lat="45.85927" lon="4.5949">
        <ele>364.43927</ele>
        <time>2023-07-04T15:29:10.000Z</time>
      </trkpt>
      <trkpt lat="45.85928" lon="4.59498">
        <ele>363.7652</ele>
        <time>2023-07-04T15:29:11.000Z</time>
      </trkpt>
      <trkpt lat="45.85928" lon="4.59506">
        <ele>363.17313</ele>
        <time>2023-07-04T15:29:12.000Z</time>
      </trkpt>
      <trkpt lat="45.85928" lon="4.59514">
        <ele>362.56879</ele>
        <time>2023-07-04T15:29:13.000Z</time>
      </trkpt>
      <trkpt lat="45.85928" lon="4.59524">
        <ele>361.95352</ele>
        <time>2023-07-04T15:29:14.000Z</time>
      </trkpt>
      <trkpt lat="45.8593" lon="4.59533">
        <ele>361.29416</ele>
        <time>2023-07-04T15:29:15.000Z</time>
      </trkpt>
      <trkpt lat="45.85931" lon="4.5954">
        <ele>360.64087</ele>
        <time>2023-07-04T15:29:16.000Z</time>
      </trkpt>
      <trkpt lat="45.85932" lon="4.59547">
        <ele>360.00031</ele>
        <time>2023-07-04T15:29:17.000Z</time>
      </trkpt>
      <trkpt lat="45.85932" lon="4.59552">
        <ele>359.40137</ele>
        <time>2023-07-04T15:29:18.000Z</time>
      </trkpt>
      <trkpt lat="45.85932" lon="4.59558">
        <ele>359.23318</ele>
        <time>2023-07-04T15:29:19.000Z</time>
      </trkpt>
      <trkpt lat="45.85933" lon="4.59562">
        <ele>359.43646</ele>
        <time>2023-07-04T15:29:20.000Z</time>
      </trkpt>
      <trkpt lat="45.85934" lon="4.59566">
        <ele>359.68842</ele>
        <time>2023-07-04T15:29:21.000Z</time>
      </trkpt>
      <trkpt lat="45.85936" lon="4.59569">
        <ele>359.84039</ele>
        <time>2023-07-04T15:29:22.000Z</time>
      </trkpt>
      <trkpt lat="45.85936" lon="4.59572">
        <ele>360.02167</ele>
        <time>2023-07-04T15:29:24.000Z</time>
      </trkpt>
      <trkpt lat="45.85934" lon="4.59573">
        <ele>359.53134</ele>
        <time>2023-07-04T15:29:32.000Z</time>
      </trkpt>
      <trkpt lat="45.85934" lon="4.59577">
        <ele>359.05176</ele>
        <time>2023-07-04T15:29:34.000Z</time>
      </trkpt>
      <trkpt lat="45.85934" lon="4.59581">
        <ele>358.62274</ele>
        <time>2023-07-04T15:29:35.000Z</time>
      </trkpt>
      <trkpt lat="45.85935" lon="4.59583">
        <ele>358.1879</ele>
        <time>2023-07-04T15:29:36.000Z</time>
      </trkpt>
      <trkpt lat="45.85935" lon="4.59587">
        <ele>357.78909</ele>
        <time>2023-07-04T15:29:37.000Z</time>
      </trkpt>
      <trkpt lat="45.85936" lon="4.5959">
        <ele>357.40033</ele>
        <time>2023-07-04T15:29:38.000Z</time>
      </trkpt>
      <trkpt lat="45.85936" lon="4.59594">
        <ele>357.04474</ele>
        <time>2023-07-04T15:29:39.000Z</time>
      </trkpt>
      <trkpt lat="45.85936" lon="4.59598">
        <ele>356.71808</ele>
        <time>2023-07-04T15:29:40.000Z</time>
      </trkpt>
      <trkpt lat="45.85936" lon="4.59602">
        <ele>356.34851</ele>
        <time>2023-07-04T15:29:41.000Z</time>
      </trkpt>
      <trkpt lat="45.85936" lon="4.59606">
        <ele>356.62402</ele>
        <time>2023-07-04T15:29:42.000Z</time>
      </trkpt>
      <trkpt lat="45.85936" lon="4.59609">
        <ele>356.9061</ele>
        <time>2023-07-04T15:29:43.000Z</time>
      </trkpt>
      <trkpt lat="45.85937" lon="4.59613">
        <ele>357.19666</ele>
        <time>2023-07-04T15:29:44.000Z</time>
      </trkpt>
      <trkpt lat="45.85938" lon="4.59616">
        <ele>357.51462</ele>
        <time>2023-07-04T15:29:45.000Z</time>
      </trkpt>
      <trkpt lat="45.85939" lon="4.59619">
        <ele>357.82013</ele>
        <time>2023-07-04T15:29:46.000Z</time>
      </trkpt>
      <trkpt lat="45.85939" lon="4.59623">
        <ele>358.2287</ele>
        <time>2023-07-04T15:29:47.000Z</time>
      </trkpt>
      <trkpt lat="45.85939" lon="4.59626">
        <ele>358.21649</ele>
        <time>2023-07-04T15:29:48.000Z</time>
      </trkpt>
      <trkpt lat="45.85939" lon="4.59628">
        <ele>357.95065</ele>
        <time>2023-07-04T15:29:49.000Z</time>
      </trkpt>
      <trkpt lat="45.85939" lon="4.59633">
        <ele>357.50421</ele>
        <time>2023-07-04T15:29:51.000Z</time>
      </trkpt>
      <trkpt lat="45.85938" lon="4.59636">
        <ele>357.00784</ele>
        <time>2023-07-04T15:29:52.000Z</time>
      </trkpt>
      <trkpt lat="45.85938" lon="4.59641">
        <ele>356.51324</ele>
        <time>2023-07-04T15:29:54.000Z</time>
      </trkpt>
      <trkpt lat="45.85938" lon="4.59645">
        <ele>356.72177</ele>
        <time>2023-07-04T15:29:56.000Z</time>
      </trkpt>
      <trkpt lat="45.85939" lon="4.59649">
        <ele>356.9982</ele>
        <time>2023-07-04T15:29:58.000Z</time>
      </trkpt>
      <trkpt lat="45.8594" lon="4.59652">
        <ele>357.27325</ele>
        <time>2023-07-04T15:29:59.000Z</time>
      </trkpt>
      <trkpt lat="45.85941" lon="4.59655">
        <ele>357.59991</ele>
        <time>2023-07-04T15:30:00.000Z</time>
      </trkpt>
      <trkpt lat="45.85942" lon="4.5966">
        <ele>357.67984</ele>
        <time>2023-07-04T15:30:02.000Z</time>
      </trkpt>
      <trkpt lat="45.85942" lon="4.59662">
        <ele>357.75763</ele>
        <time>2023-07-04T15:30:03.000Z</time>
      </trkpt>
      <trkpt lat="45.85943" lon="4.59665">
        <ele>357.85092</ele>
        <time>2023-07-04T15:30:04.000Z</time>
      </trkpt>
      <trkpt lat="45.85943" lon="4.59668">
        <ele>357.94348</ele>
        <time>2023-07-04T15:30:05.000Z</time>
      </trkpt>
      <trkpt lat="45.85944" lon="4.59671">
        <ele>358.04373</ele>
        <time>2023-07-04T15:30:06.000Z</time>
      </trkpt>
      <trkpt lat="45.85944" lon="4.59674">
        <ele>357.51825</ele>
        <time>2023-07-04T15:30:07.000Z</time>
      </trkpt>
      <trkpt lat="45.85944" lon="4.59678">
        <ele>356.95612</ele>
        <time>2023-07-04T15:30:08.000Z</time>
      </trkpt>
      <trkpt lat="45.85944" lon="4.59681">
        <ele>356.34937</ele>
        <time>2023-07-04T15:30:09.000Z</time>
      </trkpt>
      <trkpt lat="45.85944" lon="4.59685">
        <ele>355.75082</ele>
        <time>2023-07-04T15:30:10.000Z</time>
      </trkpt>
      <trkpt lat="45.85944" lon="4.59689">
        <ele>355.19623</ele>
        <time>2023-07-04T15:30:11.000Z</time>
      </trkpt>
      <trkpt lat="45.85944" lon="4.59693">
        <ele>354.52908</ele>
        <time>2023-07-04T15:30:12.000Z</time>
      </trkpt>
      <trkpt lat="45.85944" lon="4.59697">
        <ele>353.30615</ele>
        <time>2023-07-04T15:30:13.000Z</time>
      </trkpt>
      <trkpt lat="45.85944" lon="4.59701">
        <ele>352.51746</ele>
        <time>2023-07-04T15:30:14.000Z</time>
      </trkpt>
      <trkpt lat="45.85944" lon="4.59705">
        <ele>351.8895</ele>
        <time>2023-07-04T15:30:15.000Z</time>
      </trkpt>
      <trkpt lat="45.85943" lon="4.59708">
        <ele>351.39685</ele>
        <time>2023-07-04T15:30:16.000Z</time>
      </trkpt>
      <trkpt lat="45.85942" lon="4.59712">
        <ele>350.90353</ele>
        <time>2023-07-04T15:30:17.000Z</time>
      </trkpt>
      <trkpt lat="45.85941" lon="4.59715">
        <ele>350.85846</ele>
        <time>2023-07-04T15:30:18.000Z</time>
      </trkpt>
      <trkpt lat="45.85941" lon="4.59718">
        <ele>350.76157</ele>
        <time>2023-07-04T15:30:19.000Z</time>
      </trkpt>
      <trkpt lat="45.8594" lon="4.59721">
        <ele>350.68533</ele>
        <time>2023-07-04T15:30:20.000Z</time>
      </trkpt>
      <trkpt lat="45.85939" lon="4.59724">
        <ele>350.59943</ele>
        <time>2023-07-04T15:30:21.000Z</time>
      </trkpt>
      <trkpt lat="45.85939" lon="4.59727">
        <ele>350.74481</ele>
        <time>2023-07-04T15:30:22.000Z</time>
      </trkpt>
      <trkpt lat="45.85939" lon="4.59731">
        <ele>350.92352</ele>
        <time>2023-07-04T15:30:23.000Z</time>
      </trkpt>
      <trkpt lat="45.85938" lon="4.59734">
        <ele>351.06027</ele>
        <time>2023-07-04T15:30:24.000Z</time>
      </trkpt>
      <trkpt lat="45.85938" lon="4.59737">
        <ele>351.2005</ele>
        <time>2023-07-04T15:30:25.000Z</time>
      </trkpt>
      <trkpt lat="45.85937" lon="4.5974">
        <ele>351.32559</ele>
        <time>2023-07-04T15:30:26.000Z</time>
      </trkpt>
      <trkpt lat="45.85936" lon="4.59743">
        <ele>351.42993</ele>
        <time>2023-07-04T15:30:27.000Z</time>
      </trkpt>
      <trkpt lat="45.85936" lon="4.59747">
        <ele>351.56567</ele>
        <time>2023-07-04T15:30:28.000Z</time>
      </trkpt>
      <trkpt lat="45.85935" lon="4.5975">
        <ele>351.33893</ele>
        <time>2023-07-04T15:30:29.000Z</time>
      </trkpt>
      <trkpt lat="45.85935" lon="4.59754">
        <ele>351.14822</ele>
        <time>2023-07-04T15:30:30.000Z</time>
      </trkpt>
      <trkpt lat="45.85934" lon="4.59757">
        <ele>350.90482</ele>
        <time>2023-07-04T15:30:31.000Z</time>
      </trkpt>
      <trkpt lat="45.85934" lon="4.5976">
        <ele>350.69357</ele>
        <time>2023-07-04T15:30:32.000Z</time>
      </trkpt>
      <trkpt lat="45.85933" lon="4.59763">
        <ele>351.06683</ele>
        <time>2023-07-04T15:30:33.000Z</time>
      </trkpt>
      <trkpt lat="45.85933" lon="4.59766">
        <ele>351.26849</ele>
        <time>2023-07-04T15:30:34.000Z</time>
      </trkpt>
      <trkpt lat="45.85932" lon="4.59769">
        <ele>351.4725</ele>
        <time>2023-07-04T15:30:35.000Z</time>
      </trkpt>
      <trkpt lat="45.85932" lon="4.59771">
        <ele>351.66583</ele>
        <time>2023-07-04T15:30:36.000Z</time>
      </trkpt>
      <trkpt lat="45.85931" lon="4.59776">
        <ele>352.26862</ele>
        <time>2023-07-04T15:30:38.000Z</time>
      </trkpt>
      <trkpt lat="45.85929" lon="4.5978">
        <ele>352.41556</ele>
        <time>2023-07-04T15:30:40.000Z</time>
      </trkpt>
      <trkpt lat="45.85929" lon="4.59783">
        <ele>352.56821</ele>
        <time>2023-07-04T15:30:41.000Z</time>
      </trkpt>
      <trkpt lat="45.85928" lon="4.59785">
        <ele>352.72192</ele>
        <time>2023-07-04T15:30:42.000Z</time>
      </trkpt>
      <trkpt lat="45.85926" lon="4.5979">
        <ele>352.92786</ele>
        <time>2023-07-04T15:30:44.000Z</time>
      </trkpt>
      <trkpt lat="45.85925" lon="4.59794">
        <ele>353.12543</ele>
        <time>2023-07-04T15:30:46.000Z</time>
      </trkpt>
      <trkpt lat="45.85924" lon="4.59798">
        <ele>352.90704</ele>
        <time>2023-07-04T15:30:48.000Z</time>
      </trkpt>
      <trkpt lat="45.85923" lon="4.59803">
        <ele>352.67896</ele>
        <time>2023-07-04T15:30:50.000Z</time>
      </trkpt>
      <trkpt lat="45.85922" lon="4.59807">
        <ele>352.45499</ele>
        <time>2023-07-04T15:30:52.000Z</time>
      </trkpt>
      <trkpt lat="45.85921" lon="4.59812">
        <ele>352.25415</ele>
        <time>2023-07-04T15:30:54.000Z</time>
      </trkpt>
      <trkpt lat="45.85921" lon="4.59815">
        <ele>352.10052</ele>
        <time>2023-07-04T15:30:55.000Z</time>
      </trkpt>
      <trkpt lat="45.85921" lon="4.59818">
        <ele>352.22971</ele>
        <time>2023-07-04T15:30:56.000Z</time>
      </trkpt>
      <trkpt lat="45.8592" lon="4.5982">
        <ele>352.76456</ele>
        <time>2023-07-04T15:30:57.000Z</time>
      </trkpt>
      <trkpt lat="45.8592" lon="4.59823">
        <ele>353.23837</ele>
        <time>2023-07-04T15:30:58.000Z</time>
      </trkpt>
      <trkpt lat="45.85919" lon="4.59828">
        <ele>353.80905</ele>
        <time>2023-07-04T15:31:00.000Z</time>
      </trkpt>
      <trkpt lat="45.85919" lon="4.59832">
        <ele>354.35492</ele>
        <time>2023-07-04T15:31:02.000Z</time>
      </trkpt>
      <trkpt lat="45.85918" lon="4.59836">
        <ele>355.02338</ele>
        <time>2023-07-04T15:31:04.000Z</time>
      </trkpt>
      <trkpt lat="45.85918" lon="4.59839">
        <ele>355.67706</ele>
        <time>2023-07-04T15:31:06.000Z</time>
      </trkpt>
      <trkpt lat="45.85918" lon="4.59842">
        <ele>357.13882</ele>
        <time>2023-07-04T15:31:08.000Z</time>
      </trkpt>
      <trkpt lat="45.85919" lon="4.59846">
        <ele>358.6712</ele>
        <time>2023-07-04T15:31:10.000Z</time>
      </trkpt>
      <trkpt lat="45.85919" lon="4.59849">
        <ele>359.46484</ele>
        <time>2023-07-04T15:31:11.000Z</time>
      </trkpt>
      <trkpt lat="45.85919" lon="4.59852">
        <ele>360.35117</ele>
        <time>2023-07-04T15:31:12.000Z</time>
      </trkpt>
      <trkpt lat="45.85919" lon="4.59855">
        <ele>361.23383</ele>
        <time>2023-07-04T15:31:13.000Z</time>
      </trkpt>
      <trkpt lat="45.85919" lon="4.59857">
        <ele>362.13629</ele>
        <time>2023-07-04T15:31:14.000Z</time>
      </trkpt>
      <trkpt lat="45.85919" lon="4.5986">
        <ele>362.99408</ele>
        <time>2023-07-04T15:31:15.000Z</time>
      </trkpt>
      <trkpt lat="45.85919" lon="4.59863">
        <ele>363.85629</ele>
        <time>2023-07-04T15:31:16.000Z</time>
      </trkpt>
      <trkpt lat="45.85919" lon="4.59866">
        <ele>365.11575</ele>
        <time>2023-07-04T15:31:17.000Z</time>
      </trkpt>
      <trkpt lat="45.85918" lon="4.5987">
        <ele>366.42093</ele>
        <time>2023-07-04T15:31:19.000Z</time>
      </trkpt>
      <trkpt lat="45.85918" lon="4.59874">
        <ele>367.7439</ele>
        <time>2023-07-04T15:31:21.000Z</time>
      </trkpt>
      <trkpt lat="45.85918" lon="4.59879">
        <ele>369.06012</ele>
        <time>2023-07-04T15:31:23.000Z</time>
      </trkpt>
      <trkpt lat="45.85918" lon="4.59882">
        <ele>370.37164</ele>
        <time>2023-07-04T15:31:24.000Z</time>
      </trkpt>
      <trkpt lat="45.85917" lon="4.59887">
        <ele>371.38065</ele>
        <time>2023-07-04T15:31:26.000Z</time>
      </trkpt>
      <trkpt lat="45.85916" lon="4.59891">
        <ele>372.41</ele>
        <time>2023-07-04T15:31:28.000Z</time>
      </trkpt>
      <trkpt lat="45.85916" lon="4.59894">
        <ele>373.465</ele>
        <time>2023-07-04T15:31:29.000Z</time>
      </trkpt>
      <trkpt lat="45.85916" lon="4.59898">
        <ele>374.42407</ele>
        <time>2023-07-04T15:31:30.000Z</time>
      </trkpt>
      <trkpt lat="45.85916" lon="4.59901">
        <ele>375.42047</ele>
        <time>2023-07-04T15:31:31.000Z</time>
      </trkpt>
      <trkpt lat="45.85916" lon="4.59904">
        <ele>376.2923</ele>
        <time>2023-07-04T15:31:32.000Z</time>
      </trkpt>
      <trkpt lat="45.85916" lon="4.59907">
        <ele>377.20264</ele>
        <time>2023-07-04T15:31:33.000Z</time>
      </trkpt>
      <trkpt lat="45.85916" lon="4.5991">
        <ele>376.61627</ele>
        <time>2023-07-04T15:31:34.000Z</time>
      </trkpt>
      <trkpt lat="45.85915" lon="4.59913">
        <ele>375.9949</ele>
        <time>2023-07-04T15:31:35.000Z</time>
      </trkpt>
      <trkpt lat="45.85915" lon="4.59915">
        <ele>375.72125</ele>
        <time>2023-07-04T15:31:36.000Z</time>
      </trkpt>
      <trkpt lat="45.85915" lon="4.59918">
        <ele>375.9523</ele>
        <time>2023-07-04T15:31:37.000Z</time>
      </trkpt>
      <trkpt lat="45.85915" lon="4.59922">
        <ele>376.18848</ele>
        <time>2023-07-04T15:31:38.000Z</time>
      </trkpt>
      <trkpt lat="45.85914" lon="4.59925">
        <ele>376.40445</ele>
        <time>2023-07-04T15:31:39.000Z</time>
      </trkpt>
      <trkpt lat="45.85915" lon="4.59929">
        <ele>376.61719</ele>
        <time>2023-07-04T15:31:40.000Z</time>
      </trkpt>
      <trkpt lat="45.85915" lon="4.59933">
        <ele>376.80969</ele>
        <time>2023-07-04T15:31:41.000Z</time>
      </trkpt>
      <trkpt lat="45.85914" lon="4.59938">
        <ele>377.06943</ele>
        <time>2023-07-04T15:31:42.000Z</time>
      </trkpt>
      <trkpt lat="45.85914" lon="4.59942">
        <ele>377.31757</ele>
        <time>2023-07-04T15:31:43.000Z</time>
      </trkpt>
      <trkpt lat="45.85914" lon="4.59947">
        <ele>377.55142</ele>
        <time>2023-07-04T15:31:44.000Z</time>
      </trkpt>
      <trkpt lat="45.85914" lon="4.59951">
        <ele>377.77557</ele>
        <time>2023-07-04T15:31:45.000Z</time>
      </trkpt>
      <trkpt lat="45.85914" lon="4.59955">
        <ele>377.96423</ele>
        <time>2023-07-04T15:31:46.000Z</time>
      </trkpt>
      <trkpt lat="45.85914" lon="4.59958">
        <ele>378.18378</ele>
        <time>2023-07-04T15:31:47.000Z</time>
      </trkpt>
      <trkpt lat="45.85914" lon="4.59961">
        <ele>378.38043</ele>
        <time>2023-07-04T15:31:48.000Z</time>
      </trkpt>
      <trkpt lat="45.85914" lon="4.59964">
        <ele>378.57074</ele>
        <time>2023-07-04T15:31:49.000Z</time>
      </trkpt>
      <trkpt lat="45.85911" lon="4.59967">
        <ele>378.93549</ele>
        <time>2023-07-04T15:31:51.000Z</time>
      </trkpt>
      <trkpt lat="45.85909" lon="4.59968">
        <ele>379.33435</ele>
        <time>2023-07-04T15:31:52.000Z</time>
      </trkpt>
      <trkpt lat="45.85907" lon="4.59967">
        <ele>379.81888</ele>
        <time>2023-07-04T15:31:53.000Z</time>
      </trkpt>
      <trkpt lat="45.85904" lon="4.59967">
        <ele>378.43756</ele>
        <time>2023-07-04T15:31:54.000Z</time>
      </trkpt>
      <trkpt lat="45.859" lon="4.59967">
        <ele>377.77115</ele>
        <time>2023-07-04T15:31:55.000Z</time>
      </trkpt>
      <trkpt lat="45.85896" lon="4.59967">
        <ele>377.07538</ele>
        <time>2023-07-04T15:31:56.000Z</time>
      </trkpt>
      <trkpt lat="45.85892" lon="4.59968">
        <ele>377.85007</ele>
        <time>2023-07-04T15:31:57.000Z</time>
      </trkpt>
      <trkpt lat="45.85887" lon="4.59968">
        <ele>376.59113</ele>
        <time>2023-07-04T15:31:58.000Z</time>
      </trkpt>
      <trkpt lat="45.85881" lon="4.59968">
        <ele>375.39624</ele>
        <time>2023-07-04T15:31:59.000Z</time>
      </trkpt>
      <trkpt lat="45.85877" lon="4.59967">
        <ele>374.41473</ele>
        <time>2023-07-04T15:32:00.000Z</time>
      </trkpt>
      <trkpt lat="45.85873" lon="4.59968">
        <ele>374.56033</ele>
        <time>2023-07-04T15:32:01.000Z</time>
      </trkpt>
      <trkpt lat="45.85867" lon="4.59968">
        <ele>374.78131</ele>
        <time>2023-07-04T15:32:02.000Z</time>
      </trkpt>
      <trkpt lat="45.85862" lon="4.59968">
        <ele>375.1189</ele>
        <time>2023-07-04T15:32:03.000Z</time>
      </trkpt>
      <trkpt lat="45.85857" lon="4.59968">
        <ele>375.38608</ele>
        <time>2023-07-04T15:32:04.000Z</time>
      </trkpt>
      <trkpt lat="45.85852" lon="4.59968">
        <ele>375.60223</ele>
        <time>2023-07-04T15:32:05.000Z</time>
      </trkpt>
      <trkpt lat="45.85846" lon="4.59968">
        <ele>375.74548</ele>
        <time>2023-07-04T15:32:06.000Z</time>
      </trkpt>
      <trkpt lat="45.8584" lon="4.59968">
        <ele>375.88202</ele>
        <time>2023-07-04T15:32:07.000Z</time>
      </trkpt>
      <trkpt lat="45.85834" lon="4.59967">
        <ele>376.00696</ele>
        <time>2023-07-04T15:32:08.000Z</time>
      </trkpt>
      <trkpt lat="45.85829" lon="4.59967">
        <ele>375.98135</ele>
        <time>2023-07-04T15:32:09.000Z</time>
      </trkpt>
      <trkpt lat="45.85824" lon="4.59963">
        <ele>375.92596</ele>
        <time>2023-07-04T15:32:10.000Z</time>
      </trkpt>
      <trkpt lat="45.85819" lon="4.59961">
        <ele>374.95224</ele>
        <time>2023-07-04T15:32:11.000Z</time>
      </trkpt>
      <trkpt lat="45.85814" lon="4.59962">
        <ele>373.86322</ele>
        <time>2023-07-04T15:32:12.000Z</time>
      </trkpt>
      <trkpt lat="45.85809" lon="4.59966">
        <ele>372.78369</ele>
        <time>2023-07-04T15:32:13.000Z</time>
      </trkpt>
      <trkpt lat="45.85806" lon="4.59971">
        <ele>374.31613</ele>
        <time>2023-07-04T15:32:14.000Z</time>
      </trkpt>
      <trkpt lat="45.85802" lon="4.59976">
        <ele>375.90195</ele>
        <time>2023-07-04T15:32:15.000Z</time>
      </trkpt>
      <trkpt lat="45.858" lon="4.59981">
        <ele>377.47409</ele>
        <time>2023-07-04T15:32:16.000Z</time>
      </trkpt>
      <trkpt lat="45.85797" lon="4.59987">
        <ele>377.21539</ele>
        <time>2023-07-04T15:32:17.000Z</time>
      </trkpt>
      <trkpt lat="45.85794" lon="4.59993">
        <ele>378.41461</ele>
        <time>2023-07-04T15:32:18.000Z</time>
      </trkpt>
      <trkpt lat="45.85792" lon="4.6">
        <ele>379.54095</ele>
        <time>2023-07-04T15:32:19.000Z</time>
      </trkpt>
      <trkpt lat="45.8579" lon="4.60006">
        <ele>380.43579</ele>
        <time>2023-07-04T15:32:20.000Z</time>
      </trkpt>
      <trkpt lat="45.85789" lon="4.60014">
        <ele>380.17896</ele>
        <time>2023-07-04T15:32:21.000Z</time>
      </trkpt>
      <trkpt lat="45.85787" lon="4.60022">
        <ele>379.88232</ele>
        <time>2023-07-04T15:32:22.000Z</time>
      </trkpt>
      <trkpt lat="45.85784" lon="4.6003">
        <ele>379.40988</ele>
        <time>2023-07-04T15:32:23.000Z</time>
      </trkpt>
      <trkpt lat="45.85781" lon="4.60038">
        <ele>378.95853</ele>
        <time>2023-07-04T15:32:24.000Z</time>
      </trkpt>
      <trkpt lat="45.85779" lon="4.60045">
        <ele>378.55911</ele>
        <time>2023-07-04T15:32:25.000Z</time>
      </trkpt>
      <trkpt lat="45.85778" lon="4.60054">
        <ele>378.23447</ele>
        <time>2023-07-04T15:32:26.000Z</time>
      </trkpt>
      <trkpt lat="45.85776" lon="4.60062">
        <ele>377.90955</ele>
        <time>2023-07-04T15:32:27.000Z</time>
      </trkpt>
      <trkpt lat="45.85776" lon="4.6007">
        <ele>377.58551</ele>
        <time>2023-07-04T15:32:28.000Z</time>
      </trkpt>
      <trkpt lat="45.85777" lon="4.60078">
        <ele>377.4165</ele>
        <time>2023-07-04T15:32:29.000Z</time>
      </trkpt>
      <trkpt lat="45.85779" lon="4.60084">
        <ele>377.29816</ele>
        <time>2023-07-04T15:32:30.000Z</time>
      </trkpt>
      <trkpt lat="45.8578" lon="4.60092">
        <ele>378.10373</ele>
        <time>2023-07-04T15:32:31.000Z</time>
      </trkpt>
      <trkpt lat="45.85781" lon="4.60099">
        <ele>378.96051</ele>
        <time>2023-07-04T15:32:32.000Z</time>
      </trkpt>
      <trkpt lat="45.85782" lon="4.60106">
        <ele>379.71216</ele>
        <time>2023-07-04T15:32:33.000Z</time>
      </trkpt>
      <trkpt lat="45.85783" lon="4.60113">
        <ele>379.69809</ele>
        <time>2023-07-04T15:32:34.000Z</time>
      </trkpt>
      <trkpt lat="45.85786" lon="4.60118">
        <ele>379.6969</ele>
        <time>2023-07-04T15:32:35.000Z</time>
      </trkpt>
      <trkpt lat="45.85791" lon="4.60121">
        <ele>379.69559</ele>
        <time>2023-07-04T15:32:36.000Z</time>
      </trkpt>
      <trkpt lat="45.85796" lon="4.60122">
        <ele>379.73233</ele>
        <time>2023-07-04T15:32:37.000Z</time>
      </trkpt>
      <trkpt lat="45.858" lon="4.60122">
        <ele>379.77832</ele>
        <time>2023-07-04T15:32:38.000Z</time>
      </trkpt>
      <trkpt lat="45.85805" lon="4.60122">
        <ele>379.84143</ele>
        <time>2023-07-04T15:32:39.000Z</time>
      </trkpt>
      <trkpt lat="45.85809" lon="4.60119">
        <ele>379.90155</ele>
        <time>2023-07-04T15:32:40.000Z</time>
      </trkpt>
      <trkpt lat="45.85814" lon="4.60115">
        <ele>380.00867</ele>
        <time>2023-07-04T15:32:41.000Z</time>
      </trkpt>
      <trkpt lat="45.85819" lon="4.60111">
        <ele>380.07806</ele>
        <time>2023-07-04T15:32:42.000Z</time>
      </trkpt>
      <trkpt lat="45.85823" lon="4.60107">
        <ele>380.14175</ele>
        <time>2023-07-04T15:32:43.000Z</time>
      </trkpt>
      <trkpt lat="45.85828" lon="4.60105">
        <ele>380.27777</ele>
        <time>2023-07-04T15:32:44.000Z</time>
      </trkpt>
      <trkpt lat="45.85834" lon="4.60106">
        <ele>380.40039</ele>
        <time>2023-07-04T15:32:45.000Z</time>
      </trkpt>
      <trkpt lat="45.85837" lon="4.60109">
        <ele>380.54791</ele>
        <time>2023-07-04T15:32:46.000Z</time>
      </trkpt>
      <trkpt lat="45.8584" lon="4.60114">
        <ele>380.03079</ele>
        <time>2023-07-04T15:32:47.000Z</time>
      </trkpt>
      <trkpt lat="45.85843" lon="4.6012">
        <ele>379.04385</ele>
        <time>2023-07-04T15:32:48.000Z</time>
      </trkpt>
      <trkpt lat="45.85846" lon="4.60126">
        <ele>378.07935</ele>
        <time>2023-07-04T15:32:49.000Z</time>
      </trkpt>
      <trkpt lat="45.85849" lon="4.60131">
        <ele>377.10742</ele>
        <time>2023-07-04T15:32:50.000Z</time>
      </trkpt>
      <trkpt lat="45.85853" lon="4.60136">
        <ele>375.98428</ele>
        <time>2023-07-04T15:32:51.000Z</time>
      </trkpt>
      <trkpt lat="45.85857" lon="4.60141">
        <ele>374.84772</ele>
        <time>2023-07-04T15:32:52.000Z</time>
      </trkpt>
      <trkpt lat="45.85861" lon="4.60146">
        <ele>373.93942</ele>
        <time>2023-07-04T15:32:53.000Z</time>
      </trkpt>
      <trkpt lat="45.85863" lon="4.6015">
        <ele>373.02435</ele>
        <time>2023-07-04T15:32:54.000Z</time>
      </trkpt>
      <trkpt lat="45.85866" lon="4.60156">
        <ele>371.82086</ele>
        <time>2023-07-04T15:32:55.000Z</time>
      </trkpt>
      <trkpt lat="45.8587" lon="4.60162">
        <ele>371.75763</ele>
        <time>2023-07-04T15:32:56.000Z</time>
      </trkpt>
      <trkpt lat="45.85875" lon="4.60167">
        <ele>371.96124</ele>
        <time>2023-07-04T15:32:57.000Z</time>
      </trkpt>
      <trkpt lat="45.85878" lon="4.60173">
        <ele>372.14005</ele>
        <time>2023-07-04T15:32:58.000Z</time>
      </trkpt>
      <trkpt lat="45.85881" lon="4.6018">
        <ele>372.14084</ele>
        <time>2023-07-04T15:32:59.000Z</time>
      </trkpt>
      <trkpt lat="45.85884" lon="4.60187">
        <ele>372.42352</ele>
        <time>2023-07-04T15:33:00.000Z</time>
      </trkpt>
      <trkpt lat="45.85887" lon="4.60193">
        <ele>372.67841</ele>
        <time>2023-07-04T15:33:01.000Z</time>
      </trkpt>
      <trkpt lat="45.85889" lon="4.602">
        <ele>373.06683</ele>
        <time>2023-07-04T15:33:02.000Z</time>
      </trkpt>
      <trkpt lat="45.85893" lon="4.60206">
        <ele>373.47412</ele>
        <time>2023-07-04T15:33:03.000Z</time>
      </trkpt>
      <trkpt lat="45.85896" lon="4.60213">
        <ele>373.61496</ele>
        <time>2023-07-04T15:33:04.000Z</time>
      </trkpt>
      <trkpt lat="45.85899" lon="4.60219">
        <ele>373.76617</ele>
        <time>2023-07-04T15:33:05.000Z</time>
      </trkpt>
      <trkpt lat="45.85902" lon="4.60225">
        <ele>373.89069</ele>
        <time>2023-07-04T15:33:06.000Z</time>
      </trkpt>
      <trkpt lat="45.85906" lon="4.60231">
        <ele>374.70889</ele>
        <time>2023-07-04T15:33:07.000Z</time>
      </trkpt>
      <trkpt lat="45.85909" lon="4.60236">
        <ele>375.99808</ele>
        <time>2023-07-04T15:33:08.000Z</time>
      </trkpt>
      <trkpt lat="45.85912" lon="4.60242">
        <ele>377.25879</ele>
        <time>2023-07-04T15:33:09.000Z</time>
      </trkpt>
      <trkpt lat="45.85916" lon="4.60248">
        <ele>378.50632</ele>
        <time>2023-07-04T15:33:10.000Z</time>
      </trkpt>
      <trkpt lat="45.8592" lon="4.60255">
        <ele>379.77515</ele>
        <time>2023-07-04T15:33:11.000Z</time>
      </trkpt>
      <trkpt lat="45.85923" lon="4.60261">
        <ele>381.08154</ele>
        <time>2023-07-04T15:33:12.000Z</time>
      </trkpt>
      <trkpt lat="45.85926" lon="4.60268">
        <ele>382.16815</ele>
        <time>2023-07-04T15:33:13.000Z</time>
      </trkpt>
      <trkpt lat="45.85929" lon="4.60274">
        <ele>383.37323</ele>
        <time>2023-07-04T15:33:14.000Z</time>
      </trkpt>
      <trkpt lat="45.85934" lon="4.6028">
        <ele>384.79254</ele>
        <time>2023-07-04T15:33:15.000Z</time>
      </trkpt>
      <trkpt lat="45.85937" lon="4.60287">
        <ele>385.15698</ele>
        <time>2023-07-04T15:33:16.000Z</time>
      </trkpt>
      <trkpt lat="45.8594" lon="4.60293">
        <ele>385.302</ele>
        <time>2023-07-04T15:33:17.000Z</time>
      </trkpt>
      <trkpt lat="45.85943" lon="4.603">
        <ele>385.48749</ele>
        <time>2023-07-04T15:33:18.000Z</time>
      </trkpt>
      <trkpt lat="45.85946" lon="4.60306">
        <ele>385.84406</ele>
        <time>2023-07-04T15:33:19.000Z</time>
      </trkpt>
      <trkpt lat="45.8595" lon="4.60312">
        <ele>385.89676</ele>
        <time>2023-07-04T15:33:20.000Z</time>
      </trkpt>
      <trkpt lat="45.85953" lon="4.60318">
        <ele>385.95673</ele>
        <time>2023-07-04T15:33:21.000Z</time>
      </trkpt>
      <trkpt lat="45.85956" lon="4.60324">
        <ele>385.92557</ele>
        <time>2023-07-04T15:33:22.000Z</time>
      </trkpt>
      <trkpt lat="45.85958" lon="4.6033">
        <ele>385.90988</ele>
        <time>2023-07-04T15:33:23.000Z</time>
      </trkpt>
      <trkpt lat="45.85961" lon="4.60336">
        <ele>386.15381</ele>
        <time>2023-07-04T15:33:24.000Z</time>
      </trkpt>
      <trkpt lat="45.85964" lon="4.60342">
        <ele>386.39639</ele>
        <time>2023-07-04T15:33:25.000Z</time>
      </trkpt>
      <trkpt lat="45.85967" lon="4.60348">
        <ele>386.65158</ele>
        <time>2023-07-04T15:33:26.000Z</time>
      </trkpt>
      <trkpt lat="45.8597" lon="4.60353">
        <ele>386.87848</ele>
        <time>2023-07-04T15:33:27.000Z</time>
      </trkpt>
      <trkpt lat="45.85973" lon="4.60359">
        <ele>387.1254</ele>
        <time>2023-07-04T15:33:28.000Z</time>
      </trkpt>
      <trkpt lat="45.85977" lon="4.60364">
        <ele>387.37509</ele>
        <time>2023-07-04T15:33:29.000Z</time>
      </trkpt>
      <trkpt lat="45.85981" lon="4.60369">
        <ele>387.5947</ele>
        <time>2023-07-04T15:33:30.000Z</time>
      </trkpt>
      <trkpt lat="45.85985" lon="4.60374">
        <ele>387.79181</ele>
        <time>2023-07-04T15:33:31.000Z</time>
      </trkpt>
      <trkpt lat="45.85989" lon="4.6038">
        <ele>387.98917</ele>
        <time>2023-07-04T15:33:32.000Z</time>
      </trkpt>
      <trkpt lat="45.85993" lon="4.60386">
        <ele>388.21271</ele>
        <time>2023-07-04T15:33:33.000Z</time>
      </trkpt>
      <trkpt lat="45.85997" lon="4.6039">
        <ele>388.32416</ele>
        <time>2023-07-04T15:33:34.000Z</time>
      </trkpt>
      <trkpt lat="45.86" lon="4.60396">
        <ele>388.41571</ele>
        <time>2023-07-04T15:33:35.000Z</time>
      </trkpt>
      <trkpt lat="45.86004" lon="4.60401">
        <ele>388.44885</ele>
        <time>2023-07-04T15:33:36.000Z</time>
      </trkpt>
      <trkpt lat="45.86008" lon="4.60406">
        <ele>388.69745</ele>
        <time>2023-07-04T15:33:37.000Z</time>
      </trkpt>
      <trkpt lat="45.86011" lon="4.60412">
        <ele>388.87119</ele>
        <time>2023-07-04T15:33:38.000Z</time>
      </trkpt>
      <trkpt lat="45.86015" lon="4.60416">
        <ele>389.0538</ele>
        <time>2023-07-04T15:33:39.000Z</time>
      </trkpt>
      <trkpt lat="45.86019" lon="4.60419">
        <ele>389.27081</ele>
        <time>2023-07-04T15:33:40.000Z</time>
      </trkpt>
      <trkpt lat="45.86024" lon="4.60424">
        <ele>389.51071</ele>
        <time>2023-07-04T15:33:41.000Z</time>
      </trkpt>
      <trkpt lat="45.86028" lon="4.60427">
        <ele>389.75061</ele>
        <time>2023-07-04T15:33:42.000Z</time>
      </trkpt>
      <trkpt lat="45.86033" lon="4.60432">
        <ele>389.96219</ele>
        <time>2023-07-04T15:33:43.000Z</time>
      </trkpt>
      <trkpt lat="45.86038" lon="4.60435">
        <ele>390.16885</ele>
        <time>2023-07-04T15:33:44.000Z</time>
      </trkpt>
      <trkpt lat="45.86043" lon="4.60439">
        <ele>390.37213</ele>
        <time>2023-07-04T15:33:45.000Z</time>
      </trkpt>
      <trkpt lat="45.86047" lon="4.60442">
        <ele>390.61249</ele>
        <time>2023-07-04T15:33:46.000Z</time>
      </trkpt>
      <trkpt lat="45.86053" lon="4.60445">
        <ele>390.90805</ele>
        <time>2023-07-04T15:33:47.000Z</time>
      </trkpt>
      <trkpt lat="45.86058" lon="4.60448">
        <ele>391.21008</ele>
        <time>2023-07-04T15:33:48.000Z</time>
      </trkpt>
      <trkpt lat="45.86062" lon="4.60451">
        <ele>391.50479</ele>
        <time>2023-07-04T15:33:49.000Z</time>
      </trkpt>
      <trkpt lat="45.86067" lon="4.60455">
        <ele>391.84787</ele>
        <time>2023-07-04T15:33:50.000Z</time>
      </trkpt>
      <trkpt lat="45.86072" lon="4.60458">
        <ele>392.17792</ele>
        <time>2023-07-04T15:33:51.000Z</time>
      </trkpt>
      <trkpt lat="45.86077" lon="4.60462">
        <ele>392.48492</ele>
        <time>2023-07-04T15:33:52.000Z</time>
      </trkpt>
      <trkpt lat="45.86081" lon="4.60463">
        <ele>392.85269</ele>
        <time>2023-07-04T15:33:53.000Z</time>
      </trkpt>
      <trkpt lat="45.86086" lon="4.60466">
        <ele>393.26599</ele>
        <time>2023-07-04T15:33:54.000Z</time>
      </trkpt>
      <trkpt lat="45.86091" lon="4.60469">
        <ele>393.7439</ele>
        <time>2023-07-04T15:33:55.000Z</time>
      </trkpt>
      <trkpt lat="45.86096" lon="4.60471">
        <ele>394.23782</ele>
        <time>2023-07-04T15:33:56.000Z</time>
      </trkpt>
      <trkpt lat="45.861" lon="4.60474">
        <ele>394.52939</ele>
        <time>2023-07-04T15:33:57.000Z</time>
      </trkpt>
      <trkpt lat="45.86106" lon="4.60477">
        <ele>394.89633</ele>
        <time>2023-07-04T15:33:58.000Z</time>
      </trkpt>
      <trkpt lat="45.8611" lon="4.6048">
        <ele>395.23996</ele>
        <time>2023-07-04T15:33:59.000Z</time>
      </trkpt>
      <trkpt lat="45.86115" lon="4.60484">
        <ele>395.61691</ele>
        <time>2023-07-04T15:34:00.000Z</time>
      </trkpt>
      <trkpt lat="45.86119" lon="4.60486">
        <ele>395.96893</ele>
        <time>2023-07-04T15:34:01.000Z</time>
      </trkpt>
      <trkpt lat="45.86122" lon="4.60489">
        <ele>396.51288</ele>
        <time>2023-07-04T15:34:02.000Z</time>
      </trkpt>
      <trkpt lat="45.86126" lon="4.60491">
        <ele>395.62604</ele>
        <time>2023-07-04T15:34:03.000Z</time>
      </trkpt>
      <trkpt lat="45.86128" lon="4.60494">
        <ele>394.75656</ele>
        <time>2023-07-04T15:34:04.000Z</time>
      </trkpt>
      <trkpt lat="45.86131" lon="4.60496">
        <ele>393.85156</ele>
        <time>2023-07-04T15:34:05.000Z</time>
      </trkpt>
      <trkpt lat="45.86134" lon="4.60499">
        <ele>392.94351</ele>
        <time>2023-07-04T15:34:06.000Z</time>
      </trkpt>
      <trkpt lat="45.86137" lon="4.60501">
        <ele>392.01828</ele>
        <time>2023-07-04T15:34:07.000Z</time>
      </trkpt>
      <trkpt lat="45.86139" lon="4.60503">
        <ele>391.03882</ele>
        <time>2023-07-04T15:34:08.000Z</time>
      </trkpt>
      <trkpt lat="45.86143" lon="4.60504">
        <ele>390.03125</ele>
        <time>2023-07-04T15:34:09.000Z</time>
      </trkpt>
      <trkpt lat="45.86147" lon="4.60507">
        <ele>389.00891</ele>
        <time>2023-07-04T15:34:10.000Z</time>
      </trkpt>
      <trkpt lat="45.86151" lon="4.60509">
        <ele>388.01904</ele>
        <time>2023-07-04T15:34:11.000Z</time>
      </trkpt>
      <trkpt lat="45.86155" lon="4.60512">
        <ele>387.03165</ele>
        <time>2023-07-04T15:34:12.000Z</time>
      </trkpt>
      <trkpt lat="45.86159" lon="4.60514">
        <ele>385.94418</ele>
        <time>2023-07-04T15:34:13.000Z</time>
      </trkpt>
      <trkpt lat="45.86162" lon="4.60516">
        <ele>384.79706</ele>
        <time>2023-07-04T15:34:14.000Z</time>
      </trkpt>
      <trkpt lat="45.86164" lon="4.6052">
        <ele>383.57904</ele>
        <time>2023-07-04T15:34:15.000Z</time>
      </trkpt>
      <trkpt lat="45.86164" lon="4.60524">
        <ele>382.32278</ele>
        <time>2023-07-04T15:34:16.000Z</time>
      </trkpt>
      <trkpt lat="45.86162" lon="4.60529">
        <ele>381.26831</ele>
        <time>2023-07-04T15:34:17.000Z</time>
      </trkpt>
      <trkpt lat="45.86159" lon="4.60534">
        <ele>381.16815</ele>
        <time>2023-07-04T15:34:18.000Z</time>
      </trkpt>
      <trkpt lat="45.86155" lon="4.60538">
        <ele>381.08301</ele>
        <time>2023-07-04T15:34:19.000Z</time>
      </trkpt>
      <trkpt lat="45.86151" lon="4.60543">
        <ele>380.94717</ele>
        <time>2023-07-04T15:34:20.000Z</time>
      </trkpt>
      <trkpt lat="45.86147" lon="4.60549">
        <ele>380.80099</ele>
        <time>2023-07-04T15:34:21.000Z</time>
      </trkpt>
      <trkpt lat="45.86143" lon="4.60555">
        <ele>380.44043</ele>
        <time>2023-07-04T15:34:22.000Z</time>
      </trkpt>
      <trkpt lat="45.86139" lon="4.60561">
        <ele>381.45746</ele>
        <time>2023-07-04T15:34:23.000Z</time>
      </trkpt>
      <trkpt lat="45.86134" lon="4.60566">
        <ele>382.81573</ele>
        <time>2023-07-04T15:34:24.000Z</time>
      </trkpt>
      <trkpt lat="45.8613" lon="4.60572">
        <ele>384.17426</ele>
        <time>2023-07-04T15:34:25.000Z</time>
      </trkpt>
      <trkpt lat="45.86125" lon="4.60578">
        <ele>385.32944</ele>
        <time>2023-07-04T15:34:26.000Z</time>
      </trkpt>
      <trkpt lat="45.86121" lon="4.60584">
        <ele>386.5123</ele>
        <time>2023-07-04T15:34:27.000Z</time>
      </trkpt>
      <trkpt lat="45.86117" lon="4.60589">
        <ele>387.67755</ele>
        <time>2023-07-04T15:34:28.000Z</time>
      </trkpt>
      <trkpt lat="45.86113" lon="4.60595">
        <ele>388.87039</ele>
        <time>2023-07-04T15:34:29.000Z</time>
      </trkpt>
      <trkpt lat="45.86108" lon="4.60601">
        <ele>390.02603</ele>
        <time>2023-07-04T15:34:30.000Z</time>
      </trkpt>
      <trkpt lat="45.86103" lon="4.60606">
        <ele>391.15689</ele>
        <time>2023-07-04T15:34:31.000Z</time>
      </trkpt>
      <trkpt lat="45.86099" lon="4.60611">
        <ele>392.27454</ele>
        <time>2023-07-04T15:34:32.000Z</time>
      </trkpt>
      <trkpt lat="45.86095" lon="4.60617">
        <ele>393.37628</ele>
        <time>2023-07-04T15:34:33.000Z</time>
      </trkpt>
      <trkpt lat="45.86089" lon="4.60622">
        <ele>394.4801</ele>
        <time>2023-07-04T15:34:34.000Z</time>
      </trkpt>
      <trkpt lat="45.86084" lon="4.60626">
        <ele>395.55768</ele>
        <time>2023-07-04T15:34:35.000Z</time>
      </trkpt>
      <trkpt lat="45.86078" lon="4.6063">
        <ele>396.63834</ele>
        <time>2023-07-04T15:34:36.000Z</time>
      </trkpt>
      <trkpt lat="45.86073" lon="4.60634">
        <ele>397.7254</ele>
        <time>2023-07-04T15:34:37.000Z</time>
      </trkpt>
      <trkpt lat="45.86068" lon="4.60637">
        <ele>397.80133</ele>
        <time>2023-07-04T15:34:38.000Z</time>
      </trkpt>
      <trkpt lat="45.86064" lon="4.60639">
        <ele>396.94058</ele>
        <time>2023-07-04T15:34:39.000Z</time>
      </trkpt>
      <trkpt lat="45.86061" lon="4.60641">
        <ele>396.07898</ele>
        <time>2023-07-04T15:34:40.000Z</time>
      </trkpt>
      <trkpt lat="45.8606" lon="4.60644">
        <ele>395.04376</ele>
        <time>2023-07-04T15:34:41.000Z</time>
      </trkpt>
      <trkpt lat="45.86061" lon="4.60647">
        <ele>394.02182</ele>
        <time>2023-07-04T15:34:42.000Z</time>
      </trkpt>
      <trkpt lat="45.86064" lon="4.60646">
        <ele>393.05087</ele>
        <time>2023-07-04T15:34:43.000Z</time>
      </trkpt>
      <trkpt lat="45.86067" lon="4.60644">
        <ele>391.96683</ele>
        <time>2023-07-04T15:34:44.000Z</time>
      </trkpt>
      <trkpt lat="45.8607" lon="4.6064">
        <ele>390.63678</ele>
        <time>2023-07-04T15:34:45.000Z</time>
      </trkpt>
      <trkpt lat="45.86073" lon="4.60637">
        <ele>389.49213</ele>
        <time>2023-07-04T15:34:46.000Z</time>
      </trkpt>
      <trkpt lat="45.86076" lon="4.60635">
        <ele>388.30365</ele>
        <time>2023-07-04T15:34:47.000Z</time>
      </trkpt>
      <trkpt lat="45.8608" lon="4.60632">
        <ele>387.04779</ele>
        <time>2023-07-04T15:34:48.000Z</time>
      </trkpt>
      <trkpt lat="45.86082" lon="4.60628">
        <ele>386.17856</ele>
        <time>2023-07-04T15:34:49.000Z</time>
      </trkpt>
      <trkpt lat="45.86081" lon="4.60622">
        <ele>386.20618</ele>
        <time>2023-07-04T15:34:50.000Z</time>
      </trkpt>
      <trkpt lat="45.86079" lon="4.60617">
        <ele>386.23615</ele>
        <time>2023-07-04T15:34:51.000Z</time>
      </trkpt>
      <trkpt lat="45.86075" lon="4.60613">
        <ele>386.27374</ele>
        <time>2023-07-04T15:34:52.000Z</time>
      </trkpt>
      <trkpt lat="45.86071" lon="4.60609">
        <ele>386.31033</ele>
        <time>2023-07-04T15:34:53.000Z</time>
      </trkpt>
      <trkpt lat="45.86067" lon="4.60605">
        <ele>386.35272</ele>
        <time>2023-07-04T15:34:54.000Z</time>
      </trkpt>
      <trkpt lat="45.86062" lon="4.606">
        <ele>386.40363</ele>
        <time>2023-07-04T15:34:55.000Z</time>
      </trkpt>
      <trkpt lat="45.86058" lon="4.60596">
        <ele>386.53253</ele>
        <time>2023-07-04T15:34:56.000Z</time>
      </trkpt>
      <trkpt lat="45.86053" lon="4.60591">
        <ele>386.69781</ele>
        <time>2023-07-04T15:34:57.000Z</time>
      </trkpt>
      <trkpt lat="45.86048" lon="4.60586">
        <ele>386.89252</ele>
        <time>2023-07-04T15:34:58.000Z</time>
      </trkpt>
      <trkpt lat="45.86043" lon="4.60583">
        <ele>387.78473</ele>
        <time>2023-07-04T15:34:59.000Z</time>
      </trkpt>
      <trkpt lat="45.86038" lon="4.60578">
        <ele>388.72571</ele>
        <time>2023-07-04T15:35:00.000Z</time>
      </trkpt>
      <trkpt lat="45.86032" lon="4.60573">
        <ele>389.84583</ele>
        <time>2023-07-04T15:35:01.000Z</time>
      </trkpt>
      <trkpt lat="45.86026" lon="4.6057">
        <ele>390.88144</ele>
        <time>2023-07-04T15:35:02.000Z</time>
      </trkpt>
      <trkpt lat="45.86021" lon="4.60568">
        <ele>391.97961</ele>
        <time>2023-07-04T15:35:03.000Z</time>
      </trkpt>
      <trkpt lat="45.86016" lon="4.60565">
        <ele>392.84985</ele>
        <time>2023-07-04T15:35:04.000Z</time>
      </trkpt>
      <trkpt lat="45.86012" lon="4.6056">
        <ele>393.98584</ele>
        <time>2023-07-04T15:35:05.000Z</time>
      </trkpt>
      <trkpt lat="45.86006" lon="4.60557">
        <ele>395.1665</ele>
        <time>2023-07-04T15:35:06.000Z</time>
      </trkpt>
      <trkpt lat="45.86001" lon="4.60554">
        <ele>396.38687</ele>
        <time>2023-07-04T15:35:07.000Z</time>
      </trkpt>
      <trkpt lat="45.85995" lon="4.60551">
        <ele>397.74664</ele>
        <time>2023-07-04T15:35:08.000Z</time>
      </trkpt>
      <trkpt lat="45.85989" lon="4.60548">
        <ele>398.71054</ele>
        <time>2023-07-04T15:35:09.000Z</time>
      </trkpt>
      <trkpt lat="45.85982" lon="4.60546">
        <ele>398.82626</ele>
        <time>2023-07-04T15:35:10.000Z</time>
      </trkpt>
      <trkpt lat="45.85976" lon="4.60541">
        <ele>398.95221</ele>
        <time>2023-07-04T15:35:11.000Z</time>
      </trkpt>
      <trkpt lat="45.85969" lon="4.60538">
        <ele>399.05804</ele>
        <time>2023-07-04T15:35:12.000Z</time>
      </trkpt>
      <trkpt lat="45.85962" lon="4.60535">
        <ele>399.32617</ele>
        <time>2023-07-04T15:35:13.000Z</time>
      </trkpt>
      <trkpt lat="45.85956" lon="4.60533">
        <ele>399.52646</ele>
        <time>2023-07-04T15:35:14.000Z</time>
      </trkpt>
      <trkpt lat="45.85949" lon="4.60531">
        <ele>399.67148</ele>
        <time>2023-07-04T15:35:15.000Z</time>
      </trkpt>
      <trkpt lat="45.85943" lon="4.60529">
        <ele>399.69086</ele>
        <time>2023-07-04T15:35:16.000Z</time>
      </trkpt>
      <trkpt lat="45.85937" lon="4.60528">
        <ele>399.63834</ele>
        <time>2023-07-04T15:35:17.000Z</time>
      </trkpt>
      <trkpt lat="45.85932" lon="4.60527">
        <ele>399.64029</ele>
        <time>2023-07-04T15:35:18.000Z</time>
      </trkpt>
      <trkpt lat="45.85927" lon="4.60525">
        <ele>399.82089</ele>
        <time>2023-07-04T15:35:19.000Z</time>
      </trkpt>
      <trkpt lat="45.85922" lon="4.60523">
        <ele>399.81027</ele>
        <time>2023-07-04T15:35:20.000Z</time>
      </trkpt>
      <trkpt lat="45.85918" lon="4.60522">
        <ele>399.79688</ele>
        <time>2023-07-04T15:35:21.000Z</time>
      </trkpt>
      <trkpt lat="45.85914" lon="4.60521">
        <ele>399.858</ele>
        <time>2023-07-04T15:35:22.000Z</time>
      </trkpt>
      <trkpt lat="45.85911" lon="4.6052">
        <ele>399.81635</ele>
        <time>2023-07-04T15:35:23.000Z</time>
      </trkpt>
      <trkpt lat="45.8591" lon="4.60519">
        <ele>399.68454</ele>
        <time>2023-07-04T15:35:24.000Z</time>
      </trkpt>
      <trkpt lat="45.85906" lon="4.60518">
        <ele>399.53903</ele>
        <time>2023-07-04T15:35:25.000Z</time>
      </trkpt>
      <trkpt lat="45.85903" lon="4.60517">
        <ele>399.3309</ele>
        <time>2023-07-04T15:35:26.000Z</time>
      </trkpt>
      <trkpt lat="45.85899" lon="4.60515">
        <ele>399.05151</ele>
        <time>2023-07-04T15:35:27.000Z</time>
      </trkpt>
      <trkpt lat="45.85895" lon="4.60513">
        <ele>398.76566</ele>
        <time>2023-07-04T15:35:28.000Z</time>
      </trkpt>
      <trkpt lat="45.85891" lon="4.60511">
        <ele>398.46878</ele>
        <time>2023-07-04T15:35:29.000Z</time>
      </trkpt>
      <trkpt lat="45.85886" lon="4.60509">
        <ele>398.14844</ele>
        <time>2023-07-04T15:35:30.000Z</time>
      </trkpt>
      <trkpt lat="45.85882" lon="4.60508">
        <ele>397.83481</ele>
        <time>2023-07-04T15:35:31.000Z</time>
      </trkpt>
      <trkpt lat="45.85877" lon="4.60506">
        <ele>397.52863</ele>
        <time>2023-07-04T15:35:32.000Z</time>
      </trkpt>
      <trkpt lat="45.85872" lon="4.60505">
        <ele>397.09216</ele>
        <time>2023-07-04T15:35:33.000Z</time>
      </trkpt>
      <trkpt lat="45.85866" lon="4.60503">
        <ele>396.70013</ele>
        <time>2023-07-04T15:35:34.000Z</time>
      </trkpt>
      <trkpt lat="45.85861" lon="4.605">
        <ele>396.39084</ele>
        <time>2023-07-04T15:35:35.000Z</time>
      </trkpt>
      <trkpt lat="45.85855" lon="4.60499">
        <ele>396.13425</ele>
        <time>2023-07-04T15:35:36.000Z</time>
      </trkpt>
      <trkpt lat="45.8585" lon="4.60497">
        <ele>395.90887</ele>
        <time>2023-07-04T15:35:37.000Z</time>
      </trkpt>
      <trkpt lat="45.85844" lon="4.60494">
        <ele>395.61993</ele>
        <time>2023-07-04T15:35:38.000Z</time>
      </trkpt>
      <trkpt lat="45.85839" lon="4.60492">
        <ele>395.34137</ele>
        <time>2023-07-04T15:35:39.000Z</time>
      </trkpt>
      <trkpt lat="45.85833" lon="4.60488">
        <ele>395.21451</ele>
        <time>2023-07-04T15:35:40.000Z</time>
      </trkpt>
      <trkpt lat="45.85828" lon="4.60485">
        <ele>395.06671</ele>
        <time>2023-07-04T15:35:41.000Z</time>
      </trkpt>
      <trkpt lat="45.85823" lon="4.60483">
        <ele>394.8605</ele>
        <time>2023-07-04T15:35:42.000Z</time>
      </trkpt>
      <trkpt lat="45.85817" lon="4.60482">
        <ele>394.68475</ele>
        <time>2023-07-04T15:35:43.000Z</time>
      </trkpt>
      <trkpt lat="45.85811" lon="4.6048">
        <ele>394.53998</ele>
        <time>2023-07-04T15:35:44.000Z</time>
      </trkpt>
      <trkpt lat="45.85806" lon="4.60477">
        <ele>394.38055</ele>
        <time>2023-07-04T15:35:45.000Z</time>
      </trkpt>
      <trkpt lat="45.858" lon="4.60473">
        <ele>394.20114</ele>
        <time>2023-07-04T15:35:46.000Z</time>
      </trkpt>
      <trkpt lat="45.85793" lon="4.60471">
        <ele>394.05502</ele>
        <time>2023-07-04T15:35:47.000Z</time>
      </trkpt>
      <trkpt lat="45.85788" lon="4.60468">
        <ele>393.83151</ele>
        <time>2023-07-04T15:35:48.000Z</time>
      </trkpt>
      <trkpt lat="45.85782" lon="4.60466">
        <ele>393.6044</ele>
        <time>2023-07-04T15:35:49.000Z</time>
      </trkpt>
      <trkpt lat="45.85776" lon="4.60464">
        <ele>393.375</ele>
        <time>2023-07-04T15:35:50.000Z</time>
      </trkpt>
      <trkpt lat="45.8577" lon="4.60464">
        <ele>393.23691</ele>
        <time>2023-07-04T15:35:51.000Z</time>
      </trkpt>
      <trkpt lat="45.85764" lon="4.60463">
        <ele>393.13779</ele>
        <time>2023-07-04T15:35:52.000Z</time>
      </trkpt>
      <trkpt lat="45.85758" lon="4.60463">
        <ele>393.14169</ele>
        <time>2023-07-04T15:35:53.000Z</time>
      </trkpt>
      <trkpt lat="45.85753" lon="4.60462">
        <ele>393.19168</ele>
        <time>2023-07-04T15:35:54.000Z</time>
      </trkpt>
      <trkpt lat="45.85748" lon="4.60462">
        <ele>393.047</ele>
        <time>2023-07-04T15:35:55.000Z</time>
      </trkpt>
      <trkpt lat="45.85743" lon="4.60461">
        <ele>392.93134</ele>
        <time>2023-07-04T15:35:56.000Z</time>
      </trkpt>
      <trkpt lat="45.85738" lon="4.6046">
        <ele>392.82104</ele>
        <time>2023-07-04T15:35:57.000Z</time>
      </trkpt>
      <trkpt lat="45.85733" lon="4.6046">
        <ele>392.66489</ele>
        <time>2023-07-04T15:35:58.000Z</time>
      </trkpt>
      <trkpt lat="45.85728" lon="4.60459">
        <ele>392.55487</ele>
        <time>2023-07-04T15:35:59.000Z</time>
      </trkpt>
      <trkpt lat="45.85724" lon="4.6046">
        <ele>392.40302</ele>
        <time>2023-07-04T15:36:00.000Z</time>
      </trkpt>
      <trkpt lat="45.8572" lon="4.6046">
        <ele>392.27731</ele>
        <time>2023-07-04T15:36:01.000Z</time>
      </trkpt>
      <trkpt lat="45.85718" lon="4.6046">
        <ele>392.17584</ele>
        <time>2023-07-04T15:36:02.000Z</time>
      </trkpt>
      <trkpt lat="45.85714" lon="4.60459">
        <ele>392.09863</ele>
        <time>2023-07-04T15:36:03.000Z</time>
      </trkpt>
      <trkpt lat="45.85712" lon="4.60458">
        <ele>392.06845</ele>
        <time>2023-07-04T15:36:04.000Z</time>
      </trkpt>
      <trkpt lat="45.8571" lon="4.60457">
        <ele>392.08694</ele>
        <time>2023-07-04T15:36:05.000Z</time>
      </trkpt>
      <trkpt lat="45.85708" lon="4.60458">
        <ele>392.10504</ele>
        <time>2023-07-04T15:36:06.000Z</time>
      </trkpt>
      <trkpt lat="45.85706" lon="4.60458">
        <ele>392.06512</ele>
        <time>2023-07-04T15:36:09.000Z</time>
      </trkpt>
      <trkpt lat="45.85704" lon="4.60457">
        <ele>392.1459</ele>
        <time>2023-07-04T15:36:18.000Z</time>
      </trkpt>
      <trkpt lat="45.85702" lon="4.60456">
        <ele>392.31943</ele>
        <time>2023-07-04T15:36:21.000Z</time>
      </trkpt>
      <trkpt lat="45.85699" lon="4.60457">
        <ele>392.51636</ele>
        <time>2023-07-04T15:36:23.000Z</time>
      </trkpt>
      <trkpt lat="45.85696" lon="4.60455">
        <ele>392.54034</ele>
        <time>2023-07-04T15:36:25.000Z</time>
      </trkpt>
      <trkpt lat="45.85694" lon="4.60454">
        <ele>392.57281</ele>
        <time>2023-07-04T15:36:26.000Z</time>
      </trkpt>
      <trkpt lat="45.85691" lon="4.60453">
        <ele>392.77173</ele>
        <time>2023-07-04T15:36:28.000Z</time>
      </trkpt>
      <trkpt lat="45.85688" lon="4.60453">
        <ele>392.71542</ele>
        <time>2023-07-04T15:36:29.000Z</time>
      </trkpt>
      <trkpt lat="45.85686" lon="4.60453">
        <ele>392.8696</ele>
        <time>2023-07-04T15:36:30.000Z</time>
      </trkpt>
      <trkpt lat="45.85684" lon="4.60454">
        <ele>392.92731</ele>
        <time>2023-07-04T15:36:31.000Z</time>
      </trkpt>
      <trkpt lat="45.85682" lon="4.60453">
        <ele>392.95508</ele>
        <time>2023-07-04T15:37:46.000Z</time>
      </trkpt>
      <trkpt lat="45.85678" lon="4.60452">
        <ele>393.00153</ele>
        <time>2023-07-04T15:37:48.000Z</time>
      </trkpt>
      <trkpt lat="45.85676" lon="4.60452">
        <ele>393.0484</ele>
        <time>2023-07-04T15:37:49.000Z</time>
      </trkpt>
      <trkpt lat="45.85674" lon="4.60451">
        <ele>393.14349</ele>
        <time>2023-07-04T15:37:50.000Z</time>
      </trkpt>
      <trkpt lat="45.85672" lon="4.6045">
        <ele>393.24365</ele>
        <time>2023-07-04T15:37:51.000Z</time>
      </trkpt>
      <trkpt lat="45.85669" lon="4.60449">
        <ele>393.37527</ele>
        <time>2023-07-04T15:37:52.000Z</time>
      </trkpt>
      <trkpt lat="45.85666" lon="4.60449">
        <ele>393.47318</ele>
        <time>2023-07-04T15:37:53.000Z</time>
      </trkpt>
      <trkpt lat="45.85663" lon="4.60449">
        <ele>393.55087</ele>
        <time>2023-07-04T15:37:54.000Z</time>
      </trkpt>
      <trkpt lat="45.8566" lon="4.60448">
        <ele>393.61432</ele>
        <time>2023-07-04T15:37:55.000Z</time>
      </trkpt>
      <trkpt lat="45.85656" lon="4.60448">
        <ele>393.73013</ele>
        <time>2023-07-04T15:37:56.000Z</time>
      </trkpt>
      <trkpt lat="45.85652" lon="4.60447">
        <ele>393.88251</ele>
        <time>2023-07-04T15:37:57.000Z</time>
      </trkpt>
      <trkpt lat="45.85648" lon="4.60446">
        <ele>393.98099</ele>
        <time>2023-07-04T15:37:58.000Z</time>
      </trkpt>
      <trkpt lat="45.85643" lon="4.60446">
        <ele>394.01376</ele>
        <time>2023-07-04T15:37:59.000Z</time>
      </trkpt>
      <trkpt lat="45.85639" lon="4.60445">
        <ele>394.19263</ele>
        <time>2023-07-04T15:38:00.000Z</time>
      </trkpt>
      <trkpt lat="45.85635" lon="4.60444">
        <ele>394.05655</ele>
        <time>2023-07-04T15:38:01.000Z</time>
      </trkpt>
      <trkpt lat="45.8563" lon="4.60443">
        <ele>393.8558</ele>
        <time>2023-07-04T15:38:02.000Z</time>
      </trkpt>
      <trkpt lat="45.85626" lon="4.60443">
        <ele>393.50183</ele>
        <time>2023-07-04T15:38:03.000Z</time>
      </trkpt>
      <trkpt lat="45.85621" lon="4.60443">
        <ele>393.2045</ele>
        <time>2023-07-04T15:38:04.000Z</time>
      </trkpt>
      <trkpt lat="45.85618" lon="4.60441">
        <ele>392.86554</ele>
        <time>2023-07-04T15:38:05.000Z</time>
      </trkpt>
      <trkpt lat="45.85615" lon="4.60438">
        <ele>392.57278</ele>
        <time>2023-07-04T15:38:06.000Z</time>
      </trkpt>
      <trkpt lat="45.85613" lon="4.60433">
        <ele>392.28329</ele>
        <time>2023-07-04T15:38:07.000Z</time>
      </trkpt>
      <trkpt lat="45.85613" lon="4.60428">
        <ele>391.99805</ele>
        <time>2023-07-04T15:38:08.000Z</time>
      </trkpt>
      <trkpt lat="45.85612" lon="4.60422">
        <ele>391.70178</ele>
        <time>2023-07-04T15:38:09.000Z</time>
      </trkpt>
      <trkpt lat="45.85612" lon="4.60414">
        <ele>391.38116</ele>
        <time>2023-07-04T15:38:10.000Z</time>
      </trkpt>
      <trkpt lat="45.85612" lon="4.60408">
        <ele>390.9621</ele>
        <time>2023-07-04T15:38:11.000Z</time>
      </trkpt>
      <trkpt lat="45.85613" lon="4.60401">
        <ele>390.91156</ele>
        <time>2023-07-04T15:38:12.000Z</time>
      </trkpt>
      <trkpt lat="45.85613" lon="4.60396">
        <ele>390.93533</ele>
        <time>2023-07-04T15:38:13.000Z</time>
      </trkpt>
      <trkpt lat="45.85613" lon="4.60391">
        <ele>390.72125</ele>
        <time>2023-07-04T15:38:14.000Z</time>
      </trkpt>
      <trkpt lat="45.85613" lon="4.60385">
        <ele>390.54132</ele>
        <time>2023-07-04T15:38:15.000Z</time>
      </trkpt>
      <trkpt lat="45.85613" lon="4.60378">
        <ele>390.28406</ele>
        <time>2023-07-04T15:38:16.000Z</time>
      </trkpt>
      <trkpt lat="45.85614" lon="4.60372">
        <ele>390.00772</ele>
        <time>2023-07-04T15:38:17.000Z</time>
      </trkpt>
      <trkpt lat="45.85614" lon="4.60363">
        <ele>389.70963</ele>
        <time>2023-07-04T15:38:18.000Z</time>
      </trkpt>
      <trkpt lat="45.85614" lon="4.60355">
        <ele>389.38947</ele>
        <time>2023-07-04T15:38:19.000Z</time>
      </trkpt>
      <trkpt lat="45.85614" lon="4.60347">
        <ele>388.97321</ele>
        <time>2023-07-04T15:38:20.000Z</time>
      </trkpt>
      <trkpt lat="45.85613" lon="4.6034">
        <ele>388.90619</ele>
        <time>2023-07-04T15:38:21.000Z</time>
      </trkpt>
      <trkpt lat="45.85613" lon="4.60332">
        <ele>388.85757</ele>
        <time>2023-07-04T15:38:22.000Z</time>
      </trkpt>
      <trkpt lat="45.85613" lon="4.60325">
        <ele>388.64243</ele>
        <time>2023-07-04T15:38:23.000Z</time>
      </trkpt>
      <trkpt lat="45.85612" lon="4.60317">
        <ele>388.59195</ele>
        <time>2023-07-04T15:38:24.000Z</time>
      </trkpt>
      <trkpt lat="45.85612" lon="4.60309">
        <ele>388.60278</ele>
        <time>2023-07-04T15:38:25.000Z</time>
      </trkpt>
      <trkpt lat="45.85612" lon="4.60302">
        <ele>388.58316</ele>
        <time>2023-07-04T15:38:26.000Z</time>
      </trkpt>
      <trkpt lat="45.85612" lon="4.60295">
        <ele>388.60284</ele>
        <time>2023-07-04T15:38:27.000Z</time>
      </trkpt>
      <trkpt lat="45.85613" lon="4.60287">
        <ele>388.62189</ele>
        <time>2023-07-04T15:38:28.000Z</time>
      </trkpt>
      <trkpt lat="45.85613" lon="4.60281">
        <ele>388.37323</ele>
        <time>2023-07-04T15:38:29.000Z</time>
      </trkpt>
      <trkpt lat="45.85614" lon="4.60274">
        <ele>388.17465</ele>
        <time>2023-07-04T15:38:30.000Z</time>
      </trkpt>
      <trkpt lat="45.85615" lon="4.60269">
        <ele>388.05991</ele>
        <time>2023-07-04T15:38:31.000Z</time>
      </trkpt>
      <trkpt lat="45.85615" lon="4.60262">
        <ele>387.55551</ele>
        <time>2023-07-04T15:38:32.000Z</time>
      </trkpt>
      <trkpt lat="45.85616" lon="4.60256">
        <ele>387.0036</ele>
        <time>2023-07-04T15:38:33.000Z</time>
      </trkpt>
      <trkpt lat="45.85617" lon="4.60249">
        <ele>386.63971</ele>
        <time>2023-07-04T15:38:34.000Z</time>
      </trkpt>
      <trkpt lat="45.85619" lon="4.60243">
        <ele>386.20901</ele>
        <time>2023-07-04T15:38:35.000Z</time>
      </trkpt>
      <trkpt lat="45.8562" lon="4.60234">
        <ele>385.83167</ele>
        <time>2023-07-04T15:38:36.000Z</time>
      </trkpt>
      <trkpt lat="45.8562" lon="4.60228">
        <ele>385.39203</ele>
        <time>2023-07-04T15:38:37.000Z</time>
      </trkpt>
      <trkpt lat="45.85619" lon="4.60223">
        <ele>384.40842</ele>
        <time>2023-07-04T15:38:38.000Z</time>
      </trkpt>
      <trkpt lat="45.85615" lon="4.60218">
        <ele>383.42813</ele>
        <time>2023-07-04T15:38:39.000Z</time>
      </trkpt>
      <trkpt lat="45.85611" lon="4.60218">
        <ele>382.34375</ele>
        <time>2023-07-04T15:38:40.000Z</time>
      </trkpt>
      <trkpt lat="45.85607" lon="4.60217">
        <ele>381.17865</ele>
        <time>2023-07-04T15:38:41.000Z</time>
      </trkpt>
      <trkpt lat="45.85603" lon="4.60216">
        <ele>379.59485</ele>
        <time>2023-07-04T15:38:42.000Z</time>
      </trkpt>
      <trkpt lat="45.85599" lon="4.60215">
        <ele>378.07773</ele>
        <time>2023-07-04T15:38:43.000Z</time>
      </trkpt>
      <trkpt lat="45.85593" lon="4.60216">
        <ele>376.55096</ele>
        <time>2023-07-04T15:38:44.000Z</time>
      </trkpt>
      <trkpt lat="45.85588" lon="4.60218">
        <ele>374.74396</ele>
        <time>2023-07-04T15:38:45.000Z</time>
      </trkpt>
      <trkpt lat="45.85584" lon="4.6022">
        <ele>372.79999</ele>
        <time>2023-07-04T15:38:46.000Z</time>
      </trkpt>
      <trkpt lat="45.8558" lon="4.60221">
        <ele>371.27982</ele>
        <time>2023-07-04T15:38:47.000Z</time>
      </trkpt>
      <trkpt lat="45.85576" lon="4.60224">
        <ele>369.73907</ele>
        <time>2023-07-04T15:38:48.000Z</time>
      </trkpt>
      <trkpt lat="45.8557" lon="4.60226">
        <ele>368.46771</ele>
        <time>2023-07-04T15:38:49.000Z</time>
      </trkpt>
      <trkpt lat="45.85566" lon="4.60229">
        <ele>367.14136</ele>
        <time>2023-07-04T15:38:50.000Z</time>
      </trkpt>
      <trkpt lat="45.85561" lon="4.60231">
        <ele>365.84848</ele>
        <time>2023-07-04T15:38:51.000Z</time>
      </trkpt>
      <trkpt lat="45.85556" lon="4.60234">
        <ele>364.29489</ele>
        <time>2023-07-04T15:38:52.000Z</time>
      </trkpt>
      <trkpt lat="45.85552" lon="4.60236">
        <ele>364.01346</ele>
        <time>2023-07-04T15:38:53.000Z</time>
      </trkpt>
      <trkpt lat="45.85548" lon="4.60238">
        <ele>363.76575</ele>
        <time>2023-07-04T15:38:54.000Z</time>
      </trkpt>
      <trkpt lat="45.85545" lon="4.6024">
        <ele>362.52933</ele>
        <time>2023-07-04T15:38:55.000Z</time>
      </trkpt>
      <trkpt lat="45.85541" lon="4.60241">
        <ele>361.28763</ele>
        <time>2023-07-04T15:38:56.000Z</time>
      </trkpt>
      <trkpt lat="45.85537" lon="4.60241">
        <ele>360.10638</ele>
        <time>2023-07-04T15:38:57.000Z</time>
      </trkpt>
      <trkpt lat="45.85532" lon="4.60242">
        <ele>359.33636</ele>
        <time>2023-07-04T15:38:58.000Z</time>
      </trkpt>
      <trkpt lat="45.85528" lon="4.60244">
        <ele>358.55627</ele>
        <time>2023-07-04T15:38:59.000Z</time>
      </trkpt>
      <trkpt lat="45.85523" lon="4.60247">
        <ele>357.77356</ele>
        <time>2023-07-04T15:39:00.000Z</time>
      </trkpt>
      <trkpt lat="45.85518" lon="4.60249">
        <ele>357.08679</ele>
        <time>2023-07-04T15:39:01.000Z</time>
      </trkpt>
      <trkpt lat="45.85514" lon="4.60251">
        <ele>358.19745</ele>
        <time>2023-07-04T15:39:02.000Z</time>
      </trkpt>
      <trkpt lat="45.85509" lon="4.60255">
        <ele>359.31876</ele>
        <time>2023-07-04T15:39:03.000Z</time>
      </trkpt>
      <trkpt lat="45.85505" lon="4.6026">
        <ele>360.58456</ele>
        <time>2023-07-04T15:39:04.000Z</time>
      </trkpt>
      <trkpt lat="45.85501" lon="4.60266">
        <ele>362.01962</ele>
        <time>2023-07-04T15:39:05.000Z</time>
      </trkpt>
      <trkpt lat="45.85496" lon="4.60273">
        <ele>362.31021</ele>
        <time>2023-07-04T15:39:06.000Z</time>
      </trkpt>
      <trkpt lat="45.85493" lon="4.60281">
        <ele>362.17459</ele>
        <time>2023-07-04T15:39:07.000Z</time>
      </trkpt>
      <trkpt lat="45.85491" lon="4.60289">
        <ele>362.04047</ele>
        <time>2023-07-04T15:39:08.000Z</time>
      </trkpt>
      <trkpt lat="45.85489" lon="4.60297">
        <ele>361.86823</ele>
        <time>2023-07-04T15:39:09.000Z</time>
      </trkpt>
      <trkpt lat="45.85487" lon="4.60304">
        <ele>361.68213</ele>
        <time>2023-07-04T15:39:10.000Z</time>
      </trkpt>
      <trkpt lat="45.85485" lon="4.60312">
        <ele>361.46143</ele>
        <time>2023-07-04T15:39:11.000Z</time>
      </trkpt>
      <trkpt lat="45.85483" lon="4.6032">
        <ele>361.56323</ele>
        <time>2023-07-04T15:39:12.000Z</time>
      </trkpt>
      <trkpt lat="45.85483" lon="4.60327">
        <ele>360.34756</ele>
        <time>2023-07-04T15:39:13.000Z</time>
      </trkpt>
      <trkpt lat="45.85482" lon="4.60335">
        <ele>358.98648</ele>
        <time>2023-07-04T15:39:14.000Z</time>
      </trkpt>
      <trkpt lat="45.85481" lon="4.60342">
        <ele>358.62451</ele>
        <time>2023-07-04T15:39:15.000Z</time>
      </trkpt>
      <trkpt lat="45.8548" lon="4.60349">
        <ele>358.25589</ele>
        <time>2023-07-04T15:39:16.000Z</time>
      </trkpt>
      <trkpt lat="45.85479" lon="4.60357">
        <ele>357.87991</ele>
        <time>2023-07-04T15:39:17.000Z</time>
      </trkpt>
      <trkpt lat="45.8548" lon="4.60365">
        <ele>357.65536</ele>
        <time>2023-07-04T15:39:18.000Z</time>
      </trkpt>
      <trkpt lat="45.85479" lon="4.60372">
        <ele>358.83157</ele>
        <time>2023-07-04T15:39:19.000Z</time>
      </trkpt>
      <trkpt lat="45.85479" lon="4.6038">
        <ele>360.11185</ele>
        <time>2023-07-04T15:39:20.000Z</time>
      </trkpt>
      <trkpt lat="45.85479" lon="4.60388">
        <ele>361.43768</ele>
        <time>2023-07-04T15:39:21.000Z</time>
      </trkpt>
      <trkpt lat="45.85478" lon="4.60396">
        <ele>361.45624</ele>
        <time>2023-07-04T15:39:22.000Z</time>
      </trkpt>
      <trkpt lat="45.85479" lon="4.60403">
        <ele>360.50629</ele>
        <time>2023-07-04T15:39:23.000Z</time>
      </trkpt>
      <trkpt lat="45.85477" lon="4.60411">
        <ele>359.44977</ele>
        <time>2023-07-04T15:39:24.000Z</time>
      </trkpt>
      <trkpt lat="45.85476" lon="4.60419">
        <ele>358.51096</ele>
        <time>2023-07-04T15:39:25.000Z</time>
      </trkpt>
      <trkpt lat="45.85475" lon="4.60426">
        <ele>358.89557</ele>
        <time>2023-07-04T15:39:26.000Z</time>
      </trkpt>
      <trkpt lat="45.85473" lon="4.60432">
        <ele>359.32324</ele>
        <time>2023-07-04T15:39:27.000Z</time>
      </trkpt>
      <trkpt lat="45.85471" lon="4.6044">
        <ele>359.8429</ele>
        <time>2023-07-04T15:39:28.000Z</time>
      </trkpt>
      <trkpt lat="45.8547" lon="4.60446">
        <ele>360.37686</ele>
        <time>2023-07-04T15:39:29.000Z</time>
      </trkpt>
      <trkpt lat="45.85469" lon="4.60454">
        <ele>360.91837</ele>
        <time>2023-07-04T15:39:30.000Z</time>
      </trkpt>
      <trkpt lat="45.85467" lon="4.60461">
        <ele>361.49091</ele>
        <time>2023-07-04T15:39:31.000Z</time>
      </trkpt>
      <trkpt lat="45.85466" lon="4.60469">
        <ele>362.8248</ele>
        <time>2023-07-04T15:39:32.000Z</time>
      </trkpt>
      <trkpt lat="45.85464" lon="4.60477">
        <ele>363.13348</ele>
        <time>2023-07-04T15:39:33.000Z</time>
      </trkpt>
      <trkpt lat="45.85462" lon="4.60485">
        <ele>363.75931</ele>
        <time>2023-07-04T15:39:34.000Z</time>
      </trkpt>
      <trkpt lat="45.85461" lon="4.60492">
        <ele>363.82965</ele>
        <time>2023-07-04T15:39:35.000Z</time>
      </trkpt>
      <trkpt lat="45.85459" lon="4.605">
        <ele>364.47003</ele>
        <time>2023-07-04T15:39:36.000Z</time>
      </trkpt>
      <trkpt lat="45.85457" lon="4.60507">
        <ele>365.89951</ele>
        <time>2023-07-04T15:39:37.000Z</time>
      </trkpt>
      <trkpt lat="45.85455" lon="4.60514">
        <ele>367.33121</ele>
        <time>2023-07-04T15:39:38.000Z</time>
      </trkpt>
      <trkpt lat="45.85454" lon="4.60521">
        <ele>367.41595</ele>
        <time>2023-07-04T15:39:39.000Z</time>
      </trkpt>
      <trkpt lat="45.85453" lon="4.60529">
        <ele>367.60049</ele>
        <time>2023-07-04T15:39:40.000Z</time>
      </trkpt>
      <trkpt lat="45.85451" lon="4.60536">
        <ele>367.79129</ele>
        <time>2023-07-04T15:39:41.000Z</time>
      </trkpt>
      <trkpt lat="45.85448" lon="4.60544">
        <ele>367.56094</ele>
        <time>2023-07-04T15:39:42.000Z</time>
      </trkpt>
      <trkpt lat="45.85447" lon="4.60551">
        <ele>368.267</ele>
        <time>2023-07-04T15:39:43.000Z</time>
      </trkpt>
      <trkpt lat="45.85446" lon="4.60559">
        <ele>368.92148</ele>
        <time>2023-07-04T15:39:44.000Z</time>
      </trkpt>
      <trkpt lat="45.85444" lon="4.60566">
        <ele>369.46872</ele>
        <time>2023-07-04T15:39:45.000Z</time>
      </trkpt>
      <trkpt lat="45.85443" lon="4.60574">
        <ele>369.99347</ele>
        <time>2023-07-04T15:39:46.000Z</time>
      </trkpt>
      <trkpt lat="45.85441" lon="4.60582">
        <ele>370.46967</ele>
        <time>2023-07-04T15:39:47.000Z</time>
      </trkpt>
      <trkpt lat="45.8544" lon="4.6059">
        <ele>370.85968</ele>
        <time>2023-07-04T15:39:48.000Z</time>
      </trkpt>
      <trkpt lat="45.85438" lon="4.60598">
        <ele>371.26721</ele>
        <time>2023-07-04T15:39:49.000Z</time>
      </trkpt>
      <trkpt lat="45.85436" lon="4.60605">
        <ele>371.72202</ele>
        <time>2023-07-04T15:39:50.000Z</time>
      </trkpt>
      <trkpt lat="45.85436" lon="4.60612">
        <ele>372.18982</ele>
        <time>2023-07-04T15:39:51.000Z</time>
      </trkpt>
      <trkpt lat="45.85434" lon="4.60619">
        <ele>371.88086</ele>
        <time>2023-07-04T15:39:52.000Z</time>
      </trkpt>
      <trkpt lat="45.85433" lon="4.60626">
        <ele>372.60864</ele>
        <time>2023-07-04T15:39:53.000Z</time>
      </trkpt>
      <trkpt lat="45.85431" lon="4.60633">
        <ele>373.1506</ele>
        <time>2023-07-04T15:39:54.000Z</time>
      </trkpt>
      <trkpt lat="45.85429" lon="4.6064">
        <ele>374.24136</ele>
        <time>2023-07-04T15:39:55.000Z</time>
      </trkpt>
      <trkpt lat="45.85427" lon="4.60648">
        <ele>374.76843</ele>
        <time>2023-07-04T15:39:56.000Z</time>
      </trkpt>
      <trkpt lat="45.85425" lon="4.60655">
        <ele>374.54523</ele>
        <time>2023-07-04T15:39:57.000Z</time>
      </trkpt>
      <trkpt lat="45.85422" lon="4.60663">
        <ele>374.3028</ele>
        <time>2023-07-04T15:39:58.000Z</time>
      </trkpt>
      <trkpt lat="45.8542" lon="4.6067">
        <ele>374.02533</ele>
        <time>2023-07-04T15:39:59.000Z</time>
      </trkpt>
      <trkpt lat="45.85417" lon="4.60677">
        <ele>373.5997</ele>
        <time>2023-07-04T15:40:00.000Z</time>
      </trkpt>
      <trkpt lat="45.85414" lon="4.60683">
        <ele>373.1131</ele>
        <time>2023-07-04T15:40:01.000Z</time>
      </trkpt>
      <trkpt lat="45.8541" lon="4.60688">
        <ele>372.97516</ele>
        <time>2023-07-04T15:40:02.000Z</time>
      </trkpt>
      <trkpt lat="45.85408" lon="4.60695">
        <ele>372.82962</ele>
        <time>2023-07-04T15:40:03.000Z</time>
      </trkpt>
      <trkpt lat="45.85404" lon="4.60702">
        <ele>371.70016</ele>
        <time>2023-07-04T15:40:04.000Z</time>
      </trkpt>
      <trkpt lat="45.85401" lon="4.60709">
        <ele>370.6337</ele>
        <time>2023-07-04T15:40:05.000Z</time>
      </trkpt>
      <trkpt lat="45.85398" lon="4.60716">
        <ele>369.60211</ele>
        <time>2023-07-04T15:40:06.000Z</time>
      </trkpt>
      <trkpt lat="45.85396" lon="4.60722">
        <ele>368.57233</ele>
        <time>2023-07-04T15:40:07.000Z</time>
      </trkpt>
      <trkpt lat="45.85394" lon="4.60729">
        <ele>367.54614</ele>
        <time>2023-07-04T15:40:08.000Z</time>
      </trkpt>
      <trkpt lat="45.85391" lon="4.60735">
        <ele>366.52606</ele>
        <time>2023-07-04T15:40:09.000Z</time>
      </trkpt>
      <trkpt lat="45.85388" lon="4.6074">
        <ele>365.4812</ele>
        <time>2023-07-04T15:40:10.000Z</time>
      </trkpt>
      <trkpt lat="45.85385" lon="4.60747">
        <ele>364.39618</ele>
        <time>2023-07-04T15:40:11.000Z</time>
      </trkpt>
      <trkpt lat="45.85382" lon="4.60753">
        <ele>363.31357</ele>
        <time>2023-07-04T15:40:12.000Z</time>
      </trkpt>
      <trkpt lat="45.85379" lon="4.60761">
        <ele>362.26404</ele>
        <time>2023-07-04T15:40:13.000Z</time>
      </trkpt>
      <trkpt lat="45.85377" lon="4.60768">
        <ele>361.24155</ele>
        <time>2023-07-04T15:40:14.000Z</time>
      </trkpt>
      <trkpt lat="45.85375" lon="4.60775">
        <ele>360.2507</ele>
        <time>2023-07-04T15:40:15.000Z</time>
      </trkpt>
      <trkpt lat="45.85373" lon="4.60781">
        <ele>359.25897</ele>
        <time>2023-07-04T15:40:16.000Z</time>
      </trkpt>
      <trkpt lat="45.85371" lon="4.60788">
        <ele>358.28824</ele>
        <time>2023-07-04T15:40:17.000Z</time>
      </trkpt>
      <trkpt lat="45.85368" lon="4.60795">
        <ele>357.35001</ele>
        <time>2023-07-04T15:40:18.000Z</time>
      </trkpt>
      <trkpt lat="45.85366" lon="4.60801">
        <ele>356.41525</ele>
        <time>2023-07-04T15:40:19.000Z</time>
      </trkpt>
      <trkpt lat="45.85364" lon="4.60806">
        <ele>355.46713</ele>
        <time>2023-07-04T15:40:20.000Z</time>
      </trkpt>
      <trkpt lat="45.85361" lon="4.60812">
        <ele>354.3869</ele>
        <time>2023-07-04T15:40:21.000Z</time>
      </trkpt>
      <trkpt lat="45.85358" lon="4.60817">
        <ele>353.20605</ele>
        <time>2023-07-04T15:40:22.000Z</time>
      </trkpt>
      <trkpt lat="45.85356" lon="4.60823">
        <ele>352.77826</ele>
        <time>2023-07-04T15:40:23.000Z</time>
      </trkpt>
      <trkpt lat="45.85352" lon="4.60829">
        <ele>353.34866</ele>
        <time>2023-07-04T15:40:24.000Z</time>
      </trkpt>
      <trkpt lat="45.85349" lon="4.60836">
        <ele>353.89502</ele>
        <time>2023-07-04T15:40:25.000Z</time>
      </trkpt>
      <trkpt lat="45.85346" lon="4.60842">
        <ele>354.42245</ele>
        <time>2023-07-04T15:40:26.000Z</time>
      </trkpt>
      <trkpt lat="45.85344" lon="4.60848">
        <ele>354.45282</ele>
        <time>2023-07-04T15:40:27.000Z</time>
      </trkpt>
      <trkpt lat="45.85341" lon="4.60855">
        <ele>354.49359</ele>
        <time>2023-07-04T15:40:28.000Z</time>
      </trkpt>
      <trkpt lat="45.85339" lon="4.60862">
        <ele>354.28726</ele>
        <time>2023-07-04T15:40:29.000Z</time>
      </trkpt>
      <trkpt lat="45.85337" lon="4.60869">
        <ele>354.65634</ele>
        <time>2023-07-04T15:40:30.000Z</time>
      </trkpt>
      <trkpt lat="45.85335" lon="4.60878">
        <ele>355.01788</ele>
        <time>2023-07-04T15:40:31.000Z</time>
      </trkpt>
      <trkpt lat="45.85332" lon="4.60886">
        <ele>355.36359</ele>
        <time>2023-07-04T15:40:32.000Z</time>
      </trkpt>
      <trkpt lat="45.8533" lon="4.60893">
        <ele>355.6929</ele>
        <time>2023-07-04T15:40:33.000Z</time>
      </trkpt>
      <trkpt lat="45.85327" lon="4.60901">
        <ele>356.01581</ele>
        <time>2023-07-04T15:40:34.000Z</time>
      </trkpt>
      <trkpt lat="45.85324" lon="4.60909">
        <ele>357.01447</ele>
        <time>2023-07-04T15:40:35.000Z</time>
      </trkpt>
      <trkpt lat="45.85322" lon="4.60917">
        <ele>358.00226</ele>
        <time>2023-07-04T15:40:36.000Z</time>
      </trkpt>
      <trkpt lat="45.85319" lon="4.60925">
        <ele>358.96155</ele>
        <time>2023-07-04T15:40:37.000Z</time>
      </trkpt>
      <trkpt lat="45.85318" lon="4.60934">
        <ele>360.05725</ele>
        <time>2023-07-04T15:40:38.000Z</time>
      </trkpt>
      <trkpt lat="45.85315" lon="4.60942">
        <ele>361.13803</ele>
        <time>2023-07-04T15:40:39.000Z</time>
      </trkpt>
      <trkpt lat="45.85312" lon="4.6095">
        <ele>362.22046</ele>
        <time>2023-07-04T15:40:40.000Z</time>
      </trkpt>
      <trkpt lat="45.8531" lon="4.60958">
        <ele>363.46945</ele>
        <time>2023-07-04T15:40:41.000Z</time>
      </trkpt>
      <trkpt lat="45.85308" lon="4.60966">
        <ele>364.82211</ele>
        <time>2023-07-04T15:40:42.000Z</time>
      </trkpt>
      <trkpt lat="45.85305" lon="4.60974">
        <ele>365.42444</ele>
        <time>2023-07-04T15:40:43.000Z</time>
      </trkpt>
      <trkpt lat="45.85302" lon="4.60983">
        <ele>366.0354</ele>
        <time>2023-07-04T15:40:44.000Z</time>
      </trkpt>
      <trkpt lat="45.853" lon="4.60991">
        <ele>366.6543</ele>
        <time>2023-07-04T15:40:45.000Z</time>
      </trkpt>
      <trkpt lat="45.85298" lon="4.60999">
        <ele>367.25751</ele>
        <time>2023-07-04T15:40:46.000Z</time>
      </trkpt>
      <trkpt lat="45.85296" lon="4.61007">
        <ele>368.3544</ele>
        <time>2023-07-04T15:40:47.000Z</time>
      </trkpt>
      <trkpt lat="45.85294" lon="4.61015">
        <ele>369.46954</ele>
        <time>2023-07-04T15:40:48.000Z</time>
      </trkpt>
      <trkpt lat="45.85292" lon="4.61022">
        <ele>370.84293</ele>
        <time>2023-07-04T15:40:49.000Z</time>
      </trkpt>
      <trkpt lat="45.8529" lon="4.61029">
        <ele>370.72601</ele>
        <time>2023-07-04T15:40:50.000Z</time>
      </trkpt>
      <trkpt lat="45.85289" lon="4.61037">
        <ele>370.62216</ele>
        <time>2023-07-04T15:40:51.000Z</time>
      </trkpt>
      <trkpt lat="45.85287" lon="4.61043">
        <ele>370.51904</ele>
        <time>2023-07-04T15:40:52.000Z</time>
      </trkpt>
      <trkpt lat="45.85286" lon="4.61049">
        <ele>370.42468</ele>
        <time>2023-07-04T15:40:53.000Z</time>
      </trkpt>
      <trkpt lat="45.85282" lon="4.61053">
        <ele>370.27667</ele>
        <time>2023-07-04T15:40:54.000Z</time>
      </trkpt>
      <trkpt lat="45.85277" lon="4.61057">
        <ele>369.50787</ele>
        <time>2023-07-04T15:40:55.000Z</time>
      </trkpt>
      <trkpt lat="45.85271" lon="4.61061">
        <ele>368.39804</ele>
        <time>2023-07-04T15:40:56.000Z</time>
      </trkpt>
      <trkpt lat="45.85265" lon="4.61064">
        <ele>367.26956</ele>
        <time>2023-07-04T15:40:57.000Z</time>
      </trkpt>
      <trkpt lat="45.8526" lon="4.61067">
        <ele>366.29083</ele>
        <time>2023-07-04T15:40:58.000Z</time>
      </trkpt>
      <trkpt lat="45.85254" lon="4.6107">
        <ele>365.29547</ele>
        <time>2023-07-04T15:40:59.000Z</time>
      </trkpt>
      <trkpt lat="45.85249" lon="4.61073">
        <ele>364.27094</ele>
        <time>2023-07-04T15:41:00.000Z</time>
      </trkpt>
      <trkpt lat="45.85244" lon="4.61077">
        <ele>363.19037</ele>
        <time>2023-07-04T15:41:01.000Z</time>
      </trkpt>
      <trkpt lat="45.85239" lon="4.61079">
        <ele>362.10294</ele>
        <time>2023-07-04T15:41:02.000Z</time>
      </trkpt>
      <trkpt lat="45.85235" lon="4.61081">
        <ele>361.00934</ele>
        <time>2023-07-04T15:41:03.000Z</time>
      </trkpt>
      <trkpt lat="45.85232" lon="4.61083">
        <ele>359.91669</ele>
        <time>2023-07-04T15:41:04.000Z</time>
      </trkpt>
      <trkpt lat="45.85229" lon="4.61085">
        <ele>358.82959</ele>
        <time>2023-07-04T15:41:05.000Z</time>
      </trkpt>
      <trkpt lat="45.85227" lon="4.61085">
        <ele>357.75113</ele>
        <time>2023-07-04T15:41:06.000Z</time>
      </trkpt>
      <trkpt lat="45.85224" lon="4.61086">
        <ele>356.6694</ele>
        <time>2023-07-04T15:41:08.000Z</time>
      </trkpt>
      <trkpt lat="45.85222" lon="4.61087">
        <ele>355.59497</ele>
        <time>2023-07-04T15:41:11.000Z</time>
      </trkpt>
      <trkpt lat="45.8522" lon="4.61088">
        <ele>354.49088</ele>
        <time>2023-07-04T15:41:12.000Z</time>
      </trkpt>
      <trkpt lat="45.85218" lon="4.61089">
        <ele>354.30792</ele>
        <time>2023-07-04T15:41:13.000Z</time>
      </trkpt>
      <trkpt lat="45.85215" lon="4.61089">
        <ele>354.0993</ele>
        <time>2023-07-04T15:41:14.000Z</time>
      </trkpt>
      <trkpt lat="45.85212" lon="4.61089">
        <ele>353.86285</ele>
        <time>2023-07-04T15:41:15.000Z</time>
      </trkpt>
      <trkpt lat="45.85209" lon="4.61088">
        <ele>353.58945</ele>
        <time>2023-07-04T15:41:16.000Z</time>
      </trkpt>
      <trkpt lat="45.85204" lon="4.61089">
        <ele>353.35571</ele>
        <time>2023-07-04T15:41:17.000Z</time>
      </trkpt>
      <trkpt lat="45.85199" lon="4.6109">
        <ele>353.03439</ele>
        <time>2023-07-04T15:41:18.000Z</time>
      </trkpt>
      <trkpt lat="45.85194" lon="4.6109">
        <ele>353.0401</ele>
        <time>2023-07-04T15:41:19.000Z</time>
      </trkpt>
      <trkpt lat="45.85189" lon="4.6109">
        <ele>353.05621</ele>
        <time>2023-07-04T15:41:20.000Z</time>
      </trkpt>
      <trkpt lat="45.85185" lon="4.61091">
        <ele>352.74472</ele>
        <time>2023-07-04T15:41:21.000Z</time>
      </trkpt>
      <trkpt lat="45.8518" lon="4.61092">
        <ele>352.43866</ele>
        <time>2023-07-04T15:41:22.000Z</time>
      </trkpt>
      <trkpt lat="45.85176" lon="4.61093">
        <ele>352.12527</ele>
        <time>2023-07-04T15:41:23.000Z</time>
      </trkpt>
      <trkpt lat="45.85173" lon="4.61094">
        <ele>351.84576</ele>
        <time>2023-07-04T15:41:24.000Z</time>
      </trkpt>
      <trkpt lat="45.85169" lon="4.61096">
        <ele>351.58847</ele>
        <time>2023-07-04T15:41:25.000Z</time>
      </trkpt>
      <trkpt lat="45.85165" lon="4.61098">
        <ele>351.34528</ele>
        <time>2023-07-04T15:41:26.000Z</time>
      </trkpt>
      <trkpt lat="45.85161" lon="4.61099">
        <ele>351.09042</ele>
        <time>2023-07-04T15:41:27.000Z</time>
      </trkpt>
      <trkpt lat="45.85156" lon="4.61098">
        <ele>350.8533</ele>
        <time>2023-07-04T15:41:28.000Z</time>
      </trkpt>
      <trkpt lat="45.85152" lon="4.61097">
        <ele>350.62814</ele>
        <time>2023-07-04T15:41:29.000Z</time>
      </trkpt>
      <trkpt lat="45.85148" lon="4.61095">
        <ele>350.37842</ele>
        <time>2023-07-04T15:41:30.000Z</time>
      </trkpt>
      <trkpt lat="45.85145" lon="4.61095">
        <ele>350.11395</ele>
        <time>2023-07-04T15:41:31.000Z</time>
      </trkpt>
      <trkpt lat="45.85141" lon="4.61095">
        <ele>349.88101</ele>
        <time>2023-07-04T15:41:32.000Z</time>
      </trkpt>
      <trkpt lat="45.85138" lon="4.61095">
        <ele>349.63336</ele>
        <time>2023-07-04T15:41:33.000Z</time>
      </trkpt>
      <trkpt lat="45.85136" lon="4.61094">
        <ele>349.41339</ele>
        <time>2023-07-04T15:41:34.000Z</time>
      </trkpt>
      <trkpt lat="45.85134" lon="4.61094">
        <ele>349.26813</ele>
        <time>2023-07-04T15:41:36.000Z</time>
      </trkpt>
      <trkpt lat="45.85132" lon="4.61094">
        <ele>349.64429</ele>
        <time>2023-07-04T15:41:59.000Z</time>
      </trkpt>
      <trkpt lat="45.85129" lon="4.61095">
        <ele>349.77853</ele>
        <time>2023-07-04T15:42:00.000Z</time>
      </trkpt>
      <trkpt lat="45.85127" lon="4.61095">
        <ele>349.97351</ele>
        <time>2023-07-04T15:42:01.000Z</time>
      </trkpt>
      <trkpt lat="45.85124" lon="4.61096">
        <ele>350.18536</ele>
        <time>2023-07-04T15:42:02.000Z</time>
      </trkpt>
      <trkpt lat="45.85121" lon="4.61096">
        <ele>350.07877</ele>
        <time>2023-07-04T15:42:03.000Z</time>
      </trkpt>
      <trkpt lat="45.85117" lon="4.61097">
        <ele>349.99518</ele>
        <time>2023-07-04T15:42:04.000Z</time>
      </trkpt>
      <trkpt lat="45.85114" lon="4.61097">
        <ele>349.96231</ele>
        <time>2023-07-04T15:42:05.000Z</time>
      </trkpt>
      <trkpt lat="45.8511" lon="4.61098">
        <ele>349.96509</ele>
        <time>2023-07-04T15:42:06.000Z</time>
      </trkpt>
      <trkpt lat="45.85106" lon="4.61099">
        <ele>349.9729</ele>
        <time>2023-07-04T15:42:07.000Z</time>
      </trkpt>
      <trkpt lat="45.85102" lon="4.611">
        <ele>349.98203</ele>
        <time>2023-07-04T15:42:08.000Z</time>
      </trkpt>
      <trkpt lat="45.85098" lon="4.611">
        <ele>349.99615</ele>
        <time>2023-07-04T15:42:09.000Z</time>
      </trkpt>
      <trkpt lat="45.85093" lon="4.61101">
        <ele>350.02789</ele>
        <time>2023-07-04T15:42:10.000Z</time>
      </trkpt>
      <trkpt lat="45.85089" lon="4.61101">
        <ele>350.02911</ele>
        <time>2023-07-04T15:42:11.000Z</time>
      </trkpt>
      <trkpt lat="45.85085" lon="4.61101">
        <ele>350.00909</ele>
        <time>2023-07-04T15:42:12.000Z</time>
      </trkpt>
      <trkpt lat="45.8508" lon="4.61102">
        <ele>350.00052</ele>
        <time>2023-07-04T15:42:13.000Z</time>
      </trkpt>
      <trkpt lat="45.85074" lon="4.61102">
        <ele>349.99493</ele>
        <time>2023-07-04T15:42:14.000Z</time>
      </trkpt>
      <trkpt lat="45.85069" lon="4.61103">
        <ele>349.99545</ele>
        <time>2023-07-04T15:42:15.000Z</time>
      </trkpt>
      <trkpt lat="45.85065" lon="4.61104">
        <ele>350.02478</ele>
        <time>2023-07-04T15:42:16.000Z</time>
      </trkpt>
      <trkpt lat="45.8506" lon="4.61105">
        <ele>350.0246</ele>
        <time>2023-07-04T15:42:17.000Z</time>
      </trkpt>
      <trkpt lat="45.85056" lon="4.61106">
        <ele>349.9744</ele>
        <time>2023-07-04T15:42:18.000Z</time>
      </trkpt>
      <trkpt lat="45.85051" lon="4.61107">
        <ele>349.43024</ele>
        <time>2023-07-04T15:42:19.000Z</time>
      </trkpt>
      <trkpt lat="45.85046" lon="4.61108">
        <ele>349.16837</ele>
        <time>2023-07-04T15:42:20.000Z</time>
      </trkpt>
      <trkpt lat="45.8504" lon="4.61109">
        <ele>348.83414</ele>
        <time>2023-07-04T15:42:21.000Z</time>
      </trkpt>
      <trkpt lat="45.85035" lon="4.61109">
        <ele>348.51923</ele>
        <time>2023-07-04T15:42:22.000Z</time>
      </trkpt>
      <trkpt lat="45.85031" lon="4.6111">
        <ele>348.53171</ele>
        <time>2023-07-04T15:42:23.000Z</time>
      </trkpt>
      <trkpt lat="45.85025" lon="4.61111">
        <ele>348.57114</ele>
        <time>2023-07-04T15:42:24.000Z</time>
      </trkpt>
      <trkpt lat="45.8502" lon="4.61112">
        <ele>348.59052</ele>
        <time>2023-07-04T15:42:25.000Z</time>
      </trkpt>
      <trkpt lat="45.85015" lon="4.61112">
        <ele>348.58453</ele>
        <time>2023-07-04T15:42:26.000Z</time>
      </trkpt>
      <trkpt lat="45.85011" lon="4.61112">
        <ele>348.59677</ele>
        <time>2023-07-04T15:42:27.000Z</time>
      </trkpt>
      <trkpt lat="45.85008" lon="4.61113">
        <ele>348.5975</ele>
        <time>2023-07-04T15:42:28.000Z</time>
      </trkpt>
      <trkpt lat="45.85004" lon="4.61116">
        <ele>348.61075</ele>
        <time>2023-07-04T15:42:29.000Z</time>
      </trkpt>
      <trkpt lat="45.85002" lon="4.61118">
        <ele>348.61356</ele>
        <time>2023-07-04T15:42:30.000Z</time>
      </trkpt>
      <trkpt lat="45.84998" lon="4.61121">
        <ele>348.62897</ele>
        <time>2023-07-04T15:42:31.000Z</time>
      </trkpt>
      <trkpt lat="45.84996" lon="4.61125">
        <ele>348.69193</ele>
        <time>2023-07-04T15:42:32.000Z</time>
      </trkpt>
      <trkpt lat="45.84995" lon="4.61131">
        <ele>348.7536</ele>
        <time>2023-07-04T15:42:33.000Z</time>
      </trkpt>
      <trkpt lat="45.84995" lon="4.61138">
        <ele>348.77808</ele>
        <time>2023-07-04T15:42:34.000Z</time>
      </trkpt>
      <trkpt lat="45.84994" lon="4.61144">
        <ele>348.76752</ele>
        <time>2023-07-04T15:42:35.000Z</time>
      </trkpt>
      <trkpt lat="45.84994" lon="4.6115">
        <ele>348.74435</ele>
        <time>2023-07-04T15:42:36.000Z</time>
      </trkpt>
      <trkpt lat="45.84993" lon="4.61158">
        <ele>348.73587</ele>
        <time>2023-07-04T15:42:37.000Z</time>
      </trkpt>
      <trkpt lat="45.84993" lon="4.61165">
        <ele>348.72784</ele>
        <time>2023-07-04T15:42:38.000Z</time>
      </trkpt>
      <trkpt lat="45.84993" lon="4.61173">
        <ele>348.73282</ele>
        <time>2023-07-04T15:42:39.000Z</time>
      </trkpt>
      <trkpt lat="45.84992" lon="4.61181">
        <ele>348.71661</ele>
        <time>2023-07-04T15:42:40.000Z</time>
      </trkpt>
      <trkpt lat="45.84991" lon="4.61189">
        <ele>348.73361</ele>
        <time>2023-07-04T15:42:41.000Z</time>
      </trkpt>
      <trkpt lat="45.84991" lon="4.61198">
        <ele>348.7482</ele>
        <time>2023-07-04T15:42:42.000Z</time>
      </trkpt>
      <trkpt lat="45.84991" lon="4.61206">
        <ele>348.75946</ele>
        <time>2023-07-04T15:42:43.000Z</time>
      </trkpt>
      <trkpt lat="45.84991" lon="4.61215">
        <ele>348.7243</ele>
        <time>2023-07-04T15:42:44.000Z</time>
      </trkpt>
      <trkpt lat="45.84991" lon="4.61224">
        <ele>348.66339</ele>
        <time>2023-07-04T15:42:45.000Z</time>
      </trkpt>
      <trkpt lat="45.84991" lon="4.61231">
        <ele>348.60553</ele>
        <time>2023-07-04T15:42:46.000Z</time>
      </trkpt>
      <trkpt lat="45.8499" lon="4.6124">
        <ele>348.51822</ele>
        <time>2023-07-04T15:42:47.000Z</time>
      </trkpt>
      <trkpt lat="45.84989" lon="4.61249">
        <ele>348.3985</ele>
        <time>2023-07-04T15:42:48.000Z</time>
      </trkpt>
      <trkpt lat="45.84989" lon="4.61257">
        <ele>348.27271</ele>
        <time>2023-07-04T15:42:49.000Z</time>
      </trkpt>
      <trkpt lat="45.84988" lon="4.61266">
        <ele>348.27667</ele>
        <time>2023-07-04T15:42:50.000Z</time>
      </trkpt>
      <trkpt lat="45.84988" lon="4.61274">
        <ele>348.27957</ele>
        <time>2023-07-04T15:42:51.000Z</time>
      </trkpt>
      <trkpt lat="45.84987" lon="4.61281">
        <ele>348.24423</ele>
        <time>2023-07-04T15:42:52.000Z</time>
      </trkpt>
      <trkpt lat="45.84987" lon="4.61288">
        <ele>348.09558</ele>
        <time>2023-07-04T15:42:53.000Z</time>
      </trkpt>
      <trkpt lat="45.84987" lon="4.61297">
        <ele>347.96246</ele>
        <time>2023-07-04T15:42:54.000Z</time>
      </trkpt>
      <trkpt lat="45.84987" lon="4.61306">
        <ele>347.79312</ele>
        <time>2023-07-04T15:42:55.000Z</time>
      </trkpt>
      <trkpt lat="45.84986" lon="4.61315">
        <ele>347.65311</ele>
        <time>2023-07-04T15:42:56.000Z</time>
      </trkpt>
      <trkpt lat="45.84985" lon="4.61323">
        <ele>347.7569</ele>
        <time>2023-07-04T15:42:57.000Z</time>
      </trkpt>
      <trkpt lat="45.84984" lon="4.61331">
        <ele>347.92938</ele>
        <time>2023-07-04T15:42:58.000Z</time>
      </trkpt>
      <trkpt lat="45.84984" lon="4.6134">
        <ele>347.74854</ele>
        <time>2023-07-04T15:42:59.000Z</time>
      </trkpt>
      <trkpt lat="45.84983" lon="4.61348">
        <ele>347.54846</ele>
        <time>2023-07-04T15:43:00.000Z</time>
      </trkpt>
      <trkpt lat="45.84982" lon="4.61357">
        <ele>347.34836</ele>
        <time>2023-07-04T15:43:01.000Z</time>
      </trkpt>
      <trkpt lat="45.84981" lon="4.61365">
        <ele>347.15439</ele>
        <time>2023-07-04T15:43:02.000Z</time>
      </trkpt>
      <trkpt lat="45.84981" lon="4.61374">
        <ele>346.97345</ele>
        <time>2023-07-04T15:43:03.000Z</time>
      </trkpt>
      <trkpt lat="45.84981" lon="4.61384">
        <ele>346.80225</ele>
        <time>2023-07-04T15:43:04.000Z</time>
      </trkpt>
      <trkpt lat="45.8498" lon="4.61393">
        <ele>346.65158</ele>
        <time>2023-07-04T15:43:05.000Z</time>
      </trkpt>
      <trkpt lat="45.84979" lon="4.61401">
        <ele>346.51874</ele>
        <time>2023-07-04T15:43:06.000Z</time>
      </trkpt>
      <trkpt lat="45.84979" lon="4.6141">
        <ele>346.40106</ele>
        <time>2023-07-04T15:43:07.000Z</time>
      </trkpt>
      <trkpt lat="45.84978" lon="4.61419">
        <ele>346.30878</ele>
        <time>2023-07-04T15:43:08.000Z</time>
      </trkpt>
      <trkpt lat="45.84977" lon="4.61428">
        <ele>346.21405</ele>
        <time>2023-07-04T15:43:09.000Z</time>
      </trkpt>
      <trkpt lat="45.84977" lon="4.61435">
        <ele>346.01111</ele>
        <time>2023-07-04T15:43:10.000Z</time>
      </trkpt>
      <trkpt lat="45.84976" lon="4.61443">
        <ele>345.82208</ele>
        <time>2023-07-04T15:43:11.000Z</time>
      </trkpt>
      <trkpt lat="45.84976" lon="4.61448">
        <ele>345.65314</ele>
        <time>2023-07-04T15:43:12.000Z</time>
      </trkpt>
      <trkpt lat="45.84977" lon="4.61451">
        <ele>345.61115</ele>
        <time>2023-07-04T15:43:13.000Z</time>
      </trkpt>
      <trkpt lat="45.84979" lon="4.61455">
        <ele>345.56989</ele>
        <time>2023-07-04T15:43:14.000Z</time>
      </trkpt>
      <trkpt lat="45.84983" lon="4.61457">
        <ele>345.78732</ele>
        <time>2023-07-04T15:43:15.000Z</time>
      </trkpt>
      <trkpt lat="45.84988" lon="4.61457">
        <ele>345.78735</ele>
        <time>2023-07-04T15:43:16.000Z</time>
      </trkpt>
      <trkpt lat="45.84992" lon="4.61458">
        <ele>345.55618</ele>
        <time>2023-07-04T15:43:17.000Z</time>
      </trkpt>
      <trkpt lat="45.84997" lon="4.61459">
        <ele>345.18414</ele>
        <time>2023-07-04T15:43:18.000Z</time>
      </trkpt>
      <trkpt lat="45.85002" lon="4.6146">
        <ele>345.17554</ele>
        <time>2023-07-04T15:43:19.000Z</time>
      </trkpt>
      <trkpt lat="45.85007" lon="4.61461">
        <ele>345.17218</ele>
        <time>2023-07-04T15:43:20.000Z</time>
      </trkpt>
      <trkpt lat="45.85013" lon="4.61461">
        <ele>345.20392</ele>
        <time>2023-07-04T15:43:21.000Z</time>
      </trkpt>
      <trkpt lat="45.85019" lon="4.61463">
        <ele>345.21075</ele>
        <time>2023-07-04T15:43:22.000Z</time>
      </trkpt>
      <trkpt lat="45.85024" lon="4.61466">
        <ele>345.21844</ele>
        <time>2023-07-04T15:43:23.000Z</time>
      </trkpt>
      <trkpt lat="45.85031" lon="4.61468">
        <ele>345.23373</ele>
        <time>2023-07-04T15:43:24.000Z</time>
      </trkpt>
      <trkpt lat="45.85037" lon="4.61471">
        <ele>345.26056</ele>
        <time>2023-07-04T15:43:25.000Z</time>
      </trkpt>
      <trkpt lat="45.85043" lon="4.61474">
        <ele>345.25385</ele>
        <time>2023-07-04T15:43:26.000Z</time>
      </trkpt>
      <trkpt lat="45.8505" lon="4.61477">
        <ele>345.2565</ele>
        <time>2023-07-04T15:43:27.000Z</time>
      </trkpt>
      <trkpt lat="45.85057" lon="4.61479">
        <ele>345.26718</ele>
        <time>2023-07-04T15:43:28.000Z</time>
      </trkpt>
      <trkpt lat="45.85064" lon="4.61481">
        <ele>345.23959</ele>
        <time>2023-07-04T15:43:29.000Z</time>
      </trkpt>
      <trkpt lat="45.85072" lon="4.61483">
        <ele>345.09149</ele>
        <time>2023-07-04T15:43:30.000Z</time>
      </trkpt>
      <trkpt lat="45.8508" lon="4.61484">
        <ele>344.97681</ele>
        <time>2023-07-04T15:43:31.000Z</time>
      </trkpt>
      <trkpt lat="45.85088" lon="4.61485">
        <ele>344.8652</ele>
        <time>2023-07-04T15:43:32.000Z</time>
      </trkpt>
      <trkpt lat="45.85095" lon="4.61486">
        <ele>344.73352</ele>
        <time>2023-07-04T15:43:33.000Z</time>
      </trkpt>
      <trkpt lat="45.85104" lon="4.61487">
        <ele>344.58041</ele>
        <time>2023-07-04T15:43:34.000Z</time>
      </trkpt>
      <trkpt lat="45.85112" lon="4.61488">
        <ele>344.21466</ele>
        <time>2023-07-04T15:43:35.000Z</time>
      </trkpt>
      <trkpt lat="45.8512" lon="4.6149">
        <ele>343.99768</ele>
        <time>2023-07-04T15:43:36.000Z</time>
      </trkpt>
      <trkpt lat="45.85127" lon="4.61491">
        <ele>343.8407</ele>
        <time>2023-07-04T15:43:37.000Z</time>
      </trkpt>
      <trkpt lat="45.85134" lon="4.61494">
        <ele>343.73373</ele>
        <time>2023-07-04T15:43:38.000Z</time>
      </trkpt>
      <trkpt lat="45.85141" lon="4.61495">
        <ele>343.59583</ele>
        <time>2023-07-04T15:43:39.000Z</time>
      </trkpt>
      <trkpt lat="45.85147" lon="4.61497">
        <ele>343.30878</ele>
        <time>2023-07-04T15:43:40.000Z</time>
      </trkpt>
      <trkpt lat="45.85153" lon="4.61499">
        <ele>343.00961</ele>
        <time>2023-07-04T15:43:41.000Z</time>
      </trkpt>
      <trkpt lat="45.85156" lon="4.615">
        <ele>342.69794</ele>
        <time>2023-07-04T15:43:42.000Z</time>
      </trkpt>
      <trkpt lat="45.85159" lon="4.61501">
        <ele>342.40466</ele>
        <time>2023-07-04T15:43:43.000Z</time>
      </trkpt>
      <trkpt lat="45.85161" lon="4.61501">
        <ele>342.11194</ele>
        <time>2023-07-04T15:43:44.000Z</time>
      </trkpt>
      <trkpt lat="45.85164" lon="4.61503">
        <ele>341.77582</ele>
        <time>2023-07-04T15:43:45.000Z</time>
      </trkpt>
      <trkpt lat="45.85167" lon="4.61504">
        <ele>341.47491</ele>
        <time>2023-07-04T15:43:46.000Z</time>
      </trkpt>
      <trkpt lat="45.85171" lon="4.61506">
        <ele>341.15427</ele>
        <time>2023-07-04T15:43:47.000Z</time>
      </trkpt>
      <trkpt lat="45.85176" lon="4.61508">
        <ele>340.82721</ele>
        <time>2023-07-04T15:43:48.000Z</time>
      </trkpt>
      <trkpt lat="45.85181" lon="4.61509">
        <ele>340.50653</ele>
        <time>2023-07-04T15:43:49.000Z</time>
      </trkpt>
      <trkpt lat="45.85187" lon="4.61511">
        <ele>340.28983</ele>
        <time>2023-07-04T15:43:50.000Z</time>
      </trkpt>
      <trkpt lat="45.85193" lon="4.61514">
        <ele>340.02585</ele>
        <time>2023-07-04T15:43:51.000Z</time>
      </trkpt>
      <trkpt lat="45.85198" lon="4.61516">
        <ele>339.74844</ele>
        <time>2023-07-04T15:43:52.000Z</time>
      </trkpt>
      <trkpt lat="45.85204" lon="4.61517">
        <ele>339.59055</ele>
        <time>2023-07-04T15:43:53.000Z</time>
      </trkpt>
      <trkpt lat="45.8521" lon="4.61518">
        <ele>339.46323</ele>
        <time>2023-07-04T15:43:54.000Z</time>
      </trkpt>
      <trkpt lat="45.85216" lon="4.61519">
        <ele>339.37811</ele>
        <time>2023-07-04T15:43:55.000Z</time>
      </trkpt>
      <trkpt lat="45.85222" lon="4.6152">
        <ele>339.32071</ele>
        <time>2023-07-04T15:43:56.000Z</time>
      </trkpt>
      <trkpt lat="45.85228" lon="4.61519">
        <ele>339.05792</ele>
        <time>2023-07-04T15:43:57.000Z</time>
      </trkpt>
      <trkpt lat="45.85233" lon="4.61519">
        <ele>338.84384</ele>
        <time>2023-07-04T15:43:58.000Z</time>
      </trkpt>
      <trkpt lat="45.85239" lon="4.61518">
        <ele>338.61343</ele>
        <time>2023-07-04T15:43:59.000Z</time>
      </trkpt>
      <trkpt lat="45.85244" lon="4.61518">
        <ele>338.5528</ele>
        <time>2023-07-04T15:44:00.000Z</time>
      </trkpt>
      <trkpt lat="45.85249" lon="4.61518">
        <ele>338.46503</ele>
        <time>2023-07-04T15:44:01.000Z</time>
      </trkpt>
      <trkpt lat="45.85254" lon="4.61517">
        <ele>338.41895</ele>
        <time>2023-07-04T15:44:02.000Z</time>
      </trkpt>
      <trkpt lat="45.85258" lon="4.61517">
        <ele>338.37503</ele>
        <time>2023-07-04T15:44:03.000Z</time>
      </trkpt>
      <trkpt lat="45.85263" lon="4.61517">
        <ele>338.3035</ele>
        <time>2023-07-04T15:44:04.000Z</time>
      </trkpt>
      <trkpt lat="45.85267" lon="4.61516">
        <ele>338.2717</ele>
        <time>2023-07-04T15:44:05.000Z</time>
      </trkpt>
      <trkpt lat="45.85271" lon="4.61514">
        <ele>338.27112</ele>
        <time>2023-07-04T15:44:06.000Z</time>
      </trkpt>
      <trkpt lat="45.85277" lon="4.61514">
        <ele>338.25946</ele>
        <time>2023-07-04T15:44:07.000Z</time>
      </trkpt>
      <trkpt lat="45.85283" lon="4.61514">
        <ele>338.25858</ele>
        <time>2023-07-04T15:44:08.000Z</time>
      </trkpt>
      <trkpt lat="45.85288" lon="4.61515">
        <ele>338.29706</ele>
        <time>2023-07-04T15:44:09.000Z</time>
      </trkpt>
      <trkpt lat="45.85294" lon="4.61515">
        <ele>338.37628</ele>
        <time>2023-07-04T15:44:10.000Z</time>
      </trkpt>
      <trkpt lat="45.85301" lon="4.61514">
        <ele>338.49512</ele>
        <time>2023-07-04T15:44:11.000Z</time>
      </trkpt>
      <trkpt lat="45.85306" lon="4.61513">
        <ele>338.61908</ele>
        <time>2023-07-04T15:44:12.000Z</time>
      </trkpt>
      <trkpt lat="45.85312" lon="4.61512">
        <ele>338.68121</ele>
        <time>2023-07-04T15:44:13.000Z</time>
      </trkpt>
      <trkpt lat="45.85317" lon="4.61511">
        <ele>338.74677</ele>
        <time>2023-07-04T15:44:14.000Z</time>
      </trkpt>
      <trkpt lat="45.85321" lon="4.61511">
        <ele>338.79868</ele>
        <time>2023-07-04T15:44:15.000Z</time>
      </trkpt>
      <trkpt lat="45.85324" lon="4.61515">
        <ele>338.88654</ele>
        <time>2023-07-04T15:44:16.000Z</time>
      </trkpt>
      <trkpt lat="45.85325" lon="4.61519">
        <ele>339.14337</ele>
        <time>2023-07-04T15:44:17.000Z</time>
      </trkpt>
      <trkpt lat="45.85323" lon="4.61524">
        <ele>339.33615</ele>
        <time>2023-07-04T15:44:18.000Z</time>
      </trkpt>
      <trkpt lat="45.8532" lon="4.61529">
        <ele>339.57858</ele>
        <time>2023-07-04T15:44:19.000Z</time>
      </trkpt>
      <trkpt lat="45.85317" lon="4.61534">
        <ele>339.83893</ele>
        <time>2023-07-04T15:44:20.000Z</time>
      </trkpt>
      <trkpt lat="45.85314" lon="4.6154">
        <ele>340.0954</ele>
        <time>2023-07-04T15:44:21.000Z</time>
      </trkpt>
      <trkpt lat="45.85311" lon="4.61546">
        <ele>340.35876</ele>
        <time>2023-07-04T15:44:22.000Z</time>
      </trkpt>
      <trkpt lat="45.8531" lon="4.61554">
        <ele>340.58871</ele>
        <time>2023-07-04T15:44:23.000Z</time>
      </trkpt>
      <trkpt lat="45.85309" lon="4.61562">
        <ele>340.8588</ele>
        <time>2023-07-04T15:44:24.000Z</time>
      </trkpt>
      <trkpt lat="45.85309" lon="4.6157">
        <ele>341.15149</ele>
        <time>2023-07-04T15:44:25.000Z</time>
      </trkpt>
      <trkpt lat="45.8531" lon="4.61578">
        <ele>341.43173</ele>
        <time>2023-07-04T15:44:26.000Z</time>
      </trkpt>
      <trkpt lat="45.8531" lon="4.61585">
        <ele>341.77869</ele>
        <time>2023-07-04T15:44:27.000Z</time>
      </trkpt>
      <trkpt lat="45.8531" lon="4.61593">
        <ele>342.11502</ele>
        <time>2023-07-04T15:44:28.000Z</time>
      </trkpt>
      <trkpt lat="45.85311" lon="4.61601">
        <ele>342.45416</ele>
        <time>2023-07-04T15:44:29.000Z</time>
      </trkpt>
      <trkpt lat="45.85311" lon="4.61606">
        <ele>342.6839</ele>
        <time>2023-07-04T15:44:30.000Z</time>
      </trkpt>
      <trkpt lat="45.85312" lon="4.61613">
        <ele>342.91422</ele>
        <time>2023-07-04T15:44:31.000Z</time>
      </trkpt>
      <trkpt lat="45.85313" lon="4.6162">
        <ele>343.13617</ele>
        <time>2023-07-04T15:44:32.000Z</time>
      </trkpt>
      <trkpt lat="45.85314" lon="4.61628">
        <ele>343.32278</ele>
        <time>2023-07-04T15:44:33.000Z</time>
      </trkpt>
      <trkpt lat="45.85314" lon="4.61634">
        <ele>343.82816</ele>
        <time>2023-07-04T15:44:34.000Z</time>
      </trkpt>
      <trkpt lat="45.85315" lon="4.61641">
        <ele>344.31369</ele>
        <time>2023-07-04T15:44:35.000Z</time>
      </trkpt>
      <trkpt lat="45.85315" lon="4.61647">
        <ele>344.7757</ele>
        <time>2023-07-04T15:44:36.000Z</time>
      </trkpt>
      <trkpt lat="45.85314" lon="4.61654">
        <ele>345.22369</ele>
        <time>2023-07-04T15:44:37.000Z</time>
      </trkpt>
      <trkpt lat="45.85312" lon="4.6166">
        <ele>345.83118</ele>
        <time>2023-07-04T15:44:38.000Z</time>
      </trkpt>
      <trkpt lat="45.85311" lon="4.61668">
        <ele>346.52008</ele>
        <time>2023-07-04T15:44:39.000Z</time>
      </trkpt>
      <trkpt lat="45.8531" lon="4.61676">
        <ele>346.88763</ele>
        <time>2023-07-04T15:44:40.000Z</time>
      </trkpt>
      <trkpt lat="45.8531" lon="4.61685">
        <ele>346.95407</ele>
        <time>2023-07-04T15:44:41.000Z</time>
      </trkpt>
      <trkpt lat="45.85309" lon="4.61693">
        <ele>346.983</ele>
        <time>2023-07-04T15:44:42.000Z</time>
      </trkpt>
      <trkpt lat="45.85308" lon="4.61703">
        <ele>347.02982</ele>
        <time>2023-07-04T15:44:43.000Z</time>
      </trkpt>
      <trkpt lat="45.85307" lon="4.61713">
        <ele>347.40536</ele>
        <time>2023-07-04T15:44:44.000Z</time>
      </trkpt>
      <trkpt lat="45.85307" lon="4.61722">
        <ele>347.79889</ele>
        <time>2023-07-04T15:44:45.000Z</time>
      </trkpt>
      <trkpt lat="45.85305" lon="4.61731">
        <ele>347.76266</ele>
        <time>2023-07-04T15:44:46.000Z</time>
      </trkpt>
      <trkpt lat="45.85304" lon="4.61739">
        <ele>347.65451</ele>
        <time>2023-07-04T15:44:47.000Z</time>
      </trkpt>
      <trkpt lat="45.85303" lon="4.61748">
        <ele>347.50876</ele>
        <time>2023-07-04T15:44:48.000Z</time>
      </trkpt>
      <trkpt lat="45.85302" lon="4.61755">
        <ele>347.31256</ele>
        <time>2023-07-04T15:44:49.000Z</time>
      </trkpt>
      <trkpt lat="45.85302" lon="4.61762">
        <ele>347.14951</ele>
        <time>2023-07-04T15:44:50.000Z</time>
      </trkpt>
      <trkpt lat="45.85303" lon="4.6177">
        <ele>346.93158</ele>
        <time>2023-07-04T15:44:51.000Z</time>
      </trkpt>
      <trkpt lat="45.85303" lon="4.61776">
        <ele>346.74301</ele>
        <time>2023-07-04T15:44:52.000Z</time>
      </trkpt>
      <trkpt lat="45.85303" lon="4.61782">
        <ele>346.57047</ele>
        <time>2023-07-04T15:44:53.000Z</time>
      </trkpt>
      <trkpt lat="45.85303" lon="4.61789">
        <ele>346.04413</ele>
        <time>2023-07-04T15:44:54.000Z</time>
      </trkpt>
      <trkpt lat="45.85304" lon="4.61798">
        <ele>345.33582</ele>
        <time>2023-07-04T15:44:55.000Z</time>
      </trkpt>
      <trkpt lat="45.85306" lon="4.61807">
        <ele>344.63412</ele>
        <time>2023-07-04T15:44:56.000Z</time>
      </trkpt>
      <trkpt lat="45.85307" lon="4.61817">
        <ele>343.87299</ele>
        <time>2023-07-04T15:44:57.000Z</time>
      </trkpt>
      <trkpt lat="45.85309" lon="4.61827">
        <ele>342.94711</ele>
        <time>2023-07-04T15:44:58.000Z</time>
      </trkpt>
      <trkpt lat="45.85311" lon="4.61837">
        <ele>341.88687</ele>
        <time>2023-07-04T15:44:59.000Z</time>
      </trkpt>
      <trkpt lat="45.85313" lon="4.61848">
        <ele>341.12656</ele>
        <time>2023-07-04T15:45:00.000Z</time>
      </trkpt>
      <trkpt lat="45.85314" lon="4.61857">
        <ele>340.65854</ele>
        <time>2023-07-04T15:45:01.000Z</time>
      </trkpt>
      <trkpt lat="45.85315" lon="4.61866">
        <ele>340.21088</ele>
        <time>2023-07-04T15:45:02.000Z</time>
      </trkpt>
      <trkpt lat="45.85316" lon="4.61875">
        <ele>339.75409</ele>
        <time>2023-07-04T15:45:03.000Z</time>
      </trkpt>
      <trkpt lat="45.85316" lon="4.61883">
        <ele>338.95782</ele>
        <time>2023-07-04T15:45:04.000Z</time>
      </trkpt>
      <trkpt lat="45.85317" lon="4.6189">
        <ele>338.12317</ele>
        <time>2023-07-04T15:45:05.000Z</time>
      </trkpt>
      <trkpt lat="45.85317" lon="4.61895">
        <ele>337.67563</ele>
        <time>2023-07-04T15:45:06.000Z</time>
      </trkpt>
      <trkpt lat="45.85317" lon="4.619">
        <ele>337.27145</ele>
        <time>2023-07-04T15:45:07.000Z</time>
      </trkpt>
      <trkpt lat="45.85316" lon="4.61906">
        <ele>336.90045</ele>
        <time>2023-07-04T15:45:08.000Z</time>
      </trkpt>
      <trkpt lat="45.85316" lon="4.61912">
        <ele>336.60699</ele>
        <time>2023-07-04T15:45:09.000Z</time>
      </trkpt>
      <trkpt lat="45.85315" lon="4.61917">
        <ele>336.34097</ele>
        <time>2023-07-04T15:45:10.000Z</time>
      </trkpt>
      <trkpt lat="45.85314" lon="4.61923">
        <ele>336.11929</ele>
        <time>2023-07-04T15:45:11.000Z</time>
      </trkpt>
      <trkpt lat="45.85313" lon="4.61927">
        <ele>335.88104</ele>
        <time>2023-07-04T15:45:12.000Z</time>
      </trkpt>
      <trkpt lat="45.85312" lon="4.61932">
        <ele>335.64227</ele>
        <time>2023-07-04T15:45:13.000Z</time>
      </trkpt>
      <trkpt lat="45.85311" lon="4.61936">
        <ele>335.42334</ele>
        <time>2023-07-04T15:45:14.000Z</time>
      </trkpt>
      <trkpt lat="45.8531" lon="4.61941">
        <ele>335.38907</ele>
        <time>2023-07-04T15:45:15.000Z</time>
      </trkpt>
      <trkpt lat="45.8531" lon="4.61945">
        <ele>335.33942</ele>
        <time>2023-07-04T15:45:16.000Z</time>
      </trkpt>
      <trkpt lat="45.85309" lon="4.6195">
        <ele>335.33002</ele>
        <time>2023-07-04T15:45:17.000Z</time>
      </trkpt>
      <trkpt lat="45.85309" lon="4.61955">
        <ele>335.3783</ele>
        <time>2023-07-04T15:45:18.000Z</time>
      </trkpt>
      <trkpt lat="45.85308" lon="4.6196">
        <ele>335.58316</ele>
        <time>2023-07-04T15:45:19.000Z</time>
      </trkpt>
      <trkpt lat="45.85308" lon="4.61965">
        <ele>335.78595</ele>
        <time>2023-07-04T15:45:20.000Z</time>
      </trkpt>
      <trkpt lat="45.85307" lon="4.61971">
        <ele>336.03268</ele>
        <time>2023-07-04T15:45:21.000Z</time>
      </trkpt>
      <trkpt lat="45.85306" lon="4.61977">
        <ele>336.10983</ele>
        <time>2023-07-04T15:45:22.000Z</time>
      </trkpt>
      <trkpt lat="45.85305" lon="4.61982">
        <ele>336.24234</ele>
        <time>2023-07-04T15:45:23.000Z</time>
      </trkpt>
      <trkpt lat="45.85304" lon="4.6199">
        <ele>336.37149</ele>
        <time>2023-07-04T15:45:24.000Z</time>
      </trkpt>
      <trkpt lat="45.85302" lon="4.61996">
        <ele>336.55362</ele>
        <time>2023-07-04T15:45:25.000Z</time>
      </trkpt>
      <trkpt lat="45.85302" lon="4.62002">
        <ele>336.76239</ele>
        <time>2023-07-04T15:45:26.000Z</time>
      </trkpt>
      <trkpt lat="45.85301" lon="4.62008">
        <ele>336.90918</ele>
        <time>2023-07-04T15:45:27.000Z</time>
      </trkpt>
      <trkpt lat="45.85301" lon="4.62015">
        <ele>337.14594</ele>
        <time>2023-07-04T15:45:28.000Z</time>
      </trkpt>
      <trkpt lat="45.853" lon="4.62023">
        <ele>337.35861</ele>
        <time>2023-07-04T15:45:29.000Z</time>
      </trkpt>
      <trkpt lat="45.853" lon="4.6203">
        <ele>337.61411</ele>
        <time>2023-07-04T15:45:30.000Z</time>
      </trkpt>
      <trkpt lat="45.853" lon="4.62036">
        <ele>337.84448</ele>
        <time>2023-07-04T15:45:31.000Z</time>
      </trkpt>
      <trkpt lat="45.85299" lon="4.62044">
        <ele>337.92374</ele>
        <time>2023-07-04T15:45:32.000Z</time>
      </trkpt>
      <trkpt lat="45.85299" lon="4.62052">
        <ele>338.00092</ele>
        <time>2023-07-04T15:45:33.000Z</time>
      </trkpt>
      <trkpt lat="45.853" lon="4.62059">
        <ele>338.1102</ele>
        <time>2023-07-04T15:45:34.000Z</time>
      </trkpt>
      <trkpt lat="45.85301" lon="4.62066">
        <ele>338.20999</ele>
        <time>2023-07-04T15:45:35.000Z</time>
      </trkpt>
      <trkpt lat="45.85301" lon="4.62073">
        <ele>338.30191</ele>
        <time>2023-07-04T15:45:36.000Z</time>
      </trkpt>
      <trkpt lat="45.85301" lon="4.6208">
        <ele>338.37436</ele>
        <time>2023-07-04T15:45:37.000Z</time>
      </trkpt>
      <trkpt lat="45.85302" lon="4.62087">
        <ele>338.57623</ele>
        <time>2023-07-04T15:45:38.000Z</time>
      </trkpt>
      <trkpt lat="45.85302" lon="4.62094">
        <ele>338.67767</ele>
        <time>2023-07-04T15:45:39.000Z</time>
      </trkpt>
      <trkpt lat="45.85302" lon="4.62102">
        <ele>338.81683</ele>
        <time>2023-07-04T15:45:40.000Z</time>
      </trkpt>
      <trkpt lat="45.85303" lon="4.62109">
        <ele>338.47424</ele>
        <time>2023-07-04T15:45:41.000Z</time>
      </trkpt>
      <trkpt lat="45.85303" lon="4.62116">
        <ele>338.28723</ele>
        <time>2023-07-04T15:45:42.000Z</time>
      </trkpt>
      <trkpt lat="45.85303" lon="4.62122">
        <ele>338.07748</ele>
        <time>2023-07-04T15:45:43.000Z</time>
      </trkpt>
      <trkpt lat="45.85303" lon="4.62129">
        <ele>337.86835</ele>
        <time>2023-07-04T15:45:44.000Z</time>
      </trkpt>
      <trkpt lat="45.85305" lon="4.62136">
        <ele>337.5802</ele>
        <time>2023-07-04T15:45:45.000Z</time>
      </trkpt>
      <trkpt lat="45.85305" lon="4.62143">
        <ele>337.25827</ele>
        <time>2023-07-04T15:45:46.000Z</time>
      </trkpt>
      <trkpt lat="45.85306" lon="4.62149">
        <ele>337.01059</ele>
        <time>2023-07-04T15:45:47.000Z</time>
      </trkpt>
      <trkpt lat="45.85307" lon="4.62155">
        <ele>336.64435</ele>
        <time>2023-07-04T15:45:48.000Z</time>
      </trkpt>
      <trkpt lat="45.85307" lon="4.62163">
        <ele>336.23871</ele>
        <time>2023-07-04T15:45:49.000Z</time>
      </trkpt>
      <trkpt lat="45.85308" lon="4.6217">
        <ele>335.92731</ele>
        <time>2023-07-04T15:45:50.000Z</time>
      </trkpt>
      <trkpt lat="45.8531" lon="4.62176">
        <ele>335.63242</ele>
        <time>2023-07-04T15:45:51.000Z</time>
      </trkpt>
      <trkpt lat="45.85312" lon="4.62183">
        <ele>335.47437</ele>
        <time>2023-07-04T15:45:52.000Z</time>
      </trkpt>
      <trkpt lat="45.85313" lon="4.6219">
        <ele>335.31308</ele>
        <time>2023-07-04T15:45:53.000Z</time>
      </trkpt>
      <trkpt lat="45.85315" lon="4.62197">
        <ele>335.13449</ele>
        <time>2023-07-04T15:45:54.000Z</time>
      </trkpt>
      <trkpt lat="45.85317" lon="4.62204">
        <ele>334.9538</ele>
        <time>2023-07-04T15:45:55.000Z</time>
      </trkpt>
      <trkpt lat="45.85318" lon="4.6221">
        <ele>334.78705</ele>
        <time>2023-07-04T15:45:56.000Z</time>
      </trkpt>
      <trkpt lat="45.8532" lon="4.62216">
        <ele>334.66522</ele>
        <time>2023-07-04T15:45:57.000Z</time>
      </trkpt>
      <trkpt lat="45.85322" lon="4.62223">
        <ele>334.38528</ele>
        <time>2023-07-04T15:45:58.000Z</time>
      </trkpt>
      <trkpt lat="45.85323" lon="4.62228">
        <ele>334.07333</ele>
        <time>2023-07-04T15:45:59.000Z</time>
      </trkpt>
      <trkpt lat="45.85325" lon="4.62235">
        <ele>334.04248</ele>
        <time>2023-07-04T15:46:00.000Z</time>
      </trkpt>
      <trkpt lat="45.85326" lon="4.6224">
        <ele>334.51624</ele>
        <time>2023-07-04T15:46:01.000Z</time>
      </trkpt>
      <trkpt lat="45.85326" lon="4.62247">
        <ele>334.96817</ele>
        <time>2023-07-04T15:46:02.000Z</time>
      </trkpt>
      <trkpt lat="45.85325" lon="4.62253">
        <ele>335.39337</ele>
        <time>2023-07-04T15:46:03.000Z</time>
      </trkpt>
      <trkpt lat="45.85325" lon="4.62259">
        <ele>335.81091</ele>
        <time>2023-07-04T15:46:04.000Z</time>
      </trkpt>
      <trkpt lat="45.85325" lon="4.62266">
        <ele>336.27026</ele>
        <time>2023-07-04T15:46:05.000Z</time>
      </trkpt>
      <trkpt lat="45.85324" lon="4.62273">
        <ele>336.78409</ele>
        <time>2023-07-04T15:46:06.000Z</time>
      </trkpt>
      <trkpt lat="45.85323" lon="4.6228">
        <ele>337.14063</ele>
        <time>2023-07-04T15:46:07.000Z</time>
      </trkpt>
      <trkpt lat="45.85322" lon="4.62288">
        <ele>337.55219</ele>
        <time>2023-07-04T15:46:08.000Z</time>
      </trkpt>
      <trkpt lat="45.85321" lon="4.62295">
        <ele>337.6701</ele>
        <time>2023-07-04T15:46:09.000Z</time>
      </trkpt>
      <trkpt lat="45.8532" lon="4.62303">
        <ele>337.67435</ele>
        <time>2023-07-04T15:46:10.000Z</time>
      </trkpt>
      <trkpt lat="45.8532" lon="4.62311">
        <ele>337.61316</ele>
        <time>2023-07-04T15:46:11.000Z</time>
      </trkpt>
      <trkpt lat="45.85319" lon="4.62319">
        <ele>337.57343</ele>
        <time>2023-07-04T15:46:12.000Z</time>
      </trkpt>
      <trkpt lat="45.85319" lon="4.62327">
        <ele>337.52469</ele>
        <time>2023-07-04T15:46:13.000Z</time>
      </trkpt>
      <trkpt lat="45.85318" lon="4.62336">
        <ele>337.45633</ele>
        <time>2023-07-04T15:46:14.000Z</time>
      </trkpt>
      <trkpt lat="45.85317" lon="4.62344">
        <ele>337.40585</ele>
        <time>2023-07-04T15:46:15.000Z</time>
      </trkpt>
      <trkpt lat="45.85316" lon="4.62352">
        <ele>337.33005</ele>
        <time>2023-07-04T15:46:16.000Z</time>
      </trkpt>
      <trkpt lat="45.85314" lon="4.6236">
        <ele>338.75104</ele>
        <time>2023-07-04T15:46:17.000Z</time>
      </trkpt>
      <trkpt lat="45.85313" lon="4.62369">
        <ele>340.21732</ele>
        <time>2023-07-04T15:46:18.000Z</time>
      </trkpt>
      <trkpt lat="45.85313" lon="4.62378">
        <ele>341.66586</ele>
        <time>2023-07-04T15:46:19.000Z</time>
      </trkpt>
      <trkpt lat="45.85313" lon="4.62384">
        <ele>342.21826</ele>
        <time>2023-07-04T15:46:20.000Z</time>
      </trkpt>
      <trkpt lat="45.85312" lon="4.62392">
        <ele>342.80804</ele>
        <time>2023-07-04T15:46:21.000Z</time>
      </trkpt>
      <trkpt lat="45.85311" lon="4.624">
        <ele>343.41345</ele>
        <time>2023-07-04T15:46:22.000Z</time>
      </trkpt>
      <trkpt lat="45.8531" lon="4.62409">
        <ele>344.09869</ele>
        <time>2023-07-04T15:46:23.000Z</time>
      </trkpt>
      <trkpt lat="45.85309" lon="4.62416">
        <ele>344.27863</ele>
        <time>2023-07-04T15:46:24.000Z</time>
      </trkpt>
      <trkpt lat="45.85308" lon="4.62424">
        <ele>344.4151</ele>
        <time>2023-07-04T15:46:25.000Z</time>
      </trkpt>
      <trkpt lat="45.85308" lon="4.62433">
        <ele>344.41364</ele>
        <time>2023-07-04T15:46:26.000Z</time>
      </trkpt>
      <trkpt lat="45.85306" lon="4.62439">
        <ele>344.46628</ele>
        <time>2023-07-04T15:46:27.000Z</time>
      </trkpt>
      <trkpt lat="45.85306" lon="4.62447">
        <ele>344.45343</ele>
        <time>2023-07-04T15:46:28.000Z</time>
      </trkpt>
      <trkpt lat="45.85305" lon="4.62454">
        <ele>344.74069</ele>
        <time>2023-07-04T15:46:29.000Z</time>
      </trkpt>
      <trkpt lat="45.85304" lon="4.62461">
        <ele>345.01508</ele>
        <time>2023-07-04T15:46:30.000Z</time>
      </trkpt>
      <trkpt lat="45.85301" lon="4.62465">
        <ele>345.32306</ele>
        <time>2023-07-04T15:46:31.000Z</time>
      </trkpt>
      <trkpt lat="45.85297" lon="4.62466">
        <ele>345.60724</ele>
        <time>2023-07-04T15:46:32.000Z</time>
      </trkpt>
      <trkpt lat="45.85294" lon="4.62463">
        <ele>345.9397</ele>
        <time>2023-07-04T15:46:33.000Z</time>
      </trkpt>
      <trkpt lat="45.8529" lon="4.62459">
        <ele>347.67368</ele>
        <time>2023-07-04T15:46:34.000Z</time>
      </trkpt>
      <trkpt lat="45.85286" lon="4.62455">
        <ele>349.43921</ele>
        <time>2023-07-04T15:46:35.000Z</time>
      </trkpt>
      <trkpt lat="45.85282" lon="4.62451">
        <ele>351.24307</ele>
        <time>2023-07-04T15:46:36.000Z</time>
      </trkpt>
      <trkpt lat="45.85278" lon="4.62449">
        <ele>351.4202</ele>
        <time>2023-07-04T15:46:37.000Z</time>
      </trkpt>
      <trkpt lat="45.85273" lon="4.62445">
        <ele>351.81049</ele>
        <time>2023-07-04T15:46:38.000Z</time>
      </trkpt>
      <trkpt lat="45.85268" lon="4.62442">
        <ele>352.19492</ele>
        <time>2023-07-04T15:46:39.000Z</time>
      </trkpt>
      <trkpt lat="45.85263" lon="4.62439">
        <ele>353.25858</ele>
        <time>2023-07-04T15:46:40.000Z</time>
      </trkpt>
      <trkpt lat="45.85258" lon="4.62435">
        <ele>354.17227</ele>
        <time>2023-07-04T15:46:41.000Z</time>
      </trkpt>
      <trkpt lat="45.85251" lon="4.62431">
        <ele>354.246</ele>
        <time>2023-07-04T15:46:42.000Z</time>
      </trkpt>
      <trkpt lat="45.85246" lon="4.62424">
        <ele>353.00159</ele>
        <time>2023-07-04T15:46:43.000Z</time>
      </trkpt>
      <trkpt lat="45.85242" lon="4.62418">
        <ele>352.2337</ele>
        <time>2023-07-04T15:46:44.000Z</time>
      </trkpt>
      <trkpt lat="45.85237" lon="4.62409">
        <ele>351.47037</ele>
        <time>2023-07-04T15:46:45.000Z</time>
      </trkpt>
      <trkpt lat="45.85232" lon="4.62401">
        <ele>350.81189</ele>
        <time>2023-07-04T15:46:46.000Z</time>
      </trkpt>
      <trkpt lat="45.85228" lon="4.62392">
        <ele>350.20721</ele>
        <time>2023-07-04T15:46:47.000Z</time>
      </trkpt>
      <trkpt lat="45.85222" lon="4.62385">
        <ele>349.59592</ele>
        <time>2023-07-04T15:46:48.000Z</time>
      </trkpt>
      <trkpt lat="45.85214" lon="4.62379">
        <ele>348.95581</ele>
        <time>2023-07-04T15:46:49.000Z</time>
      </trkpt>
      <trkpt lat="45.85207" lon="4.62377">
        <ele>348.26077</ele>
        <time>2023-07-04T15:46:50.000Z</time>
      </trkpt>
      <trkpt lat="45.85199" lon="4.62375">
        <ele>349.07736</ele>
        <time>2023-07-04T15:46:51.000Z</time>
      </trkpt>
      <trkpt lat="45.85192" lon="4.62372">
        <ele>348.41086</ele>
        <time>2023-07-04T15:46:52.000Z</time>
      </trkpt>
      <trkpt lat="45.85185" lon="4.62371">
        <ele>347.61618</ele>
        <time>2023-07-04T15:46:53.000Z</time>
      </trkpt>
      <trkpt lat="45.85179" lon="4.6237">
        <ele>345.3562</ele>
        <time>2023-07-04T15:46:54.000Z</time>
      </trkpt>
      <trkpt lat="45.85172" lon="4.62368">
        <ele>342.99301</ele>
        <time>2023-07-04T15:46:55.000Z</time>
      </trkpt>
      <trkpt lat="45.85166" lon="4.62366">
        <ele>340.58618</ele>
        <time>2023-07-04T15:46:56.000Z</time>
      </trkpt>
      <trkpt lat="45.8516" lon="4.62366">
        <ele>338.28094</ele>
        <time>2023-07-04T15:46:57.000Z</time>
      </trkpt>
      <trkpt lat="45.85153" lon="4.62363">
        <ele>335.73022</ele>
        <time>2023-07-04T15:46:58.000Z</time>
      </trkpt>
      <trkpt lat="45.85145" lon="4.62362">
        <ele>333.25089</ele>
        <time>2023-07-04T15:46:59.000Z</time>
      </trkpt>
      <trkpt lat="45.85137" lon="4.62359">
        <ele>330.62997</ele>
        <time>2023-07-04T15:47:00.000Z</time>
      </trkpt>
      <trkpt lat="45.85128" lon="4.62358">
        <ele>328.05411</ele>
        <time>2023-07-04T15:47:01.000Z</time>
      </trkpt>
      <trkpt lat="45.8512" lon="4.62355">
        <ele>326.30524</ele>
        <time>2023-07-04T15:47:02.000Z</time>
      </trkpt>
      <trkpt lat="45.8511" lon="4.62353">
        <ele>325.79208</ele>
        <time>2023-07-04T15:47:03.000Z</time>
      </trkpt>
      <trkpt lat="45.85102" lon="4.62355">
        <ele>325.50781</ele>
        <time>2023-07-04T15:47:04.000Z</time>
      </trkpt>
      <trkpt lat="45.85095" lon="4.62358">
        <ele>325.09793</ele>
        <time>2023-07-04T15:47:05.000Z</time>
      </trkpt>
      <trkpt lat="45.8509" lon="4.62361">
        <ele>324.63971</ele>
        <time>2023-07-04T15:47:06.000Z</time>
      </trkpt>
      <trkpt lat="45.85087" lon="4.62365">
        <ele>324.18784</ele>
        <time>2023-07-04T15:47:07.000Z</time>
      </trkpt>
      <trkpt lat="45.85086" lon="4.6237">
        <ele>323.83762</ele>
        <time>2023-07-04T15:47:08.000Z</time>
      </trkpt>
      <trkpt lat="45.85084" lon="4.62375">
        <ele>323.50696</ele>
        <time>2023-07-04T15:47:09.000Z</time>
      </trkpt>
      <trkpt lat="45.85083" lon="4.62381">
        <ele>322.99884</ele>
        <time>2023-07-04T15:47:10.000Z</time>
      </trkpt>
      <trkpt lat="45.85082" lon="4.62387">
        <ele>320.79767</ele>
        <time>2023-07-04T15:47:11.000Z</time>
      </trkpt>
      <trkpt lat="45.8508" lon="4.62394">
        <ele>320.04779</ele>
        <time>2023-07-04T15:47:12.000Z</time>
      </trkpt>
      <trkpt lat="45.85078" lon="4.62401">
        <ele>319.39804</ele>
        <time>2023-07-04T15:47:13.000Z</time>
      </trkpt>
      <trkpt lat="45.85075" lon="4.62409">
        <ele>318.82764</ele>
        <time>2023-07-04T15:47:14.000Z</time>
      </trkpt>
      <trkpt lat="45.85073" lon="4.62416">
        <ele>318.31363</ele>
        <time>2023-07-04T15:47:15.000Z</time>
      </trkpt>
      <trkpt lat="45.85071" lon="4.62424">
        <ele>317.81903</ele>
        <time>2023-07-04T15:47:16.000Z</time>
      </trkpt>
      <trkpt lat="45.85068" lon="4.62432">
        <ele>317.32477</ele>
        <time>2023-07-04T15:47:17.000Z</time>
      </trkpt>
      <trkpt lat="45.85066" lon="4.6244">
        <ele>316.81195</ele>
        <time>2023-07-04T15:47:18.000Z</time>
      </trkpt>
      <trkpt lat="45.85063" lon="4.62448">
        <ele>316.23029</ele>
        <time>2023-07-04T15:47:19.000Z</time>
      </trkpt>
      <trkpt lat="45.8506" lon="4.62457">
        <ele>315.74078</ele>
        <time>2023-07-04T15:47:20.000Z</time>
      </trkpt>
      <trkpt lat="45.85057" lon="4.62465">
        <ele>315.43646</ele>
        <time>2023-07-04T15:47:21.000Z</time>
      </trkpt>
      <trkpt lat="45.85053" lon="4.62474">
        <ele>315.15051</ele>
        <time>2023-07-04T15:47:22.000Z</time>
      </trkpt>
      <trkpt lat="45.8505" lon="4.62483">
        <ele>314.86151</ele>
        <time>2023-07-04T15:47:23.000Z</time>
      </trkpt>
      <trkpt lat="45.85047" lon="4.62492">
        <ele>314.37997</ele>
        <time>2023-07-04T15:47:24.000Z</time>
      </trkpt>
      <trkpt lat="45.85043" lon="4.62502">
        <ele>314.02393</ele>
        <time>2023-07-04T15:47:25.000Z</time>
      </trkpt>
      <trkpt lat="45.85039" lon="4.62511">
        <ele>313.43378</ele>
        <time>2023-07-04T15:47:26.000Z</time>
      </trkpt>
      <trkpt lat="45.85035" lon="4.6252">
        <ele>312.8638</ele>
        <time>2023-07-04T15:47:27.000Z</time>
      </trkpt>
      <trkpt lat="45.85032" lon="4.62526">
        <ele>312.25864</ele>
        <time>2023-07-04T15:47:28.000Z</time>
      </trkpt>
      <trkpt lat="45.85029" lon="4.62531">
        <ele>311.68353</ele>
        <time>2023-07-04T15:47:29.000Z</time>
      </trkpt>
      <trkpt lat="45.85027" lon="4.62535">
        <ele>311.26501</ele>
        <time>2023-07-04T15:47:30.000Z</time>
      </trkpt>
      <trkpt lat="45.85024" lon="4.62539">
        <ele>311.04724</ele>
        <time>2023-07-04T15:47:31.000Z</time>
      </trkpt>
      <trkpt lat="45.85022" lon="4.62543">
        <ele>310.84964</ele>
        <time>2023-07-04T15:47:32.000Z</time>
      </trkpt>
      <trkpt lat="45.85021" lon="4.62546">
        <ele>310.62833</ele>
        <time>2023-07-04T15:47:33.000Z</time>
      </trkpt>
      <trkpt lat="45.85019" lon="4.6255">
        <ele>310.40616</ele>
        <time>2023-07-04T15:47:34.000Z</time>
      </trkpt>
      <trkpt lat="45.85018" lon="4.62553">
        <ele>310.18634</ele>
        <time>2023-07-04T15:47:35.000Z</time>
      </trkpt>
      <trkpt lat="45.85016" lon="4.62556">
        <ele>309.99927</ele>
        <time>2023-07-04T15:47:36.000Z</time>
      </trkpt>
      <trkpt lat="45.85014" lon="4.62557">
        <ele>309.8306</ele>
        <time>2023-07-04T15:47:37.000Z</time>
      </trkpt>
      <trkpt lat="45.85013" lon="4.6256">
        <ele>309.70331</ele>
        <time>2023-07-04T15:47:38.000Z</time>
      </trkpt>
      <trkpt lat="45.85011" lon="4.62564">
        <ele>309.60904</ele>
        <time>2023-07-04T15:47:40.000Z</time>
      </trkpt>
      <trkpt lat="45.8501" lon="4.62566">
        <ele>309.45929</ele>
        <time>2023-07-04T15:47:41.000Z</time>
      </trkpt>
      <trkpt lat="45.85008" lon="4.62568">
        <ele>309.16623</ele>
        <time>2023-07-04T15:47:42.000Z</time>
      </trkpt>
      <trkpt lat="45.85007" lon="4.62571">
        <ele>308.89279</ele>
        <time>2023-07-04T15:47:43.000Z</time>
      </trkpt>
      <trkpt lat="45.85009" lon="4.62574">
        <ele>308.54874</ele>
        <time>2023-07-04T15:47:45.000Z</time>
      </trkpt>
      <trkpt lat="45.85011" lon="4.62572">
        <ele>308.20294</ele>
        <time>2023-07-04T15:47:46.000Z</time>
      </trkpt>
      <trkpt lat="45.85013" lon="4.62569">
        <ele>307.88055</ele>
        <time>2023-07-04T15:47:47.000Z</time>
      </trkpt>
      <trkpt lat="45.85015" lon="4.62564">
        <ele>307.80984</ele>
        <time>2023-07-04T15:47:48.000Z</time>
      </trkpt>
      <trkpt lat="45.85017" lon="4.6256">
        <ele>307.69305</ele>
        <time>2023-07-04T15:47:49.000Z</time>
      </trkpt>
      <trkpt lat="45.8502" lon="4.62556">
        <ele>307.56134</ele>
        <time>2023-07-04T15:47:50.000Z</time>
      </trkpt>
      <trkpt lat="45.85022" lon="4.62551">
        <ele>307.42642</ele>
        <time>2023-07-04T15:47:51.000Z</time>
      </trkpt>
      <trkpt lat="45.85023" lon="4.62547">
        <ele>307.34866</ele>
        <time>2023-07-04T15:47:52.000Z</time>
      </trkpt>
      <trkpt lat="45.85025" lon="4.62543">
        <ele>307.32541</ele>
        <time>2023-07-04T15:47:53.000Z</time>
      </trkpt>
      <trkpt lat="45.85027" lon="4.6254">
        <ele>307.35745</ele>
        <time>2023-07-04T15:47:54.000Z</time>
      </trkpt>
      <trkpt lat="45.85028" lon="4.62537">
        <ele>307.40094</ele>
        <time>2023-07-04T15:47:55.000Z</time>
      </trkpt>
      <trkpt lat="45.85028" lon="4.62534">
        <ele>307.45905</ele>
        <time>2023-07-04T15:47:56.000Z</time>
      </trkpt>
      <trkpt lat="45.85027" lon="4.62531">
        <ele>307.3866</ele>
        <time>2023-07-04T15:47:57.000Z</time>
      </trkpt>
      <trkpt lat="45.85025" lon="4.62529">
        <ele>307.30682</ele>
        <time>2023-07-04T15:47:58.000Z</time>
      </trkpt>
      <trkpt lat="45.85023" lon="4.62527">
        <ele>307.25537</ele>
        <time>2023-07-04T15:47:59.000Z</time>
      </trkpt>
      <trkpt lat="45.8502" lon="4.62527">
        <ele>307.17554</ele>
        <time>2023-07-04T15:48:00.000Z</time>
      </trkpt>
      <trkpt lat="45.85018" lon="4.62528">
        <ele>307.11127</ele>
        <time>2023-07-04T15:48:01.000Z</time>
      </trkpt>
      <trkpt lat="45.85017" lon="4.6253">
        <ele>307.03271</ele>
        <time>2023-07-04T15:48:03.000Z</time>
      </trkpt>
      <trkpt lat="45.85019" lon="4.62531">
        <ele>306.89542</ele>
        <time>2023-07-04T15:48:07.000Z</time>
      </trkpt>
      <trkpt lat="45.8502" lon="4.6253">
        <ele>306.79849</ele>
        <time>2023-07-04T15:48:11.000Z</time>
      </trkpt>
      <trkpt lat="45.8502" lon="4.62533">
        <ele>306.79181</ele>
        <time>2023-07-04T15:48:13.000Z</time>
      </trkpt>
      <trkpt lat="45.85017" lon="4.62536">
        <ele>306.73154</ele>
        <time>2023-07-04T15:48:15.000Z</time>
      </trkpt>
      <trkpt lat="45.85014" lon="4.62536">
        <ele>306.66962</ele>
        <time>2023-07-04T15:48:16.000Z</time>
      </trkpt>
      <trkpt lat="45.85011" lon="4.62535">
        <ele>306.64572</ele>
        <time>2023-07-04T15:48:17.000Z</time>
      </trkpt>
      <trkpt lat="45.85008" lon="4.62534">
        <ele>306.65985</ele>
        <time>2023-07-04T15:48:18.000Z</time>
      </trkpt>
      <trkpt lat="45.85004" lon="4.62534">
        <ele>306.6348</ele>
        <time>2023-07-04T15:48:19.000Z</time>
      </trkpt>
      <trkpt lat="45.85001" lon="4.62534">
        <ele>306.603</ele>
        <time>2023-07-04T15:48:20.000Z</time>
      </trkpt>
      <trkpt lat="45.84997" lon="4.62534">
        <ele>306.57245</ele>
        <time>2023-07-04T15:48:21.000Z</time>
      </trkpt>
      <trkpt lat="45.84993" lon="4.62533">
        <ele>306.4762</ele>
        <time>2023-07-04T15:48:22.000Z</time>
      </trkpt>
      <trkpt lat="45.84989" lon="4.62531">
        <ele>306.34564</ele>
        <time>2023-07-04T15:48:23.000Z</time>
      </trkpt>
      <trkpt lat="45.84985" lon="4.62528">
        <ele>306.22403</ele>
        <time>2023-07-04T15:48:24.000Z</time>
      </trkpt>
      <trkpt lat="45.84982" lon="4.62526">
        <ele>306.07086</ele>
        <time>2023-07-04T15:48:25.000Z</time>
      </trkpt>
      <trkpt lat="45.84979" lon="4.62523">
        <ele>306.02768</ele>
        <time>2023-07-04T15:48:26.000Z</time>
      </trkpt>
      <trkpt lat="45.84976" lon="4.6252">
        <ele>305.96494</ele>
        <time>2023-07-04T15:48:27.000Z</time>
      </trkpt>
      <trkpt lat="45.84972" lon="4.62518">
        <ele>305.90347</ele>
        <time>2023-07-04T15:48:28.000Z</time>
      </trkpt>
      <trkpt lat="45.84969" lon="4.62515">
        <ele>305.86951</ele>
        <time>2023-07-04T15:48:29.000Z</time>
      </trkpt>
      <trkpt lat="45.84965" lon="4.62513">
        <ele>305.81335</ele>
        <time>2023-07-04T15:48:30.000Z</time>
      </trkpt>
      <trkpt lat="45.84962" lon="4.62513">
        <ele>305.81354</ele>
        <time>2023-07-04T15:48:31.000Z</time>
      </trkpt>
      <trkpt lat="45.84958" lon="4.62514">
        <ele>305.85895</ele>
        <time>2023-07-04T15:48:32.000Z</time>
      </trkpt>
      <trkpt lat="45.84955" lon="4.62516">
        <ele>305.90921</ele>
        <time>2023-07-04T15:48:33.000Z</time>
      </trkpt>
      <trkpt lat="45.84951" lon="4.62518">
        <ele>305.94376</ele>
        <time>2023-07-04T15:48:34.000Z</time>
      </trkpt>
      <trkpt lat="45.84948" lon="4.62519">
        <ele>306.05515</ele>
        <time>2023-07-04T15:48:35.000Z</time>
      </trkpt>
      <trkpt lat="45.84945" lon="4.62519">
        <ele>306.15314</ele>
        <time>2023-07-04T15:48:36.000Z</time>
      </trkpt>
      <trkpt lat="45.84942" lon="4.6252">
        <ele>306.25156</ele>
        <time>2023-07-04T15:48:37.000Z</time>
      </trkpt>
      <trkpt lat="45.84938" lon="4.62521">
        <ele>306.39819</ele>
        <time>2023-07-04T15:48:38.000Z</time>
      </trkpt>
      <trkpt lat="45.84934" lon="4.62522">
        <ele>306.57846</ele>
        <time>2023-07-04T15:48:39.000Z</time>
      </trkpt>
      <trkpt lat="45.8493" lon="4.62522">
        <ele>306.78482</ele>
        <time>2023-07-04T15:48:40.000Z</time>
      </trkpt>
      <trkpt lat="45.84926" lon="4.62523">
        <ele>307.05426</ele>
        <time>2023-07-04T15:48:41.000Z</time>
      </trkpt>
      <trkpt lat="45.84923" lon="4.62524">
        <ele>307.33154</ele>
        <time>2023-07-04T15:48:42.000Z</time>
      </trkpt>
      <trkpt lat="45.84919" lon="4.62524">
        <ele>307.58911</ele>
        <time>2023-07-04T15:48:43.000Z</time>
      </trkpt>
      <trkpt lat="45.84916" lon="4.62523">
        <ele>307.83582</ele>
        <time>2023-07-04T15:48:44.000Z</time>
      </trkpt>
      <trkpt lat="45.84913" lon="4.62523">
        <ele>308.08929</ele>
        <time>2023-07-04T15:48:45.000Z</time>
      </trkpt>
      <trkpt lat="45.8491" lon="4.62523">
        <ele>308.37195</ele>
        <time>2023-07-04T15:48:46.000Z</time>
      </trkpt>
      <trkpt lat="45.84907" lon="4.62522">
        <ele>308.66891</ele>
        <time>2023-07-04T15:48:47.000Z</time>
      </trkpt>
      <trkpt lat="45.84905" lon="4.62521">
        <ele>308.98123</ele>
        <time>2023-07-04T15:48:48.000Z</time>
      </trkpt>
      <trkpt lat="45.84902" lon="4.6252">
        <ele>309.28854</ele>
        <time>2023-07-04T15:48:49.000Z</time>
      </trkpt>
      <trkpt lat="45.849" lon="4.62519">
        <ele>309.58728</ele>
        <time>2023-07-04T15:48:50.000Z</time>
      </trkpt>
      <trkpt lat="45.84897" lon="4.62517">
        <ele>309.78073</ele>
        <time>2023-07-04T15:48:51.000Z</time>
      </trkpt>
      <trkpt lat="45.84895" lon="4.62514">
        <ele>309.96503</ele>
        <time>2023-07-04T15:48:52.000Z</time>
      </trkpt>
      <trkpt lat="45.84893" lon="4.62511">
        <ele>310.0827</ele>
        <time>2023-07-04T15:48:53.000Z</time>
      </trkpt>
      <trkpt lat="45.8489" lon="4.62509">
        <ele>310.21658</ele>
        <time>2023-07-04T15:48:54.000Z</time>
      </trkpt>
      <trkpt lat="45.84888" lon="4.62506">
        <ele>310.37335</ele>
        <time>2023-07-04T15:48:55.000Z</time>
      </trkpt>
      <trkpt lat="45.84885" lon="4.62504">
        <ele>310.5463</ele>
        <time>2023-07-04T15:48:56.000Z</time>
      </trkpt>
      <trkpt lat="45.84883" lon="4.62501">
        <ele>310.70856</ele>
        <time>2023-07-04T15:48:57.000Z</time>
      </trkpt>
      <trkpt lat="45.8488" lon="4.62499">
        <ele>310.84149</ele>
        <time>2023-07-04T15:48:58.000Z</time>
      </trkpt>
      <trkpt lat="45.84877" lon="4.62496">
        <ele>311.0025</ele>
        <time>2023-07-04T15:48:59.000Z</time>
      </trkpt>
      <trkpt lat="45.84874" lon="4.62493">
        <ele>311.13779</ele>
        <time>2023-07-04T15:49:00.000Z</time>
      </trkpt>
      <trkpt lat="45.84871" lon="4.62491">
        <ele>311.54688</ele>
        <time>2023-07-04T15:49:01.000Z</time>
      </trkpt>
      <trkpt lat="45.84869" lon="4.6249">
        <ele>312.10126</ele>
        <time>2023-07-04T15:49:02.000Z</time>
      </trkpt>
      <trkpt lat="45.84866" lon="4.62489">
        <ele>312.67181</ele>
        <time>2023-07-04T15:49:03.000Z</time>
      </trkpt>
      <trkpt lat="45.84864" lon="4.62488">
        <ele>313.23996</ele>
        <time>2023-07-04T15:49:04.000Z</time>
      </trkpt>
      <trkpt lat="45.84862" lon="4.62488">
        <ele>313.71423</ele>
        <time>2023-07-04T15:49:05.000Z</time>
      </trkpt>
      <trkpt lat="45.84859" lon="4.62486">
        <ele>314.23132</ele>
        <time>2023-07-04T15:49:06.000Z</time>
      </trkpt>
      <trkpt lat="45.84857" lon="4.62485">
        <ele>314.75015</ele>
        <time>2023-07-04T15:49:07.000Z</time>
      </trkpt>
      <trkpt lat="45.84854" lon="4.62483">
        <ele>315.21408</ele>
        <time>2023-07-04T15:49:08.000Z</time>
      </trkpt>
      <trkpt lat="45.84851" lon="4.62481">
        <ele>315.64053</ele>
        <time>2023-07-04T15:49:09.000Z</time>
      </trkpt>
      <trkpt lat="45.84848" lon="4.62479">
        <ele>316.06866</ele>
        <time>2023-07-04T15:49:10.000Z</time>
      </trkpt>
      <trkpt lat="45.84846" lon="4.62478">
        <ele>316.59378</ele>
        <time>2023-07-04T15:49:11.000Z</time>
      </trkpt>
      <trkpt lat="45.84843" lon="4.62476">
        <ele>317.13239</ele>
        <time>2023-07-04T15:49:12.000Z</time>
      </trkpt>
      <trkpt lat="45.8484" lon="4.62475">
        <ele>317.71759</ele>
        <time>2023-07-04T15:49:13.000Z</time>
      </trkpt>
      <trkpt lat="45.84838" lon="4.62475">
        <ele>318.37717</ele>
        <time>2023-07-04T15:49:14.000Z</time>
      </trkpt>
      <trkpt lat="45.84836" lon="4.62478">
        <ele>318.97772</ele>
        <time>2023-07-04T15:49:15.000Z</time>
      </trkpt>
      <trkpt lat="45.84835" lon="4.62481">
        <ele>319.57211</ele>
        <time>2023-07-04T15:49:16.000Z</time>
      </trkpt>
      <trkpt lat="45.84833" lon="4.62483">
        <ele>320.129</ele>
        <time>2023-07-04T15:49:17.000Z</time>
      </trkpt>
      <trkpt lat="45.84831" lon="4.62485">
        <ele>320.63303</ele>
        <time>2023-07-04T15:49:18.000Z</time>
      </trkpt>
      <trkpt lat="45.84829" lon="4.62487">
        <ele>321.15445</ele>
        <time>2023-07-04T15:49:19.000Z</time>
      </trkpt>
      <trkpt lat="45.84827" lon="4.62487">
        <ele>321.68063</ele>
        <time>2023-07-04T15:49:20.000Z</time>
      </trkpt>
      <trkpt lat="45.84825" lon="4.62488">
        <ele>321.89761</ele>
        <time>2023-07-04T15:49:21.000Z</time>
      </trkpt>
      <trkpt lat="45.84823" lon="4.62489">
        <ele>322.00171</ele>
        <time>2023-07-04T15:49:23.000Z</time>
      </trkpt>
      <trkpt lat="45.84821" lon="4.62492">
        <ele>322.11673</ele>
        <time>2023-07-04T15:49:25.000Z</time>
      </trkpt>
      <trkpt lat="45.8482" lon="4.62495">
        <ele>322.25119</ele>
        <time>2023-07-04T15:49:27.000Z</time>
      </trkpt>
      <trkpt lat="45.8482" lon="4.62499">
        <ele>322.54498</ele>
        <time>2023-07-04T15:49:29.000Z</time>
      </trkpt>
      <trkpt lat="45.84817" lon="4.62499">
        <ele>322.84097</ele>
        <time>2023-07-04T15:50:45.000Z</time>
      </trkpt>
      <trkpt lat="45.84815" lon="4.62502">
        <ele>323.32254</ele>
        <time>2023-07-04T15:50:47.000Z</time>
      </trkpt>
      <trkpt lat="45.84813" lon="4.62506">
        <ele>323.84711</ele>
        <time>2023-07-04T15:50:49.000Z</time>
      </trkpt>
      <trkpt lat="45.84811" lon="4.6251">
        <ele>324.25995</ele>
        <time>2023-07-04T15:50:51.000Z</time>
      </trkpt>
      <trkpt lat="45.8481" lon="4.62513">
        <ele>324.64874</ele>
        <time>2023-07-04T15:50:52.000Z</time>
      </trkpt>
      <trkpt lat="45.84809" lon="4.62516">
        <ele>324.99692</ele>
        <time>2023-07-04T15:50:53.000Z</time>
      </trkpt>
      <trkpt lat="45.84807" lon="4.62519">
        <ele>325.34296</ele>
        <time>2023-07-04T15:50:54.000Z</time>
      </trkpt>
      <trkpt lat="45.84806" lon="4.62522">
        <ele>325.63797</ele>
        <time>2023-07-04T15:50:55.000Z</time>
      </trkpt>
      <trkpt lat="45.84805" lon="4.62526">
        <ele>325.86798</ele>
        <time>2023-07-04T15:50:56.000Z</time>
      </trkpt>
      <trkpt lat="45.84803" lon="4.62528">
        <ele>326.09845</ele>
        <time>2023-07-04T15:50:57.000Z</time>
      </trkpt>
      <trkpt lat="45.84802" lon="4.62531">
        <ele>326.34933</ele>
        <time>2023-07-04T15:50:58.000Z</time>
      </trkpt>
      <trkpt lat="45.84801" lon="4.62534">
        <ele>326.63388</ele>
        <time>2023-07-04T15:50:59.000Z</time>
      </trkpt>
      <trkpt lat="45.848" lon="4.62537">
        <ele>326.94269</ele>
        <time>2023-07-04T15:51:00.000Z</time>
      </trkpt>
      <trkpt lat="45.84799" lon="4.62541">
        <ele>327.16922</ele>
        <time>2023-07-04T15:51:01.000Z</time>
      </trkpt>
      <trkpt lat="45.84798" lon="4.62545">
        <ele>327.39493</ele>
        <time>2023-07-04T15:51:02.000Z</time>
      </trkpt>
      <trkpt lat="45.84797" lon="4.62549">
        <ele>327.66064</ele>
        <time>2023-07-04T15:51:03.000Z</time>
      </trkpt>
      <trkpt lat="45.84797" lon="4.62553">
        <ele>327.88602</ele>
        <time>2023-07-04T15:51:04.000Z</time>
      </trkpt>
      <trkpt lat="45.84797" lon="4.62558">
        <ele>328.10529</ele>
        <time>2023-07-04T15:51:05.000Z</time>
      </trkpt>
      <trkpt lat="45.84796" lon="4.62563">
        <ele>328.28058</ele>
        <time>2023-07-04T15:51:06.000Z</time>
      </trkpt>
      <trkpt lat="45.84796" lon="4.62568">
        <ele>328.39911</ele>
        <time>2023-07-04T15:51:07.000Z</time>
      </trkpt>
      <trkpt lat="45.84794" lon="4.62574">
        <ele>328.44696</ele>
        <time>2023-07-04T15:51:08.000Z</time>
      </trkpt>
      <trkpt lat="45.84793" lon="4.62579">
        <ele>328.31552</ele>
        <time>2023-07-04T15:51:09.000Z</time>
      </trkpt>
      <trkpt lat="45.8479" lon="4.62584">
        <ele>328.14871</ele>
        <time>2023-07-04T15:51:10.000Z</time>
      </trkpt>
      <trkpt lat="45.84788" lon="4.62589">
        <ele>328.11542</ele>
        <time>2023-07-04T15:51:11.000Z</time>
      </trkpt>
      <trkpt lat="45.84784" lon="4.62593">
        <ele>328.10504</ele>
        <time>2023-07-04T15:51:12.000Z</time>
      </trkpt>
      <trkpt lat="45.8478" lon="4.62596">
        <ele>328.1077</ele>
        <time>2023-07-04T15:51:13.000Z</time>
      </trkpt>
      <trkpt lat="45.84777" lon="4.62598">
        <ele>328.08868</ele>
        <time>2023-07-04T15:51:14.000Z</time>
      </trkpt>
      <trkpt lat="45.84773" lon="4.626">
        <ele>328.08401</ele>
        <time>2023-07-04T15:51:15.000Z</time>
      </trkpt>
      <trkpt lat="45.84769" lon="4.62602">
        <ele>328.047</ele>
        <time>2023-07-04T15:51:16.000Z</time>
      </trkpt>
      <trkpt lat="45.84766" lon="4.62604">
        <ele>328.02573</ele>
        <time>2023-07-04T15:51:17.000Z</time>
      </trkpt>
      <trkpt lat="45.84762" lon="4.62605">
        <ele>327.9975</ele>
        <time>2023-07-04T15:51:18.000Z</time>
      </trkpt>
      <trkpt lat="45.84759" lon="4.62606">
        <ele>327.96222</ele>
        <time>2023-07-04T15:51:19.000Z</time>
      </trkpt>
      <trkpt lat="45.84756" lon="4.62607">
        <ele>327.93707</ele>
        <time>2023-07-04T15:51:20.000Z</time>
      </trkpt>
      <trkpt lat="45.84753" lon="4.62608">
        <ele>327.97543</ele>
        <time>2023-07-04T15:51:21.000Z</time>
      </trkpt>
      <trkpt lat="45.8475" lon="4.62609">
        <ele>327.99393</ele>
        <time>2023-07-04T15:51:22.000Z</time>
      </trkpt>
      <trkpt lat="45.84746" lon="4.6261">
        <ele>327.97345</ele>
        <time>2023-07-04T15:51:23.000Z</time>
      </trkpt>
      <trkpt lat="45.84743" lon="4.62611">
        <ele>328.01724</ele>
        <time>2023-07-04T15:51:24.000Z</time>
      </trkpt>
      <trkpt lat="45.84739" lon="4.62612">
        <ele>328.05573</ele>
        <time>2023-07-04T15:51:25.000Z</time>
      </trkpt>
      <trkpt lat="45.84735" lon="4.62614">
        <ele>328.00131</ele>
        <time>2023-07-04T15:51:26.000Z</time>
      </trkpt>
      <trkpt lat="45.84732" lon="4.62617">
        <ele>327.96591</ele>
        <time>2023-07-04T15:51:27.000Z</time>
      </trkpt>
      <trkpt lat="45.84728" lon="4.62619">
        <ele>327.91168</ele>
        <time>2023-07-04T15:51:28.000Z</time>
      </trkpt>
      <trkpt lat="45.84724" lon="4.62621">
        <ele>327.84335</ele>
        <time>2023-07-04T15:51:29.000Z</time>
      </trkpt>
      <trkpt lat="45.8472" lon="4.62624">
        <ele>327.78632</ele>
        <time>2023-07-04T15:51:30.000Z</time>
      </trkpt>
      <trkpt lat="45.84717" lon="4.62627">
        <ele>327.73636</ele>
        <time>2023-07-04T15:51:31.000Z</time>
      </trkpt>
      <trkpt lat="45.84713" lon="4.6263">
        <ele>327.7077</ele>
        <time>2023-07-04T15:51:32.000Z</time>
      </trkpt>
      <trkpt lat="45.8471" lon="4.62634">
        <ele>327.68222</ele>
        <time>2023-07-04T15:51:33.000Z</time>
      </trkpt>
      <trkpt lat="45.84707" lon="4.62637">
        <ele>327.67035</ele>
        <time>2023-07-04T15:51:34.000Z</time>
      </trkpt>
      <trkpt lat="45.84703" lon="4.62641">
        <ele>327.66751</ele>
        <time>2023-07-04T15:51:35.000Z</time>
      </trkpt>
      <trkpt lat="45.847" lon="4.62645">
        <ele>327.68524</ele>
        <time>2023-07-04T15:51:36.000Z</time>
      </trkpt>
      <trkpt lat="45.84697" lon="4.62649">
        <ele>327.69458</ele>
        <time>2023-07-04T15:51:37.000Z</time>
      </trkpt>
      <trkpt lat="45.84694" lon="4.62652">
        <ele>327.68063</ele>
        <time>2023-07-04T15:51:38.000Z</time>
      </trkpt>
      <trkpt lat="45.8469" lon="4.62656">
        <ele>327.68927</ele>
        <time>2023-07-04T15:51:39.000Z</time>
      </trkpt>
      <trkpt lat="45.84687" lon="4.6266">
        <ele>327.70581</ele>
        <time>2023-07-04T15:51:40.000Z</time>
      </trkpt>
      <trkpt lat="45.84684" lon="4.62664">
        <ele>327.67703</ele>
        <time>2023-07-04T15:51:41.000Z</time>
      </trkpt>
      <trkpt lat="45.84681" lon="4.62669">
        <ele>327.66586</ele>
        <time>2023-07-04T15:51:42.000Z</time>
      </trkpt>
      <trkpt lat="45.84678" lon="4.62673">
        <ele>327.6463</ele>
        <time>2023-07-04T15:51:43.000Z</time>
      </trkpt>
      <trkpt lat="45.84674" lon="4.62676">
        <ele>327.57382</ele>
        <time>2023-07-04T15:51:44.000Z</time>
      </trkpt>
      <trkpt lat="45.84671" lon="4.6268">
        <ele>327.50204</ele>
        <time>2023-07-04T15:51:45.000Z</time>
      </trkpt>
      <trkpt lat="45.84667" lon="4.62683">
        <ele>327.56012</ele>
        <time>2023-07-04T15:51:46.000Z</time>
      </trkpt>
      <trkpt lat="45.84664" lon="4.62686">
        <ele>327.58057</ele>
        <time>2023-07-04T15:51:47.000Z</time>
      </trkpt>
      <trkpt lat="45.8466" lon="4.62689">
        <ele>327.63647</ele>
        <time>2023-07-04T15:51:48.000Z</time>
      </trkpt>
      <trkpt lat="45.84656" lon="4.6269">
        <ele>327.66528</ele>
        <time>2023-07-04T15:51:49.000Z</time>
      </trkpt>
      <trkpt lat="45.84651" lon="4.6269">
        <ele>327.69452</ele>
        <time>2023-07-04T15:51:50.000Z</time>
      </trkpt>
      <trkpt lat="45.84647" lon="4.62689">
        <ele>327.73801</ele>
        <time>2023-07-04T15:51:51.000Z</time>
      </trkpt>
      <trkpt lat="45.84643" lon="4.62688">
        <ele>327.79736</ele>
        <time>2023-07-04T15:51:52.000Z</time>
      </trkpt>
      <trkpt lat="45.8464" lon="4.62686">
        <ele>327.84625</ele>
        <time>2023-07-04T15:51:53.000Z</time>
      </trkpt>
      <trkpt lat="45.84636" lon="4.62683">
        <ele>327.91364</ele>
        <time>2023-07-04T15:51:54.000Z</time>
      </trkpt>
      <trkpt lat="45.84632" lon="4.62681">
        <ele>327.97107</ele>
        <time>2023-07-04T15:51:55.000Z</time>
      </trkpt>
      <trkpt lat="45.84629" lon="4.62678">
        <ele>328.01968</ele>
        <time>2023-07-04T15:51:56.000Z</time>
      </trkpt>
      <trkpt lat="45.84625" lon="4.62676">
        <ele>328.05997</ele>
        <time>2023-07-04T15:51:57.000Z</time>
      </trkpt>
      <trkpt lat="45.84621" lon="4.62675">
        <ele>328.11319</ele>
        <time>2023-07-04T15:51:58.000Z</time>
      </trkpt>
      <trkpt lat="45.84617" lon="4.62673">
        <ele>328.16742</ele>
        <time>2023-07-04T15:51:59.000Z</time>
      </trkpt>
      <trkpt lat="45.84613" lon="4.62673">
        <ele>328.23581</ele>
        <time>2023-07-04T15:52:00.000Z</time>
      </trkpt>
      <trkpt lat="45.84609" lon="4.62672">
        <ele>328.32172</ele>
        <time>2023-07-04T15:52:01.000Z</time>
      </trkpt>
      <trkpt lat="45.84604" lon="4.62672">
        <ele>328.40106</ele>
        <time>2023-07-04T15:52:02.000Z</time>
      </trkpt>
      <trkpt lat="45.846" lon="4.62671">
        <ele>328.4733</ele>
        <time>2023-07-04T15:52:03.000Z</time>
      </trkpt>
      <trkpt lat="45.84596" lon="4.6267">
        <ele>328.52988</ele>
        <time>2023-07-04T15:52:04.000Z</time>
      </trkpt>
      <trkpt lat="45.84592" lon="4.62669">
        <ele>328.58087</ele>
        <time>2023-07-04T15:52:05.000Z</time>
      </trkpt>
      <trkpt lat="45.84588" lon="4.62668">
        <ele>328.61536</ele>
        <time>2023-07-04T15:52:06.000Z</time>
      </trkpt>
      <trkpt lat="45.84583" lon="4.62668">
        <ele>328.67053</ele>
        <time>2023-07-04T15:52:07.000Z</time>
      </trkpt>
      <trkpt lat="45.84579" lon="4.62668">
        <ele>328.72867</ele>
        <time>2023-07-04T15:52:08.000Z</time>
      </trkpt>
      <trkpt lat="45.84575" lon="4.62667">
        <ele>328.82513</ele>
        <time>2023-07-04T15:52:09.000Z</time>
      </trkpt>
      <trkpt lat="45.84571" lon="4.62666">
        <ele>328.90155</ele>
        <time>2023-07-04T15:52:10.000Z</time>
      </trkpt>
      <trkpt lat="45.84567" lon="4.62665">
        <ele>328.95694</ele>
        <time>2023-07-04T15:52:11.000Z</time>
      </trkpt>
      <trkpt lat="45.84563" lon="4.62663">
        <ele>328.96741</ele>
        <time>2023-07-04T15:52:12.000Z</time>
      </trkpt>
      <trkpt lat="45.84559" lon="4.62661">
        <ele>328.98163</ele>
        <time>2023-07-04T15:52:13.000Z</time>
      </trkpt>
      <trkpt lat="45.84555" lon="4.62658">
        <ele>328.98648</ele>
        <time>2023-07-04T15:52:14.000Z</time>
      </trkpt>
      <trkpt lat="45.84552" lon="4.62654">
        <ele>328.9863</ele>
        <time>2023-07-04T15:52:15.000Z</time>
      </trkpt>
      <trkpt lat="45.84549" lon="4.62649">
        <ele>329.00287</ele>
        <time>2023-07-04T15:52:16.000Z</time>
      </trkpt>
      <trkpt lat="45.84546" lon="4.62644">
        <ele>329.04843</ele>
        <time>2023-07-04T15:52:17.000Z</time>
      </trkpt>
      <trkpt lat="45.84544" lon="4.62637">
        <ele>329.09042</ele>
        <time>2023-07-04T15:52:18.000Z</time>
      </trkpt>
      <trkpt lat="45.84541" lon="4.62631">
        <ele>329.12494</ele>
        <time>2023-07-04T15:52:19.000Z</time>
      </trkpt>
      <trkpt lat="45.84539" lon="4.62626">
        <ele>329.14902</ele>
        <time>2023-07-04T15:52:20.000Z</time>
      </trkpt>
      <trkpt lat="45.84536" lon="4.62621">
        <ele>329.16367</ele>
        <time>2023-07-04T15:52:21.000Z</time>
      </trkpt>
      <trkpt lat="45.84534" lon="4.62616">
        <ele>329.18622</ele>
        <time>2023-07-04T15:52:22.000Z</time>
      </trkpt>
      <trkpt lat="45.84532" lon="4.62611">
        <ele>329.21906</ele>
        <time>2023-07-04T15:52:23.000Z</time>
      </trkpt>
      <trkpt lat="45.8453" lon="4.62606">
        <ele>329.28647</ele>
        <time>2023-07-04T15:52:24.000Z</time>
      </trkpt>
      <trkpt lat="45.84529" lon="4.626">
        <ele>329.36227</ele>
        <time>2023-07-04T15:52:25.000Z</time>
      </trkpt>
      <trkpt lat="45.84526" lon="4.62595">
        <ele>329.44196</ele>
        <time>2023-07-04T15:52:26.000Z</time>
      </trkpt>
      <trkpt lat="45.84524" lon="4.6259">
        <ele>329.52734</ele>
        <time>2023-07-04T15:52:27.000Z</time>
      </trkpt>
      <trkpt lat="45.84522" lon="4.62585">
        <ele>329.60367</ele>
        <time>2023-07-04T15:52:28.000Z</time>
      </trkpt>
      <trkpt lat="45.84521" lon="4.6258">
        <ele>329.65103</ele>
        <time>2023-07-04T15:52:29.000Z</time>
      </trkpt>
      <trkpt lat="45.84519" lon="4.62576">
        <ele>329.73956</ele>
        <time>2023-07-04T15:52:30.000Z</time>
      </trkpt>
      <trkpt lat="45.84518" lon="4.62571">
        <ele>329.8205</ele>
        <time>2023-07-04T15:52:31.000Z</time>
      </trkpt>
      <trkpt lat="45.84516" lon="4.62567">
        <ele>329.9295</ele>
        <time>2023-07-04T15:52:32.000Z</time>
      </trkpt>
      <trkpt lat="45.84515" lon="4.62564">
        <ele>330.0549</ele>
        <time>2023-07-04T15:52:33.000Z</time>
      </trkpt>
      <trkpt lat="45.84513" lon="4.6256">
        <ele>330.15747</ele>
        <time>2023-07-04T15:52:34.000Z</time>
      </trkpt>
      <trkpt lat="45.84511" lon="4.62557">
        <ele>330.26459</ele>
        <time>2023-07-04T15:52:35.000Z</time>
      </trkpt>
      <trkpt lat="45.84509" lon="4.62555">
        <ele>330.38031</ele>
        <time>2023-07-04T15:52:36.000Z</time>
      </trkpt>
      <trkpt lat="45.84507" lon="4.62553">
        <ele>330.47318</ele>
        <time>2023-07-04T15:52:37.000Z</time>
      </trkpt>
      <trkpt lat="45.84504" lon="4.62552">
        <ele>330.5498</ele>
        <time>2023-07-04T15:52:38.000Z</time>
      </trkpt>
      <trkpt lat="45.84502" lon="4.62551">
        <ele>330.62811</ele>
        <time>2023-07-04T15:52:39.000Z</time>
      </trkpt>
      <trkpt lat="45.84499" lon="4.6255">
        <ele>331.61249</ele>
        <time>2023-07-04T15:52:40.000Z</time>
      </trkpt>
      <trkpt lat="45.84497" lon="4.62549">
        <ele>332.61963</ele>
        <time>2023-07-04T15:52:41.000Z</time>
      </trkpt>
      <trkpt lat="45.84494" lon="4.62547">
        <ele>333.62601</ele>
        <time>2023-07-04T15:52:42.000Z</time>
      </trkpt>
      <trkpt lat="45.84492" lon="4.62546">
        <ele>334.61444</ele>
        <time>2023-07-04T15:52:43.000Z</time>
      </trkpt>
      <trkpt lat="45.8449" lon="4.62544">
        <ele>335.57184</ele>
        <time>2023-07-04T15:52:44.000Z</time>
      </trkpt>
      <trkpt lat="45.84488" lon="4.62541">
        <ele>335.57013</ele>
        <time>2023-07-04T15:52:45.000Z</time>
      </trkpt>
      <trkpt lat="45.84486" lon="4.62539">
        <ele>335.68011</ele>
        <time>2023-07-04T15:52:47.000Z</time>
      </trkpt>
      <trkpt lat="45.84486" lon="4.62542">
        <ele>335.74384</ele>
        <time>2023-07-04T15:53:06.000Z</time>
      </trkpt>
      <trkpt lat="45.84486" lon="4.62546">
        <ele>335.82794</ele>
        <time>2023-07-04T15:53:08.000Z</time>
      </trkpt>
      <trkpt lat="45.84488" lon="4.62549">
        <ele>335.98102</ele>
        <time>2023-07-04T15:53:10.000Z</time>
      </trkpt>
      <trkpt lat="45.84489" lon="4.62552">
        <ele>336.0817</ele>
        <time>2023-07-04T15:53:11.000Z</time>
      </trkpt>
      <trkpt lat="45.8449" lon="4.62555">
        <ele>336.20041</ele>
        <time>2023-07-04T15:53:12.000Z</time>
      </trkpt>
      <trkpt lat="45.8449" lon="4.62559">
        <ele>336.30142</ele>
        <time>2023-07-04T15:53:13.000Z</time>
      </trkpt>
      <trkpt lat="45.84488" lon="4.62563">
        <ele>336.39343</ele>
        <time>2023-07-04T15:53:14.000Z</time>
      </trkpt>
      <trkpt lat="45.84486" lon="4.62566">
        <ele>336.49869</ele>
        <time>2023-07-04T15:53:15.000Z</time>
      </trkpt>
      <trkpt lat="45.84483" lon="4.62568">
        <ele>336.55972</ele>
        <time>2023-07-04T15:53:16.000Z</time>
      </trkpt>
      <trkpt lat="45.84481" lon="4.62571">
        <ele>336.60822</ele>
        <time>2023-07-04T15:53:17.000Z</time>
      </trkpt>
      <trkpt lat="45.84479" lon="4.62575">
        <ele>336.58197</ele>
        <time>2023-07-04T15:53:18.000Z</time>
      </trkpt>
      <trkpt lat="45.84476" lon="4.62578">
        <ele>336.57758</ele>
        <time>2023-07-04T15:53:19.000Z</time>
      </trkpt>
      <trkpt lat="45.84474" lon="4.62582">
        <ele>336.55518</ele>
        <time>2023-07-04T15:53:20.000Z</time>
      </trkpt>
      <trkpt lat="45.84471" lon="4.62586">
        <ele>335.61798</ele>
        <time>2023-07-04T15:53:21.000Z</time>
      </trkpt>
      <trkpt lat="45.84469" lon="4.62589">
        <ele>334.67328</ele>
        <time>2023-07-04T15:53:22.000Z</time>
      </trkpt>
      <trkpt lat="45.84466" lon="4.62593">
        <ele>333.71066</ele>
        <time>2023-07-04T15:53:23.000Z</time>
      </trkpt>
      <trkpt lat="45.84464" lon="4.62597">
        <ele>332.76129</ele>
        <time>2023-07-04T15:53:24.000Z</time>
      </trkpt>
      <trkpt lat="45.84462" lon="4.626">
        <ele>331.83981</ele>
        <time>2023-07-04T15:53:25.000Z</time>
      </trkpt>
      <trkpt lat="45.8446" lon="4.62604">
        <ele>331.91205</ele>
        <time>2023-07-04T15:53:26.000Z</time>
      </trkpt>
      <trkpt lat="45.84458" lon="4.62607">
        <ele>331.87482</ele>
        <time>2023-07-04T15:53:27.000Z</time>
      </trkpt>
      <trkpt lat="45.84456" lon="4.6261">
        <ele>331.86298</ele>
        <time>2023-07-04T15:53:28.000Z</time>
      </trkpt>
      <trkpt lat="45.84454" lon="4.62613">
        <ele>331.85925</ele>
        <time>2023-07-04T15:53:29.000Z</time>
      </trkpt>
      <trkpt lat="45.84452" lon="4.62616">
        <ele>333.24881</ele>
        <time>2023-07-04T15:53:30.000Z</time>
      </trkpt>
      <trkpt lat="45.8445" lon="4.6262">
        <ele>333.27301</ele>
        <time>2023-07-04T15:53:31.000Z</time>
      </trkpt>
      <trkpt lat="45.84448" lon="4.62623">
        <ele>333.2829</ele>
        <time>2023-07-04T15:53:32.000Z</time>
      </trkpt>
      <trkpt lat="45.84446" lon="4.62626">
        <ele>333.29962</ele>
        <time>2023-07-04T15:53:33.000Z</time>
      </trkpt>
      <trkpt lat="45.84444" lon="4.62629">
        <ele>333.30701</ele>
        <time>2023-07-04T15:53:34.000Z</time>
      </trkpt>
      <trkpt lat="45.84443" lon="4.62632">
        <ele>334.80078</ele>
        <time>2023-07-04T15:53:35.000Z</time>
      </trkpt>
      <trkpt lat="45.84441" lon="4.62635">
        <ele>335.32477</ele>
        <time>2023-07-04T15:55:02.000Z</time>
      </trkpt>
      <trkpt lat="45.8444" lon="4.62638">
        <ele>335.83228</ele>
        <time>2023-07-04T15:55:03.000Z</time>
      </trkpt>
      <trkpt lat="45.84438" lon="4.62641">
        <ele>336.42801</ele>
        <time>2023-07-04T15:55:04.000Z</time>
      </trkpt>
      <trkpt lat="45.84437" lon="4.62644">
        <ele>337.19272</ele>
        <time>2023-07-04T15:55:05.000Z</time>
      </trkpt>
      <trkpt lat="45.84435" lon="4.62647">
        <ele>337.96942</ele>
        <time>2023-07-04T15:55:06.000Z</time>
      </trkpt>
      <trkpt lat="45.84433" lon="4.6265">
        <ele>338.74896</ele>
        <time>2023-07-04T15:55:07.000Z</time>
      </trkpt>
      <trkpt lat="45.84431" lon="4.62654">
        <ele>339.66031</ele>
        <time>2023-07-04T15:55:08.000Z</time>
      </trkpt>
      <trkpt lat="45.84429" lon="4.62657">
        <ele>340.58066</ele>
        <time>2023-07-04T15:55:09.000Z</time>
      </trkpt>
      <trkpt lat="45.84426" lon="4.62661">
        <ele>341.51236</ele>
        <time>2023-07-04T15:55:10.000Z</time>
      </trkpt>
      <trkpt lat="45.84424" lon="4.62665">
        <ele>342.42926</ele>
        <time>2023-07-04T15:55:11.000Z</time>
      </trkpt>
      <trkpt lat="45.84422" lon="4.62669">
        <ele>342.91632</ele>
        <time>2023-07-04T15:55:12.000Z</time>
      </trkpt>
      <trkpt lat="45.8442" lon="4.62672">
        <ele>343.45889</ele>
        <time>2023-07-04T15:55:13.000Z</time>
      </trkpt>
      <trkpt lat="45.84419" lon="4.62676">
        <ele>344.01401</ele>
        <time>2023-07-04T15:55:14.000Z</time>
      </trkpt>
      <trkpt lat="45.84417" lon="4.62679">
        <ele>344.54584</ele>
        <time>2023-07-04T15:55:15.000Z</time>
      </trkpt>
      <trkpt lat="45.84415" lon="4.62683">
        <ele>343.61877</ele>
        <time>2023-07-04T15:55:16.000Z</time>
      </trkpt>
      <trkpt lat="45.84413" lon="4.62686">
        <ele>344.07513</ele>
        <time>2023-07-04T15:55:17.000Z</time>
      </trkpt>
      <trkpt lat="45.84411" lon="4.62689">
        <ele>344.52127</ele>
        <time>2023-07-04T15:55:18.000Z</time>
      </trkpt>
      <trkpt lat="45.84409" lon="4.62693">
        <ele>344.96536</ele>
        <time>2023-07-04T15:55:19.000Z</time>
      </trkpt>
      <trkpt lat="45.84407" lon="4.62697">
        <ele>345.42035</ele>
        <time>2023-07-04T15:55:20.000Z</time>
      </trkpt>
      <trkpt lat="45.84405" lon="4.62701">
        <ele>344.37238</ele>
        <time>2023-07-04T15:55:21.000Z</time>
      </trkpt>
      <trkpt lat="45.84403" lon="4.62706">
        <ele>344.34039</ele>
        <time>2023-07-04T15:55:22.000Z</time>
      </trkpt>
      <trkpt lat="45.84401" lon="4.62712">
        <ele>344.2962</ele>
        <time>2023-07-04T15:55:23.000Z</time>
      </trkpt>
      <trkpt lat="45.84399" lon="4.62717">
        <ele>344.30289</ele>
        <time>2023-07-04T15:55:24.000Z</time>
      </trkpt>
      <trkpt lat="45.84398" lon="4.62723">
        <ele>344.10123</ele>
        <time>2023-07-04T15:55:25.000Z</time>
      </trkpt>
      <trkpt lat="45.84396" lon="4.62729">
        <ele>344.59009</ele>
        <time>2023-07-04T15:55:26.000Z</time>
      </trkpt>
      <trkpt lat="45.84395" lon="4.62735">
        <ele>345.19809</ele>
        <time>2023-07-04T15:55:27.000Z</time>
      </trkpt>
      <trkpt lat="45.84395" lon="4.62743">
        <ele>345.78842</ele>
        <time>2023-07-04T15:55:28.000Z</time>
      </trkpt>
      <trkpt lat="45.84393" lon="4.62749">
        <ele>346.28186</ele>
        <time>2023-07-04T15:55:29.000Z</time>
      </trkpt>
      <trkpt lat="45.84393" lon="4.62756">
        <ele>346.67853</ele>
        <time>2023-07-04T15:55:30.000Z</time>
      </trkpt>
      <trkpt lat="45.84391" lon="4.62763">
        <ele>347.17349</ele>
        <time>2023-07-04T15:55:31.000Z</time>
      </trkpt>
      <trkpt lat="45.84389" lon="4.62769">
        <ele>347.99472</ele>
        <time>2023-07-04T15:55:32.000Z</time>
      </trkpt>
      <trkpt lat="45.84388" lon="4.62776">
        <ele>348.64276</ele>
        <time>2023-07-04T15:55:33.000Z</time>
      </trkpt>
      <trkpt lat="45.84386" lon="4.62782">
        <ele>349.20691</ele>
        <time>2023-07-04T15:55:34.000Z</time>
      </trkpt>
      <trkpt lat="45.84385" lon="4.6279">
        <ele>349.69531</ele>
        <time>2023-07-04T15:55:35.000Z</time>
      </trkpt>
      <trkpt lat="45.84383" lon="4.62797">
        <ele>350.15634</ele>
        <time>2023-07-04T15:55:36.000Z</time>
      </trkpt>
      <trkpt lat="45.84381" lon="4.62803">
        <ele>350.591</ele>
        <time>2023-07-04T15:55:37.000Z</time>
      </trkpt>
      <trkpt lat="45.84379" lon="4.62811">
        <ele>350.89197</ele>
        <time>2023-07-04T15:55:38.000Z</time>
      </trkpt>
      <trkpt lat="45.84378" lon="4.62819">
        <ele>350.98608</ele>
        <time>2023-07-04T15:55:39.000Z</time>
      </trkpt>
      <trkpt lat="45.84376" lon="4.62827">
        <ele>351.05585</ele>
        <time>2023-07-04T15:55:40.000Z</time>
      </trkpt>
      <trkpt lat="45.84374" lon="4.62834">
        <ele>351.09686</ele>
        <time>2023-07-04T15:55:41.000Z</time>
      </trkpt>
      <trkpt lat="45.84372" lon="4.6284">
        <ele>351.09784</ele>
        <time>2023-07-04T15:55:42.000Z</time>
      </trkpt>
      <trkpt lat="45.84368" lon="4.62848">
        <ele>351.11026</ele>
        <time>2023-07-04T15:55:43.000Z</time>
      </trkpt>
      <trkpt lat="45.84364" lon="4.62854">
        <ele>351.03925</ele>
        <time>2023-07-04T15:55:44.000Z</time>
      </trkpt>
      <trkpt lat="45.8436" lon="4.62861">
        <ele>350.9903</ele>
        <time>2023-07-04T15:55:45.000Z</time>
      </trkpt>
      <trkpt lat="45.84356" lon="4.62869">
        <ele>350.28009</ele>
        <time>2023-07-04T15:55:46.000Z</time>
      </trkpt>
      <trkpt lat="45.84351" lon="4.62875">
        <ele>349.55072</ele>
        <time>2023-07-04T15:55:47.000Z</time>
      </trkpt>
      <trkpt lat="45.84347" lon="4.62883">
        <ele>348.21335</ele>
        <time>2023-07-04T15:55:48.000Z</time>
      </trkpt>
      <trkpt lat="45.84342" lon="4.62889">
        <ele>347.0658</ele>
        <time>2023-07-04T15:55:49.000Z</time>
      </trkpt>
      <trkpt lat="45.84338" lon="4.62896">
        <ele>346.01617</ele>
        <time>2023-07-04T15:55:50.000Z</time>
      </trkpt>
      <trkpt lat="45.84333" lon="4.62904">
        <ele>344.84219</ele>
        <time>2023-07-04T15:55:51.000Z</time>
      </trkpt>
      <trkpt lat="45.84329" lon="4.62911">
        <ele>343.72501</ele>
        <time>2023-07-04T15:55:52.000Z</time>
      </trkpt>
      <trkpt lat="45.84324" lon="4.62918">
        <ele>342.74783</ele>
        <time>2023-07-04T15:55:53.000Z</time>
      </trkpt>
      <trkpt lat="45.84319" lon="4.62925">
        <ele>342.7851</ele>
        <time>2023-07-04T15:55:54.000Z</time>
      </trkpt>
      <trkpt lat="45.84315" lon="4.62933">
        <ele>342.89142</ele>
        <time>2023-07-04T15:55:55.000Z</time>
      </trkpt>
      <trkpt lat="45.8431" lon="4.62941">
        <ele>343.02362</ele>
        <time>2023-07-04T15:55:56.000Z</time>
      </trkpt>
      <trkpt lat="45.84305" lon="4.62948">
        <ele>343.18317</ele>
        <time>2023-07-04T15:55:57.000Z</time>
      </trkpt>
      <trkpt lat="45.84301" lon="4.62957">
        <ele>343.86868</ele>
        <time>2023-07-04T15:55:58.000Z</time>
      </trkpt>
      <trkpt lat="45.84296" lon="4.62965">
        <ele>343.80917</ele>
        <time>2023-07-04T15:55:59.000Z</time>
      </trkpt>
      <trkpt lat="45.84291" lon="4.62973">
        <ele>343.82367</ele>
        <time>2023-07-04T15:56:00.000Z</time>
      </trkpt>
      <trkpt lat="45.84288" lon="4.62983">
        <ele>343.85135</ele>
        <time>2023-07-04T15:56:01.000Z</time>
      </trkpt>
      <trkpt lat="45.84286" lon="4.62995">
        <ele>343.88785</ele>
        <time>2023-07-04T15:56:02.000Z</time>
      </trkpt>
      <trkpt lat="45.84287" lon="4.63007">
        <ele>343.88239</ele>
        <time>2023-07-04T15:56:03.000Z</time>
      </trkpt>
      <trkpt lat="45.8429" lon="4.63018">
        <ele>343.85806</ele>
        <time>2023-07-04T15:56:04.000Z</time>
      </trkpt>
      <trkpt lat="45.84295" lon="4.63027">
        <ele>343.78937</ele>
        <time>2023-07-04T15:56:05.000Z</time>
      </trkpt>
      <trkpt lat="45.84301" lon="4.63035">
        <ele>343.66647</ele>
        <time>2023-07-04T15:56:06.000Z</time>
      </trkpt>
      <trkpt lat="45.84305" lon="4.63042">
        <ele>343.4086</ele>
        <time>2023-07-04T15:56:07.000Z</time>
      </trkpt>
      <trkpt lat="45.84306" lon="4.63048">
        <ele>343.67499</ele>
        <time>2023-07-04T15:56:08.000Z</time>
      </trkpt>
      <trkpt lat="45.84304" lon="4.63052">
        <ele>343.81403</ele>
        <time>2023-07-04T15:56:09.000Z</time>
      </trkpt>
      <trkpt lat="45.843" lon="4.63055">
        <ele>343.91974</ele>
        <time>2023-07-04T15:56:10.000Z</time>
      </trkpt>
      <trkpt lat="45.84295" lon="4.63055">
        <ele>344.0387</ele>
        <time>2023-07-04T15:56:11.000Z</time>
      </trkpt>
      <trkpt lat="45.84288" lon="4.63055">
        <ele>344.16959</ele>
        <time>2023-07-04T15:56:12.000Z</time>
      </trkpt>
      <trkpt lat="45.84282" lon="4.63053">
        <ele>344.29617</ele>
        <time>2023-07-04T15:56:13.000Z</time>
      </trkpt>
      <trkpt lat="45.84274" lon="4.63051">
        <ele>343.86859</ele>
        <time>2023-07-04T15:56:14.000Z</time>
      </trkpt>
      <trkpt lat="45.84266" lon="4.63048">
        <ele>343.42056</ele>
        <time>2023-07-04T15:56:15.000Z</time>
      </trkpt>
      <trkpt lat="45.84257" lon="4.63045">
        <ele>342.9389</ele>
        <time>2023-07-04T15:56:16.000Z</time>
      </trkpt>
      <trkpt lat="45.84248" lon="4.63042">
        <ele>342.63788</ele>
        <time>2023-07-04T15:56:17.000Z</time>
      </trkpt>
      <trkpt lat="45.84239" lon="4.63038">
        <ele>341.91034</ele>
        <time>2023-07-04T15:56:18.000Z</time>
      </trkpt>
      <trkpt lat="45.84229" lon="4.63034">
        <ele>342.11615</ele>
        <time>2023-07-04T15:56:19.000Z</time>
      </trkpt>
      <trkpt lat="45.84219" lon="4.63032">
        <ele>342.35736</ele>
        <time>2023-07-04T15:56:20.000Z</time>
      </trkpt>
      <trkpt lat="45.84208" lon="4.63032">
        <ele>341.52322</ele>
        <time>2023-07-04T15:56:21.000Z</time>
      </trkpt>
      <trkpt lat="45.84197" lon="4.63034">
        <ele>340.84164</ele>
        <time>2023-07-04T15:56:22.000Z</time>
      </trkpt>
      <trkpt lat="45.84186" lon="4.63038">
        <ele>340.134</ele>
        <time>2023-07-04T15:56:23.000Z</time>
      </trkpt>
      <trkpt lat="45.84175" lon="4.63044">
        <ele>339.43497</ele>
        <time>2023-07-04T15:56:24.000Z</time>
      </trkpt>
      <trkpt lat="45.84165" lon="4.63052">
        <ele>338.78101</ele>
        <time>2023-07-04T15:56:25.000Z</time>
      </trkpt>
      <trkpt lat="45.84155" lon="4.63059">
        <ele>338.13028</ele>
        <time>2023-07-04T15:56:26.000Z</time>
      </trkpt>
      <trkpt lat="45.84147" lon="4.63065">
        <ele>337.49579</ele>
        <time>2023-07-04T15:56:27.000Z</time>
      </trkpt>
      <trkpt lat="45.84141" lon="4.63068">
        <ele>336.80829</ele>
        <time>2023-07-04T15:56:28.000Z</time>
      </trkpt>
      <trkpt lat="45.84137" lon="4.63067">
        <ele>336.11908</ele>
        <time>2023-07-04T15:56:29.000Z</time>
      </trkpt>
      <trkpt lat="45.84134" lon="4.63065">
        <ele>335.4917</ele>
        <time>2023-07-04T15:56:30.000Z</time>
      </trkpt>
      <trkpt lat="45.84132" lon="4.63061">
        <ele>335.36041</ele>
        <time>2023-07-04T15:56:31.000Z</time>
      </trkpt>
      <trkpt lat="45.84129" lon="4.63057">
        <ele>335.22375</ele>
        <time>2023-07-04T15:56:32.000Z</time>
      </trkpt>
      <trkpt lat="45.84127" lon="4.6305">
        <ele>335.05743</ele>
        <time>2023-07-04T15:56:33.000Z</time>
      </trkpt>
      <trkpt lat="45.84126" lon="4.63044">
        <ele>334.50848</ele>
        <time>2023-07-04T15:56:34.000Z</time>
      </trkpt>
      <trkpt lat="45.84125" lon="4.63036">
        <ele>333.96222</ele>
        <time>2023-07-04T15:56:35.000Z</time>
      </trkpt>
      <trkpt lat="45.84124" lon="4.63029">
        <ele>331.67108</ele>
        <time>2023-07-04T15:56:36.000Z</time>
      </trkpt>
      <trkpt lat="45.84123" lon="4.63021">
        <ele>330.84262</ele>
        <time>2023-07-04T15:56:37.000Z</time>
      </trkpt>
      <trkpt lat="45.84121" lon="4.63013">
        <ele>330.01608</ele>
        <time>2023-07-04T15:56:38.000Z</time>
      </trkpt>
      <trkpt lat="45.84119" lon="4.63004">
        <ele>329.16824</ele>
        <time>2023-07-04T15:56:39.000Z</time>
      </trkpt>
      <trkpt lat="45.84118" lon="4.62996">
        <ele>327.88123</ele>
        <time>2023-07-04T15:56:40.000Z</time>
      </trkpt>
      <trkpt lat="45.84115" lon="4.62986">
        <ele>327.67694</ele>
        <time>2023-07-04T15:56:41.000Z</time>
      </trkpt>
      <trkpt lat="45.84112" lon="4.62978">
        <ele>327.34775</ele>
        <time>2023-07-04T15:56:42.000Z</time>
      </trkpt>
      <trkpt lat="45.84109" lon="4.6297">
        <ele>327.07254</ele>
        <time>2023-07-04T15:56:43.000Z</time>
      </trkpt>
      <trkpt lat="45.84104" lon="4.62961">
        <ele>327.35065</ele>
        <time>2023-07-04T15:56:44.000Z</time>
      </trkpt>
      <trkpt lat="45.841" lon="4.62951">
        <ele>327.36737</ele>
        <time>2023-07-04T15:56:45.000Z</time>
      </trkpt>
      <trkpt lat="45.84096" lon="4.62942">
        <ele>327.41129</ele>
        <time>2023-07-04T15:56:46.000Z</time>
      </trkpt>
      <trkpt lat="45.84091" lon="4.62931">
        <ele>327.47427</ele>
        <time>2023-07-04T15:56:47.000Z</time>
      </trkpt>
      <trkpt lat="45.84087" lon="4.6292">
        <ele>327.56232</ele>
        <time>2023-07-04T15:56:48.000Z</time>
      </trkpt>
      <trkpt lat="45.84086" lon="4.6291">
        <ele>327.69275</ele>
        <time>2023-07-04T15:56:49.000Z</time>
      </trkpt>
      <trkpt lat="45.84084" lon="4.629">
        <ele>325.47272</ele>
        <time>2023-07-04T15:56:50.000Z</time>
      </trkpt>
      <trkpt lat="45.84082" lon="4.62892">
        <ele>324.97174</ele>
        <time>2023-07-04T15:56:51.000Z</time>
      </trkpt>
      <trkpt lat="45.84081" lon="4.62884">
        <ele>324.45233</ele>
        <time>2023-07-04T15:56:52.000Z</time>
      </trkpt>
      <trkpt lat="45.8408" lon="4.62878">
        <ele>323.91376</ele>
        <time>2023-07-04T15:56:53.000Z</time>
      </trkpt>
      <trkpt lat="45.84078" lon="4.62873">
        <ele>323.35654</ele>
        <time>2023-07-04T15:56:54.000Z</time>
      </trkpt>
      <trkpt lat="45.84076" lon="4.62868">
        <ele>322.79895</ele>
        <time>2023-07-04T15:56:55.000Z</time>
      </trkpt>
      <trkpt lat="45.84076" lon="4.62864">
        <ele>321.86697</ele>
        <time>2023-07-04T15:56:56.000Z</time>
      </trkpt>
      <trkpt lat="45.84076" lon="4.62861">
        <ele>321.37677</ele>
        <time>2023-07-04T15:56:57.000Z</time>
      </trkpt>
      <trkpt lat="45.84076" lon="4.62859">
        <ele>320.9035</ele>
        <time>2023-07-04T15:56:58.000Z</time>
      </trkpt>
      <trkpt lat="45.84075" lon="4.62855">
        <ele>320.44785</ele>
        <time>2023-07-04T15:56:59.000Z</time>
      </trkpt>
      <trkpt lat="45.84073" lon="4.62853">
        <ele>318.45325</ele>
        <time>2023-07-04T15:57:18.000Z</time>
      </trkpt>
      <trkpt lat="45.84073" lon="4.62856">
        <ele>316.42795</ele>
        <time>2023-07-04T15:57:24.000Z</time>
      </trkpt>
      <trkpt lat="45.84073" lon="4.6286">
        <ele>316.10788</ele>
        <time>2023-07-04T15:57:26.000Z</time>
      </trkpt>
      <trkpt lat="45.84072" lon="4.62863">
        <ele>315.79315</ele>
        <time>2023-07-04T15:57:27.000Z</time>
      </trkpt>
      <trkpt lat="45.84072" lon="4.62866">
        <ele>314.9465</ele>
        <time>2023-07-04T15:57:28.000Z</time>
      </trkpt>
      <trkpt lat="45.84071" lon="4.62869">
        <ele>314.32629</ele>
        <time>2023-07-04T15:57:29.000Z</time>
      </trkpt>
      <trkpt lat="45.8407" lon="4.62873">
        <ele>311.84311</ele>
        <time>2023-07-04T15:57:30.000Z</time>
      </trkpt>
      <trkpt lat="45.84068" lon="4.62876">
        <ele>311.06473</ele>
        <time>2023-07-04T15:57:31.000Z</time>
      </trkpt>
      <trkpt lat="45.84066" lon="4.62879">
        <ele>310.24426</ele>
        <time>2023-07-04T15:57:32.000Z</time>
      </trkpt>
      <trkpt lat="45.84064" lon="4.62882">
        <ele>309.37836</ele>
        <time>2023-07-04T15:57:33.000Z</time>
      </trkpt>
      <trkpt lat="45.84063" lon="4.62886">
        <ele>310.7782</ele>
        <time>2023-07-04T15:57:34.000Z</time>
      </trkpt>
      <trkpt lat="45.84062" lon="4.62892">
        <ele>310.04349</ele>
        <time>2023-07-04T15:57:35.000Z</time>
      </trkpt>
      <trkpt lat="45.84062" lon="4.62898">
        <ele>307.65198</ele>
        <time>2023-07-04T15:57:36.000Z</time>
      </trkpt>
      <trkpt lat="45.84062" lon="4.62904">
        <ele>306.81195</ele>
        <time>2023-07-04T15:57:37.000Z</time>
      </trkpt>
      <trkpt lat="45.84063" lon="4.62911">
        <ele>304.48969</ele>
        <time>2023-07-04T15:57:38.000Z</time>
      </trkpt>
      <trkpt lat="45.84063" lon="4.62918">
        <ele>302.21393</ele>
        <time>2023-07-04T15:57:39.000Z</time>
      </trkpt>
      <trkpt lat="45.84063" lon="4.62924">
        <ele>302.06769</ele>
        <time>2023-07-04T15:57:40.000Z</time>
      </trkpt>
      <trkpt lat="45.84062" lon="4.62931">
        <ele>299.83298</ele>
        <time>2023-07-04T15:57:41.000Z</time>
      </trkpt>
      <trkpt lat="45.84062" lon="4.62936">
        <ele>298.7558</ele>
        <time>2023-07-04T15:57:42.000Z</time>
      </trkpt>
      <trkpt lat="45.84061" lon="4.6294">
        <ele>298.54108</ele>
        <time>2023-07-04T15:57:43.000Z</time>
      </trkpt>
      <trkpt lat="45.8406" lon="4.62944">
        <ele>300.30045</ele>
        <time>2023-07-04T15:57:44.000Z</time>
      </trkpt>
      <trkpt lat="45.84059" lon="4.62949">
        <ele>302.13422</ele>
        <time>2023-07-04T15:57:45.000Z</time>
      </trkpt>
      <trkpt lat="45.84059" lon="4.62953">
        <ele>302.306</ele>
        <time>2023-07-04T15:57:46.000Z</time>
      </trkpt>
      <trkpt lat="45.84059" lon="4.62956">
        <ele>302.59845</ele>
        <time>2023-07-04T15:58:18.000Z</time>
      </trkpt>
      <trkpt lat="45.8406" lon="4.6296">
        <ele>301.93872</ele>
        <time>2023-07-04T15:58:20.000Z</time>
      </trkpt>
      <trkpt lat="45.8406" lon="4.62963">
        <ele>302.56702</ele>
        <time>2023-07-04T15:58:21.000Z</time>
      </trkpt>
      <trkpt lat="45.8406" lon="4.62967">
        <ele>305.08508</ele>
        <time>2023-07-04T15:58:22.000Z</time>
      </trkpt>
      <trkpt lat="45.8406" lon="4.62971">
        <ele>305.82889</ele>
        <time>2023-07-04T15:58:23.000Z</time>
      </trkpt>
      <trkpt lat="45.84059" lon="4.62975">
        <ele>306.61273</ele>
        <time>2023-07-04T15:58:24.000Z</time>
      </trkpt>
      <trkpt lat="45.84059" lon="4.62979">
        <ele>307.43848</ele>
        <time>2023-07-04T15:58:25.000Z</time>
      </trkpt>
      <trkpt lat="45.84058" lon="4.62984">
        <ele>308.27917</ele>
        <time>2023-07-04T15:58:26.000Z</time>
      </trkpt>
      <trkpt lat="45.84058" lon="4.62989">
        <ele>309.0415</ele>
        <time>2023-07-04T15:58:27.000Z</time>
      </trkpt>
      <trkpt lat="45.84059" lon="4.62994">
        <ele>311.49042</ele>
        <time>2023-07-04T15:58:28.000Z</time>
      </trkpt>
      <trkpt lat="45.84059" lon="4.63">
        <ele>312.39761</ele>
        <time>2023-07-04T15:58:29.000Z</time>
      </trkpt>
      <trkpt lat="45.84059" lon="4.63007">
        <ele>314.82367</ele>
        <time>2023-07-04T15:58:30.000Z</time>
      </trkpt>
      <trkpt lat="45.84058" lon="4.63014">
        <ele>317.22589</ele>
        <time>2023-07-04T15:58:31.000Z</time>
      </trkpt>
      <trkpt lat="45.84057" lon="4.6302">
        <ele>319.65582</ele>
        <time>2023-07-04T15:58:32.000Z</time>
      </trkpt>
      <trkpt lat="45.84057" lon="4.63027">
        <ele>322.09045</ele>
        <time>2023-07-04T15:58:33.000Z</time>
      </trkpt>
      <trkpt lat="45.84057" lon="4.63035">
        <ele>323.41177</ele>
        <time>2023-07-04T15:58:34.000Z</time>
      </trkpt>
      <trkpt lat="45.84057" lon="4.63043">
        <ele>323.9017</ele>
        <time>2023-07-04T15:58:35.000Z</time>
      </trkpt>
      <trkpt lat="45.84057" lon="4.6305">
        <ele>324.31662</ele>
        <time>2023-07-04T15:58:36.000Z</time>
      </trkpt>
      <trkpt lat="45.84057" lon="4.63058">
        <ele>324.84509</ele>
        <time>2023-07-04T15:58:37.000Z</time>
      </trkpt>
      <trkpt lat="45.84057" lon="4.63065">
        <ele>325.35086</ele>
        <time>2023-07-04T15:58:38.000Z</time>
      </trkpt>
      <trkpt lat="45.84057" lon="4.63074">
        <ele>325.79089</ele>
        <time>2023-07-04T15:58:39.000Z</time>
      </trkpt>
      <trkpt lat="45.84057" lon="4.63082">
        <ele>327.15186</ele>
        <time>2023-07-04T15:58:40.000Z</time>
      </trkpt>
      <trkpt lat="45.84057" lon="4.6309">
        <ele>327.18329</ele>
        <time>2023-07-04T15:58:41.000Z</time>
      </trkpt>
      <trkpt lat="45.84058" lon="4.63098">
        <ele>327.23706</ele>
        <time>2023-07-04T15:58:42.000Z</time>
      </trkpt>
      <trkpt lat="45.84059" lon="4.63106">
        <ele>327.49603</ele>
        <time>2023-07-04T15:58:43.000Z</time>
      </trkpt>
      <trkpt lat="45.84061" lon="4.63114">
        <ele>328.00812</ele>
        <time>2023-07-04T15:58:44.000Z</time>
      </trkpt>
      <trkpt lat="45.84063" lon="4.63122">
        <ele>328.4957</ele>
        <time>2023-07-04T15:58:45.000Z</time>
      </trkpt>
      <trkpt lat="45.84065" lon="4.63129">
        <ele>328.83807</ele>
        <time>2023-07-04T15:58:46.000Z</time>
      </trkpt>
      <trkpt lat="45.84067" lon="4.63137">
        <ele>329.23886</ele>
        <time>2023-07-04T15:58:47.000Z</time>
      </trkpt>
      <trkpt lat="45.8407" lon="4.63144">
        <ele>329.49667</ele>
        <time>2023-07-04T15:58:48.000Z</time>
      </trkpt>
      <trkpt lat="45.84073" lon="4.63151">
        <ele>329.91742</ele>
        <time>2023-07-04T15:58:49.000Z</time>
      </trkpt>
      <trkpt lat="45.84076" lon="4.63159">
        <ele>330.43622</ele>
        <time>2023-07-04T15:58:50.000Z</time>
      </trkpt>
      <trkpt lat="45.8408" lon="4.63165">
        <ele>330.71774</ele>
        <time>2023-07-04T15:58:51.000Z</time>
      </trkpt>
      <trkpt lat="45.84084" lon="4.63172">
        <ele>330.99313</ele>
        <time>2023-07-04T15:58:52.000Z</time>
      </trkpt>
      <trkpt lat="45.84088" lon="4.63179">
        <ele>331.45493</ele>
        <time>2023-07-04T15:58:53.000Z</time>
      </trkpt>
      <trkpt lat="45.84092" lon="4.63187">
        <ele>331.70184</ele>
        <time>2023-07-04T15:58:54.000Z</time>
      </trkpt>
      <trkpt lat="45.84095" lon="4.63193">
        <ele>331.93298</ele>
        <time>2023-07-04T15:58:55.000Z</time>
      </trkpt>
      <trkpt lat="45.84099" lon="4.632">
        <ele>332.2709</ele>
        <time>2023-07-04T15:58:56.000Z</time>
      </trkpt>
      <trkpt lat="45.84103" lon="4.63207">
        <ele>332.31308</ele>
        <time>2023-07-04T15:58:57.000Z</time>
      </trkpt>
      <trkpt lat="45.84107" lon="4.63214">
        <ele>332.27011</ele>
        <time>2023-07-04T15:58:58.000Z</time>
      </trkpt>
      <trkpt lat="45.84111" lon="4.63221">
        <ele>331.96942</ele>
        <time>2023-07-04T15:58:59.000Z</time>
      </trkpt>
      <trkpt lat="45.84115" lon="4.63228">
        <ele>331.67944</ele>
        <time>2023-07-04T15:59:00.000Z</time>
      </trkpt>
      <trkpt lat="45.84118" lon="4.63236">
        <ele>331.45398</ele>
        <time>2023-07-04T15:59:01.000Z</time>
      </trkpt>
      <trkpt lat="45.84122" lon="4.63243">
        <ele>331.52731</ele>
        <time>2023-07-04T15:59:02.000Z</time>
      </trkpt>
      <trkpt lat="45.84126" lon="4.63249">
        <ele>331.32718</ele>
        <time>2023-07-04T15:59:03.000Z</time>
      </trkpt>
      <trkpt lat="45.8413" lon="4.63256">
        <ele>330.76285</ele>
        <time>2023-07-04T15:59:04.000Z</time>
      </trkpt>
      <trkpt lat="45.84134" lon="4.63263">
        <ele>330.38837</ele>
        <time>2023-07-04T15:59:05.000Z</time>
      </trkpt>
      <trkpt lat="45.84137" lon="4.6327">
        <ele>329.88773</ele>
        <time>2023-07-04T15:59:06.000Z</time>
      </trkpt>
      <trkpt lat="45.84141" lon="4.63276">
        <ele>329.34003</ele>
        <time>2023-07-04T15:59:07.000Z</time>
      </trkpt>
      <trkpt lat="45.84145" lon="4.63282">
        <ele>328.94089</ele>
        <time>2023-07-04T15:59:08.000Z</time>
      </trkpt>
      <trkpt lat="45.84148" lon="4.63289">
        <ele>328.38361</ele>
        <time>2023-07-04T15:59:09.000Z</time>
      </trkpt>
      <trkpt lat="45.84153" lon="4.63296">
        <ele>327.73444</ele>
        <time>2023-07-04T15:59:10.000Z</time>
      </trkpt>
      <trkpt lat="45.84157" lon="4.63303">
        <ele>327.34854</ele>
        <time>2023-07-04T15:59:11.000Z</time>
      </trkpt>
      <trkpt lat="45.8416" lon="4.63309">
        <ele>326.95395</ele>
        <time>2023-07-04T15:59:12.000Z</time>
      </trkpt>
      <trkpt lat="45.84164" lon="4.63316">
        <ele>326.38364</ele>
        <time>2023-07-04T15:59:13.000Z</time>
      </trkpt>
      <trkpt lat="45.84168" lon="4.63323">
        <ele>326.01129</ele>
        <time>2023-07-04T15:59:14.000Z</time>
      </trkpt>
      <trkpt lat="45.84172" lon="4.63331">
        <ele>325.67349</ele>
        <time>2023-07-04T15:59:15.000Z</time>
      </trkpt>
      <trkpt lat="45.84176" lon="4.63337">
        <ele>325.23199</ele>
        <time>2023-07-04T15:59:16.000Z</time>
      </trkpt>
      <trkpt lat="45.8418" lon="4.63344">
        <ele>324.97333</ele>
        <time>2023-07-04T15:59:17.000Z</time>
      </trkpt>
      <trkpt lat="45.84183" lon="4.63349">
        <ele>324.92279</ele>
        <time>2023-07-04T15:59:18.000Z</time>
      </trkpt>
      <trkpt lat="45.84187" lon="4.63355">
        <ele>324.98999</ele>
        <time>2023-07-04T15:59:19.000Z</time>
      </trkpt>
      <trkpt lat="45.84191" lon="4.6336">
        <ele>325.04645</ele>
        <time>2023-07-04T15:59:20.000Z</time>
      </trkpt>
      <trkpt lat="45.84196" lon="4.63366">
        <ele>325.45044</ele>
        <time>2023-07-04T15:59:21.000Z</time>
      </trkpt>
      <trkpt lat="45.84201" lon="4.63372">
        <ele>325.40924</ele>
        <time>2023-07-04T15:59:22.000Z</time>
      </trkpt>
      <trkpt lat="45.84205" lon="4.63377">
        <ele>325.41269</ele>
        <time>2023-07-04T15:59:23.000Z</time>
      </trkpt>
      <trkpt lat="45.8421" lon="4.63383">
        <ele>325.34198</ele>
        <time>2023-07-04T15:59:24.000Z</time>
      </trkpt>
      <trkpt lat="45.84215" lon="4.63388">
        <ele>325.11099</ele>
        <time>2023-07-04T15:59:25.000Z</time>
      </trkpt>
      <trkpt lat="45.8422" lon="4.63393">
        <ele>325.1731</ele>
        <time>2023-07-04T15:59:26.000Z</time>
      </trkpt>
      <trkpt lat="45.84225" lon="4.63397">
        <ele>325.25174</ele>
        <time>2023-07-04T15:59:27.000Z</time>
      </trkpt>
      <trkpt lat="45.8423" lon="4.63402">
        <ele>325.32205</ele>
        <time>2023-07-04T15:59:28.000Z</time>
      </trkpt>
      <trkpt lat="45.84234" lon="4.63406">
        <ele>325.38898</ele>
        <time>2023-07-04T15:59:29.000Z</time>
      </trkpt>
      <trkpt lat="45.84239" lon="4.6341">
        <ele>325.46793</ele>
        <time>2023-07-04T15:59:30.000Z</time>
      </trkpt>
      <trkpt lat="45.84245" lon="4.63414">
        <ele>325.52325</ele>
        <time>2023-07-04T15:59:31.000Z</time>
      </trkpt>
      <trkpt lat="45.8425" lon="4.63418">
        <ele>325.59732</ele>
        <time>2023-07-04T15:59:32.000Z</time>
      </trkpt>
      <trkpt lat="45.84255" lon="4.63422">
        <ele>325.82095</ele>
        <time>2023-07-04T15:59:33.000Z</time>
      </trkpt>
      <trkpt lat="45.84261" lon="4.63425">
        <ele>325.87518</ele>
        <time>2023-07-04T15:59:34.000Z</time>
      </trkpt>
      <trkpt lat="45.84266" lon="4.63427">
        <ele>325.89355</ele>
        <time>2023-07-04T15:59:35.000Z</time>
      </trkpt>
      <trkpt lat="45.84271" lon="4.6343">
        <ele>325.8916</ele>
        <time>2023-07-04T15:59:36.000Z</time>
      </trkpt>
      <trkpt lat="45.84278" lon="4.63431">
        <ele>325.87814</ele>
        <time>2023-07-04T15:59:37.000Z</time>
      </trkpt>
      <trkpt lat="45.84283" lon="4.63432">
        <ele>325.70746</ele>
        <time>2023-07-04T15:59:38.000Z</time>
      </trkpt>
      <trkpt lat="45.84289" lon="4.63433">
        <ele>325.63678</ele>
        <time>2023-07-04T15:59:39.000Z</time>
      </trkpt>
      <trkpt lat="45.84295" lon="4.63433">
        <ele>325.61932</ele>
        <time>2023-07-04T15:59:40.000Z</time>
      </trkpt>
      <trkpt lat="45.84301" lon="4.63432">
        <ele>325.2597</ele>
        <time>2023-07-04T15:59:41.000Z</time>
      </trkpt>
      <trkpt lat="45.84307" lon="4.63431">
        <ele>325.01132</ele>
        <time>2023-07-04T15:59:42.000Z</time>
      </trkpt>
      <trkpt lat="45.84312" lon="4.63429">
        <ele>324.87921</ele>
        <time>2023-07-04T15:59:43.000Z</time>
      </trkpt>
      <trkpt lat="45.84319" lon="4.63427">
        <ele>324.9212</ele>
        <time>2023-07-04T15:59:44.000Z</time>
      </trkpt>
      <trkpt lat="45.84324" lon="4.63427">
        <ele>325.05252</ele>
        <time>2023-07-04T15:59:45.000Z</time>
      </trkpt>
      <trkpt lat="45.8433" lon="4.63424">
        <ele>325.3692</ele>
        <time>2023-07-04T15:59:46.000Z</time>
      </trkpt>
      <trkpt lat="45.84336" lon="4.6342">
        <ele>325.69135</ele>
        <time>2023-07-04T15:59:47.000Z</time>
      </trkpt>
      <trkpt lat="45.84341" lon="4.63417">
        <ele>325.89993</ele>
        <time>2023-07-04T15:59:48.000Z</time>
      </trkpt>
      <trkpt lat="45.84348" lon="4.63413">
        <ele>326.09976</ele>
        <time>2023-07-04T15:59:49.000Z</time>
      </trkpt>
      <trkpt lat="45.84353" lon="4.63408">
        <ele>326.33173</ele>
        <time>2023-07-04T15:59:50.000Z</time>
      </trkpt>
      <trkpt lat="45.84359" lon="4.63403">
        <ele>326.62738</ele>
        <time>2023-07-04T15:59:51.000Z</time>
      </trkpt>
      <trkpt lat="45.84365" lon="4.634">
        <ele>326.84918</ele>
        <time>2023-07-04T15:59:52.000Z</time>
      </trkpt>
      <trkpt lat="45.84371" lon="4.63396">
        <ele>327.10632</ele>
        <time>2023-07-04T15:59:53.000Z</time>
      </trkpt>
      <trkpt lat="45.84377" lon="4.63392">
        <ele>327.35492</ele>
        <time>2023-07-04T15:59:54.000Z</time>
      </trkpt>
      <trkpt lat="45.84384" lon="4.63387">
        <ele>327.80835</ele>
        <time>2023-07-04T15:59:55.000Z</time>
      </trkpt>
      <trkpt lat="45.8439" lon="4.63384">
        <ele>328.09436</ele>
        <time>2023-07-04T15:59:56.000Z</time>
      </trkpt>
      <trkpt lat="45.84397" lon="4.63381">
        <ele>328.10092</ele>
        <time>2023-07-04T15:59:57.000Z</time>
      </trkpt>
      <trkpt lat="45.84403" lon="4.63379">
        <ele>328.10944</ele>
        <time>2023-07-04T15:59:58.000Z</time>
      </trkpt>
      <trkpt lat="45.8441" lon="4.63377">
        <ele>328.24036</ele>
        <time>2023-07-04T15:59:59.000Z</time>
      </trkpt>
      <trkpt lat="45.84416" lon="4.63376">
        <ele>328.31909</ele>
        <time>2023-07-04T16:00:00.000Z</time>
      </trkpt>
      <trkpt lat="45.84423" lon="4.63375">
        <ele>328.30078</ele>
        <time>2023-07-04T16:00:01.000Z</time>
      </trkpt>
      <trkpt lat="45.8443" lon="4.63374">
        <ele>328.24414</ele>
        <time>2023-07-04T16:00:02.000Z</time>
      </trkpt>
      <trkpt lat="45.84437" lon="4.63373">
        <ele>328.16309</ele>
        <time>2023-07-04T16:00:03.000Z</time>
      </trkpt>
      <trkpt lat="45.84444" lon="4.63372">
        <ele>328.08469</ele>
        <time>2023-07-04T16:00:04.000Z</time>
      </trkpt>
      <trkpt lat="45.84451" lon="4.63371">
        <ele>327.9072</ele>
        <time>2023-07-04T16:00:05.000Z</time>
      </trkpt>
      <trkpt lat="45.84458" lon="4.6337">
        <ele>327.55389</ele>
        <time>2023-07-04T16:00:06.000Z</time>
      </trkpt>
      <trkpt lat="45.84465" lon="4.63369">
        <ele>327.17523</ele>
        <time>2023-07-04T16:00:07.000Z</time>
      </trkpt>
      <trkpt lat="45.84472" lon="4.63367">
        <ele>326.91016</ele>
        <time>2023-07-04T16:00:08.000Z</time>
      </trkpt>
      <trkpt lat="45.84478" lon="4.63366">
        <ele>326.85132</ele>
        <time>2023-07-04T16:00:09.000Z</time>
      </trkpt>
      <trkpt lat="45.84486" lon="4.63365">
        <ele>326.56293</ele>
        <time>2023-07-04T16:00:10.000Z</time>
      </trkpt>
      <trkpt lat="45.84493" lon="4.63365">
        <ele>326.49237</ele>
        <time>2023-07-04T16:00:11.000Z</time>
      </trkpt>
      <trkpt lat="45.845" lon="4.63366">
        <ele>326.55835</ele>
        <time>2023-07-04T16:00:12.000Z</time>
      </trkpt>
      <trkpt lat="45.84506" lon="4.63368">
        <ele>326.52603</ele>
        <time>2023-07-04T16:00:13.000Z</time>
      </trkpt>
      <trkpt lat="45.84512" lon="4.63371">
        <ele>326.46039</ele>
        <time>2023-07-04T16:00:14.000Z</time>
      </trkpt>
      <trkpt lat="45.84519" lon="4.63374">
        <ele>325.93228</ele>
        <time>2023-07-04T16:00:15.000Z</time>
      </trkpt>
      <trkpt lat="45.84525" lon="4.63377">
        <ele>325.5769</ele>
        <time>2023-07-04T16:00:16.000Z</time>
      </trkpt>
      <trkpt lat="45.84531" lon="4.6338">
        <ele>325.47778</ele>
        <time>2023-07-04T16:00:17.000Z</time>
      </trkpt>
      <trkpt lat="45.84537" lon="4.63384">
        <ele>325.37283</ele>
        <time>2023-07-04T16:00:18.000Z</time>
      </trkpt>
      <trkpt lat="45.84544" lon="4.63388">
        <ele>325.10977</ele>
        <time>2023-07-04T16:00:19.000Z</time>
      </trkpt>
      <trkpt lat="45.84551" lon="4.63391">
        <ele>324.89447</ele>
        <time>2023-07-04T16:00:20.000Z</time>
      </trkpt>
      <trkpt lat="45.84557" lon="4.63395">
        <ele>324.77179</ele>
        <time>2023-07-04T16:00:21.000Z</time>
      </trkpt>
      <trkpt lat="45.84564" lon="4.634">
        <ele>324.655</ele>
        <time>2023-07-04T16:00:22.000Z</time>
      </trkpt>
      <trkpt lat="45.84569" lon="4.63404">
        <ele>324.52005</ele>
        <time>2023-07-04T16:00:23.000Z</time>
      </trkpt>
      <trkpt lat="45.84575" lon="4.6341">
        <ele>324.69135</ele>
        <time>2023-07-04T16:00:24.000Z</time>
      </trkpt>
      <trkpt lat="45.84581" lon="4.63414">
        <ele>325.0415</ele>
        <time>2023-07-04T16:00:25.000Z</time>
      </trkpt>
      <trkpt lat="45.84586" lon="4.6342">
        <ele>324.08633</ele>
        <time>2023-07-04T16:00:26.000Z</time>
      </trkpt>
      <trkpt lat="45.84592" lon="4.63424">
        <ele>323.38336</ele>
        <time>2023-07-04T16:00:27.000Z</time>
      </trkpt>
      <trkpt lat="45.84599" lon="4.63429">
        <ele>322.65079</ele>
        <time>2023-07-04T16:00:28.000Z</time>
      </trkpt>
      <trkpt lat="45.84604" lon="4.63433">
        <ele>321.7341</ele>
        <time>2023-07-04T16:00:29.000Z</time>
      </trkpt>
      <trkpt lat="45.8461" lon="4.63438">
        <ele>321.0029</ele>
        <time>2023-07-04T16:00:30.000Z</time>
      </trkpt>
      <trkpt lat="45.84616" lon="4.63443">
        <ele>320.004</ele>
        <time>2023-07-04T16:00:31.000Z</time>
      </trkpt>
      <trkpt lat="45.84622" lon="4.63447">
        <ele>318.95074</ele>
        <time>2023-07-04T16:00:32.000Z</time>
      </trkpt>
      <trkpt lat="45.84628" lon="4.63453">
        <ele>317.78937</ele>
        <time>2023-07-04T16:00:33.000Z</time>
      </trkpt>
      <trkpt lat="45.84634" lon="4.63457">
        <ele>316.83731</ele>
        <time>2023-07-04T16:00:34.000Z</time>
      </trkpt>
      <trkpt lat="45.8464" lon="4.63461">
        <ele>316.16766</ele>
        <time>2023-07-04T16:00:35.000Z</time>
      </trkpt>
      <trkpt lat="45.84645" lon="4.63466">
        <ele>315.48239</ele>
        <time>2023-07-04T16:00:36.000Z</time>
      </trkpt>
      <trkpt lat="45.84651" lon="4.63472">
        <ele>314.81866</ele>
        <time>2023-07-04T16:00:37.000Z</time>
      </trkpt>
      <trkpt lat="45.84655" lon="4.63478">
        <ele>314.1525</ele>
        <time>2023-07-04T16:00:38.000Z</time>
      </trkpt>
      <trkpt lat="45.8466" lon="4.63484">
        <ele>313.51709</ele>
        <time>2023-07-04T16:00:39.000Z</time>
      </trkpt>
      <trkpt lat="45.84664" lon="4.63491">
        <ele>312.87949</ele>
        <time>2023-07-04T16:00:40.000Z</time>
      </trkpt>
      <trkpt lat="45.84669" lon="4.63498">
        <ele>312.27579</ele>
        <time>2023-07-04T16:00:41.000Z</time>
      </trkpt>
      <trkpt lat="45.84673" lon="4.63506">
        <ele>311.69031</ele>
        <time>2023-07-04T16:00:42.000Z</time>
      </trkpt>
      <trkpt lat="45.84676" lon="4.63514">
        <ele>311.73688</ele>
        <time>2023-07-04T16:00:43.000Z</time>
      </trkpt>
      <trkpt lat="45.8468" lon="4.63522">
        <ele>311.50583</ele>
        <time>2023-07-04T16:00:44.000Z</time>
      </trkpt>
      <trkpt lat="45.84683" lon="4.6353">
        <ele>311.11835</ele>
        <time>2023-07-04T16:00:45.000Z</time>
      </trkpt>
      <trkpt lat="45.84685" lon="4.63539">
        <ele>312.0303</ele>
        <time>2023-07-04T16:00:46.000Z</time>
      </trkpt>
      <trkpt lat="45.84686" lon="4.63548">
        <ele>312.69757</ele>
        <time>2023-07-04T16:00:47.000Z</time>
      </trkpt>
      <trkpt lat="45.84688" lon="4.63556">
        <ele>313.41504</ele>
        <time>2023-07-04T16:00:48.000Z</time>
      </trkpt>
      <trkpt lat="45.84689" lon="4.63565">
        <ele>314.14539</ele>
        <time>2023-07-04T16:00:49.000Z</time>
      </trkpt>
      <trkpt lat="45.8469" lon="4.63573">
        <ele>315.14777</ele>
        <time>2023-07-04T16:00:50.000Z</time>
      </trkpt>
      <trkpt lat="45.84692" lon="4.63582">
        <ele>316.10443</ele>
        <time>2023-07-04T16:00:51.000Z</time>
      </trkpt>
      <trkpt lat="45.84692" lon="4.6359">
        <ele>317.08023</ele>
        <time>2023-07-04T16:00:52.000Z</time>
      </trkpt>
      <trkpt lat="45.84693" lon="4.63598">
        <ele>317.92731</ele>
        <time>2023-07-04T16:00:53.000Z</time>
      </trkpt>
      <trkpt lat="45.84694" lon="4.63606">
        <ele>318.96167</ele>
        <time>2023-07-04T16:00:54.000Z</time>
      </trkpt>
      <trkpt lat="45.84695" lon="4.63614">
        <ele>320.00574</ele>
        <time>2023-07-04T16:00:55.000Z</time>
      </trkpt>
      <trkpt lat="45.84697" lon="4.63622">
        <ele>320.96545</ele>
        <time>2023-07-04T16:00:56.000Z</time>
      </trkpt>
      <trkpt lat="45.84698" lon="4.63629">
        <ele>322.0853</ele>
        <time>2023-07-04T16:00:57.000Z</time>
      </trkpt>
      <trkpt lat="45.84699" lon="4.63636">
        <ele>323.29962</ele>
        <time>2023-07-04T16:00:58.000Z</time>
      </trkpt>
      <trkpt lat="45.84702" lon="4.63643">
        <ele>323.99844</ele>
        <time>2023-07-04T16:00:59.000Z</time>
      </trkpt>
      <trkpt lat="45.84705" lon="4.63649">
        <ele>324.7326</ele>
        <time>2023-07-04T16:01:00.000Z</time>
      </trkpt>
      <trkpt lat="45.84708" lon="4.63656">
        <ele>325.48798</ele>
        <time>2023-07-04T16:01:01.000Z</time>
      </trkpt>
      <trkpt lat="45.84712" lon="4.63661">
        <ele>326.28046</ele>
        <time>2023-07-04T16:01:02.000Z</time>
      </trkpt>
      <trkpt lat="45.84717" lon="4.63667">
        <ele>326.4978</ele>
        <time>2023-07-04T16:01:03.000Z</time>
      </trkpt>
      <trkpt lat="45.84721" lon="4.63672">
        <ele>324.15582</ele>
        <time>2023-07-04T16:01:04.000Z</time>
      </trkpt>
      <trkpt lat="45.84726" lon="4.63676">
        <ele>324.2269</ele>
        <time>2023-07-04T16:01:05.000Z</time>
      </trkpt>
      <trkpt lat="45.84732" lon="4.63681">
        <ele>324.30469</ele>
        <time>2023-07-04T16:01:06.000Z</time>
      </trkpt>
      <trkpt lat="45.84738" lon="4.63684">
        <ele>324.37918</ele>
        <time>2023-07-04T16:01:07.000Z</time>
      </trkpt>
      <trkpt lat="45.84744" lon="4.63688">
        <ele>324.43475</ele>
        <time>2023-07-04T16:01:08.000Z</time>
      </trkpt>
      <trkpt lat="45.84749" lon="4.63691">
        <ele>324.48163</ele>
        <time>2023-07-04T16:01:09.000Z</time>
      </trkpt>
      <trkpt lat="45.84755" lon="4.63695">
        <ele>321.85098</ele>
        <time>2023-07-04T16:01:10.000Z</time>
      </trkpt>
      <trkpt lat="45.84761" lon="4.63698">
        <ele>321.51544</ele>
        <time>2023-07-04T16:01:11.000Z</time>
      </trkpt>
      <trkpt lat="45.84767" lon="4.63702">
        <ele>321.13449</ele>
        <time>2023-07-04T16:01:12.000Z</time>
      </trkpt>
      <trkpt lat="45.84772" lon="4.63706">
        <ele>320.87225</ele>
        <time>2023-07-04T16:01:13.000Z</time>
      </trkpt>
      <trkpt lat="45.84777" lon="4.6371">
        <ele>320.40878</ele>
        <time>2023-07-04T16:01:14.000Z</time>
      </trkpt>
      <trkpt lat="45.84782" lon="4.63713">
        <ele>319.8974</ele>
        <time>2023-07-04T16:01:15.000Z</time>
      </trkpt>
      <trkpt lat="45.84788" lon="4.63717">
        <ele>317.38965</ele>
        <time>2023-07-04T16:01:16.000Z</time>
      </trkpt>
      <trkpt lat="45.84793" lon="4.63721">
        <ele>316.64828</ele>
        <time>2023-07-04T16:01:17.000Z</time>
      </trkpt>
      <trkpt lat="45.84797" lon="4.63724">
        <ele>315.79425</ele>
        <time>2023-07-04T16:01:18.000Z</time>
      </trkpt>
      <trkpt lat="45.84802" lon="4.63727">
        <ele>315.41898</ele>
        <time>2023-07-04T16:01:19.000Z</time>
      </trkpt>
      <trkpt lat="45.84807" lon="4.63731">
        <ele>314.98999</ele>
        <time>2023-07-04T16:01:20.000Z</time>
      </trkpt>
      <trkpt lat="45.84812" lon="4.63735">
        <ele>314.50287</ele>
        <time>2023-07-04T16:01:21.000Z</time>
      </trkpt>
      <trkpt lat="45.84817" lon="4.6374">
        <ele>312.09985</ele>
        <time>2023-07-04T16:01:22.000Z</time>
      </trkpt>
      <trkpt lat="45.84822" lon="4.63744">
        <ele>311.39081</ele>
        <time>2023-07-04T16:01:23.000Z</time>
      </trkpt>
      <trkpt lat="45.84827" lon="4.63749">
        <ele>313.18442</ele>
        <time>2023-07-04T16:01:24.000Z</time>
      </trkpt>
      <trkpt lat="45.84832" lon="4.63755">
        <ele>312.63586</ele>
        <time>2023-07-04T16:01:25.000Z</time>
      </trkpt>
      <trkpt lat="45.84836" lon="4.63761">
        <ele>312.0563</ele>
        <time>2023-07-04T16:01:26.000Z</time>
      </trkpt>
      <trkpt lat="45.8484" lon="4.63767">
        <ele>311.44388</ele>
        <time>2023-07-04T16:01:27.000Z</time>
      </trkpt>
      <trkpt lat="45.84843" lon="4.63773">
        <ele>309.09265</ele>
        <time>2023-07-04T16:01:28.000Z</time>
      </trkpt>
      <trkpt lat="45.84848" lon="4.6378">
        <ele>308.32556</ele>
        <time>2023-07-04T16:01:29.000Z</time>
      </trkpt>
      <trkpt lat="45.84852" lon="4.63788">
        <ele>309.90961</ele>
        <time>2023-07-04T16:01:30.000Z</time>
      </trkpt>
      <trkpt lat="45.84854" lon="4.63794">
        <ele>309.31256</ele>
        <time>2023-07-04T16:01:31.000Z</time>
      </trkpt>
      <trkpt lat="45.84858" lon="4.63802">
        <ele>308.70239</ele>
        <time>2023-07-04T16:01:32.000Z</time>
      </trkpt>
      <trkpt lat="45.84862" lon="4.63809">
        <ele>308.08081</ele>
        <time>2023-07-04T16:01:33.000Z</time>
      </trkpt>
      <trkpt lat="45.84866" lon="4.63816">
        <ele>305.88837</ele>
        <time>2023-07-04T16:01:34.000Z</time>
      </trkpt>
      <trkpt lat="45.84869" lon="4.63822">
        <ele>303.66815</ele>
        <time>2023-07-04T16:01:35.000Z</time>
      </trkpt>
      <trkpt lat="45.84872" lon="4.6383">
        <ele>303.49689</ele>
        <time>2023-07-04T16:01:36.000Z</time>
      </trkpt>
      <trkpt lat="45.84876" lon="4.63837">
        <ele>301.46262</ele>
        <time>2023-07-04T16:01:37.000Z</time>
      </trkpt>
      <trkpt lat="45.84879" lon="4.63844">
        <ele>299.45038</ele>
        <time>2023-07-04T16:01:38.000Z</time>
      </trkpt>
      <trkpt lat="45.84882" lon="4.63852">
        <ele>297.46857</ele>
        <time>2023-07-04T16:01:39.000Z</time>
      </trkpt>
      <trkpt lat="45.84885" lon="4.6386">
        <ele>295.55621</ele>
        <time>2023-07-04T16:01:40.000Z</time>
      </trkpt>
      <trkpt lat="45.84887" lon="4.63867">
        <ele>293.6554</ele>
        <time>2023-07-04T16:01:41.000Z</time>
      </trkpt>
      <trkpt lat="45.84889" lon="4.63875">
        <ele>293.47705</ele>
        <time>2023-07-04T16:01:42.000Z</time>
      </trkpt>
      <trkpt lat="45.84891" lon="4.63884">
        <ele>291.58734</ele>
        <time>2023-07-04T16:01:43.000Z</time>
      </trkpt>
      <trkpt lat="45.84891" lon="4.63893">
        <ele>289.71802</ele>
        <time>2023-07-04T16:01:44.000Z</time>
      </trkpt>
      <trkpt lat="45.84892" lon="4.63902">
        <ele>287.73703</ele>
        <time>2023-07-04T16:01:45.000Z</time>
      </trkpt>
      <trkpt lat="45.84891" lon="4.6391">
        <ele>285.7757</ele>
        <time>2023-07-04T16:01:46.000Z</time>
      </trkpt>
      <trkpt lat="45.8489" lon="4.63919">
        <ele>283.82648</ele>
        <time>2023-07-04T16:01:47.000Z</time>
      </trkpt>
      <trkpt lat="45.84888" lon="4.63928">
        <ele>283.61469</ele>
        <time>2023-07-04T16:01:48.000Z</time>
      </trkpt>
      <trkpt lat="45.84888" lon="4.63936">
        <ele>281.83606</ele>
        <time>2023-07-04T16:01:49.000Z</time>
      </trkpt>
      <trkpt lat="45.84886" lon="4.63944">
        <ele>280.13385</ele>
        <time>2023-07-04T16:01:50.000Z</time>
      </trkpt>
      <trkpt lat="45.84883" lon="4.63952">
        <ele>278.40588</ele>
        <time>2023-07-04T16:01:51.000Z</time>
      </trkpt>
      <trkpt lat="45.84881" lon="4.6396">
        <ele>276.70697</ele>
        <time>2023-07-04T16:01:52.000Z</time>
      </trkpt>
      <trkpt lat="45.84879" lon="4.63968">
        <ele>275.54486</ele>
        <time>2023-07-04T16:01:53.000Z</time>
      </trkpt>
      <trkpt lat="45.84877" lon="4.63977">
        <ele>275.99466</ele>
        <time>2023-07-04T16:01:54.000Z</time>
      </trkpt>
      <trkpt lat="45.84874" lon="4.63985">
        <ele>276.49036</ele>
        <time>2023-07-04T16:01:55.000Z</time>
      </trkpt>
      <trkpt lat="45.84872" lon="4.63993">
        <ele>276.98239</ele>
        <time>2023-07-04T16:01:56.000Z</time>
      </trkpt>
      <trkpt lat="45.84871" lon="4.64002">
        <ele>277.40427</ele>
        <time>2023-07-04T16:01:57.000Z</time>
      </trkpt>
      <trkpt lat="45.84869" lon="4.6401">
        <ele>277.7869</ele>
        <time>2023-07-04T16:01:58.000Z</time>
      </trkpt>
      <trkpt lat="45.84868" lon="4.64019">
        <ele>278.10629</ele>
        <time>2023-07-04T16:01:59.000Z</time>
      </trkpt>
      <trkpt lat="45.84867" lon="4.64028">
        <ele>278.57309</ele>
        <time>2023-07-04T16:02:00.000Z</time>
      </trkpt>
      <trkpt lat="45.84866" lon="4.64036">
        <ele>279.28793</ele>
        <time>2023-07-04T16:02:01.000Z</time>
      </trkpt>
      <trkpt lat="45.84866" lon="4.64046">
        <ele>279.61594</ele>
        <time>2023-07-04T16:02:02.000Z</time>
      </trkpt>
      <trkpt lat="45.84865" lon="4.64056">
        <ele>280.05621</ele>
        <time>2023-07-04T16:02:03.000Z</time>
      </trkpt>
      <trkpt lat="45.84865" lon="4.64065">
        <ele>280.52548</ele>
        <time>2023-07-04T16:02:04.000Z</time>
      </trkpt>
      <trkpt lat="45.84866" lon="4.64074">
        <ele>280.94827</ele>
        <time>2023-07-04T16:02:05.000Z</time>
      </trkpt>
      <trkpt lat="45.84867" lon="4.64083">
        <ele>281.37256</ele>
        <time>2023-07-04T16:02:06.000Z</time>
      </trkpt>
      <trkpt lat="45.84868" lon="4.64092">
        <ele>281.74893</ele>
        <time>2023-07-04T16:02:07.000Z</time>
      </trkpt>
      <trkpt lat="45.84868" lon="4.64099">
        <ele>282.19086</ele>
        <time>2023-07-04T16:02:08.000Z</time>
      </trkpt>
      <trkpt lat="45.84869" lon="4.64107">
        <ele>282.64713</ele>
        <time>2023-07-04T16:02:09.000Z</time>
      </trkpt>
      <trkpt lat="45.84869" lon="4.64116">
        <ele>283.10797</ele>
        <time>2023-07-04T16:02:10.000Z</time>
      </trkpt>
      <trkpt lat="45.8487" lon="4.64125">
        <ele>283.52026</ele>
        <time>2023-07-04T16:02:11.000Z</time>
      </trkpt>
      <trkpt lat="45.84871" lon="4.64133">
        <ele>284.02069</ele>
        <time>2023-07-04T16:02:12.000Z</time>
      </trkpt>
      <trkpt lat="45.84872" lon="4.64142">
        <ele>283.99634</ele>
        <time>2023-07-04T16:02:13.000Z</time>
      </trkpt>
      <trkpt lat="45.84873" lon="4.6415">
        <ele>283.87872</ele>
        <time>2023-07-04T16:02:14.000Z</time>
      </trkpt>
      <trkpt lat="45.84873" lon="4.64158">
        <ele>283.68637</ele>
        <time>2023-07-04T16:02:15.000Z</time>
      </trkpt>
      <trkpt lat="45.84874" lon="4.64168">
        <ele>283.73068</ele>
        <time>2023-07-04T16:02:16.000Z</time>
      </trkpt>
      <trkpt lat="45.84875" lon="4.64176">
        <ele>283.8194</ele>
        <time>2023-07-04T16:02:17.000Z</time>
      </trkpt>
      <trkpt lat="45.84877" lon="4.64185">
        <ele>284.06262</ele>
        <time>2023-07-04T16:02:18.000Z</time>
      </trkpt>
      <trkpt lat="45.84878" lon="4.64192">
        <ele>284.45566</ele>
        <time>2023-07-04T16:02:19.000Z</time>
      </trkpt>
      <trkpt lat="45.84881" lon="4.64201">
        <ele>284.61407</ele>
        <time>2023-07-04T16:02:20.000Z</time>
      </trkpt>
      <trkpt lat="45.84884" lon="4.64209">
        <ele>284.43549</ele>
        <time>2023-07-04T16:02:21.000Z</time>
      </trkpt>
      <trkpt lat="45.84886" lon="4.64216">
        <ele>284.8884</ele>
        <time>2023-07-04T16:02:22.000Z</time>
      </trkpt>
      <trkpt lat="45.84889" lon="4.64224">
        <ele>285.14948</ele>
        <time>2023-07-04T16:02:23.000Z</time>
      </trkpt>
      <trkpt lat="45.84893" lon="4.64232">
        <ele>285.34857</ele>
        <time>2023-07-04T16:02:24.000Z</time>
      </trkpt>
      <trkpt lat="45.84896" lon="4.64239">
        <ele>285.63666</ele>
        <time>2023-07-04T16:02:25.000Z</time>
      </trkpt>
      <trkpt lat="45.849" lon="4.64245">
        <ele>285.9014</ele>
        <time>2023-07-04T16:02:26.000Z</time>
      </trkpt>
      <trkpt lat="45.84905" lon="4.64251">
        <ele>286.24603</ele>
        <time>2023-07-04T16:02:27.000Z</time>
      </trkpt>
      <trkpt lat="45.8491" lon="4.64258">
        <ele>286.49182</ele>
        <time>2023-07-04T16:02:28.000Z</time>
      </trkpt>
      <trkpt lat="45.84915" lon="4.64265">
        <ele>286.67755</ele>
        <time>2023-07-04T16:02:29.000Z</time>
      </trkpt>
      <trkpt lat="45.84919" lon="4.64271">
        <ele>286.77261</ele>
        <time>2023-07-04T16:02:30.000Z</time>
      </trkpt>
      <trkpt lat="45.84925" lon="4.64276">
        <ele>286.80243</ele>
        <time>2023-07-04T16:02:31.000Z</time>
      </trkpt>
      <trkpt lat="45.8493" lon="4.64281">
        <ele>286.72037</ele>
        <time>2023-07-04T16:02:32.000Z</time>
      </trkpt>
      <trkpt lat="45.84935" lon="4.64286">
        <ele>286.7999</ele>
        <time>2023-07-04T16:02:33.000Z</time>
      </trkpt>
      <trkpt lat="45.8494" lon="4.64291">
        <ele>287.02252</ele>
        <time>2023-07-04T16:02:34.000Z</time>
      </trkpt>
      <trkpt lat="45.84946" lon="4.64297">
        <ele>287.49408</ele>
        <time>2023-07-04T16:02:35.000Z</time>
      </trkpt>
      <trkpt lat="45.84951" lon="4.64303">
        <ele>287.85532</ele>
        <time>2023-07-04T16:02:36.000Z</time>
      </trkpt>
      <trkpt lat="45.84955" lon="4.64308">
        <ele>288.19516</ele>
        <time>2023-07-04T16:02:37.000Z</time>
      </trkpt>
      <trkpt lat="45.84961" lon="4.64312">
        <ele>288.41415</ele>
        <time>2023-07-04T16:02:38.000Z</time>
      </trkpt>
      <trkpt lat="45.84967" lon="4.64318">
        <ele>288.54254</ele>
        <time>2023-07-04T16:02:39.000Z</time>
      </trkpt>
      <trkpt lat="45.84971" lon="4.64324">
        <ele>288.6861</ele>
        <time>2023-07-04T16:02:40.000Z</time>
      </trkpt>
      <trkpt lat="45.84976" lon="4.6433">
        <ele>288.83286</ele>
        <time>2023-07-04T16:02:41.000Z</time>
      </trkpt>
      <trkpt lat="45.84982" lon="4.64335">
        <ele>288.7738</ele>
        <time>2023-07-04T16:02:42.000Z</time>
      </trkpt>
      <trkpt lat="45.84986" lon="4.6434">
        <ele>288.62271</ele>
        <time>2023-07-04T16:02:43.000Z</time>
      </trkpt>
      <trkpt lat="45.84993" lon="4.64343">
        <ele>288.45432</ele>
        <time>2023-07-04T16:02:44.000Z</time>
      </trkpt>
      <trkpt lat="45.84998" lon="4.64348">
        <ele>288.29382</ele>
        <time>2023-07-04T16:02:45.000Z</time>
      </trkpt>
      <trkpt lat="45.85003" lon="4.64354">
        <ele>287.97455</ele>
        <time>2023-07-04T16:02:46.000Z</time>
      </trkpt>
      <trkpt lat="45.85009" lon="4.6436">
        <ele>287.50555</ele>
        <time>2023-07-04T16:02:47.000Z</time>
      </trkpt>
      <trkpt lat="45.85015" lon="4.64365">
        <ele>287.13031</ele>
        <time>2023-07-04T16:02:48.000Z</time>
      </trkpt>
      <trkpt lat="45.85021" lon="4.64371">
        <ele>286.80524</ele>
        <time>2023-07-04T16:02:49.000Z</time>
      </trkpt>
      <trkpt lat="45.85025" lon="4.64377">
        <ele>286.4306</ele>
        <time>2023-07-04T16:02:50.000Z</time>
      </trkpt>
      <trkpt lat="45.8503" lon="4.64384">
        <ele>286.14716</ele>
        <time>2023-07-04T16:02:51.000Z</time>
      </trkpt>
      <trkpt lat="45.85034" lon="4.64391">
        <ele>285.8768</ele>
        <time>2023-07-04T16:02:52.000Z</time>
      </trkpt>
      <trkpt lat="45.85039" lon="4.64399">
        <ele>285.47879</ele>
        <time>2023-07-04T16:02:53.000Z</time>
      </trkpt>
      <trkpt lat="45.85043" lon="4.64407">
        <ele>284.97672</ele>
        <time>2023-07-04T16:02:54.000Z</time>
      </trkpt>
      <trkpt lat="45.85047" lon="4.64415">
        <ele>284.27139</ele>
        <time>2023-07-04T16:02:55.000Z</time>
      </trkpt>
      <trkpt lat="45.85052" lon="4.64423">
        <ele>283.4924</ele>
        <time>2023-07-04T16:02:56.000Z</time>
      </trkpt>
      <trkpt lat="45.85056" lon="4.6443">
        <ele>282.67722</ele>
        <time>2023-07-04T16:02:57.000Z</time>
      </trkpt>
      <trkpt lat="45.8506" lon="4.64438">
        <ele>281.8924</ele>
        <time>2023-07-04T16:02:58.000Z</time>
      </trkpt>
      <trkpt lat="45.85063" lon="4.64446">
        <ele>281.1145</ele>
        <time>2023-07-04T16:02:59.000Z</time>
      </trkpt>
      <trkpt lat="45.85067" lon="4.64454">
        <ele>280.35034</ele>
        <time>2023-07-04T16:03:00.000Z</time>
      </trkpt>
      <trkpt lat="45.85071" lon="4.64461">
        <ele>279.68365</ele>
        <time>2023-07-04T16:03:01.000Z</time>
      </trkpt>
      <trkpt lat="45.85075" lon="4.64469">
        <ele>279.1535</ele>
        <time>2023-07-04T16:03:02.000Z</time>
      </trkpt>
      <trkpt lat="45.85078" lon="4.64476">
        <ele>278.75998</ele>
        <time>2023-07-04T16:03:03.000Z</time>
      </trkpt>
      <trkpt lat="45.85083" lon="4.64483">
        <ele>278.44275</ele>
        <time>2023-07-04T16:03:04.000Z</time>
      </trkpt>
      <trkpt lat="45.85087" lon="4.6449">
        <ele>278.09564</ele>
        <time>2023-07-04T16:03:05.000Z</time>
      </trkpt>
      <trkpt lat="45.85091" lon="4.64497">
        <ele>277.90329</ele>
        <time>2023-07-04T16:03:06.000Z</time>
      </trkpt>
      <trkpt lat="45.85094" lon="4.64505">
        <ele>277.82599</ele>
        <time>2023-07-04T16:03:07.000Z</time>
      </trkpt>
      <trkpt lat="45.85099" lon="4.64512">
        <ele>277.68787</ele>
        <time>2023-07-04T16:03:08.000Z</time>
      </trkpt>
      <trkpt lat="45.85102" lon="4.64519">
        <ele>277.53183</ele>
        <time>2023-07-04T16:03:09.000Z</time>
      </trkpt>
      <trkpt lat="45.85106" lon="4.64527">
        <ele>277.48541</ele>
        <time>2023-07-04T16:03:10.000Z</time>
      </trkpt>
      <trkpt lat="45.8511" lon="4.64534">
        <ele>277.39267</ele>
        <time>2023-07-04T16:03:11.000Z</time>
      </trkpt>
      <trkpt lat="45.85113" lon="4.64542">
        <ele>277.32245</ele>
        <time>2023-07-04T16:03:12.000Z</time>
      </trkpt>
      <trkpt lat="45.85116" lon="4.64549">
        <ele>277.24167</ele>
        <time>2023-07-04T16:03:13.000Z</time>
      </trkpt>
      <trkpt lat="45.85119" lon="4.64557">
        <ele>277.18469</ele>
        <time>2023-07-04T16:03:14.000Z</time>
      </trkpt>
      <trkpt lat="45.85121" lon="4.64565">
        <ele>277.15201</ele>
        <time>2023-07-04T16:03:15.000Z</time>
      </trkpt>
      <trkpt lat="45.85121" lon="4.64574">
        <ele>277.33759</ele>
        <time>2023-07-04T16:03:16.000Z</time>
      </trkpt>
      <trkpt lat="45.85122" lon="4.64583">
        <ele>277.67047</ele>
        <time>2023-07-04T16:03:17.000Z</time>
      </trkpt>
      <trkpt lat="45.85123" lon="4.64592">
        <ele>277.99396</ele>
        <time>2023-07-04T16:03:18.000Z</time>
      </trkpt>
      <trkpt lat="45.85124" lon="4.64601">
        <ele>277.85257</ele>
        <time>2023-07-04T16:03:19.000Z</time>
      </trkpt>
      <trkpt lat="45.85125" lon="4.6461">
        <ele>277.77939</ele>
        <time>2023-07-04T16:03:20.000Z</time>
      </trkpt>
      <trkpt lat="45.85126" lon="4.64619">
        <ele>277.70493</ele>
        <time>2023-07-04T16:03:21.000Z</time>
      </trkpt>
      <trkpt lat="45.85128" lon="4.64628">
        <ele>277.57715</ele>
        <time>2023-07-04T16:03:22.000Z</time>
      </trkpt>
      <trkpt lat="45.85129" lon="4.64637">
        <ele>277.47089</ele>
        <time>2023-07-04T16:03:23.000Z</time>
      </trkpt>
      <trkpt lat="45.85131" lon="4.64646">
        <ele>277.3584</ele>
        <time>2023-07-04T16:03:24.000Z</time>
      </trkpt>
      <trkpt lat="45.85132" lon="4.64655">
        <ele>277.25977</ele>
        <time>2023-07-04T16:03:25.000Z</time>
      </trkpt>
      <trkpt lat="45.85135" lon="4.64664">
        <ele>277.28909</ele>
        <time>2023-07-04T16:03:26.000Z</time>
      </trkpt>
      <trkpt lat="45.85138" lon="4.64672">
        <ele>277.38455</ele>
        <time>2023-07-04T16:03:27.000Z</time>
      </trkpt>
      <trkpt lat="45.85141" lon="4.64681">
        <ele>277.54349</ele>
        <time>2023-07-04T16:03:28.000Z</time>
      </trkpt>
      <trkpt lat="45.85144" lon="4.6469">
        <ele>277.71313</ele>
        <time>2023-07-04T16:03:29.000Z</time>
      </trkpt>
      <trkpt lat="45.85146" lon="4.64698">
        <ele>277.76392</ele>
        <time>2023-07-04T16:03:30.000Z</time>
      </trkpt>
      <trkpt lat="45.85149" lon="4.64706">
        <ele>277.85565</ele>
        <time>2023-07-04T16:03:31.000Z</time>
      </trkpt>
      <trkpt lat="45.85151" lon="4.64714">
        <ele>277.93716</ele>
        <time>2023-07-04T16:03:32.000Z</time>
      </trkpt>
      <trkpt lat="45.85155" lon="4.64722">
        <ele>278.52258</ele>
        <time>2023-07-04T16:03:33.000Z</time>
      </trkpt>
      <trkpt lat="45.85158" lon="4.6473">
        <ele>278.71368</ele>
        <time>2023-07-04T16:03:34.000Z</time>
      </trkpt>
      <trkpt lat="45.8516" lon="4.64738">
        <ele>278.90579</ele>
        <time>2023-07-04T16:03:35.000Z</time>
      </trkpt>
      <trkpt lat="45.85165" lon="4.64747">
        <ele>278.88144</ele>
        <time>2023-07-04T16:03:36.000Z</time>
      </trkpt>
      <trkpt lat="45.85167" lon="4.64755">
        <ele>278.7403</ele>
        <time>2023-07-04T16:03:37.000Z</time>
      </trkpt>
      <trkpt lat="45.8517" lon="4.64762">
        <ele>278.56021</ele>
        <time>2023-07-04T16:03:38.000Z</time>
      </trkpt>
      <trkpt lat="45.85172" lon="4.64771">
        <ele>278.83841</ele>
        <time>2023-07-04T16:03:39.000Z</time>
      </trkpt>
      <trkpt lat="45.85176" lon="4.6478">
        <ele>279.30338</ele>
        <time>2023-07-04T16:03:40.000Z</time>
      </trkpt>
      <trkpt lat="45.8518" lon="4.64787">
        <ele>279.85663</ele>
        <time>2023-07-04T16:03:41.000Z</time>
      </trkpt>
      <trkpt lat="45.85183" lon="4.64795">
        <ele>280.39859</ele>
        <time>2023-07-04T16:03:42.000Z</time>
      </trkpt>
      <trkpt lat="45.85187" lon="4.64802">
        <ele>280.83853</ele>
        <time>2023-07-04T16:03:43.000Z</time>
      </trkpt>
      <trkpt lat="45.8519" lon="4.6481">
        <ele>281.28525</ele>
        <time>2023-07-04T16:03:44.000Z</time>
      </trkpt>
      <trkpt lat="45.85194" lon="4.64818">
        <ele>281.71942</ele>
        <time>2023-07-04T16:03:45.000Z</time>
      </trkpt>
      <trkpt lat="45.85198" lon="4.64825">
        <ele>282.03214</ele>
        <time>2023-07-04T16:03:46.000Z</time>
      </trkpt>
      <trkpt lat="45.85202" lon="4.64833">
        <ele>282.34375</ele>
        <time>2023-07-04T16:03:47.000Z</time>
      </trkpt>
      <trkpt lat="45.85206" lon="4.64839">
        <ele>282.69623</ele>
        <time>2023-07-04T16:03:48.000Z</time>
      </trkpt>
      <trkpt lat="45.8521" lon="4.64847">
        <ele>282.94516</ele>
        <time>2023-07-04T16:03:49.000Z</time>
      </trkpt>
      <trkpt lat="45.85214" lon="4.64854">
        <ele>283.43607</ele>
        <time>2023-07-04T16:03:50.000Z</time>
      </trkpt>
      <trkpt lat="45.85218" lon="4.64861">
        <ele>283.78766</ele>
        <time>2023-07-04T16:03:51.000Z</time>
      </trkpt>
      <trkpt lat="45.85222" lon="4.64868">
        <ele>284.14056</ele>
        <time>2023-07-04T16:03:52.000Z</time>
      </trkpt>
      <trkpt lat="45.85226" lon="4.64875">
        <ele>284.05219</ele>
        <time>2023-07-04T16:03:53.000Z</time>
      </trkpt>
      <trkpt lat="45.8523" lon="4.64882">
        <ele>284.29956</ele>
        <time>2023-07-04T16:03:54.000Z</time>
      </trkpt>
      <trkpt lat="45.85234" lon="4.6489">
        <ele>284.47842</ele>
        <time>2023-07-04T16:03:55.000Z</time>
      </trkpt>
      <trkpt lat="45.85238" lon="4.64896">
        <ele>284.65131</ele>
        <time>2023-07-04T16:03:56.000Z</time>
      </trkpt>
      <trkpt lat="45.85242" lon="4.64902">
        <ele>284.81107</ele>
        <time>2023-07-04T16:03:57.000Z</time>
      </trkpt>
      <trkpt lat="45.85246" lon="4.64909">
        <ele>285.03513</ele>
        <time>2023-07-04T16:03:58.000Z</time>
      </trkpt>
      <trkpt lat="45.85249" lon="4.64917">
        <ele>285.24515</ele>
        <time>2023-07-04T16:03:59.000Z</time>
      </trkpt>
      <trkpt lat="45.85254" lon="4.64924">
        <ele>285.22208</ele>
        <time>2023-07-04T16:04:00.000Z</time>
      </trkpt>
      <trkpt lat="45.85258" lon="4.64931">
        <ele>285.10782</ele>
        <time>2023-07-04T16:04:01.000Z</time>
      </trkpt>
      <trkpt lat="45.85262" lon="4.64938">
        <ele>285.03915</ele>
        <time>2023-07-04T16:04:02.000Z</time>
      </trkpt>
      <trkpt lat="45.85267" lon="4.64943">
        <ele>285.53418</ele>
        <time>2023-07-04T16:04:03.000Z</time>
      </trkpt>
      <trkpt lat="45.85273" lon="4.64949">
        <ele>286.02386</ele>
        <time>2023-07-04T16:04:04.000Z</time>
      </trkpt>
      <trkpt lat="45.85277" lon="4.64956">
        <ele>286.49371</ele>
        <time>2023-07-04T16:04:05.000Z</time>
      </trkpt>
      <trkpt lat="45.85282" lon="4.64963">
        <ele>286.98453</ele>
        <time>2023-07-04T16:04:06.000Z</time>
      </trkpt>
      <trkpt lat="45.85286" lon="4.64969">
        <ele>287.42731</ele>
        <time>2023-07-04T16:04:07.000Z</time>
      </trkpt>
      <trkpt lat="45.85291" lon="4.64975">
        <ele>288.17719</ele>
        <time>2023-07-04T16:04:08.000Z</time>
      </trkpt>
      <trkpt lat="45.85295" lon="4.64981">
        <ele>289.29111</ele>
        <time>2023-07-04T16:04:09.000Z</time>
      </trkpt>
      <trkpt lat="45.85301" lon="4.64987">
        <ele>289.43439</ele>
        <time>2023-07-04T16:04:10.000Z</time>
      </trkpt>
      <trkpt lat="45.85305" lon="4.64993">
        <ele>289.7381</ele>
        <time>2023-07-04T16:04:11.000Z</time>
      </trkpt>
      <trkpt lat="45.85311" lon="4.64998">
        <ele>290.32892</ele>
        <time>2023-07-04T16:04:12.000Z</time>
      </trkpt>
      <trkpt lat="45.85315" lon="4.65004">
        <ele>290.80157</ele>
        <time>2023-07-04T16:04:13.000Z</time>
      </trkpt>
      <trkpt lat="45.85321" lon="4.65009">
        <ele>290.72052</ele>
        <time>2023-07-04T16:04:14.000Z</time>
      </trkpt>
      <trkpt lat="45.85326" lon="4.65013">
        <ele>290.74741</ele>
        <time>2023-07-04T16:04:15.000Z</time>
      </trkpt>
      <trkpt lat="45.85332" lon="4.65018">
        <ele>290.81873</ele>
        <time>2023-07-04T16:04:16.000Z</time>
      </trkpt>
      <trkpt lat="45.85336" lon="4.65024">
        <ele>290.84827</ele>
        <time>2023-07-04T16:04:17.000Z</time>
      </trkpt>
      <trkpt lat="45.85342" lon="4.65029">
        <ele>290.86371</ele>
        <time>2023-07-04T16:04:18.000Z</time>
      </trkpt>
      <trkpt lat="45.85347" lon="4.65034">
        <ele>290.92303</ele>
        <time>2023-07-04T16:04:19.000Z</time>
      </trkpt>
      <trkpt lat="45.85352" lon="4.6504">
        <ele>290.94547</ele>
        <time>2023-07-04T16:04:20.000Z</time>
      </trkpt>
      <trkpt lat="45.85358" lon="4.65045">
        <ele>290.95877</ele>
        <time>2023-07-04T16:04:21.000Z</time>
      </trkpt>
      <trkpt lat="45.85363" lon="4.6505">
        <ele>290.98102</ele>
        <time>2023-07-04T16:04:22.000Z</time>
      </trkpt>
      <trkpt lat="45.85369" lon="4.65055">
        <ele>290.5546</ele>
        <time>2023-07-04T16:04:23.000Z</time>
      </trkpt>
      <trkpt lat="45.85374" lon="4.65059">
        <ele>290.12323</ele>
        <time>2023-07-04T16:04:24.000Z</time>
      </trkpt>
      <trkpt lat="45.85379" lon="4.65065">
        <ele>289.7276</ele>
        <time>2023-07-04T16:04:25.000Z</time>
      </trkpt>
      <trkpt lat="45.85383" lon="4.65071">
        <ele>289.28339</ele>
        <time>2023-07-04T16:04:26.000Z</time>
      </trkpt>
      <trkpt lat="45.85388" lon="4.65076">
        <ele>288.80063</ele>
        <time>2023-07-04T16:04:27.000Z</time>
      </trkpt>
      <trkpt lat="45.85393" lon="4.65081">
        <ele>287.87988</ele>
        <time>2023-07-04T16:04:28.000Z</time>
      </trkpt>
      <trkpt lat="45.85399" lon="4.65086">
        <ele>286.69235</ele>
        <time>2023-07-04T16:04:29.000Z</time>
      </trkpt>
      <trkpt lat="45.85404" lon="4.65091">
        <ele>286.33734</ele>
        <time>2023-07-04T16:04:30.000Z</time>
      </trkpt>
      <trkpt lat="45.8541" lon="4.65096">
        <ele>286.15176</ele>
        <time>2023-07-04T16:04:31.000Z</time>
      </trkpt>
      <trkpt lat="45.85414" lon="4.65101">
        <ele>285.60727</ele>
        <time>2023-07-04T16:04:32.000Z</time>
      </trkpt>
      <trkpt lat="45.8542" lon="4.65106">
        <ele>285.31821</ele>
        <time>2023-07-04T16:04:33.000Z</time>
      </trkpt>
      <trkpt lat="45.85425" lon="4.65112">
        <ele>285.55914</ele>
        <time>2023-07-04T16:04:34.000Z</time>
      </trkpt>
      <trkpt lat="45.85431" lon="4.65117">
        <ele>285.82358</ele>
        <time>2023-07-04T16:04:35.000Z</time>
      </trkpt>
      <trkpt lat="45.85436" lon="4.65123">
        <ele>285.87622</ele>
        <time>2023-07-04T16:04:36.000Z</time>
      </trkpt>
      <trkpt lat="45.85441" lon="4.65128">
        <ele>285.84637</ele>
        <time>2023-07-04T16:04:37.000Z</time>
      </trkpt>
      <trkpt lat="45.85446" lon="4.65132">
        <ele>285.75577</ele>
        <time>2023-07-04T16:04:38.000Z</time>
      </trkpt>
      <trkpt lat="45.85451" lon="4.65137">
        <ele>285.93799</ele>
        <time>2023-07-04T16:04:39.000Z</time>
      </trkpt>
      <trkpt lat="45.85456" lon="4.65143">
        <ele>286.13675</ele>
        <time>2023-07-04T16:04:40.000Z</time>
      </trkpt>
      <trkpt lat="45.85462" lon="4.65147">
        <ele>286.34122</ele>
        <time>2023-07-04T16:04:41.000Z</time>
      </trkpt>
      <trkpt lat="45.85466" lon="4.65153">
        <ele>286.60181</ele>
        <time>2023-07-04T16:04:42.000Z</time>
      </trkpt>
      <trkpt lat="45.85471" lon="4.65158">
        <ele>286.84027</ele>
        <time>2023-07-04T16:04:43.000Z</time>
      </trkpt>
      <trkpt lat="45.85477" lon="4.65162">
        <ele>287.29828</ele>
        <time>2023-07-04T16:04:44.000Z</time>
      </trkpt>
      <trkpt lat="45.85483" lon="4.65168">
        <ele>287.68121</ele>
        <time>2023-07-04T16:04:45.000Z</time>
      </trkpt>
      <trkpt lat="45.85488" lon="4.65173">
        <ele>287.4516</ele>
        <time>2023-07-04T16:04:46.000Z</time>
      </trkpt>
      <trkpt lat="45.85493" lon="4.65178">
        <ele>287.34488</ele>
        <time>2023-07-04T16:04:47.000Z</time>
      </trkpt>
      <trkpt lat="45.85498" lon="4.65183">
        <ele>287.2825</ele>
        <time>2023-07-04T16:04:48.000Z</time>
      </trkpt>
      <trkpt lat="45.85504" lon="4.65189">
        <ele>287.35889</ele>
        <time>2023-07-04T16:04:49.000Z</time>
      </trkpt>
      <trkpt lat="45.8551" lon="4.65194">
        <ele>287.40729</ele>
        <time>2023-07-04T16:04:50.000Z</time>
      </trkpt>
      <trkpt lat="45.85515" lon="4.652">
        <ele>287.18784</ele>
        <time>2023-07-04T16:04:51.000Z</time>
      </trkpt>
      <trkpt lat="45.85521" lon="4.65204">
        <ele>287.04376</ele>
        <time>2023-07-04T16:04:52.000Z</time>
      </trkpt>
      <trkpt lat="45.85527" lon="4.65208">
        <ele>286.67001</ele>
        <time>2023-07-04T16:04:53.000Z</time>
      </trkpt>
      <trkpt lat="45.85532" lon="4.65213">
        <ele>286.39175</ele>
        <time>2023-07-04T16:04:54.000Z</time>
      </trkpt>
      <trkpt lat="45.85539" lon="4.65217">
        <ele>286.04645</ele>
        <time>2023-07-04T16:04:55.000Z</time>
      </trkpt>
      <trkpt lat="45.85544" lon="4.6522">
        <ele>285.84128</ele>
        <time>2023-07-04T16:04:56.000Z</time>
      </trkpt>
      <trkpt lat="45.8555" lon="4.65224">
        <ele>285.75397</ele>
        <time>2023-07-04T16:04:57.000Z</time>
      </trkpt>
      <trkpt lat="45.85557" lon="4.65227">
        <ele>285.68661</ele>
        <time>2023-07-04T16:04:58.000Z</time>
      </trkpt>
      <trkpt lat="45.85563" lon="4.6523">
        <ele>285.31897</ele>
        <time>2023-07-04T16:04:59.000Z</time>
      </trkpt>
      <trkpt lat="45.8557" lon="4.65232">
        <ele>284.97339</ele>
        <time>2023-07-04T16:05:00.000Z</time>
      </trkpt>
      <trkpt lat="45.85576" lon="4.65235">
        <ele>284.59418</ele>
        <time>2023-07-04T16:05:01.000Z</time>
      </trkpt>
      <trkpt lat="45.85582" lon="4.65238">
        <ele>284.11176</ele>
        <time>2023-07-04T16:05:02.000Z</time>
      </trkpt>
      <trkpt lat="45.85588" lon="4.65241">
        <ele>283.62964</ele>
        <time>2023-07-04T16:05:03.000Z</time>
      </trkpt>
      <trkpt lat="45.85593" lon="4.65244">
        <ele>282.93106</ele>
        <time>2023-07-04T16:05:04.000Z</time>
      </trkpt>
      <trkpt lat="45.85599" lon="4.65247">
        <ele>282.29965</ele>
        <time>2023-07-04T16:05:05.000Z</time>
      </trkpt>
      <trkpt lat="45.85606" lon="4.6525">
        <ele>282.28687</ele>
        <time>2023-07-04T16:05:06.000Z</time>
      </trkpt>
      <trkpt lat="45.85612" lon="4.65254">
        <ele>282.17563</ele>
        <time>2023-07-04T16:05:07.000Z</time>
      </trkpt>
      <trkpt lat="45.85618" lon="4.65257">
        <ele>282.0433</ele>
        <time>2023-07-04T16:05:08.000Z</time>
      </trkpt>
      <trkpt lat="45.85624" lon="4.65261">
        <ele>281.77853</ele>
        <time>2023-07-04T16:05:09.000Z</time>
      </trkpt>
      <trkpt lat="45.8563" lon="4.65264">
        <ele>281.55139</ele>
        <time>2023-07-04T16:05:10.000Z</time>
      </trkpt>
      <trkpt lat="45.85635" lon="4.65268">
        <ele>281.38013</ele>
        <time>2023-07-04T16:05:11.000Z</time>
      </trkpt>
      <trkpt lat="45.85641" lon="4.65272">
        <ele>281.18768</ele>
        <time>2023-07-04T16:05:12.000Z</time>
      </trkpt>
      <trkpt lat="45.85647" lon="4.65276">
        <ele>281.02518</ele>
        <time>2023-07-04T16:05:13.000Z</time>
      </trkpt>
      <trkpt lat="45.85652" lon="4.6528">
        <ele>280.85284</ele>
        <time>2023-07-04T16:05:14.000Z</time>
      </trkpt>
      <trkpt lat="45.85658" lon="4.65284">
        <ele>280.69363</ele>
        <time>2023-07-04T16:05:15.000Z</time>
      </trkpt>
      <trkpt lat="45.85663" lon="4.6529">
        <ele>280.54205</ele>
        <time>2023-07-04T16:05:16.000Z</time>
      </trkpt>
      <trkpt lat="45.85668" lon="4.65295">
        <ele>280.36945</ele>
        <time>2023-07-04T16:05:17.000Z</time>
      </trkpt>
      <trkpt lat="45.85674" lon="4.653">
        <ele>280.35538</ele>
        <time>2023-07-04T16:05:18.000Z</time>
      </trkpt>
      <trkpt lat="45.85678" lon="4.65305">
        <ele>280.39801</ele>
        <time>2023-07-04T16:05:19.000Z</time>
      </trkpt>
      <trkpt lat="45.85684" lon="4.6531">
        <ele>280.47861</ele>
        <time>2023-07-04T16:05:20.000Z</time>
      </trkpt>
      <trkpt lat="45.85688" lon="4.65317">
        <ele>280.64569</ele>
        <time>2023-07-04T16:05:21.000Z</time>
      </trkpt>
      <trkpt lat="45.85693" lon="4.65322">
        <ele>280.89474</ele>
        <time>2023-07-04T16:05:22.000Z</time>
      </trkpt>
      <trkpt lat="45.85698" lon="4.65329">
        <ele>281.17493</ele>
        <time>2023-07-04T16:05:23.000Z</time>
      </trkpt>
      <trkpt lat="45.85703" lon="4.65336">
        <ele>281.37955</ele>
        <time>2023-07-04T16:05:24.000Z</time>
      </trkpt>
      <trkpt lat="45.85707" lon="4.65342">
        <ele>281.55081</ele>
        <time>2023-07-04T16:05:25.000Z</time>
      </trkpt>
      <trkpt lat="45.85711" lon="4.65348">
        <ele>281.69342</ele>
        <time>2023-07-04T16:05:26.000Z</time>
      </trkpt>
      <trkpt lat="45.85715" lon="4.65356">
        <ele>281.76385</ele>
        <time>2023-07-04T16:05:27.000Z</time>
      </trkpt>
      <trkpt lat="45.85719" lon="4.65364">
        <ele>281.83859</ele>
        <time>2023-07-04T16:05:28.000Z</time>
      </trkpt>
      <trkpt lat="45.85723" lon="4.65372">
        <ele>281.88794</ele>
        <time>2023-07-04T16:05:29.000Z</time>
      </trkpt>
      <trkpt lat="45.85726" lon="4.65381">
        <ele>281.96078</ele>
        <time>2023-07-04T16:05:30.000Z</time>
      </trkpt>
      <trkpt lat="45.85729" lon="4.65389">
        <ele>282.02747</ele>
        <time>2023-07-04T16:05:31.000Z</time>
      </trkpt>
      <trkpt lat="45.85733" lon="4.65397">
        <ele>282.1077</ele>
        <time>2023-07-04T16:05:32.000Z</time>
      </trkpt>
      <trkpt lat="45.85736" lon="4.65406">
        <ele>282.19083</ele>
        <time>2023-07-04T16:05:33.000Z</time>
      </trkpt>
      <trkpt lat="45.85739" lon="4.65415">
        <ele>282.26846</ele>
        <time>2023-07-04T16:05:34.000Z</time>
      </trkpt>
      <trkpt lat="45.85742" lon="4.65423">
        <ele>282.33334</ele>
        <time>2023-07-04T16:05:35.000Z</time>
      </trkpt>
      <trkpt lat="45.85744" lon="4.65432">
        <ele>282.41547</ele>
        <time>2023-07-04T16:05:36.000Z</time>
      </trkpt>
      <trkpt lat="45.85747" lon="4.65439">
        <ele>282.61414</ele>
        <time>2023-07-04T16:05:37.000Z</time>
      </trkpt>
      <trkpt lat="45.85749" lon="4.65449">
        <ele>282.71335</ele>
        <time>2023-07-04T16:05:38.000Z</time>
      </trkpt>
      <trkpt lat="45.85752" lon="4.65457">
        <ele>282.8197</ele>
        <time>2023-07-04T16:05:39.000Z</time>
      </trkpt>
      <trkpt lat="45.85754" lon="4.65466">
        <ele>282.79755</ele>
        <time>2023-07-04T16:05:40.000Z</time>
      </trkpt>
      <trkpt lat="45.85757" lon="4.65474">
        <ele>282.63403</ele>
        <time>2023-07-04T16:05:41.000Z</time>
      </trkpt>
      <trkpt lat="45.8576" lon="4.65483">
        <ele>282.42242</ele>
        <time>2023-07-04T16:05:42.000Z</time>
      </trkpt>
      <trkpt lat="45.85763" lon="4.65491">
        <ele>282.17242</ele>
        <time>2023-07-04T16:05:43.000Z</time>
      </trkpt>
      <trkpt lat="45.85765" lon="4.655">
        <ele>281.97235</ele>
        <time>2023-07-04T16:05:44.000Z</time>
      </trkpt>
      <trkpt lat="45.85768" lon="4.65508">
        <ele>281.7493</ele>
        <time>2023-07-04T16:05:45.000Z</time>
      </trkpt>
      <trkpt lat="45.85772" lon="4.65515">
        <ele>281.65726</ele>
        <time>2023-07-04T16:05:46.000Z</time>
      </trkpt>
      <trkpt lat="45.85775" lon="4.65523">
        <ele>281.67419</ele>
        <time>2023-07-04T16:05:47.000Z</time>
      </trkpt>
      <trkpt lat="45.85779" lon="4.65531">
        <ele>281.63916</ele>
        <time>2023-07-04T16:05:48.000Z</time>
      </trkpt>
      <trkpt lat="45.85782" lon="4.65539">
        <ele>281.66748</ele>
        <time>2023-07-04T16:05:49.000Z</time>
      </trkpt>
      <trkpt lat="45.85786" lon="4.65546">
        <ele>281.59506</ele>
        <time>2023-07-04T16:05:50.000Z</time>
      </trkpt>
      <trkpt lat="45.8579" lon="4.65554">
        <ele>281.65616</ele>
        <time>2023-07-04T16:05:51.000Z</time>
      </trkpt>
      <trkpt lat="45.85794" lon="4.65561">
        <ele>281.62564</ele>
        <time>2023-07-04T16:05:52.000Z</time>
      </trkpt>
      <trkpt lat="45.85798" lon="4.65569">
        <ele>281.57462</ele>
        <time>2023-07-04T16:05:53.000Z</time>
      </trkpt>
      <trkpt lat="45.85802" lon="4.65576">
        <ele>281.54385</ele>
        <time>2023-07-04T16:05:54.000Z</time>
      </trkpt>
      <trkpt lat="45.85807" lon="4.65583">
        <ele>281.5274</ele>
        <time>2023-07-04T16:05:55.000Z</time>
      </trkpt>
      <trkpt lat="45.85811" lon="4.6559">
        <ele>281.5152</ele>
        <time>2023-07-04T16:05:56.000Z</time>
      </trkpt>
      <trkpt lat="45.85815" lon="4.65597">
        <ele>281.39975</ele>
        <time>2023-07-04T16:05:57.000Z</time>
      </trkpt>
      <trkpt lat="45.85819" lon="4.65604">
        <ele>281.24915</ele>
        <time>2023-07-04T16:05:58.000Z</time>
      </trkpt>
      <trkpt lat="45.85823" lon="4.65611">
        <ele>281.0397</ele>
        <time>2023-07-04T16:05:59.000Z</time>
      </trkpt>
      <trkpt lat="45.85826" lon="4.65617">
        <ele>280.91772</ele>
        <time>2023-07-04T16:06:00.000Z</time>
      </trkpt>
      <trkpt lat="45.8583" lon="4.65625">
        <ele>280.70532</ele>
        <time>2023-07-04T16:06:01.000Z</time>
      </trkpt>
      <trkpt lat="45.85834" lon="4.65632">
        <ele>280.49734</ele>
        <time>2023-07-04T16:06:02.000Z</time>
      </trkpt>
      <trkpt lat="45.85838" lon="4.6564">
        <ele>280.29367</ele>
        <time>2023-07-04T16:06:03.000Z</time>
      </trkpt>
      <trkpt lat="45.85842" lon="4.65647">
        <ele>280.11441</ele>
        <time>2023-07-04T16:06:04.000Z</time>
      </trkpt>
      <trkpt lat="45.85845" lon="4.65655">
        <ele>279.94534</ele>
        <time>2023-07-04T16:06:05.000Z</time>
      </trkpt>
      <trkpt lat="45.85849" lon="4.65663">
        <ele>279.68121</ele>
        <time>2023-07-04T16:06:06.000Z</time>
      </trkpt>
      <trkpt lat="45.85853" lon="4.65669">
        <ele>279.40543</ele>
        <time>2023-07-04T16:06:07.000Z</time>
      </trkpt>
      <trkpt lat="45.85856" lon="4.65677">
        <ele>279.14532</ele>
        <time>2023-07-04T16:06:08.000Z</time>
      </trkpt>
      <trkpt lat="45.85859" lon="4.65685">
        <ele>278.81024</ele>
        <time>2023-07-04T16:06:09.000Z</time>
      </trkpt>
      <trkpt lat="45.85862" lon="4.65694">
        <ele>278.53436</ele>
        <time>2023-07-04T16:06:10.000Z</time>
      </trkpt>
      <trkpt lat="45.85864" lon="4.65702">
        <ele>278.12314</ele>
        <time>2023-07-04T16:06:11.000Z</time>
      </trkpt>
      <trkpt lat="45.85868" lon="4.65711">
        <ele>277.75604</ele>
        <time>2023-07-04T16:06:12.000Z</time>
      </trkpt>
      <trkpt lat="45.8587" lon="4.6572">
        <ele>277.40131</ele>
        <time>2023-07-04T16:06:13.000Z</time>
      </trkpt>
      <trkpt lat="45.85871" lon="4.65729">
        <ele>277.04749</ele>
        <time>2023-07-04T16:06:14.000Z</time>
      </trkpt>
      <trkpt lat="45.85873" lon="4.65737">
        <ele>276.70853</ele>
        <time>2023-07-04T16:06:15.000Z</time>
      </trkpt>
      <trkpt lat="45.85874" lon="4.65746">
        <ele>276.36996</ele>
        <time>2023-07-04T16:06:16.000Z</time>
      </trkpt>
      <trkpt lat="45.85875" lon="4.65755">
        <ele>276.04773</ele>
        <time>2023-07-04T16:06:17.000Z</time>
      </trkpt>
      <trkpt lat="45.85875" lon="4.65765">
        <ele>275.73642</ele>
        <time>2023-07-04T16:06:18.000Z</time>
      </trkpt>
      <trkpt lat="45.85875" lon="4.65774">
        <ele>275.4577</ele>
        <time>2023-07-04T16:06:19.000Z</time>
      </trkpt>
      <trkpt lat="45.85875" lon="4.65783">
        <ele>275.37424</ele>
        <time>2023-07-04T16:06:20.000Z</time>
      </trkpt>
      <trkpt lat="45.85875" lon="4.65791">
        <ele>275.4664</ele>
        <time>2023-07-04T16:06:21.000Z</time>
      </trkpt>
      <trkpt lat="45.85874" lon="4.65801">
        <ele>275.56543</ele>
        <time>2023-07-04T16:06:22.000Z</time>
      </trkpt>
      <trkpt lat="45.85873" lon="4.65811">
        <ele>275.6915</ele>
        <time>2023-07-04T16:06:23.000Z</time>
      </trkpt>
      <trkpt lat="45.85871" lon="4.6582">
        <ele>275.8222</ele>
        <time>2023-07-04T16:06:24.000Z</time>
      </trkpt>
      <trkpt lat="45.85869" lon="4.65828">
        <ele>275.99283</ele>
        <time>2023-07-04T16:06:25.000Z</time>
      </trkpt>
      <trkpt lat="45.85866" lon="4.65836">
        <ele>276.20465</ele>
        <time>2023-07-04T16:06:26.000Z</time>
      </trkpt>
      <trkpt lat="45.85862" lon="4.65844">
        <ele>276.40869</ele>
        <time>2023-07-04T16:06:27.000Z</time>
      </trkpt>
      <trkpt lat="45.85859" lon="4.65851">
        <ele>276.65503</ele>
        <time>2023-07-04T16:06:28.000Z</time>
      </trkpt>
      <trkpt lat="45.85856" lon="4.65858">
        <ele>276.92972</ele>
        <time>2023-07-04T16:06:29.000Z</time>
      </trkpt>
      <trkpt lat="45.85852" lon="4.65865">
        <ele>277.21439</ele>
        <time>2023-07-04T16:06:30.000Z</time>
      </trkpt>
      <trkpt lat="45.85847" lon="4.65872">
        <ele>277.49503</ele>
        <time>2023-07-04T16:06:31.000Z</time>
      </trkpt>
      <trkpt lat="45.85843" lon="4.65879">
        <ele>277.84531</ele>
        <time>2023-07-04T16:06:32.000Z</time>
      </trkpt>
      <trkpt lat="45.85838" lon="4.65885">
        <ele>278.51587</ele>
        <time>2023-07-04T16:06:33.000Z</time>
      </trkpt>
      <trkpt lat="45.85833" lon="4.65891">
        <ele>279.37698</ele>
        <time>2023-07-04T16:06:34.000Z</time>
      </trkpt>
      <trkpt lat="45.85827" lon="4.65897">
        <ele>279.55914</ele>
        <time>2023-07-04T16:06:35.000Z</time>
      </trkpt>
      <trkpt lat="45.85822" lon="4.65902">
        <ele>279.86624</ele>
        <time>2023-07-04T16:06:36.000Z</time>
      </trkpt>
      <trkpt lat="45.85818" lon="4.65906">
        <ele>280.20343</ele>
        <time>2023-07-04T16:06:37.000Z</time>
      </trkpt>
      <trkpt lat="45.85813" lon="4.65912">
        <ele>280.46719</ele>
        <time>2023-07-04T16:06:38.000Z</time>
      </trkpt>
      <trkpt lat="45.85808" lon="4.65916">
        <ele>280.86325</ele>
        <time>2023-07-04T16:06:39.000Z</time>
      </trkpt>
      <trkpt lat="45.85804" lon="4.6592">
        <ele>281.09036</ele>
        <time>2023-07-04T16:06:40.000Z</time>
      </trkpt>
      <trkpt lat="45.85798" lon="4.65926">
        <ele>281.35059</ele>
        <time>2023-07-04T16:06:41.000Z</time>
      </trkpt>
      <trkpt lat="45.85793" lon="4.65931">
        <ele>281.69992</ele>
        <time>2023-07-04T16:06:42.000Z</time>
      </trkpt>
      <trkpt lat="45.85789" lon="4.65936">
        <ele>282.14651</ele>
        <time>2023-07-04T16:06:43.000Z</time>
      </trkpt>
      <trkpt lat="45.85784" lon="4.65941">
        <ele>283.03198</ele>
        <time>2023-07-04T16:06:44.000Z</time>
      </trkpt>
      <trkpt lat="45.85778" lon="4.65946">
        <ele>284.0574</ele>
        <time>2023-07-04T16:06:45.000Z</time>
      </trkpt>
      <trkpt lat="45.85772" lon="4.65952">
        <ele>285.11377</ele>
        <time>2023-07-04T16:06:46.000Z</time>
      </trkpt>
      <trkpt lat="45.85768" lon="4.65956">
        <ele>286.18781</ele>
        <time>2023-07-04T16:06:47.000Z</time>
      </trkpt>
      <trkpt lat="45.85762" lon="4.65962">
        <ele>287.25873</ele>
        <time>2023-07-04T16:06:48.000Z</time>
      </trkpt>
      <trkpt lat="45.85757" lon="4.65969">
        <ele>288.19589</ele>
        <time>2023-07-04T16:06:49.000Z</time>
      </trkpt>
      <trkpt lat="45.85753" lon="4.65976">
        <ele>289.45187</ele>
        <time>2023-07-04T16:06:50.000Z</time>
      </trkpt>
      <trkpt lat="45.85748" lon="4.65983">
        <ele>290.71451</ele>
        <time>2023-07-04T16:06:51.000Z</time>
      </trkpt>
      <trkpt lat="45.85746" lon="4.6599">
        <ele>291.02972</ele>
        <time>2023-07-04T16:06:52.000Z</time>
      </trkpt>
      <trkpt lat="45.85742" lon="4.65996">
        <ele>291.17612</ele>
        <time>2023-07-04T16:06:53.000Z</time>
      </trkpt>
      <trkpt lat="45.85739" lon="4.66004">
        <ele>291.01791</ele>
        <time>2023-07-04T16:06:54.000Z</time>
      </trkpt>
      <trkpt lat="45.85737" lon="4.66011">
        <ele>291.59811</ele>
        <time>2023-07-04T16:06:55.000Z</time>
      </trkpt>
      <trkpt lat="45.85734" lon="4.66019">
        <ele>292.07581</ele>
        <time>2023-07-04T16:06:56.000Z</time>
      </trkpt>
      <trkpt lat="45.85732" lon="4.66028">
        <ele>292.60254</ele>
        <time>2023-07-04T16:06:57.000Z</time>
      </trkpt>
      <trkpt lat="45.8573" lon="4.66036">
        <ele>293.08527</ele>
        <time>2023-07-04T16:06:58.000Z</time>
      </trkpt>
      <trkpt lat="45.85729" lon="4.66046">
        <ele>293.24078</ele>
        <time>2023-07-04T16:06:59.000Z</time>
      </trkpt>
      <trkpt lat="45.85727" lon="4.66055">
        <ele>293.30261</ele>
        <time>2023-07-04T16:07:00.000Z</time>
      </trkpt>
      <trkpt lat="45.85725" lon="4.66064">
        <ele>293.23254</ele>
        <time>2023-07-04T16:07:01.000Z</time>
      </trkpt>
      <trkpt lat="45.85723" lon="4.66073">
        <ele>293.04495</ele>
        <time>2023-07-04T16:07:02.000Z</time>
      </trkpt>
      <trkpt lat="45.85721" lon="4.66081">
        <ele>292.89484</ele>
        <time>2023-07-04T16:07:03.000Z</time>
      </trkpt>
      <trkpt lat="45.8572" lon="4.66091">
        <ele>292.54498</ele>
        <time>2023-07-04T16:07:04.000Z</time>
      </trkpt>
      <trkpt lat="45.85718" lon="4.661">
        <ele>292.05273</ele>
        <time>2023-07-04T16:07:05.000Z</time>
      </trkpt>
      <trkpt lat="45.85717" lon="4.66108">
        <ele>291.43268</ele>
        <time>2023-07-04T16:07:06.000Z</time>
      </trkpt>
      <trkpt lat="45.85716" lon="4.66116">
        <ele>290.75903</ele>
        <time>2023-07-04T16:07:07.000Z</time>
      </trkpt>
      <trkpt lat="45.85715" lon="4.66124">
        <ele>289.96246</ele>
        <time>2023-07-04T16:07:08.000Z</time>
      </trkpt>
      <trkpt lat="45.85713" lon="4.66131">
        <ele>289.38901</ele>
        <time>2023-07-04T16:07:09.000Z</time>
      </trkpt>
      <trkpt lat="45.85712" lon="4.66139">
        <ele>288.57056</ele>
        <time>2023-07-04T16:07:10.000Z</time>
      </trkpt>
      <trkpt lat="45.8571" lon="4.66147">
        <ele>287.69199</ele>
        <time>2023-07-04T16:07:11.000Z</time>
      </trkpt>
      <trkpt lat="45.85708" lon="4.66156">
        <ele>287.68134</ele>
        <time>2023-07-04T16:07:12.000Z</time>
      </trkpt>
      <trkpt lat="45.85708" lon="4.66165">
        <ele>287.52243</ele>
        <time>2023-07-04T16:07:13.000Z</time>
      </trkpt>
      <trkpt lat="45.85706" lon="4.66173">
        <ele>287.41571</ele>
        <time>2023-07-04T16:07:14.000Z</time>
      </trkpt>
      <trkpt lat="45.85706" lon="4.66182">
        <ele>287.09601</ele>
        <time>2023-07-04T16:07:15.000Z</time>
      </trkpt>
      <trkpt lat="45.85705" lon="4.6619">
        <ele>286.71548</ele>
        <time>2023-07-04T16:07:16.000Z</time>
      </trkpt>
      <trkpt lat="45.85703" lon="4.66198">
        <ele>286.23163</ele>
        <time>2023-07-04T16:07:17.000Z</time>
      </trkpt>
      <trkpt lat="45.85703" lon="4.66206">
        <ele>285.91956</ele>
        <time>2023-07-04T16:07:18.000Z</time>
      </trkpt>
      <trkpt lat="45.857" lon="4.66213">
        <ele>285.86389</ele>
        <time>2023-07-04T16:07:19.000Z</time>
      </trkpt>
      <trkpt lat="45.85699" lon="4.66222">
        <ele>285.85577</ele>
        <time>2023-07-04T16:07:20.000Z</time>
      </trkpt>
      <trkpt lat="45.85697" lon="4.6623">
        <ele>286.14395</ele>
        <time>2023-07-04T16:07:21.000Z</time>
      </trkpt>
      <trkpt lat="45.85695" lon="4.66238">
        <ele>286.35907</ele>
        <time>2023-07-04T16:07:22.000Z</time>
      </trkpt>
      <trkpt lat="45.85693" lon="4.66245">
        <ele>286.39499</ele>
        <time>2023-07-04T16:07:23.000Z</time>
      </trkpt>
      <trkpt lat="45.85691" lon="4.66253">
        <ele>286.42523</ele>
        <time>2023-07-04T16:07:24.000Z</time>
      </trkpt>
      <trkpt lat="45.85689" lon="4.66261">
        <ele>286.43451</ele>
        <time>2023-07-04T16:07:25.000Z</time>
      </trkpt>
      <trkpt lat="45.85686" lon="4.66269">
        <ele>286.44626</ele>
        <time>2023-07-04T16:07:26.000Z</time>
      </trkpt>
      <trkpt lat="45.85684" lon="4.66276">
        <ele>286.46658</ele>
        <time>2023-07-04T16:07:27.000Z</time>
      </trkpt>
      <trkpt lat="45.85682" lon="4.66284">
        <ele>286.56003</ele>
        <time>2023-07-04T16:07:28.000Z</time>
      </trkpt>
      <trkpt lat="45.85679" lon="4.66292">
        <ele>286.46707</ele>
        <time>2023-07-04T16:07:29.000Z</time>
      </trkpt>
      <trkpt lat="45.85677" lon="4.66299">
        <ele>286.26166</ele>
        <time>2023-07-04T16:07:30.000Z</time>
      </trkpt>
      <trkpt lat="45.85675" lon="4.66306">
        <ele>286.12061</ele>
        <time>2023-07-04T16:07:31.000Z</time>
      </trkpt>
      <trkpt lat="45.85672" lon="4.66313">
        <ele>286.14655</ele>
        <time>2023-07-04T16:07:32.000Z</time>
      </trkpt>
      <trkpt lat="45.8567" lon="4.66321">
        <ele>286.27014</ele>
        <time>2023-07-04T16:07:33.000Z</time>
      </trkpt>
      <trkpt lat="45.85668" lon="4.66328">
        <ele>286.43726</ele>
        <time>2023-07-04T16:07:34.000Z</time>
      </trkpt>
      <trkpt lat="45.85666" lon="4.66336">
        <ele>286.79242</ele>
        <time>2023-07-04T16:07:35.000Z</time>
      </trkpt>
      <trkpt lat="45.85663" lon="4.66344">
        <ele>287.17804</ele>
        <time>2023-07-04T16:07:36.000Z</time>
      </trkpt>
      <trkpt lat="45.8566" lon="4.66351">
        <ele>287.61252</ele>
        <time>2023-07-04T16:07:37.000Z</time>
      </trkpt>
      <trkpt lat="45.85657" lon="4.66359">
        <ele>288.01425</ele>
        <time>2023-07-04T16:07:38.000Z</time>
      </trkpt>
      <trkpt lat="45.85654" lon="4.66365">
        <ele>288.47284</ele>
        <time>2023-07-04T16:07:39.000Z</time>
      </trkpt>
      <trkpt lat="45.85652" lon="4.66373">
        <ele>288.94885</ele>
        <time>2023-07-04T16:07:40.000Z</time>
      </trkpt>
      <trkpt lat="45.85649" lon="4.66379">
        <ele>289.43155</ele>
        <time>2023-07-04T16:07:41.000Z</time>
      </trkpt>
      <trkpt lat="45.85647" lon="4.66387">
        <ele>289.92395</ele>
        <time>2023-07-04T16:07:42.000Z</time>
      </trkpt>
      <trkpt lat="45.85645" lon="4.66394">
        <ele>290.27158</ele>
        <time>2023-07-04T16:07:43.000Z</time>
      </trkpt>
      <trkpt lat="45.85643" lon="4.66402">
        <ele>290.36139</ele>
        <time>2023-07-04T16:07:44.000Z</time>
      </trkpt>
      <trkpt lat="45.85642" lon="4.66408">
        <ele>290.60599</ele>
        <time>2023-07-04T16:07:45.000Z</time>
      </trkpt>
      <trkpt lat="45.85639" lon="4.66418">
        <ele>290.87903</ele>
        <time>2023-07-04T16:07:46.000Z</time>
      </trkpt>
      <trkpt lat="45.85638" lon="4.66425">
        <ele>291.31992</ele>
        <time>2023-07-04T16:07:47.000Z</time>
      </trkpt>
      <trkpt lat="45.85638" lon="4.66434">
        <ele>291.82935</ele>
        <time>2023-07-04T16:07:48.000Z</time>
      </trkpt>
      <trkpt lat="45.85637" lon="4.66443">
        <ele>292.28857</ele>
        <time>2023-07-04T16:07:49.000Z</time>
      </trkpt>
      <trkpt lat="45.85635" lon="4.66452">
        <ele>292.7879</ele>
        <time>2023-07-04T16:07:50.000Z</time>
      </trkpt>
      <trkpt lat="45.85634" lon="4.66461">
        <ele>293.16617</ele>
        <time>2023-07-04T16:07:51.000Z</time>
      </trkpt>
      <trkpt lat="45.85633" lon="4.66468">
        <ele>293.48492</ele>
        <time>2023-07-04T16:07:52.000Z</time>
      </trkpt>
      <trkpt lat="45.85631" lon="4.66478">
        <ele>293.69995</ele>
        <time>2023-07-04T16:07:53.000Z</time>
      </trkpt>
      <trkpt lat="45.8563" lon="4.66488">
        <ele>293.95126</ele>
        <time>2023-07-04T16:07:54.000Z</time>
      </trkpt>
      <trkpt lat="45.85629" lon="4.66498">
        <ele>294.25375</ele>
        <time>2023-07-04T16:07:55.000Z</time>
      </trkpt>
      <trkpt lat="45.85628" lon="4.66507">
        <ele>294.54242</ele>
        <time>2023-07-04T16:07:56.000Z</time>
      </trkpt>
      <trkpt lat="45.85627" lon="4.66516">
        <ele>294.59268</ele>
        <time>2023-07-04T16:07:57.000Z</time>
      </trkpt>
      <trkpt lat="45.85627" lon="4.66524">
        <ele>294.59366</ele>
        <time>2023-07-04T16:07:58.000Z</time>
      </trkpt>
      <trkpt lat="45.85627" lon="4.66532">
        <ele>294.65082</ele>
        <time>2023-07-04T16:07:59.000Z</time>
      </trkpt>
      <trkpt lat="45.85626" lon="4.66541">
        <ele>294.50653</ele>
        <time>2023-07-04T16:08:00.000Z</time>
      </trkpt>
      <trkpt lat="45.85625" lon="4.6655">
        <ele>294.07077</ele>
        <time>2023-07-04T16:08:01.000Z</time>
      </trkpt>
      <trkpt lat="45.85624" lon="4.6656">
        <ele>293.70761</ele>
        <time>2023-07-04T16:08:02.000Z</time>
      </trkpt>
      <trkpt lat="45.85623" lon="4.66569">
        <ele>293.45953</ele>
        <time>2023-07-04T16:08:03.000Z</time>
      </trkpt>
      <trkpt lat="45.85622" lon="4.66577">
        <ele>293.29214</ele>
        <time>2023-07-04T16:08:04.000Z</time>
      </trkpt>
      <trkpt lat="45.85621" lon="4.66587">
        <ele>293.14093</ele>
        <time>2023-07-04T16:08:05.000Z</time>
      </trkpt>
      <trkpt lat="45.85622" lon="4.66595">
        <ele>293.13608</ele>
        <time>2023-07-04T16:08:06.000Z</time>
      </trkpt>
      <trkpt lat="45.85621" lon="4.66603">
        <ele>293.26791</ele>
        <time>2023-07-04T16:08:07.000Z</time>
      </trkpt>
      <trkpt lat="45.8562" lon="4.66612">
        <ele>293.39331</ele>
        <time>2023-07-04T16:08:08.000Z</time>
      </trkpt>
      <trkpt lat="45.85619" lon="4.66622">
        <ele>293.83954</ele>
        <time>2023-07-04T16:08:09.000Z</time>
      </trkpt>
      <trkpt lat="45.85618" lon="4.66631">
        <ele>294.21948</ele>
        <time>2023-07-04T16:08:10.000Z</time>
      </trkpt>
      <trkpt lat="45.85618" lon="4.6664">
        <ele>294.81415</ele>
        <time>2023-07-04T16:08:11.000Z</time>
      </trkpt>
      <trkpt lat="45.85618" lon="4.66649">
        <ele>295.28888</ele>
        <time>2023-07-04T16:08:12.000Z</time>
      </trkpt>
      <trkpt lat="45.85617" lon="4.66658">
        <ele>295.70358</ele>
        <time>2023-07-04T16:08:13.000Z</time>
      </trkpt>
      <trkpt lat="45.85616" lon="4.66665">
        <ele>295.91986</ele>
        <time>2023-07-04T16:08:14.000Z</time>
      </trkpt>
      <trkpt lat="45.85616" lon="4.66674">
        <ele>295.24496</ele>
        <time>2023-07-04T16:08:15.000Z</time>
      </trkpt>
      <trkpt lat="45.85616" lon="4.66681">
        <ele>294.68982</ele>
        <time>2023-07-04T16:08:16.000Z</time>
      </trkpt>
      <trkpt lat="45.85616" lon="4.66689">
        <ele>294.29657</ele>
        <time>2023-07-04T16:08:17.000Z</time>
      </trkpt>
      <trkpt lat="45.85616" lon="4.66698">
        <ele>293.84979</ele>
        <time>2023-07-04T16:08:18.000Z</time>
      </trkpt>
      <trkpt lat="45.85617" lon="4.66707">
        <ele>293.2081</ele>
        <time>2023-07-04T16:08:19.000Z</time>
      </trkpt>
      <trkpt lat="45.85617" lon="4.66715">
        <ele>292.75885</ele>
        <time>2023-07-04T16:08:20.000Z</time>
      </trkpt>
      <trkpt lat="45.85618" lon="4.66723">
        <ele>292.40134</ele>
        <time>2023-07-04T16:08:21.000Z</time>
      </trkpt>
      <trkpt lat="45.85619" lon="4.66731">
        <ele>292.04202</ele>
        <time>2023-07-04T16:08:22.000Z</time>
      </trkpt>
      <trkpt lat="45.85619" lon="4.66738">
        <ele>291.74567</ele>
        <time>2023-07-04T16:08:23.000Z</time>
      </trkpt>
      <trkpt lat="45.8562" lon="4.66746">
        <ele>291.37836</ele>
        <time>2023-07-04T16:08:24.000Z</time>
      </trkpt>
      <trkpt lat="45.85621" lon="4.66753">
        <ele>290.86841</ele>
        <time>2023-07-04T16:08:25.000Z</time>
      </trkpt>
      <trkpt lat="45.85622" lon="4.66761">
        <ele>290.29532</ele>
        <time>2023-07-04T16:08:26.000Z</time>
      </trkpt>
      <trkpt lat="45.85623" lon="4.66769">
        <ele>289.45264</ele>
        <time>2023-07-04T16:08:27.000Z</time>
      </trkpt>
      <trkpt lat="45.85624" lon="4.66776">
        <ele>288.57471</ele>
        <time>2023-07-04T16:08:28.000Z</time>
      </trkpt>
      <trkpt lat="45.85625" lon="4.66783">
        <ele>287.47641</ele>
        <time>2023-07-04T16:08:29.000Z</time>
      </trkpt>
      <trkpt lat="45.85627" lon="4.6679">
        <ele>286.42657</ele>
        <time>2023-07-04T16:08:30.000Z</time>
      </trkpt>
      <trkpt lat="45.85629" lon="4.66798">
        <ele>285.27679</ele>
        <time>2023-07-04T16:08:31.000Z</time>
      </trkpt>
      <trkpt lat="45.85631" lon="4.66806">
        <ele>284.20023</ele>
        <time>2023-07-04T16:08:32.000Z</time>
      </trkpt>
      <trkpt lat="45.85633" lon="4.66814">
        <ele>283.19891</ele>
        <time>2023-07-04T16:08:33.000Z</time>
      </trkpt>
      <trkpt lat="45.85635" lon="4.66821">
        <ele>282.34369</ele>
        <time>2023-07-04T16:08:34.000Z</time>
      </trkpt>
      <trkpt lat="45.85639" lon="4.66828">
        <ele>282.2724</ele>
        <time>2023-07-04T16:08:35.000Z</time>
      </trkpt>
      <trkpt lat="45.85643" lon="4.66834">
        <ele>282.09271</ele>
        <time>2023-07-04T16:08:36.000Z</time>
      </trkpt>
      <trkpt lat="45.85647" lon="4.66839">
        <ele>281.95404</ele>
        <time>2023-07-04T16:08:37.000Z</time>
      </trkpt>
      <trkpt lat="45.85651" lon="4.66845">
        <ele>281.88779</ele>
        <time>2023-07-04T16:08:38.000Z</time>
      </trkpt>
      <trkpt lat="45.85655" lon="4.6685">
        <ele>281.82172</ele>
        <time>2023-07-04T16:08:39.000Z</time>
      </trkpt>
      <trkpt lat="45.8566" lon="4.66855">
        <ele>281.74844</ele>
        <time>2023-07-04T16:08:40.000Z</time>
      </trkpt>
      <trkpt lat="45.85665" lon="4.6686">
        <ele>281.68646</ele>
        <time>2023-07-04T16:08:41.000Z</time>
      </trkpt>
      <trkpt lat="45.8567" lon="4.66865">
        <ele>281.63834</ele>
        <time>2023-07-04T16:08:42.000Z</time>
      </trkpt>
      <trkpt lat="45.85675" lon="4.66869">
        <ele>281.54541</ele>
        <time>2023-07-04T16:08:43.000Z</time>
      </trkpt>
      <trkpt lat="45.8568" lon="4.66874">
        <ele>281.46622</ele>
        <time>2023-07-04T16:08:44.000Z</time>
      </trkpt>
      <trkpt lat="45.85684" lon="4.6688">
        <ele>281.36304</ele>
        <time>2023-07-04T16:08:45.000Z</time>
      </trkpt>
      <trkpt lat="45.85687" lon="4.66888">
        <ele>281.21304</ele>
        <time>2023-07-04T16:08:46.000Z</time>
      </trkpt>
      <trkpt lat="45.85686" lon="4.66897">
        <ele>281.03348</ele>
        <time>2023-07-04T16:08:47.000Z</time>
      </trkpt>
      <trkpt lat="45.85682" lon="4.66901">
        <ele>280.87482</ele>
        <time>2023-07-04T16:08:48.000Z</time>
      </trkpt>
      <trkpt lat="45.85676" lon="4.66904">
        <ele>280.73822</ele>
        <time>2023-07-04T16:08:49.000Z</time>
      </trkpt>
      <trkpt lat="45.85671" lon="4.66906">
        <ele>280.59625</ele>
        <time>2023-07-04T16:08:50.000Z</time>
      </trkpt>
      <trkpt lat="45.85666" lon="4.66906">
        <ele>280.41016</ele>
        <time>2023-07-04T16:08:51.000Z</time>
      </trkpt>
      <trkpt lat="45.8566" lon="4.66908">
        <ele>280.2258</ele>
        <time>2023-07-04T16:08:52.000Z</time>
      </trkpt>
      <trkpt lat="45.85654" lon="4.66909">
        <ele>280.02179</ele>
        <time>2023-07-04T16:08:53.000Z</time>
      </trkpt>
      <trkpt lat="45.85647" lon="4.66911">
        <ele>279.82748</ele>
        <time>2023-07-04T16:08:54.000Z</time>
      </trkpt>
      <trkpt lat="45.8564" lon="4.66913">
        <ele>279.62778</ele>
        <time>2023-07-04T16:08:55.000Z</time>
      </trkpt>
      <trkpt lat="45.85634" lon="4.66916">
        <ele>279.42047</ele>
        <time>2023-07-04T16:08:56.000Z</time>
      </trkpt>
      <trkpt lat="45.85627" lon="4.6692">
        <ele>279.19476</ele>
        <time>2023-07-04T16:08:57.000Z</time>
      </trkpt>
      <trkpt lat="45.85619" lon="4.66923">
        <ele>279.31622</ele>
        <time>2023-07-04T16:08:58.000Z</time>
      </trkpt>
      <trkpt lat="45.85611" lon="4.66925">
        <ele>279.42242</ele>
        <time>2023-07-04T16:08:59.000Z</time>
      </trkpt>
      <trkpt lat="45.85604" lon="4.66929">
        <ele>279.5408</ele>
        <time>2023-07-04T16:09:00.000Z</time>
      </trkpt>
      <trkpt lat="45.85597" lon="4.66932">
        <ele>279.68204</ele>
        <time>2023-07-04T16:09:01.000Z</time>
      </trkpt>
      <trkpt lat="45.8559" lon="4.66935">
        <ele>279.85464</ele>
        <time>2023-07-04T16:09:02.000Z</time>
      </trkpt>
      <trkpt lat="45.85584" lon="4.66938">
        <ele>280.3129</ele>
        <time>2023-07-04T16:09:03.000Z</time>
      </trkpt>
      <trkpt lat="45.85578" lon="4.6694">
        <ele>280.78717</ele>
        <time>2023-07-04T16:09:04.000Z</time>
      </trkpt>
      <trkpt lat="45.85572" lon="4.66942">
        <ele>280.60074</ele>
        <time>2023-07-04T16:09:05.000Z</time>
      </trkpt>
      <trkpt lat="45.85567" lon="4.66944">
        <ele>280.59467</ele>
        <time>2023-07-04T16:09:06.000Z</time>
      </trkpt>
      <trkpt lat="45.85561" lon="4.66946">
        <ele>280.61841</ele>
        <time>2023-07-04T16:09:07.000Z</time>
      </trkpt>
      <trkpt lat="45.85556" lon="4.66947">
        <ele>280.63354</ele>
        <time>2023-07-04T16:09:08.000Z</time>
      </trkpt>
      <trkpt lat="45.85551" lon="4.66948">
        <ele>280.65436</ele>
        <time>2023-07-04T16:09:09.000Z</time>
      </trkpt>
      <trkpt lat="45.85546" lon="4.66949">
        <ele>280.69568</ele>
        <time>2023-07-04T16:09:10.000Z</time>
      </trkpt>
      <trkpt lat="45.85542" lon="4.66949">
        <ele>280.76416</ele>
        <time>2023-07-04T16:09:11.000Z</time>
      </trkpt>
      <trkpt lat="45.85539" lon="4.66952">
        <ele>280.80786</ele>
        <time>2023-07-04T16:09:12.000Z</time>
      </trkpt>
      <trkpt lat="45.85537" lon="4.66956">
        <ele>280.67902</ele>
        <time>2023-07-04T16:09:13.000Z</time>
      </trkpt>
      <trkpt lat="45.85538" lon="4.66959">
        <ele>280.55176</ele>
        <time>2023-07-04T16:09:14.000Z</time>
      </trkpt>
      <trkpt lat="45.85539" lon="4.66965">
        <ele>280.46045</ele>
        <time>2023-07-04T16:09:16.000Z</time>
      </trkpt>
      <trkpt lat="45.85539" lon="4.66968">
        <ele>280.42242</ele>
        <time>2023-07-04T16:09:17.000Z</time>
      </trkpt>
      <trkpt lat="45.85538" lon="4.66973">
        <ele>280.38892</ele>
        <time>2023-07-04T16:09:18.000Z</time>
      </trkpt>
      <trkpt lat="45.85539" lon="4.66975">
        <ele>280.01651</ele>
        <time>2023-07-04T16:09:19.000Z</time>
      </trkpt>
      <trkpt lat="45.85541" lon="4.66979">
        <ele>279.65161</ele>
        <time>2023-07-04T16:09:20.000Z</time>
      </trkpt>
      <trkpt lat="45.85543" lon="4.66984">
        <ele>279.30743</ele>
        <time>2023-07-04T16:09:21.000Z</time>
      </trkpt>
      <trkpt lat="45.85545" lon="4.6699">
        <ele>278.91943</ele>
        <time>2023-07-04T16:09:22.000Z</time>
      </trkpt>
      <trkpt lat="45.85546" lon="4.66997">
        <ele>278.49713</ele>
        <time>2023-07-04T16:09:23.000Z</time>
      </trkpt>
      <trkpt lat="45.85548" lon="4.67004">
        <ele>277.81442</ele>
        <time>2023-07-04T16:09:24.000Z</time>
      </trkpt>
      <trkpt lat="45.85551" lon="4.67012">
        <ele>277.11978</ele>
        <time>2023-07-04T16:09:25.000Z</time>
      </trkpt>
      <trkpt lat="45.85552" lon="4.6702">
        <ele>277.11551</ele>
        <time>2023-07-04T16:09:26.000Z</time>
      </trkpt>
      <trkpt lat="45.85554" lon="4.67029">
        <ele>276.9559</ele>
        <time>2023-07-04T16:09:27.000Z</time>
      </trkpt>
      <trkpt lat="45.85556" lon="4.67037">
        <ele>276.79605</ele>
        <time>2023-07-04T16:09:28.000Z</time>
      </trkpt>
      <trkpt lat="45.85559" lon="4.67044">
        <ele>276.64526</ele>
        <time>2023-07-04T16:09:29.000Z</time>
      </trkpt>
      <trkpt lat="45.85562" lon="4.67053">
        <ele>276.50336</ele>
        <time>2023-07-04T16:09:30.000Z</time>
      </trkpt>
      <trkpt lat="45.85563" lon="4.67061">
        <ele>276.3587</ele>
        <time>2023-07-04T16:09:31.000Z</time>
      </trkpt>
      <trkpt lat="45.85567" lon="4.67068">
        <ele>276.20813</ele>
        <time>2023-07-04T16:09:32.000Z</time>
      </trkpt>
      <trkpt lat="45.8557" lon="4.67077">
        <ele>275.42905</ele>
        <time>2023-07-04T16:09:33.000Z</time>
      </trkpt>
      <trkpt lat="45.85573" lon="4.67086">
        <ele>274.8172</ele>
        <time>2023-07-04T16:09:34.000Z</time>
      </trkpt>
      <trkpt lat="45.85576" lon="4.67094">
        <ele>274.21747</ele>
        <time>2023-07-04T16:09:35.000Z</time>
      </trkpt>
      <trkpt lat="45.8558" lon="4.67103">
        <ele>273.59848</ele>
        <time>2023-07-04T16:09:36.000Z</time>
      </trkpt>
      <trkpt lat="45.85584" lon="4.6711">
        <ele>272.96213</ele>
        <time>2023-07-04T16:09:37.000Z</time>
      </trkpt>
      <trkpt lat="45.85586" lon="4.6712">
        <ele>272.31824</ele>
        <time>2023-07-04T16:09:38.000Z</time>
      </trkpt>
      <trkpt lat="45.8559" lon="4.67129">
        <ele>271.66922</ele>
        <time>2023-07-04T16:09:39.000Z</time>
      </trkpt>
      <trkpt lat="45.85595" lon="4.67135">
        <ele>271.05136</ele>
        <time>2023-07-04T16:09:40.000Z</time>
      </trkpt>
      <trkpt lat="45.85598" lon="4.67143">
        <ele>270.42242</ele>
        <time>2023-07-04T16:09:41.000Z</time>
      </trkpt>
      <trkpt lat="45.85601" lon="4.6715">
        <ele>269.82025</ele>
        <time>2023-07-04T16:09:42.000Z</time>
      </trkpt>
      <trkpt lat="45.85604" lon="4.67158">
        <ele>269.21011</ele>
        <time>2023-07-04T16:09:43.000Z</time>
      </trkpt>
      <trkpt lat="45.85607" lon="4.67163">
        <ele>268.5766</ele>
        <time>2023-07-04T16:09:44.000Z</time>
      </trkpt>
      <trkpt lat="45.85609" lon="4.67167">
        <ele>267.93033</ele>
        <time>2023-07-04T16:09:45.000Z</time>
      </trkpt>
      <trkpt lat="45.85612" lon="4.67172">
        <ele>267.30255</ele>
        <time>2023-07-04T16:09:46.000Z</time>
      </trkpt>
      <trkpt lat="45.85612" lon="4.67177">
        <ele>266.68646</ele>
        <time>2023-07-04T16:09:47.000Z</time>
      </trkpt>
      <trkpt lat="45.85614" lon="4.6718">
        <ele>266.02203</ele>
        <time>2023-07-04T16:09:48.000Z</time>
      </trkpt>
      <trkpt lat="45.85615" lon="4.67186">
        <ele>265.23218</ele>
        <time>2023-07-04T16:09:49.000Z</time>
      </trkpt>
      <trkpt lat="45.85616" lon="4.67188">
        <ele>264.45831</ele>
        <time>2023-07-04T16:09:50.000Z</time>
      </trkpt>
      <trkpt lat="45.85618" lon="4.67189">
        <ele>263.73627</ele>
        <time>2023-07-04T16:09:53.000Z</time>
      </trkpt>
      <trkpt lat="45.8562" lon="4.67189">
        <ele>263.14322</ele>
        <time>2023-07-04T16:10:04.000Z</time>
      </trkpt>
      <trkpt lat="45.85622" lon="4.67191">
        <ele>263.19696</ele>
        <time>2023-07-04T16:11:25.000Z</time>
      </trkpt>
      <trkpt lat="45.85624" lon="4.67196">
        <ele>263.27191</ele>
        <time>2023-07-04T16:11:27.000Z</time>
      </trkpt>
      <trkpt lat="45.85625" lon="4.672">
        <ele>263.33392</ele>
        <time>2023-07-04T16:11:28.000Z</time>
      </trkpt>
      <trkpt lat="45.85626" lon="4.67203">
        <ele>263.38693</ele>
        <time>2023-07-04T16:11:29.000Z</time>
      </trkpt>
      <trkpt lat="45.85628" lon="4.67206">
        <ele>263.41998</ele>
        <time>2023-07-04T16:11:30.000Z</time>
      </trkpt>
      <trkpt lat="45.8563" lon="4.67209">
        <ele>263.4628</ele>
        <time>2023-07-04T16:11:31.000Z</time>
      </trkpt>
      <trkpt lat="45.85632" lon="4.67212">
        <ele>263.47363</ele>
        <time>2023-07-04T16:11:32.000Z</time>
      </trkpt>
      <trkpt lat="45.85633" lon="4.67214">
        <ele>263.43903</ele>
        <time>2023-07-04T16:11:33.000Z</time>
      </trkpt>
      <trkpt lat="45.85634" lon="4.67216">
        <ele>263.39899</ele>
        <time>2023-07-04T16:11:34.000Z</time>
      </trkpt>
      <trkpt lat="45.85635" lon="4.67219">
        <ele>263.3266</ele>
        <time>2023-07-04T16:11:35.000Z</time>
      </trkpt>
      <trkpt lat="45.85639" lon="4.67221">
        <ele>263.23373</ele>
        <time>2023-07-04T16:11:36.000Z</time>
      </trkpt>
      <trkpt lat="45.85642" lon="4.67225">
        <ele>263.14551</ele>
        <time>2023-07-04T16:11:37.000Z</time>
      </trkpt>
      <trkpt lat="45.85645" lon="4.67229">
        <ele>263.06757</ele>
        <time>2023-07-04T16:11:38.000Z</time>
      </trkpt>
      <trkpt lat="45.85649" lon="4.67232">
        <ele>262.95401</ele>
        <time>2023-07-04T16:11:39.000Z</time>
      </trkpt>
      <trkpt lat="45.85652" lon="4.67235">
        <ele>262.8237</ele>
        <time>2023-07-04T16:11:40.000Z</time>
      </trkpt>
      <trkpt lat="45.85655" lon="4.67238">
        <ele>262.68408</ele>
        <time>2023-07-04T16:11:41.000Z</time>
      </trkpt>
      <trkpt lat="45.85659" lon="4.6724">
        <ele>262.69</ele>
        <time>2023-07-04T16:11:42.000Z</time>
      </trkpt>
      <trkpt lat="45.85663" lon="4.67244">
        <ele>262.67926</ele>
        <time>2023-07-04T16:11:43.000Z</time>
      </trkpt>
      <trkpt lat="45.85667" lon="4.67247">
        <ele>262.59534</ele>
        <time>2023-07-04T16:11:44.000Z</time>
      </trkpt>
      <trkpt lat="45.85673" lon="4.6725">
        <ele>262.39603</ele>
        <time>2023-07-04T16:11:45.000Z</time>
      </trkpt>
      <trkpt lat="45.85679" lon="4.67251">
        <ele>262.20398</ele>
        <time>2023-07-04T16:11:46.000Z</time>
      </trkpt>
      <trkpt lat="45.85684" lon="4.67253">
        <ele>262.02115</ele>
        <time>2023-07-04T16:11:47.000Z</time>
      </trkpt>
      <trkpt lat="45.85688" lon="4.67257">
        <ele>261.82562</ele>
        <time>2023-07-04T16:11:48.000Z</time>
      </trkpt>
      <trkpt lat="45.85693" lon="4.67259">
        <ele>261.63449</ele>
        <time>2023-07-04T16:11:49.000Z</time>
      </trkpt>
      <trkpt lat="45.857" lon="4.67262">
        <ele>261.41721</ele>
        <time>2023-07-04T16:11:50.000Z</time>
      </trkpt>
      <trkpt lat="45.85705" lon="4.67266">
        <ele>261.21875</ele>
        <time>2023-07-04T16:11:51.000Z</time>
      </trkpt>
      <trkpt lat="45.85711" lon="4.67268">
        <ele>261.03305</ele>
        <time>2023-07-04T16:11:52.000Z</time>
      </trkpt>
      <trkpt lat="45.85716" lon="4.67271">
        <ele>260.87292</ele>
        <time>2023-07-04T16:11:53.000Z</time>
      </trkpt>
      <trkpt lat="45.85721" lon="4.67275">
        <ele>260.68127</ele>
        <time>2023-07-04T16:11:54.000Z</time>
      </trkpt>
      <trkpt lat="45.85725" lon="4.67281">
        <ele>260.46591</ele>
        <time>2023-07-04T16:11:55.000Z</time>
      </trkpt>
      <trkpt lat="45.85729" lon="4.67284">
        <ele>260.33423</ele>
        <time>2023-07-04T16:11:56.000Z</time>
      </trkpt>
      <trkpt lat="45.85733" lon="4.67287">
        <ele>260.25861</ele>
        <time>2023-07-04T16:11:57.000Z</time>
      </trkpt>
      <trkpt lat="45.85736" lon="4.67291">
        <ele>260.14069</ele>
        <time>2023-07-04T16:11:58.000Z</time>
      </trkpt>
      <trkpt lat="45.85741" lon="4.67296">
        <ele>260.03076</ele>
        <time>2023-07-04T16:11:59.000Z</time>
      </trkpt>
      <trkpt lat="45.85745" lon="4.673">
        <ele>259.95932</ele>
        <time>2023-07-04T16:12:00.000Z</time>
      </trkpt>
      <trkpt lat="45.8575" lon="4.67304">
        <ele>259.93179</ele>
        <time>2023-07-04T16:12:01.000Z</time>
      </trkpt>
      <trkpt lat="45.85755" lon="4.67308">
        <ele>259.85339</ele>
        <time>2023-07-04T16:12:02.000Z</time>
      </trkpt>
      <trkpt lat="45.85757" lon="4.67311">
        <ele>259.75925</ele>
        <time>2023-07-04T16:12:03.000Z</time>
      </trkpt>
      <trkpt lat="45.8576" lon="4.67316">
        <ele>259.65942</ele>
        <time>2023-07-04T16:12:04.000Z</time>
      </trkpt>
      <trkpt lat="45.85764" lon="4.67318">
        <ele>259.59491</ele>
        <time>2023-07-04T16:12:05.000Z</time>
      </trkpt>
      <trkpt lat="45.85767" lon="4.67323">
        <ele>259.53143</ele>
        <time>2023-07-04T16:12:06.000Z</time>
      </trkpt>
      <trkpt lat="45.8577" lon="4.67327">
        <ele>259.45035</ele>
        <time>2023-07-04T16:12:07.000Z</time>
      </trkpt>
      <trkpt lat="45.85773" lon="4.67333">
        <ele>259.34265</ele>
        <time>2023-07-04T16:12:08.000Z</time>
      </trkpt>
      <trkpt lat="45.85774" lon="4.67338">
        <ele>259.29877</ele>
        <time>2023-07-04T16:12:09.000Z</time>
      </trkpt>
      <trkpt lat="45.85774" lon="4.67341">
        <ele>259.28775</ele>
        <time>2023-07-04T16:12:10.000Z</time>
      </trkpt>
      <trkpt lat="45.85776" lon="4.67343">
        <ele>259.26361</ele>
        <time>2023-07-04T16:12:11.000Z</time>
      </trkpt>
      <trkpt lat="45.85775" lon="4.67349">
        <ele>259.18906</ele>
        <time>2023-07-04T16:12:12.000Z</time>
      </trkpt>
      <trkpt lat="45.85777" lon="4.67354">
        <ele>259.12103</ele>
        <time>2023-07-04T16:12:13.000Z</time>
      </trkpt>
      <trkpt lat="45.85774" lon="4.67359">
        <ele>259.05771</ele>
        <time>2023-07-04T16:12:14.000Z</time>
      </trkpt>
      <trkpt lat="45.85771" lon="4.67363">
        <ele>259.00146</ele>
        <time>2023-07-04T16:12:15.000Z</time>
      </trkpt>
      <trkpt lat="45.85769" lon="4.67367">
        <ele>258.86954</ele>
        <time>2023-07-04T16:12:16.000Z</time>
      </trkpt>
      <trkpt lat="45.85766" lon="4.67372">
        <ele>258.72137</ele>
        <time>2023-07-04T16:12:17.000Z</time>
      </trkpt>
      <trkpt lat="45.85764" lon="4.67377">
        <ele>258.61292</ele>
        <time>2023-07-04T16:12:18.000Z</time>
      </trkpt>
      <trkpt lat="45.85761" lon="4.67382">
        <ele>258.49753</ele>
        <time>2023-07-04T16:12:19.000Z</time>
      </trkpt>
      <trkpt lat="45.85759" lon="4.67388">
        <ele>258.36041</ele>
        <time>2023-07-04T16:12:20.000Z</time>
      </trkpt>
      <trkpt lat="45.85757" lon="4.67394">
        <ele>258.25296</ele>
        <time>2023-07-04T16:12:21.000Z</time>
      </trkpt>
      <trkpt lat="45.85754" lon="4.67399">
        <ele>258.21033</ele>
        <time>2023-07-04T16:12:22.000Z</time>
      </trkpt>
      <trkpt lat="45.85752" lon="4.67404">
        <ele>258.1192</ele>
        <time>2023-07-04T16:12:23.000Z</time>
      </trkpt>
      <trkpt lat="45.85749" lon="4.67411">
        <ele>258.0817</ele>
        <time>2023-07-04T16:12:24.000Z</time>
      </trkpt>
      <trkpt lat="45.85746" lon="4.67417">
        <ele>258.00769</ele>
        <time>2023-07-04T16:12:25.000Z</time>
      </trkpt>
      <trkpt lat="45.85744" lon="4.67421">
        <ele>257.92981</ele>
        <time>2023-07-04T16:12:26.000Z</time>
      </trkpt>
      <trkpt lat="45.85741" lon="4.67426">
        <ele>257.83282</ele>
        <time>2023-07-04T16:12:27.000Z</time>
      </trkpt>
      <trkpt lat="45.85737" lon="4.67432">
        <ele>257.76202</ele>
        <time>2023-07-04T16:12:28.000Z</time>
      </trkpt>
      <trkpt lat="45.85735" lon="4.67436">
        <ele>257.66046</ele>
        <time>2023-07-04T16:12:29.000Z</time>
      </trkpt>
      <trkpt lat="45.85731" lon="4.67443">
        <ele>257.52914</ele>
        <time>2023-07-04T16:12:30.000Z</time>
      </trkpt>
      <trkpt lat="45.85729" lon="4.67447">
        <ele>257.4599</ele>
        <time>2023-07-04T16:12:31.000Z</time>
      </trkpt>
      <trkpt lat="45.85725" lon="4.67452">
        <ele>257.45029</ele>
        <time>2023-07-04T16:12:32.000Z</time>
      </trkpt>
      <trkpt lat="45.85724" lon="4.67456">
        <ele>257.45929</ele>
        <time>2023-07-04T16:12:33.000Z</time>
      </trkpt>
      <trkpt lat="45.85722" lon="4.67461">
        <ele>257.50177</ele>
        <time>2023-07-04T16:12:34.000Z</time>
      </trkpt>
      <trkpt lat="45.85719" lon="4.67465">
        <ele>257.56058</ele>
        <time>2023-07-04T16:12:35.000Z</time>
      </trkpt>
      <trkpt lat="45.85716" lon="4.6747">
        <ele>257.60239</ele>
        <time>2023-07-04T16:12:36.000Z</time>
      </trkpt>
      <trkpt lat="45.85713" lon="4.67476">
        <ele>257.63458</ele>
        <time>2023-07-04T16:12:37.000Z</time>
      </trkpt>
      <trkpt lat="45.8571" lon="4.67481">
        <ele>257.70334</ele>
        <time>2023-07-04T16:12:38.000Z</time>
      </trkpt>
      <trkpt lat="45.85707" lon="4.67487">
        <ele>257.68277</ele>
        <time>2023-07-04T16:12:39.000Z</time>
      </trkpt>
      <trkpt lat="45.85703" lon="4.67491">
        <ele>257.68134</ele>
        <time>2023-07-04T16:12:40.000Z</time>
      </trkpt>
      <trkpt lat="45.857" lon="4.67497">
        <ele>257.66217</ele>
        <time>2023-07-04T16:12:41.000Z</time>
      </trkpt>
      <trkpt lat="45.85698" lon="4.67501">
        <ele>257.60358</ele>
        <time>2023-07-04T16:12:42.000Z</time>
      </trkpt>
      <trkpt lat="45.85694" lon="4.67506">
        <ele>257.62817</ele>
        <time>2023-07-04T16:12:43.000Z</time>
      </trkpt>
      <trkpt lat="45.8569" lon="4.67511">
        <ele>257.6174</ele>
        <time>2023-07-04T16:12:44.000Z</time>
      </trkpt>
      <trkpt lat="45.85687" lon="4.67516">
        <ele>257.63559</ele>
        <time>2023-07-04T16:12:45.000Z</time>
      </trkpt>
      <trkpt lat="45.85683" lon="4.6752">
        <ele>257.66629</ele>
        <time>2023-07-04T16:12:46.000Z</time>
      </trkpt>
      <trkpt lat="45.85679" lon="4.67525">
        <ele>257.72345</ele>
        <time>2023-07-04T16:12:47.000Z</time>
      </trkpt>
      <trkpt lat="45.85675" lon="4.6753">
        <ele>257.79846</ele>
        <time>2023-07-04T16:12:48.000Z</time>
      </trkpt>
      <trkpt lat="45.85671" lon="4.67533">
        <ele>257.84595</ele>
        <time>2023-07-04T16:12:49.000Z</time>
      </trkpt>
      <trkpt lat="45.85667" lon="4.67537">
        <ele>257.88617</ele>
        <time>2023-07-04T16:12:50.000Z</time>
      </trkpt>
      <trkpt lat="45.85663" lon="4.6754">
        <ele>257.87265</ele>
        <time>2023-07-04T16:12:51.000Z</time>
      </trkpt>
      <trkpt lat="45.85659" lon="4.67544">
        <ele>257.86398</ele>
        <time>2023-07-04T16:12:52.000Z</time>
      </trkpt>
      <trkpt lat="45.85655" lon="4.67548">
        <ele>257.80109</ele>
        <time>2023-07-04T16:12:53.000Z</time>
      </trkpt>
      <trkpt lat="45.85651" lon="4.67552">
        <ele>257.73087</ele>
        <time>2023-07-04T16:12:54.000Z</time>
      </trkpt>
      <trkpt lat="45.85647" lon="4.67555">
        <ele>257.68497</ele>
        <time>2023-07-04T16:12:55.000Z</time>
      </trkpt>
      <trkpt lat="45.85644" lon="4.67557">
        <ele>257.67993</ele>
        <time>2023-07-04T16:12:56.000Z</time>
      </trkpt>
      <trkpt lat="45.8564" lon="4.67561">
        <ele>257.67224</ele>
        <time>2023-07-04T16:12:57.000Z</time>
      </trkpt>
      <trkpt lat="45.85636" lon="4.67565">
        <ele>257.61395</ele>
        <time>2023-07-04T16:12:58.000Z</time>
      </trkpt>
      <trkpt lat="45.85633" lon="4.67569">
        <ele>257.65277</ele>
        <time>2023-07-04T16:12:59.000Z</time>
      </trkpt>
      <trkpt lat="45.8563" lon="4.67572">
        <ele>257.65585</ele>
        <time>2023-07-04T16:13:00.000Z</time>
      </trkpt>
      <trkpt lat="45.85626" lon="4.67576">
        <ele>257.62616</ele>
        <time>2023-07-04T16:13:01.000Z</time>
      </trkpt>
      <trkpt lat="45.85623" lon="4.67579">
        <ele>257.62592</ele>
        <time>2023-07-04T16:13:02.000Z</time>
      </trkpt>
      <trkpt lat="45.85619" lon="4.67582">
        <ele>257.60294</ele>
        <time>2023-07-04T16:13:03.000Z</time>
      </trkpt>
      <trkpt lat="45.85616" lon="4.67586">
        <ele>257.5874</ele>
        <time>2023-07-04T16:13:04.000Z</time>
      </trkpt>
      <trkpt lat="45.85613" lon="4.67588">
        <ele>257.55289</ele>
        <time>2023-07-04T16:13:05.000Z</time>
      </trkpt>
      <trkpt lat="45.85609" lon="4.67591">
        <ele>257.4848</ele>
        <time>2023-07-04T16:13:06.000Z</time>
      </trkpt>
      <trkpt lat="45.85606" lon="4.67595">
        <ele>257.38486</ele>
        <time>2023-07-04T16:13:07.000Z</time>
      </trkpt>
      <trkpt lat="45.85603" lon="4.67598">
        <ele>257.27301</ele>
        <time>2023-07-04T16:13:08.000Z</time>
      </trkpt>
      <trkpt lat="45.85599" lon="4.67603">
        <ele>257.15082</ele>
        <time>2023-07-04T16:13:09.000Z</time>
      </trkpt>
      <trkpt lat="45.85596" lon="4.67606">
        <ele>257.05994</ele>
        <time>2023-07-04T16:13:10.000Z</time>
      </trkpt>
      <trkpt lat="45.85592" lon="4.6761">
        <ele>256.98294</ele>
        <time>2023-07-04T16:13:11.000Z</time>
      </trkpt>
      <trkpt lat="45.85589" lon="4.67614">
        <ele>256.94708</ele>
        <time>2023-07-04T16:13:12.000Z</time>
      </trkpt>
      <trkpt lat="45.85586" lon="4.67617">
        <ele>256.94641</ele>
        <time>2023-07-04T16:13:13.000Z</time>
      </trkpt>
      <trkpt lat="45.85583" lon="4.67621">
        <ele>256.86926</ele>
        <time>2023-07-04T16:13:14.000Z</time>
      </trkpt>
      <trkpt lat="45.85581" lon="4.67625">
        <ele>256.82477</ele>
        <time>2023-07-04T16:13:15.000Z</time>
      </trkpt>
      <trkpt lat="45.85579" lon="4.67628">
        <ele>256.76251</ele>
        <time>2023-07-04T16:13:16.000Z</time>
      </trkpt>
      <trkpt lat="45.85576" lon="4.6763">
        <ele>256.7038</ele>
        <time>2023-07-04T16:13:17.000Z</time>
      </trkpt>
      <trkpt lat="45.85575" lon="4.67634">
        <ele>256.66449</ele>
        <time>2023-07-04T16:13:18.000Z</time>
      </trkpt>
      <trkpt lat="45.85572" lon="4.67636">
        <ele>256.62411</ele>
        <time>2023-07-04T16:13:19.000Z</time>
      </trkpt>
      <trkpt lat="45.8557" lon="4.67638">
        <ele>256.61407</ele>
        <time>2023-07-04T16:13:20.000Z</time>
      </trkpt>
      <trkpt lat="45.85568" lon="4.6764">
        <ele>256.61716</ele>
        <time>2023-07-04T16:13:21.000Z</time>
      </trkpt>
      <trkpt lat="45.85567" lon="4.67642">
        <ele>256.59857</ele>
        <time>2023-07-04T16:13:22.000Z</time>
      </trkpt>
      <trkpt lat="45.85565" lon="4.67644">
        <ele>256.57712</ele>
        <time>2023-07-04T16:13:23.000Z</time>
      </trkpt>
      <trkpt lat="45.85563" lon="4.67645">
        <ele>256.55893</ele>
        <time>2023-07-04T16:13:24.000Z</time>
      </trkpt>
      <trkpt lat="45.85561" lon="4.67646">
        <ele>256.58066</ele>
        <time>2023-07-04T16:13:26.000Z</time>
      </trkpt>
      <trkpt lat="45.85561" lon="4.67643">
        <ele>256.61331</ele>
        <time>2023-07-04T16:13:33.000Z</time>
      </trkpt>
      <trkpt lat="45.85559" lon="4.67642">
        <ele>256.67831</ele>
        <time>2023-07-04T16:15:07.000Z</time>
      </trkpt>
      <trkpt lat="45.85556" lon="4.67644">
        <ele>256.76309</ele>
        <time>2023-07-04T16:15:11.000Z</time>
      </trkpt>
      <trkpt lat="45.85555" lon="4.67646">
        <ele>256.84055</ele>
        <time>2023-07-04T16:15:12.000Z</time>
      </trkpt>
      <trkpt lat="45.85553" lon="4.67649">
        <ele>256.90161</ele>
        <time>2023-07-04T16:15:13.000Z</time>
      </trkpt>
      <trkpt lat="45.85553" lon="4.67652">
        <ele>256.94254</ele>
        <time>2023-07-04T16:15:14.000Z</time>
      </trkpt>
      <trkpt lat="45.85554" lon="4.67655">
        <ele>256.96799</ele>
        <time>2023-07-04T16:15:15.000Z</time>
      </trkpt>
      <trkpt lat="45.85557" lon="4.67657">
        <ele>257.00699</ele>
        <time>2023-07-04T16:15:16.000Z</time>
      </trkpt>
      <trkpt lat="45.85559" lon="4.67655">
        <ele>257.10938</ele>
        <time>2023-07-04T16:15:17.000Z</time>
      </trkpt>
      <trkpt lat="45.8556" lon="4.67653">
        <ele>257.1814</ele>
        <time>2023-07-04T16:15:18.000Z</time>
      </trkpt>
      <trkpt lat="45.85561" lon="4.67648">
        <ele>257.26563</ele>
        <time>2023-07-04T16:15:20.000Z</time>
      </trkpt>
      <trkpt lat="45.8556" lon="4.67646">
        <ele>257.37094</ele>
        <time>2023-07-04T16:15:22.000Z</time>
      </trkpt>
      <trkpt lat="45.85559" lon="4.67643">
        <ele>257.51205</ele>
        <time>2023-07-04T16:15:33.000Z</time>
      </trkpt>
      <trkpt lat="45.85558" lon="4.67641">
        <ele>257.66809</ele>
        <time>2023-07-04T16:15:35.000Z</time>
      </trkpt>
      <trkpt lat="45.85555" lon="4.67638">
        <ele>257.86261</ele>
        <time>2023-07-04T16:15:37.000Z</time>
      </trkpt>
      <trkpt lat="45.85554" lon="4.67636">
        <ele>258.09088</ele>
        <time>2023-07-04T16:15:39.000Z</time>
      </trkpt>
      <trkpt lat="45.85553" lon="4.67633">
        <ele>258.29974</ele>
        <time>2023-07-04T16:15:50.000Z</time>
      </trkpt>
      <trkpt lat="45.85553" lon="4.6763">
        <ele>258.53326</ele>
        <time>2023-07-04T16:16:04.000Z</time>
      </trkpt>
      <trkpt lat="45.85553" lon="4.67625">
        <ele>258.78461</ele>
        <time>2023-07-04T16:16:06.000Z</time>
      </trkpt>
      <trkpt lat="45.85553" lon="4.67622">
        <ele>259.01337</ele>
        <time>2023-07-04T16:16:07.000Z</time>
      </trkpt>
      <trkpt lat="45.85554" lon="4.67618">
        <ele>259.228</ele>
        <time>2023-07-04T16:16:09.000Z</time>
      </trkpt>
      <trkpt lat="45.85556" lon="4.67615">
        <ele>259.42349</ele>
        <time>2023-07-04T16:16:10.000Z</time>
      </trkpt>
      <trkpt lat="45.85558" lon="4.67611">
        <ele>259.63922</ele>
        <time>2023-07-04T16:16:11.000Z</time>
      </trkpt>
      <trkpt lat="45.8556" lon="4.67609">
        <ele>259.87671</ele>
        <time>2023-07-04T16:16:12.000Z</time>
      </trkpt>
      <trkpt lat="45.85563" lon="4.67605">
        <ele>260.17084</ele>
        <time>2023-07-04T16:16:14.000Z</time>
      </trkpt>
      <trkpt lat="45.85564" lon="4.67603">
        <ele>260.46576</ele>
        <time>2023-07-04T16:16:15.000Z</time>
      </trkpt>
      <trkpt lat="45.85565" lon="4.67601">
        <ele>260.73669</ele>
        <time>2023-07-04T16:16:16.000Z</time>
      </trkpt>
      <trkpt lat="45.85567" lon="4.67598">
        <ele>261.02499</ele>
        <time>2023-07-04T16:16:17.000Z</time>
      </trkpt>
      <trkpt lat="45.8557" lon="4.67595">
        <ele>261.29422</ele>
        <time>2023-07-04T16:16:18.000Z</time>
      </trkpt>
      <trkpt lat="45.85571" lon="4.67593">
        <ele>261.57968</ele>
        <time>2023-07-04T16:16:19.000Z</time>
      </trkpt>
      <trkpt lat="45.85573" lon="4.67591">
        <ele>261.89542</ele>
        <time>2023-07-04T16:16:20.000Z</time>
      </trkpt>
      <trkpt lat="45.85575" lon="4.67589">
        <ele>262.19095</ele>
        <time>2023-07-04T16:16:21.000Z</time>
      </trkpt>
      <trkpt lat="45.85576" lon="4.67586">
        <ele>262.44836</ele>
        <time>2023-07-04T16:16:22.000Z</time>
      </trkpt>
      <trkpt lat="45.85579" lon="4.67582">
        <ele>262.73975</ele>
        <time>2023-07-04T16:16:23.000Z</time>
      </trkpt>
      <trkpt lat="45.85581" lon="4.67579">
        <ele>262.90021</ele>
        <time>2023-07-04T16:16:24.000Z</time>
      </trkpt>
      <trkpt lat="45.85583" lon="4.67576">
        <ele>263.06516</ele>
        <time>2023-07-04T16:16:25.000Z</time>
      </trkpt>
      <trkpt lat="45.85586" lon="4.67574">
        <ele>263.27789</ele>
        <time>2023-07-04T16:16:26.000Z</time>
      </trkpt>
      <trkpt lat="45.85589" lon="4.67571">
        <ele>263.53516</ele>
        <time>2023-07-04T16:16:27.000Z</time>
      </trkpt>
      <trkpt lat="45.85592" lon="4.67568">
        <ele>263.80719</ele>
        <time>2023-07-04T16:16:28.000Z</time>
      </trkpt>
      <trkpt lat="45.85595" lon="4.67566">
        <ele>264.04996</ele>
        <time>2023-07-04T16:16:29.000Z</time>
      </trkpt>
      <trkpt lat="45.85598" lon="4.67563">
        <ele>264.31927</ele>
        <time>2023-07-04T16:16:30.000Z</time>
      </trkpt>
      <trkpt lat="45.856" lon="4.67562">
        <ele>264.59238</ele>
        <time>2023-07-04T16:16:31.000Z</time>
      </trkpt>
      <trkpt lat="45.85602" lon="4.67559">
        <ele>264.83896</ele>
        <time>2023-07-04T16:16:32.000Z</time>
      </trkpt>
      <trkpt lat="45.85604" lon="4.67557">
        <ele>265.03558</ele>
        <time>2023-07-04T16:16:33.000Z</time>
      </trkpt>
      <trkpt lat="45.85606" lon="4.67554">
        <ele>265.20972</ele>
        <time>2023-07-04T16:16:34.000Z</time>
      </trkpt>
      <trkpt lat="45.85608" lon="4.67552">
        <ele>265.37643</ele>
        <time>2023-07-04T16:16:35.000Z</time>
      </trkpt>
      <trkpt lat="45.85608" lon="4.67547">
        <ele>265.55533</ele>
        <time>2023-07-04T16:16:37.000Z</time>
      </trkpt>
      <trkpt lat="45.85608" lon="4.67545">
        <ele>265.69724</ele>
        <time>2023-07-04T16:16:38.000Z</time>
      </trkpt>
      <trkpt lat="45.8561" lon="4.67541">
        <ele>265.87518</ele>
        <time>2023-07-04T16:16:40.000Z</time>
      </trkpt>
      <trkpt lat="45.85613" lon="4.67537">
        <ele>266.01389</ele>
        <time>2023-07-04T16:16:42.000Z</time>
      </trkpt>
      <trkpt lat="45.85615" lon="4.67534">
        <ele>266.11639</ele>
        <time>2023-07-04T16:16:44.000Z</time>
      </trkpt>
      <trkpt lat="45.85617" lon="4.6753">
        <ele>266.30548</ele>
        <time>2023-07-04T16:16:46.000Z</time>
      </trkpt>
      <trkpt lat="45.85616" lon="4.67527">
        <ele>266.47723</ele>
        <time>2023-07-04T16:16:47.000Z</time>
      </trkpt>
      <trkpt lat="45.85614" lon="4.67526">
        <ele>266.64575</ele>
        <time>2023-07-04T16:16:49.000Z</time>
      </trkpt>
      <trkpt lat="45.85612" lon="4.67529">
        <ele>266.85883</ele>
        <time>2023-07-04T16:16:50.000Z</time>
      </trkpt>
      <trkpt lat="45.85611" lon="4.67532">
        <ele>267.02939</ele>
        <time>2023-07-04T16:16:51.000Z</time>
      </trkpt>
      <trkpt lat="45.8561" lon="4.67535">
        <ele>267.17572</ele>
        <time>2023-07-04T16:16:52.000Z</time>
      </trkpt>
      <trkpt lat="45.85608" lon="4.67538">
        <ele>267.2739</ele>
        <time>2023-07-04T16:16:53.000Z</time>
      </trkpt>
      <trkpt lat="45.85607" lon="4.6754">
        <ele>267.34589</ele>
        <time>2023-07-04T16:16:54.000Z</time>
      </trkpt>
      <trkpt lat="45.85605" lon="4.67541">
        <ele>267.43365</ele>
        <time>2023-07-04T16:16:55.000Z</time>
      </trkpt>
      <trkpt lat="45.85603" lon="4.67543">
        <ele>267.51627</ele>
        <time>2023-07-04T16:16:56.000Z</time>
      </trkpt>
      <trkpt lat="45.85601" lon="4.67545">
        <ele>267.59851</ele>
        <time>2023-07-04T16:16:57.000Z</time>
      </trkpt>
      <trkpt lat="45.85598" lon="4.67547">
        <ele>267.69724</ele>
        <time>2023-07-04T16:16:58.000Z</time>
      </trkpt>
      <trkpt lat="45.85595" lon="4.67548">
        <ele>267.84009</ele>
        <time>2023-07-04T16:16:59.000Z</time>
      </trkpt>
      <trkpt lat="45.85593" lon="4.6755">
        <ele>267.92096</ele>
        <time>2023-07-04T16:17:00.000Z</time>
      </trkpt>
      <trkpt lat="45.8559" lon="4.67552">
        <ele>268.00458</ele>
        <time>2023-07-04T16:17:01.000Z</time>
      </trkpt>
      <trkpt lat="45.85588" lon="4.67554">
        <ele>268.10391</ele>
        <time>2023-07-04T16:17:02.000Z</time>
      </trkpt>
      <trkpt lat="45.85586" lon="4.67556">
        <ele>268.1879</ele>
        <time>2023-07-04T16:17:03.000Z</time>
      </trkpt>
      <trkpt lat="45.85583" lon="4.67558">
        <ele>268.27362</ele>
        <time>2023-07-04T16:17:04.000Z</time>
      </trkpt>
      <trkpt lat="45.85581" lon="4.6756">
        <ele>268.35663</ele>
        <time>2023-07-04T16:17:05.000Z</time>
      </trkpt>
      <trkpt lat="45.85578" lon="4.67562">
        <ele>268.45929</ele>
        <time>2023-07-04T16:17:06.000Z</time>
      </trkpt>
      <trkpt lat="45.85576" lon="4.67565">
        <ele>268.4726</ele>
        <time>2023-07-04T16:17:07.000Z</time>
      </trkpt>
      <trkpt lat="45.85573" lon="4.67567">
        <ele>268.51443</ele>
        <time>2023-07-04T16:17:08.000Z</time>
      </trkpt>
      <trkpt lat="45.8557" lon="4.67569">
        <ele>268.48846</ele>
        <time>2023-07-04T16:17:09.000Z</time>
      </trkpt>
      <trkpt lat="45.85568" lon="4.67572">
        <ele>268.48825</ele>
        <time>2023-07-04T16:17:10.000Z</time>
      </trkpt>
      <trkpt lat="45.85565" lon="4.67574">
        <ele>268.50555</ele>
        <time>2023-07-04T16:17:11.000Z</time>
      </trkpt>
      <trkpt lat="45.85561" lon="4.67576">
        <ele>268.51276</ele>
        <time>2023-07-04T16:17:12.000Z</time>
      </trkpt>
      <trkpt lat="45.85558" lon="4.67578">
        <ele>268.50815</ele>
        <time>2023-07-04T16:17:13.000Z</time>
      </trkpt>
      <trkpt lat="45.85555" lon="4.6758">
        <ele>270.41888</ele>
        <time>2023-07-04T16:17:14.000Z</time>
      </trkpt>
      <trkpt lat="45.85552" lon="4.67582">
        <ele>270.50656</ele>
        <time>2023-07-04T16:17:15.000Z</time>
      </trkpt>
      <trkpt lat="45.85548" lon="4.67583">
        <ele>270.6004</ele>
        <time>2023-07-04T16:17:16.000Z</time>
      </trkpt>
      <trkpt lat="45.85545" lon="4.67585">
        <ele>270.70709</ele>
        <time>2023-07-04T16:17:17.000Z</time>
      </trkpt>
      <trkpt lat="45.85542" lon="4.67587">
        <ele>270.80328</ele>
        <time>2023-07-04T16:17:18.000Z</time>
      </trkpt>
      <trkpt lat="45.8554" lon="4.67588">
        <ele>270.8988</ele>
        <time>2023-07-04T16:17:19.000Z</time>
      </trkpt>
      <trkpt lat="45.85537" lon="4.6759">
        <ele>273.74985</ele>
        <time>2023-07-04T16:17:20.000Z</time>
      </trkpt>
      <trkpt lat="45.85534" lon="4.67592">
        <ele>274.03827</ele>
        <time>2023-07-04T16:17:21.000Z</time>
      </trkpt>
      <trkpt lat="45.85531" lon="4.67595">
        <ele>274.31668</ele>
        <time>2023-07-04T16:17:22.000Z</time>
      </trkpt>
      <trkpt lat="45.85528" lon="4.67598">
        <ele>274.61676</ele>
        <time>2023-07-04T16:17:23.000Z</time>
      </trkpt>
      <trkpt lat="45.85525" lon="4.67601">
        <ele>274.91647</ele>
        <time>2023-07-04T16:17:24.000Z</time>
      </trkpt>
      <trkpt lat="45.85522" lon="4.67605">
        <ele>275.25031</ele>
        <time>2023-07-04T16:17:25.000Z</time>
      </trkpt>
      <trkpt lat="45.85519" lon="4.67609">
        <ele>277.3465</ele>
        <time>2023-07-04T16:17:26.000Z</time>
      </trkpt>
      <trkpt lat="45.85515" lon="4.67613">
        <ele>277.78903</ele>
        <time>2023-07-04T16:17:27.000Z</time>
      </trkpt>
      <trkpt lat="45.85512" lon="4.67617">
        <ele>278.2334</ele>
        <time>2023-07-04T16:17:28.000Z</time>
      </trkpt>
      <trkpt lat="45.85509" lon="4.67621">
        <ele>278.71933</ele>
        <time>2023-07-04T16:17:29.000Z</time>
      </trkpt>
      <trkpt lat="45.85504" lon="4.67625">
        <ele>279.2309</ele>
        <time>2023-07-04T16:17:30.000Z</time>
      </trkpt>
      <trkpt lat="45.85501" lon="4.67629">
        <ele>279.76801</ele>
        <time>2023-07-04T16:17:31.000Z</time>
      </trkpt>
      <trkpt lat="45.85498" lon="4.67632">
        <ele>281.79465</ele>
        <time>2023-07-04T16:17:32.000Z</time>
      </trkpt>
      <trkpt lat="45.85494" lon="4.67634">
        <ele>283.82672</ele>
        <time>2023-07-04T16:17:33.000Z</time>
      </trkpt>
      <trkpt lat="45.8549" lon="4.67637">
        <ele>283.94232</ele>
        <time>2023-07-04T16:17:34.000Z</time>
      </trkpt>
      <trkpt lat="45.85486" lon="4.67639">
        <ele>285.8801</ele>
        <time>2023-07-04T16:17:35.000Z</time>
      </trkpt>
      <trkpt lat="45.85482" lon="4.6764">
        <ele>287.81805</ele>
        <time>2023-07-04T16:17:36.000Z</time>
      </trkpt>
      <trkpt lat="45.85479" lon="4.67641">
        <ele>289.74261</ele>
        <time>2023-07-04T16:17:37.000Z</time>
      </trkpt>
      <trkpt lat="45.85477" lon="4.67642">
        <ele>291.47815</ele>
        <time>2023-07-04T16:17:46.000Z</time>
      </trkpt>
      <trkpt lat="45.85476" lon="4.67644">
        <ele>293.45721</ele>
        <time>2023-07-04T16:17:48.000Z</time>
      </trkpt>
      <trkpt lat="45.85474" lon="4.67645">
        <ele>292.73541</ele>
        <time>2023-07-04T16:17:49.000Z</time>
      </trkpt>
      <trkpt lat="45.85471" lon="4.67647">
        <ele>294.56973</ele>
        <time>2023-07-04T16:17:50.000Z</time>
      </trkpt>
      <trkpt lat="45.85468" lon="4.67648">
        <ele>296.40009</ele>
        <time>2023-07-04T16:17:51.000Z</time>
      </trkpt>
      <trkpt lat="45.85464" lon="4.67648">
        <ele>298.17749</ele>
        <time>2023-07-04T16:17:52.000Z</time>
      </trkpt>
      <trkpt lat="45.85461" lon="4.67648">
        <ele>299.93942</ele>
        <time>2023-07-04T16:17:53.000Z</time>
      </trkpt>
      <trkpt lat="45.85457" lon="4.67647">
        <ele>302.35162</ele>
        <time>2023-07-04T16:17:54.000Z</time>
      </trkpt>
      <trkpt lat="45.85454" lon="4.67646">
        <ele>301.95197</ele>
        <time>2023-07-04T16:17:55.000Z</time>
      </trkpt>
      <trkpt lat="45.8545" lon="4.67644">
        <ele>303.32501</ele>
        <time>2023-07-04T16:17:56.000Z</time>
      </trkpt>
      <trkpt lat="45.85446" lon="4.67642">
        <ele>304.90427</ele>
        <time>2023-07-04T16:17:57.000Z</time>
      </trkpt>
      <trkpt lat="45.85443" lon="4.67639">
        <ele>306.45013</ele>
        <time>2023-07-04T16:17:58.000Z</time>
      </trkpt>
      <trkpt lat="45.85439" lon="4.67637">
        <ele>308.11172</ele>
        <time>2023-07-04T16:17:59.000Z</time>
      </trkpt>
      <trkpt lat="45.85435" lon="4.67636">
        <ele>309.63568</ele>
        <time>2023-07-04T16:18:00.000Z</time>
      </trkpt>
      <trkpt lat="45.8543" lon="4.67636">
        <ele>309.57446</ele>
        <time>2023-07-04T16:18:01.000Z</time>
      </trkpt>
      <trkpt lat="45.85426" lon="4.67636">
        <ele>309.87555</ele>
        <time>2023-07-04T16:18:02.000Z</time>
      </trkpt>
      <trkpt lat="45.85421" lon="4.67636">
        <ele>310.59097</ele>
        <time>2023-07-04T16:18:03.000Z</time>
      </trkpt>
      <trkpt lat="45.85417" lon="4.67637">
        <ele>311.47028</ele>
        <time>2023-07-04T16:18:04.000Z</time>
      </trkpt>
      <trkpt lat="45.85412" lon="4.67638">
        <ele>312.26208</ele>
        <time>2023-07-04T16:18:05.000Z</time>
      </trkpt>
      <trkpt lat="45.85409" lon="4.6764">
        <ele>312.90521</ele>
        <time>2023-07-04T16:18:06.000Z</time>
      </trkpt>
      <trkpt lat="45.85404" lon="4.67644">
        <ele>313.5444</ele>
        <time>2023-07-04T16:18:07.000Z</time>
      </trkpt>
      <trkpt lat="45.85401" lon="4.67646">
        <ele>314.05887</ele>
        <time>2023-07-04T16:18:08.000Z</time>
      </trkpt>
      <trkpt lat="45.85397" lon="4.67649">
        <ele>314.35675</ele>
        <time>2023-07-04T16:18:09.000Z</time>
      </trkpt>
      <trkpt lat="45.85393" lon="4.67653">
        <ele>314.53741</ele>
        <time>2023-07-04T16:18:10.000Z</time>
      </trkpt>
      <trkpt lat="45.8539" lon="4.67656">
        <ele>314.7149</ele>
        <time>2023-07-04T16:18:11.000Z</time>
      </trkpt>
      <trkpt lat="45.85386" lon="4.6766">
        <ele>315.01752</ele>
        <time>2023-07-04T16:18:12.000Z</time>
      </trkpt>
      <trkpt lat="45.85383" lon="4.67665">
        <ele>315.88458</ele>
        <time>2023-07-04T16:18:13.000Z</time>
      </trkpt>
      <trkpt lat="45.8538" lon="4.67669">
        <ele>316.36533</ele>
        <time>2023-07-04T16:18:14.000Z</time>
      </trkpt>
      <trkpt lat="45.8538" lon="4.67673">
        <ele>318.24103</ele>
        <time>2023-07-04T16:18:15.000Z</time>
      </trkpt>
      <trkpt lat="45.85379" lon="4.67677">
        <ele>320.16495</ele>
        <time>2023-07-04T16:18:16.000Z</time>
      </trkpt>
      <trkpt lat="45.85376" lon="4.67679">
        <ele>321.89142</ele>
        <time>2023-07-04T16:18:17.000Z</time>
      </trkpt>
      <trkpt lat="45.85373" lon="4.6768">
        <ele>323.81189</ele>
        <time>2023-07-04T16:18:18.000Z</time>
      </trkpt>
      <trkpt lat="45.85371" lon="4.67683">
        <ele>325.67297</ele>
        <time>2023-07-04T16:18:19.000Z</time>
      </trkpt>
      <trkpt lat="45.85371" lon="4.67687">
        <ele>327.7153</ele>
        <time>2023-07-04T16:18:21.000Z</time>
      </trkpt>
      <trkpt lat="45.85374" lon="4.67685">
        <ele>328.71039</ele>
        <time>2023-07-04T16:18:24.000Z</time>
      </trkpt>
      <trkpt lat="45.85375" lon="4.67682">
        <ele>329.38712</ele>
        <time>2023-07-04T16:18:26.000Z</time>
      </trkpt>
      <trkpt lat="45.85376" lon="4.67678">
        <ele>332.50443</ele>
        <time>2023-07-04T16:18:28.000Z</time>
      </trkpt>
      <trkpt lat="45.85378" lon="4.67674">
        <ele>334.11407</ele>
        <time>2023-07-04T16:18:29.000Z</time>
      </trkpt>
      <trkpt lat="45.8538" lon="4.67672">
        <ele>335.32858</ele>
        <time>2023-07-04T16:18:30.000Z</time>
      </trkpt>
      <trkpt lat="45.85382" lon="4.67669">
        <ele>336.0639</ele>
        <time>2023-07-04T16:18:31.000Z</time>
      </trkpt>
      <trkpt lat="45.85384" lon="4.67666">
        <ele>336.59863</ele>
        <time>2023-07-04T16:18:32.000Z</time>
      </trkpt>
      <trkpt lat="45.85387" lon="4.67663">
        <ele>336.79593</ele>
        <time>2023-07-04T16:18:33.000Z</time>
      </trkpt>
      <trkpt lat="45.8539" lon="4.6766">
        <ele>336.8952</ele>
        <time>2023-07-04T16:18:34.000Z</time>
      </trkpt>
      <trkpt lat="45.85393" lon="4.67657">
        <ele>336.8082</ele>
        <time>2023-07-04T16:18:35.000Z</time>
      </trkpt>
      <trkpt lat="45.85396" lon="4.67655">
        <ele>336.4707</ele>
        <time>2023-07-04T16:18:36.000Z</time>
      </trkpt>
      <trkpt lat="45.85399" lon="4.67653">
        <ele>337.49838</ele>
        <time>2023-07-04T16:18:37.000Z</time>
      </trkpt>
      <trkpt lat="45.85401" lon="4.67651">
        <ele>338.01349</ele>
        <time>2023-07-04T16:18:38.000Z</time>
      </trkpt>
      <trkpt lat="45.85403" lon="4.67649">
        <ele>338.27539</ele>
        <time>2023-07-04T16:18:39.000Z</time>
      </trkpt>
      <trkpt lat="45.85405" lon="4.67646">
        <ele>338.19586</ele>
        <time>2023-07-04T16:18:40.000Z</time>
      </trkpt>
      <trkpt lat="45.85405" lon="4.67642">
        <ele>337.94135</ele>
        <time>2023-07-04T16:18:41.000Z</time>
      </trkpt>
      <trkpt lat="45.85404" lon="4.67638">
        <ele>335.90692</ele>
        <time>2023-07-04T16:18:42.000Z</time>
      </trkpt>
      <trkpt lat="45.85403" lon="4.67636">
        <ele>335.32428</ele>
        <time>2023-07-04T16:18:43.000Z</time>
      </trkpt>
      <trkpt lat="45.85401" lon="4.67634">
        <ele>334.63187</ele>
        <time>2023-07-04T16:18:44.000Z</time>
      </trkpt>
      <trkpt lat="45.85399" lon="4.67632">
        <ele>333.83563</ele>
        <time>2023-07-04T16:18:45.000Z</time>
      </trkpt>
      <trkpt lat="45.85398" lon="4.6763">
        <ele>334.14163</ele>
        <time>2023-07-04T16:18:46.000Z</time>
      </trkpt>
      <trkpt lat="45.85396" lon="4.67628">
        <ele>334.41318</ele>
        <time>2023-07-04T16:18:47.000Z</time>
      </trkpt>
      <trkpt lat="45.85393" lon="4.67625">
        <ele>330.91287</ele>
        <time>2023-07-04T16:18:49.000Z</time>
      </trkpt>
      <trkpt lat="45.8539" lon="4.67623">
        <ele>329.41766</ele>
        <time>2023-07-04T16:18:50.000Z</time>
      </trkpt>
      <trkpt lat="45.85387" lon="4.67621">
        <ele>328.40323</ele>
        <time>2023-07-04T16:18:51.000Z</time>
      </trkpt>
      <trkpt lat="45.85384" lon="4.67619">
        <ele>328.24091</ele>
        <time>2023-07-04T16:18:52.000Z</time>
      </trkpt>
      <trkpt lat="45.85382" lon="4.67617">
        <ele>328.96832</ele>
        <time>2023-07-04T16:18:53.000Z</time>
      </trkpt>
      <trkpt lat="45.85381" lon="4.67616">
        <ele>329.99957</ele>
        <time>2023-07-04T16:18:54.000Z</time>
      </trkpt>
      <trkpt lat="45.85379" lon="4.67614">
        <ele>331.75952</ele>
        <time>2023-07-04T16:18:55.000Z</time>
      </trkpt>
      <trkpt lat="45.85377" lon="4.67612">
        <ele>332.73203</ele>
        <time>2023-07-04T16:18:56.000Z</time>
      </trkpt>
      <trkpt lat="45.85375" lon="4.67611">
        <ele>334.29327</ele>
        <time>2023-07-04T16:18:57.000Z</time>
      </trkpt>
      <trkpt lat="45.85373" lon="4.6761">
        <ele>334.74765</ele>
        <time>2023-07-04T16:18:58.000Z</time>
      </trkpt>
      <trkpt lat="45.85371" lon="4.6761">
        <ele>335.2662</ele>
        <time>2023-07-04T16:18:59.000Z</time>
      </trkpt>
      <trkpt lat="45.85368" lon="4.6761">
        <ele>335.65091</ele>
        <time>2023-07-04T16:19:00.000Z</time>
      </trkpt>
      <trkpt lat="45.85365" lon="4.6761">
        <ele>336.36176</ele>
        <time>2023-07-04T16:19:01.000Z</time>
      </trkpt>
      <trkpt lat="45.85362" lon="4.67609">
        <ele>337.06055</ele>
        <time>2023-07-04T16:19:02.000Z</time>
      </trkpt>
      <trkpt lat="45.85359" lon="4.67608">
        <ele>339.93018</ele>
        <time>2023-07-04T16:19:03.000Z</time>
      </trkpt>
      <trkpt lat="45.85356" lon="4.67608">
        <ele>341.16299</ele>
        <time>2023-07-04T16:19:04.000Z</time>
      </trkpt>
      <trkpt lat="45.85354" lon="4.67607">
        <ele>342.43631</ele>
        <time>2023-07-04T16:19:05.000Z</time>
      </trkpt>
      <trkpt lat="45.85352" lon="4.67607">
        <ele>343.70377</ele>
        <time>2023-07-04T16:19:06.000Z</time>
      </trkpt>
      <trkpt lat="45.85349" lon="4.67605">
        <ele>345.37402</ele>
        <time>2023-07-04T16:19:07.000Z</time>
      </trkpt>
      <trkpt lat="45.85347" lon="4.67602">
        <ele>347.36542</ele>
        <time>2023-07-04T16:19:08.000Z</time>
      </trkpt>
      <trkpt lat="45.85344" lon="4.676">
        <ele>350.11365</ele>
        <time>2023-07-04T16:19:09.000Z</time>
      </trkpt>
      <trkpt lat="45.85342" lon="4.67597">
        <ele>352.43402</ele>
        <time>2023-07-04T16:19:10.000Z</time>
      </trkpt>
      <trkpt lat="45.8534" lon="4.67594">
        <ele>355.08481</ele>
        <time>2023-07-04T16:19:11.000Z</time>
      </trkpt>
      <trkpt lat="45.85339" lon="4.67591">
        <ele>357.6153</ele>
        <time>2023-07-04T16:19:12.000Z</time>
      </trkpt>
      <trkpt lat="45.85336" lon="4.67589">
        <ele>358.32379</ele>
        <time>2023-07-04T16:19:13.000Z</time>
      </trkpt>
      <trkpt lat="45.85333" lon="4.67587">
        <ele>358.97778</ele>
        <time>2023-07-04T16:19:14.000Z</time>
      </trkpt>
      <trkpt lat="45.85331" lon="4.67586">
        <ele>359.23535</ele>
        <time>2023-07-04T16:19:15.000Z</time>
      </trkpt>
      <trkpt lat="45.85329" lon="4.67585">
        <ele>360.60913</ele>
        <time>2023-07-04T16:19:16.000Z</time>
      </trkpt>
      <trkpt lat="45.85327" lon="4.67584">
        <ele>361.70612</ele>
        <time>2023-07-04T16:19:17.000Z</time>
      </trkpt>
      <trkpt lat="45.85324" lon="4.67582">
        <ele>364.65869</ele>
        <time>2023-07-04T16:19:18.000Z</time>
      </trkpt>
      <trkpt lat="45.85322" lon="4.67581">
        <ele>365.49814</ele>
        <time>2023-07-04T16:19:19.000Z</time>
      </trkpt>
      <trkpt lat="45.85321" lon="4.67579">
        <ele>366.48767</ele>
        <time>2023-07-04T16:19:20.000Z</time>
      </trkpt>
      <trkpt lat="45.85318" lon="4.67578">
        <ele>367.18744</ele>
        <time>2023-07-04T16:19:21.000Z</time>
      </trkpt>
      <trkpt lat="45.85314" lon="4.67576">
        <ele>367.93823</ele>
        <time>2023-07-04T16:19:22.000Z</time>
      </trkpt>
      <trkpt lat="45.85311" lon="4.67574">
        <ele>368.30475</ele>
        <time>2023-07-04T16:19:23.000Z</time>
      </trkpt>
      <trkpt lat="45.85308" lon="4.67573">
        <ele>370.86627</ele>
        <time>2023-07-04T16:19:24.000Z</time>
      </trkpt>
      <trkpt lat="45.85304" lon="4.67572">
        <ele>372.46857</ele>
        <time>2023-07-04T16:19:25.000Z</time>
      </trkpt>
      <trkpt lat="45.85299" lon="4.67571">
        <ele>374.10907</ele>
        <time>2023-07-04T16:19:26.000Z</time>
      </trkpt>
      <trkpt lat="45.85295" lon="4.6757">
        <ele>375.3255</ele>
        <time>2023-07-04T16:19:27.000Z</time>
      </trkpt>
      <trkpt lat="45.85292" lon="4.67569">
        <ele>375.10776</ele>
        <time>2023-07-04T16:19:28.000Z</time>
      </trkpt>
      <trkpt lat="45.85287" lon="4.67568">
        <ele>373.90302</ele>
        <time>2023-07-04T16:19:29.000Z</time>
      </trkpt>
      <trkpt lat="45.85284" lon="4.67567">
        <ele>373.82532</ele>
        <time>2023-07-04T16:19:30.000Z</time>
      </trkpt>
      <trkpt lat="45.85281" lon="4.67567">
        <ele>373.41058</ele>
        <time>2023-07-04T16:19:31.000Z</time>
      </trkpt>
      <trkpt lat="45.85279" lon="4.67567">
        <ele>372.87994</ele>
        <time>2023-07-04T16:19:32.000Z</time>
      </trkpt>
      <trkpt lat="45.85276" lon="4.67567">
        <ele>373.64316</ele>
        <time>2023-07-04T16:19:33.000Z</time>
      </trkpt>
      <trkpt lat="45.85272" lon="4.67567">
        <ele>374.40912</ele>
        <time>2023-07-04T16:19:34.000Z</time>
      </trkpt>
      <trkpt lat="45.85269" lon="4.67567">
        <ele>371.54364</ele>
        <time>2023-07-04T16:19:35.000Z</time>
      </trkpt>
      <trkpt lat="45.85259" lon="4.67564">
        <ele>372.15903</ele>
        <time>2023-07-04T16:19:36.000Z</time>
      </trkpt>
      <trkpt lat="45.85256" lon="4.67562">
        <ele>372.73651</ele>
        <time>2023-07-04T16:19:37.000Z</time>
      </trkpt>
      <trkpt lat="45.85251" lon="4.67561">
        <ele>371.14282</ele>
        <time>2023-07-04T16:19:38.000Z</time>
      </trkpt>
      <trkpt lat="45.85247" lon="4.6756">
        <ele>371.46704</ele>
        <time>2023-07-04T16:19:39.000Z</time>
      </trkpt>
      <trkpt lat="45.85244" lon="4.67559">
        <ele>371.76547</ele>
        <time>2023-07-04T16:19:40.000Z</time>
      </trkpt>
      <trkpt lat="45.85241" lon="4.67558">
        <ele>368.67352</ele>
        <time>2023-07-04T16:19:41.000Z</time>
      </trkpt>
      <trkpt lat="45.85237" lon="4.67557">
        <ele>368.7478</ele>
        <time>2023-07-04T16:19:42.000Z</time>
      </trkpt>
      <trkpt lat="45.85234" lon="4.67558">
        <ele>368.78827</ele>
        <time>2023-07-04T16:19:43.000Z</time>
      </trkpt>
      <trkpt lat="45.85229" lon="4.67561">
        <ele>366.638</ele>
        <time>2023-07-04T16:19:45.000Z</time>
      </trkpt>
      <trkpt lat="45.85225" lon="4.67563">
        <ele>362.19885</ele>
        <time>2023-07-04T16:19:47.000Z</time>
      </trkpt>
      <trkpt lat="45.85222" lon="4.67565">
        <ele>360.66922</ele>
        <time>2023-07-04T16:19:48.000Z</time>
      </trkpt>
      <trkpt lat="45.85219" lon="4.67566">
        <ele>359.12421</ele>
        <time>2023-07-04T16:19:49.000Z</time>
      </trkpt>
      <trkpt lat="45.85216" lon="4.67568">
        <ele>358.59967</ele>
        <time>2023-07-04T16:19:50.000Z</time>
      </trkpt>
      <trkpt lat="45.85213" lon="4.6757">
        <ele>359.19424</ele>
        <time>2023-07-04T16:19:51.000Z</time>
      </trkpt>
      <trkpt lat="45.85211" lon="4.67571">
        <ele>358.4588</ele>
        <time>2023-07-04T16:19:52.000Z</time>
      </trkpt>
      <trkpt lat="45.85208" lon="4.67571">
        <ele>354.58365</ele>
        <time>2023-07-04T16:19:53.000Z</time>
      </trkpt>
      <trkpt lat="45.85205" lon="4.67572">
        <ele>353.64227</ele>
        <time>2023-07-04T16:19:54.000Z</time>
      </trkpt>
      <trkpt lat="45.85202" lon="4.67572">
        <ele>352.68039</ele>
        <time>2023-07-04T16:19:55.000Z</time>
      </trkpt>
      <trkpt lat="45.85198" lon="4.67572">
        <ele>351.63226</ele>
        <time>2023-07-04T16:19:56.000Z</time>
      </trkpt>
      <trkpt lat="45.85195" lon="4.67573">
        <ele>354.13049</ele>
        <time>2023-07-04T16:19:57.000Z</time>
      </trkpt>
      <trkpt lat="45.85193" lon="4.67573">
        <ele>353.25983</ele>
        <time>2023-07-04T16:19:58.000Z</time>
      </trkpt>
      <trkpt lat="45.8519" lon="4.67574">
        <ele>349.53323</ele>
        <time>2023-07-04T16:19:59.000Z</time>
      </trkpt>
      <trkpt lat="45.85186" lon="4.67576">
        <ele>348.37308</ele>
        <time>2023-07-04T16:20:00.000Z</time>
      </trkpt>
      <trkpt lat="45.85183" lon="4.67579">
        <ele>347.23456</ele>
        <time>2023-07-04T16:20:01.000Z</time>
      </trkpt>
      <trkpt lat="45.85179" lon="4.67582">
        <ele>346.02295</ele>
        <time>2023-07-04T16:20:02.000Z</time>
      </trkpt>
      <trkpt lat="45.85176" lon="4.67585">
        <ele>348.09167</ele>
        <time>2023-07-04T16:20:03.000Z</time>
      </trkpt>
      <trkpt lat="45.85172" lon="4.67587">
        <ele>347.06259</ele>
        <time>2023-07-04T16:20:04.000Z</time>
      </trkpt>
      <trkpt lat="45.85168" lon="4.6759">
        <ele>343.54407</ele>
        <time>2023-07-04T16:20:05.000Z</time>
      </trkpt>
      <trkpt lat="45.85165" lon="4.67591">
        <ele>342.28186</ele>
        <time>2023-07-04T16:20:06.000Z</time>
      </trkpt>
      <trkpt lat="45.85162" lon="4.67592">
        <ele>344.1933</ele>
        <time>2023-07-04T16:20:07.000Z</time>
      </trkpt>
      <trkpt lat="45.8516" lon="4.67593">
        <ele>343.29303</ele>
        <time>2023-07-04T16:20:08.000Z</time>
      </trkpt>
      <trkpt lat="45.85157" lon="4.67593">
        <ele>342.42419</ele>
        <time>2023-07-04T16:20:09.000Z</time>
      </trkpt>
      <trkpt lat="45.85155" lon="4.67594">
        <ele>341.5892</ele>
        <time>2023-07-04T16:20:10.000Z</time>
      </trkpt>
      <trkpt lat="45.85152" lon="4.67595">
        <ele>338.44705</ele>
        <time>2023-07-04T16:20:11.000Z</time>
      </trkpt>
      <trkpt lat="45.8515" lon="4.67597">
        <ele>337.4097</ele>
        <time>2023-07-04T16:20:12.000Z</time>
      </trkpt>
      <trkpt lat="45.85148" lon="4.67598">
        <ele>339.46408</ele>
        <time>2023-07-04T16:20:13.000Z</time>
      </trkpt>
      <trkpt lat="45.85146" lon="4.676">
        <ele>338.7081</ele>
        <time>2023-07-04T16:20:14.000Z</time>
      </trkpt>
      <trkpt lat="45.85144" lon="4.67601">
        <ele>337.9614</ele>
        <time>2023-07-04T16:20:15.000Z</time>
      </trkpt>
      <trkpt lat="45.85142" lon="4.67602">
        <ele>337.22546</ele>
        <time>2023-07-04T16:20:16.000Z</time>
      </trkpt>
      <trkpt lat="45.8514" lon="4.67604">
        <ele>334.38019</ele>
        <time>2023-07-04T16:20:17.000Z</time>
      </trkpt>
      <trkpt lat="45.85137" lon="4.67605">
        <ele>333.39267</ele>
        <time>2023-07-04T16:20:18.000Z</time>
      </trkpt>
      <trkpt lat="45.85135" lon="4.67606">
        <ele>335.18097</ele>
        <time>2023-07-04T16:20:19.000Z</time>
      </trkpt>
      <trkpt lat="45.85133" lon="4.67609">
        <ele>334.46335</ele>
        <time>2023-07-04T16:20:20.000Z</time>
      </trkpt>
      <trkpt lat="45.85132" lon="4.67611">
        <ele>333.76788</ele>
        <time>2023-07-04T16:20:21.000Z</time>
      </trkpt>
      <trkpt lat="45.8513" lon="4.67613">
        <ele>333.09454</ele>
        <time>2023-07-04T16:20:22.000Z</time>
      </trkpt>
      <trkpt lat="45.85129" lon="4.67616">
        <ele>330.55963</ele>
        <time>2023-07-04T16:20:23.000Z</time>
      </trkpt>
      <trkpt lat="45.85129" lon="4.67619">
        <ele>329.68301</ele>
        <time>2023-07-04T16:20:24.000Z</time>
      </trkpt>
      <trkpt lat="45.8513" lon="4.67623">
        <ele>331.24829</ele>
        <time>2023-07-04T16:20:25.000Z</time>
      </trkpt>
      <trkpt lat="45.85131" lon="4.67626">
        <ele>330.63348</ele>
        <time>2023-07-04T16:20:26.000Z</time>
      </trkpt>
      <trkpt lat="45.85133" lon="4.67629">
        <ele>330.05109</ele>
        <time>2023-07-04T16:20:27.000Z</time>
      </trkpt>
      <trkpt lat="45.85135" lon="4.67632">
        <ele>329.34396</ele>
        <time>2023-07-04T16:20:28.000Z</time>
      </trkpt>
      <trkpt lat="45.85136" lon="4.67636">
        <ele>326.93872</ele>
        <time>2023-07-04T16:20:29.000Z</time>
      </trkpt>
      <trkpt lat="45.85138" lon="4.67639">
        <ele>326.16446</ele>
        <time>2023-07-04T16:20:30.000Z</time>
      </trkpt>
      <trkpt lat="45.8514" lon="4.67642">
        <ele>326.20233</ele>
        <time>2023-07-04T16:20:31.000Z</time>
      </trkpt>
      <trkpt lat="45.85142" lon="4.67645">
        <ele>324.1507</ele>
        <time>2023-07-04T16:20:32.000Z</time>
      </trkpt>
      <trkpt lat="45.85144" lon="4.67648">
        <ele>322.10519</ele>
        <time>2023-07-04T16:20:33.000Z</time>
      </trkpt>
      <trkpt lat="45.85146" lon="4.67651">
        <ele>319.95563</ele>
        <time>2023-07-04T16:20:34.000Z</time>
      </trkpt>
      <trkpt lat="45.85147" lon="4.67653">
        <ele>317.86124</ele>
        <time>2023-07-04T16:20:35.000Z</time>
      </trkpt>
      <trkpt lat="45.85149" lon="4.67656">
        <ele>315.81433</ele>
        <time>2023-07-04T16:20:36.000Z</time>
      </trkpt>
      <trkpt lat="45.85151" lon="4.6766">
        <ele>316.01178</ele>
        <time>2023-07-04T16:20:37.000Z</time>
      </trkpt>
      <trkpt lat="45.85152" lon="4.67663">
        <ele>314.22028</ele>
        <time>2023-07-04T16:20:38.000Z</time>
      </trkpt>
      <trkpt lat="45.85153" lon="4.67667">
        <ele>312.49738</ele>
        <time>2023-07-04T16:20:39.000Z</time>
      </trkpt>
      <trkpt lat="45.85154" lon="4.67671">
        <ele>310.69653</ele>
        <time>2023-07-04T16:20:40.000Z</time>
      </trkpt>
      <trkpt lat="45.85155" lon="4.67676">
        <ele>308.9523</ele>
        <time>2023-07-04T16:20:41.000Z</time>
      </trkpt>
      <trkpt lat="45.85155" lon="4.67681">
        <ele>307.29495</ele>
        <time>2023-07-04T16:20:42.000Z</time>
      </trkpt>
      <trkpt lat="45.85156" lon="4.67686">
        <ele>307.57852</ele>
        <time>2023-07-04T16:20:43.000Z</time>
      </trkpt>
      <trkpt lat="45.85157" lon="4.6769">
        <ele>306.11298</ele>
        <time>2023-07-04T16:20:44.000Z</time>
      </trkpt>
      <trkpt lat="45.85158" lon="4.67694">
        <ele>304.66763</ele>
        <time>2023-07-04T16:20:45.000Z</time>
      </trkpt>
      <trkpt lat="45.85158" lon="4.67698">
        <ele>303.16217</ele>
        <time>2023-07-04T16:20:46.000Z</time>
      </trkpt>
      <trkpt lat="45.85159" lon="4.67702">
        <ele>301.70313</ele>
        <time>2023-07-04T16:20:47.000Z</time>
      </trkpt>
      <trkpt lat="45.8516" lon="4.67706">
        <ele>300.28113</ele>
        <time>2023-07-04T16:20:48.000Z</time>
      </trkpt>
      <trkpt lat="45.85161" lon="4.6771">
        <ele>300.6041</ele>
        <time>2023-07-04T16:20:49.000Z</time>
      </trkpt>
      <trkpt lat="45.85162" lon="4.67714">
        <ele>299.32147</ele>
        <time>2023-07-04T16:20:50.000Z</time>
      </trkpt>
      <trkpt lat="45.85163" lon="4.67718">
        <ele>299.58966</ele>
        <time>2023-07-04T16:20:51.000Z</time>
      </trkpt>
      <trkpt lat="45.85164" lon="4.67723">
        <ele>299.82611</ele>
        <time>2023-07-04T16:20:52.000Z</time>
      </trkpt>
      <trkpt lat="45.85165" lon="4.67728">
        <ele>300.09393</ele>
        <time>2023-07-04T16:20:53.000Z</time>
      </trkpt>
      <trkpt lat="45.85166" lon="4.67734">
        <ele>300.36871</ele>
        <time>2023-07-04T16:20:54.000Z</time>
      </trkpt>
      <trkpt lat="45.85167" lon="4.67739">
        <ele>300.60458</ele>
        <time>2023-07-04T16:20:55.000Z</time>
      </trkpt>
      <trkpt lat="45.85169" lon="4.67746">
        <ele>300.81</ele>
        <time>2023-07-04T16:20:56.000Z</time>
      </trkpt>
      <trkpt lat="45.8517" lon="4.67754">
        <ele>300.9086</ele>
        <time>2023-07-04T16:20:57.000Z</time>
      </trkpt>
      <trkpt lat="45.85171" lon="4.67762">
        <ele>301.00421</ele>
        <time>2023-07-04T16:20:58.000Z</time>
      </trkpt>
      <trkpt lat="45.85171" lon="4.67769">
        <ele>301.05759</ele>
        <time>2023-07-04T16:20:59.000Z</time>
      </trkpt>
      <trkpt lat="45.8517" lon="4.67779">
        <ele>301.09268</ele>
        <time>2023-07-04T16:21:00.000Z</time>
      </trkpt>
      <trkpt lat="45.85169" lon="4.67788">
        <ele>301.10016</ele>
        <time>2023-07-04T16:21:01.000Z</time>
      </trkpt>
      <trkpt lat="45.85168" lon="4.67797">
        <ele>301.02832</ele>
        <time>2023-07-04T16:21:02.000Z</time>
      </trkpt>
      <trkpt lat="45.85169" lon="4.67804">
        <ele>301.02994</ele>
        <time>2023-07-04T16:21:03.000Z</time>
      </trkpt>
      <trkpt lat="45.85171" lon="4.67811">
        <ele>301.01898</ele>
        <time>2023-07-04T16:21:04.000Z</time>
      </trkpt>
      <trkpt lat="45.85173" lon="4.67819">
        <ele>301.03113</ele>
        <time>2023-07-04T16:21:05.000Z</time>
      </trkpt>
      <trkpt lat="45.85171" lon="4.67828">
        <ele>301.02573</ele>
        <time>2023-07-04T16:21:06.000Z</time>
      </trkpt>
      <trkpt lat="45.85167" lon="4.67837">
        <ele>301.00443</ele>
        <time>2023-07-04T16:21:07.000Z</time>
      </trkpt>
      <trkpt lat="45.85164" lon="4.67844">
        <ele>302.48657</ele>
        <time>2023-07-04T16:21:08.000Z</time>
      </trkpt>
      <trkpt lat="45.85161" lon="4.67849">
        <ele>304.01996</ele>
        <time>2023-07-04T16:21:09.000Z</time>
      </trkpt>
      <trkpt lat="45.85158" lon="4.67852">
        <ele>305.49246</ele>
        <time>2023-07-04T16:21:10.000Z</time>
      </trkpt>
      <trkpt lat="45.85154" lon="4.67855">
        <ele>306.97797</ele>
        <time>2023-07-04T16:21:11.000Z</time>
      </trkpt>
      <trkpt lat="45.85153" lon="4.67863">
        <ele>308.37454</ele>
        <time>2023-07-04T16:21:13.000Z</time>
      </trkpt>
      <trkpt lat="45.85152" lon="4.67868">
        <ele>309.76675</ele>
        <time>2023-07-04T16:21:14.000Z</time>
      </trkpt>
      <trkpt lat="45.85149" lon="4.67872">
        <ele>310.15668</ele>
        <time>2023-07-04T16:21:15.000Z</time>
      </trkpt>
      <trkpt lat="45.85146" lon="4.67878">
        <ele>310.58765</ele>
        <time>2023-07-04T16:21:16.000Z</time>
      </trkpt>
      <trkpt lat="45.85144" lon="4.67883">
        <ele>311.76065</ele>
        <time>2023-07-04T16:21:17.000Z</time>
      </trkpt>
      <trkpt lat="45.85141" lon="4.67888">
        <ele>313.16953</ele>
        <time>2023-07-04T16:21:18.000Z</time>
      </trkpt>
      <trkpt lat="45.85137" lon="4.67893">
        <ele>314.59283</ele>
        <time>2023-07-04T16:21:19.000Z</time>
      </trkpt>
      <trkpt lat="45.85134" lon="4.67898">
        <ele>316.01877</ele>
        <time>2023-07-04T16:21:20.000Z</time>
      </trkpt>
      <trkpt lat="45.85131" lon="4.67906">
        <ele>317.4361</ele>
        <time>2023-07-04T16:21:21.000Z</time>
      </trkpt>
      <trkpt lat="45.85128" lon="4.67914">
        <ele>318.84259</ele>
        <time>2023-07-04T16:21:22.000Z</time>
      </trkpt>
      <trkpt lat="45.85124" lon="4.67923">
        <ele>320.26068</ele>
        <time>2023-07-04T16:21:23.000Z</time>
      </trkpt>
      <trkpt lat="45.8512" lon="4.67931">
        <ele>321.57016</ele>
        <time>2023-07-04T16:21:24.000Z</time>
      </trkpt>
      <trkpt lat="45.85116" lon="4.6794">
        <ele>322.85223</ele>
        <time>2023-07-04T16:21:25.000Z</time>
      </trkpt>
      <trkpt lat="45.85111" lon="4.67951">
        <ele>324.1131</ele>
        <time>2023-07-04T16:21:26.000Z</time>
      </trkpt>
      <trkpt lat="45.85106" lon="4.67962">
        <ele>325.33966</ele>
        <time>2023-07-04T16:21:27.000Z</time>
      </trkpt>
      <trkpt lat="45.85102" lon="4.67973">
        <ele>326.55637</ele>
        <time>2023-07-04T16:21:28.000Z</time>
      </trkpt>
      <trkpt lat="45.85098" lon="4.67985">
        <ele>326.25699</ele>
        <time>2023-07-04T16:21:29.000Z</time>
      </trkpt>
      <trkpt lat="45.85094" lon="4.67995">
        <ele>326.47867</ele>
        <time>2023-07-04T16:21:30.000Z</time>
      </trkpt>
      <trkpt lat="45.8509" lon="4.68005">
        <ele>327.17181</ele>
        <time>2023-07-04T16:21:31.000Z</time>
      </trkpt>
      <trkpt lat="45.85086" lon="4.68013">
        <ele>326.60376</ele>
        <time>2023-07-04T16:21:32.000Z</time>
      </trkpt>
      <trkpt lat="45.85082" lon="4.68019">
        <ele>326.3093</ele>
        <time>2023-07-04T16:21:33.000Z</time>
      </trkpt>
      <trkpt lat="45.85078" lon="4.68025">
        <ele>326.03033</ele>
        <time>2023-07-04T16:21:34.000Z</time>
      </trkpt>
      <trkpt lat="45.85076" lon="4.68029">
        <ele>326.75653</ele>
        <time>2023-07-04T16:21:35.000Z</time>
      </trkpt>
      <trkpt lat="45.85074" lon="4.68033">
        <ele>327.44415</ele>
        <time>2023-07-04T16:21:36.000Z</time>
      </trkpt>
      <trkpt lat="45.85074" lon="4.68035">
        <ele>327.62271</ele>
        <time>2023-07-04T16:21:38.000Z</time>
      </trkpt>
      <trkpt lat="45.85072" lon="4.68037">
        <ele>325.82721</ele>
        <time>2023-07-04T16:22:17.000Z</time>
      </trkpt>
      <trkpt lat="45.85069" lon="4.68039">
        <ele>325.67221</ele>
        <time>2023-07-04T16:22:19.000Z</time>
      </trkpt>
      <trkpt lat="45.85067" lon="4.68038">
        <ele>325.52975</ele>
        <time>2023-07-04T16:22:20.000Z</time>
      </trkpt>
      <trkpt lat="45.85065" lon="4.68037">
        <ele>325.39566</ele>
        <time>2023-07-04T16:22:21.000Z</time>
      </trkpt>
      <trkpt lat="45.85063" lon="4.68035">
        <ele>325.27252</ele>
        <time>2023-07-04T16:22:22.000Z</time>
      </trkpt>
      <trkpt lat="45.85062" lon="4.68032">
        <ele>323.52866</ele>
        <time>2023-07-04T16:22:23.000Z</time>
      </trkpt>
      <trkpt lat="45.8506" lon="4.68029">
        <ele>323.34421</ele>
        <time>2023-07-04T16:22:24.000Z</time>
      </trkpt>
      <trkpt lat="45.85058" lon="4.68026">
        <ele>323.17786</ele>
        <time>2023-07-04T16:22:25.000Z</time>
      </trkpt>
      <trkpt lat="45.85056" lon="4.68024">
        <ele>323.02496</ele>
        <time>2023-07-04T16:22:26.000Z</time>
      </trkpt>
      <trkpt lat="45.85053" lon="4.68021">
        <ele>322.89807</ele>
        <time>2023-07-04T16:22:27.000Z</time>
      </trkpt>
      <trkpt lat="45.8505" lon="4.68018">
        <ele>321.29709</ele>
        <time>2023-07-04T16:22:28.000Z</time>
      </trkpt>
      <trkpt lat="45.85048" lon="4.68016">
        <ele>319.71655</ele>
        <time>2023-07-04T16:22:29.000Z</time>
      </trkpt>
      <trkpt lat="45.85046" lon="4.68015">
        <ele>317.55847</ele>
        <time>2023-07-04T16:22:30.000Z</time>
      </trkpt>
      <trkpt lat="45.85044" lon="4.68012">
        <ele>317.14337</ele>
        <time>2023-07-04T16:22:31.000Z</time>
      </trkpt>
      <trkpt lat="45.85041" lon="4.68009">
        <ele>317.49615</ele>
        <time>2023-07-04T16:22:32.000Z</time>
      </trkpt>
      <trkpt lat="45.8504" lon="4.68006">
        <ele>317.67343</ele>
        <time>2023-07-04T16:22:33.000Z</time>
      </trkpt>
      <trkpt lat="45.85038" lon="4.68003">
        <ele>317.88672</ele>
        <time>2023-07-04T16:22:34.000Z</time>
      </trkpt>
      <trkpt lat="45.85035" lon="4.68">
        <ele>318.11697</ele>
        <time>2023-07-04T16:22:35.000Z</time>
      </trkpt>
      <trkpt lat="45.85033" lon="4.67998">
        <ele>318.37534</ele>
        <time>2023-07-04T16:22:36.000Z</time>
      </trkpt>
      <trkpt lat="45.8503" lon="4.67995">
        <ele>316.77924</ele>
        <time>2023-07-04T16:22:37.000Z</time>
      </trkpt>
      <trkpt lat="45.85027" lon="4.67992">
        <ele>316.9361</ele>
        <time>2023-07-04T16:22:38.000Z</time>
      </trkpt>
      <trkpt lat="45.85025" lon="4.67989">
        <ele>315.44348</ele>
        <time>2023-07-04T16:22:39.000Z</time>
      </trkpt>
      <trkpt lat="45.85022" lon="4.67987">
        <ele>313.95782</ele>
        <time>2023-07-04T16:22:40.000Z</time>
      </trkpt>
      <trkpt lat="45.85019" lon="4.67984">
        <ele>312.51083</ele>
        <time>2023-07-04T16:22:41.000Z</time>
      </trkpt>
      <trkpt lat="45.85016" lon="4.67982">
        <ele>312.76245</ele>
        <time>2023-07-04T16:22:42.000Z</time>
      </trkpt>
      <trkpt lat="45.85014" lon="4.6798">
        <ele>314.67105</ele>
        <time>2023-07-04T16:22:43.000Z</time>
      </trkpt>
      <trkpt lat="45.85012" lon="4.67976">
        <ele>315.60614</ele>
        <time>2023-07-04T16:22:44.000Z</time>
      </trkpt>
      <trkpt lat="45.8501" lon="4.67972">
        <ele>315.21924</ele>
        <time>2023-07-04T16:22:45.000Z</time>
      </trkpt>
      <trkpt lat="45.85008" lon="4.67969">
        <ele>314.82132</ele>
        <time>2023-07-04T16:22:46.000Z</time>
      </trkpt>
      <trkpt lat="45.85006" lon="4.67966">
        <ele>315.08673</ele>
        <time>2023-07-04T16:22:47.000Z</time>
      </trkpt>
      <trkpt lat="45.85004" lon="4.67964">
        <ele>317.04565</ele>
        <time>2023-07-04T16:22:48.000Z</time>
      </trkpt>
      <trkpt lat="45.85001" lon="4.67962">
        <ele>319.0011</ele>
        <time>2023-07-04T16:22:49.000Z</time>
      </trkpt>
      <trkpt lat="45.84998" lon="4.6796">
        <ele>319.27048</ele>
        <time>2023-07-04T16:22:50.000Z</time>
      </trkpt>
      <trkpt lat="45.84997" lon="4.67957">
        <ele>317.40143</ele>
        <time>2023-07-04T16:22:51.000Z</time>
      </trkpt>
      <trkpt lat="45.84995" lon="4.67954">
        <ele>316.02362</ele>
        <time>2023-07-04T16:22:52.000Z</time>
      </trkpt>
      <trkpt lat="45.84993" lon="4.6795">
        <ele>314.63251</ele>
        <time>2023-07-04T16:22:53.000Z</time>
      </trkpt>
      <trkpt lat="45.84991" lon="4.67947">
        <ele>313.24014</ele>
        <time>2023-07-04T16:22:54.000Z</time>
      </trkpt>
      <trkpt lat="45.84989" lon="4.67944">
        <ele>311.86536</ele>
        <time>2023-07-04T16:22:55.000Z</time>
      </trkpt>
      <trkpt lat="45.84986" lon="4.6794">
        <ele>310.50055</ele>
        <time>2023-07-04T16:22:56.000Z</time>
      </trkpt>
      <trkpt lat="45.84984" lon="4.67937">
        <ele>310.79071</ele>
        <time>2023-07-04T16:22:57.000Z</time>
      </trkpt>
      <trkpt lat="45.84982" lon="4.67934">
        <ele>311.1062</ele>
        <time>2023-07-04T16:22:58.000Z</time>
      </trkpt>
      <trkpt lat="45.84979" lon="4.67931">
        <ele>311.43881</ele>
        <time>2023-07-04T16:22:59.000Z</time>
      </trkpt>
      <trkpt lat="45.84977" lon="4.67927">
        <ele>312.21283</ele>
        <time>2023-07-04T16:23:00.000Z</time>
      </trkpt>
      <trkpt lat="45.84975" lon="4.67924">
        <ele>314.01709</ele>
        <time>2023-07-04T16:23:01.000Z</time>
      </trkpt>
      <trkpt lat="45.84972" lon="4.6792">
        <ele>312.66907</ele>
        <time>2023-07-04T16:23:02.000Z</time>
      </trkpt>
      <trkpt lat="45.8497" lon="4.67917">
        <ele>311.32083</ele>
        <time>2023-07-04T16:23:03.000Z</time>
      </trkpt>
      <trkpt lat="45.84968" lon="4.67915">
        <ele>309.4133</ele>
        <time>2023-07-04T16:23:04.000Z</time>
      </trkpt>
      <trkpt lat="45.84966" lon="4.67912">
        <ele>308.8335</ele>
        <time>2023-07-04T16:23:05.000Z</time>
      </trkpt>
      <trkpt lat="45.84965" lon="4.67909">
        <ele>308.28107</ele>
        <time>2023-07-04T16:23:06.000Z</time>
      </trkpt>
      <trkpt lat="45.84963" lon="4.67906">
        <ele>307.09238</ele>
        <time>2023-07-04T16:23:07.000Z</time>
      </trkpt>
      <trkpt lat="45.84961" lon="4.67903">
        <ele>305.72342</ele>
        <time>2023-07-04T16:23:08.000Z</time>
      </trkpt>
      <trkpt lat="45.84958" lon="4.679">
        <ele>304.36884</ele>
        <time>2023-07-04T16:23:09.000Z</time>
      </trkpt>
      <trkpt lat="45.84956" lon="4.67897">
        <ele>304.69965</ele>
        <time>2023-07-04T16:23:10.000Z</time>
      </trkpt>
      <trkpt lat="45.84954" lon="4.67894">
        <ele>305.04425</ele>
        <time>2023-07-04T16:23:11.000Z</time>
      </trkpt>
      <trkpt lat="45.84951" lon="4.67892">
        <ele>305.3541</ele>
        <time>2023-07-04T16:23:12.000Z</time>
      </trkpt>
      <trkpt lat="45.84949" lon="4.67889">
        <ele>305.65576</ele>
        <time>2023-07-04T16:23:13.000Z</time>
      </trkpt>
      <trkpt lat="45.84947" lon="4.67886">
        <ele>305.93018</ele>
        <time>2023-07-04T16:23:14.000Z</time>
      </trkpt>
      <trkpt lat="45.84945" lon="4.67883">
        <ele>306.17279</ele>
        <time>2023-07-04T16:23:15.000Z</time>
      </trkpt>
      <trkpt lat="45.84942" lon="4.6788">
        <ele>306.38095</ele>
        <time>2023-07-04T16:23:16.000Z</time>
      </trkpt>
      <trkpt lat="45.84939" lon="4.67877">
        <ele>306.66812</ele>
        <time>2023-07-04T16:23:17.000Z</time>
      </trkpt>
      <trkpt lat="45.84937" lon="4.67875">
        <ele>306.94324</ele>
        <time>2023-07-04T16:23:18.000Z</time>
      </trkpt>
      <trkpt lat="45.84934" lon="4.67872">
        <ele>307.22156</ele>
        <time>2023-07-04T16:23:19.000Z</time>
      </trkpt>
      <trkpt lat="45.84931" lon="4.67869">
        <ele>307.07339</ele>
        <time>2023-07-04T16:23:20.000Z</time>
      </trkpt>
      <trkpt lat="45.84929" lon="4.67866">
        <ele>305.86087</ele>
        <time>2023-07-04T16:23:21.000Z</time>
      </trkpt>
      <trkpt lat="45.84927" lon="4.67864">
        <ele>306.13763</ele>
        <time>2023-07-04T16:23:22.000Z</time>
      </trkpt>
      <trkpt lat="45.84924" lon="4.67862">
        <ele>306.40375</ele>
        <time>2023-07-04T16:23:23.000Z</time>
      </trkpt>
      <trkpt lat="45.84921" lon="4.67859">
        <ele>306.67218</ele>
        <time>2023-07-04T16:23:24.000Z</time>
      </trkpt>
      <trkpt lat="45.84919" lon="4.67857">
        <ele>306.95892</ele>
        <time>2023-07-04T16:23:25.000Z</time>
      </trkpt>
      <trkpt lat="45.84916" lon="4.67855">
        <ele>307.2652</ele>
        <time>2023-07-04T16:23:26.000Z</time>
      </trkpt>
      <trkpt lat="45.84913" lon="4.67853">
        <ele>307.55331</ele>
        <time>2023-07-04T16:23:27.000Z</time>
      </trkpt>
      <trkpt lat="45.8491" lon="4.67851">
        <ele>307.83072</ele>
        <time>2023-07-04T16:23:28.000Z</time>
      </trkpt>
      <trkpt lat="45.84907" lon="4.67849">
        <ele>308.09</ele>
        <time>2023-07-04T16:23:29.000Z</time>
      </trkpt>
      <trkpt lat="45.84904" lon="4.67848">
        <ele>308.35233</ele>
        <time>2023-07-04T16:23:30.000Z</time>
      </trkpt>
      <trkpt lat="45.84901" lon="4.67846">
        <ele>308.62018</ele>
        <time>2023-07-04T16:23:31.000Z</time>
      </trkpt>
      <trkpt lat="45.84898" lon="4.67845">
        <ele>308.87506</ele>
        <time>2023-07-04T16:23:32.000Z</time>
      </trkpt>
      <trkpt lat="45.84895" lon="4.67843">
        <ele>309.15143</ele>
        <time>2023-07-04T16:23:33.000Z</time>
      </trkpt>
      <trkpt lat="45.84892" lon="4.67841">
        <ele>309.42981</ele>
        <time>2023-07-04T16:23:34.000Z</time>
      </trkpt>
      <trkpt lat="45.84889" lon="4.67839">
        <ele>309.58865</ele>
        <time>2023-07-04T16:23:35.000Z</time>
      </trkpt>
      <trkpt lat="45.84887" lon="4.67837">
        <ele>309.7709</ele>
        <time>2023-07-04T16:23:36.000Z</time>
      </trkpt>
      <trkpt lat="45.84884" lon="4.67835">
        <ele>309.87012</ele>
        <time>2023-07-04T16:23:37.000Z</time>
      </trkpt>
      <trkpt lat="45.84881" lon="4.67833">
        <ele>310.10928</ele>
        <time>2023-07-04T16:23:38.000Z</time>
      </trkpt>
      <trkpt lat="45.84877" lon="4.67832">
        <ele>310.35782</ele>
        <time>2023-07-04T16:23:39.000Z</time>
      </trkpt>
      <trkpt lat="45.84874" lon="4.6783">
        <ele>310.58218</ele>
        <time>2023-07-04T16:23:40.000Z</time>
      </trkpt>
      <trkpt lat="45.84871" lon="4.67829">
        <ele>310.80362</ele>
        <time>2023-07-04T16:23:41.000Z</time>
      </trkpt>
      <trkpt lat="45.84868" lon="4.67827">
        <ele>311.02261</ele>
        <time>2023-07-04T16:23:42.000Z</time>
      </trkpt>
      <trkpt lat="45.84864" lon="4.67825">
        <ele>311.25543</ele>
        <time>2023-07-04T16:23:43.000Z</time>
      </trkpt>
      <trkpt lat="45.84861" lon="4.67824">
        <ele>311.40506</ele>
        <time>2023-07-04T16:23:44.000Z</time>
      </trkpt>
      <trkpt lat="45.84858" lon="4.67822">
        <ele>311.54025</ele>
        <time>2023-07-04T16:23:45.000Z</time>
      </trkpt>
      <trkpt lat="45.84854" lon="4.67821">
        <ele>311.64496</ele>
        <time>2023-07-04T16:23:46.000Z</time>
      </trkpt>
      <trkpt lat="45.84851" lon="4.67819">
        <ele>311.75555</ele>
        <time>2023-07-04T16:23:47.000Z</time>
      </trkpt>
      <trkpt lat="45.84848" lon="4.67818">
        <ele>311.86813</ele>
        <time>2023-07-04T16:23:48.000Z</time>
      </trkpt>
      <trkpt lat="45.84845" lon="4.67817">
        <ele>311.99557</ele>
        <time>2023-07-04T16:23:49.000Z</time>
      </trkpt>
      <trkpt lat="45.84842" lon="4.67815">
        <ele>312.13165</ele>
        <time>2023-07-04T16:23:50.000Z</time>
      </trkpt>
      <trkpt lat="45.84839" lon="4.67814">
        <ele>312.26697</ele>
        <time>2023-07-04T16:23:51.000Z</time>
      </trkpt>
      <trkpt lat="45.84836" lon="4.67813">
        <ele>312.43195</ele>
        <time>2023-07-04T16:23:52.000Z</time>
      </trkpt>
      <trkpt lat="45.84833" lon="4.67812">
        <ele>312.56281</ele>
        <time>2023-07-04T16:23:53.000Z</time>
      </trkpt>
      <trkpt lat="45.84829" lon="4.67811">
        <ele>312.69037</ele>
        <time>2023-07-04T16:23:54.000Z</time>
      </trkpt>
      <trkpt lat="45.84826" lon="4.6781">
        <ele>312.92892</ele>
        <time>2023-07-04T16:23:55.000Z</time>
      </trkpt>
      <trkpt lat="45.84823" lon="4.67809">
        <ele>313.16949</ele>
        <time>2023-07-04T16:23:56.000Z</time>
      </trkpt>
      <trkpt lat="45.8482" lon="4.67808">
        <ele>313.39899</ele>
        <time>2023-07-04T16:23:57.000Z</time>
      </trkpt>
      <trkpt lat="45.84817" lon="4.67806">
        <ele>313.43304</ele>
        <time>2023-07-04T16:23:58.000Z</time>
      </trkpt>
      <trkpt lat="45.84815" lon="4.67806">
        <ele>313.60309</ele>
        <time>2023-07-04T16:23:59.000Z</time>
      </trkpt>
      <trkpt lat="45.84813" lon="4.67806">
        <ele>313.76141</ele>
        <time>2023-07-04T16:24:00.000Z</time>
      </trkpt>
      <trkpt lat="45.84811" lon="4.67808">
        <ele>313.92001</ele>
        <time>2023-07-04T16:24:02.000Z</time>
      </trkpt>
      <trkpt lat="45.84808" lon="4.67809">
        <ele>313.97699</ele>
        <time>2023-07-04T16:25:04.000Z</time>
      </trkpt>
      <trkpt lat="45.84807" lon="4.67807">
        <ele>314.02646</ele>
        <time>2023-07-04T16:25:05.000Z</time>
      </trkpt>
      <trkpt lat="45.84805" lon="4.67805">
        <ele>314.15903</ele>
        <time>2023-07-04T16:25:06.000Z</time>
      </trkpt>
      <trkpt lat="45.84802" lon="4.67802">
        <ele>314.29617</ele>
        <time>2023-07-04T16:25:07.000Z</time>
      </trkpt>
      <trkpt lat="45.84799" lon="4.678">
        <ele>314.38031</ele>
        <time>2023-07-04T16:25:08.000Z</time>
      </trkpt>
      <trkpt lat="45.84796" lon="4.67799">
        <ele>314.61395</ele>
        <time>2023-07-04T16:25:09.000Z</time>
      </trkpt>
      <trkpt lat="45.84793" lon="4.67798">
        <ele>314.79825</ele>
        <time>2023-07-04T16:25:10.000Z</time>
      </trkpt>
      <trkpt lat="45.84791" lon="4.67797">
        <ele>314.93637</ele>
        <time>2023-07-04T16:25:11.000Z</time>
      </trkpt>
      <trkpt lat="45.84788" lon="4.67796">
        <ele>315.09906</ele>
        <time>2023-07-04T16:25:12.000Z</time>
      </trkpt>
      <trkpt lat="45.84786" lon="4.67796">
        <ele>315.26373</ele>
        <time>2023-07-04T16:25:13.000Z</time>
      </trkpt>
      <trkpt lat="45.84783" lon="4.67795">
        <ele>315.39841</ele>
        <time>2023-07-04T16:25:14.000Z</time>
      </trkpt>
      <trkpt lat="45.8478" lon="4.67794">
        <ele>315.55945</ele>
        <time>2023-07-04T16:25:15.000Z</time>
      </trkpt>
      <trkpt lat="45.84776" lon="4.67793">
        <ele>315.71231</ele>
        <time>2023-07-04T16:25:16.000Z</time>
      </trkpt>
      <trkpt lat="45.84773" lon="4.67792">
        <ele>315.81665</ele>
        <time>2023-07-04T16:25:17.000Z</time>
      </trkpt>
      <trkpt lat="45.8477" lon="4.67792">
        <ele>315.93784</ele>
        <time>2023-07-04T16:25:18.000Z</time>
      </trkpt>
      <trkpt lat="45.84767" lon="4.67791">
        <ele>316.08182</ele>
        <time>2023-07-04T16:25:19.000Z</time>
      </trkpt>
      <trkpt lat="45.84764" lon="4.6779">
        <ele>316.31036</ele>
        <time>2023-07-04T16:25:20.000Z</time>
      </trkpt>
      <trkpt lat="45.84761" lon="4.67789">
        <ele>316.33002</ele>
        <time>2023-07-04T16:25:21.000Z</time>
      </trkpt>
      <trkpt lat="45.84757" lon="4.67788">
        <ele>316.40582</ele>
        <time>2023-07-04T16:25:22.000Z</time>
      </trkpt>
      <trkpt lat="45.84753" lon="4.67787">
        <ele>316.52307</ele>
        <time>2023-07-04T16:25:23.000Z</time>
      </trkpt>
      <trkpt lat="45.84749" lon="4.67786">
        <ele>316.69791</ele>
        <time>2023-07-04T16:25:24.000Z</time>
      </trkpt>
      <trkpt lat="45.84746" lon="4.67784">
        <ele>316.87433</ele>
        <time>2023-07-04T16:25:25.000Z</time>
      </trkpt>
      <trkpt lat="45.84742" lon="4.67783">
        <ele>317.04071</ele>
        <time>2023-07-04T16:25:26.000Z</time>
      </trkpt>
      <trkpt lat="45.84738" lon="4.67781">
        <ele>317.19455</ele>
        <time>2023-07-04T16:25:27.000Z</time>
      </trkpt>
      <trkpt lat="45.84734" lon="4.6778">
        <ele>317.39944</ele>
        <time>2023-07-04T16:25:28.000Z</time>
      </trkpt>
      <trkpt lat="45.8473" lon="4.67779">
        <ele>317.36511</ele>
        <time>2023-07-04T16:25:29.000Z</time>
      </trkpt>
      <trkpt lat="45.84726" lon="4.67778">
        <ele>317.33618</ele>
        <time>2023-07-04T16:25:30.000Z</time>
      </trkpt>
      <trkpt lat="45.84723" lon="4.67777">
        <ele>317.36139</ele>
        <time>2023-07-04T16:25:31.000Z</time>
      </trkpt>
      <trkpt lat="45.8472" lon="4.67775">
        <ele>317.38193</ele>
        <time>2023-07-04T16:25:32.000Z</time>
      </trkpt>
      <trkpt lat="45.84716" lon="4.67772">
        <ele>317.39343</ele>
        <time>2023-07-04T16:25:33.000Z</time>
      </trkpt>
      <trkpt lat="45.84713" lon="4.6777">
        <ele>317.38702</ele>
        <time>2023-07-04T16:25:34.000Z</time>
      </trkpt>
      <trkpt lat="45.8471" lon="4.67768">
        <ele>317.37018</ele>
        <time>2023-07-04T16:25:35.000Z</time>
      </trkpt>
      <trkpt lat="45.84706" lon="4.67767">
        <ele>317.35757</ele>
        <time>2023-07-04T16:25:36.000Z</time>
      </trkpt>
      <trkpt lat="45.84703" lon="4.67765">
        <ele>317.39716</ele>
        <time>2023-07-04T16:25:37.000Z</time>
      </trkpt>
      <trkpt lat="45.84699" lon="4.67763">
        <ele>317.41534</ele>
        <time>2023-07-04T16:25:38.000Z</time>
      </trkpt>
      <trkpt lat="45.84696" lon="4.67761">
        <ele>317.4035</ele>
        <time>2023-07-04T16:25:39.000Z</time>
      </trkpt>
      <trkpt lat="45.84692" lon="4.67759">
        <ele>317.36969</ele>
        <time>2023-07-04T16:25:40.000Z</time>
      </trkpt>
      <trkpt lat="45.84689" lon="4.67758">
        <ele>317.38284</ele>
        <time>2023-07-04T16:25:41.000Z</time>
      </trkpt>
      <trkpt lat="45.84685" lon="4.67756">
        <ele>317.34576</ele>
        <time>2023-07-04T16:25:42.000Z</time>
      </trkpt>
      <trkpt lat="45.84682" lon="4.67754">
        <ele>317.26901</ele>
        <time>2023-07-04T16:25:43.000Z</time>
      </trkpt>
      <trkpt lat="45.84678" lon="4.67752">
        <ele>317.21078</ele>
        <time>2023-07-04T16:25:44.000Z</time>
      </trkpt>
      <trkpt lat="45.84675" lon="4.6775">
        <ele>317.15039</ele>
        <time>2023-07-04T16:25:45.000Z</time>
      </trkpt>
      <trkpt lat="45.84672" lon="4.67748">
        <ele>317.05267</ele>
        <time>2023-07-04T16:25:46.000Z</time>
      </trkpt>
      <trkpt lat="45.84668" lon="4.67745">
        <ele>316.92474</ele>
        <time>2023-07-04T16:25:47.000Z</time>
      </trkpt>
      <trkpt lat="45.84665" lon="4.67743">
        <ele>316.99911</ele>
        <time>2023-07-04T16:25:48.000Z</time>
      </trkpt>
      <trkpt lat="45.84661" lon="4.67741">
        <ele>317.11176</ele>
        <time>2023-07-04T16:25:49.000Z</time>
      </trkpt>
      <trkpt lat="45.84658" lon="4.67739">
        <ele>317.26617</ele>
        <time>2023-07-04T16:25:50.000Z</time>
      </trkpt>
      <trkpt lat="45.84654" lon="4.67737">
        <ele>317.38391</ele>
        <time>2023-07-04T16:25:51.000Z</time>
      </trkpt>
      <trkpt lat="45.84651" lon="4.67735">
        <ele>317.47998</ele>
        <time>2023-07-04T16:25:52.000Z</time>
      </trkpt>
      <trkpt lat="45.84648" lon="4.67733">
        <ele>317.57523</ele>
        <time>2023-07-04T16:25:53.000Z</time>
      </trkpt>
      <trkpt lat="45.84644" lon="4.67731">
        <ele>317.59433</ele>
        <time>2023-07-04T16:25:54.000Z</time>
      </trkpt>
      <trkpt lat="45.84641" lon="4.67729">
        <ele>317.61734</ele>
        <time>2023-07-04T16:25:55.000Z</time>
      </trkpt>
      <trkpt lat="45.84637" lon="4.67727">
        <ele>317.64648</ele>
        <time>2023-07-04T16:25:56.000Z</time>
      </trkpt>
      <trkpt lat="45.84634" lon="4.67724">
        <ele>317.67657</ele>
        <time>2023-07-04T16:25:57.000Z</time>
      </trkpt>
      <trkpt lat="45.8463" lon="4.67722">
        <ele>317.63202</ele>
        <time>2023-07-04T16:25:58.000Z</time>
      </trkpt>
      <trkpt lat="45.84626" lon="4.6772">
        <ele>317.79965</ele>
        <time>2023-07-04T16:25:59.000Z</time>
      </trkpt>
      <trkpt lat="45.84623" lon="4.67718">
        <ele>317.90753</ele>
        <time>2023-07-04T16:26:00.000Z</time>
      </trkpt>
      <trkpt lat="45.8462" lon="4.67716">
        <ele>318.03632</ele>
        <time>2023-07-04T16:26:01.000Z</time>
      </trkpt>
      <trkpt lat="45.84617" lon="4.67714">
        <ele>318.17639</ele>
        <time>2023-07-04T16:26:02.000Z</time>
      </trkpt>
      <trkpt lat="45.84614" lon="4.67712">
        <ele>318.3089</ele>
        <time>2023-07-04T16:26:03.000Z</time>
      </trkpt>
      <trkpt lat="45.84611" lon="4.6771">
        <ele>318.4306</ele>
        <time>2023-07-04T16:26:04.000Z</time>
      </trkpt>
      <trkpt lat="45.84607" lon="4.67709">
        <ele>318.40723</ele>
        <time>2023-07-04T16:26:05.000Z</time>
      </trkpt>
      <trkpt lat="45.84604" lon="4.67709">
        <ele>318.40228</ele>
        <time>2023-07-04T16:26:06.000Z</time>
      </trkpt>
      <trkpt lat="45.846" lon="4.67711">
        <ele>318.62823</ele>
        <time>2023-07-04T16:26:07.000Z</time>
      </trkpt>
      <trkpt lat="45.84597" lon="4.67713">
        <ele>318.61197</ele>
        <time>2023-07-04T16:26:08.000Z</time>
      </trkpt>
      <trkpt lat="45.84594" lon="4.67715">
        <ele>318.61414</ele>
        <time>2023-07-04T16:26:09.000Z</time>
      </trkpt>
      <trkpt lat="45.84591" lon="4.67719">
        <ele>318.63037</ele>
        <time>2023-07-04T16:26:10.000Z</time>
      </trkpt>
      <trkpt lat="45.8459" lon="4.67722">
        <ele>318.64499</ele>
        <time>2023-07-04T16:26:11.000Z</time>
      </trkpt>
      <trkpt lat="45.84589" lon="4.67725">
        <ele>318.65958</ele>
        <time>2023-07-04T16:26:12.000Z</time>
      </trkpt>
      <trkpt lat="45.84588" lon="4.67729">
        <ele>318.67108</ele>
        <time>2023-07-04T16:26:14.000Z</time>
      </trkpt>
      <trkpt lat="45.84584" lon="4.6773">
        <ele>318.7872</ele>
        <time>2023-07-04T16:26:16.000Z</time>
      </trkpt>
      <trkpt lat="45.84582" lon="4.67727">
        <ele>318.92075</ele>
        <time>2023-07-04T16:26:17.000Z</time>
      </trkpt>
      <trkpt lat="45.84581" lon="4.67724">
        <ele>318.9483</ele>
        <time>2023-07-04T16:26:18.000Z</time>
      </trkpt>
      <trkpt lat="45.8458" lon="4.6772">
        <ele>318.98166</ele>
        <time>2023-07-04T16:26:19.000Z</time>
      </trkpt>
      <trkpt lat="45.84579" lon="4.67715">
        <ele>319.04108</ele>
        <time>2023-07-04T16:26:20.000Z</time>
      </trkpt>
      <trkpt lat="45.84578" lon="4.67711">
        <ele>318.88165</ele>
        <time>2023-07-04T16:26:21.000Z</time>
      </trkpt>
      <trkpt lat="45.84576" lon="4.67707">
        <ele>318.97256</ele>
        <time>2023-07-04T16:26:22.000Z</time>
      </trkpt>
      <trkpt lat="45.84574" lon="4.67702">
        <ele>318.99838</ele>
        <time>2023-07-04T16:26:23.000Z</time>
      </trkpt>
      <trkpt lat="45.84572" lon="4.67698">
        <ele>319.03131</ele>
        <time>2023-07-04T16:26:24.000Z</time>
      </trkpt>
      <trkpt lat="45.8457" lon="4.67695">
        <ele>319.08136</ele>
        <time>2023-07-04T16:26:25.000Z</time>
      </trkpt>
      <trkpt lat="45.84567" lon="4.67691">
        <ele>319.14429</ele>
        <time>2023-07-04T16:26:26.000Z</time>
      </trkpt>
      <trkpt lat="45.84564" lon="4.67688">
        <ele>319.33167</ele>
        <time>2023-07-04T16:26:27.000Z</time>
      </trkpt>
      <trkpt lat="45.84561" lon="4.67685">
        <ele>319.53326</ele>
        <time>2023-07-04T16:26:28.000Z</time>
      </trkpt>
      <trkpt lat="45.84558" lon="4.67682">
        <ele>319.53915</ele>
        <time>2023-07-04T16:26:29.000Z</time>
      </trkpt>
      <trkpt lat="45.84554" lon="4.6768">
        <ele>319.59412</ele>
        <time>2023-07-04T16:26:30.000Z</time>
      </trkpt>
      <trkpt lat="45.8455" lon="4.67677">
        <ele>319.68268</ele>
        <time>2023-07-04T16:26:31.000Z</time>
      </trkpt>
      <trkpt lat="45.84547" lon="4.67675">
        <ele>319.74246</ele>
        <time>2023-07-04T16:26:32.000Z</time>
      </trkpt>
      <trkpt lat="45.84543" lon="4.67673">
        <ele>319.79648</ele>
        <time>2023-07-04T16:26:33.000Z</time>
      </trkpt>
      <trkpt lat="45.84539" lon="4.6767">
        <ele>319.84262</ele>
        <time>2023-07-04T16:26:34.000Z</time>
      </trkpt>
      <trkpt lat="45.84535" lon="4.67668">
        <ele>319.88116</ele>
        <time>2023-07-04T16:26:35.000Z</time>
      </trkpt>
      <trkpt lat="45.84532" lon="4.67665">
        <ele>319.92307</ele>
        <time>2023-07-04T16:26:36.000Z</time>
      </trkpt>
      <trkpt lat="45.84528" lon="4.67662">
        <ele>319.93195</ele>
        <time>2023-07-04T16:26:37.000Z</time>
      </trkpt>
      <trkpt lat="45.84524" lon="4.67659">
        <ele>320.06537</ele>
        <time>2023-07-04T16:26:38.000Z</time>
      </trkpt>
      <trkpt lat="45.8452" lon="4.67657">
        <ele>320.17902</ele>
        <time>2023-07-04T16:26:39.000Z</time>
      </trkpt>
      <trkpt lat="45.84516" lon="4.67655">
        <ele>320.32669</ele>
        <time>2023-07-04T16:26:40.000Z</time>
      </trkpt>
      <trkpt lat="45.84512" lon="4.67652">
        <ele>320.48199</ele>
        <time>2023-07-04T16:26:41.000Z</time>
      </trkpt>
      <trkpt lat="45.84508" lon="4.6765">
        <ele>321.33984</ele>
        <time>2023-07-04T16:26:42.000Z</time>
      </trkpt>
      <trkpt lat="45.84504" lon="4.67646">
        <ele>322.25986</ele>
        <time>2023-07-04T16:26:43.000Z</time>
      </trkpt>
      <trkpt lat="45.84499" lon="4.67642">
        <ele>323.19202</ele>
        <time>2023-07-04T16:26:44.000Z</time>
      </trkpt>
      <trkpt lat="45.84495" lon="4.6764">
        <ele>324.12396</ele>
        <time>2023-07-04T16:26:45.000Z</time>
      </trkpt>
      <trkpt lat="45.8449" lon="4.67637">
        <ele>325.0611</ele>
        <time>2023-07-04T16:26:46.000Z</time>
      </trkpt>
      <trkpt lat="45.84485" lon="4.67634">
        <ele>325.99728</ele>
        <time>2023-07-04T16:26:47.000Z</time>
      </trkpt>
      <trkpt lat="45.8448" lon="4.67632">
        <ele>326.9433</ele>
        <time>2023-07-04T16:26:48.000Z</time>
      </trkpt>
      <trkpt lat="45.84476" lon="4.67629">
        <ele>327.86993</ele>
        <time>2023-07-04T16:26:49.000Z</time>
      </trkpt>
      <trkpt lat="45.84472" lon="4.67626">
        <ele>328.79953</ele>
        <time>2023-07-04T16:26:50.000Z</time>
      </trkpt>
      <trkpt lat="45.84467" lon="4.67623">
        <ele>329.72784</ele>
        <time>2023-07-04T16:26:51.000Z</time>
      </trkpt>
      <trkpt lat="45.84462" lon="4.6762">
        <ele>330.66071</ele>
        <time>2023-07-04T16:26:52.000Z</time>
      </trkpt>
      <trkpt lat="45.84458" lon="4.67618">
        <ele>331.61276</ele>
        <time>2023-07-04T16:26:53.000Z</time>
      </trkpt>
      <trkpt lat="45.84453" lon="4.67615">
        <ele>332.56464</ele>
        <time>2023-07-04T16:26:54.000Z</time>
      </trkpt>
      <trkpt lat="45.84448" lon="4.67612">
        <ele>333.52972</ele>
        <time>2023-07-04T16:26:55.000Z</time>
      </trkpt>
      <trkpt lat="45.84444" lon="4.67609">
        <ele>334.47211</ele>
        <time>2023-07-04T16:26:56.000Z</time>
      </trkpt>
      <trkpt lat="45.8444" lon="4.67606">
        <ele>335.44128</ele>
        <time>2023-07-04T16:26:57.000Z</time>
      </trkpt>
      <trkpt lat="45.84435" lon="4.67605">
        <ele>336.39789</ele>
        <time>2023-07-04T16:26:58.000Z</time>
      </trkpt>
      <trkpt lat="45.8443" lon="4.67602">
        <ele>337.36523</ele>
        <time>2023-07-04T16:26:59.000Z</time>
      </trkpt>
      <trkpt lat="45.84425" lon="4.676">
        <ele>338.63284</ele>
        <time>2023-07-04T16:27:00.000Z</time>
      </trkpt>
      <trkpt lat="45.8442" lon="4.67598">
        <ele>338.69766</ele>
        <time>2023-07-04T16:27:01.000Z</time>
      </trkpt>
      <trkpt lat="45.84415" lon="4.67595">
        <ele>337.84784</ele>
        <time>2023-07-04T16:27:02.000Z</time>
      </trkpt>
      <trkpt lat="45.84409" lon="4.67593">
        <ele>336.96182</ele>
        <time>2023-07-04T16:27:03.000Z</time>
      </trkpt>
      <trkpt lat="45.84403" lon="4.67593">
        <ele>336.07977</ele>
        <time>2023-07-04T16:27:04.000Z</time>
      </trkpt>
      <trkpt lat="45.84398" lon="4.67593">
        <ele>335.18463</ele>
        <time>2023-07-04T16:27:05.000Z</time>
      </trkpt>
      <trkpt lat="45.84392" lon="4.67592">
        <ele>334.28055</ele>
        <time>2023-07-04T16:27:06.000Z</time>
      </trkpt>
      <trkpt lat="45.84387" lon="4.67593">
        <ele>333.37567</ele>
        <time>2023-07-04T16:27:07.000Z</time>
      </trkpt>
      <trkpt lat="45.84381" lon="4.67594">
        <ele>332.48566</ele>
        <time>2023-07-04T16:27:08.000Z</time>
      </trkpt>
      <trkpt lat="45.84375" lon="4.67595">
        <ele>331.49448</ele>
        <time>2023-07-04T16:27:09.000Z</time>
      </trkpt>
      <trkpt lat="45.8437" lon="4.67597">
        <ele>330.48584</ele>
        <time>2023-07-04T16:27:10.000Z</time>
      </trkpt>
      <trkpt lat="45.84364" lon="4.67599">
        <ele>329.41074</ele>
        <time>2023-07-04T16:27:11.000Z</time>
      </trkpt>
      <trkpt lat="45.84359" lon="4.67601">
        <ele>328.53094</ele>
        <time>2023-07-04T16:27:12.000Z</time>
      </trkpt>
      <trkpt lat="45.84353" lon="4.67604">
        <ele>327.59753</ele>
        <time>2023-07-04T16:27:13.000Z</time>
      </trkpt>
      <trkpt lat="45.84348" lon="4.67608">
        <ele>326.63824</ele>
        <time>2023-07-04T16:27:14.000Z</time>
      </trkpt>
      <trkpt lat="45.84343" lon="4.67611">
        <ele>325.6701</ele>
        <time>2023-07-04T16:27:15.000Z</time>
      </trkpt>
      <trkpt lat="45.84337" lon="4.67616">
        <ele>324.7037</ele>
        <time>2023-07-04T16:27:16.000Z</time>
      </trkpt>
      <trkpt lat="45.84332" lon="4.67619">
        <ele>323.70654</ele>
        <time>2023-07-04T16:27:17.000Z</time>
      </trkpt>
      <trkpt lat="45.84327" lon="4.67622">
        <ele>322.68488</ele>
        <time>2023-07-04T16:27:18.000Z</time>
      </trkpt>
      <trkpt lat="45.84321" lon="4.67626">
        <ele>321.64581</ele>
        <time>2023-07-04T16:27:19.000Z</time>
      </trkpt>
      <trkpt lat="45.84316" lon="4.67629">
        <ele>320.32364</ele>
        <time>2023-07-04T16:27:20.000Z</time>
      </trkpt>
      <trkpt lat="45.84309" lon="4.67633">
        <ele>320.18933</ele>
        <time>2023-07-04T16:27:21.000Z</time>
      </trkpt>
      <trkpt lat="45.84303" lon="4.67636">
        <ele>319.96182</ele>
        <time>2023-07-04T16:27:22.000Z</time>
      </trkpt>
      <trkpt lat="45.84297" lon="4.6764">
        <ele>319.71753</ele>
        <time>2023-07-04T16:27:23.000Z</time>
      </trkpt>
      <trkpt lat="45.84292" lon="4.67642">
        <ele>319.4379</ele>
        <time>2023-07-04T16:27:24.000Z</time>
      </trkpt>
      <trkpt lat="45.84286" lon="4.67643">
        <ele>319.16904</ele>
        <time>2023-07-04T16:27:25.000Z</time>
      </trkpt>
      <trkpt lat="45.84279" lon="4.67645">
        <ele>319.10748</ele>
        <time>2023-07-04T16:27:26.000Z</time>
      </trkpt>
      <trkpt lat="45.84274" lon="4.67645">
        <ele>319.01886</ele>
        <time>2023-07-04T16:27:27.000Z</time>
      </trkpt>
      <trkpt lat="45.84268" lon="4.67646">
        <ele>318.91068</ele>
        <time>2023-07-04T16:27:28.000Z</time>
      </trkpt>
      <trkpt lat="45.84263" lon="4.67646">
        <ele>318.91705</ele>
        <time>2023-07-04T16:27:29.000Z</time>
      </trkpt>
      <trkpt lat="45.84258" lon="4.67645">
        <ele>318.94791</ele>
        <time>2023-07-04T16:27:30.000Z</time>
      </trkpt>
      <trkpt lat="45.84253" lon="4.67644">
        <ele>319.04901</ele>
        <time>2023-07-04T16:27:31.000Z</time>
      </trkpt>
      <trkpt lat="45.84248" lon="4.67644">
        <ele>318.96979</ele>
        <time>2023-07-04T16:27:32.000Z</time>
      </trkpt>
      <trkpt lat="45.84244" lon="4.67642">
        <ele>318.9332</ele>
        <time>2023-07-04T16:27:33.000Z</time>
      </trkpt>
      <trkpt lat="45.8424" lon="4.67642">
        <ele>318.94394</ele>
        <time>2023-07-04T16:27:34.000Z</time>
      </trkpt>
      <trkpt lat="45.84236" lon="4.67639">
        <ele>318.98334</ele>
        <time>2023-07-04T16:27:35.000Z</time>
      </trkpt>
      <trkpt lat="45.84232" lon="4.67636">
        <ele>319.01385</ele>
        <time>2023-07-04T16:27:36.000Z</time>
      </trkpt>
      <trkpt lat="45.84228" lon="4.67634">
        <ele>319.07611</ele>
        <time>2023-07-04T16:27:37.000Z</time>
      </trkpt>
      <trkpt lat="45.84224" lon="4.6763">
        <ele>319.17886</ele>
        <time>2023-07-04T16:27:38.000Z</time>
      </trkpt>
      <trkpt lat="45.8422" lon="4.67627">
        <ele>319.3027</ele>
        <time>2023-07-04T16:27:39.000Z</time>
      </trkpt>
      <trkpt lat="45.84217" lon="4.67625">
        <ele>319.4082</ele>
        <time>2023-07-04T16:27:40.000Z</time>
      </trkpt>
      <trkpt lat="45.84213" lon="4.67621">
        <ele>319.54279</ele>
        <time>2023-07-04T16:27:41.000Z</time>
      </trkpt>
      <trkpt lat="45.84209" lon="4.67618">
        <ele>319.78607</ele>
        <time>2023-07-04T16:27:42.000Z</time>
      </trkpt>
      <trkpt lat="45.84206" lon="4.67614">
        <ele>321.24994</ele>
        <time>2023-07-04T16:27:43.000Z</time>
      </trkpt>
      <trkpt lat="45.84203" lon="4.67611">
        <ele>322.73553</ele>
        <time>2023-07-04T16:27:44.000Z</time>
      </trkpt>
      <trkpt lat="45.842" lon="4.67608">
        <ele>324.25723</ele>
        <time>2023-07-04T16:27:45.000Z</time>
      </trkpt>
      <trkpt lat="45.84196" lon="4.67605">
        <ele>325.21259</ele>
        <time>2023-07-04T16:27:46.000Z</time>
      </trkpt>
      <trkpt lat="45.84193" lon="4.67601">
        <ele>326.28998</ele>
        <time>2023-07-04T16:27:47.000Z</time>
      </trkpt>
      <trkpt lat="45.84189" lon="4.67598">
        <ele>327.32928</ele>
        <time>2023-07-04T16:27:48.000Z</time>
      </trkpt>
      <trkpt lat="45.84186" lon="4.67594">
        <ele>328.39423</ele>
        <time>2023-07-04T16:27:49.000Z</time>
      </trkpt>
      <trkpt lat="45.84183" lon="4.67591">
        <ele>329.45325</ele>
        <time>2023-07-04T16:27:50.000Z</time>
      </trkpt>
      <trkpt lat="45.84179" lon="4.67587">
        <ele>330.48907</ele>
        <time>2023-07-04T16:27:51.000Z</time>
      </trkpt>
      <trkpt lat="45.84176" lon="4.67583">
        <ele>331.51727</ele>
        <time>2023-07-04T16:27:52.000Z</time>
      </trkpt>
      <trkpt lat="45.84172" lon="4.67579">
        <ele>332.54767</ele>
        <time>2023-07-04T16:27:53.000Z</time>
      </trkpt>
      <trkpt lat="45.84169" lon="4.67575">
        <ele>333.54889</ele>
        <time>2023-07-04T16:27:54.000Z</time>
      </trkpt>
      <trkpt lat="45.84165" lon="4.67571">
        <ele>334.50687</ele>
        <time>2023-07-04T16:27:55.000Z</time>
      </trkpt>
      <trkpt lat="45.84162" lon="4.67567">
        <ele>334.58026</ele>
        <time>2023-07-04T16:27:56.000Z</time>
      </trkpt>
      <trkpt lat="45.84158" lon="4.67563">
        <ele>334.63379</ele>
        <time>2023-07-04T16:27:57.000Z</time>
      </trkpt>
      <trkpt lat="45.84155" lon="4.67559">
        <ele>334.64072</ele>
        <time>2023-07-04T16:27:58.000Z</time>
      </trkpt>
      <trkpt lat="45.84152" lon="4.67555">
        <ele>334.63525</ele>
        <time>2023-07-04T16:27:59.000Z</time>
      </trkpt>
      <trkpt lat="45.84148" lon="4.67551">
        <ele>335.52945</ele>
        <time>2023-07-04T16:28:00.000Z</time>
      </trkpt>
      <trkpt lat="45.84145" lon="4.67547">
        <ele>336.47202</ele>
        <time>2023-07-04T16:28:01.000Z</time>
      </trkpt>
      <trkpt lat="45.84141" lon="4.67543">
        <ele>337.36838</ele>
        <time>2023-07-04T16:28:02.000Z</time>
      </trkpt>
      <trkpt lat="45.84138" lon="4.6754">
        <ele>337.0827</ele>
        <time>2023-07-04T16:28:03.000Z</time>
      </trkpt>
      <trkpt lat="45.84135" lon="4.67536">
        <ele>336.85004</ele>
        <time>2023-07-04T16:28:04.000Z</time>
      </trkpt>
      <trkpt lat="45.84131" lon="4.67532">
        <ele>336.56339</ele>
        <time>2023-07-04T16:28:05.000Z</time>
      </trkpt>
      <trkpt lat="45.84127" lon="4.67529">
        <ele>336.63382</ele>
        <time>2023-07-04T16:28:06.000Z</time>
      </trkpt>
      <trkpt lat="45.84124" lon="4.67525">
        <ele>336.61029</ele>
        <time>2023-07-04T16:28:07.000Z</time>
      </trkpt>
      <trkpt lat="45.8412" lon="4.67522">
        <ele>336.5849</ele>
        <time>2023-07-04T16:28:08.000Z</time>
      </trkpt>
      <trkpt lat="45.84116" lon="4.67518">
        <ele>336.53589</ele>
        <time>2023-07-04T16:28:09.000Z</time>
      </trkpt>
      <trkpt lat="45.84113" lon="4.67515">
        <ele>336.49515</ele>
        <time>2023-07-04T16:28:10.000Z</time>
      </trkpt>
      <trkpt lat="45.84109" lon="4.67511">
        <ele>336.43454</ele>
        <time>2023-07-04T16:28:11.000Z</time>
      </trkpt>
      <trkpt lat="45.84106" lon="4.67508">
        <ele>336.39331</ele>
        <time>2023-07-04T16:28:12.000Z</time>
      </trkpt>
      <trkpt lat="45.84102" lon="4.67505">
        <ele>336.35846</ele>
        <time>2023-07-04T16:28:13.000Z</time>
      </trkpt>
      <trkpt lat="45.84099" lon="4.67502">
        <ele>336.31091</ele>
        <time>2023-07-04T16:28:14.000Z</time>
      </trkpt>
      <trkpt lat="45.84097" lon="4.675">
        <ele>336.28711</ele>
        <time>2023-07-04T16:28:15.000Z</time>
      </trkpt>
      <trkpt lat="45.84095" lon="4.67498">
        <ele>337.17917</ele>
        <time>2023-07-04T16:28:16.000Z</time>
      </trkpt>
      <trkpt lat="45.84092" lon="4.67497">
        <ele>338.06183</ele>
        <time>2023-07-04T16:28:18.000Z</time>
      </trkpt>
      <trkpt lat="45.8409" lon="4.67497">
        <ele>338.96967</ele>
        <time>2023-07-04T16:28:19.000Z</time>
      </trkpt>
      <trkpt lat="45.84086" lon="4.67496">
        <ele>339.88574</ele>
        <time>2023-07-04T16:28:21.000Z</time>
      </trkpt>
      <trkpt lat="45.84085" lon="4.67498">
        <ele>339.91357</ele>
        <time>2023-07-04T16:28:22.000Z</time>
      </trkpt>
      <trkpt lat="45.84085" lon="4.67502">
        <ele>339.88568</ele>
        <time>2023-07-04T16:28:23.000Z</time>
      </trkpt>
      <trkpt lat="45.84087" lon="4.67505">
        <ele>339.89493</ele>
        <time>2023-07-04T16:28:24.000Z</time>
      </trkpt>
      <trkpt lat="45.84089" lon="4.67507">
        <ele>339.90158</ele>
        <time>2023-07-04T16:28:25.000Z</time>
      </trkpt>
      <trkpt lat="45.84092" lon="4.67508">
        <ele>339.8562</ele>
        <time>2023-07-04T16:28:26.000Z</time>
      </trkpt>
      <trkpt lat="45.84096" lon="4.67508">
        <ele>339.79614</ele>
        <time>2023-07-04T16:28:27.000Z</time>
      </trkpt>
      <trkpt lat="45.84099" lon="4.6751">
        <ele>340.10065</ele>
        <time>2023-07-04T16:28:28.000Z</time>
      </trkpt>
      <trkpt lat="45.84103" lon="4.67513">
        <ele>340.49976</ele>
        <time>2023-07-04T16:28:29.000Z</time>
      </trkpt>
      <trkpt lat="45.84105" lon="4.67518">
        <ele>339.54715</ele>
        <time>2023-07-04T16:28:30.000Z</time>
      </trkpt>
      <trkpt lat="45.84106" lon="4.67524">
        <ele>338.61923</ele>
        <time>2023-07-04T16:28:31.000Z</time>
      </trkpt>
      <trkpt lat="45.84107" lon="4.6753">
        <ele>337.689</ele>
        <time>2023-07-04T16:28:32.000Z</time>
      </trkpt>
      <trkpt lat="45.84108" lon="4.67535">
        <ele>336.79633</ele>
        <time>2023-07-04T16:28:33.000Z</time>
      </trkpt>
      <trkpt lat="45.84109" lon="4.67539">
        <ele>336.79623</ele>
        <time>2023-07-04T16:28:34.000Z</time>
      </trkpt>
      <trkpt lat="45.84112" lon="4.67543">
        <ele>336.80334</ele>
        <time>2023-07-04T16:28:35.000Z</time>
      </trkpt>
      <trkpt lat="45.84114" lon="4.67546">
        <ele>336.84955</ele>
        <time>2023-07-04T16:28:36.000Z</time>
      </trkpt>
      <trkpt lat="45.84117" lon="4.6755">
        <ele>336.88641</ele>
        <time>2023-07-04T16:28:37.000Z</time>
      </trkpt>
      <trkpt lat="45.84119" lon="4.67554">
        <ele>336.92349</ele>
        <time>2023-07-04T16:28:38.000Z</time>
      </trkpt>
      <trkpt lat="45.8412" lon="4.67559">
        <ele>336.9726</ele>
        <time>2023-07-04T16:28:39.000Z</time>
      </trkpt>
      <trkpt lat="45.84121" lon="4.67564">
        <ele>336.09512</ele>
        <time>2023-07-04T16:28:40.000Z</time>
      </trkpt>
      <trkpt lat="45.84121" lon="4.67569">
        <ele>335.22601</ele>
        <time>2023-07-04T16:28:41.000Z</time>
      </trkpt>
      <trkpt lat="45.8412" lon="4.67573">
        <ele>334.37192</ele>
        <time>2023-07-04T16:28:42.000Z</time>
      </trkpt>
      <trkpt lat="45.84118" lon="4.67576">
        <ele>333.51434</ele>
        <time>2023-07-04T16:28:43.000Z</time>
      </trkpt>
      <trkpt lat="45.84116" lon="4.67579">
        <ele>332.65512</ele>
        <time>2023-07-04T16:28:44.000Z</time>
      </trkpt>
      <trkpt lat="45.84114" lon="4.67581">
        <ele>331.81424</ele>
        <time>2023-07-04T16:28:45.000Z</time>
      </trkpt>
      <trkpt lat="45.84111" lon="4.67584">
        <ele>330.98233</ele>
        <time>2023-07-04T16:28:46.000Z</time>
      </trkpt>
      <trkpt lat="45.84108" lon="4.67587">
        <ele>330.17624</ele>
        <time>2023-07-04T16:28:47.000Z</time>
      </trkpt>
      <trkpt lat="45.84106" lon="4.6759">
        <ele>329.03134</ele>
        <time>2023-07-04T16:28:48.000Z</time>
      </trkpt>
      <trkpt lat="45.84102" lon="4.67593">
        <ele>327.81268</ele>
        <time>2023-07-04T16:28:49.000Z</time>
      </trkpt>
      <trkpt lat="45.84099" lon="4.67595">
        <ele>328.92035</ele>
        <time>2023-07-04T16:28:50.000Z</time>
      </trkpt>
      <trkpt lat="45.84096" lon="4.67598">
        <ele>330.0097</ele>
        <time>2023-07-04T16:28:51.000Z</time>
      </trkpt>
      <trkpt lat="45.84093" lon="4.67601">
        <ele>331.09406</ele>
        <time>2023-07-04T16:28:52.000Z</time>
      </trkpt>
      <trkpt lat="45.8409" lon="4.67604">
        <ele>332.20938</ele>
        <time>2023-07-04T16:28:53.000Z</time>
      </trkpt>
      <trkpt lat="45.84088" lon="4.67607">
        <ele>332.39789</ele>
        <time>2023-07-04T16:28:54.000Z</time>
      </trkpt>
      <trkpt lat="45.84085" lon="4.67611">
        <ele>332.58731</ele>
        <time>2023-07-04T16:28:55.000Z</time>
      </trkpt>
      <trkpt lat="45.84082" lon="4.67614">
        <ele>332.76123</ele>
        <time>2023-07-04T16:28:56.000Z</time>
      </trkpt>
      <trkpt lat="45.8408" lon="4.67618">
        <ele>332.97302</ele>
        <time>2023-07-04T16:28:57.000Z</time>
      </trkpt>
      <trkpt lat="45.84077" lon="4.67621">
        <ele>333.16217</ele>
        <time>2023-07-04T16:28:58.000Z</time>
      </trkpt>
      <trkpt lat="45.84073" lon="4.67624">
        <ele>333.37238</ele>
        <time>2023-07-04T16:28:59.000Z</time>
      </trkpt>
      <trkpt lat="45.8407" lon="4.67628">
        <ele>334.51083</ele>
        <time>2023-07-04T16:29:00.000Z</time>
      </trkpt>
      <trkpt lat="45.84067" lon="4.67632">
        <ele>335.6434</ele>
        <time>2023-07-04T16:29:01.000Z</time>
      </trkpt>
      <trkpt lat="45.84064" lon="4.67636">
        <ele>336.77234</ele>
        <time>2023-07-04T16:29:02.000Z</time>
      </trkpt>
      <trkpt lat="45.84061" lon="4.67641">
        <ele>337.89905</ele>
        <time>2023-07-04T16:29:03.000Z</time>
      </trkpt>
      <trkpt lat="45.84058" lon="4.67645">
        <ele>339.05399</ele>
        <time>2023-07-04T16:29:04.000Z</time>
      </trkpt>
      <trkpt lat="45.84056" lon="4.67649">
        <ele>340.19336</ele>
        <time>2023-07-04T16:29:05.000Z</time>
      </trkpt>
      <trkpt lat="45.84053" lon="4.67653">
        <ele>341.44785</ele>
        <time>2023-07-04T16:29:06.000Z</time>
      </trkpt>
      <trkpt lat="45.8405" lon="4.67658">
        <ele>341.43423</ele>
        <time>2023-07-04T16:29:07.000Z</time>
      </trkpt>
      <trkpt lat="45.84046" lon="4.67662">
        <ele>341.34079</ele>
        <time>2023-07-04T16:29:08.000Z</time>
      </trkpt>
      <trkpt lat="45.84044" lon="4.67666">
        <ele>341.2309</ele>
        <time>2023-07-04T16:29:09.000Z</time>
      </trkpt>
      <trkpt lat="45.84041" lon="4.6767">
        <ele>340.237</ele>
        <time>2023-07-04T16:29:10.000Z</time>
      </trkpt>
      <trkpt lat="45.84038" lon="4.67674">
        <ele>340.37445</ele>
        <time>2023-07-04T16:29:11.000Z</time>
      </trkpt>
      <trkpt lat="45.84034" lon="4.67679">
        <ele>340.49359</ele>
        <time>2023-07-04T16:29:12.000Z</time>
      </trkpt>
      <trkpt lat="45.84031" lon="4.67683">
        <ele>340.59744</ele>
        <time>2023-07-04T16:29:13.000Z</time>
      </trkpt>
      <trkpt lat="45.84028" lon="4.67687">
        <ele>340.67746</ele>
        <time>2023-07-04T16:29:14.000Z</time>
      </trkpt>
      <trkpt lat="45.84025" lon="4.67691">
        <ele>340.75006</ele>
        <time>2023-07-04T16:29:15.000Z</time>
      </trkpt>
      <trkpt lat="45.8402" lon="4.67694">
        <ele>340.81644</ele>
        <time>2023-07-04T16:29:16.000Z</time>
      </trkpt>
      <trkpt lat="45.84015" lon="4.67696">
        <ele>340.83313</ele>
        <time>2023-07-04T16:29:17.000Z</time>
      </trkpt>
      <trkpt lat="45.8401" lon="4.67696">
        <ele>340.83524</ele>
        <time>2023-07-04T16:29:18.000Z</time>
      </trkpt>
      <trkpt lat="45.84005" lon="4.67693">
        <ele>340.95074</ele>
        <time>2023-07-04T16:29:19.000Z</time>
      </trkpt>
      <trkpt lat="45.84001" lon="4.67691">
        <ele>341.05029</ele>
        <time>2023-07-04T16:29:20.000Z</time>
      </trkpt>
      <trkpt lat="45.83997" lon="4.67687">
        <ele>341.15408</ele>
        <time>2023-07-04T16:29:21.000Z</time>
      </trkpt>
      <trkpt lat="45.83992" lon="4.67685">
        <ele>341.23056</ele>
        <time>2023-07-04T16:29:22.000Z</time>
      </trkpt>
      <trkpt lat="45.83988" lon="4.67684">
        <ele>341.41916</ele>
        <time>2023-07-04T16:29:23.000Z</time>
      </trkpt>
      <trkpt lat="45.83984" lon="4.67681">
        <ele>341.26169</ele>
        <time>2023-07-04T16:29:24.000Z</time>
      </trkpt>
      <trkpt lat="45.83978" lon="4.67679">
        <ele>341.16162</ele>
        <time>2023-07-04T16:29:25.000Z</time>
      </trkpt>
      <trkpt lat="45.83974" lon="4.67678">
        <ele>340.93976</ele>
        <time>2023-07-04T16:29:26.000Z</time>
      </trkpt>
      <trkpt lat="45.8397" lon="4.67678">
        <ele>341.98746</ele>
        <time>2023-07-04T16:29:27.000Z</time>
      </trkpt>
      <trkpt lat="45.83965" lon="4.67676">
        <ele>343.09039</ele>
        <time>2023-07-04T16:29:28.000Z</time>
      </trkpt>
      <trkpt lat="45.83961" lon="4.67675">
        <ele>344.21075</ele>
        <time>2023-07-04T16:29:29.000Z</time>
      </trkpt>
      <trkpt lat="45.83957" lon="4.67677">
        <ele>345.26245</ele>
        <time>2023-07-04T16:29:30.000Z</time>
      </trkpt>
      <trkpt lat="45.83952" lon="4.67679">
        <ele>345.15552</ele>
        <time>2023-07-04T16:29:31.000Z</time>
      </trkpt>
      <trkpt lat="45.83948" lon="4.67682">
        <ele>345.08163</ele>
        <time>2023-07-04T16:29:32.000Z</time>
      </trkpt>
      <trkpt lat="45.83944" lon="4.67687">
        <ele>344.97885</ele>
        <time>2023-07-04T16:29:33.000Z</time>
      </trkpt>
      <trkpt lat="45.8394" lon="4.67693">
        <ele>344.88937</ele>
        <time>2023-07-04T16:29:34.000Z</time>
      </trkpt>
      <trkpt lat="45.83937" lon="4.67699">
        <ele>344.7561</ele>
        <time>2023-07-04T16:29:35.000Z</time>
      </trkpt>
      <trkpt lat="45.83932" lon="4.67703">
        <ele>344.67328</ele>
        <time>2023-07-04T16:29:36.000Z</time>
      </trkpt>
      <trkpt lat="45.83929" lon="4.67708">
        <ele>344.57379</ele>
        <time>2023-07-04T16:29:37.000Z</time>
      </trkpt>
      <trkpt lat="45.83924" lon="4.67715">
        <ele>344.63275</ele>
        <time>2023-07-04T16:29:38.000Z</time>
      </trkpt>
      <trkpt lat="45.8392" lon="4.67718">
        <ele>344.56833</ele>
        <time>2023-07-04T16:29:39.000Z</time>
      </trkpt>
      <trkpt lat="45.83916" lon="4.67723">
        <ele>344.505</ele>
        <time>2023-07-04T16:29:40.000Z</time>
      </trkpt>
      <trkpt lat="45.83911" lon="4.67728">
        <ele>344.41425</ele>
        <time>2023-07-04T16:29:41.000Z</time>
      </trkpt>
      <trkpt lat="45.83907" lon="4.67731">
        <ele>344.4632</ele>
        <time>2023-07-04T16:29:42.000Z</time>
      </trkpt>
      <trkpt lat="45.83902" lon="4.67735">
        <ele>344.04596</ele>
        <time>2023-07-04T16:29:43.000Z</time>
      </trkpt>
      <trkpt lat="45.83898" lon="4.67738">
        <ele>343.98566</ele>
        <time>2023-07-04T16:29:44.000Z</time>
      </trkpt>
      <trkpt lat="45.83893" lon="4.67741">
        <ele>343.91739</ele>
        <time>2023-07-04T16:29:45.000Z</time>
      </trkpt>
      <trkpt lat="45.83888" lon="4.67741">
        <ele>343.81732</ele>
        <time>2023-07-04T16:29:46.000Z</time>
      </trkpt>
      <trkpt lat="45.83883" lon="4.6774">
        <ele>343.698</ele>
        <time>2023-07-04T16:29:47.000Z</time>
      </trkpt>
      <trkpt lat="45.83879" lon="4.67736">
        <ele>343.61273</ele>
        <time>2023-07-04T16:29:48.000Z</time>
      </trkpt>
      <trkpt lat="45.83874" lon="4.67734">
        <ele>343.51505</ele>
        <time>2023-07-04T16:29:49.000Z</time>
      </trkpt>
      <trkpt lat="45.8387" lon="4.67731">
        <ele>343.44211</ele>
        <time>2023-07-04T16:29:50.000Z</time>
      </trkpt>
      <trkpt lat="45.83866" lon="4.67729">
        <ele>343.388</ele>
        <time>2023-07-04T16:29:51.000Z</time>
      </trkpt>
      <trkpt lat="45.83862" lon="4.67726">
        <ele>343.30594</ele>
        <time>2023-07-04T16:29:52.000Z</time>
      </trkpt>
      <trkpt lat="45.83857" lon="4.67724">
        <ele>343.22931</ele>
        <time>2023-07-04T16:29:53.000Z</time>
      </trkpt>
      <trkpt lat="45.83853" lon="4.67721">
        <ele>343.16498</ele>
        <time>2023-07-04T16:29:54.000Z</time>
      </trkpt>
      <trkpt lat="45.83849" lon="4.67719">
        <ele>343.13461</ele>
        <time>2023-07-04T16:29:55.000Z</time>
      </trkpt>
      <trkpt lat="45.83846" lon="4.67717">
        <ele>343.0766</ele>
        <time>2023-07-04T16:29:56.000Z</time>
      </trkpt>
      <trkpt lat="45.83842" lon="4.67715">
        <ele>343.03262</ele>
        <time>2023-07-04T16:29:57.000Z</time>
      </trkpt>
      <trkpt lat="45.83838" lon="4.67713">
        <ele>342.84802</ele>
        <time>2023-07-04T16:29:58.000Z</time>
      </trkpt>
      <trkpt lat="45.83834" lon="4.67712">
        <ele>342.64392</ele>
        <time>2023-07-04T16:29:59.000Z</time>
      </trkpt>
      <trkpt lat="45.83828" lon="4.67711">
        <ele>342.42319</ele>
        <time>2023-07-04T16:30:00.000Z</time>
      </trkpt>
      <trkpt lat="45.83825" lon="4.67712">
        <ele>342.19894</ele>
        <time>2023-07-04T16:30:01.000Z</time>
      </trkpt>
      <trkpt lat="45.83822" lon="4.67712">
        <ele>341.92499</ele>
        <time>2023-07-04T16:30:02.000Z</time>
      </trkpt>
      <trkpt lat="45.83818" lon="4.6771">
        <ele>341.97504</ele>
        <time>2023-07-04T16:30:03.000Z</time>
      </trkpt>
      <trkpt lat="45.83813" lon="4.67708">
        <ele>342.01581</ele>
        <time>2023-07-04T16:30:04.000Z</time>
      </trkpt>
      <trkpt lat="45.83808" lon="4.67707">
        <ele>340.75604</ele>
        <time>2023-07-04T16:30:05.000Z</time>
      </trkpt>
      <trkpt lat="45.83804" lon="4.67705">
        <ele>339.51318</ele>
        <time>2023-07-04T16:30:06.000Z</time>
      </trkpt>
      <trkpt lat="45.838" lon="4.67704">
        <ele>338.36865</ele>
        <time>2023-07-04T16:30:07.000Z</time>
      </trkpt>
      <trkpt lat="45.83796" lon="4.67702">
        <ele>337.22223</ele>
        <time>2023-07-04T16:30:08.000Z</time>
      </trkpt>
      <trkpt lat="45.83792" lon="4.67701">
        <ele>336.09143</ele>
        <time>2023-07-04T16:30:09.000Z</time>
      </trkpt>
      <trkpt lat="45.83788" lon="4.677">
        <ele>334.95859</ele>
        <time>2023-07-04T16:30:10.000Z</time>
      </trkpt>
      <trkpt lat="45.83783" lon="4.67697">
        <ele>333.88223</ele>
        <time>2023-07-04T16:30:11.000Z</time>
      </trkpt>
      <trkpt lat="45.8378" lon="4.67695">
        <ele>332.7999</ele>
        <time>2023-07-04T16:30:12.000Z</time>
      </trkpt>
      <trkpt lat="45.83776" lon="4.67693">
        <ele>331.74359</ele>
        <time>2023-07-04T16:30:13.000Z</time>
      </trkpt>
      <trkpt lat="45.83772" lon="4.67691">
        <ele>330.64487</ele>
        <time>2023-07-04T16:30:14.000Z</time>
      </trkpt>
      <trkpt lat="45.83768" lon="4.67689">
        <ele>329.55109</ele>
        <time>2023-07-04T16:30:15.000Z</time>
      </trkpt>
      <trkpt lat="45.83765" lon="4.67686">
        <ele>328.4444</ele>
        <time>2023-07-04T16:30:16.000Z</time>
      </trkpt>
      <trkpt lat="45.8376" lon="4.67683">
        <ele>328.68912</ele>
        <time>2023-07-04T16:30:17.000Z</time>
      </trkpt>
      <trkpt lat="45.83756" lon="4.67679">
        <ele>328.93121</ele>
        <time>2023-07-04T16:30:18.000Z</time>
      </trkpt>
      <trkpt lat="45.83752" lon="4.67677">
        <ele>329.15771</ele>
        <time>2023-07-04T16:30:19.000Z</time>
      </trkpt>
      <trkpt lat="45.83747" lon="4.67673">
        <ele>329.39691</ele>
        <time>2023-07-04T16:30:20.000Z</time>
      </trkpt>
      <trkpt lat="45.83743" lon="4.67669">
        <ele>329.6203</ele>
        <time>2023-07-04T16:30:21.000Z</time>
      </trkpt>
      <trkpt lat="45.83739" lon="4.67667">
        <ele>329.72641</ele>
        <time>2023-07-04T16:30:22.000Z</time>
      </trkpt>
      <trkpt lat="45.83735" lon="4.67663">
        <ele>329.47418</ele>
        <time>2023-07-04T16:30:23.000Z</time>
      </trkpt>
      <trkpt lat="45.8373" lon="4.67658">
        <ele>329.28403</ele>
        <time>2023-07-04T16:30:24.000Z</time>
      </trkpt>
      <trkpt lat="45.83726" lon="4.67654">
        <ele>330.34808</ele>
        <time>2023-07-04T16:30:25.000Z</time>
      </trkpt>
      <trkpt lat="45.83723" lon="4.67649">
        <ele>331.41373</ele>
        <time>2023-07-04T16:30:26.000Z</time>
      </trkpt>
      <trkpt lat="45.83719" lon="4.67643">
        <ele>332.39954</ele>
        <time>2023-07-04T16:30:27.000Z</time>
      </trkpt>
      <trkpt lat="45.83716" lon="4.67636">
        <ele>333.44821</ele>
        <time>2023-07-04T16:30:28.000Z</time>
      </trkpt>
      <trkpt lat="45.83714" lon="4.6763">
        <ele>334.46378</ele>
        <time>2023-07-04T16:30:29.000Z</time>
      </trkpt>
      <trkpt lat="45.8371" lon="4.67625">
        <ele>335.42926</ele>
        <time>2023-07-04T16:30:30.000Z</time>
      </trkpt>
      <trkpt lat="45.83708" lon="4.67619">
        <ele>336.37372</ele>
        <time>2023-07-04T16:30:31.000Z</time>
      </trkpt>
      <trkpt lat="45.83705" lon="4.6761">
        <ele>337.44684</ele>
        <time>2023-07-04T16:30:32.000Z</time>
      </trkpt>
      <trkpt lat="45.83701" lon="4.67604">
        <ele>338.47382</ele>
        <time>2023-07-04T16:30:33.000Z</time>
      </trkpt>
      <trkpt lat="45.83698" lon="4.67599">
        <ele>339.79199</ele>
        <time>2023-07-04T16:30:34.000Z</time>
      </trkpt>
      <trkpt lat="45.83694" lon="4.67593">
        <ele>341.05017</ele>
        <time>2023-07-04T16:30:35.000Z</time>
      </trkpt>
      <trkpt lat="45.83691" lon="4.67588">
        <ele>342.27637</ele>
        <time>2023-07-04T16:30:36.000Z</time>
      </trkpt>
      <trkpt lat="45.83688" lon="4.67583">
        <ele>342.23163</ele>
        <time>2023-07-04T16:30:37.000Z</time>
      </trkpt>
      <trkpt lat="45.83684" lon="4.6758">
        <ele>342.23969</ele>
        <time>2023-07-04T16:30:38.000Z</time>
      </trkpt>
      <trkpt lat="45.8368" lon="4.67575">
        <ele>342.2811</ele>
        <time>2023-07-04T16:30:39.000Z</time>
      </trkpt>
      <trkpt lat="45.83676" lon="4.67571">
        <ele>342.31305</ele>
        <time>2023-07-04T16:30:40.000Z</time>
      </trkpt>
      <trkpt lat="45.83672" lon="4.67568">
        <ele>342.388</ele>
        <time>2023-07-04T16:30:41.000Z</time>
      </trkpt>
      <trkpt lat="45.83668" lon="4.67567">
        <ele>342.49991</ele>
        <time>2023-07-04T16:30:42.000Z</time>
      </trkpt>
      <trkpt lat="45.83664" lon="4.67568">
        <ele>343.01978</ele>
        <time>2023-07-04T16:30:43.000Z</time>
      </trkpt>
      <trkpt lat="45.83661" lon="4.67571">
        <ele>343.43878</ele>
        <time>2023-07-04T16:30:44.000Z</time>
      </trkpt>
      <trkpt lat="45.83657" lon="4.67576">
        <ele>343.84064</ele>
        <time>2023-07-04T16:30:45.000Z</time>
      </trkpt>
      <trkpt lat="45.83654" lon="4.6758">
        <ele>344.3902</ele>
        <time>2023-07-04T16:30:46.000Z</time>
      </trkpt>
      <trkpt lat="45.83651" lon="4.67584">
        <ele>343.55307</ele>
        <time>2023-07-04T16:30:47.000Z</time>
      </trkpt>
      <trkpt lat="45.83648" lon="4.67588">
        <ele>342.62381</ele>
        <time>2023-07-04T16:30:48.000Z</time>
      </trkpt>
      <trkpt lat="45.83645" lon="4.67593">
        <ele>341.99033</ele>
        <time>2023-07-04T16:30:49.000Z</time>
      </trkpt>
      <trkpt lat="45.83642" lon="4.67598">
        <ele>341.37689</ele>
        <time>2023-07-04T16:30:50.000Z</time>
      </trkpt>
      <trkpt lat="45.83639" lon="4.67602">
        <ele>340.75275</ele>
        <time>2023-07-04T16:30:51.000Z</time>
      </trkpt>
      <trkpt lat="45.83636" lon="4.67605">
        <ele>340.01971</ele>
        <time>2023-07-04T16:30:52.000Z</time>
      </trkpt>
      <trkpt lat="45.83633" lon="4.67609">
        <ele>340.70547</ele>
        <time>2023-07-04T16:30:53.000Z</time>
      </trkpt>
      <trkpt lat="45.83629" lon="4.67612">
        <ele>341.15878</ele>
        <time>2023-07-04T16:30:54.000Z</time>
      </trkpt>
      <trkpt lat="45.83625" lon="4.67616">
        <ele>341.68903</ele>
        <time>2023-07-04T16:30:55.000Z</time>
      </trkpt>
      <trkpt lat="45.83622" lon="4.67618">
        <ele>342.27795</ele>
        <time>2023-07-04T16:30:56.000Z</time>
      </trkpt>
      <trkpt lat="45.83619" lon="4.67622">
        <ele>342.78012</ele>
        <time>2023-07-04T16:30:57.000Z</time>
      </trkpt>
      <trkpt lat="45.83615" lon="4.67626">
        <ele>343.25613</ele>
        <time>2023-07-04T16:30:58.000Z</time>
      </trkpt>
      <trkpt lat="45.83611" lon="4.67628">
        <ele>343.75845</ele>
        <time>2023-07-04T16:30:59.000Z</time>
      </trkpt>
      <trkpt lat="45.83607" lon="4.6763">
        <ele>344.23792</ele>
        <time>2023-07-04T16:31:00.000Z</time>
      </trkpt>
      <trkpt lat="45.83602" lon="4.67631">
        <ele>344.52597</ele>
        <time>2023-07-04T16:31:01.000Z</time>
      </trkpt>
      <trkpt lat="45.83597" lon="4.67629">
        <ele>344.49298</ele>
        <time>2023-07-04T16:31:02.000Z</time>
      </trkpt>
      <trkpt lat="45.83593" lon="4.67628">
        <ele>344.44806</ele>
        <time>2023-07-04T16:31:03.000Z</time>
      </trkpt>
      <trkpt lat="45.83588" lon="4.67627">
        <ele>344.42023</ele>
        <time>2023-07-04T16:31:04.000Z</time>
      </trkpt>
      <trkpt lat="45.83584" lon="4.67625">
        <ele>344.40912</ele>
        <time>2023-07-04T16:31:05.000Z</time>
      </trkpt>
      <trkpt lat="45.8358" lon="4.67622">
        <ele>344.25943</ele>
        <time>2023-07-04T16:31:06.000Z</time>
      </trkpt>
      <trkpt lat="45.83576" lon="4.6762">
        <ele>345.49167</ele>
        <time>2023-07-04T16:31:07.000Z</time>
      </trkpt>
      <trkpt lat="45.83571" lon="4.67617">
        <ele>346.71454</ele>
        <time>2023-07-04T16:31:08.000Z</time>
      </trkpt>
      <trkpt lat="45.83567" lon="4.67615">
        <ele>347.66534</ele>
        <time>2023-07-04T16:31:09.000Z</time>
      </trkpt>
      <trkpt lat="45.83563" lon="4.67613">
        <ele>348.64029</ele>
        <time>2023-07-04T16:31:10.000Z</time>
      </trkpt>
      <trkpt lat="45.83559" lon="4.6761">
        <ele>349.61981</ele>
        <time>2023-07-04T16:31:11.000Z</time>
      </trkpt>
      <trkpt lat="45.83555" lon="4.67608">
        <ele>350.57635</ele>
        <time>2023-07-04T16:31:12.000Z</time>
      </trkpt>
      <trkpt lat="45.8355" lon="4.67605">
        <ele>350.13916</ele>
        <time>2023-07-04T16:31:13.000Z</time>
      </trkpt>
      <trkpt lat="45.83546" lon="4.67602">
        <ele>349.68896</ele>
        <time>2023-07-04T16:31:14.000Z</time>
      </trkpt>
      <trkpt lat="45.83542" lon="4.676">
        <ele>349.21704</ele>
        <time>2023-07-04T16:31:15.000Z</time>
      </trkpt>
      <trkpt lat="45.83538" lon="4.67598">
        <ele>348.71613</ele>
        <time>2023-07-04T16:31:16.000Z</time>
      </trkpt>
      <trkpt lat="45.83533" lon="4.67595">
        <ele>348.23581</ele>
        <time>2023-07-04T16:31:17.000Z</time>
      </trkpt>
      <trkpt lat="45.83529" lon="4.67593">
        <ele>347.75375</ele>
        <time>2023-07-04T16:31:18.000Z</time>
      </trkpt>
      <trkpt lat="45.83525" lon="4.6759">
        <ele>347.26035</ele>
        <time>2023-07-04T16:31:19.000Z</time>
      </trkpt>
      <trkpt lat="45.83521" lon="4.67588">
        <ele>346.9129</ele>
        <time>2023-07-04T16:31:20.000Z</time>
      </trkpt>
      <trkpt lat="45.83516" lon="4.67585">
        <ele>346.74948</ele>
        <time>2023-07-04T16:31:21.000Z</time>
      </trkpt>
      <trkpt lat="45.83512" lon="4.67583">
        <ele>347.07574</ele>
        <time>2023-07-04T16:31:22.000Z</time>
      </trkpt>
      <trkpt lat="45.83508" lon="4.6758">
        <ele>347.39053</ele>
        <time>2023-07-04T16:31:23.000Z</time>
      </trkpt>
      <trkpt lat="45.83504" lon="4.67579">
        <ele>347.69513</ele>
        <time>2023-07-04T16:31:24.000Z</time>
      </trkpt>
      <trkpt lat="45.835" lon="4.67577">
        <ele>348.00012</ele>
        <time>2023-07-04T16:31:25.000Z</time>
      </trkpt>
      <trkpt lat="45.83496" lon="4.67575">
        <ele>348.29471</ele>
        <time>2023-07-04T16:31:26.000Z</time>
      </trkpt>
      <trkpt lat="45.83492" lon="4.67572">
        <ele>348.58197</ele>
        <time>2023-07-04T16:31:27.000Z</time>
      </trkpt>
      <trkpt lat="45.83488" lon="4.67571">
        <ele>348.86685</ele>
        <time>2023-07-04T16:31:28.000Z</time>
      </trkpt>
      <trkpt lat="45.83483" lon="4.67569">
        <ele>349.12897</ele>
        <time>2023-07-04T16:31:29.000Z</time>
      </trkpt>
      <trkpt lat="45.83479" lon="4.67566">
        <ele>349.5278</ele>
        <time>2023-07-04T16:31:30.000Z</time>
      </trkpt>
      <trkpt lat="45.83475" lon="4.67564">
        <ele>349.55066</ele>
        <time>2023-07-04T16:31:31.000Z</time>
      </trkpt>
      <trkpt lat="45.8347" lon="4.67562">
        <ele>349.65845</ele>
        <time>2023-07-04T16:31:32.000Z</time>
      </trkpt>
      <trkpt lat="45.83466" lon="4.6756">
        <ele>349.76224</ele>
        <time>2023-07-04T16:31:33.000Z</time>
      </trkpt>
      <trkpt lat="45.83462" lon="4.67558">
        <ele>349.86365</ele>
        <time>2023-07-04T16:31:34.000Z</time>
      </trkpt>
      <trkpt lat="45.83458" lon="4.67556">
        <ele>349.95551</ele>
        <time>2023-07-04T16:31:35.000Z</time>
      </trkpt>
      <trkpt lat="45.83454" lon="4.67554">
        <ele>350.05542</ele>
        <time>2023-07-04T16:31:36.000Z</time>
      </trkpt>
      <trkpt lat="45.8345" lon="4.67552">
        <ele>350.1741</ele>
        <time>2023-07-04T16:31:37.000Z</time>
      </trkpt>
      <trkpt lat="45.83446" lon="4.6755">
        <ele>350.28174</ele>
        <time>2023-07-04T16:31:38.000Z</time>
      </trkpt>
      <trkpt lat="45.83442" lon="4.67547">
        <ele>350.36896</ele>
        <time>2023-07-04T16:31:39.000Z</time>
      </trkpt>
      <trkpt lat="45.83438" lon="4.67545">
        <ele>350.35284</ele>
        <time>2023-07-04T16:31:40.000Z</time>
      </trkpt>
      <trkpt lat="45.83434" lon="4.67542">
        <ele>350.37427</ele>
        <time>2023-07-04T16:31:41.000Z</time>
      </trkpt>
      <trkpt lat="45.8343" lon="4.6754">
        <ele>350.22574</ele>
        <time>2023-07-04T16:31:42.000Z</time>
      </trkpt>
      <trkpt lat="45.83426" lon="4.67537">
        <ele>350.07825</ele>
        <time>2023-07-04T16:31:43.000Z</time>
      </trkpt>
      <trkpt lat="45.83422" lon="4.67534">
        <ele>349.94934</ele>
        <time>2023-07-04T16:31:44.000Z</time>
      </trkpt>
      <trkpt lat="45.83419" lon="4.67532">
        <ele>349.82047</ele>
        <time>2023-07-04T16:31:45.000Z</time>
      </trkpt>
      <trkpt lat="45.83415" lon="4.67529">
        <ele>349.70187</ele>
        <time>2023-07-04T16:31:46.000Z</time>
      </trkpt>
      <trkpt lat="45.83411" lon="4.67527">
        <ele>349.58563</ele>
        <time>2023-07-04T16:31:47.000Z</time>
      </trkpt>
      <trkpt lat="45.83407" lon="4.67525">
        <ele>349.48611</ele>
        <time>2023-07-04T16:31:48.000Z</time>
      </trkpt>
      <trkpt lat="45.83403" lon="4.67522">
        <ele>349.41397</ele>
        <time>2023-07-04T16:31:49.000Z</time>
      </trkpt>
      <trkpt lat="45.83399" lon="4.67519">
        <ele>349.22119</ele>
        <time>2023-07-04T16:31:50.000Z</time>
      </trkpt>
      <trkpt lat="45.83395" lon="4.67516">
        <ele>349.38531</ele>
        <time>2023-07-04T16:31:51.000Z</time>
      </trkpt>
      <trkpt lat="45.83392" lon="4.67512">
        <ele>349.48871</ele>
        <time>2023-07-04T16:31:52.000Z</time>
      </trkpt>
      <trkpt lat="45.83388" lon="4.67509">
        <ele>349.96469</ele>
        <time>2023-07-04T16:31:53.000Z</time>
      </trkpt>
      <trkpt lat="45.83385" lon="4.67505">
        <ele>350.43768</ele>
        <time>2023-07-04T16:31:54.000Z</time>
      </trkpt>
      <trkpt lat="45.83382" lon="4.67501">
        <ele>350.92325</ele>
        <time>2023-07-04T16:31:55.000Z</time>
      </trkpt>
      <trkpt lat="45.8338" lon="4.67496">
        <ele>351.40884</ele>
        <time>2023-07-04T16:31:56.000Z</time>
      </trkpt>
      <trkpt lat="45.83378" lon="4.67492">
        <ele>351.89111</ele>
        <time>2023-07-04T16:31:57.000Z</time>
      </trkpt>
      <trkpt lat="45.83376" lon="4.67487">
        <ele>352.37579</ele>
        <time>2023-07-04T16:31:58.000Z</time>
      </trkpt>
      <trkpt lat="45.83374" lon="4.67482">
        <ele>352.85724</ele>
        <time>2023-07-04T16:31:59.000Z</time>
      </trkpt>
      <trkpt lat="45.83372" lon="4.67478">
        <ele>353.33087</ele>
        <time>2023-07-04T16:32:00.000Z</time>
      </trkpt>
      <trkpt lat="45.8337" lon="4.67473">
        <ele>353.77481</ele>
        <time>2023-07-04T16:32:01.000Z</time>
      </trkpt>
      <trkpt lat="45.83368" lon="4.67469">
        <ele>353.78638</ele>
        <time>2023-07-04T16:32:02.000Z</time>
      </trkpt>
      <trkpt lat="45.83367" lon="4.67465">
        <ele>353.81827</ele>
        <time>2023-07-04T16:32:03.000Z</time>
      </trkpt>
      <trkpt lat="45.83365" lon="4.6746">
        <ele>353.84448</ele>
        <time>2023-07-04T16:32:04.000Z</time>
      </trkpt>
      <trkpt lat="45.83362" lon="4.67456">
        <ele>353.58032</ele>
        <time>2023-07-04T16:32:05.000Z</time>
      </trkpt>
      <trkpt lat="45.8336" lon="4.67451">
        <ele>353.39944</ele>
        <time>2023-07-04T16:32:06.000Z</time>
      </trkpt>
      <trkpt lat="45.83358" lon="4.67447">
        <ele>353.89438</ele>
        <time>2023-07-04T16:32:07.000Z</time>
      </trkpt>
      <trkpt lat="45.83356" lon="4.67442">
        <ele>354.37915</ele>
        <time>2023-07-04T16:32:08.000Z</time>
      </trkpt>
      <trkpt lat="45.83354" lon="4.67438">
        <ele>354.84576</ele>
        <time>2023-07-04T16:32:09.000Z</time>
      </trkpt>
      <trkpt lat="45.83352" lon="4.67434">
        <ele>355.30646</ele>
        <time>2023-07-04T16:32:10.000Z</time>
      </trkpt>
      <trkpt lat="45.83349" lon="4.6743">
        <ele>355.75967</ele>
        <time>2023-07-04T16:32:11.000Z</time>
      </trkpt>
      <trkpt lat="45.83346" lon="4.67427">
        <ele>356.19098</ele>
        <time>2023-07-04T16:32:12.000Z</time>
      </trkpt>
      <trkpt lat="45.83343" lon="4.67424">
        <ele>356.24597</ele>
        <time>2023-07-04T16:32:13.000Z</time>
      </trkpt>
      <trkpt lat="45.83338" lon="4.67423">
        <ele>356.29367</ele>
        <time>2023-07-04T16:32:14.000Z</time>
      </trkpt>
      <trkpt lat="45.83333" lon="4.67426">
        <ele>356.31683</ele>
        <time>2023-07-04T16:32:15.000Z</time>
      </trkpt>
      <trkpt lat="45.83328" lon="4.67426">
        <ele>356.31912</ele>
        <time>2023-07-04T16:32:16.000Z</time>
      </trkpt>
      <trkpt lat="45.83323" lon="4.67426">
        <ele>356.28021</ele>
        <time>2023-07-04T16:32:17.000Z</time>
      </trkpt>
      <trkpt lat="45.83319" lon="4.67426">
        <ele>356.24969</ele>
        <time>2023-07-04T16:32:18.000Z</time>
      </trkpt>
      <trkpt lat="45.83314" lon="4.67426">
        <ele>356.23016</ele>
        <time>2023-07-04T16:32:19.000Z</time>
      </trkpt>
      <trkpt lat="45.83309" lon="4.67427">
        <ele>356.22614</ele>
        <time>2023-07-04T16:32:20.000Z</time>
      </trkpt>
      <trkpt lat="45.83303" lon="4.67427">
        <ele>356.20502</ele>
        <time>2023-07-04T16:32:21.000Z</time>
      </trkpt>
      <trkpt lat="45.83299" lon="4.67425">
        <ele>356.90375</ele>
        <time>2023-07-04T16:32:22.000Z</time>
      </trkpt>
      <trkpt lat="45.83294" lon="4.67426">
        <ele>357.74164</ele>
        <time>2023-07-04T16:32:23.000Z</time>
      </trkpt>
      <trkpt lat="45.83288" lon="4.67425">
        <ele>357.97049</ele>
        <time>2023-07-04T16:32:24.000Z</time>
      </trkpt>
      <trkpt lat="45.83283" lon="4.67425">
        <ele>358.58533</ele>
        <time>2023-07-04T16:32:25.000Z</time>
      </trkpt>
      <trkpt lat="45.83276" lon="4.67425">
        <ele>359.08414</ele>
        <time>2023-07-04T16:32:26.000Z</time>
      </trkpt>
      <trkpt lat="45.8327" lon="4.67424">
        <ele>358.9147</ele>
        <time>2023-07-04T16:32:27.000Z</time>
      </trkpt>
      <trkpt lat="45.83265" lon="4.67423">
        <ele>358.76569</ele>
        <time>2023-07-04T16:32:28.000Z</time>
      </trkpt>
      <trkpt lat="45.83259" lon="4.6742">
        <ele>358.98834</ele>
        <time>2023-07-04T16:32:29.000Z</time>
      </trkpt>
      <trkpt lat="45.83257" lon="4.67412">
        <ele>359.27551</ele>
        <time>2023-07-04T16:32:30.000Z</time>
      </trkpt>
      <trkpt lat="45.83254" lon="4.67405">
        <ele>359.89417</ele>
        <time>2023-07-04T16:32:31.000Z</time>
      </trkpt>
      <trkpt lat="45.83251" lon="4.67397">
        <ele>360.60635</ele>
        <time>2023-07-04T16:32:32.000Z</time>
      </trkpt>
      <trkpt lat="45.83246" lon="4.67391">
        <ele>360.54135</ele>
        <time>2023-07-04T16:32:33.000Z</time>
      </trkpt>
      <trkpt lat="45.83243" lon="4.67385">
        <ele>360.86566</ele>
        <time>2023-07-04T16:32:34.000Z</time>
      </trkpt>
      <trkpt lat="45.83239" lon="4.67383">
        <ele>361.12814</ele>
        <time>2023-07-04T16:32:35.000Z</time>
      </trkpt>
      <trkpt lat="45.83234" lon="4.67386">
        <ele>361.52509</ele>
        <time>2023-07-04T16:32:36.000Z</time>
      </trkpt>
      <trkpt lat="45.83229" lon="4.67387">
        <ele>361.95135</ele>
        <time>2023-07-04T16:32:37.000Z</time>
      </trkpt>
      <trkpt lat="45.83224" lon="4.67391">
        <ele>362.41644</ele>
        <time>2023-07-04T16:32:38.000Z</time>
      </trkpt>
      <trkpt lat="45.83216" lon="4.67397">
        <ele>362.98105</ele>
        <time>2023-07-04T16:32:39.000Z</time>
      </trkpt>
      <trkpt lat="45.8321" lon="4.67404">
        <ele>363.45938</ele>
        <time>2023-07-04T16:32:40.000Z</time>
      </trkpt>
      <trkpt lat="45.83203" lon="4.67412">
        <ele>363.93393</ele>
        <time>2023-07-04T16:32:41.000Z</time>
      </trkpt>
      <trkpt lat="45.83196" lon="4.67419">
        <ele>364.54608</ele>
        <time>2023-07-04T16:32:42.000Z</time>
      </trkpt>
      <trkpt lat="45.8319" lon="4.67425">
        <ele>365.38232</ele>
        <time>2023-07-04T16:32:43.000Z</time>
      </trkpt>
      <trkpt lat="45.83181" lon="4.67428">
        <ele>365.96552</ele>
        <time>2023-07-04T16:32:44.000Z</time>
      </trkpt>
      <trkpt lat="45.83172" lon="4.67433">
        <ele>366.71158</ele>
        <time>2023-07-04T16:32:45.000Z</time>
      </trkpt>
      <trkpt lat="45.83164" lon="4.67436">
        <ele>367.14572</ele>
        <time>2023-07-04T16:32:46.000Z</time>
      </trkpt>
      <trkpt lat="45.83157" lon="4.6744">
        <ele>367.43085</ele>
        <time>2023-07-04T16:32:47.000Z</time>
      </trkpt>
      <trkpt lat="45.83151" lon="4.67444">
        <ele>367.62021</ele>
        <time>2023-07-04T16:32:48.000Z</time>
      </trkpt>
      <trkpt lat="45.83147" lon="4.67447">
        <ele>367.44962</ele>
        <time>2023-07-04T16:32:49.000Z</time>
      </trkpt>
      <trkpt lat="45.83144" lon="4.67451">
        <ele>367.0423</ele>
        <time>2023-07-04T16:32:50.000Z</time>
      </trkpt>
      <trkpt lat="45.83144" lon="4.67456">
        <ele>366.36685</ele>
        <time>2023-07-04T16:32:51.000Z</time>
      </trkpt>
      <trkpt lat="45.83146" lon="4.67461">
        <ele>365.45596</ele>
        <time>2023-07-04T16:32:52.000Z</time>
      </trkpt>
      <trkpt lat="45.83148" lon="4.67465">
        <ele>365.21863</ele>
        <time>2023-07-04T16:32:53.000Z</time>
      </trkpt>
      <trkpt lat="45.83152" lon="4.67469">
        <ele>364.58466</ele>
        <time>2023-07-04T16:32:54.000Z</time>
      </trkpt>
      <trkpt lat="45.83157" lon="4.6747">
        <ele>363.93756</ele>
        <time>2023-07-04T16:32:55.000Z</time>
      </trkpt>
      <trkpt lat="45.83162" lon="4.6747">
        <ele>363.24774</ele>
        <time>2023-07-04T16:32:56.000Z</time>
      </trkpt>
      <trkpt lat="45.83167" lon="4.6747">
        <ele>362.47922</ele>
        <time>2023-07-04T16:32:57.000Z</time>
      </trkpt>
      <trkpt lat="45.83173" lon="4.67472">
        <ele>361.79553</ele>
        <time>2023-07-04T16:32:58.000Z</time>
      </trkpt>
      <trkpt lat="45.83178" lon="4.67475">
        <ele>360.99454</ele>
        <time>2023-07-04T16:32:59.000Z</time>
      </trkpt>
      <trkpt lat="45.83182" lon="4.6748">
        <ele>360.66754</ele>
        <time>2023-07-04T16:33:00.000Z</time>
      </trkpt>
      <trkpt lat="45.83186" lon="4.67486">
        <ele>360.24011</ele>
        <time>2023-07-04T16:33:01.000Z</time>
      </trkpt>
      <trkpt lat="45.83191" lon="4.67489">
        <ele>359.505</ele>
        <time>2023-07-04T16:33:02.000Z</time>
      </trkpt>
      <trkpt lat="45.83194" lon="4.67493">
        <ele>358.39801</ele>
        <time>2023-07-04T16:33:03.000Z</time>
      </trkpt>
      <trkpt lat="45.832" lon="4.67497">
        <ele>358.17624</ele>
        <time>2023-07-04T16:33:04.000Z</time>
      </trkpt>
      <trkpt lat="45.83204" lon="4.675">
        <ele>357.54697</ele>
        <time>2023-07-04T16:33:05.000Z</time>
      </trkpt>
      <trkpt lat="45.83208" lon="4.67504">
        <ele>357.54514</ele>
        <time>2023-07-04T16:33:06.000Z</time>
      </trkpt>
      <trkpt lat="45.83213" lon="4.67509">
        <ele>357.8298</ele>
        <time>2023-07-04T16:33:07.000Z</time>
      </trkpt>
      <trkpt lat="45.83218" lon="4.67514">
        <ele>357.47586</ele>
        <time>2023-07-04T16:33:08.000Z</time>
      </trkpt>
      <trkpt lat="45.83221" lon="4.67518">
        <ele>357.43549</ele>
        <time>2023-07-04T16:33:09.000Z</time>
      </trkpt>
      <trkpt lat="45.83227" lon="4.67524">
        <ele>357.57446</ele>
        <time>2023-07-04T16:33:10.000Z</time>
      </trkpt>
      <trkpt lat="45.83231" lon="4.67529">
        <ele>357.5466</ele>
        <time>2023-07-04T16:33:11.000Z</time>
      </trkpt>
      <trkpt lat="45.83237" lon="4.67534">
        <ele>357.56317</ele>
        <time>2023-07-04T16:33:12.000Z</time>
      </trkpt>
      <trkpt lat="45.8324" lon="4.6754">
        <ele>357.67303</ele>
        <time>2023-07-04T16:33:13.000Z</time>
      </trkpt>
      <trkpt lat="45.83241" lon="4.6755">
        <ele>357.76733</ele>
        <time>2023-07-04T16:33:14.000Z</time>
      </trkpt>
      <trkpt lat="45.8324" lon="4.67559">
        <ele>357.80914</ele>
        <time>2023-07-04T16:33:15.000Z</time>
      </trkpt>
      <trkpt lat="45.83238" lon="4.67569">
        <ele>357.92944</ele>
        <time>2023-07-04T16:33:16.000Z</time>
      </trkpt>
      <trkpt lat="45.83236" lon="4.67578">
        <ele>358.0386</ele>
        <time>2023-07-04T16:33:17.000Z</time>
      </trkpt>
      <trkpt lat="45.83235" lon="4.67589">
        <ele>357.99377</ele>
        <time>2023-07-04T16:33:18.000Z</time>
      </trkpt>
      <trkpt lat="45.83234" lon="4.67599">
        <ele>358.03882</ele>
        <time>2023-07-04T16:33:19.000Z</time>
      </trkpt>
      <trkpt lat="45.83237" lon="4.67611">
        <ele>357.74777</ele>
        <time>2023-07-04T16:33:20.000Z</time>
      </trkpt>
      <trkpt lat="45.83242" lon="4.6762">
        <ele>357.42975</ele>
        <time>2023-07-04T16:33:21.000Z</time>
      </trkpt>
      <trkpt lat="45.83247" lon="4.67625">
        <ele>356.99762</ele>
        <time>2023-07-04T16:33:22.000Z</time>
      </trkpt>
      <trkpt lat="45.83253" lon="4.6763">
        <ele>356.58386</ele>
        <time>2023-07-04T16:33:23.000Z</time>
      </trkpt>
      <trkpt lat="45.8326" lon="4.67632">
        <ele>356.39166</ele>
        <time>2023-07-04T16:33:24.000Z</time>
      </trkpt>
      <trkpt lat="45.83265" lon="4.67634">
        <ele>356.29205</ele>
        <time>2023-07-04T16:33:25.000Z</time>
      </trkpt>
      <trkpt lat="45.8327" lon="4.67635">
        <ele>355.18744</ele>
        <time>2023-07-04T16:33:26.000Z</time>
      </trkpt>
      <trkpt lat="45.83275" lon="4.67635">
        <ele>354.07571</ele>
        <time>2023-07-04T16:33:27.000Z</time>
      </trkpt>
      <trkpt lat="45.83281" lon="4.67636">
        <ele>353.66986</ele>
        <time>2023-07-04T16:33:28.000Z</time>
      </trkpt>
      <trkpt lat="45.83286" lon="4.67636">
        <ele>352.97894</ele>
        <time>2023-07-04T16:33:29.000Z</time>
      </trkpt>
      <trkpt lat="45.83291" lon="4.67638">
        <ele>352.27579</ele>
        <time>2023-07-04T16:33:30.000Z</time>
      </trkpt>
      <trkpt lat="45.83296" lon="4.6764">
        <ele>351.67743</ele>
        <time>2023-07-04T16:33:31.000Z</time>
      </trkpt>
      <trkpt lat="45.83301" lon="4.67643">
        <ele>351.24725</ele>
        <time>2023-07-04T16:33:32.000Z</time>
      </trkpt>
      <trkpt lat="45.83308" lon="4.67647">
        <ele>351.12534</ele>
        <time>2023-07-04T16:33:33.000Z</time>
      </trkpt>
      <trkpt lat="45.83314" lon="4.6765">
        <ele>351.09528</ele>
        <time>2023-07-04T16:33:34.000Z</time>
      </trkpt>
      <trkpt lat="45.83321" lon="4.67652">
        <ele>351.18936</ele>
        <time>2023-07-04T16:33:35.000Z</time>
      </trkpt>
      <trkpt lat="45.83327" lon="4.67654">
        <ele>351.53909</ele>
        <time>2023-07-04T16:33:36.000Z</time>
      </trkpt>
      <trkpt lat="45.83333" lon="4.67659">
        <ele>352.00113</ele>
        <time>2023-07-04T16:33:37.000Z</time>
      </trkpt>
      <trkpt lat="45.83339" lon="4.67662">
        <ele>352.59384</ele>
        <time>2023-07-04T16:33:38.000Z</time>
      </trkpt>
      <trkpt lat="45.83346" lon="4.67665">
        <ele>353.0618</ele>
        <time>2023-07-04T16:33:39.000Z</time>
      </trkpt>
      <trkpt lat="45.83353" lon="4.67668">
        <ele>353.24765</ele>
        <time>2023-07-04T16:33:40.000Z</time>
      </trkpt>
      <trkpt lat="45.83359" lon="4.67671">
        <ele>353.3941</ele>
        <time>2023-07-04T16:33:41.000Z</time>
      </trkpt>
      <trkpt lat="45.83366" lon="4.67675">
        <ele>353.38348</ele>
        <time>2023-07-04T16:33:42.000Z</time>
      </trkpt>
      <trkpt lat="45.83373" lon="4.67678">
        <ele>353.3576</ele>
        <time>2023-07-04T16:33:43.000Z</time>
      </trkpt>
      <trkpt lat="45.83379" lon="4.67682">
        <ele>353.39697</ele>
        <time>2023-07-04T16:33:44.000Z</time>
      </trkpt>
      <trkpt lat="45.83386" lon="4.67685">
        <ele>353.42474</ele>
        <time>2023-07-04T16:33:45.000Z</time>
      </trkpt>
      <trkpt lat="45.83391" lon="4.67689">
        <ele>353.37665</ele>
        <time>2023-07-04T16:33:46.000Z</time>
      </trkpt>
      <trkpt lat="45.83397" lon="4.67692">
        <ele>353.33325</ele>
        <time>2023-07-04T16:33:47.000Z</time>
      </trkpt>
      <trkpt lat="45.83403" lon="4.67696">
        <ele>353.39456</ele>
        <time>2023-07-04T16:33:48.000Z</time>
      </trkpt>
      <trkpt lat="45.83408" lon="4.67701">
        <ele>353.474</ele>
        <time>2023-07-04T16:33:49.000Z</time>
      </trkpt>
      <trkpt lat="45.83414" lon="4.67706">
        <ele>353.58078</ele>
        <time>2023-07-04T16:33:50.000Z</time>
      </trkpt>
      <trkpt lat="45.83419" lon="4.67712">
        <ele>353.76349</ele>
        <time>2023-07-04T16:33:51.000Z</time>
      </trkpt>
      <trkpt lat="45.83425" lon="4.67718">
        <ele>353.89093</ele>
        <time>2023-07-04T16:33:52.000Z</time>
      </trkpt>
      <trkpt lat="45.83429" lon="4.67726">
        <ele>353.68231</ele>
        <time>2023-07-04T16:33:53.000Z</time>
      </trkpt>
      <trkpt lat="45.83433" lon="4.67735">
        <ele>353.35864</ele>
        <time>2023-07-04T16:33:54.000Z</time>
      </trkpt>
      <trkpt lat="45.83435" lon="4.67744">
        <ele>353.09372</ele>
        <time>2023-07-04T16:33:55.000Z</time>
      </trkpt>
      <trkpt lat="45.83436" lon="4.67753">
        <ele>352.78268</ele>
        <time>2023-07-04T16:33:56.000Z</time>
      </trkpt>
      <trkpt lat="45.83437" lon="4.67762">
        <ele>352.53232</ele>
        <time>2023-07-04T16:33:57.000Z</time>
      </trkpt>
      <trkpt lat="45.83438" lon="4.67772">
        <ele>351.54834</ele>
        <time>2023-07-04T16:33:58.000Z</time>
      </trkpt>
      <trkpt lat="45.8344" lon="4.67781">
        <ele>350.76855</ele>
        <time>2023-07-04T16:33:59.000Z</time>
      </trkpt>
      <trkpt lat="45.83443" lon="4.6779">
        <ele>350.12628</ele>
        <time>2023-07-04T16:34:00.000Z</time>
      </trkpt>
      <trkpt lat="45.83446" lon="4.67798">
        <ele>349.04865</ele>
        <time>2023-07-04T16:34:01.000Z</time>
      </trkpt>
      <trkpt lat="45.83451" lon="4.67804">
        <ele>348.41055</ele>
        <time>2023-07-04T16:34:02.000Z</time>
      </trkpt>
      <trkpt lat="45.83457" lon="4.67808">
        <ele>347.72394</ele>
        <time>2023-07-04T16:34:03.000Z</time>
      </trkpt>
      <trkpt lat="45.83464" lon="4.6781">
        <ele>346.70029</ele>
        <time>2023-07-04T16:34:04.000Z</time>
      </trkpt>
      <trkpt lat="45.83469" lon="4.6781">
        <ele>345.71545</ele>
        <time>2023-07-04T16:34:05.000Z</time>
      </trkpt>
      <trkpt lat="45.83475" lon="4.67811">
        <ele>345.56854</ele>
        <time>2023-07-04T16:34:06.000Z</time>
      </trkpt>
      <trkpt lat="45.8348" lon="4.67813">
        <ele>345.26773</ele>
        <time>2023-07-04T16:34:07.000Z</time>
      </trkpt>
      <trkpt lat="45.83486" lon="4.67818">
        <ele>344.94812</ele>
        <time>2023-07-04T16:34:08.000Z</time>
      </trkpt>
      <trkpt lat="45.8349" lon="4.67822">
        <ele>344.61621</ele>
        <time>2023-07-04T16:34:09.000Z</time>
      </trkpt>
      <trkpt lat="45.83496" lon="4.67827">
        <ele>344.18369</ele>
        <time>2023-07-04T16:34:10.000Z</time>
      </trkpt>
      <trkpt lat="45.83501" lon="4.67832">
        <ele>343.65341</ele>
        <time>2023-07-04T16:34:11.000Z</time>
      </trkpt>
      <trkpt lat="45.83506" lon="4.67837">
        <ele>343.117</ele>
        <time>2023-07-04T16:34:12.000Z</time>
      </trkpt>
      <trkpt lat="45.83512" lon="4.67842">
        <ele>342.64301</ele>
        <time>2023-07-04T16:34:13.000Z</time>
      </trkpt>
      <trkpt lat="45.83517" lon="4.67847">
        <ele>342.33569</ele>
        <time>2023-07-04T16:34:14.000Z</time>
      </trkpt>
      <trkpt lat="45.83521" lon="4.67853">
        <ele>342.07147</ele>
        <time>2023-07-04T16:34:15.000Z</time>
      </trkpt>
      <trkpt lat="45.83526" lon="4.67859">
        <ele>341.51962</ele>
        <time>2023-07-04T16:34:16.000Z</time>
      </trkpt>
      <trkpt lat="45.83531" lon="4.67866">
        <ele>340.80508</ele>
        <time>2023-07-04T16:34:17.000Z</time>
      </trkpt>
      <trkpt lat="45.83535" lon="4.67874">
        <ele>340.79208</ele>
        <time>2023-07-04T16:34:18.000Z</time>
      </trkpt>
      <trkpt lat="45.8354" lon="4.67883">
        <ele>340.66608</ele>
        <time>2023-07-04T16:34:19.000Z</time>
      </trkpt>
      <trkpt lat="45.83544" lon="4.67891">
        <ele>340.60394</ele>
        <time>2023-07-04T16:34:20.000Z</time>
      </trkpt>
      <trkpt lat="45.83549" lon="4.67898">
        <ele>341.03864</ele>
        <time>2023-07-04T16:34:21.000Z</time>
      </trkpt>
      <trkpt lat="45.83554" lon="4.67905">
        <ele>341.21939</ele>
        <time>2023-07-04T16:34:22.000Z</time>
      </trkpt>
      <trkpt lat="45.83559" lon="4.6791">
        <ele>341.39761</ele>
        <time>2023-07-04T16:34:23.000Z</time>
      </trkpt>
      <trkpt lat="45.83565" lon="4.67913">
        <ele>341.53351</ele>
        <time>2023-07-04T16:34:24.000Z</time>
      </trkpt>
      <trkpt lat="45.83571" lon="4.67919">
        <ele>341.67773</ele>
        <time>2023-07-04T16:34:25.000Z</time>
      </trkpt>
      <trkpt lat="45.83576" lon="4.67924">
        <ele>341.89438</ele>
        <time>2023-07-04T16:34:26.000Z</time>
      </trkpt>
      <trkpt lat="45.83582" lon="4.67929">
        <ele>342.08405</ele>
        <time>2023-07-04T16:34:27.000Z</time>
      </trkpt>
      <trkpt lat="45.83587" lon="4.67932">
        <ele>342.45428</ele>
        <time>2023-07-04T16:34:28.000Z</time>
      </trkpt>
      <trkpt lat="45.83593" lon="4.67937">
        <ele>342.69501</ele>
        <time>2023-07-04T16:34:29.000Z</time>
      </trkpt>
      <trkpt lat="45.83598" lon="4.67942">
        <ele>343.28369</ele>
        <time>2023-07-04T16:34:30.000Z</time>
      </trkpt>
      <trkpt lat="45.83604" lon="4.67944">
        <ele>343.319</ele>
        <time>2023-07-04T16:34:31.000Z</time>
      </trkpt>
      <trkpt lat="45.83609" lon="4.67949">
        <ele>343.49869</ele>
        <time>2023-07-04T16:34:32.000Z</time>
      </trkpt>
      <trkpt lat="45.83615" lon="4.67954">
        <ele>343.57983</ele>
        <time>2023-07-04T16:34:33.000Z</time>
      </trkpt>
      <trkpt lat="45.8362" lon="4.67959">
        <ele>343.58099</ele>
        <time>2023-07-04T16:34:34.000Z</time>
      </trkpt>
      <trkpt lat="45.83626" lon="4.67965">
        <ele>343.59711</ele>
        <time>2023-07-04T16:34:35.000Z</time>
      </trkpt>
      <trkpt lat="45.83631" lon="4.6797">
        <ele>343.42139</ele>
        <time>2023-07-04T16:34:36.000Z</time>
      </trkpt>
      <trkpt lat="45.83635" lon="4.67974">
        <ele>343.25934</ele>
        <time>2023-07-04T16:34:37.000Z</time>
      </trkpt>
      <trkpt lat="45.8364" lon="4.67981">
        <ele>343.0751</ele>
        <time>2023-07-04T16:34:38.000Z</time>
      </trkpt>
      <trkpt lat="45.83645" lon="4.67986">
        <ele>342.79468</ele>
        <time>2023-07-04T16:34:39.000Z</time>
      </trkpt>
      <trkpt lat="45.83649" lon="4.67992">
        <ele>342.54999</ele>
        <time>2023-07-04T16:34:40.000Z</time>
      </trkpt>
      <trkpt lat="45.83655" lon="4.67998">
        <ele>342.45087</ele>
        <time>2023-07-04T16:34:41.000Z</time>
      </trkpt>
      <trkpt lat="45.83661" lon="4.68006">
        <ele>342.35364</ele>
        <time>2023-07-04T16:34:42.000Z</time>
      </trkpt>
      <trkpt lat="45.83665" lon="4.68013">
        <ele>342.20834</ele>
        <time>2023-07-04T16:34:43.000Z</time>
      </trkpt>
      <trkpt lat="45.83671" lon="4.6802">
        <ele>342.13153</ele>
        <time>2023-07-04T16:34:44.000Z</time>
      </trkpt>
      <trkpt lat="45.83676" lon="4.68028">
        <ele>341.99194</ele>
        <time>2023-07-04T16:34:45.000Z</time>
      </trkpt>
      <trkpt lat="45.8368" lon="4.68034">
        <ele>341.60715</ele>
        <time>2023-07-04T16:34:46.000Z</time>
      </trkpt>
      <trkpt lat="45.83686" lon="4.68041">
        <ele>341.36795</ele>
        <time>2023-07-04T16:34:47.000Z</time>
      </trkpt>
      <trkpt lat="45.83691" lon="4.68048">
        <ele>340.94159</ele>
        <time>2023-07-04T16:34:48.000Z</time>
      </trkpt>
      <trkpt lat="45.83696" lon="4.68055">
        <ele>340.65024</ele>
        <time>2023-07-04T16:34:49.000Z</time>
      </trkpt>
      <trkpt lat="45.83697" lon="4.68064">
        <ele>340.27374</ele>
        <time>2023-07-04T16:34:50.000Z</time>
      </trkpt>
      <trkpt lat="45.83695" lon="4.68071">
        <ele>338.80719</ele>
        <time>2023-07-04T16:34:51.000Z</time>
      </trkpt>
      <trkpt lat="45.83691" lon="4.68076">
        <ele>337.32968</ele>
        <time>2023-07-04T16:34:52.000Z</time>
      </trkpt>
      <trkpt lat="45.83686" lon="4.68081">
        <ele>337.33081</ele>
        <time>2023-07-04T16:34:53.000Z</time>
      </trkpt>
      <trkpt lat="45.83681" lon="4.68086">
        <ele>336.94586</ele>
        <time>2023-07-04T16:34:54.000Z</time>
      </trkpt>
      <trkpt lat="45.83676" lon="4.68091">
        <ele>336.49335</ele>
        <time>2023-07-04T16:34:55.000Z</time>
      </trkpt>
      <trkpt lat="45.83671" lon="4.68096">
        <ele>335.13275</ele>
        <time>2023-07-04T16:34:56.000Z</time>
      </trkpt>
      <trkpt lat="45.83666" lon="4.68102">
        <ele>333.85077</ele>
        <time>2023-07-04T16:34:57.000Z</time>
      </trkpt>
      <trkpt lat="45.83661" lon="4.68108">
        <ele>332.52081</ele>
        <time>2023-07-04T16:34:58.000Z</time>
      </trkpt>
      <trkpt lat="45.83657" lon="4.68115">
        <ele>331.23096</ele>
        <time>2023-07-04T16:34:59.000Z</time>
      </trkpt>
      <trkpt lat="45.83652" lon="4.68121">
        <ele>329.95496</ele>
        <time>2023-07-04T16:35:00.000Z</time>
      </trkpt>
      <trkpt lat="45.83648" lon="4.68128">
        <ele>328.63693</ele>
        <time>2023-07-04T16:35:01.000Z</time>
      </trkpt>
      <trkpt lat="45.83644" lon="4.68134">
        <ele>327.24445</ele>
        <time>2023-07-04T16:35:02.000Z</time>
      </trkpt>
      <trkpt lat="45.83641" lon="4.68142">
        <ele>325.95941</ele>
        <time>2023-07-04T16:35:03.000Z</time>
      </trkpt>
      <trkpt lat="45.83637" lon="4.6815">
        <ele>324.6879</ele>
        <time>2023-07-04T16:35:04.000Z</time>
      </trkpt>
      <trkpt lat="45.83633" lon="4.68157">
        <ele>323.49512</ele>
        <time>2023-07-04T16:35:05.000Z</time>
      </trkpt>
      <trkpt lat="45.8363" lon="4.68165">
        <ele>322.44196</ele>
        <time>2023-07-04T16:35:06.000Z</time>
      </trkpt>
      <trkpt lat="45.83626" lon="4.68173">
        <ele>321.2739</ele>
        <time>2023-07-04T16:35:07.000Z</time>
      </trkpt>
      <trkpt lat="45.83623" lon="4.6818">
        <ele>320.02853</ele>
        <time>2023-07-04T16:35:08.000Z</time>
      </trkpt>
      <trkpt lat="45.83619" lon="4.68187">
        <ele>318.69141</ele>
        <time>2023-07-04T16:35:09.000Z</time>
      </trkpt>
      <trkpt lat="45.83616" lon="4.68194">
        <ele>317.15875</ele>
        <time>2023-07-04T16:35:10.000Z</time>
      </trkpt>
      <trkpt lat="45.83613" lon="4.68202">
        <ele>317.4592</ele>
        <time>2023-07-04T16:35:11.000Z</time>
      </trkpt>
      <trkpt lat="45.83609" lon="4.6821">
        <ele>317.61172</ele>
        <time>2023-07-04T16:35:12.000Z</time>
      </trkpt>
      <trkpt lat="45.83606" lon="4.68218">
        <ele>316.39368</ele>
        <time>2023-07-04T16:35:13.000Z</time>
      </trkpt>
      <trkpt lat="45.83603" lon="4.68226">
        <ele>315.54208</ele>
        <time>2023-07-04T16:35:14.000Z</time>
      </trkpt>
      <trkpt lat="45.83601" lon="4.68234">
        <ele>314.67715</ele>
        <time>2023-07-04T16:35:15.000Z</time>
      </trkpt>
      <trkpt lat="45.83598" lon="4.68242">
        <ele>314.85223</ele>
        <time>2023-07-04T16:35:16.000Z</time>
      </trkpt>
      <trkpt lat="45.83596" lon="4.6825">
        <ele>315.05997</ele>
        <time>2023-07-04T16:35:17.000Z</time>
      </trkpt>
      <trkpt lat="45.83595" lon="4.68256">
        <ele>315.28363</ele>
        <time>2023-07-04T16:35:18.000Z</time>
      </trkpt>
      <trkpt lat="45.83594" lon="4.68262">
        <ele>315.5372</ele>
        <time>2023-07-04T16:35:19.000Z</time>
      </trkpt>
      <trkpt lat="45.83593" lon="4.68268">
        <ele>315.6861</ele>
        <time>2023-07-04T16:35:20.000Z</time>
      </trkpt>
      <trkpt lat="45.83591" lon="4.68272">
        <ele>315.814</ele>
        <time>2023-07-04T16:35:21.000Z</time>
      </trkpt>
      <trkpt lat="45.8359" lon="4.68276">
        <ele>315.92319</ele>
        <time>2023-07-04T16:35:22.000Z</time>
      </trkpt>
      <trkpt lat="45.83588" lon="4.6828">
        <ele>316.02472</ele>
        <time>2023-07-04T16:35:23.000Z</time>
      </trkpt>
      <trkpt lat="45.83587" lon="4.68284">
        <ele>316.1134</ele>
        <time>2023-07-04T16:35:24.000Z</time>
      </trkpt>
      <trkpt lat="45.83586" lon="4.68288">
        <ele>316.20499</ele>
        <time>2023-07-04T16:35:25.000Z</time>
      </trkpt>
      <trkpt lat="45.83585" lon="4.68292">
        <ele>316.29022</ele>
        <time>2023-07-04T16:35:26.000Z</time>
      </trkpt>
      <trkpt lat="45.83584" lon="4.68295">
        <ele>317.94415</ele>
        <time>2023-07-04T16:35:27.000Z</time>
      </trkpt>
      <trkpt lat="45.83583" lon="4.68299">
        <ele>319.60907</ele>
        <time>2023-07-04T16:35:28.000Z</time>
      </trkpt>
      <trkpt lat="45.83582" lon="4.68304">
        <ele>321.31866</ele>
        <time>2023-07-04T16:35:29.000Z</time>
      </trkpt>
      <trkpt lat="45.83582" lon="4.68309">
        <ele>323.01437</ele>
        <time>2023-07-04T16:35:30.000Z</time>
      </trkpt>
      <trkpt lat="45.83582" lon="4.68314">
        <ele>324.55527</ele>
        <time>2023-07-04T16:35:31.000Z</time>
      </trkpt>
      <trkpt lat="45.83582" lon="4.6832">
        <ele>326.09872</ele>
        <time>2023-07-04T16:35:32.000Z</time>
      </trkpt>
      <trkpt lat="45.83582" lon="4.68326">
        <ele>327.61505</ele>
        <time>2023-07-04T16:35:33.000Z</time>
      </trkpt>
      <trkpt lat="45.83583" lon="4.68333">
        <ele>329.11639</ele>
        <time>2023-07-04T16:35:34.000Z</time>
      </trkpt>
      <trkpt lat="45.83583" lon="4.6834">
        <ele>330.60565</ele>
        <time>2023-07-04T16:35:35.000Z</time>
      </trkpt>
      <trkpt lat="45.83584" lon="4.68348">
        <ele>332.39783</ele>
        <time>2023-07-04T16:35:36.000Z</time>
      </trkpt>
      <trkpt lat="45.83584" lon="4.68355">
        <ele>334.11679</ele>
        <time>2023-07-04T16:35:37.000Z</time>
      </trkpt>
      <trkpt lat="45.83584" lon="4.68364">
        <ele>335.85538</ele>
        <time>2023-07-04T16:35:38.000Z</time>
      </trkpt>
      <trkpt lat="45.83582" lon="4.68372">
        <ele>337.74194</ele>
        <time>2023-07-04T16:35:39.000Z</time>
      </trkpt>
      <trkpt lat="45.8358" lon="4.6838">
        <ele>339.72736</ele>
        <time>2023-07-04T16:35:40.000Z</time>
      </trkpt>
      <trkpt lat="45.83577" lon="4.68387">
        <ele>340.98016</ele>
        <time>2023-07-04T16:35:41.000Z</time>
      </trkpt>
      <trkpt lat="45.83573" lon="4.68394">
        <ele>342.43518</ele>
        <time>2023-07-04T16:35:42.000Z</time>
      </trkpt>
      <trkpt lat="45.83569" lon="4.684">
        <ele>343.89874</ele>
        <time>2023-07-04T16:35:43.000Z</time>
      </trkpt>
      <trkpt lat="45.83566" lon="4.68406">
        <ele>345.36456</ele>
        <time>2023-07-04T16:35:44.000Z</time>
      </trkpt>
      <trkpt lat="45.83562" lon="4.68413">
        <ele>346.83081</ele>
        <time>2023-07-04T16:35:45.000Z</time>
      </trkpt>
      <trkpt lat="45.83558" lon="4.68419">
        <ele>348.28281</ele>
        <time>2023-07-04T16:35:46.000Z</time>
      </trkpt>
      <trkpt lat="45.83554" lon="4.68424">
        <ele>348.33789</ele>
        <time>2023-07-04T16:35:47.000Z</time>
      </trkpt>
      <trkpt lat="45.83549" lon="4.68429">
        <ele>348.39471</ele>
        <time>2023-07-04T16:35:48.000Z</time>
      </trkpt>
      <trkpt lat="45.83545" lon="4.68433">
        <ele>348.45352</ele>
        <time>2023-07-04T16:35:49.000Z</time>
      </trkpt>
      <trkpt lat="45.8354" lon="4.68438">
        <ele>348.52856</ele>
        <time>2023-07-04T16:35:50.000Z</time>
      </trkpt>
      <trkpt lat="45.83535" lon="4.68441">
        <ele>348.59882</ele>
        <time>2023-07-04T16:35:51.000Z</time>
      </trkpt>
      <trkpt lat="45.83529" lon="4.68445">
        <ele>347.08368</ele>
        <time>2023-07-04T16:35:52.000Z</time>
      </trkpt>
      <trkpt lat="45.83524" lon="4.6845">
        <ele>347.0943</ele>
        <time>2023-07-04T16:35:53.000Z</time>
      </trkpt>
      <trkpt lat="45.83519" lon="4.68453">
        <ele>347.10638</ele>
        <time>2023-07-04T16:35:54.000Z</time>
      </trkpt>
      <trkpt lat="45.83513" lon="4.68456">
        <ele>347.12527</ele>
        <time>2023-07-04T16:35:55.000Z</time>
      </trkpt>
      <trkpt lat="45.83507" lon="4.6846">
        <ele>346.82031</ele>
        <time>2023-07-04T16:35:56.000Z</time>
      </trkpt>
      <trkpt lat="45.83501" lon="4.68463">
        <ele>346.52347</ele>
        <time>2023-07-04T16:35:57.000Z</time>
      </trkpt>
      <trkpt lat="45.83496" lon="4.68468">
        <ele>344.67682</ele>
        <time>2023-07-04T16:35:58.000Z</time>
      </trkpt>
      <trkpt lat="45.8349" lon="4.68472">
        <ele>342.67218</ele>
        <time>2023-07-04T16:35:59.000Z</time>
      </trkpt>
      <trkpt lat="45.83485" lon="4.68476">
        <ele>340.67084</ele>
        <time>2023-07-04T16:36:00.000Z</time>
      </trkpt>
      <trkpt lat="45.83479" lon="4.6848">
        <ele>339.4346</ele>
        <time>2023-07-04T16:36:01.000Z</time>
      </trkpt>
      <trkpt lat="45.83474" lon="4.68483">
        <ele>338.09149</ele>
        <time>2023-07-04T16:36:02.000Z</time>
      </trkpt>
      <trkpt lat="45.83469" lon="4.68488">
        <ele>336.71198</ele>
        <time>2023-07-04T16:36:03.000Z</time>
      </trkpt>
      <trkpt lat="45.83463" lon="4.68491">
        <ele>335.35037</ele>
        <time>2023-07-04T16:36:04.000Z</time>
      </trkpt>
      <trkpt lat="45.83457" lon="4.68495">
        <ele>334.00226</ele>
        <time>2023-07-04T16:36:05.000Z</time>
      </trkpt>
      <trkpt lat="45.83452" lon="4.68498">
        <ele>332.67889</ele>
        <time>2023-07-04T16:36:06.000Z</time>
      </trkpt>
      <trkpt lat="45.83446" lon="4.685">
        <ele>331.21921</ele>
        <time>2023-07-04T16:36:07.000Z</time>
      </trkpt>
      <trkpt lat="45.83441" lon="4.68503">
        <ele>329.75958</ele>
        <time>2023-07-04T16:36:08.000Z</time>
      </trkpt>
      <trkpt lat="45.83435" lon="4.68506">
        <ele>328.3158</ele>
        <time>2023-07-04T16:36:09.000Z</time>
      </trkpt>
      <trkpt lat="45.83429" lon="4.68509">
        <ele>326.87234</ele>
        <time>2023-07-04T16:36:10.000Z</time>
      </trkpt>
      <trkpt lat="45.83424" lon="4.68514">
        <ele>325.41922</ele>
        <time>2023-07-04T16:36:11.000Z</time>
      </trkpt>
      <trkpt lat="45.83418" lon="4.68517">
        <ele>325.57474</ele>
        <time>2023-07-04T16:36:12.000Z</time>
      </trkpt>
      <trkpt lat="45.83413" lon="4.6852">
        <ele>324.21967</ele>
        <time>2023-07-04T16:36:13.000Z</time>
      </trkpt>
      <trkpt lat="45.83408" lon="4.68524">
        <ele>322.84903</ele>
        <time>2023-07-04T16:36:14.000Z</time>
      </trkpt>
      <trkpt lat="45.83403" lon="4.68527">
        <ele>321.34567</ele>
        <time>2023-07-04T16:36:15.000Z</time>
      </trkpt>
      <trkpt lat="45.83397" lon="4.6853">
        <ele>319.84613</ele>
        <time>2023-07-04T16:36:16.000Z</time>
      </trkpt>
      <trkpt lat="45.83391" lon="4.68534">
        <ele>318.38214</ele>
        <time>2023-07-04T16:36:17.000Z</time>
      </trkpt>
      <trkpt lat="45.83385" lon="4.68536">
        <ele>318.64786</ele>
        <time>2023-07-04T16:36:18.000Z</time>
      </trkpt>
      <trkpt lat="45.8338" lon="4.68539">
        <ele>318.84586</ele>
        <time>2023-07-04T16:36:19.000Z</time>
      </trkpt>
      <trkpt lat="45.83375" lon="4.68541">
        <ele>319.03217</ele>
        <time>2023-07-04T16:36:20.000Z</time>
      </trkpt>
      <trkpt lat="45.83369" lon="4.68544">
        <ele>319.22345</ele>
        <time>2023-07-04T16:36:21.000Z</time>
      </trkpt>
      <trkpt lat="45.83364" lon="4.68547">
        <ele>319.40433</ele>
        <time>2023-07-04T16:36:22.000Z</time>
      </trkpt>
      <trkpt lat="45.83358" lon="4.68546">
        <ele>319.59106</ele>
        <time>2023-07-04T16:36:23.000Z</time>
      </trkpt>
      <trkpt lat="45.83353" lon="4.68545">
        <ele>319.72818</ele>
        <time>2023-07-04T16:36:24.000Z</time>
      </trkpt>
      <trkpt lat="45.83348" lon="4.68543">
        <ele>319.8479</ele>
        <time>2023-07-04T16:36:25.000Z</time>
      </trkpt>
      <trkpt lat="45.83344" lon="4.6854">
        <ele>319.96191</ele>
        <time>2023-07-04T16:36:26.000Z</time>
      </trkpt>
      <trkpt lat="45.8334" lon="4.68537">
        <ele>320.07553</ele>
        <time>2023-07-04T16:36:27.000Z</time>
      </trkpt>
      <trkpt lat="45.83336" lon="4.68534">
        <ele>320.18057</ele>
        <time>2023-07-04T16:36:28.000Z</time>
      </trkpt>
      <trkpt lat="45.83331" lon="4.68532">
        <ele>320.28619</ele>
        <time>2023-07-04T16:36:29.000Z</time>
      </trkpt>
      <trkpt lat="45.83327" lon="4.68531">
        <ele>320.37476</ele>
        <time>2023-07-04T16:36:30.000Z</time>
      </trkpt>
      <trkpt lat="45.83323" lon="4.68529">
        <ele>320.44998</ele>
        <time>2023-07-04T16:36:31.000Z</time>
      </trkpt>
      <trkpt lat="45.83318" lon="4.68528">
        <ele>320.53595</ele>
        <time>2023-07-04T16:36:32.000Z</time>
      </trkpt>
      <trkpt lat="45.83314" lon="4.6853">
        <ele>320.63113</ele>
        <time>2023-07-04T16:36:33.000Z</time>
      </trkpt>
      <trkpt lat="45.83311" lon="4.68533">
        <ele>320.74655</ele>
        <time>2023-07-04T16:36:34.000Z</time>
      </trkpt>
      <trkpt lat="45.83309" lon="4.68538">
        <ele>320.98331</ele>
        <time>2023-07-04T16:36:35.000Z</time>
      </trkpt>
      <trkpt lat="45.83309" lon="4.68544">
        <ele>321.2222</ele>
        <time>2023-07-04T16:36:36.000Z</time>
      </trkpt>
      <trkpt lat="45.8331" lon="4.6855">
        <ele>321.44257</ele>
        <time>2023-07-04T16:36:37.000Z</time>
      </trkpt>
      <trkpt lat="45.83312" lon="4.68557">
        <ele>321.40244</ele>
        <time>2023-07-04T16:36:38.000Z</time>
      </trkpt>
      <trkpt lat="45.83315" lon="4.68562">
        <ele>321.4346</ele>
        <time>2023-07-04T16:36:39.000Z</time>
      </trkpt>
      <trkpt lat="45.83317" lon="4.68568">
        <ele>321.45792</ele>
        <time>2023-07-04T16:36:40.000Z</time>
      </trkpt>
      <trkpt lat="45.83319" lon="4.68575">
        <ele>321.47342</ele>
        <time>2023-07-04T16:36:41.000Z</time>
      </trkpt>
      <trkpt lat="45.83321" lon="4.68581">
        <ele>321.45349</ele>
        <time>2023-07-04T16:36:42.000Z</time>
      </trkpt>
      <trkpt lat="45.83322" lon="4.68589">
        <ele>321.4454</ele>
        <time>2023-07-04T16:36:43.000Z</time>
      </trkpt>
      <trkpt lat="45.83322" lon="4.68596">
        <ele>321.47513</ele>
        <time>2023-07-04T16:36:44.000Z</time>
      </trkpt>
      <trkpt lat="45.83323" lon="4.68602">
        <ele>322.94852</ele>
        <time>2023-07-04T16:36:45.000Z</time>
      </trkpt>
      <trkpt lat="45.83323" lon="4.68608">
        <ele>323.04303</ele>
        <time>2023-07-04T16:36:46.000Z</time>
      </trkpt>
      <trkpt lat="45.83324" lon="4.68615">
        <ele>324.11841</ele>
        <time>2023-07-04T16:36:47.000Z</time>
      </trkpt>
      <trkpt lat="45.83325" lon="4.6862">
        <ele>325.16055</ele>
        <time>2023-07-04T16:36:48.000Z</time>
      </trkpt>
      <trkpt lat="45.83327" lon="4.68635">
        <ele>326.22156</ele>
        <time>2023-07-04T16:36:49.000Z</time>
      </trkpt>
      <trkpt lat="45.83332" lon="4.68639">
        <ele>327.34891</ele>
        <time>2023-07-04T16:36:50.000Z</time>
      </trkpt>
      <trkpt lat="45.83332" lon="4.68646">
        <ele>328.38861</ele>
        <time>2023-07-04T16:36:51.000Z</time>
      </trkpt>
      <trkpt lat="45.83335" lon="4.68647">
        <ele>329.4129</ele>
        <time>2023-07-04T16:36:53.000Z</time>
      </trkpt>
      <trkpt lat="45.83336" lon="4.68652">
        <ele>330.41364</ele>
        <time>2023-07-04T16:36:54.000Z</time>
      </trkpt>
      <trkpt lat="45.83335" lon="4.68655">
        <ele>331.21207</ele>
        <time>2023-07-04T16:36:55.000Z</time>
      </trkpt>
      <trkpt lat="45.83337" lon="4.6866">
        <ele>331.98422</ele>
        <time>2023-07-04T16:36:56.000Z</time>
      </trkpt>
      <trkpt lat="45.83339" lon="4.68665">
        <ele>332.74756</ele>
        <time>2023-07-04T16:36:57.000Z</time>
      </trkpt>
      <trkpt lat="45.8334" lon="4.68671">
        <ele>333.51251</ele>
        <time>2023-07-04T16:36:58.000Z</time>
      </trkpt>
      <trkpt lat="45.83342" lon="4.68677">
        <ele>334.44687</ele>
        <time>2023-07-04T16:36:59.000Z</time>
      </trkpt>
      <trkpt lat="45.83343" lon="4.68682">
        <ele>335.37042</ele>
        <time>2023-07-04T16:37:00.000Z</time>
      </trkpt>
      <trkpt lat="45.83347" lon="4.68688">
        <ele>336.30484</ele>
        <time>2023-07-04T16:37:01.000Z</time>
      </trkpt>
      <trkpt lat="45.83349" lon="4.68693">
        <ele>337.25327</ele>
        <time>2023-07-04T16:37:02.000Z</time>
      </trkpt>
      <trkpt lat="45.83352" lon="4.68698">
        <ele>338.22516</ele>
        <time>2023-07-04T16:37:03.000Z</time>
      </trkpt>
      <trkpt lat="45.83355" lon="4.68703">
        <ele>339.18579</ele>
        <time>2023-07-04T16:37:04.000Z</time>
      </trkpt>
      <trkpt lat="45.83358" lon="4.68708">
        <ele>340.30084</ele>
        <time>2023-07-04T16:37:05.000Z</time>
      </trkpt>
      <trkpt lat="45.8336" lon="4.68713">
        <ele>340.07529</ele>
        <time>2023-07-04T16:37:06.000Z</time>
      </trkpt>
      <trkpt lat="45.83363" lon="4.6872">
        <ele>340.84546</ele>
        <time>2023-07-04T16:37:07.000Z</time>
      </trkpt>
      <trkpt lat="45.83365" lon="4.68726">
        <ele>340.67108</ele>
        <time>2023-07-04T16:37:08.000Z</time>
      </trkpt>
      <trkpt lat="45.83367" lon="4.68731">
        <ele>340.49664</ele>
        <time>2023-07-04T16:37:09.000Z</time>
      </trkpt>
      <trkpt lat="45.83369" lon="4.68737">
        <ele>340.27802</ele>
        <time>2023-07-04T16:37:10.000Z</time>
      </trkpt>
      <trkpt lat="45.83372" lon="4.68743">
        <ele>340.00458</ele>
        <time>2023-07-04T16:37:11.000Z</time>
      </trkpt>
      <trkpt lat="45.83375" lon="4.68749">
        <ele>339.88223</ele>
        <time>2023-07-04T16:37:12.000Z</time>
      </trkpt>
      <trkpt lat="45.83379" lon="4.68754">
        <ele>339.81729</ele>
        <time>2023-07-04T16:37:13.000Z</time>
      </trkpt>
      <trkpt lat="45.83382" lon="4.6876">
        <ele>339.70218</ele>
        <time>2023-07-04T16:37:14.000Z</time>
      </trkpt>
      <trkpt lat="45.83384" lon="4.68767">
        <ele>339.71729</ele>
        <time>2023-07-04T16:37:15.000Z</time>
      </trkpt>
      <trkpt lat="45.83386" lon="4.68773">
        <ele>338.79877</ele>
        <time>2023-07-04T16:37:16.000Z</time>
      </trkpt>
      <trkpt lat="45.83389" lon="4.6878">
        <ele>337.87909</ele>
        <time>2023-07-04T16:37:17.000Z</time>
      </trkpt>
      <trkpt lat="45.83391" lon="4.68787">
        <ele>336.96643</ele>
        <time>2023-07-04T16:37:18.000Z</time>
      </trkpt>
      <trkpt lat="45.83392" lon="4.68794">
        <ele>335.92874</ele>
        <time>2023-07-04T16:37:19.000Z</time>
      </trkpt>
      <trkpt lat="45.83394" lon="4.688">
        <ele>334.87848</ele>
        <time>2023-07-04T16:37:20.000Z</time>
      </trkpt>
      <trkpt lat="45.83396" lon="4.68807">
        <ele>333.81757</ele>
        <time>2023-07-04T16:37:21.000Z</time>
      </trkpt>
      <trkpt lat="45.83398" lon="4.68813">
        <ele>334.35977</ele>
        <time>2023-07-04T16:37:22.000Z</time>
      </trkpt>
      <trkpt lat="45.83401" lon="4.68819">
        <ele>334.67535</ele>
        <time>2023-07-04T16:37:23.000Z</time>
      </trkpt>
      <trkpt lat="45.83402" lon="4.68826">
        <ele>335.00455</ele>
        <time>2023-07-04T16:37:24.000Z</time>
      </trkpt>
      <trkpt lat="45.83404" lon="4.68832">
        <ele>335.1824</ele>
        <time>2023-07-04T16:37:25.000Z</time>
      </trkpt>
      <trkpt lat="45.83406" lon="4.68839">
        <ele>335.25482</ele>
        <time>2023-07-04T16:37:26.000Z</time>
      </trkpt>
      <trkpt lat="45.83407" lon="4.68845">
        <ele>335.70236</ele>
        <time>2023-07-04T16:37:27.000Z</time>
      </trkpt>
      <trkpt lat="45.8341" lon="4.68852">
        <ele>336.08417</ele>
        <time>2023-07-04T16:37:28.000Z</time>
      </trkpt>
      <trkpt lat="45.83412" lon="4.68858">
        <ele>336.87173</ele>
        <time>2023-07-04T16:37:29.000Z</time>
      </trkpt>
      <trkpt lat="45.83412" lon="4.68863">
        <ele>337.65726</ele>
        <time>2023-07-04T16:37:30.000Z</time>
      </trkpt>
      <trkpt lat="45.83413" lon="4.68869">
        <ele>338.47675</ele>
        <time>2023-07-04T16:37:31.000Z</time>
      </trkpt>
      <trkpt lat="45.83414" lon="4.68876">
        <ele>339.2355</ele>
        <time>2023-07-04T16:37:32.000Z</time>
      </trkpt>
      <trkpt lat="45.83415" lon="4.68882">
        <ele>339.96906</ele>
        <time>2023-07-04T16:37:33.000Z</time>
      </trkpt>
      <trkpt lat="45.83416" lon="4.68887">
        <ele>340.84521</ele>
        <time>2023-07-04T16:37:34.000Z</time>
      </trkpt>
      <trkpt lat="45.83417" lon="4.68891">
        <ele>341.82382</ele>
        <time>2023-07-04T16:37:35.000Z</time>
      </trkpt>
      <trkpt lat="45.83418" lon="4.68896">
        <ele>343.92343</ele>
        <time>2023-07-04T16:37:36.000Z</time>
      </trkpt>
      <trkpt lat="45.83419" lon="4.68899">
        <ele>345.84845</ele>
        <time>2023-07-04T16:37:37.000Z</time>
      </trkpt>
      <trkpt lat="45.8342" lon="4.68902">
        <ele>347.78314</ele>
        <time>2023-07-04T16:37:38.000Z</time>
      </trkpt>
      <trkpt lat="45.83422" lon="4.68907">
        <ele>349.55426</ele>
        <time>2023-07-04T16:37:39.000Z</time>
      </trkpt>
      <trkpt lat="45.83423" lon="4.68911">
        <ele>351.298</ele>
        <time>2023-07-04T16:37:40.000Z</time>
      </trkpt>
      <trkpt lat="45.83424" lon="4.68914">
        <ele>353.14606</ele>
        <time>2023-07-04T16:37:41.000Z</time>
      </trkpt>
      <trkpt lat="45.83425" lon="4.68919">
        <ele>353.50726</ele>
        <time>2023-07-04T16:37:42.000Z</time>
      </trkpt>
      <trkpt lat="45.83425" lon="4.68923">
        <ele>354.14417</ele>
        <time>2023-07-04T16:37:43.000Z</time>
      </trkpt>
      <trkpt lat="45.83424" lon="4.68928">
        <ele>354.59494</ele>
        <time>2023-07-04T16:37:44.000Z</time>
      </trkpt>
      <trkpt lat="45.83423" lon="4.68932">
        <ele>354.98132</ele>
        <time>2023-07-04T16:37:45.000Z</time>
      </trkpt>
      <trkpt lat="45.83422" lon="4.68936">
        <ele>355.38461</ele>
        <time>2023-07-04T16:37:46.000Z</time>
      </trkpt>
      <trkpt lat="45.83421" lon="4.6894">
        <ele>355.80573</ele>
        <time>2023-07-04T16:37:47.000Z</time>
      </trkpt>
      <trkpt lat="45.8342" lon="4.68944">
        <ele>356.24677</ele>
        <time>2023-07-04T16:37:48.000Z</time>
      </trkpt>
      <trkpt lat="45.83418" lon="4.68948">
        <ele>356.34009</ele>
        <time>2023-07-04T16:37:49.000Z</time>
      </trkpt>
      <trkpt lat="45.83417" lon="4.68952">
        <ele>356.46475</ele>
        <time>2023-07-04T16:37:50.000Z</time>
      </trkpt>
      <trkpt lat="45.83416" lon="4.68957">
        <ele>356.56091</ele>
        <time>2023-07-04T16:37:51.000Z</time>
      </trkpt>
      <trkpt lat="45.83415" lon="4.68961">
        <ele>356.69708</ele>
        <time>2023-07-04T16:37:52.000Z</time>
      </trkpt>
      <trkpt lat="45.83414" lon="4.68965">
        <ele>356.8092</ele>
        <time>2023-07-04T16:37:53.000Z</time>
      </trkpt>
      <trkpt lat="45.83412" lon="4.6897">
        <ele>356.85391</ele>
        <time>2023-07-04T16:37:54.000Z</time>
      </trkpt>
      <trkpt lat="45.83411" lon="4.68975">
        <ele>356.88498</ele>
        <time>2023-07-04T16:37:55.000Z</time>
      </trkpt>
      <trkpt lat="45.8341" lon="4.6898">
        <ele>356.81848</ele>
        <time>2023-07-04T16:37:56.000Z</time>
      </trkpt>
      <trkpt lat="45.83409" lon="4.68985">
        <ele>356.93167</ele>
        <time>2023-07-04T16:37:57.000Z</time>
      </trkpt>
      <trkpt lat="45.83407" lon="4.68989">
        <ele>357.2644</ele>
        <time>2023-07-04T16:37:58.000Z</time>
      </trkpt>
      <trkpt lat="45.83406" lon="4.68994">
        <ele>357.09982</ele>
        <time>2023-07-04T16:37:59.000Z</time>
      </trkpt>
      <trkpt lat="45.83405" lon="4.69">
        <ele>357.08548</ele>
        <time>2023-07-04T16:38:00.000Z</time>
      </trkpt>
      <trkpt lat="45.83404" lon="4.69004">
        <ele>356.97305</ele>
        <time>2023-07-04T16:38:01.000Z</time>
      </trkpt>
      <trkpt lat="45.83403" lon="4.69009">
        <ele>356.75677</ele>
        <time>2023-07-04T16:38:02.000Z</time>
      </trkpt>
      <trkpt lat="45.83402" lon="4.69014">
        <ele>356.51727</ele>
        <time>2023-07-04T16:38:03.000Z</time>
      </trkpt>
      <trkpt lat="45.83401" lon="4.69018">
        <ele>356.47</ele>
        <time>2023-07-04T16:38:04.000Z</time>
      </trkpt>
      <trkpt lat="45.834" lon="4.69023">
        <ele>356.49634</ele>
        <time>2023-07-04T16:38:05.000Z</time>
      </trkpt>
      <trkpt lat="45.83398" lon="4.69027">
        <ele>356.48987</ele>
        <time>2023-07-04T16:38:06.000Z</time>
      </trkpt>
      <trkpt lat="45.83396" lon="4.69032">
        <ele>356.50241</ele>
        <time>2023-07-04T16:38:07.000Z</time>
      </trkpt>
      <trkpt lat="45.83394" lon="4.69036">
        <ele>356.47928</ele>
        <time>2023-07-04T16:38:08.000Z</time>
      </trkpt>
      <trkpt lat="45.83391" lon="4.6904">
        <ele>356.44492</ele>
        <time>2023-07-04T16:38:09.000Z</time>
      </trkpt>
      <trkpt lat="45.83389" lon="4.69044">
        <ele>356.39633</ele>
        <time>2023-07-04T16:38:10.000Z</time>
      </trkpt>
      <trkpt lat="45.83386" lon="4.69047">
        <ele>356.37653</ele>
        <time>2023-07-04T16:38:11.000Z</time>
      </trkpt>
      <trkpt lat="45.83383" lon="4.69051">
        <ele>356.38232</ele>
        <time>2023-07-04T16:38:12.000Z</time>
      </trkpt>
      <trkpt lat="45.8338" lon="4.69055">
        <ele>356.54443</ele>
        <time>2023-07-04T16:38:13.000Z</time>
      </trkpt>
      <trkpt lat="45.83379" lon="4.6906">
        <ele>357.05341</ele>
        <time>2023-07-04T16:38:14.000Z</time>
      </trkpt>
      <trkpt lat="45.83378" lon="4.69065">
        <ele>357.48184</ele>
        <time>2023-07-04T16:38:15.000Z</time>
      </trkpt>
      <trkpt lat="45.83377" lon="4.6907">
        <ele>357.89484</ele>
        <time>2023-07-04T16:38:16.000Z</time>
      </trkpt>
      <trkpt lat="45.83376" lon="4.69075">
        <ele>358.48917</ele>
        <time>2023-07-04T16:38:17.000Z</time>
      </trkpt>
      <trkpt lat="45.83376" lon="4.69081">
        <ele>358.91943</ele>
        <time>2023-07-04T16:38:18.000Z</time>
      </trkpt>
      <trkpt lat="45.83375" lon="4.69087">
        <ele>359.40375</ele>
        <time>2023-07-04T16:38:19.000Z</time>
      </trkpt>
      <trkpt lat="45.83375" lon="4.69093">
        <ele>359.87906</ele>
        <time>2023-07-04T16:38:20.000Z</time>
      </trkpt>
      <trkpt lat="45.83374" lon="4.69099">
        <ele>360.3522</ele>
        <time>2023-07-04T16:38:21.000Z</time>
      </trkpt>
      <trkpt lat="45.83373" lon="4.69107">
        <ele>360.84537</ele>
        <time>2023-07-04T16:38:22.000Z</time>
      </trkpt>
      <trkpt lat="45.83371" lon="4.69114">
        <ele>361.30585</ele>
        <time>2023-07-04T16:38:23.000Z</time>
      </trkpt>
      <trkpt lat="45.8337" lon="4.69122">
        <ele>361.74875</ele>
        <time>2023-07-04T16:38:24.000Z</time>
      </trkpt>
      <trkpt lat="45.8337" lon="4.69129">
        <ele>362.14655</ele>
        <time>2023-07-04T16:38:25.000Z</time>
      </trkpt>
      <trkpt lat="45.83369" lon="4.69137">
        <ele>362.89526</ele>
        <time>2023-07-04T16:38:26.000Z</time>
      </trkpt>
      <trkpt lat="45.83369" lon="4.69146">
        <ele>363.73203</ele>
        <time>2023-07-04T16:38:27.000Z</time>
      </trkpt>
      <trkpt lat="45.83368" lon="4.69153">
        <ele>364.62979</ele>
        <time>2023-07-04T16:38:28.000Z</time>
      </trkpt>
      <trkpt lat="45.83368" lon="4.6916">
        <ele>365.93164</ele>
        <time>2023-07-04T16:38:29.000Z</time>
      </trkpt>
      <trkpt lat="45.83367" lon="4.69168">
        <ele>366.55988</ele>
        <time>2023-07-04T16:38:30.000Z</time>
      </trkpt>
      <trkpt lat="45.83367" lon="4.69175">
        <ele>367.19733</ele>
        <time>2023-07-04T16:38:31.000Z</time>
      </trkpt>
      <trkpt lat="45.83366" lon="4.69182">
        <ele>367.72626</ele>
        <time>2023-07-04T16:38:32.000Z</time>
      </trkpt>
      <trkpt lat="45.83365" lon="4.69188">
        <ele>368.01874</ele>
        <time>2023-07-04T16:38:33.000Z</time>
      </trkpt>
      <trkpt lat="45.83363" lon="4.69194">
        <ele>367.83542</ele>
        <time>2023-07-04T16:38:34.000Z</time>
      </trkpt>
      <trkpt lat="45.83363" lon="4.69201">
        <ele>367.60431</ele>
        <time>2023-07-04T16:38:35.000Z</time>
      </trkpt>
      <trkpt lat="45.83362" lon="4.69208">
        <ele>367.37616</ele>
        <time>2023-07-04T16:38:36.000Z</time>
      </trkpt>
      <trkpt lat="45.8336" lon="4.69215">
        <ele>366.94922</ele>
        <time>2023-07-04T16:38:37.000Z</time>
      </trkpt>
      <trkpt lat="45.8336" lon="4.69221">
        <ele>366.4989</ele>
        <time>2023-07-04T16:38:38.000Z</time>
      </trkpt>
      <trkpt lat="45.8336" lon="4.69227">
        <ele>366.81525</ele>
        <time>2023-07-04T16:38:39.000Z</time>
      </trkpt>
      <trkpt lat="45.83358" lon="4.69233">
        <ele>367.2973</ele>
        <time>2023-07-04T16:38:40.000Z</time>
      </trkpt>
      <trkpt lat="45.83357" lon="4.69241">
        <ele>367.71338</ele>
        <time>2023-07-04T16:38:41.000Z</time>
      </trkpt>
      <trkpt lat="45.83356" lon="4.69247">
        <ele>368.0975</ele>
        <time>2023-07-04T16:38:42.000Z</time>
      </trkpt>
      <trkpt lat="45.83354" lon="4.69254">
        <ele>368.5899</ele>
        <time>2023-07-04T16:38:43.000Z</time>
      </trkpt>
      <trkpt lat="45.83354" lon="4.69262">
        <ele>368.5575</ele>
        <time>2023-07-04T16:38:44.000Z</time>
      </trkpt>
      <trkpt lat="45.83353" lon="4.69269">
        <ele>368.72302</ele>
        <time>2023-07-04T16:38:45.000Z</time>
      </trkpt>
      <trkpt lat="45.83353" lon="4.69278">
        <ele>368.56946</ele>
        <time>2023-07-04T16:38:46.000Z</time>
      </trkpt>
      <trkpt lat="45.83352" lon="4.69286">
        <ele>368.21527</ele>
        <time>2023-07-04T16:38:47.000Z</time>
      </trkpt>
      <trkpt lat="45.83352" lon="4.69295">
        <ele>367.86157</ele>
        <time>2023-07-04T16:38:48.000Z</time>
      </trkpt>
      <trkpt lat="45.83351" lon="4.69304">
        <ele>367.03265</ele>
        <time>2023-07-04T16:38:49.000Z</time>
      </trkpt>
      <trkpt lat="45.83352" lon="4.69313">
        <ele>367.04514</ele>
        <time>2023-07-04T16:38:50.000Z</time>
      </trkpt>
      <trkpt lat="45.83352" lon="4.69322">
        <ele>367.23019</ele>
        <time>2023-07-04T16:38:51.000Z</time>
      </trkpt>
      <trkpt lat="45.83351" lon="4.69331">
        <ele>366.99319</ele>
        <time>2023-07-04T16:38:52.000Z</time>
      </trkpt>
      <trkpt lat="45.83351" lon="4.6934">
        <ele>366.90106</ele>
        <time>2023-07-04T16:38:53.000Z</time>
      </trkpt>
      <trkpt lat="45.8335" lon="4.69349">
        <ele>366.89163</ele>
        <time>2023-07-04T16:38:54.000Z</time>
      </trkpt>
      <trkpt lat="45.8335" lon="4.69358">
        <ele>367.07645</ele>
        <time>2023-07-04T16:38:55.000Z</time>
      </trkpt>
      <trkpt lat="45.83349" lon="4.69367">
        <ele>367.26993</ele>
        <time>2023-07-04T16:38:56.000Z</time>
      </trkpt>
      <trkpt lat="45.83347" lon="4.69377">
        <ele>367.48859</ele>
        <time>2023-07-04T16:38:57.000Z</time>
      </trkpt>
      <trkpt lat="45.83345" lon="4.69386">
        <ele>367.66595</ele>
        <time>2023-07-04T16:38:58.000Z</time>
      </trkpt>
      <trkpt lat="45.83344" lon="4.69396">
        <ele>367.68402</ele>
        <time>2023-07-04T16:38:59.000Z</time>
      </trkpt>
      <trkpt lat="45.83342" lon="4.69405">
        <ele>367.42523</ele>
        <time>2023-07-04T16:39:00.000Z</time>
      </trkpt>
      <trkpt lat="45.83341" lon="4.69415">
        <ele>365.6062</ele>
        <time>2023-07-04T16:39:01.000Z</time>
      </trkpt>
      <trkpt lat="45.8334" lon="4.69424">
        <ele>365.2937</ele>
        <time>2023-07-04T16:39:02.000Z</time>
      </trkpt>
      <trkpt lat="45.83339" lon="4.69433">
        <ele>364.75092</ele>
        <time>2023-07-04T16:39:03.000Z</time>
      </trkpt>
      <trkpt lat="45.83338" lon="4.69443">
        <ele>364.73676</ele>
        <time>2023-07-04T16:39:04.000Z</time>
      </trkpt>
      <trkpt lat="45.83338" lon="4.69453">
        <ele>364.52533</ele>
        <time>2023-07-04T16:39:05.000Z</time>
      </trkpt>
      <trkpt lat="45.83337" lon="4.69463">
        <ele>364.2749</ele>
        <time>2023-07-04T16:39:06.000Z</time>
      </trkpt>
      <trkpt lat="45.83336" lon="4.69471">
        <ele>364.10233</ele>
        <time>2023-07-04T16:39:07.000Z</time>
      </trkpt>
      <trkpt lat="45.83336" lon="4.69481">
        <ele>364.17792</ele>
        <time>2023-07-04T16:39:08.000Z</time>
      </trkpt>
      <trkpt lat="45.83336" lon="4.6949">
        <ele>364.31012</ele>
        <time>2023-07-04T16:39:09.000Z</time>
      </trkpt>
      <trkpt lat="45.83336" lon="4.69499">
        <ele>364.09933</ele>
        <time>2023-07-04T16:39:10.000Z</time>
      </trkpt>
      <trkpt lat="45.83336" lon="4.69509">
        <ele>363.66428</ele>
        <time>2023-07-04T16:39:11.000Z</time>
      </trkpt>
      <trkpt lat="45.83337" lon="4.69519">
        <ele>363.68893</ele>
        <time>2023-07-04T16:39:12.000Z</time>
      </trkpt>
      <trkpt lat="45.83338" lon="4.69528">
        <ele>363.63678</ele>
        <time>2023-07-04T16:39:13.000Z</time>
      </trkpt>
      <trkpt lat="45.83338" lon="4.69538">
        <ele>363.60162</ele>
        <time>2023-07-04T16:39:14.000Z</time>
      </trkpt>
      <trkpt lat="45.8334" lon="4.69547">
        <ele>361.83142</ele>
        <time>2023-07-04T16:39:15.000Z</time>
      </trkpt>
      <trkpt lat="45.83341" lon="4.69556">
        <ele>361.56915</ele>
        <time>2023-07-04T16:39:16.000Z</time>
      </trkpt>
      <trkpt lat="45.83342" lon="4.69565">
        <ele>361.28412</ele>
        <time>2023-07-04T16:39:17.000Z</time>
      </trkpt>
      <trkpt lat="45.83342" lon="4.69575">
        <ele>360.97391</ele>
        <time>2023-07-04T16:39:18.000Z</time>
      </trkpt>
      <trkpt lat="45.83344" lon="4.69583">
        <ele>360.63931</ele>
        <time>2023-07-04T16:39:19.000Z</time>
      </trkpt>
      <trkpt lat="45.83346" lon="4.69593">
        <ele>358.79074</ele>
        <time>2023-07-04T16:39:20.000Z</time>
      </trkpt>
      <trkpt lat="45.83347" lon="4.69602">
        <ele>358.56369</ele>
        <time>2023-07-04T16:39:21.000Z</time>
      </trkpt>
      <trkpt lat="45.83349" lon="4.69611">
        <ele>356.81403</ele>
        <time>2023-07-04T16:39:22.000Z</time>
      </trkpt>
      <trkpt lat="45.83351" lon="4.6962">
        <ele>355.17706</ele>
        <time>2023-07-04T16:39:23.000Z</time>
      </trkpt>
      <trkpt lat="45.83353" lon="4.69629">
        <ele>353.56009</ele>
        <time>2023-07-04T16:39:24.000Z</time>
      </trkpt>
      <trkpt lat="45.83354" lon="4.69638">
        <ele>351.98431</ele>
        <time>2023-07-04T16:39:25.000Z</time>
      </trkpt>
      <trkpt lat="45.83356" lon="4.69646">
        <ele>350.31927</ele>
        <time>2023-07-04T16:39:26.000Z</time>
      </trkpt>
      <trkpt lat="45.83357" lon="4.69655">
        <ele>348.64825</ele>
        <time>2023-07-04T16:39:27.000Z</time>
      </trkpt>
      <trkpt lat="45.83359" lon="4.69664">
        <ele>346.69897</ele>
        <time>2023-07-04T16:39:28.000Z</time>
      </trkpt>
      <trkpt lat="45.83361" lon="4.69673">
        <ele>345.12811</ele>
        <time>2023-07-04T16:39:29.000Z</time>
      </trkpt>
      <trkpt lat="45.83362" lon="4.69682">
        <ele>343.68295</ele>
        <time>2023-07-04T16:39:30.000Z</time>
      </trkpt>
      <trkpt lat="45.83363" lon="4.6969">
        <ele>342.255</ele>
        <time>2023-07-04T16:39:31.000Z</time>
      </trkpt>
      <trkpt lat="45.83364" lon="4.697">
        <ele>340.87082</ele>
        <time>2023-07-04T16:39:32.000Z</time>
      </trkpt>
      <trkpt lat="45.83366" lon="4.69709">
        <ele>340.90125</ele>
        <time>2023-07-04T16:39:33.000Z</time>
      </trkpt>
      <trkpt lat="45.83368" lon="4.69718">
        <ele>340.95041</ele>
        <time>2023-07-04T16:39:34.000Z</time>
      </trkpt>
      <trkpt lat="45.8337" lon="4.69727">
        <ele>342.63385</ele>
        <time>2023-07-04T16:39:35.000Z</time>
      </trkpt>
      <trkpt lat="45.83371" lon="4.69735">
        <ele>341.67395</ele>
        <time>2023-07-04T16:39:36.000Z</time>
      </trkpt>
      <trkpt lat="45.83373" lon="4.69744">
        <ele>340.4642</ele>
        <time>2023-07-04T16:39:37.000Z</time>
      </trkpt>
      <trkpt lat="45.83375" lon="4.69754">
        <ele>339.28882</ele>
        <time>2023-07-04T16:39:38.000Z</time>
      </trkpt>
      <trkpt lat="45.83377" lon="4.69762">
        <ele>338.13113</ele>
        <time>2023-07-04T16:39:39.000Z</time>
      </trkpt>
      <trkpt lat="45.83378" lon="4.69771">
        <ele>338.49854</ele>
        <time>2023-07-04T16:39:40.000Z</time>
      </trkpt>
      <trkpt lat="45.8338" lon="4.69778">
        <ele>338.86914</ele>
        <time>2023-07-04T16:39:41.000Z</time>
      </trkpt>
      <trkpt lat="45.83381" lon="4.69786">
        <ele>339.24298</ele>
        <time>2023-07-04T16:39:42.000Z</time>
      </trkpt>
      <trkpt lat="45.83383" lon="4.69793">
        <ele>339.62729</ele>
        <time>2023-07-04T16:39:43.000Z</time>
      </trkpt>
      <trkpt lat="45.83384" lon="4.698">
        <ele>339.98969</ele>
        <time>2023-07-04T16:39:44.000Z</time>
      </trkpt>
      <trkpt lat="45.83385" lon="4.69807">
        <ele>340.34616</ele>
        <time>2023-07-04T16:39:45.000Z</time>
      </trkpt>
      <trkpt lat="45.83387" lon="4.69814">
        <ele>340.81317</ele>
        <time>2023-07-04T16:39:46.000Z</time>
      </trkpt>
      <trkpt lat="45.83388" lon="4.69821">
        <ele>341.28015</ele>
        <time>2023-07-04T16:39:47.000Z</time>
      </trkpt>
      <trkpt lat="45.83389" lon="4.69827">
        <ele>341.72443</ele>
        <time>2023-07-04T16:39:48.000Z</time>
      </trkpt>
      <trkpt lat="45.8339" lon="4.69833">
        <ele>341.79303</ele>
        <time>2023-07-04T16:39:49.000Z</time>
      </trkpt>
      <trkpt lat="45.83391" lon="4.69839">
        <ele>341.71179</ele>
        <time>2023-07-04T16:39:50.000Z</time>
      </trkpt>
      <trkpt lat="45.83392" lon="4.69844">
        <ele>341.64044</ele>
        <time>2023-07-04T16:39:51.000Z</time>
      </trkpt>
      <trkpt lat="45.83394" lon="4.69847">
        <ele>341.54471</ele>
        <time>2023-07-04T16:39:52.000Z</time>
      </trkpt>
      <trkpt lat="45.83394" lon="4.69852">
        <ele>340.02997</ele>
        <time>2023-07-04T16:39:53.000Z</time>
      </trkpt>
      <trkpt lat="45.83394" lon="4.69856">
        <ele>338.49753</ele>
        <time>2023-07-04T16:39:54.000Z</time>
      </trkpt>
      <trkpt lat="45.83392" lon="4.69859">
        <ele>336.97418</ele>
        <time>2023-07-04T16:39:55.000Z</time>
      </trkpt>
      <trkpt lat="45.8339" lon="4.69861">
        <ele>336.54218</ele>
        <time>2023-07-04T16:39:56.000Z</time>
      </trkpt>
      <trkpt lat="45.83388" lon="4.69863">
        <ele>336.3811</ele>
        <time>2023-07-04T16:39:57.000Z</time>
      </trkpt>
      <trkpt lat="45.83387" lon="4.69867">
        <ele>336.20502</ele>
        <time>2023-07-04T16:39:58.000Z</time>
      </trkpt>
      <trkpt lat="45.83387" lon="4.69872">
        <ele>336.0387</ele>
        <time>2023-07-04T16:39:59.000Z</time>
      </trkpt>
      <trkpt lat="45.83386" lon="4.69876">
        <ele>335.86563</ele>
        <time>2023-07-04T16:40:00.000Z</time>
      </trkpt>
      <trkpt lat="45.83386" lon="4.6988">
        <ele>335.69336</ele>
        <time>2023-07-04T16:40:01.000Z</time>
      </trkpt>
      <trkpt lat="45.83386" lon="4.69886">
        <ele>335.4223</ele>
        <time>2023-07-04T16:40:02.000Z</time>
      </trkpt>
      <trkpt lat="45.83387" lon="4.69892">
        <ele>335.28757</ele>
        <time>2023-07-04T16:40:03.000Z</time>
      </trkpt>
      <trkpt lat="45.83389" lon="4.69899">
        <ele>335.15802</ele>
        <time>2023-07-04T16:40:04.000Z</time>
      </trkpt>
      <trkpt lat="45.83391" lon="4.69906">
        <ele>335.00543</ele>
        <time>2023-07-04T16:40:05.000Z</time>
      </trkpt>
      <trkpt lat="45.83396" lon="4.69913">
        <ele>334.84839</ele>
        <time>2023-07-04T16:40:06.000Z</time>
      </trkpt>
      <trkpt lat="45.834" lon="4.6992">
        <ele>334.6861</ele>
        <time>2023-07-04T16:40:07.000Z</time>
      </trkpt>
      <trkpt lat="45.83403" lon="4.69928">
        <ele>336.11139</ele>
        <time>2023-07-04T16:40:08.000Z</time>
      </trkpt>
      <trkpt lat="45.83404" lon="4.69936">
        <ele>337.53406</ele>
        <time>2023-07-04T16:40:09.000Z</time>
      </trkpt>
      <trkpt lat="45.83405" lon="4.69946">
        <ele>337.77631</ele>
        <time>2023-07-04T16:40:10.000Z</time>
      </trkpt>
      <trkpt lat="45.83403" lon="4.69954">
        <ele>338.00848</ele>
        <time>2023-07-04T16:40:11.000Z</time>
      </trkpt>
      <trkpt lat="45.83401" lon="4.69963">
        <ele>338.20929</ele>
        <time>2023-07-04T16:40:12.000Z</time>
      </trkpt>
      <trkpt lat="45.834" lon="4.69971">
        <ele>338.43121</ele>
        <time>2023-07-04T16:40:13.000Z</time>
      </trkpt>
      <trkpt lat="45.83399" lon="4.6998">
        <ele>338.66498</ele>
        <time>2023-07-04T16:40:14.000Z</time>
      </trkpt>
      <trkpt lat="45.83399" lon="4.69989">
        <ele>338.70193</ele>
        <time>2023-07-04T16:40:15.000Z</time>
      </trkpt>
      <trkpt lat="45.83397" lon="4.69997">
        <ele>338.61053</ele>
        <time>2023-07-04T16:40:16.000Z</time>
      </trkpt>
      <trkpt lat="45.83396" lon="4.70006">
        <ele>338.53366</ele>
        <time>2023-07-04T16:40:17.000Z</time>
      </trkpt>
      <trkpt lat="45.83397" lon="4.70015">
        <ele>338.43329</ele>
        <time>2023-07-04T16:40:18.000Z</time>
      </trkpt>
      <trkpt lat="45.83395" lon="4.70024">
        <ele>338.68915</ele>
        <time>2023-07-04T16:40:19.000Z</time>
      </trkpt>
      <trkpt lat="45.83394" lon="4.70032">
        <ele>338.89996</ele>
        <time>2023-07-04T16:40:20.000Z</time>
      </trkpt>
      <trkpt lat="45.83393" lon="4.70041">
        <ele>339.11649</ele>
        <time>2023-07-04T16:40:21.000Z</time>
      </trkpt>
      <trkpt lat="45.83392" lon="4.7005">
        <ele>339.42743</ele>
        <time>2023-07-04T16:40:22.000Z</time>
      </trkpt>
      <trkpt lat="45.83391" lon="4.70059">
        <ele>339.63763</ele>
        <time>2023-07-04T16:40:23.000Z</time>
      </trkpt>
      <trkpt lat="45.83391" lon="4.70069">
        <ele>339.85751</ele>
        <time>2023-07-04T16:40:24.000Z</time>
      </trkpt>
      <trkpt lat="45.8339" lon="4.70078">
        <ele>339.90546</ele>
        <time>2023-07-04T16:40:25.000Z</time>
      </trkpt>
      <trkpt lat="45.8339" lon="4.70086">
        <ele>339.81326</ele>
        <time>2023-07-04T16:40:26.000Z</time>
      </trkpt>
      <trkpt lat="45.83389" lon="4.70095">
        <ele>339.74609</ele>
        <time>2023-07-04T16:40:27.000Z</time>
      </trkpt>
      <trkpt lat="45.83388" lon="4.70103">
        <ele>338.15179</ele>
        <time>2023-07-04T16:40:28.000Z</time>
      </trkpt>
      <trkpt lat="45.83387" lon="4.70111">
        <ele>337.02554</ele>
        <time>2023-07-04T16:40:29.000Z</time>
      </trkpt>
      <trkpt lat="45.83385" lon="4.7012">
        <ele>337.19366</ele>
        <time>2023-07-04T16:40:30.000Z</time>
      </trkpt>
      <trkpt lat="45.83383" lon="4.70129">
        <ele>337.38446</ele>
        <time>2023-07-04T16:40:31.000Z</time>
      </trkpt>
      <trkpt lat="45.83381" lon="4.70138">
        <ele>337.60699</ele>
        <time>2023-07-04T16:40:32.000Z</time>
      </trkpt>
      <trkpt lat="45.83379" lon="4.70146">
        <ele>338.72797</ele>
        <time>2023-07-04T16:40:33.000Z</time>
      </trkpt>
      <trkpt lat="45.83376" lon="4.70155">
        <ele>339.84857</ele>
        <time>2023-07-04T16:40:34.000Z</time>
      </trkpt>
      <trkpt lat="45.83373" lon="4.70163">
        <ele>341.15756</ele>
        <time>2023-07-04T16:40:35.000Z</time>
      </trkpt>
      <trkpt lat="45.83371" lon="4.70172">
        <ele>342.58554</ele>
        <time>2023-07-04T16:40:36.000Z</time>
      </trkpt>
      <trkpt lat="45.83369" lon="4.7018">
        <ele>343.99625</ele>
        <time>2023-07-04T16:40:37.000Z</time>
      </trkpt>
      <trkpt lat="45.83367" lon="4.70189">
        <ele>345.43115</ele>
        <time>2023-07-04T16:40:38.000Z</time>
      </trkpt>
      <trkpt lat="45.83364" lon="4.70198">
        <ele>346.49344</ele>
        <time>2023-07-04T16:40:39.000Z</time>
      </trkpt>
      <trkpt lat="45.83361" lon="4.70205">
        <ele>347.62094</ele>
        <time>2023-07-04T16:40:40.000Z</time>
      </trkpt>
      <trkpt lat="45.83358" lon="4.70213">
        <ele>348.73627</ele>
        <time>2023-07-04T16:40:41.000Z</time>
      </trkpt>
      <trkpt lat="45.83357" lon="4.70222">
        <ele>349.83258</ele>
        <time>2023-07-04T16:40:42.000Z</time>
      </trkpt>
      <trkpt lat="45.83354" lon="4.7023">
        <ele>350.88983</ele>
        <time>2023-07-04T16:40:43.000Z</time>
      </trkpt>
      <trkpt lat="45.83351" lon="4.70238">
        <ele>351.93109</ele>
        <time>2023-07-04T16:40:44.000Z</time>
      </trkpt>
      <trkpt lat="45.83348" lon="4.70245">
        <ele>353.16806</ele>
        <time>2023-07-04T16:40:45.000Z</time>
      </trkpt>
      <trkpt lat="45.83345" lon="4.70253">
        <ele>354.53711</ele>
        <time>2023-07-04T16:40:46.000Z</time>
      </trkpt>
      <trkpt lat="45.83342" lon="4.70261">
        <ele>355.88956</ele>
        <time>2023-07-04T16:40:47.000Z</time>
      </trkpt>
      <trkpt lat="45.83339" lon="4.70268">
        <ele>357.20682</ele>
        <time>2023-07-04T16:40:48.000Z</time>
      </trkpt>
      <trkpt lat="45.83336" lon="4.70276">
        <ele>358.07587</ele>
        <time>2023-07-04T16:40:49.000Z</time>
      </trkpt>
      <trkpt lat="45.83333" lon="4.70284">
        <ele>359.03073</ele>
        <time>2023-07-04T16:40:50.000Z</time>
      </trkpt>
      <trkpt lat="45.8333" lon="4.70291">
        <ele>360.41742</ele>
        <time>2023-07-04T16:40:51.000Z</time>
      </trkpt>
      <trkpt lat="45.83329" lon="4.703">
        <ele>361.81665</ele>
        <time>2023-07-04T16:40:52.000Z</time>
      </trkpt>
      <trkpt lat="45.83327" lon="4.70309">
        <ele>360.90582</ele>
        <time>2023-07-04T16:40:53.000Z</time>
      </trkpt>
      <trkpt lat="45.83325" lon="4.70315">
        <ele>359.98276</ele>
        <time>2023-07-04T16:40:54.000Z</time>
      </trkpt>
      <trkpt lat="45.83323" lon="4.70322">
        <ele>359.05042</ele>
        <time>2023-07-04T16:40:55.000Z</time>
      </trkpt>
      <trkpt lat="45.83322" lon="4.7033">
        <ele>358.12457</ele>
        <time>2023-07-04T16:40:56.000Z</time>
      </trkpt>
      <trkpt lat="45.83322" lon="4.70337">
        <ele>357.2197</ele>
        <time>2023-07-04T16:40:57.000Z</time>
      </trkpt>
      <trkpt lat="45.83323" lon="4.70343">
        <ele>356.30365</ele>
        <time>2023-07-04T16:40:58.000Z</time>
      </trkpt>
      <trkpt lat="45.83324" lon="4.70349">
        <ele>355.37775</ele>
        <time>2023-07-04T16:40:59.000Z</time>
      </trkpt>
      <trkpt lat="45.83325" lon="4.70356">
        <ele>354.43146</ele>
        <time>2023-07-04T16:41:00.000Z</time>
      </trkpt>
      <trkpt lat="45.83326" lon="4.70365">
        <ele>353.35904</ele>
        <time>2023-07-04T16:41:01.000Z</time>
      </trkpt>
      <trkpt lat="45.83327" lon="4.70371">
        <ele>352.3353</ele>
        <time>2023-07-04T16:41:02.000Z</time>
      </trkpt>
      <trkpt lat="45.83328" lon="4.70377">
        <ele>351.91351</ele>
        <time>2023-07-04T16:41:03.000Z</time>
      </trkpt>
      <trkpt lat="45.83329" lon="4.70383">
        <ele>352.66446</ele>
        <time>2023-07-04T16:41:04.000Z</time>
      </trkpt>
      <trkpt lat="45.8333" lon="4.70391">
        <ele>353.45071</ele>
        <time>2023-07-04T16:41:05.000Z</time>
      </trkpt>
      <trkpt lat="45.83332" lon="4.70397">
        <ele>354.37744</ele>
        <time>2023-07-04T16:41:06.000Z</time>
      </trkpt>
      <trkpt lat="45.83333" lon="4.70404">
        <ele>355.24579</ele>
        <time>2023-07-04T16:41:07.000Z</time>
      </trkpt>
      <trkpt lat="45.83332" lon="4.7041">
        <ele>356.09601</ele>
        <time>2023-07-04T16:41:08.000Z</time>
      </trkpt>
      <trkpt lat="45.83333" lon="4.70417">
        <ele>356.78598</ele>
        <time>2023-07-04T16:41:09.000Z</time>
      </trkpt>
      <trkpt lat="45.83335" lon="4.70426">
        <ele>357.68668</ele>
        <time>2023-07-04T16:41:10.000Z</time>
      </trkpt>
      <trkpt lat="45.83336" lon="4.70433">
        <ele>358.22144</ele>
        <time>2023-07-04T16:41:11.000Z</time>
      </trkpt>
      <trkpt lat="45.83336" lon="4.7044">
        <ele>358.79901</ele>
        <time>2023-07-04T16:41:12.000Z</time>
      </trkpt>
      <trkpt lat="45.83336" lon="4.70447">
        <ele>360.76099</ele>
        <time>2023-07-04T16:41:13.000Z</time>
      </trkpt>
      <trkpt lat="45.83337" lon="4.70454">
        <ele>362.61725</ele>
        <time>2023-07-04T16:41:14.000Z</time>
      </trkpt>
      <trkpt lat="45.83338" lon="4.70463">
        <ele>363.99799</ele>
        <time>2023-07-04T16:41:15.000Z</time>
      </trkpt>
      <trkpt lat="45.83339" lon="4.70469">
        <ele>365.55341</ele>
        <time>2023-07-04T16:41:16.000Z</time>
      </trkpt>
      <trkpt lat="45.83339" lon="4.70476">
        <ele>367.18594</ele>
        <time>2023-07-04T16:41:17.000Z</time>
      </trkpt>
      <trkpt lat="45.83341" lon="4.70484">
        <ele>368.90582</ele>
        <time>2023-07-04T16:41:18.000Z</time>
      </trkpt>
      <trkpt lat="45.83341" lon="4.7049">
        <ele>370.73291</ele>
        <time>2023-07-04T16:41:19.000Z</time>
      </trkpt>
      <trkpt lat="45.83341" lon="4.70498">
        <ele>372.58249</ele>
        <time>2023-07-04T16:41:20.000Z</time>
      </trkpt>
      <trkpt lat="45.83343" lon="4.70506">
        <ele>374.52753</ele>
        <time>2023-07-04T16:41:21.000Z</time>
      </trkpt>
      <trkpt lat="45.83344" lon="4.70514">
        <ele>376.52435</ele>
        <time>2023-07-04T16:41:22.000Z</time>
      </trkpt>
      <trkpt lat="45.83345" lon="4.70521">
        <ele>377.86493</ele>
        <time>2023-07-04T16:41:23.000Z</time>
      </trkpt>
      <trkpt lat="45.83345" lon="4.70528">
        <ele>377.93436</ele>
        <time>2023-07-04T16:41:24.000Z</time>
      </trkpt>
      <trkpt lat="45.83346" lon="4.70536">
        <ele>377.87579</ele>
        <time>2023-07-04T16:41:25.000Z</time>
      </trkpt>
      <trkpt lat="45.83347" lon="4.70543">
        <ele>377.71735</ele>
        <time>2023-07-04T16:41:26.000Z</time>
      </trkpt>
      <trkpt lat="45.83349" lon="4.70551">
        <ele>377.62402</ele>
        <time>2023-07-04T16:41:27.000Z</time>
      </trkpt>
      <trkpt lat="45.83351" lon="4.7056">
        <ele>377.64798</ele>
        <time>2023-07-04T16:41:28.000Z</time>
      </trkpt>
      <trkpt lat="45.83351" lon="4.70567">
        <ele>377.77234</ele>
        <time>2023-07-04T16:41:29.000Z</time>
      </trkpt>
      <trkpt lat="45.83351" lon="4.70575">
        <ele>377.66348</ele>
        <time>2023-07-04T16:41:30.000Z</time>
      </trkpt>
      <trkpt lat="45.83352" lon="4.70582">
        <ele>377.39664</ele>
        <time>2023-07-04T16:41:31.000Z</time>
      </trkpt>
      <trkpt lat="45.83352" lon="4.7059">
        <ele>377.37457</ele>
        <time>2023-07-04T16:41:32.000Z</time>
      </trkpt>
      <trkpt lat="45.83352" lon="4.70597">
        <ele>376.26532</ele>
        <time>2023-07-04T16:41:33.000Z</time>
      </trkpt>
      <trkpt lat="45.83352" lon="4.70605">
        <ele>375.25827</ele>
        <time>2023-07-04T16:41:34.000Z</time>
      </trkpt>
      <trkpt lat="45.83353" lon="4.70613">
        <ele>374.76529</ele>
        <time>2023-07-04T16:41:35.000Z</time>
      </trkpt>
      <trkpt lat="45.83354" lon="4.7062">
        <ele>374.05234</ele>
        <time>2023-07-04T16:41:36.000Z</time>
      </trkpt>
      <trkpt lat="45.83353" lon="4.70629">
        <ele>373.23077</ele>
        <time>2023-07-04T16:41:37.000Z</time>
      </trkpt>
      <trkpt lat="45.83352" lon="4.70637">
        <ele>372.33926</ele>
        <time>2023-07-04T16:41:38.000Z</time>
      </trkpt>
      <trkpt lat="45.83352" lon="4.70645">
        <ele>371.37527</ele>
        <time>2023-07-04T16:41:39.000Z</time>
      </trkpt>
      <trkpt lat="45.83352" lon="4.70653">
        <ele>370.39111</ele>
        <time>2023-07-04T16:41:40.000Z</time>
      </trkpt>
      <trkpt lat="45.83351" lon="4.70661">
        <ele>369.46109</ele>
        <time>2023-07-04T16:41:41.000Z</time>
      </trkpt>
      <trkpt lat="45.8335" lon="4.70668">
        <ele>368.46844</ele>
        <time>2023-07-04T16:41:42.000Z</time>
      </trkpt>
      <trkpt lat="45.8335" lon="4.70676">
        <ele>367.53259</ele>
        <time>2023-07-04T16:41:43.000Z</time>
      </trkpt>
      <trkpt lat="45.83349" lon="4.70682">
        <ele>366.71381</ele>
        <time>2023-07-04T16:41:44.000Z</time>
      </trkpt>
      <trkpt lat="45.83349" lon="4.7069">
        <ele>366.00742</ele>
        <time>2023-07-04T16:41:45.000Z</time>
      </trkpt>
      <trkpt lat="45.83347" lon="4.70697">
        <ele>365.29745</ele>
        <time>2023-07-04T16:41:46.000Z</time>
      </trkpt>
      <trkpt lat="45.83346" lon="4.70705">
        <ele>364.57941</ele>
        <time>2023-07-04T16:41:47.000Z</time>
      </trkpt>
      <trkpt lat="45.83345" lon="4.70713">
        <ele>363.73672</ele>
        <time>2023-07-04T16:41:48.000Z</time>
      </trkpt>
      <trkpt lat="45.83344" lon="4.70722">
        <ele>362.98688</ele>
        <time>2023-07-04T16:41:49.000Z</time>
      </trkpt>
      <trkpt lat="45.83343" lon="4.7073">
        <ele>362.25299</ele>
        <time>2023-07-04T16:41:50.000Z</time>
      </trkpt>
      <trkpt lat="45.83343" lon="4.70739">
        <ele>361.57785</ele>
        <time>2023-07-04T16:41:51.000Z</time>
      </trkpt>
      <trkpt lat="45.83343" lon="4.70749">
        <ele>360.58124</ele>
        <time>2023-07-04T16:41:52.000Z</time>
      </trkpt>
      <trkpt lat="45.83342" lon="4.70757">
        <ele>360.65341</ele>
        <time>2023-07-04T16:41:53.000Z</time>
      </trkpt>
      <trkpt lat="45.83342" lon="4.70765">
        <ele>360.74911</ele>
        <time>2023-07-04T16:41:54.000Z</time>
      </trkpt>
      <trkpt lat="45.83341" lon="4.70773">
        <ele>360.83267</ele>
        <time>2023-07-04T16:41:55.000Z</time>
      </trkpt>
      <trkpt lat="45.83341" lon="4.70781">
        <ele>360.96124</ele>
        <time>2023-07-04T16:41:56.000Z</time>
      </trkpt>
      <trkpt lat="45.83341" lon="4.70789">
        <ele>361.09756</ele>
        <time>2023-07-04T16:41:57.000Z</time>
      </trkpt>
      <trkpt lat="45.8334" lon="4.70797">
        <ele>361.19278</ele>
        <time>2023-07-04T16:41:58.000Z</time>
      </trkpt>
      <trkpt lat="45.8334" lon="4.70804">
        <ele>361.28296</ele>
        <time>2023-07-04T16:41:59.000Z</time>
      </trkpt>
      <trkpt lat="45.83339" lon="4.70811">
        <ele>361.3624</ele>
        <time>2023-07-04T16:42:00.000Z</time>
      </trkpt>
      <trkpt lat="45.83337" lon="4.70818">
        <ele>361.4162</ele>
        <time>2023-07-04T16:42:01.000Z</time>
      </trkpt>
      <trkpt lat="45.83335" lon="4.70825">
        <ele>361.45807</ele>
        <time>2023-07-04T16:42:02.000Z</time>
      </trkpt>
      <trkpt lat="45.83335" lon="4.70833">
        <ele>361.49487</ele>
        <time>2023-07-04T16:42:03.000Z</time>
      </trkpt>
      <trkpt lat="45.83335" lon="4.7084">
        <ele>361.52835</ele>
        <time>2023-07-04T16:42:04.000Z</time>
      </trkpt>
      <trkpt lat="45.83334" lon="4.70846">
        <ele>361.51535</ele>
        <time>2023-07-04T16:42:05.000Z</time>
      </trkpt>
      <trkpt lat="45.83334" lon="4.70853">
        <ele>361.49054</ele>
        <time>2023-07-04T16:42:06.000Z</time>
      </trkpt>
      <trkpt lat="45.83335" lon="4.7086">
        <ele>361.45673</ele>
        <time>2023-07-04T16:42:07.000Z</time>
      </trkpt>
      <trkpt lat="45.83334" lon="4.70865">
        <ele>361.43665</ele>
        <time>2023-07-04T16:42:08.000Z</time>
      </trkpt>
      <trkpt lat="45.83333" lon="4.7087">
        <ele>361.36591</ele>
        <time>2023-07-04T16:42:09.000Z</time>
      </trkpt>
      <trkpt lat="45.83333" lon="4.70873">
        <ele>361.29312</ele>
        <time>2023-07-04T16:42:10.000Z</time>
      </trkpt>
      <trkpt lat="45.83332" lon="4.70876">
        <ele>361.22339</ele>
        <time>2023-07-04T16:42:11.000Z</time>
      </trkpt>
    </trkseg>
  </trk>
</gpx>